<?xml version='1.0' encoding='UTF-8'?><gpx version="1.1" creator="JPX - https://github.com/jenetics/jpx" xmlns="http://www.topografix.com/GPX/1/1"><trk><trkseg><trkpt lat="45.1010218" lon="10.9318586"><ele>14.0</ele><time>2026-04-25T05:26:26.015Z</time></trkpt><trkpt lat="45.1010672" lon="10.9317774"><ele>14.0</ele><time>2026-04-25T05:26:28.019Z</time></trkpt><trkpt lat="45.1010322" lon="10.9316785"><ele>15.0</ele><time>2026-04-25T05:26:33.027Z</time></trkpt><trkpt lat="45.1009469" lon="10.9316691"><ele>15.0</ele><time>2026-04-25T05:26:36.033Z</time></trkpt><trkpt lat="45.1009386" lon="10.9317577"><ele>14.0</ele><time>2026-04-25T05:26:41.041Z</time></trkpt></trkseg><trkseg><trkpt lat="45.1011567" lon="10.9318817"><ele>14.0</ele><time>2026-04-25T05:42:56.955Z</time></trkpt><trkpt lat="45.10124" lon="10.93184"><ele>13.999999999999998</ele><time>2026-04-25T05:43:04.956Z</time></trkpt><trkpt lat="45.1013067" lon="10.9318533"><ele>13.999999999999998</ele><time>2026-04-25T05:43:08.956Z</time></trkpt><trkpt lat="45.1013733" lon="10.9317533"><ele>14.0</ele><time>2026-04-25T05:43:11.955Z</time></trkpt><trkpt lat="45.1014517" lon="10.9316033"><ele>14.0</ele><time>2026-04-25T05:43:13.956Z</time></trkpt><trkpt lat="45.1014983" lon="10.9315283"><ele>14.000000000000002</ele><time>2026-04-25T05:43:14.955Z</time></trkpt><trkpt lat="45.1015433" lon="10.931455"><ele>14.0</ele><time>2026-04-25T05:43:15.956Z</time></trkpt><trkpt lat="45.1015917" lon="10.93138"><ele>14.0</ele><time>2026-04-25T05:43:16.955Z</time></trkpt><trkpt lat="45.101645" lon="10.9312967"><ele>14.0</ele><time>2026-04-25T05:43:17.955Z</time></trkpt><trkpt lat="45.101705" lon="10.9312067"><ele>14.000000000000002</ele><time>2026-04-25T05:43:18.955Z</time></trkpt><trkpt lat="45.10177" lon="10.931115"><ele>14.0</ele><time>2026-04-25T05:43:19.955Z</time></trkpt><trkpt lat="45.10184" lon="10.93102"><ele>14.0</ele><time>2026-04-25T05:43:20.955Z</time></trkpt><trkpt lat="45.1019117" lon="10.9309233"><ele>13.999999999999998</ele><time>2026-04-25T05:43:21.954Z</time></trkpt><trkpt lat="45.1019883" lon="10.9308283"><ele>13.999999999999998</ele><time>2026-04-25T05:43:22.955Z</time></trkpt><trkpt lat="45.1020683" lon="10.9307283"><ele>14.0</ele><time>2026-04-25T05:43:23.955Z</time></trkpt><trkpt lat="45.1021483" lon="10.9306283"><ele>14.0</ele><time>2026-04-25T05:43:24.956Z</time></trkpt><trkpt lat="45.1022333" lon="10.9305283"><ele>14.0</ele><time>2026-04-25T05:43:25.955Z</time></trkpt><trkpt lat="45.1023217" lon="10.9304317"><ele>13.999999999999998</ele><time>2026-04-25T05:43:26.954Z</time></trkpt><trkpt lat="45.1024067" lon="10.930335"><ele>13.999999999999998</ele><time>2026-04-25T05:43:27.956Z</time></trkpt><trkpt lat="45.10249" lon="10.9302433"><ele>14.0</ele><time>2026-04-25T05:43:28.955Z</time></trkpt><trkpt lat="45.1025667" lon="10.9301533"><ele>14.0</ele><time>2026-04-25T05:43:29.96Z</time></trkpt><trkpt lat="45.1026383" lon="10.930065"><ele>13.799999999999999</ele><time>2026-04-25T05:43:30.955Z</time></trkpt><trkpt lat="45.10271" lon="10.9299783"><ele>13.599999999999998</ele><time>2026-04-25T05:43:31.955Z</time></trkpt><trkpt lat="45.102785" lon="10.9298883"><ele>13.4</ele><time>2026-04-25T05:43:32.955Z</time></trkpt><trkpt lat="45.102865" lon="10.9297967"><ele>13.2</ele><time>2026-04-25T05:43:33.954Z</time></trkpt><trkpt lat="45.10295" lon="10.9296983"><ele>13.0</ele><time>2026-04-25T05:43:34.955Z</time></trkpt><trkpt lat="45.1030383" lon="10.9295967"><ele>13.0</ele><time>2026-04-25T05:43:35.955Z</time></trkpt><trkpt lat="45.1031317" lon="10.9294917"><ele>13.0</ele><time>2026-04-25T05:43:36.954Z</time></trkpt><trkpt lat="45.1032317" lon="10.9293867"><ele>13.0</ele><time>2026-04-25T05:43:37.955Z</time></trkpt><trkpt lat="45.1033367" lon="10.9292767"><ele>13.0</ele><time>2026-04-25T05:43:38.954Z</time></trkpt><trkpt lat="45.1034483" lon="10.9291583"><ele>13.25</ele><time>2026-04-25T05:43:39.954Z</time></trkpt><trkpt lat="45.1035567" lon="10.9290283"><ele>13.5</ele><time>2026-04-25T05:43:40.956Z</time></trkpt><trkpt lat="45.1036533" lon="10.9288867"><ele>13.75</ele><time>2026-04-25T05:43:41.955Z</time></trkpt><trkpt lat="45.1037433" lon="10.928725"><ele>14.0</ele><time>2026-04-25T05:43:42.954Z</time></trkpt><trkpt lat="45.1038283" lon="10.92855"><ele>14.0</ele><time>2026-04-25T05:43:43.955Z</time></trkpt><trkpt lat="45.10391" lon="10.92837"><ele>14.0</ele><time>2026-04-25T05:43:44.955Z</time></trkpt><trkpt lat="45.1039917" lon="10.9281983"><ele>14.0</ele><time>2026-04-25T05:43:45.955Z</time></trkpt><trkpt lat="45.10408" lon="10.92805"><ele>14.0</ele><time>2026-04-25T05:43:46.955Z</time></trkpt><trkpt lat="45.1041667" lon="10.92792"><ele>14.2</ele><time>2026-04-25T05:43:47.956Z</time></trkpt><trkpt lat="45.1042533" lon="10.927805"><ele>14.399999999999999</ele><time>2026-04-25T05:43:48.955Z</time></trkpt><trkpt lat="45.1043367" lon="10.9277033"><ele>14.6</ele><time>2026-04-25T05:43:49.955Z</time></trkpt><trkpt lat="45.10442" lon="10.9276317"><ele>14.8</ele><time>2026-04-25T05:43:50.955Z</time></trkpt><trkpt lat="45.104505" lon="10.9275983"><ele>15.0</ele><time>2026-04-25T05:43:51.955Z</time></trkpt><trkpt lat="45.104595" lon="10.9276033"><ele>15.0</ele><time>2026-04-25T05:43:52.955Z</time></trkpt><trkpt lat="45.1046783" lon="10.9276667"><ele>15.0</ele><time>2026-04-25T05:43:53.955Z</time></trkpt><trkpt lat="45.104765" lon="10.92775"><ele>15.0</ele><time>2026-04-25T05:43:54.955Z</time></trkpt><trkpt lat="45.1048567" lon="10.9278417"><ele>15.0</ele><time>2026-04-25T05:43:55.955Z</time></trkpt><trkpt lat="45.1049617" lon="10.92794"><ele>15.0</ele><time>2026-04-25T05:43:56.955Z</time></trkpt><trkpt lat="45.1050717" lon="10.92804"><ele>16.0</ele><time>2026-04-25T05:43:57.955Z</time></trkpt><trkpt lat="45.10519" lon="10.9281483"><ele>17.0</ele><time>2026-04-25T05:43:58.953Z</time></trkpt><trkpt lat="45.1053167" lon="10.9282583"><ele>18.0</ele><time>2026-04-25T05:43:59.953Z</time></trkpt><trkpt lat="45.1054483" lon="10.9283767"><ele>19.0</ele><time>2026-04-25T05:44:00.954Z</time></trkpt><trkpt lat="45.1055783" lon="10.928495"><ele>19.0</ele><time>2026-04-25T05:44:01.955Z</time></trkpt><trkpt lat="45.1057067" lon="10.9286083"><ele>19.0</ele><time>2026-04-25T05:44:02.955Z</time></trkpt><trkpt lat="45.1058317" lon="10.9287217"><ele>19.0</ele><time>2026-04-25T05:44:03.955Z</time></trkpt><trkpt lat="45.1059533" lon="10.9288333"><ele>19.0</ele><time>2026-04-25T05:44:04.955Z</time></trkpt><trkpt lat="45.10607" lon="10.9289317"><ele>19.0</ele><time>2026-04-25T05:44:05.954Z</time></trkpt><trkpt lat="45.10618" lon="10.929025"><ele>19.0</ele><time>2026-04-25T05:44:06.954Z</time></trkpt><trkpt lat="45.1062817" lon="10.9291117"><ele>19.0</ele><time>2026-04-25T05:44:07.955Z</time></trkpt><trkpt lat="45.1063733" lon="10.92919"><ele>19.0</ele><time>2026-04-25T05:44:08.955Z</time></trkpt><trkpt lat="45.1064533" lon="10.9292567"><ele>19.0</ele><time>2026-04-25T05:44:09.955Z</time></trkpt><trkpt lat="45.1065183" lon="10.9293133"><ele>18.8</ele><time>2026-04-25T05:44:10.955Z</time></trkpt><trkpt lat="45.1065983" lon="10.9293883"><ele>18.599999999999998</ele><time>2026-04-25T05:44:12.955Z</time></trkpt><trkpt lat="45.10668" lon="10.9294067"><ele>18.4</ele><time>2026-04-25T05:44:16.956Z</time></trkpt><trkpt lat="45.1067517" lon="10.92932"><ele>18.2</ele><time>2026-04-25T05:44:18.957Z</time></trkpt><trkpt lat="45.1067817" lon="10.9291883"><ele>18.0</ele><time>2026-04-25T05:44:19.955Z</time></trkpt><trkpt lat="45.1068117" lon="10.9290283"><ele>17.5</ele><time>2026-04-25T05:44:20.955Z</time></trkpt><trkpt lat="45.10684" lon="10.9288583"><ele>17.0</ele><time>2026-04-25T05:44:21.955Z</time></trkpt><trkpt lat="45.1068683" lon="10.9286783"><ele>16.5</ele><time>2026-04-25T05:44:22.955Z</time></trkpt><trkpt lat="45.106895" lon="10.9284817"><ele>16.0</ele><time>2026-04-25T05:44:23.954Z</time></trkpt><trkpt lat="45.1069183" lon="10.9282683"><ele>15.666666666666666</ele><time>2026-04-25T05:44:24.955Z</time></trkpt><trkpt lat="45.1069367" lon="10.92804"><ele>15.333333333333332</ele><time>2026-04-25T05:44:25.955Z</time></trkpt><trkpt lat="45.1069517" lon="10.9278"><ele>15.0</ele><time>2026-04-25T05:44:26.955Z</time></trkpt><trkpt lat="45.1069633" lon="10.927545"><ele>14.666666666666668</ele><time>2026-04-25T05:44:27.955Z</time></trkpt><trkpt lat="45.1069767" lon="10.92728"><ele>14.333333333333334</ele><time>2026-04-25T05:44:28.955Z</time></trkpt><trkpt lat="45.1069883" lon="10.9270033"><ele>14.0</ele><time>2026-04-25T05:44:29.955Z</time></trkpt><trkpt lat="45.1070017" lon="10.9267183"><ele>14.0</ele><time>2026-04-25T05:44:30.956Z</time></trkpt><trkpt lat="45.107015" lon="10.9264267"><ele>14.0</ele><time>2026-04-25T05:44:31.954Z</time></trkpt><trkpt lat="45.1070317" lon="10.926135"><ele>14.0</ele><time>2026-04-25T05:44:32.955Z</time></trkpt><trkpt lat="45.1070533" lon="10.9258417"><ele>14.0</ele><time>2026-04-25T05:44:33.955Z</time></trkpt><trkpt lat="45.1070867" lon="10.9255483"><ele>14.0</ele><time>2026-04-25T05:44:34.956Z</time></trkpt><trkpt lat="45.107135" lon="10.92526"><ele>14.0</ele><time>2026-04-25T05:44:35.955Z</time></trkpt><trkpt lat="45.1072017" lon="10.924985"><ele>14.0</ele><time>2026-04-25T05:44:36.955Z</time></trkpt><trkpt lat="45.1072867" lon="10.92472"><ele>14.0</ele><time>2026-04-25T05:44:37.954Z</time></trkpt><trkpt lat="45.107395" lon="10.9244733"><ele>14.0</ele><time>2026-04-25T05:44:38.954Z</time></trkpt><trkpt lat="45.1075267" lon="10.9242517"><ele>14.0</ele><time>2026-04-25T05:44:39.954Z</time></trkpt><trkpt lat="45.107675" lon="10.9240533"><ele>14.0</ele><time>2026-04-25T05:44:40.955Z</time></trkpt><trkpt lat="45.1078433" lon="10.923885"><ele>14.0</ele><time>2026-04-25T05:44:41.955Z</time></trkpt><trkpt lat="45.1080233" lon="10.9237383"><ele>14.0</ele><time>2026-04-25T05:44:42.954Z</time></trkpt><trkpt lat="45.108215" lon="10.9236183"><ele>14.0</ele><time>2026-04-25T05:44:43.955Z</time></trkpt><trkpt lat="45.1084133" lon="10.923525"><ele>14.0</ele><time>2026-04-25T05:44:44.955Z</time></trkpt><trkpt lat="45.108615" lon="10.9234567"><ele>14.666666666666668</ele><time>2026-04-25T05:44:45.954Z</time></trkpt><trkpt lat="45.1088117" lon="10.9233967"><ele>15.333333333333332</ele><time>2026-04-25T05:44:46.956Z</time></trkpt><trkpt lat="45.109005" lon="10.92334"><ele>16.0</ele><time>2026-04-25T05:44:47.956Z</time></trkpt><trkpt lat="45.1091917" lon="10.9232817"><ele>16.666666666666664</ele><time>2026-04-25T05:44:48.955Z</time></trkpt><trkpt lat="45.1093767" lon="10.9232217"><ele>17.333333333333332</ele><time>2026-04-25T05:44:49.954Z</time></trkpt><trkpt lat="45.1095617" lon="10.92317"><ele>18.0</ele><time>2026-04-25T05:44:50.955Z</time></trkpt><trkpt lat="45.109745" lon="10.9231183"><ele>17.666666666666668</ele><time>2026-04-25T05:44:51.955Z</time></trkpt><trkpt lat="45.109925" lon="10.92307"><ele>17.333333333333336</ele><time>2026-04-25T05:44:52.96Z</time></trkpt><trkpt lat="45.1101033" lon="10.9230267"><ele>17.0</ele><time>2026-04-25T05:44:53.954Z</time></trkpt><trkpt lat="45.110275" lon="10.9229817"><ele>17.0</ele><time>2026-04-25T05:44:54.955Z</time></trkpt><trkpt lat="45.11044" lon="10.922935"><ele>17.0</ele><time>2026-04-25T05:44:55.955Z</time></trkpt><trkpt lat="45.1106017" lon="10.9228883"><ele>17.0</ele><time>2026-04-25T05:44:56.955Z</time></trkpt><trkpt lat="45.1107683" lon="10.92282"><ele>16.666666666666668</ele><time>2026-04-25T05:44:57.954Z</time></trkpt><trkpt lat="45.1109383" lon="10.922725"><ele>16.333333333333332</ele><time>2026-04-25T05:44:58.956Z</time></trkpt><trkpt lat="45.111115" lon="10.92261"><ele>16.0</ele><time>2026-04-25T05:44:59.955Z</time></trkpt><trkpt lat="45.1113033" lon="10.9224767"><ele>16.0</ele><time>2026-04-25T05:45:00.955Z</time></trkpt><trkpt lat="45.1115" lon="10.92234"><ele>16.0</ele><time>2026-04-25T05:45:01.955Z</time></trkpt><trkpt lat="45.1117067" lon="10.9222017"><ele>16.0</ele><time>2026-04-25T05:45:02.955Z</time></trkpt><trkpt lat="45.1119267" lon="10.9220633"><ele>16.0</ele><time>2026-04-25T05:45:03.955Z</time></trkpt><trkpt lat="45.1121533" lon="10.921925"><ele>16.0</ele><time>2026-04-25T05:45:04.956Z</time></trkpt><trkpt lat="45.1123883" lon="10.9217817"><ele>17.0</ele><time>2026-04-25T05:45:05.955Z</time></trkpt><trkpt lat="45.1126217" lon="10.921635"><ele>18.0</ele><time>2026-04-25T05:45:06.955Z</time></trkpt><trkpt lat="45.1128533" lon="10.9214883"><ele>18.0</ele><time>2026-04-25T05:45:07.956Z</time></trkpt><trkpt lat="45.113085" lon="10.92134"><ele>18.0</ele><time>2026-04-25T05:45:08.955Z</time></trkpt><trkpt lat="45.1133133" lon="10.92119"><ele>18.0</ele><time>2026-04-25T05:45:09.955Z</time></trkpt><trkpt lat="45.1135383" lon="10.9210383"><ele>18.0</ele><time>2026-04-25T05:45:10.956Z</time></trkpt><trkpt lat="45.11376" lon="10.920885"><ele>17.0</ele><time>2026-04-25T05:45:11.955Z</time></trkpt><trkpt lat="45.11397" lon="10.9207233"><ele>16.0</ele><time>2026-04-25T05:45:12.955Z</time></trkpt><trkpt lat="45.11417" lon="10.9205533"><ele>16.0</ele><time>2026-04-25T05:45:13.955Z</time></trkpt><trkpt lat="45.1143617" lon="10.9203717"><ele>16.0</ele><time>2026-04-25T05:45:14.954Z</time></trkpt><trkpt lat="45.1145483" lon="10.92019"><ele>16.333333333333332</ele><time>2026-04-25T05:45:15.955Z</time></trkpt><trkpt lat="45.11473" lon="10.9200033"><ele>16.666666666666668</ele><time>2026-04-25T05:45:16.955Z</time></trkpt><trkpt lat="45.1149083" lon="10.91982"><ele>17.0</ele><time>2026-04-25T05:45:17.954Z</time></trkpt><trkpt lat="45.1150833" lon="10.9196333"><ele>17.0</ele><time>2026-04-25T05:45:18.955Z</time></trkpt><trkpt lat="45.11526" lon="10.91945"><ele>17.0</ele><time>2026-04-25T05:45:19.956Z</time></trkpt><trkpt lat="45.1154333" lon="10.9192733"><ele>17.0</ele><time>2026-04-25T05:45:20.955Z</time></trkpt><trkpt lat="45.1156067" lon="10.9191"><ele>17.0</ele><time>2026-04-25T05:45:21.955Z</time></trkpt><trkpt lat="45.1157767" lon="10.9189233"><ele>17.0</ele><time>2026-04-25T05:45:22.956Z</time></trkpt><trkpt lat="45.1159433" lon="10.918745"><ele>17.0</ele><time>2026-04-25T05:45:23.956Z</time></trkpt><trkpt lat="45.1161033" lon="10.9185633"><ele>17.666666666666668</ele><time>2026-04-25T05:45:24.955Z</time></trkpt><trkpt lat="45.1162583" lon="10.9183783"><ele>18.333333333333332</ele><time>2026-04-25T05:45:25.955Z</time></trkpt><trkpt lat="45.1164133" lon="10.918195"><ele>19.0</ele><time>2026-04-25T05:45:26.954Z</time></trkpt><trkpt lat="45.116565" lon="10.91801"><ele>18.0</ele><time>2026-04-25T05:45:27.954Z</time></trkpt><trkpt lat="45.1167183" lon="10.9178233"><ele>17.0</ele><time>2026-04-25T05:45:28.956Z</time></trkpt><trkpt lat="45.116875" lon="10.9176333"><ele>16.0</ele><time>2026-04-25T05:45:29.955Z</time></trkpt><trkpt lat="45.11703" lon="10.91744"><ele>16.0</ele><time>2026-04-25T05:45:30.954Z</time></trkpt><trkpt lat="45.1171833" lon="10.9172383"><ele>16.0</ele><time>2026-04-25T05:45:31.954Z</time></trkpt><trkpt lat="45.117325" lon="10.91702"><ele>16.0</ele><time>2026-04-25T05:45:32.954Z</time></trkpt><trkpt lat="45.11746" lon="10.9167817"><ele>16.333333333333332</ele><time>2026-04-25T05:45:33.955Z</time></trkpt><trkpt lat="45.1175817" lon="10.9165317"><ele>16.666666666666668</ele><time>2026-04-25T05:45:34.956Z</time></trkpt><trkpt lat="45.1176933" lon="10.9162683"><ele>17.0</ele><time>2026-04-25T05:45:35.955Z</time></trkpt><trkpt lat="45.1178083" lon="10.9159983"><ele>18.5</ele><time>2026-04-25T05:45:36.955Z</time></trkpt><trkpt lat="45.1179267" lon="10.9157283"><ele>20.0</ele><time>2026-04-25T05:45:37.955Z</time></trkpt><trkpt lat="45.1180517" lon="10.9154567"><ele>20.0</ele><time>2026-04-25T05:45:38.956Z</time></trkpt><trkpt lat="45.1181767" lon="10.91519"><ele>20.0</ele><time>2026-04-25T05:45:39.956Z</time></trkpt><trkpt lat="45.1183067" lon="10.9149233"><ele>19.5</ele><time>2026-04-25T05:45:40.954Z</time></trkpt><trkpt lat="45.1184483" lon="10.9146583"><ele>19.0</ele><time>2026-04-25T05:45:41.955Z</time></trkpt><trkpt lat="45.118595" lon="10.914395"><ele>19.0</ele><time>2026-04-25T05:45:42.956Z</time></trkpt><trkpt lat="45.118745" lon="10.914135"><ele>19.0</ele><time>2026-04-25T05:45:43.954Z</time></trkpt><trkpt lat="45.11889" lon="10.91387"><ele>19.0</ele><time>2026-04-25T05:45:44.955Z</time></trkpt><trkpt lat="45.1190233" lon="10.9135867"><ele>19.0</ele><time>2026-04-25T05:45:45.954Z</time></trkpt><trkpt lat="45.11912" lon="10.913285"><ele>18.0</ele><time>2026-04-25T05:45:46.956Z</time></trkpt><trkpt lat="45.1191933" lon="10.9129617"><ele>17.0</ele><time>2026-04-25T05:45:47.954Z</time></trkpt><trkpt lat="45.1192583" lon="10.9126417"><ele>16.666666666666668</ele><time>2026-04-25T05:45:48.956Z</time></trkpt><trkpt lat="45.1193233" lon="10.912335"><ele>16.333333333333332</ele><time>2026-04-25T05:45:49.954Z</time></trkpt><trkpt lat="45.1193867" lon="10.9120483"><ele>16.0</ele><time>2026-04-25T05:45:50.955Z</time></trkpt><trkpt lat="45.119445" lon="10.911775"><ele>17.0</ele><time>2026-04-25T05:45:51.954Z</time></trkpt><trkpt lat="45.1195" lon="10.9115167"><ele>18.0</ele><time>2026-04-25T05:45:52.956Z</time></trkpt><trkpt lat="45.119555" lon="10.911275"><ele>19.0</ele><time>2026-04-25T05:45:53.955Z</time></trkpt><trkpt lat="45.1196067" lon="10.9110467"><ele>18.666666666666664</ele><time>2026-04-25T05:45:54.955Z</time></trkpt><trkpt lat="45.119655" lon="10.9108317"><ele>18.333333333333332</ele><time>2026-04-25T05:45:55.955Z</time></trkpt><trkpt lat="45.11971" lon="10.91063"><ele>18.0</ele><time>2026-04-25T05:45:56.955Z</time></trkpt><trkpt lat="45.1197767" lon="10.9104333"><ele>18.0</ele><time>2026-04-25T05:45:57.955Z</time></trkpt><trkpt lat="45.119855" lon="10.9102383"><ele>18.0</ele><time>2026-04-25T05:45:58.957Z</time></trkpt><trkpt lat="45.11994" lon="10.91004"><ele>18.0</ele><time>2026-04-25T05:45:59.955Z</time></trkpt><trkpt lat="45.1200283" lon="10.9098383"><ele>18.333333333333332</ele><time>2026-04-25T05:46:00.955Z</time></trkpt><trkpt lat="45.120125" lon="10.9096383"><ele>18.666666666666664</ele><time>2026-04-25T05:46:01.956Z</time></trkpt><trkpt lat="45.120225" lon="10.90943"><ele>19.0</ele><time>2026-04-25T05:46:02.954Z</time></trkpt><trkpt lat="45.1203133" lon="10.9092"><ele>19.0</ele><time>2026-04-25T05:46:03.955Z</time></trkpt><trkpt lat="45.12038" lon="10.9089483"><ele>19.0</ele><time>2026-04-25T05:46:04.955Z</time></trkpt><trkpt lat="45.1204333" lon="10.908685"><ele>19.0</ele><time>2026-04-25T05:46:05.955Z</time></trkpt><trkpt lat="45.1204667" lon="10.908405"><ele>18.666666666666664</ele><time>2026-04-25T05:46:06.955Z</time></trkpt><trkpt lat="45.1204817" lon="10.9081117"><ele>18.333333333333332</ele><time>2026-04-25T05:46:07.955Z</time></trkpt><trkpt lat="45.1204767" lon="10.9078067"><ele>18.0</ele><time>2026-04-25T05:46:08.955Z</time></trkpt><trkpt lat="45.120455" lon="10.9074967"><ele>18.0</ele><time>2026-04-25T05:46:09.955Z</time></trkpt><trkpt lat="45.1204217" lon="10.90718"><ele>18.0</ele><time>2026-04-25T05:46:10.956Z</time></trkpt><trkpt lat="45.120385" lon="10.9068583"><ele>18.5</ele><time>2026-04-25T05:46:11.954Z</time></trkpt><trkpt lat="45.12035" lon="10.90653"><ele>19.0</ele><time>2026-04-25T05:46:12.955Z</time></trkpt><trkpt lat="45.120315" lon="10.9061967"><ele>19.0</ele><time>2026-04-25T05:46:13.955Z</time></trkpt><trkpt lat="45.1202867" lon="10.9058567"><ele>19.0</ele><time>2026-04-25T05:46:14.954Z</time></trkpt><trkpt lat="45.1202567" lon="10.9055117"><ele>19.0</ele><time>2026-04-25T05:46:15.958Z</time></trkpt><trkpt lat="45.1202283" lon="10.9051617"><ele>19.0</ele><time>2026-04-25T05:46:16.955Z</time></trkpt><trkpt lat="45.1202017" lon="10.9048133"><ele>19.0</ele><time>2026-04-25T05:46:17.955Z</time></trkpt><trkpt lat="45.1201817" lon="10.904465"><ele>19.0</ele><time>2026-04-25T05:46:18.955Z</time></trkpt><trkpt lat="45.1201667" lon="10.9041167"><ele>19.0</ele><time>2026-04-25T05:46:19.955Z</time></trkpt><trkpt lat="45.12016" lon="10.9037667"><ele>19.0</ele><time>2026-04-25T05:46:20.955Z</time></trkpt><trkpt lat="45.1201583" lon="10.9034183"><ele>18.5</ele><time>2026-04-25T05:46:21.955Z</time></trkpt><trkpt lat="45.1201683" lon="10.903075"><ele>18.0</ele><time>2026-04-25T05:46:22.955Z</time></trkpt><trkpt lat="45.120185" lon="10.9027283"><ele>18.5</ele><time>2026-04-25T05:46:23.956Z</time></trkpt><trkpt lat="45.1202117" lon="10.9023883"><ele>19.0</ele><time>2026-04-25T05:46:24.955Z</time></trkpt><trkpt lat="45.1202433" lon="10.9020667"><ele>19.0</ele><time>2026-04-25T05:46:25.955Z</time></trkpt><trkpt lat="45.1202767" lon="10.901765"><ele>19.0</ele><time>2026-04-25T05:46:26.955Z</time></trkpt><trkpt lat="45.12031" lon="10.9014733"><ele>19.0</ele><time>2026-04-25T05:46:27.955Z</time></trkpt><trkpt lat="45.1203433" lon="10.9011917"><ele>18.666666666666664</ele><time>2026-04-25T05:46:28.955Z</time></trkpt><trkpt lat="45.1203817" lon="10.9009133"><ele>18.333333333333332</ele><time>2026-04-25T05:46:29.955Z</time></trkpt><trkpt lat="45.120425" lon="10.9006317"><ele>18.0</ele><time>2026-04-25T05:46:30.954Z</time></trkpt><trkpt lat="45.120475" lon="10.9003517"><ele>18.0</ele><time>2026-04-25T05:46:31.956Z</time></trkpt><trkpt lat="45.120525" lon="10.9000717"><ele>18.0</ele><time>2026-04-25T05:46:32.955Z</time></trkpt><trkpt lat="45.1205733" lon="10.8997883"><ele>18.0</ele><time>2026-04-25T05:46:33.955Z</time></trkpt><trkpt lat="45.1206233" lon="10.8994967"><ele>18.0</ele><time>2026-04-25T05:46:34.954Z</time></trkpt><trkpt lat="45.1206667" lon="10.8992017"><ele>18.0</ele><time>2026-04-25T05:46:35.955Z</time></trkpt><trkpt lat="45.1207083" lon="10.8988983"><ele>18.0</ele><time>2026-04-25T05:46:36.955Z</time></trkpt><trkpt lat="45.12075" lon="10.898585"><ele>19.0</ele><time>2026-04-25T05:46:37.955Z</time></trkpt><trkpt lat="45.1207767" lon="10.8982717"><ele>20.0</ele><time>2026-04-25T05:46:38.954Z</time></trkpt><trkpt lat="45.1207967" lon="10.8979467"><ele>20.0</ele><time>2026-04-25T05:46:39.955Z</time></trkpt><trkpt lat="45.12082" lon="10.897625"><ele>20.0</ele><time>2026-04-25T05:46:40.954Z</time></trkpt><trkpt lat="45.1208533" lon="10.897295"><ele>19.5</ele><time>2026-04-25T05:46:41.954Z</time></trkpt><trkpt lat="45.1209067" lon="10.896975"><ele>19.0</ele><time>2026-04-25T05:46:42.955Z</time></trkpt><trkpt lat="45.120985" lon="10.8966683"><ele>18.5</ele><time>2026-04-25T05:46:43.955Z</time></trkpt><trkpt lat="45.1210883" lon="10.8963733"><ele>18.0</ele><time>2026-04-25T05:46:44.954Z</time></trkpt><trkpt lat="45.1212117" lon="10.89609"><ele>18.0</ele><time>2026-04-25T05:46:45.956Z</time></trkpt><trkpt lat="45.1213417" lon="10.8958167"><ele>18.0</ele><time>2026-04-25T05:46:46.954Z</time></trkpt><trkpt lat="45.1214717" lon="10.8955517"><ele>17.666666666666668</ele><time>2026-04-25T05:46:47.956Z</time></trkpt><trkpt lat="45.1215983" lon="10.8952917"><ele>17.333333333333336</ele><time>2026-04-25T05:46:48.955Z</time></trkpt><trkpt lat="45.1217183" lon="10.8950367"><ele>17.0</ele><time>2026-04-25T05:46:49.955Z</time></trkpt><trkpt lat="45.12183" lon="10.89479"><ele>17.0</ele><time>2026-04-25T05:46:50.954Z</time></trkpt><trkpt lat="45.1219317" lon="10.8945533"><ele>17.0</ele><time>2026-04-25T05:46:51.955Z</time></trkpt><trkpt lat="45.1220267" lon="10.8943233"><ele>17.0</ele><time>2026-04-25T05:46:52.956Z</time></trkpt><trkpt lat="45.122115" lon="10.8941"><ele>17.333333333333336</ele><time>2026-04-25T05:46:53.955Z</time></trkpt><trkpt lat="45.1222" lon="10.893885"><ele>17.666666666666668</ele><time>2026-04-25T05:46:54.955Z</time></trkpt><trkpt lat="45.1222767" lon="10.8936817"><ele>18.0</ele><time>2026-04-25T05:46:55.958Z</time></trkpt><trkpt lat="45.12235" lon="10.8934883"><ele>18.25</ele><time>2026-04-25T05:46:56.956Z</time></trkpt><trkpt lat="45.1224183" lon="10.8933033"><ele>18.5</ele><time>2026-04-25T05:46:57.954Z</time></trkpt><trkpt lat="45.1224883" lon="10.8931217"><ele>18.75</ele><time>2026-04-25T05:46:58.956Z</time></trkpt><trkpt lat="45.1225583" lon="10.8929417"><ele>19.0</ele><time>2026-04-25T05:46:59.955Z</time></trkpt><trkpt lat="45.1226283" lon="10.8927583"><ele>19.5</ele><time>2026-04-25T05:47:00.955Z</time></trkpt><trkpt lat="45.1227017" lon="10.892575"><ele>20.0</ele><time>2026-04-25T05:47:01.955Z</time></trkpt><trkpt lat="45.1227717" lon="10.8923883"><ele>20.5</ele><time>2026-04-25T05:47:02.956Z</time></trkpt><trkpt lat="45.1228417" lon="10.8921983"><ele>21.0</ele><time>2026-04-25T05:47:03.956Z</time></trkpt><trkpt lat="45.122905" lon="10.892005"><ele>21.0</ele><time>2026-04-25T05:47:04.955Z</time></trkpt><trkpt lat="45.1229633" lon="10.8918017"><ele>21.0</ele><time>2026-04-25T05:47:05.955Z</time></trkpt><trkpt lat="45.1230217" lon="10.8915817"><ele>21.0</ele><time>2026-04-25T05:47:06.956Z</time></trkpt><trkpt lat="45.123075" lon="10.8913417"><ele>20.333333333333332</ele><time>2026-04-25T05:47:07.956Z</time></trkpt><trkpt lat="45.123125" lon="10.891075"><ele>19.666666666666664</ele><time>2026-04-25T05:47:08.954Z</time></trkpt><trkpt lat="45.12317" lon="10.8907883"><ele>19.0</ele><time>2026-04-25T05:47:09.955Z</time></trkpt><trkpt lat="45.1232133" lon="10.8904783"><ele>18.0</ele><time>2026-04-25T05:47:10.955Z</time></trkpt><trkpt lat="45.1232617" lon="10.8901533"><ele>17.0</ele><time>2026-04-25T05:47:11.954Z</time></trkpt><trkpt lat="45.1233217" lon="10.8898217"><ele>16.5</ele><time>2026-04-25T05:47:12.956Z</time></trkpt><trkpt lat="45.1233933" lon="10.8894883"><ele>16.0</ele><time>2026-04-25T05:47:13.955Z</time></trkpt><trkpt lat="45.1234817" lon="10.8891567"><ele>16.0</ele><time>2026-04-25T05:47:14.956Z</time></trkpt><trkpt lat="45.1235867" lon="10.8888333"><ele>16.0</ele><time>2026-04-25T05:47:15.956Z</time></trkpt><trkpt lat="45.123705" lon="10.88851"><ele>16.5</ele><time>2026-04-25T05:47:16.955Z</time></trkpt><trkpt lat="45.12384" lon="10.888195"><ele>17.0</ele><time>2026-04-25T05:47:17.956Z</time></trkpt><trkpt lat="45.1239817" lon="10.887885"><ele>18.5</ele><time>2026-04-25T05:47:18.955Z</time></trkpt><trkpt lat="45.1241317" lon="10.8875783"><ele>20.0</ele><time>2026-04-25T05:47:19.955Z</time></trkpt><trkpt lat="45.12428" lon="10.8872667"><ele>20.0</ele><time>2026-04-25T05:47:20.956Z</time></trkpt><trkpt lat="45.1244233" lon="10.88695"><ele>20.0</ele><time>2026-04-25T05:47:21.956Z</time></trkpt><trkpt lat="45.124555" lon="10.8866217"><ele>19.5</ele><time>2026-04-25T05:47:22.956Z</time></trkpt><trkpt lat="45.1246717" lon="10.8862833"><ele>19.0</ele><time>2026-04-25T05:47:23.955Z</time></trkpt><trkpt lat="45.1247767" lon="10.88594"><ele>19.5</ele><time>2026-04-25T05:47:24.956Z</time></trkpt><trkpt lat="45.1248767" lon="10.88559"><ele>20.0</ele><time>2026-04-25T05:47:25.956Z</time></trkpt><trkpt lat="45.124975" lon="10.8852383"><ele>18.5</ele><time>2026-04-25T05:47:26.955Z</time></trkpt><trkpt lat="45.1250717" lon="10.8848817"><ele>17.0</ele><time>2026-04-25T05:47:27.955Z</time></trkpt><trkpt lat="45.12517" lon="10.8845183"><ele>17.5</ele><time>2026-04-25T05:47:28.956Z</time></trkpt><trkpt lat="45.1252683" lon="10.8841467"><ele>18.0</ele><time>2026-04-25T05:47:29.955Z</time></trkpt><trkpt lat="45.12537" lon="10.8837683"><ele>18.5</ele><time>2026-04-25T05:47:30.956Z</time></trkpt><trkpt lat="45.1254717" lon="10.8833867"><ele>19.0</ele><time>2026-04-25T05:47:31.956Z</time></trkpt><trkpt lat="45.12557" lon="10.8830033"><ele>19.0</ele><time>2026-04-25T05:47:32.956Z</time></trkpt><trkpt lat="45.125665" lon="10.88262"><ele>19.0</ele><time>2026-04-25T05:47:33.956Z</time></trkpt><trkpt lat="45.1257583" lon="10.8822383"><ele>18.5</ele><time>2026-04-25T05:47:34.956Z</time></trkpt><trkpt lat="45.1258517" lon="10.8818533"><ele>18.0</ele><time>2026-04-25T05:47:35.955Z</time></trkpt><trkpt lat="45.1259417" lon="10.8814667"><ele>18.0</ele><time>2026-04-25T05:47:36.954Z</time></trkpt><trkpt lat="45.1260283" lon="10.8810733"><ele>18.0</ele><time>2026-04-25T05:47:37.955Z</time></trkpt><trkpt lat="45.1261133" lon="10.8806767"><ele>18.5</ele><time>2026-04-25T05:47:38.955Z</time></trkpt><trkpt lat="45.12619" lon="10.880275"><ele>19.0</ele><time>2026-04-25T05:47:39.955Z</time></trkpt><trkpt lat="45.12626" lon="10.8798717"><ele>19.0</ele><time>2026-04-25T05:47:40.956Z</time></trkpt><trkpt lat="45.1263283" lon="10.8794683"><ele>19.0</ele><time>2026-04-25T05:47:41.956Z</time></trkpt><trkpt lat="45.1263883" lon="10.8790633"><ele>19.0</ele><time>2026-04-25T05:47:42.954Z</time></trkpt><trkpt lat="45.126445" lon="10.8786617"><ele>19.0</ele><time>2026-04-25T05:47:43.956Z</time></trkpt><trkpt lat="45.1264983" lon="10.8782583"><ele>19.0</ele><time>2026-04-25T05:47:44.954Z</time></trkpt><trkpt lat="45.1265483" lon="10.87785"><ele>19.0</ele><time>2026-04-25T05:47:45.956Z</time></trkpt><trkpt lat="45.1266" lon="10.8774433"><ele>18.5</ele><time>2026-04-25T05:47:46.956Z</time></trkpt><trkpt lat="45.12666" lon="10.87704"><ele>18.0</ele><time>2026-04-25T05:47:47.955Z</time></trkpt><trkpt lat="45.1267333" lon="10.8766367"><ele>18.0</ele><time>2026-04-25T05:47:48.955Z</time></trkpt><trkpt lat="45.1268183" lon="10.8762367"><ele>18.0</ele><time>2026-04-25T05:47:49.956Z</time></trkpt><trkpt lat="45.12691" lon="10.87584"><ele>18.0</ele><time>2026-04-25T05:47:50.955Z</time></trkpt><trkpt lat="45.1270133" lon="10.8754483"><ele>18.0</ele><time>2026-04-25T05:47:51.956Z</time></trkpt><trkpt lat="45.1271267" lon="10.8750617"><ele>18.0</ele><time>2026-04-25T05:47:52.956Z</time></trkpt><trkpt lat="45.1272533" lon="10.8746883"><ele>18.0</ele><time>2026-04-25T05:47:53.955Z</time></trkpt><trkpt lat="45.1273883" lon="10.8743233"><ele>19.0</ele><time>2026-04-25T05:47:54.955Z</time></trkpt><trkpt lat="45.1275317" lon="10.8739667"><ele>20.0</ele><time>2026-04-25T05:47:55.956Z</time></trkpt><trkpt lat="45.1276833" lon="10.8736183"><ele>20.5</ele><time>2026-04-25T05:47:56.956Z</time></trkpt><trkpt lat="45.1278417" lon="10.87328"><ele>21.0</ele><time>2026-04-25T05:47:57.956Z</time></trkpt><trkpt lat="45.1280133" lon="10.872955"><ele>21.0</ele><time>2026-04-25T05:47:58.955Z</time></trkpt><trkpt lat="45.1281883" lon="10.8726383"><ele>21.0</ele><time>2026-04-25T05:47:59.956Z</time></trkpt><trkpt lat="45.1283633" lon="10.872325"><ele>21.0</ele><time>2026-04-25T05:48:00.954Z</time></trkpt><trkpt lat="45.12854" lon="10.872005"><ele>21.0</ele><time>2026-04-25T05:48:01.956Z</time></trkpt><trkpt lat="45.1287167" lon="10.8716867"><ele>21.0</ele><time>2026-04-25T05:48:02.955Z</time></trkpt><trkpt lat="45.1288933" lon="10.8713667"><ele>21.0</ele><time>2026-04-25T05:48:03.954Z</time></trkpt><trkpt lat="45.12907" lon="10.8710433"><ele>21.5</ele><time>2026-04-25T05:48:04.955Z</time></trkpt><trkpt lat="45.1292467" lon="10.87072"><ele>22.0</ele><time>2026-04-25T05:48:05.955Z</time></trkpt><trkpt lat="45.1294267" lon="10.8703983"><ele>22.0</ele><time>2026-04-25T05:48:06.955Z</time></trkpt><trkpt lat="45.1296067" lon="10.8700733"><ele>22.0</ele><time>2026-04-25T05:48:07.956Z</time></trkpt><trkpt lat="45.129785" lon="10.8697483"><ele>22.0</ele><time>2026-04-25T05:48:08.958Z</time></trkpt><trkpt lat="45.129965" lon="10.869425"><ele>22.0</ele><time>2026-04-25T05:48:09.955Z</time></trkpt><trkpt lat="45.13014" lon="10.86911"><ele>22.0</ele><time>2026-04-25T05:48:10.956Z</time></trkpt><trkpt lat="45.13031" lon="10.8688"><ele>22.0</ele><time>2026-04-25T05:48:11.955Z</time></trkpt><trkpt lat="45.1304733" lon="10.8685"><ele>21.5</ele><time>2026-04-25T05:48:12.956Z</time></trkpt><trkpt lat="45.1306283" lon="10.8682133"><ele>21.0</ele><time>2026-04-25T05:48:13.955Z</time></trkpt><trkpt lat="45.1307733" lon="10.86794"><ele>20.666666666666668</ele><time>2026-04-25T05:48:14.957Z</time></trkpt><trkpt lat="45.1309067" lon="10.8676783"><ele>20.333333333333336</ele><time>2026-04-25T05:48:15.954Z</time></trkpt><trkpt lat="45.1310333" lon="10.8674333"><ele>20.0</ele><time>2026-04-25T05:48:16.954Z</time></trkpt><trkpt lat="45.1311483" lon="10.8672067"><ele>20.0</ele><time>2026-04-25T05:48:17.955Z</time></trkpt><trkpt lat="45.1312533" lon="10.8669867"><ele>20.0</ele><time>2026-04-25T05:48:18.955Z</time></trkpt><trkpt lat="45.1313533" lon="10.8667883"><ele>20.0</ele><time>2026-04-25T05:48:19.955Z</time></trkpt><trkpt lat="45.1314467" lon="10.866605"><ele>19.75</ele><time>2026-04-25T05:48:20.956Z</time></trkpt><trkpt lat="45.1315317" lon="10.866445"><ele>19.5</ele><time>2026-04-25T05:48:21.956Z</time></trkpt><trkpt lat="45.13162" lon="10.86631"><ele>19.25</ele><time>2026-04-25T05:48:22.956Z</time></trkpt><trkpt lat="45.131715" lon="10.8662083"><ele>19.0</ele><time>2026-04-25T05:48:23.955Z</time></trkpt><trkpt lat="45.1318133" lon="10.8661233"><ele>18.75</ele><time>2026-04-25T05:48:24.956Z</time></trkpt><trkpt lat="45.131895" lon="10.8660167"><ele>18.5</ele><time>2026-04-25T05:48:25.956Z</time></trkpt><trkpt lat="45.1319533" lon="10.8658717"><ele>18.25</ele><time>2026-04-25T05:48:26.955Z</time></trkpt><trkpt lat="45.1319933" lon="10.86569"><ele>18.0</ele><time>2026-04-25T05:48:27.955Z</time></trkpt><trkpt lat="45.132045" lon="10.865495"><ele>18.333333333333332</ele><time>2026-04-25T05:48:28.957Z</time></trkpt><trkpt lat="45.1321383" lon="10.8653017"><ele>18.666666666666664</ele><time>2026-04-25T05:48:29.955Z</time></trkpt><trkpt lat="45.1322667" lon="10.8651083"><ele>19.0</ele><time>2026-04-25T05:48:30.954Z</time></trkpt><trkpt lat="45.1324167" lon="10.8649133"><ele>17.5</ele><time>2026-04-25T05:48:31.955Z</time></trkpt><trkpt lat="45.1325783" lon="10.8647033"><ele>16.0</ele><time>2026-04-25T05:48:32.956Z</time></trkpt><trkpt lat="45.13275" lon="10.8644817"><ele>17.0</ele><time>2026-04-25T05:48:33.955Z</time></trkpt><trkpt lat="45.1329317" lon="10.864245"><ele>18.0</ele><time>2026-04-25T05:48:34.956Z</time></trkpt><trkpt lat="45.1331167" lon="10.8640033"><ele>18.5</ele><time>2026-04-25T05:48:35.955Z</time></trkpt><trkpt lat="45.133305" lon="10.863765"><ele>19.0</ele><time>2026-04-25T05:48:36.955Z</time></trkpt><trkpt lat="45.1334983" lon="10.8635367"><ele>19.5</ele><time>2026-04-25T05:48:37.955Z</time></trkpt><trkpt lat="45.1336883" lon="10.8633117"><ele>20.0</ele><time>2026-04-25T05:48:38.953Z</time></trkpt><trkpt lat="45.1338733" lon="10.8630833"><ele>20.0</ele><time>2026-04-25T05:48:39.954Z</time></trkpt><trkpt lat="45.134045" lon="10.862835"><ele>20.0</ele><time>2026-04-25T05:48:40.954Z</time></trkpt><trkpt lat="45.1342017" lon="10.8625733"><ele>19.5</ele><time>2026-04-25T05:48:41.955Z</time></trkpt><trkpt lat="45.134355" lon="10.8623067"><ele>19.0</ele><time>2026-04-25T05:48:42.955Z</time></trkpt><trkpt lat="45.134515" lon="10.86204"><ele>20.5</ele><time>2026-04-25T05:48:43.955Z</time></trkpt><trkpt lat="45.134675" lon="10.8617767"><ele>22.0</ele><time>2026-04-25T05:48:44.954Z</time></trkpt><trkpt lat="45.1348417" lon="10.8615133"><ele>21.0</ele><time>2026-04-25T05:48:45.954Z</time></trkpt><trkpt lat="45.135005" lon="10.8612483"><ele>20.0</ele><time>2026-04-25T05:48:46.956Z</time></trkpt><trkpt lat="45.1351633" lon="10.860975"><ele>22.0</ele><time>2026-04-25T05:48:47.955Z</time></trkpt><trkpt lat="45.13531" lon="10.86068"><ele>24.0</ele><time>2026-04-25T05:48:48.955Z</time></trkpt><trkpt lat="45.1354367" lon="10.8603617"><ele>24.0</ele><time>2026-04-25T05:48:49.954Z</time></trkpt><trkpt lat="45.1355483" lon="10.8600267"><ele>24.0</ele><time>2026-04-25T05:48:50.955Z</time></trkpt><trkpt lat="45.1356633" lon="10.8596833"><ele>23.5</ele><time>2026-04-25T05:48:51.956Z</time></trkpt><trkpt lat="45.135795" lon="10.8593433"><ele>23.0</ele><time>2026-04-25T05:48:52.956Z</time></trkpt><trkpt lat="45.1359383" lon="10.859005"><ele>23.0</ele><time>2026-04-25T05:48:53.955Z</time></trkpt><trkpt lat="45.1360883" lon="10.8586667"><ele>23.0</ele><time>2026-04-25T05:48:54.956Z</time></trkpt><trkpt lat="45.1362417" lon="10.85832"><ele>22.5</ele><time>2026-04-25T05:48:55.956Z</time></trkpt><trkpt lat="45.1363967" lon="10.8579717"><ele>22.0</ele><time>2026-04-25T05:48:56.955Z</time></trkpt><trkpt lat="45.136555" lon="10.857625"><ele>20.0</ele><time>2026-04-25T05:48:57.955Z</time></trkpt><trkpt lat="45.13672" lon="10.8572817"><ele>18.0</ele><time>2026-04-25T05:48:58.956Z</time></trkpt><trkpt lat="45.13689" lon="10.85694"><ele>19.0</ele><time>2026-04-25T05:48:59.955Z</time></trkpt><trkpt lat="45.13706" lon="10.856595"><ele>20.0</ele><time>2026-04-25T05:49:00.955Z</time></trkpt><trkpt lat="45.1372217" lon="10.8562467"><ele>20.0</ele><time>2026-04-25T05:49:01.955Z</time></trkpt><trkpt lat="45.1373783" lon="10.85589"><ele>20.0</ele><time>2026-04-25T05:49:02.955Z</time></trkpt><trkpt lat="45.13753" lon="10.8555333"><ele>20.0</ele><time>2026-04-25T05:49:03.955Z</time></trkpt><trkpt lat="45.1376817" lon="10.8551767"><ele>20.0</ele><time>2026-04-25T05:49:04.954Z</time></trkpt><trkpt lat="45.1378283" lon="10.854815"><ele>20.5</ele><time>2026-04-25T05:49:05.955Z</time></trkpt><trkpt lat="45.137965" lon="10.8544517"><ele>21.0</ele><time>2026-04-25T05:49:06.959Z</time></trkpt><trkpt lat="45.13809" lon="10.8540767"><ele>21.5</ele><time>2026-04-25T05:49:07.955Z</time></trkpt><trkpt lat="45.1382017" lon="10.8536917"><ele>22.0</ele><time>2026-04-25T05:49:08.955Z</time></trkpt><trkpt lat="45.13831" lon="10.8533067"><ele>21.0</ele><time>2026-04-25T05:49:09.955Z</time></trkpt><trkpt lat="45.1384167" lon="10.8529233"><ele>20.0</ele><time>2026-04-25T05:49:10.955Z</time></trkpt><trkpt lat="45.138525" lon="10.85254"><ele>22.0</ele><time>2026-04-25T05:49:11.954Z</time></trkpt><trkpt lat="45.1386367" lon="10.852165"><ele>24.0</ele><time>2026-04-25T05:49:12.955Z</time></trkpt><trkpt lat="45.1387517" lon="10.8517967"><ele>23.5</ele><time>2026-04-25T05:49:13.955Z</time></trkpt><trkpt lat="45.1388683" lon="10.85143"><ele>23.0</ele><time>2026-04-25T05:49:14.955Z</time></trkpt><trkpt lat="45.138985" lon="10.85107"><ele>22.0</ele><time>2026-04-25T05:49:15.955Z</time></trkpt><trkpt lat="45.1390983" lon="10.850715"><ele>21.0</ele><time>2026-04-25T05:49:16.955Z</time></trkpt><trkpt lat="45.13921" lon="10.850375"><ele>21.0</ele><time>2026-04-25T05:49:17.955Z</time></trkpt><trkpt lat="45.1393183" lon="10.8500483"><ele>21.0</ele><time>2026-04-25T05:49:18.955Z</time></trkpt><trkpt lat="45.1394317" lon="10.8497333"><ele>21.0</ele><time>2026-04-25T05:49:19.956Z</time></trkpt><trkpt lat="45.13956" lon="10.84944"><ele>21.0</ele><time>2026-04-25T05:49:20.956Z</time></trkpt><trkpt lat="45.1397017" lon="10.8491633"><ele>21.5</ele><time>2026-04-25T05:49:21.956Z</time></trkpt><trkpt lat="45.1398583" lon="10.84891"><ele>22.0</ele><time>2026-04-25T05:49:22.956Z</time></trkpt><trkpt lat="45.1400333" lon="10.8486817"><ele>22.5</ele><time>2026-04-25T05:49:23.956Z</time></trkpt><trkpt lat="45.1402233" lon="10.84848"><ele>23.0</ele><time>2026-04-25T05:49:24.955Z</time></trkpt><trkpt lat="45.1404267" lon="10.8482983"><ele>23.5</ele><time>2026-04-25T05:49:25.956Z</time></trkpt><trkpt lat="45.1406417" lon="10.8481367"><ele>24.0</ele><time>2026-04-25T05:49:26.955Z</time></trkpt><trkpt lat="45.14087" lon="10.8480033"><ele>23.0</ele><time>2026-04-25T05:49:27.956Z</time></trkpt><trkpt lat="45.1411083" lon="10.8479"><ele>22.0</ele><time>2026-04-25T05:49:28.956Z</time></trkpt><trkpt lat="45.14135" lon="10.8478183"><ele>21.0</ele><time>2026-04-25T05:49:29.955Z</time></trkpt><trkpt lat="45.1415967" lon="10.8477467"><ele>20.0</ele><time>2026-04-25T05:49:30.954Z</time></trkpt><trkpt lat="45.1418467" lon="10.8476783"><ele>21.5</ele><time>2026-04-25T05:49:31.954Z</time></trkpt><trkpt lat="45.1420983" lon="10.8476067"><ele>23.0</ele><time>2026-04-25T05:49:32.956Z</time></trkpt><trkpt lat="45.14235" lon="10.8475283"><ele>23.5</ele><time>2026-04-25T05:49:33.955Z</time></trkpt><trkpt lat="45.1426033" lon="10.8474417"><ele>24.0</ele><time>2026-04-25T05:49:34.956Z</time></trkpt><trkpt lat="45.1428533" lon="10.8473583"><ele>24.0</ele><time>2026-04-25T05:49:35.955Z</time></trkpt><trkpt lat="45.1431" lon="10.8472817"><ele>24.0</ele><time>2026-04-25T05:49:36.955Z</time></trkpt><trkpt lat="45.1433367" lon="10.8472067"><ele>23.666666666666668</ele><time>2026-04-25T05:49:37.955Z</time></trkpt><trkpt lat="45.14356" lon="10.8471233"><ele>23.333333333333336</ele><time>2026-04-25T05:49:38.955Z</time></trkpt><trkpt lat="45.14377" lon="10.8470383"><ele>23.0</ele><time>2026-04-25T05:49:39.954Z</time></trkpt><trkpt lat="45.1439667" lon="10.8469533"><ele>23.333333333333336</ele><time>2026-04-25T05:49:40.956Z</time></trkpt><trkpt lat="45.14415" lon="10.8468667"><ele>23.666666666666668</ele><time>2026-04-25T05:49:41.954Z</time></trkpt><trkpt lat="45.14432" lon="10.8467767"><ele>24.0</ele><time>2026-04-25T05:49:42.955Z</time></trkpt><trkpt lat="45.14448" lon="10.846685"><ele>24.0</ele><time>2026-04-25T05:49:43.955Z</time></trkpt><trkpt lat="45.1446217" lon="10.8466233"><ele>24.0</ele><time>2026-04-25T05:49:44.955Z</time></trkpt><trkpt lat="45.1447483" lon="10.8465867"><ele>24.0</ele><time>2026-04-25T05:49:45.955Z</time></trkpt><trkpt lat="45.144865" lon="10.846585"><ele>24.0</ele><time>2026-04-25T05:49:46.956Z</time></trkpt><trkpt lat="45.1449733" lon="10.8466367"><ele>24.0</ele><time>2026-04-25T05:49:47.954Z</time></trkpt><trkpt lat="45.1450733" lon="10.8467317"><ele>24.0</ele><time>2026-04-25T05:49:48.955Z</time></trkpt><trkpt lat="45.1451683" lon="10.84686"><ele>24.0</ele><time>2026-04-25T05:49:49.955Z</time></trkpt><trkpt lat="45.1452833" lon="10.8469683"><ele>24.0</ele><time>2026-04-25T05:49:50.955Z</time></trkpt><trkpt lat="45.1454117" lon="10.84702"><ele>23.5</ele><time>2026-04-25T05:49:51.956Z</time></trkpt><trkpt lat="45.1455383" lon="10.8470033"><ele>23.0</ele><time>2026-04-25T05:49:52.956Z</time></trkpt><trkpt lat="45.1456517" lon="10.84692"><ele>22.5</ele><time>2026-04-25T05:49:53.954Z</time></trkpt><trkpt lat="45.1457483" lon="10.84677"><ele>22.0</ele><time>2026-04-25T05:49:54.956Z</time></trkpt><trkpt lat="45.1458133" lon="10.8465767"><ele>22.0</ele><time>2026-04-25T05:49:55.955Z</time></trkpt><trkpt lat="45.1458267" lon="10.8463567"><ele>22.0</ele><time>2026-04-25T05:49:56.955Z</time></trkpt><trkpt lat="45.1458367" lon="10.84614"><ele>22.0</ele><time>2026-04-25T05:49:57.955Z</time></trkpt><trkpt lat="45.14588" lon="10.84593"><ele>22.333333333333332</ele><time>2026-04-25T05:49:58.954Z</time></trkpt><trkpt lat="45.14597" lon="10.84573"><ele>22.666666666666668</ele><time>2026-04-25T05:49:59.955Z</time></trkpt><trkpt lat="45.1460983" lon="10.8455333"><ele>23.0</ele><time>2026-04-25T05:50:00.954Z</time></trkpt><trkpt lat="45.146255" lon="10.84533"><ele>25.5</ele><time>2026-04-25T05:50:01.955Z</time></trkpt><trkpt lat="45.1464333" lon="10.8451217"><ele>28.0</ele><time>2026-04-25T05:50:02.955Z</time></trkpt><trkpt lat="45.146625" lon="10.8449067"><ele>28.0</ele><time>2026-04-25T05:50:03.955Z</time></trkpt><trkpt lat="45.146835" lon="10.8447067"><ele>28.0</ele><time>2026-04-25T05:50:04.956Z</time></trkpt><trkpt lat="45.14705" lon="10.8445167"><ele>28.0</ele><time>2026-04-25T05:50:05.955Z</time></trkpt><trkpt lat="45.1472633" lon="10.84433"><ele>28.0</ele><time>2026-04-25T05:50:06.955Z</time></trkpt><trkpt lat="45.1474683" lon="10.844145"><ele>27.0</ele><time>2026-04-25T05:50:07.955Z</time></trkpt><trkpt lat="45.14766" lon="10.8439667"><ele>26.0</ele><time>2026-04-25T05:50:08.955Z</time></trkpt><trkpt lat="45.1478383" lon="10.8437983"><ele>25.0</ele><time>2026-04-25T05:50:09.954Z</time></trkpt><trkpt lat="45.1480017" lon="10.843645"><ele>25.0</ele><time>2026-04-25T05:50:10.956Z</time></trkpt><trkpt lat="45.1481467" lon="10.84351"><ele>25.0</ele><time>2026-04-25T05:50:11.954Z</time></trkpt><trkpt lat="45.1482767" lon="10.8433883"><ele>25.0</ele><time>2026-04-25T05:50:12.955Z</time></trkpt><trkpt lat="45.1484017" lon="10.8433017"><ele>25.5</ele><time>2026-04-25T05:50:13.955Z</time></trkpt><trkpt lat="45.148535" lon="10.8432417"><ele>26.0</ele><time>2026-04-25T05:50:14.955Z</time></trkpt><trkpt lat="45.1486783" lon="10.84319"><ele>26.5</ele><time>2026-04-25T05:50:15.955Z</time></trkpt><trkpt lat="45.1488183" lon="10.8431333"><ele>27.0</ele><time>2026-04-25T05:50:16.956Z</time></trkpt><trkpt lat="45.1489467" lon="10.84307"><ele>26.833333333333332</ele><time>2026-04-25T05:50:17.955Z</time></trkpt><trkpt lat="45.14906" lon="10.8430167"><ele>26.666666666666664</ele><time>2026-04-25T05:50:18.955Z</time></trkpt><trkpt lat="45.14915" lon="10.842985"><ele>26.5</ele><time>2026-04-25T05:50:19.956Z</time></trkpt><trkpt lat="45.1492233" lon="10.8429617"><ele>26.333333333333332</ele><time>2026-04-25T05:50:20.955Z</time></trkpt><trkpt lat="45.149295" lon="10.842925"><ele>26.166666666666664</ele><time>2026-04-25T05:50:22.956Z</time></trkpt><trkpt lat="45.1492817" lon="10.84283"><ele>26.0</ele><time>2026-04-25T06:04:12.955Z</time></trkpt><trkpt lat="45.1492417" lon="10.842715"><ele>26.200000000000003</ele><time>2026-04-25T06:04:15.955Z</time></trkpt><trkpt lat="45.1492367" lon="10.8425783"><ele>26.400000000000002</ele><time>2026-04-25T06:04:23.956Z</time></trkpt><trkpt lat="45.1493167" lon="10.8424533"><ele>26.6</ele><time>2026-04-25T06:04:25.956Z</time></trkpt><trkpt lat="45.14939" lon="10.8423817"><ele>26.8</ele><time>2026-04-25T06:04:26.954Z</time></trkpt><trkpt lat="45.1494833" lon="10.8423033"><ele>27.0</ele><time>2026-04-25T06:04:27.956Z</time></trkpt><trkpt lat="45.149585" lon="10.8422167"><ele>27.0</ele><time>2026-04-25T06:04:28.957Z</time></trkpt><trkpt lat="45.1496883" lon="10.84213"><ele>27.0</ele><time>2026-04-25T06:04:29.957Z</time></trkpt><trkpt lat="45.1497933" lon="10.8420383"><ele>27.0</ele><time>2026-04-25T06:04:30.957Z</time></trkpt><trkpt lat="45.1499" lon="10.8419467"><ele>27.0</ele><time>2026-04-25T06:04:31.955Z</time></trkpt><trkpt lat="45.1500083" lon="10.8418467"><ele>27.25</ele><time>2026-04-25T06:04:32.955Z</time></trkpt><trkpt lat="45.1501183" lon="10.8417433"><ele>27.5</ele><time>2026-04-25T06:04:33.956Z</time></trkpt><trkpt lat="45.1502333" lon="10.8416417"><ele>27.75</ele><time>2026-04-25T06:04:34.956Z</time></trkpt><trkpt lat="45.1503483" lon="10.8415367"><ele>28.0</ele><time>2026-04-25T06:04:35.956Z</time></trkpt><trkpt lat="45.1504633" lon="10.8414333"><ele>28.0</ele><time>2026-04-25T06:04:36.955Z</time></trkpt><trkpt lat="45.15058" lon="10.84133"><ele>28.0</ele><time>2026-04-25T06:04:37.955Z</time></trkpt><trkpt lat="45.1506967" lon="10.841225"><ele>28.0</ele><time>2026-04-25T06:04:38.956Z</time></trkpt><trkpt lat="45.1508133" lon="10.84112"><ele>28.0</ele><time>2026-04-25T06:04:39.955Z</time></trkpt><trkpt lat="45.150925" lon="10.8410167"><ele>28.25</ele><time>2026-04-25T06:04:40.956Z</time></trkpt><trkpt lat="45.15104" lon="10.8409133"><ele>28.5</ele><time>2026-04-25T06:04:41.957Z</time></trkpt><trkpt lat="45.15116" lon="10.8408083"><ele>28.75</ele><time>2026-04-25T06:04:42.957Z</time></trkpt><trkpt lat="45.1512783" lon="10.8407"><ele>29.0</ele><time>2026-04-25T06:04:43.959Z</time></trkpt><trkpt lat="45.1514" lon="10.8405883"><ele>29.0</ele><time>2026-04-25T06:04:44.955Z</time></trkpt><trkpt lat="45.1515233" lon="10.840475"><ele>29.0</ele><time>2026-04-25T06:04:45.955Z</time></trkpt><trkpt lat="45.1516483" lon="10.840355"><ele>29.0</ele><time>2026-04-25T06:04:46.96Z</time></trkpt><trkpt lat="45.151775" lon="10.84024"><ele>29.0</ele><time>2026-04-25T06:04:47.954Z</time></trkpt><trkpt lat="45.1519033" lon="10.840125"><ele>29.25</ele><time>2026-04-25T06:04:48.954Z</time></trkpt><trkpt lat="45.15203" lon="10.84001"><ele>29.5</ele><time>2026-04-25T06:04:49.956Z</time></trkpt><trkpt lat="45.1521567" lon="10.839895"><ele>29.75</ele><time>2026-04-25T06:04:50.955Z</time></trkpt><trkpt lat="45.1522817" lon="10.8397833"><ele>30.0</ele><time>2026-04-25T06:04:51.956Z</time></trkpt><trkpt lat="45.1524067" lon="10.8396683"><ele>29.333333333333336</ele><time>2026-04-25T06:04:52.958Z</time></trkpt><trkpt lat="45.1525317" lon="10.8395517"><ele>28.666666666666668</ele><time>2026-04-25T06:04:53.957Z</time></trkpt><trkpt lat="45.15266" lon="10.8394333"><ele>28.0</ele><time>2026-04-25T06:04:54.957Z</time></trkpt><trkpt lat="45.15279" lon="10.839315"><ele>27.5</ele><time>2026-04-25T06:04:55.957Z</time></trkpt><trkpt lat="45.1529183" lon="10.8392"><ele>27.0</ele><time>2026-04-25T06:04:56.957Z</time></trkpt><trkpt lat="45.1530417" lon="10.8390917"><ele>26.5</ele><time>2026-04-25T06:04:57.957Z</time></trkpt><trkpt lat="45.1531633" lon="10.8389833"><ele>26.0</ele><time>2026-04-25T06:04:58.963Z</time></trkpt><trkpt lat="45.1532867" lon="10.8388767"><ele>25.333333333333332</ele><time>2026-04-25T06:04:59.956Z</time></trkpt><trkpt lat="45.153415" lon="10.838765"><ele>24.666666666666664</ele><time>2026-04-25T06:05:00.957Z</time></trkpt><trkpt lat="45.1535467" lon="10.8386483"><ele>24.0</ele><time>2026-04-25T06:05:01.957Z</time></trkpt><trkpt lat="45.1536833" lon="10.838525"><ele>23.666666666666668</ele><time>2026-04-25T06:05:02.957Z</time></trkpt><trkpt lat="45.1538217" lon="10.838395"><ele>23.333333333333336</ele><time>2026-04-25T06:05:03.955Z</time></trkpt><trkpt lat="45.1539633" lon="10.8382733"><ele>23.0</ele><time>2026-04-25T06:05:04.956Z</time></trkpt><trkpt lat="45.1540983" lon="10.8381567"><ele>24.333333333333336</ele><time>2026-04-25T06:05:05.955Z</time></trkpt><trkpt lat="45.1542283" lon="10.8380383"><ele>25.666666666666668</ele><time>2026-04-25T06:05:06.956Z</time></trkpt><trkpt lat="45.15436" lon="10.8379233"><ele>27.0</ele><time>2026-04-25T06:05:07.956Z</time></trkpt><trkpt lat="45.1544917" lon="10.8378033"><ele>27.0</ele><time>2026-04-25T06:05:08.956Z</time></trkpt><trkpt lat="45.1546233" lon="10.8376867"><ele>27.0</ele><time>2026-04-25T06:05:09.956Z</time></trkpt><trkpt lat="45.1547517" lon="10.83757"><ele>27.0</ele><time>2026-04-25T06:05:10.956Z</time></trkpt><trkpt lat="45.1548783" lon="10.8374533"><ele>25.5</ele><time>2026-04-25T06:05:11.956Z</time></trkpt><trkpt lat="45.1549983" lon="10.83734"><ele>24.0</ele><time>2026-04-25T06:05:12.954Z</time></trkpt><trkpt lat="45.1551167" lon="10.8372317"><ele>22.5</ele><time>2026-04-25T06:05:13.955Z</time></trkpt><trkpt lat="45.1552283" lon="10.8371283"><ele>21.0</ele><time>2026-04-25T06:05:14.955Z</time></trkpt><trkpt lat="45.155335" lon="10.837035"><ele>21.0</ele><time>2026-04-25T06:05:15.958Z</time></trkpt><trkpt lat="45.1554367" lon="10.83695"><ele>21.0</ele><time>2026-04-25T06:05:16.956Z</time></trkpt><trkpt lat="45.1555333" lon="10.8368717"><ele>21.0</ele><time>2026-04-25T06:05:17.956Z</time></trkpt><trkpt lat="45.1556233" lon="10.8368217"><ele>21.0</ele><time>2026-04-25T06:05:18.955Z</time></trkpt><trkpt lat="45.155705" lon="10.8367867"><ele>21.0</ele><time>2026-04-25T06:05:19.957Z</time></trkpt><trkpt lat="45.1557833" lon="10.8367667"><ele>21.5</ele><time>2026-04-25T06:05:20.955Z</time></trkpt><trkpt lat="45.1558567" lon="10.8367733"><ele>22.0</ele><time>2026-04-25T06:05:21.963Z</time></trkpt><trkpt lat="45.15592" lon="10.8368417"><ele>22.5</ele><time>2026-04-25T06:05:22.956Z</time></trkpt><trkpt lat="45.1559683" lon="10.8369267"><ele>23.0</ele><time>2026-04-25T06:05:23.955Z</time></trkpt><trkpt lat="45.15598" lon="10.837055"><ele>23.5</ele><time>2026-04-25T06:05:24.956Z</time></trkpt><trkpt lat="45.155975" lon="10.8372"><ele>24.0</ele><time>2026-04-25T06:05:25.957Z</time></trkpt><trkpt lat="45.1559533" lon="10.8373617"><ele>24.0</ele><time>2026-04-25T06:05:26.954Z</time></trkpt><trkpt lat="45.1559267" lon="10.83753"><ele>24.0</ele><time>2026-04-25T06:05:27.955Z</time></trkpt><trkpt lat="45.1558933" lon="10.8377033"><ele>24.0</ele><time>2026-04-25T06:05:28.956Z</time></trkpt><trkpt lat="45.155855" lon="10.8378783"><ele>24.0</ele><time>2026-04-25T06:05:29.956Z</time></trkpt><trkpt lat="45.1558133" lon="10.8380517"><ele>24.0</ele><time>2026-04-25T06:05:30.956Z</time></trkpt><trkpt lat="45.1557733" lon="10.83822"><ele>24.0</ele><time>2026-04-25T06:05:31.956Z</time></trkpt><trkpt lat="45.1557333" lon="10.8383833"><ele>24.0</ele><time>2026-04-25T06:05:32.956Z</time></trkpt><trkpt lat="45.155695" lon="10.838545"><ele>24.0</ele><time>2026-04-25T06:05:33.955Z</time></trkpt><trkpt lat="45.155655" lon="10.8387017"><ele>23.799999999999997</ele><time>2026-04-25T06:05:34.957Z</time></trkpt><trkpt lat="45.1556183" lon="10.8388533"><ele>23.599999999999998</ele><time>2026-04-25T06:05:35.956Z</time></trkpt><trkpt lat="45.1555833" lon="10.8389917"><ele>23.4</ele><time>2026-04-25T06:05:36.955Z</time></trkpt><trkpt lat="45.15555" lon="10.8391117"><ele>23.2</ele><time>2026-04-25T06:05:37.956Z</time></trkpt><trkpt lat="45.1555133" lon="10.83921"><ele>23.0</ele><time>2026-04-25T06:05:38.956Z</time></trkpt><trkpt lat="45.1554683" lon="10.8392917"><ele>23.166666666666668</ele><time>2026-04-25T06:05:39.955Z</time></trkpt><trkpt lat="45.1554167" lon="10.83936"><ele>23.333333333333336</ele><time>2026-04-25T06:05:40.957Z</time></trkpt><trkpt lat="45.155355" lon="10.83942"><ele>23.5</ele><time>2026-04-25T06:05:41.955Z</time></trkpt><trkpt lat="45.1552817" lon="10.8394717"><ele>23.666666666666668</ele><time>2026-04-25T06:05:42.955Z</time></trkpt><trkpt lat="45.1552033" lon="10.8395317"><ele>23.833333333333332</ele><time>2026-04-25T06:05:43.96Z</time></trkpt><trkpt lat="45.155135" lon="10.8396117"><ele>24.0</ele><time>2026-04-25T06:05:44.955Z</time></trkpt><trkpt lat="45.1550883" lon="10.8397233"><ele>24.0</ele><time>2026-04-25T06:05:45.955Z</time></trkpt><trkpt lat="45.1550633" lon="10.839855"><ele>24.0</ele><time>2026-04-25T06:05:46.955Z</time></trkpt><trkpt lat="45.1550983" lon="10.8399883"><ele>24.0</ele><time>2026-04-25T06:05:47.954Z</time></trkpt><trkpt lat="45.15515" lon="10.8401167"><ele>24.0</ele><time>2026-04-25T06:05:48.955Z</time></trkpt><trkpt lat="45.155215" lon="10.84024"><ele>24.0</ele><time>2026-04-25T06:05:49.957Z</time></trkpt><trkpt lat="45.155295" lon="10.840345"><ele>24.25</ele><time>2026-04-25T06:05:50.957Z</time></trkpt><trkpt lat="45.15539" lon="10.84042"><ele>24.5</ele><time>2026-04-25T06:05:51.955Z</time></trkpt><trkpt lat="45.1555017" lon="10.8404633"><ele>24.75</ele><time>2026-04-25T06:05:52.959Z</time></trkpt><trkpt lat="45.1556183" lon="10.8405067"><ele>25.0</ele><time>2026-04-25T06:05:53.957Z</time></trkpt><trkpt lat="45.1557367" lon="10.840575"><ele>25.0</ele><time>2026-04-25T06:05:54.957Z</time></trkpt><trkpt lat="45.1558567" lon="10.84067"><ele>25.0</ele><time>2026-04-25T06:05:55.957Z</time></trkpt><trkpt lat="45.1559783" lon="10.8407783"><ele>25.0</ele><time>2026-04-25T06:05:56.955Z</time></trkpt><trkpt lat="45.1561017" lon="10.8408933"><ele>25.0</ele><time>2026-04-25T06:05:57.956Z</time></trkpt><trkpt lat="45.1562217" lon="10.8410117"><ele>25.0</ele><time>2026-04-25T06:05:58.956Z</time></trkpt><trkpt lat="45.1563433" lon="10.84113"><ele>25.0</ele><time>2026-04-25T06:05:59.955Z</time></trkpt><trkpt lat="45.156465" lon="10.8412483"><ele>25.0</ele><time>2026-04-25T06:06:00.956Z</time></trkpt><trkpt lat="45.1565867" lon="10.8413667"><ele>25.0</ele><time>2026-04-25T06:06:01.956Z</time></trkpt><trkpt lat="45.1567067" lon="10.841485"><ele>25.333333333333336</ele><time>2026-04-25T06:06:02.956Z</time></trkpt><trkpt lat="45.15683" lon="10.8416033"><ele>25.666666666666664</ele><time>2026-04-25T06:06:03.958Z</time></trkpt><trkpt lat="45.1569517" lon="10.8417283"><ele>26.0</ele><time>2026-04-25T06:06:04.957Z</time></trkpt><trkpt lat="45.1570783" lon="10.8418517"><ele>26.0</ele><time>2026-04-25T06:06:05.957Z</time></trkpt><trkpt lat="45.1572067" lon="10.84198"><ele>26.0</ele><time>2026-04-25T06:06:06.957Z</time></trkpt><trkpt lat="45.157335" lon="10.84211"><ele>26.0</ele><time>2026-04-25T06:06:07.957Z</time></trkpt><trkpt lat="45.157465" lon="10.8422417"><ele>25.333333333333332</ele><time>2026-04-25T06:06:08.957Z</time></trkpt><trkpt lat="45.157595" lon="10.842375"><ele>24.666666666666664</ele><time>2026-04-25T06:06:09.957Z</time></trkpt><trkpt lat="45.157725" lon="10.8425083"><ele>24.0</ele><time>2026-04-25T06:06:10.957Z</time></trkpt><trkpt lat="45.1578533" lon="10.8426367"><ele>24.0</ele><time>2026-04-25T06:06:11.956Z</time></trkpt><trkpt lat="45.1579733" lon="10.8427567"><ele>24.0</ele><time>2026-04-25T06:06:12.956Z</time></trkpt><trkpt lat="45.15809" lon="10.84287"><ele>24.0</ele><time>2026-04-25T06:06:13.955Z</time></trkpt><trkpt lat="45.1581983" lon="10.8429783"><ele>24.0</ele><time>2026-04-25T06:06:14.955Z</time></trkpt><trkpt lat="45.1583" lon="10.8430833"><ele>24.2</ele><time>2026-04-25T06:06:15.955Z</time></trkpt><trkpt lat="45.15839" lon="10.8431933"><ele>24.4</ele><time>2026-04-25T06:06:16.956Z</time></trkpt><trkpt lat="45.1584633" lon="10.8433117"><ele>24.6</ele><time>2026-04-25T06:06:17.954Z</time></trkpt><trkpt lat="45.158515" lon="10.843445"><ele>24.8</ele><time>2026-04-25T06:06:18.955Z</time></trkpt><trkpt lat="45.1585617" lon="10.8435833"><ele>25.0</ele><time>2026-04-25T06:06:19.955Z</time></trkpt><trkpt lat="45.1586133" lon="10.8437183"><ele>25.0</ele><time>2026-04-25T06:06:20.955Z</time></trkpt><trkpt lat="45.1586933" lon="10.8438267"><ele>25.0</ele><time>2026-04-25T06:06:21.956Z</time></trkpt><trkpt lat="45.1588" lon="10.843895"><ele>25.0</ele><time>2026-04-25T06:06:22.956Z</time></trkpt><trkpt lat="45.1589183" lon="10.8439233"><ele>25.0</ele><time>2026-04-25T06:06:23.955Z</time></trkpt><trkpt lat="45.159045" lon="10.843945"><ele>24.75</ele><time>2026-04-25T06:06:24.955Z</time></trkpt><trkpt lat="45.1591767" lon="10.84399"><ele>24.5</ele><time>2026-04-25T06:06:25.956Z</time></trkpt><trkpt lat="45.159305" lon="10.844075"><ele>24.25</ele><time>2026-04-25T06:06:26.955Z</time></trkpt><trkpt lat="45.1594317" lon="10.8441917"><ele>24.0</ele><time>2026-04-25T06:06:27.955Z</time></trkpt><trkpt lat="45.15956" lon="10.84432"><ele>24.0</ele><time>2026-04-25T06:06:28.956Z</time></trkpt><trkpt lat="45.1596883" lon="10.8444517"><ele>24.0</ele><time>2026-04-25T06:06:29.956Z</time></trkpt><trkpt lat="45.159815" lon="10.8445833"><ele>24.0</ele><time>2026-04-25T06:06:30.956Z</time></trkpt><trkpt lat="45.1599417" lon="10.844715"><ele>24.0</ele><time>2026-04-25T06:06:31.956Z</time></trkpt><trkpt lat="45.1600633" lon="10.8448433"><ele>24.0</ele><time>2026-04-25T06:06:32.955Z</time></trkpt><trkpt lat="45.1601883" lon="10.84497"><ele>24.0</ele><time>2026-04-25T06:06:33.955Z</time></trkpt><trkpt lat="45.160315" lon="10.845095"><ele>23.666666666666668</ele><time>2026-04-25T06:06:34.956Z</time></trkpt><trkpt lat="45.160445" lon="10.8452217"><ele>23.333333333333336</ele><time>2026-04-25T06:06:35.955Z</time></trkpt><trkpt lat="45.1605783" lon="10.84535"><ele>23.0</ele><time>2026-04-25T06:06:36.956Z</time></trkpt><trkpt lat="45.1607133" lon="10.845485"><ele>23.0</ele><time>2026-04-25T06:06:37.955Z</time></trkpt><trkpt lat="45.160855" lon="10.8456217"><ele>23.0</ele><time>2026-04-25T06:06:38.955Z</time></trkpt><trkpt lat="45.1609983" lon="10.8457633"><ele>23.0</ele><time>2026-04-25T06:06:39.956Z</time></trkpt><trkpt lat="45.161145" lon="10.84591"><ele>23.0</ele><time>2026-04-25T06:06:40.956Z</time></trkpt><trkpt lat="45.161295" lon="10.84606"><ele>23.0</ele><time>2026-04-25T06:06:41.955Z</time></trkpt><trkpt lat="45.1614467" lon="10.84621"><ele>23.0</ele><time>2026-04-25T06:06:42.955Z</time></trkpt><trkpt lat="45.1615983" lon="10.84636"><ele>23.0</ele><time>2026-04-25T06:06:43.957Z</time></trkpt><trkpt lat="45.1617467" lon="10.8465083"><ele>23.0</ele><time>2026-04-25T06:06:44.955Z</time></trkpt><trkpt lat="45.1618933" lon="10.846655"><ele>23.0</ele><time>2026-04-25T06:06:45.956Z</time></trkpt><trkpt lat="45.1620383" lon="10.8467983"><ele>23.0</ele><time>2026-04-25T06:06:46.956Z</time></trkpt><trkpt lat="45.16218" lon="10.84694"><ele>23.0</ele><time>2026-04-25T06:06:47.956Z</time></trkpt><trkpt lat="45.1623183" lon="10.8470817"><ele>23.0</ele><time>2026-04-25T06:06:48.954Z</time></trkpt><trkpt lat="45.162455" lon="10.84722"><ele>23.666666666666668</ele><time>2026-04-25T06:06:49.957Z</time></trkpt><trkpt lat="45.1625917" lon="10.847355"><ele>24.333333333333336</ele><time>2026-04-25T06:06:50.954Z</time></trkpt><trkpt lat="45.1627267" lon="10.8474883"><ele>25.0</ele><time>2026-04-25T06:06:51.956Z</time></trkpt><trkpt lat="45.16286" lon="10.84762"><ele>25.0</ele><time>2026-04-25T06:06:52.955Z</time></trkpt><trkpt lat="45.1629917" lon="10.8477517"><ele>25.0</ele><time>2026-04-25T06:06:53.956Z</time></trkpt><trkpt lat="45.1631233" lon="10.8478817"><ele>25.0</ele><time>2026-04-25T06:06:54.955Z</time></trkpt><trkpt lat="45.1632567" lon="10.8480117"><ele>25.0</ele><time>2026-04-25T06:06:55.954Z</time></trkpt><trkpt lat="45.16339" lon="10.8481433"><ele>25.0</ele><time>2026-04-25T06:06:56.956Z</time></trkpt><trkpt lat="45.1635233" lon="10.848275"><ele>25.0</ele><time>2026-04-25T06:06:57.955Z</time></trkpt><trkpt lat="45.163655" lon="10.8484067"><ele>24.0</ele><time>2026-04-25T06:06:58.956Z</time></trkpt><trkpt lat="45.1637917" lon="10.8485383"><ele>23.0</ele><time>2026-04-25T06:06:59.955Z</time></trkpt><trkpt lat="45.1639233" lon="10.8486667"><ele>22.0</ele><time>2026-04-25T06:07:00.956Z</time></trkpt><trkpt lat="45.1640517" lon="10.8487933"><ele>22.0</ele><time>2026-04-25T06:07:01.956Z</time></trkpt><trkpt lat="45.16417" lon="10.8489133"><ele>22.0</ele><time>2026-04-25T06:07:02.955Z</time></trkpt><trkpt lat="45.1642817" lon="10.8490267"><ele>22.0</ele><time>2026-04-25T06:07:03.955Z</time></trkpt><trkpt lat="45.16438" lon="10.8491333"><ele>22.0</ele><time>2026-04-25T06:07:04.956Z</time></trkpt><trkpt lat="45.1644683" lon="10.849235"><ele>21.400000000000002</ele><time>2026-04-25T06:07:05.956Z</time></trkpt><trkpt lat="45.164545" lon="10.8493317"><ele>20.8</ele><time>2026-04-25T06:07:06.955Z</time></trkpt><trkpt lat="45.16461" lon="10.84942"><ele>20.2</ele><time>2026-04-25T06:07:07.956Z</time></trkpt><trkpt lat="45.1646567" lon="10.8495033"><ele>19.6</ele><time>2026-04-25T06:07:08.956Z</time></trkpt><trkpt lat="45.1646933" lon="10.849645"><ele>19.0</ele><time>2026-04-25T06:07:10.956Z</time></trkpt><trkpt lat="45.1646867" lon="10.849755"><ele>19.0</ele><time>2026-04-25T06:07:12.956Z</time></trkpt><trkpt lat="45.1646533" lon="10.8498767"><ele>19.0</ele><time>2026-04-25T06:07:15.956Z</time></trkpt><trkpt lat="45.1645433" lon="10.85001"><ele>19.0</ele><time>2026-04-25T06:07:17.956Z</time></trkpt><trkpt lat="45.1644633" lon="10.8500883"><ele>19.0</ele><time>2026-04-25T06:07:18.955Z</time></trkpt><trkpt lat="45.1643883" lon="10.850195"><ele>19.0</ele><time>2026-04-25T06:07:19.955Z</time></trkpt><trkpt lat="45.1643417" lon="10.8503133"><ele>19.166666666666664</ele><time>2026-04-25T06:07:20.956Z</time></trkpt><trkpt lat="45.1643217" lon="10.850425"><ele>19.333333333333332</ele><time>2026-04-25T06:07:21.956Z</time></trkpt><trkpt lat="45.1643217" lon="10.8505317"><ele>19.5</ele><time>2026-04-25T06:07:22.956Z</time></trkpt><trkpt lat="45.1643367" lon="10.8506333"><ele>19.666666666666668</ele><time>2026-04-25T06:07:23.956Z</time></trkpt><trkpt lat="45.164365" lon="10.8507333"><ele>19.833333333333336</ele><time>2026-04-25T06:07:24.955Z</time></trkpt><trkpt lat="45.16441" lon="10.8508267"><ele>20.0</ele><time>2026-04-25T06:07:25.955Z</time></trkpt><trkpt lat="45.1644667" lon="10.8509017"><ele>20.0</ele><time>2026-04-25T06:07:26.956Z</time></trkpt><trkpt lat="45.1645333" lon="10.8509533"><ele>20.0</ele><time>2026-04-25T06:07:27.955Z</time></trkpt><trkpt lat="45.164605" lon="10.8509883"><ele>20.0</ele><time>2026-04-25T06:07:28.956Z</time></trkpt><trkpt lat="45.1646783" lon="10.851"><ele>20.0</ele><time>2026-04-25T06:07:29.957Z</time></trkpt><trkpt lat="45.1647483" lon="10.8510033"><ele>20.0</ele><time>2026-04-25T06:07:30.954Z</time></trkpt><trkpt lat="45.1648233" lon="10.8509967"><ele>20.0</ele><time>2026-04-25T06:07:31.955Z</time></trkpt><trkpt lat="45.1649033" lon="10.85099"><ele>20.0</ele><time>2026-04-25T06:07:32.953Z</time></trkpt><trkpt lat="45.1649867" lon="10.85098"><ele>20.0</ele><time>2026-04-25T06:07:33.956Z</time></trkpt><trkpt lat="45.1650717" lon="10.8509783"><ele>20.0</ele><time>2026-04-25T06:07:34.957Z</time></trkpt><trkpt lat="45.1651567" lon="10.8509767"><ele>20.0</ele><time>2026-04-25T06:07:35.956Z</time></trkpt><trkpt lat="45.16524" lon="10.8509733"><ele>20.0</ele><time>2026-04-25T06:07:36.955Z</time></trkpt><trkpt lat="45.1653133" lon="10.850975"><ele>20.0</ele><time>2026-04-25T06:07:37.955Z</time></trkpt><trkpt lat="45.165385" lon="10.8509817"><ele>20.0</ele><time>2026-04-25T06:07:38.955Z</time></trkpt><trkpt lat="45.1654567" lon="10.8510033"><ele>20.0</ele><time>2026-04-25T06:07:39.955Z</time></trkpt><trkpt lat="45.165525" lon="10.8510567"><ele>20.0</ele><time>2026-04-25T06:07:40.958Z</time></trkpt><trkpt lat="45.1655883" lon="10.8511383"><ele>20.0</ele><time>2026-04-25T06:07:41.955Z</time></trkpt><trkpt lat="45.165645" lon="10.8512333"><ele>20.0</ele><time>2026-04-25T06:07:42.956Z</time></trkpt><trkpt lat="45.16569" lon="10.8513417"><ele>20.0</ele><time>2026-04-25T06:07:43.956Z</time></trkpt><trkpt lat="45.16573" lon="10.8514617"><ele>20.4</ele><time>2026-04-25T06:07:44.956Z</time></trkpt><trkpt lat="45.1657667" lon="10.8515883"><ele>20.8</ele><time>2026-04-25T06:07:45.956Z</time></trkpt><trkpt lat="45.165805" lon="10.851725"><ele>21.200000000000003</ele><time>2026-04-25T06:07:46.957Z</time></trkpt><trkpt lat="45.16585" lon="10.8518633"><ele>21.6</ele><time>2026-04-25T06:07:47.956Z</time></trkpt><trkpt lat="45.1659033" lon="10.85201"><ele>22.0</ele><time>2026-04-25T06:07:48.956Z</time></trkpt><trkpt lat="45.1659617" lon="10.85216"><ele>22.200000000000003</ele><time>2026-04-25T06:07:49.956Z</time></trkpt><trkpt lat="45.1660167" lon="10.852305"><ele>22.4</ele><time>2026-04-25T06:07:50.958Z</time></trkpt><trkpt lat="45.166065" lon="10.852445"><ele>22.6</ele><time>2026-04-25T06:07:51.955Z</time></trkpt><trkpt lat="45.16611" lon="10.8525733"><ele>22.799999999999997</ele><time>2026-04-25T06:07:52.957Z</time></trkpt><trkpt lat="45.1661483" lon="10.8526933"><ele>23.0</ele><time>2026-04-25T06:07:53.956Z</time></trkpt><trkpt lat="45.1661833" lon="10.8528033"><ele>23.0</ele><time>2026-04-25T06:07:54.954Z</time></trkpt><trkpt lat="45.1662117" lon="10.8529017"><ele>23.0</ele><time>2026-04-25T06:07:55.956Z</time></trkpt><trkpt lat="45.1662317" lon="10.85299"><ele>23.0</ele><time>2026-04-25T06:07:56.955Z</time></trkpt><trkpt lat="45.1662683" lon="10.8531333"><ele>23.0</ele><time>2026-04-25T06:07:58.956Z</time></trkpt><trkpt lat="45.1663033" lon="10.8532517"><ele>23.0</ele><time>2026-04-25T06:08:00.955Z</time></trkpt><trkpt lat="45.166315" lon="10.85335"><ele>23.0</ele><time>2026-04-25T06:08:03.956Z</time></trkpt><trkpt lat="45.1663283" lon="10.8534517"><ele>22.833333333333336</ele><time>2026-04-25T06:08:10.956Z</time></trkpt><trkpt lat="45.16636" lon="10.853575"><ele>22.666666666666668</ele><time>2026-04-25T06:08:12.955Z</time></trkpt><trkpt lat="45.1663867" lon="10.85372"><ele>22.5</ele><time>2026-04-25T06:08:14.955Z</time></trkpt><trkpt lat="45.1663983" lon="10.8538083"><ele>22.333333333333332</ele><time>2026-04-25T06:08:15.955Z</time></trkpt><trkpt lat="45.1664117" lon="10.8539133"><ele>22.166666666666664</ele><time>2026-04-25T06:08:16.956Z</time></trkpt><trkpt lat="45.1664333" lon="10.8540233"><ele>22.0</ele><time>2026-04-25T06:08:17.954Z</time></trkpt><trkpt lat="45.1664633" lon="10.85415"><ele>21.5</ele><time>2026-04-25T06:08:18.956Z</time></trkpt><trkpt lat="45.1665" lon="10.8543"><ele>21.0</ele><time>2026-04-25T06:08:19.956Z</time></trkpt><trkpt lat="45.1665417" lon="10.8544683"><ele>20.5</ele><time>2026-04-25T06:08:20.955Z</time></trkpt><trkpt lat="45.166585" lon="10.85465"><ele>20.0</ele><time>2026-04-25T06:08:21.956Z</time></trkpt><trkpt lat="45.1666267" lon="10.8548433"><ele>21.333333333333336</ele><time>2026-04-25T06:08:22.955Z</time></trkpt><trkpt lat="45.166675" lon="10.8550433"><ele>22.666666666666668</ele><time>2026-04-25T06:08:23.956Z</time></trkpt><trkpt lat="45.1667283" lon="10.8552467"><ele>24.0</ele><time>2026-04-25T06:08:24.956Z</time></trkpt><trkpt lat="45.16678" lon="10.8554517"><ele>24.0</ele><time>2026-04-25T06:08:25.956Z</time></trkpt><trkpt lat="45.1668283" lon="10.85565"><ele>24.0</ele><time>2026-04-25T06:08:26.955Z</time></trkpt><trkpt lat="45.1668767" lon="10.855845"><ele>24.0</ele><time>2026-04-25T06:08:27.954Z</time></trkpt><trkpt lat="45.1669233" lon="10.85604"><ele>24.0</ele><time>2026-04-25T06:08:28.956Z</time></trkpt><trkpt lat="45.16697" lon="10.856235"><ele>23.75</ele><time>2026-04-25T06:08:29.955Z</time></trkpt><trkpt lat="45.1670167" lon="10.8564317"><ele>23.5</ele><time>2026-04-25T06:08:30.956Z</time></trkpt><trkpt lat="45.167065" lon="10.8566267"><ele>23.25</ele><time>2026-04-25T06:08:31.955Z</time></trkpt><trkpt lat="45.167115" lon="10.8568217"><ele>23.0</ele><time>2026-04-25T06:08:32.961Z</time></trkpt><trkpt lat="45.167165" lon="10.857015"><ele>22.75</ele><time>2026-04-25T06:08:33.955Z</time></trkpt><trkpt lat="45.1672167" lon="10.8572117"><ele>22.5</ele><time>2026-04-25T06:08:34.956Z</time></trkpt><trkpt lat="45.1672667" lon="10.8574067"><ele>22.25</ele><time>2026-04-25T06:08:35.955Z</time></trkpt><trkpt lat="45.167315" lon="10.8576033"><ele>22.0</ele><time>2026-04-25T06:08:36.956Z</time></trkpt><trkpt lat="45.167365" lon="10.8578017"><ele>22.75</ele><time>2026-04-25T06:08:37.956Z</time></trkpt><trkpt lat="45.1674167" lon="10.858"><ele>23.5</ele><time>2026-04-25T06:08:38.956Z</time></trkpt><trkpt lat="45.1674683" lon="10.8581983"><ele>24.25</ele><time>2026-04-25T06:08:39.955Z</time></trkpt><trkpt lat="45.16752" lon="10.8583983"><ele>25.0</ele><time>2026-04-25T06:08:40.956Z</time></trkpt><trkpt lat="45.1675767" lon="10.8585983"><ele>25.0</ele><time>2026-04-25T06:08:41.955Z</time></trkpt><trkpt lat="45.16763" lon="10.8587967"><ele>25.0</ele><time>2026-04-25T06:08:42.957Z</time></trkpt><trkpt lat="45.1676817" lon="10.858995"><ele>25.0</ele><time>2026-04-25T06:08:43.954Z</time></trkpt><trkpt lat="45.1677383" lon="10.859185"><ele>25.0</ele><time>2026-04-25T06:08:44.956Z</time></trkpt><trkpt lat="45.1678083" lon="10.8593683"><ele>24.5</ele><time>2026-04-25T06:08:45.955Z</time></trkpt><trkpt lat="45.1678917" lon="10.8595317"><ele>24.0</ele><time>2026-04-25T06:08:46.958Z</time></trkpt><trkpt lat="45.167995" lon="10.8596683"><ele>23.5</ele><time>2026-04-25T06:08:47.956Z</time></trkpt><trkpt lat="45.1681067" lon="10.8597817"><ele>23.0</ele><time>2026-04-25T06:08:48.955Z</time></trkpt><trkpt lat="45.1682317" lon="10.8598667"><ele>23.0</ele><time>2026-04-25T06:08:49.955Z</time></trkpt><trkpt lat="45.1683683" lon="10.859915"><ele>23.0</ele><time>2026-04-25T06:08:50.955Z</time></trkpt><trkpt lat="45.1685133" lon="10.8599217"><ele>23.0</ele><time>2026-04-25T06:08:51.954Z</time></trkpt><trkpt lat="45.168655" lon="10.8598817"><ele>23.0</ele><time>2026-04-25T06:08:52.955Z</time></trkpt><trkpt lat="45.168785" lon="10.8597983"><ele>23.0</ele><time>2026-04-25T06:08:53.955Z</time></trkpt><trkpt lat="45.1689033" lon="10.8596783"><ele>23.0</ele><time>2026-04-25T06:08:54.956Z</time></trkpt><trkpt lat="45.169005" lon="10.85953"><ele>23.0</ele><time>2026-04-25T06:08:55.956Z</time></trkpt><trkpt lat="45.1690833" lon="10.8593617"><ele>23.0</ele><time>2026-04-25T06:08:56.956Z</time></trkpt><trkpt lat="45.1691417" lon="10.8591717"><ele>23.0</ele><time>2026-04-25T06:08:57.955Z</time></trkpt><trkpt lat="45.1691833" lon="10.8589683"><ele>23.0</ele><time>2026-04-25T06:08:58.956Z</time></trkpt><trkpt lat="45.16922" lon="10.8587617"><ele>23.0</ele><time>2026-04-25T06:08:59.955Z</time></trkpt><trkpt lat="45.1692517" lon="10.858555"><ele>23.0</ele><time>2026-04-25T06:09:00.954Z</time></trkpt><trkpt lat="45.1692867" lon="10.8583567"><ele>23.75</ele><time>2026-04-25T06:09:01.956Z</time></trkpt><trkpt lat="45.1693217" lon="10.858165"><ele>24.5</ele><time>2026-04-25T06:09:02.956Z</time></trkpt><trkpt lat="45.1693633" lon="10.8579833"><ele>25.25</ele><time>2026-04-25T06:09:03.956Z</time></trkpt><trkpt lat="45.1694117" lon="10.857815"><ele>26.0</ele><time>2026-04-25T06:09:04.957Z</time></trkpt><trkpt lat="45.1694683" lon="10.85766"><ele>25.75</ele><time>2026-04-25T06:09:05.955Z</time></trkpt><trkpt lat="45.1695383" lon="10.8575117"><ele>25.5</ele><time>2026-04-25T06:09:06.955Z</time></trkpt><trkpt lat="45.169625" lon="10.85737"><ele>25.25</ele><time>2026-04-25T06:09:07.955Z</time></trkpt><trkpt lat="45.16973" lon="10.8572467"><ele>25.0</ele><time>2026-04-25T06:09:08.956Z</time></trkpt><trkpt lat="45.1698467" lon="10.8571333"><ele>24.0</ele><time>2026-04-25T06:09:09.955Z</time></trkpt><trkpt lat="45.169975" lon="10.857025"><ele>23.0</ele><time>2026-04-25T06:09:10.956Z</time></trkpt><trkpt lat="45.1701117" lon="10.8569183"><ele>22.0</ele><time>2026-04-25T06:09:11.956Z</time></trkpt><trkpt lat="45.1702567" lon="10.8568233"><ele>22.666666666666664</ele><time>2026-04-25T06:09:12.956Z</time></trkpt><trkpt lat="45.170405" lon="10.8567383"><ele>23.333333333333332</ele><time>2026-04-25T06:09:13.954Z</time></trkpt><trkpt lat="45.17056" lon="10.8566583"><ele>24.0</ele><time>2026-04-25T06:09:14.954Z</time></trkpt><trkpt lat="45.17072" lon="10.8565783"><ele>24.333333333333336</ele><time>2026-04-25T06:09:15.956Z</time></trkpt><trkpt lat="45.1708867" lon="10.8564967"><ele>24.666666666666668</ele><time>2026-04-25T06:09:16.958Z</time></trkpt><trkpt lat="45.1710567" lon="10.8564133"><ele>25.0</ele><time>2026-04-25T06:09:17.955Z</time></trkpt><trkpt lat="45.1712283" lon="10.8563267"><ele>25.0</ele><time>2026-04-25T06:09:18.956Z</time></trkpt><trkpt lat="45.1714" lon="10.8562367"><ele>25.0</ele><time>2026-04-25T06:09:19.955Z</time></trkpt><trkpt lat="45.1715733" lon="10.8561433"><ele>25.0</ele><time>2026-04-25T06:09:20.956Z</time></trkpt><trkpt lat="45.17175" lon="10.8560467"><ele>24.666666666666668</ele><time>2026-04-25T06:09:21.956Z</time></trkpt><trkpt lat="45.17193" lon="10.855945"><ele>24.333333333333336</ele><time>2026-04-25T06:09:22.955Z</time></trkpt><trkpt lat="45.1721117" lon="10.8558467"><ele>24.0</ele><time>2026-04-25T06:09:23.956Z</time></trkpt><trkpt lat="45.1722983" lon="10.8557467"><ele>24.333333333333336</ele><time>2026-04-25T06:09:24.955Z</time></trkpt><trkpt lat="45.1724867" lon="10.8556483"><ele>24.666666666666668</ele><time>2026-04-25T06:09:25.956Z</time></trkpt><trkpt lat="45.1726783" lon="10.8555533"><ele>25.0</ele><time>2026-04-25T06:09:26.956Z</time></trkpt><trkpt lat="45.1728717" lon="10.855455"><ele>25.0</ele><time>2026-04-25T06:09:27.956Z</time></trkpt><trkpt lat="45.17307" lon="10.8553567"><ele>25.0</ele><time>2026-04-25T06:09:28.957Z</time></trkpt><trkpt lat="45.17327" lon="10.855255"><ele>25.0</ele><time>2026-04-25T06:09:29.956Z</time></trkpt><trkpt lat="45.1734733" lon="10.8551517"><ele>24.333333333333336</ele><time>2026-04-25T06:09:30.956Z</time></trkpt><trkpt lat="45.17368" lon="10.8550483"><ele>23.666666666666668</ele><time>2026-04-25T06:09:31.956Z</time></trkpt><trkpt lat="45.17389" lon="10.8549433"><ele>23.0</ele><time>2026-04-25T06:09:32.955Z</time></trkpt><trkpt lat="45.1741017" lon="10.8548367"><ele>22.5</ele><time>2026-04-25T06:09:33.956Z</time></trkpt><trkpt lat="45.1743167" lon="10.8547283"><ele>22.0</ele><time>2026-04-25T06:09:34.955Z</time></trkpt><trkpt lat="45.174535" lon="10.85462"><ele>22.0</ele><time>2026-04-25T06:09:35.956Z</time></trkpt><trkpt lat="45.174755" lon="10.8545117"><ele>22.0</ele><time>2026-04-25T06:09:36.955Z</time></trkpt><trkpt lat="45.174975" lon="10.8544017"><ele>22.5</ele><time>2026-04-25T06:09:37.955Z</time></trkpt><trkpt lat="45.17519" lon="10.8542933"><ele>23.0</ele><time>2026-04-25T06:09:38.955Z</time></trkpt><trkpt lat="45.1754017" lon="10.854185"><ele>23.0</ele><time>2026-04-25T06:09:39.957Z</time></trkpt><trkpt lat="45.1756133" lon="10.8540767"><ele>23.0</ele><time>2026-04-25T06:09:40.956Z</time></trkpt><trkpt lat="45.1758267" lon="10.85397"><ele>22.5</ele><time>2026-04-25T06:09:41.955Z</time></trkpt><trkpt lat="45.1760417" lon="10.8538617"><ele>22.0</ele><time>2026-04-25T06:09:42.956Z</time></trkpt><trkpt lat="45.1762583" lon="10.853755"><ele>22.0</ele><time>2026-04-25T06:09:43.956Z</time></trkpt><trkpt lat="45.1764733" lon="10.853645"><ele>22.0</ele><time>2026-04-25T06:09:44.956Z</time></trkpt><trkpt lat="45.17669" lon="10.8535333"><ele>22.5</ele><time>2026-04-25T06:09:45.955Z</time></trkpt><trkpt lat="45.17691" lon="10.8534217"><ele>23.0</ele><time>2026-04-25T06:09:46.957Z</time></trkpt><trkpt lat="45.1771267" lon="10.8533117"><ele>23.0</ele><time>2026-04-25T06:09:47.955Z</time></trkpt><trkpt lat="45.1773467" lon="10.8532017"><ele>23.0</ele><time>2026-04-25T06:09:48.955Z</time></trkpt><trkpt lat="45.1775683" lon="10.8530917"><ele>24.0</ele><time>2026-04-25T06:09:49.956Z</time></trkpt><trkpt lat="45.1777917" lon="10.85298"><ele>25.0</ele><time>2026-04-25T06:09:50.956Z</time></trkpt><trkpt lat="45.1780167" lon="10.852865"><ele>25.0</ele><time>2026-04-25T06:09:51.956Z</time></trkpt><trkpt lat="45.178245" lon="10.85275"><ele>25.0</ele><time>2026-04-25T06:09:52.956Z</time></trkpt><trkpt lat="45.1784717" lon="10.8526333"><ele>25.0</ele><time>2026-04-25T06:09:53.956Z</time></trkpt><trkpt lat="45.1787" lon="10.8525167"><ele>25.0</ele><time>2026-04-25T06:09:54.955Z</time></trkpt><trkpt lat="45.1789283" lon="10.8524017"><ele>24.5</ele><time>2026-04-25T06:09:55.956Z</time></trkpt><trkpt lat="45.1791583" lon="10.852285"><ele>24.0</ele><time>2026-04-25T06:09:56.957Z</time></trkpt><trkpt lat="45.1793933" lon="10.8521667"><ele>24.0</ele><time>2026-04-25T06:09:57.957Z</time></trkpt><trkpt lat="45.179635" lon="10.8520433"><ele>24.0</ele><time>2026-04-25T06:09:58.956Z</time></trkpt><trkpt lat="45.1798883" lon="10.85191"><ele>23.0</ele><time>2026-04-25T06:09:59.955Z</time></trkpt><trkpt lat="45.1801467" lon="10.851775"><ele>22.0</ele><time>2026-04-25T06:10:00.956Z</time></trkpt><trkpt lat="45.180405" lon="10.8516433"><ele>22.0</ele><time>2026-04-25T06:10:01.955Z</time></trkpt><trkpt lat="45.18066" lon="10.8515167"><ele>22.0</ele><time>2026-04-25T06:10:02.956Z</time></trkpt><trkpt lat="45.180915" lon="10.8513883"><ele>22.5</ele><time>2026-04-25T06:10:03.955Z</time></trkpt><trkpt lat="45.1811767" lon="10.8512567"><ele>23.0</ele><time>2026-04-25T06:10:04.956Z</time></trkpt><trkpt lat="45.181445" lon="10.8511167"><ele>23.0</ele><time>2026-04-25T06:10:05.955Z</time></trkpt><trkpt lat="45.1817217" lon="10.8509683"><ele>23.0</ele><time>2026-04-25T06:10:06.956Z</time></trkpt><trkpt lat="45.1820083" lon="10.8508167"><ele>23.0</ele><time>2026-04-25T06:10:07.955Z</time></trkpt><trkpt lat="45.1822983" lon="10.8506633"><ele>23.0</ele><time>2026-04-25T06:10:08.956Z</time></trkpt><trkpt lat="45.1825917" lon="10.8505133"><ele>24.0</ele><time>2026-04-25T06:10:09.954Z</time></trkpt><trkpt lat="45.1828833" lon="10.850365"><ele>25.0</ele><time>2026-04-25T06:10:10.954Z</time></trkpt><trkpt lat="45.1831767" lon="10.85022"><ele>24.5</ele><time>2026-04-25T06:10:11.953Z</time></trkpt><trkpt lat="45.18347" lon="10.8500833"><ele>24.0</ele><time>2026-04-25T06:10:12.954Z</time></trkpt><trkpt lat="45.1837633" lon="10.8499567"><ele>25.0</ele><time>2026-04-25T06:10:13.955Z</time></trkpt><trkpt lat="45.1840583" lon="10.8498383"><ele>26.0</ele><time>2026-04-25T06:10:14.955Z</time></trkpt><trkpt lat="45.18436" lon="10.84973"><ele>26.0</ele><time>2026-04-25T06:10:15.956Z</time></trkpt><trkpt lat="45.18466" lon="10.8496333"><ele>26.0</ele><time>2026-04-25T06:10:16.955Z</time></trkpt><trkpt lat="45.18496" lon="10.8495517"><ele>26.0</ele><time>2026-04-25T06:10:17.954Z</time></trkpt><trkpt lat="45.1852617" lon="10.8494833"><ele>26.0</ele><time>2026-04-25T06:10:18.954Z</time></trkpt><trkpt lat="45.1855633" lon="10.8494217"><ele>25.0</ele><time>2026-04-25T06:10:19.955Z</time></trkpt><trkpt lat="45.1858667" lon="10.84936"><ele>24.0</ele><time>2026-04-25T06:10:20.955Z</time></trkpt><trkpt lat="45.18617" lon="10.8493017"><ele>24.5</ele><time>2026-04-25T06:10:21.954Z</time></trkpt><trkpt lat="45.1864733" lon="10.849245"><ele>25.0</ele><time>2026-04-25T06:10:22.956Z</time></trkpt><trkpt lat="45.1867783" lon="10.8491917"><ele>25.0</ele><time>2026-04-25T06:10:23.954Z</time></trkpt><trkpt lat="45.1870817" lon="10.8491367"><ele>25.0</ele><time>2026-04-25T06:10:24.955Z</time></trkpt><trkpt lat="45.187385" lon="10.8490817"><ele>26.0</ele><time>2026-04-25T06:10:25.954Z</time></trkpt><trkpt lat="45.1876867" lon="10.8490267"><ele>27.0</ele><time>2026-04-25T06:10:26.954Z</time></trkpt><trkpt lat="45.1879883" lon="10.84897"><ele>27.0</ele><time>2026-04-25T06:10:27.954Z</time></trkpt><trkpt lat="45.188285" lon="10.8489167"><ele>27.0</ele><time>2026-04-25T06:10:28.955Z</time></trkpt><trkpt lat="45.1885783" lon="10.848865"><ele>27.0</ele><time>2026-04-25T06:10:29.954Z</time></trkpt><trkpt lat="45.1888683" lon="10.8488133"><ele>27.0</ele><time>2026-04-25T06:10:30.955Z</time></trkpt><trkpt lat="45.1891567" lon="10.84876"><ele>28.0</ele><time>2026-04-25T06:10:31.956Z</time></trkpt><trkpt lat="45.1894467" lon="10.8487033"><ele>29.0</ele><time>2026-04-25T06:10:32.956Z</time></trkpt><trkpt lat="45.18974" lon="10.848645"><ele>29.5</ele><time>2026-04-25T06:10:33.955Z</time></trkpt><trkpt lat="45.190035" lon="10.8485867"><ele>30.0</ele><time>2026-04-25T06:10:34.955Z</time></trkpt><trkpt lat="45.1903333" lon="10.848525"><ele>30.0</ele><time>2026-04-25T06:10:35.954Z</time></trkpt><trkpt lat="45.190635" lon="10.8484633"><ele>30.0</ele><time>2026-04-25T06:10:36.955Z</time></trkpt><trkpt lat="45.190935" lon="10.8484033"><ele>28.5</ele><time>2026-04-25T06:10:37.955Z</time></trkpt><trkpt lat="45.1912333" lon="10.848345"><ele>27.0</ele><time>2026-04-25T06:10:38.956Z</time></trkpt><trkpt lat="45.1915317" lon="10.84829"><ele>27.0</ele><time>2026-04-25T06:10:39.955Z</time></trkpt><trkpt lat="45.1918283" lon="10.84824"><ele>27.0</ele><time>2026-04-25T06:10:40.955Z</time></trkpt><trkpt lat="45.1921183" lon="10.8481817"><ele>27.0</ele><time>2026-04-25T06:10:41.953Z</time></trkpt><trkpt lat="45.19241" lon="10.8481267"><ele>27.0</ele><time>2026-04-25T06:10:42.955Z</time></trkpt><trkpt lat="45.1927" lon="10.8480717"><ele>27.0</ele><time>2026-04-25T06:10:43.954Z</time></trkpt><trkpt lat="45.1929883" lon="10.8480183"><ele>27.0</ele><time>2026-04-25T06:10:44.958Z</time></trkpt><trkpt lat="45.1932767" lon="10.8479667"><ele>25.0</ele><time>2026-04-25T06:10:45.955Z</time></trkpt><trkpt lat="45.193565" lon="10.847915"><ele>23.0</ele><time>2026-04-25T06:10:46.954Z</time></trkpt><trkpt lat="45.1938533" lon="10.8478617"><ele>23.5</ele><time>2026-04-25T06:10:47.953Z</time></trkpt><trkpt lat="45.1941433" lon="10.8478117"><ele>24.0</ele><time>2026-04-25T06:10:48.954Z</time></trkpt><trkpt lat="45.1944317" lon="10.8477617"><ele>24.0</ele><time>2026-04-25T06:10:49.955Z</time></trkpt><trkpt lat="45.1947217" lon="10.84771"><ele>24.0</ele><time>2026-04-25T06:10:50.956Z</time></trkpt><trkpt lat="45.19501" lon="10.8476583"><ele>23.5</ele><time>2026-04-25T06:10:51.955Z</time></trkpt><trkpt lat="45.1953" lon="10.847605"><ele>23.0</ele><time>2026-04-25T06:10:52.957Z</time></trkpt><trkpt lat="45.19559" lon="10.84755"><ele>22.5</ele><time>2026-04-25T06:10:53.956Z</time></trkpt><trkpt lat="45.19588" lon="10.8474967"><ele>22.0</ele><time>2026-04-25T06:10:54.956Z</time></trkpt><trkpt lat="45.1961717" lon="10.8474433"><ele>22.0</ele><time>2026-04-25T06:10:55.956Z</time></trkpt><trkpt lat="45.196465" lon="10.84739"><ele>22.0</ele><time>2026-04-25T06:10:56.955Z</time></trkpt><trkpt lat="45.1967567" lon="10.847335"><ele>24.5</ele><time>2026-04-25T06:10:57.954Z</time></trkpt><trkpt lat="45.1970517" lon="10.8472817"><ele>27.0</ele><time>2026-04-25T06:10:58.955Z</time></trkpt><trkpt lat="45.1973467" lon="10.8472267"><ele>27.0</ele><time>2026-04-25T06:10:59.954Z</time></trkpt><trkpt lat="45.1976383" lon="10.8471683"><ele>27.0</ele><time>2026-04-25T06:11:00.955Z</time></trkpt><trkpt lat="45.1979317" lon="10.8471117"><ele>26.5</ele><time>2026-04-25T06:11:01.954Z</time></trkpt><trkpt lat="45.1982267" lon="10.847055"><ele>26.0</ele><time>2026-04-25T06:11:02.954Z</time></trkpt><trkpt lat="45.198525" lon="10.8469983"><ele>26.0</ele><time>2026-04-25T06:11:03.955Z</time></trkpt><trkpt lat="45.1988267" lon="10.8469417"><ele>26.0</ele><time>2026-04-25T06:11:04.954Z</time></trkpt><trkpt lat="45.19913" lon="10.8468933"><ele>25.0</ele><time>2026-04-25T06:11:05.953Z</time></trkpt><trkpt lat="45.1994333" lon="10.8468467"><ele>24.0</ele><time>2026-04-25T06:11:06.955Z</time></trkpt><trkpt lat="45.199735" lon="10.8468017"><ele>25.5</ele><time>2026-04-25T06:11:07.954Z</time></trkpt><trkpt lat="45.2000367" lon="10.8467617"><ele>27.0</ele><time>2026-04-25T06:11:08.955Z</time></trkpt><trkpt lat="45.20034" lon="10.84673"><ele>27.0</ele><time>2026-04-25T06:11:09.957Z</time></trkpt><trkpt lat="45.200645" lon="10.846705"><ele>27.0</ele><time>2026-04-25T06:11:10.955Z</time></trkpt><trkpt lat="45.20095" lon="10.84669"><ele>27.0</ele><time>2026-04-25T06:11:11.953Z</time></trkpt><trkpt lat="45.2012567" lon="10.8466867"><ele>27.0</ele><time>2026-04-25T06:11:12.955Z</time></trkpt><trkpt lat="45.2015633" lon="10.84669"><ele>27.0</ele><time>2026-04-25T06:11:13.953Z</time></trkpt><trkpt lat="45.20187" lon="10.8467"><ele>27.0</ele><time>2026-04-25T06:11:14.955Z</time></trkpt><trkpt lat="45.202175" lon="10.846715"><ele>27.0</ele><time>2026-04-25T06:11:15.955Z</time></trkpt><trkpt lat="45.2024817" lon="10.846735"><ele>27.0</ele><time>2026-04-25T06:11:16.954Z</time></trkpt><trkpt lat="45.2027867" lon="10.84676"><ele>27.5</ele><time>2026-04-25T06:11:17.955Z</time></trkpt><trkpt lat="45.2030917" lon="10.846795"><ele>28.0</ele><time>2026-04-25T06:11:18.955Z</time></trkpt><trkpt lat="45.203395" lon="10.84684"><ele>28.0</ele><time>2026-04-25T06:11:19.955Z</time></trkpt><trkpt lat="45.2036983" lon="10.8468917"><ele>28.0</ele><time>2026-04-25T06:11:20.956Z</time></trkpt><trkpt lat="45.2039983" lon="10.8469483"><ele>28.0</ele><time>2026-04-25T06:11:21.956Z</time></trkpt><trkpt lat="45.2042983" lon="10.8470133"><ele>28.0</ele><time>2026-04-25T06:11:22.956Z</time></trkpt><trkpt lat="45.2045933" lon="10.847085"><ele>27.5</ele><time>2026-04-25T06:11:23.955Z</time></trkpt><trkpt lat="45.2048917" lon="10.8471633"><ele>27.0</ele><time>2026-04-25T06:11:24.956Z</time></trkpt><trkpt lat="45.20519" lon="10.8472483"><ele>27.0</ele><time>2026-04-25T06:11:25.955Z</time></trkpt><trkpt lat="45.2054867" lon="10.8473417"><ele>27.0</ele><time>2026-04-25T06:11:26.955Z</time></trkpt><trkpt lat="45.2057817" lon="10.847445"><ele>27.0</ele><time>2026-04-25T06:11:27.954Z</time></trkpt><trkpt lat="45.206075" lon="10.847555"><ele>27.0</ele><time>2026-04-25T06:11:28.955Z</time></trkpt><trkpt lat="45.20637" lon="10.8476733"><ele>27.0</ele><time>2026-04-25T06:11:29.954Z</time></trkpt><trkpt lat="45.206665" lon="10.8477983"><ele>27.0</ele><time>2026-04-25T06:11:30.954Z</time></trkpt><trkpt lat="45.2069583" lon="10.8479283"><ele>27.0</ele><time>2026-04-25T06:11:31.958Z</time></trkpt><trkpt lat="45.20725" lon="10.8480633"><ele>27.0</ele><time>2026-04-25T06:11:32.955Z</time></trkpt><trkpt lat="45.2075383" lon="10.8482033"><ele>26.5</ele><time>2026-04-25T06:11:33.955Z</time></trkpt><trkpt lat="45.2078283" lon="10.84835"><ele>26.0</ele><time>2026-04-25T06:11:34.954Z</time></trkpt><trkpt lat="45.2081167" lon="10.8484983"><ele>27.0</ele><time>2026-04-25T06:11:35.955Z</time></trkpt><trkpt lat="45.2084033" lon="10.8486467"><ele>28.0</ele><time>2026-04-25T06:11:36.955Z</time></trkpt><trkpt lat="45.20869" lon="10.848795"><ele>28.0</ele><time>2026-04-25T06:11:37.953Z</time></trkpt><trkpt lat="45.2089767" lon="10.8489433"><ele>28.0</ele><time>2026-04-25T06:11:38.954Z</time></trkpt><trkpt lat="45.209265" lon="10.84909"><ele>28.0</ele><time>2026-04-25T06:11:39.955Z</time></trkpt><trkpt lat="45.2095517" lon="10.8492383"><ele>28.0</ele><time>2026-04-25T06:11:40.955Z</time></trkpt><trkpt lat="45.20984" lon="10.8493867"><ele>27.0</ele><time>2026-04-25T06:11:41.955Z</time></trkpt><trkpt lat="45.210125" lon="10.849535"><ele>26.0</ele><time>2026-04-25T06:11:42.954Z</time></trkpt><trkpt lat="45.2104033" lon="10.8496817"><ele>27.0</ele><time>2026-04-25T06:11:43.955Z</time></trkpt><trkpt lat="45.2106767" lon="10.8498217"><ele>28.0</ele><time>2026-04-25T06:11:44.955Z</time></trkpt><trkpt lat="45.2109467" lon="10.8499617"><ele>28.0</ele><time>2026-04-25T06:11:45.954Z</time></trkpt><trkpt lat="45.2112167" lon="10.8501017"><ele>28.0</ele><time>2026-04-25T06:11:46.954Z</time></trkpt><trkpt lat="45.21149" lon="10.8502417"><ele>29.0</ele><time>2026-04-25T06:11:47.955Z</time></trkpt><trkpt lat="45.2117617" lon="10.8503783"><ele>30.0</ele><time>2026-04-25T06:11:48.954Z</time></trkpt><trkpt lat="45.21203" lon="10.8505167"><ele>30.0</ele><time>2026-04-25T06:11:49.955Z</time></trkpt><trkpt lat="45.2123" lon="10.8506583"><ele>30.0</ele><time>2026-04-25T06:11:50.955Z</time></trkpt><trkpt lat="45.2125733" lon="10.8507967"><ele>28.5</ele><time>2026-04-25T06:11:51.954Z</time></trkpt><trkpt lat="45.2128417" lon="10.850935"><ele>27.0</ele><time>2026-04-25T06:11:52.955Z</time></trkpt><trkpt lat="45.2131117" lon="10.85107"><ele>26.5</ele><time>2026-04-25T06:11:53.958Z</time></trkpt><trkpt lat="45.21338" lon="10.8512083"><ele>26.0</ele><time>2026-04-25T06:11:54.954Z</time></trkpt><trkpt lat="45.21365" lon="10.8513467"><ele>26.0</ele><time>2026-04-25T06:11:55.955Z</time></trkpt><trkpt lat="45.21392" lon="10.8514867"><ele>26.0</ele><time>2026-04-25T06:11:56.955Z</time></trkpt><trkpt lat="45.2141917" lon="10.851625"><ele>26.5</ele><time>2026-04-25T06:11:57.954Z</time></trkpt><trkpt lat="45.2144633" lon="10.8517633"><ele>27.0</ele><time>2026-04-25T06:11:58.955Z</time></trkpt><trkpt lat="45.2147383" lon="10.8519033"><ele>27.0</ele><time>2026-04-25T06:11:59.956Z</time></trkpt><trkpt lat="45.2150133" lon="10.8520383"><ele>27.0</ele><time>2026-04-25T06:12:00.955Z</time></trkpt><trkpt lat="45.2152883" lon="10.8521767"><ele>27.0</ele><time>2026-04-25T06:12:01.955Z</time></trkpt><trkpt lat="45.2155633" lon="10.8523167"><ele>27.0</ele><time>2026-04-25T06:12:02.954Z</time></trkpt><trkpt lat="45.2158383" lon="10.8524567"><ele>27.5</ele><time>2026-04-25T06:12:03.955Z</time></trkpt><trkpt lat="45.21611" lon="10.8526"><ele>28.0</ele><time>2026-04-25T06:12:04.955Z</time></trkpt><trkpt lat="45.21638" lon="10.85274"><ele>28.0</ele><time>2026-04-25T06:12:05.956Z</time></trkpt><trkpt lat="45.21665" lon="10.8528783"><ele>28.0</ele><time>2026-04-25T06:12:06.955Z</time></trkpt><trkpt lat="45.21692" lon="10.85302"><ele>28.0</ele><time>2026-04-25T06:12:07.956Z</time></trkpt><trkpt lat="45.21719" lon="10.8531583"><ele>28.0</ele><time>2026-04-25T06:12:08.955Z</time></trkpt><trkpt lat="45.2174617" lon="10.8532967"><ele>27.5</ele><time>2026-04-25T06:12:09.956Z</time></trkpt><trkpt lat="45.2177317" lon="10.853435"><ele>27.0</ele><time>2026-04-25T06:12:10.955Z</time></trkpt><trkpt lat="45.2180033" lon="10.8535717"><ele>27.5</ele><time>2026-04-25T06:12:11.955Z</time></trkpt><trkpt lat="45.2182767" lon="10.85371"><ele>28.0</ele><time>2026-04-25T06:12:12.955Z</time></trkpt><trkpt lat="45.2185517" lon="10.85385"><ele>28.0</ele><time>2026-04-25T06:12:13.956Z</time></trkpt><trkpt lat="45.2188267" lon="10.8539917"><ele>28.0</ele><time>2026-04-25T06:12:14.955Z</time></trkpt><trkpt lat="45.2191017" lon="10.8541333"><ele>28.0</ele><time>2026-04-25T06:12:15.956Z</time></trkpt><trkpt lat="45.21938" lon="10.8542767"><ele>28.0</ele><time>2026-04-25T06:12:16.955Z</time></trkpt><trkpt lat="45.2196567" lon="10.8544183"><ele>28.0</ele><time>2026-04-25T06:12:17.954Z</time></trkpt><trkpt lat="45.2199383" lon="10.8545617"><ele>28.0</ele><time>2026-04-25T06:12:18.956Z</time></trkpt><trkpt lat="45.2202183" lon="10.8547033"><ele>28.0</ele><time>2026-04-25T06:12:19.956Z</time></trkpt><trkpt lat="45.2205017" lon="10.8548467"><ele>28.0</ele><time>2026-04-25T06:12:20.955Z</time></trkpt><trkpt lat="45.2207833" lon="10.8549883"><ele>28.0</ele><time>2026-04-25T06:12:21.955Z</time></trkpt><trkpt lat="45.221065" lon="10.8551333"><ele>28.0</ele><time>2026-04-25T06:12:22.955Z</time></trkpt><trkpt lat="45.2213483" lon="10.8552783"><ele>28.0</ele><time>2026-04-25T06:12:23.955Z</time></trkpt><trkpt lat="45.2216317" lon="10.8554233"><ele>28.0</ele><time>2026-04-25T06:12:24.955Z</time></trkpt><trkpt lat="45.221915" lon="10.8555683"><ele>28.0</ele><time>2026-04-25T06:12:25.956Z</time></trkpt><trkpt lat="45.2221967" lon="10.8557117"><ele>28.0</ele><time>2026-04-25T06:12:26.954Z</time></trkpt><trkpt lat="45.22248" lon="10.8558583"><ele>27.5</ele><time>2026-04-25T06:12:27.954Z</time></trkpt><trkpt lat="45.2227617" lon="10.8560017"><ele>27.0</ele><time>2026-04-25T06:12:28.955Z</time></trkpt><trkpt lat="45.2230417" lon="10.8561467"><ele>27.0</ele><time>2026-04-25T06:12:29.954Z</time></trkpt><trkpt lat="45.2233217" lon="10.85629"><ele>27.0</ele><time>2026-04-25T06:12:30.953Z</time></trkpt><trkpt lat="45.2236" lon="10.85643"><ele>27.0</ele><time>2026-04-25T06:12:31.955Z</time></trkpt><trkpt lat="45.2238767" lon="10.8565683"><ele>27.0</ele><time>2026-04-25T06:12:32.955Z</time></trkpt><trkpt lat="45.2241533" lon="10.8567067"><ele>28.0</ele><time>2026-04-25T06:12:33.954Z</time></trkpt><trkpt lat="45.22443" lon="10.8568467"><ele>29.0</ele><time>2026-04-25T06:12:34.956Z</time></trkpt><trkpt lat="45.22471" lon="10.8569883"><ele>29.0</ele><time>2026-04-25T06:12:35.953Z</time></trkpt><trkpt lat="45.22499" lon="10.85713"><ele>29.0</ele><time>2026-04-25T06:12:36.955Z</time></trkpt><trkpt lat="45.2252717" lon="10.8572733"><ele>29.0</ele><time>2026-04-25T06:12:37.954Z</time></trkpt><trkpt lat="45.2255533" lon="10.8574167"><ele>29.0</ele><time>2026-04-25T06:12:38.955Z</time></trkpt><trkpt lat="45.2258333" lon="10.85756"><ele>29.0</ele><time>2026-04-25T06:12:39.954Z</time></trkpt><trkpt lat="45.2261133" lon="10.857705"><ele>29.0</ele><time>2026-04-25T06:12:40.955Z</time></trkpt><trkpt lat="45.22639" lon="10.8578483"><ele>28.0</ele><time>2026-04-25T06:12:41.953Z</time></trkpt><trkpt lat="45.22667" lon="10.85799"><ele>27.0</ele><time>2026-04-25T06:12:42.955Z</time></trkpt><trkpt lat="45.2269483" lon="10.8581317"><ele>27.0</ele><time>2026-04-25T06:12:43.953Z</time></trkpt><trkpt lat="45.2272267" lon="10.8582717"><ele>27.0</ele><time>2026-04-25T06:12:44.955Z</time></trkpt><trkpt lat="45.227505" lon="10.858415"><ele>27.5</ele><time>2026-04-25T06:12:45.954Z</time></trkpt><trkpt lat="45.2277833" lon="10.858555"><ele>28.0</ele><time>2026-04-25T06:12:46.955Z</time></trkpt><trkpt lat="45.2280617" lon="10.8586933"><ele>28.5</ele><time>2026-04-25T06:12:47.954Z</time></trkpt><trkpt lat="45.22834" lon="10.858835"><ele>29.0</ele><time>2026-04-25T06:12:48.956Z</time></trkpt><trkpt lat="45.2286183" lon="10.858975"><ele>29.0</ele><time>2026-04-25T06:12:49.954Z</time></trkpt><trkpt lat="45.2288967" lon="10.8591167"><ele>29.0</ele><time>2026-04-25T06:12:50.955Z</time></trkpt><trkpt lat="45.229175" lon="10.85926"><ele>28.5</ele><time>2026-04-25T06:12:51.955Z</time></trkpt><trkpt lat="45.2294533" lon="10.8594017"><ele>28.0</ele><time>2026-04-25T06:12:52.956Z</time></trkpt><trkpt lat="45.2297317" lon="10.8595467"><ele>28.5</ele><time>2026-04-25T06:12:53.955Z</time></trkpt><trkpt lat="45.23001" lon="10.8596883"><ele>29.0</ele><time>2026-04-25T06:12:54.954Z</time></trkpt><trkpt lat="45.2302883" lon="10.8598333"><ele>29.0</ele><time>2026-04-25T06:12:55.954Z</time></trkpt><trkpt lat="45.2305667" lon="10.859975"><ele>29.0</ele><time>2026-04-25T06:12:56.955Z</time></trkpt><trkpt lat="45.2308467" lon="10.8601183"><ele>27.5</ele><time>2026-04-25T06:12:57.954Z</time></trkpt><trkpt lat="45.2311317" lon="10.8602617"><ele>26.0</ele><time>2026-04-25T06:12:58.955Z</time></trkpt><trkpt lat="45.2314183" lon="10.8604033"><ele>27.0</ele><time>2026-04-25T06:12:59.954Z</time></trkpt><trkpt lat="45.2317033" lon="10.860545"><ele>28.0</ele><time>2026-04-25T06:13:00.953Z</time></trkpt><trkpt lat="45.231985" lon="10.8606867"><ele>28.0</ele><time>2026-04-25T06:13:01.954Z</time></trkpt><trkpt lat="45.2322667" lon="10.86083"><ele>28.0</ele><time>2026-04-25T06:13:02.955Z</time></trkpt><trkpt lat="45.2325483" lon="10.8609717"><ele>27.5</ele><time>2026-04-25T06:13:03.954Z</time></trkpt><trkpt lat="45.2328317" lon="10.8611117"><ele>27.0</ele><time>2026-04-25T06:13:04.956Z</time></trkpt><trkpt lat="45.233115" lon="10.8612567"><ele>27.5</ele><time>2026-04-25T06:13:05.954Z</time></trkpt><trkpt lat="45.2333983" lon="10.8614"><ele>28.0</ele><time>2026-04-25T06:13:06.955Z</time></trkpt><trkpt lat="45.2336817" lon="10.8615467"><ele>28.0</ele><time>2026-04-25T06:13:07.954Z</time></trkpt><trkpt lat="45.2339667" lon="10.8616933"><ele>28.0</ele><time>2026-04-25T06:13:08.955Z</time></trkpt><trkpt lat="45.23425" lon="10.8618383"><ele>28.5</ele><time>2026-04-25T06:13:09.955Z</time></trkpt><trkpt lat="45.2345317" lon="10.86198"><ele>29.0</ele><time>2026-04-25T06:13:10.955Z</time></trkpt><trkpt lat="45.2348183" lon="10.8621167"><ele>29.0</ele><time>2026-04-25T06:13:11.954Z</time></trkpt><trkpt lat="45.2351067" lon="10.86225"><ele>29.0</ele><time>2026-04-25T06:13:12.955Z</time></trkpt><trkpt lat="45.235395" lon="10.8623767"><ele>28.5</ele><time>2026-04-25T06:13:13.954Z</time></trkpt><trkpt lat="45.2356833" lon="10.8624983"><ele>28.0</ele><time>2026-04-25T06:13:14.954Z</time></trkpt><trkpt lat="45.2359767" lon="10.862615"><ele>28.0</ele><time>2026-04-25T06:13:15.954Z</time></trkpt><trkpt lat="45.2362733" lon="10.8627283"><ele>28.0</ele><time>2026-04-25T06:13:16.956Z</time></trkpt><trkpt lat="45.2365667" lon="10.8628367"><ele>28.0</ele><time>2026-04-25T06:13:17.953Z</time></trkpt><trkpt lat="45.2368617" lon="10.8629417"><ele>28.0</ele><time>2026-04-25T06:13:18.955Z</time></trkpt><trkpt lat="45.237155" lon="10.8630433"><ele>28.0</ele><time>2026-04-25T06:13:19.954Z</time></trkpt><trkpt lat="45.2374483" lon="10.8631433"><ele>28.0</ele><time>2026-04-25T06:13:20.955Z</time></trkpt><trkpt lat="45.2377401" lon="10.8632396"><ele>28.0</ele><time>2026-04-25T06:13:21.955Z</time></trkpt><trkpt lat="45.2380305" lon="10.8633304"><ele>28.0</ele><time>2026-04-25T06:13:22.956Z</time></trkpt><trkpt lat="45.2383176" lon="10.8634215"><ele>29.0</ele><time>2026-04-25T06:13:23.956Z</time></trkpt><trkpt lat="45.2386042" lon="10.8635107"><ele>30.0</ele><time>2026-04-25T06:13:24.955Z</time></trkpt><trkpt lat="45.2388893" lon="10.8636004"><ele>30.0</ele><time>2026-04-25T06:13:25.956Z</time></trkpt><trkpt lat="45.2391727" lon="10.8636901"><ele>30.0</ele><time>2026-04-25T06:13:26.955Z</time></trkpt><trkpt lat="45.2394528" lon="10.8637797"><ele>30.0</ele><time>2026-04-25T06:13:27.955Z</time></trkpt><trkpt lat="45.239734" lon="10.8638695"><ele>30.0</ele><time>2026-04-25T06:13:28.955Z</time></trkpt><trkpt lat="45.2400159" lon="10.8639608"><ele>30.0</ele><time>2026-04-25T06:13:29.955Z</time></trkpt><trkpt lat="45.2402956" lon="10.8640486"><ele>30.0</ele><time>2026-04-25T06:13:30.954Z</time></trkpt><trkpt lat="45.2405726" lon="10.8641365"><ele>31.0</ele><time>2026-04-25T06:13:31.954Z</time></trkpt><trkpt lat="45.2408477" lon="10.8642235"><ele>32.0</ele><time>2026-04-25T06:13:32.955Z</time></trkpt><trkpt lat="45.2411207" lon="10.8643101"><ele>32.0</ele><time>2026-04-25T06:13:33.953Z</time></trkpt><trkpt lat="45.2413905" lon="10.8643995"><ele>32.0</ele><time>2026-04-25T06:13:34.955Z</time></trkpt><trkpt lat="45.2416589" lon="10.8644839"><ele>31.5</ele><time>2026-04-25T06:13:35.953Z</time></trkpt><trkpt lat="45.2419259" lon="10.8645696"><ele>31.0</ele><time>2026-04-25T06:13:36.954Z</time></trkpt><trkpt lat="45.2421938" lon="10.8646573"><ele>30.5</ele><time>2026-04-25T06:13:37.955Z</time></trkpt><trkpt lat="45.2424632" lon="10.8647471"><ele>30.0</ele><time>2026-04-25T06:13:38.955Z</time></trkpt><trkpt lat="45.2427341" lon="10.8648318"><ele>30.0</ele><time>2026-04-25T06:13:39.954Z</time></trkpt><trkpt lat="45.2430079" lon="10.8649182"><ele>30.0</ele><time>2026-04-25T06:13:40.955Z</time></trkpt><trkpt lat="45.2432831" lon="10.8650026"><ele>30.0</ele><time>2026-04-25T06:13:41.955Z</time></trkpt><trkpt lat="45.2435585" lon="10.8650898"><ele>30.0</ele><time>2026-04-25T06:13:42.955Z</time></trkpt><trkpt lat="45.2438366" lon="10.8651792"><ele>29.5</ele><time>2026-04-25T06:13:43.954Z</time></trkpt><trkpt lat="45.2441167" lon="10.8652703"><ele>29.0</ele><time>2026-04-25T06:13:44.955Z</time></trkpt><trkpt lat="45.2443972" lon="10.8653607"><ele>29.0</ele><time>2026-04-25T06:13:45.954Z</time></trkpt><trkpt lat="45.2446763" lon="10.8654522"><ele>29.0</ele><time>2026-04-25T06:13:46.956Z</time></trkpt><trkpt lat="45.2449533" lon="10.865545"><ele>30.5</ele><time>2026-04-25T06:13:47.954Z</time></trkpt><trkpt lat="45.24523" lon="10.8656333"><ele>32.0</ele><time>2026-04-25T06:13:48.955Z</time></trkpt><trkpt lat="45.245505" lon="10.8657217"><ele>31.5</ele><time>2026-04-25T06:13:49.954Z</time></trkpt><trkpt lat="45.2457817" lon="10.8658067"><ele>31.0</ele><time>2026-04-25T06:13:50.954Z</time></trkpt><trkpt lat="45.2460583" lon="10.8658917"><ele>30.5</ele><time>2026-04-25T06:13:51.954Z</time></trkpt><trkpt lat="45.2463333" lon="10.8659783"><ele>30.0</ele><time>2026-04-25T06:13:52.955Z</time></trkpt><trkpt lat="45.24661" lon="10.866065"><ele>30.0</ele><time>2026-04-25T06:13:53.954Z</time></trkpt><trkpt lat="45.2468867" lon="10.8661533"><ele>30.0</ele><time>2026-04-25T06:13:54.953Z</time></trkpt><trkpt lat="45.247165" lon="10.8662417"><ele>31.5</ele><time>2026-04-25T06:13:55.955Z</time></trkpt><trkpt lat="45.2474433" lon="10.8663317"><ele>33.0</ele><time>2026-04-25T06:13:56.955Z</time></trkpt><trkpt lat="45.2477217" lon="10.8664217"><ele>33.0</ele><time>2026-04-25T06:13:57.954Z</time></trkpt><trkpt lat="45.248" lon="10.86651"><ele>33.0</ele><time>2026-04-25T06:13:58.955Z</time></trkpt><trkpt lat="45.24828" lon="10.8665967"><ele>33.0</ele><time>2026-04-25T06:13:59.953Z</time></trkpt><trkpt lat="45.2485567" lon="10.8666833"><ele>33.0</ele><time>2026-04-25T06:14:00.955Z</time></trkpt><trkpt lat="45.248835" lon="10.8667683"><ele>32.5</ele><time>2026-04-25T06:14:01.954Z</time></trkpt><trkpt lat="45.249115" lon="10.8668533"><ele>32.0</ele><time>2026-04-25T06:14:02.956Z</time></trkpt><trkpt lat="45.2493917" lon="10.86694"><ele>32.0</ele><time>2026-04-25T06:14:03.956Z</time></trkpt><trkpt lat="45.2496683" lon="10.8670283"><ele>32.0</ele><time>2026-04-25T06:14:04.956Z</time></trkpt><trkpt lat="45.2499433" lon="10.8671183"><ele>31.0</ele><time>2026-04-25T06:14:05.956Z</time></trkpt><trkpt lat="45.25022" lon="10.8672067"><ele>30.0</ele><time>2026-04-25T06:14:06.954Z</time></trkpt><trkpt lat="45.2504967" lon="10.8672983"><ele>30.0</ele><time>2026-04-25T06:14:07.956Z</time></trkpt><trkpt lat="45.2507733" lon="10.867385"><ele>30.0</ele><time>2026-04-25T06:14:08.956Z</time></trkpt><trkpt lat="45.2510517" lon="10.8674717"><ele>30.0</ele><time>2026-04-25T06:14:09.956Z</time></trkpt><trkpt lat="45.2513283" lon="10.8675583"><ele>30.0</ele><time>2026-04-25T06:14:10.956Z</time></trkpt><trkpt lat="45.251605" lon="10.867645"><ele>30.5</ele><time>2026-04-25T06:14:11.956Z</time></trkpt><trkpt lat="45.2518833" lon="10.867735"><ele>31.0</ele><time>2026-04-25T06:14:12.955Z</time></trkpt><trkpt lat="45.252165" lon="10.867825"><ele>30.5</ele><time>2026-04-25T06:14:13.956Z</time></trkpt><trkpt lat="45.2524467" lon="10.8679183"><ele>30.0</ele><time>2026-04-25T06:14:14.956Z</time></trkpt><trkpt lat="45.2527317" lon="10.86801"><ele>30.0</ele><time>2026-04-25T06:14:15.956Z</time></trkpt><trkpt lat="45.2530167" lon="10.8681"><ele>30.0</ele><time>2026-04-25T06:14:16.955Z</time></trkpt><trkpt lat="45.2533017" lon="10.8681883"><ele>31.0</ele><time>2026-04-25T06:14:17.956Z</time></trkpt><trkpt lat="45.253585" lon="10.8682767"><ele>32.0</ele><time>2026-04-25T06:14:18.955Z</time></trkpt><trkpt lat="45.2538683" lon="10.8683683"><ele>31.5</ele><time>2026-04-25T06:14:19.955Z</time></trkpt><trkpt lat="45.2541517" lon="10.8684583"><ele>31.0</ele><time>2026-04-25T06:14:20.955Z</time></trkpt><trkpt lat="45.2544333" lon="10.8685483"><ele>31.0</ele><time>2026-04-25T06:14:21.955Z</time></trkpt><trkpt lat="45.2547133" lon="10.8686383"><ele>31.0</ele><time>2026-04-25T06:14:22.956Z</time></trkpt><trkpt lat="45.2549933" lon="10.8687283"><ele>31.0</ele><time>2026-04-25T06:14:23.955Z</time></trkpt><trkpt lat="45.2552717" lon="10.86882"><ele>31.0</ele><time>2026-04-25T06:14:24.955Z</time></trkpt><trkpt lat="45.2555483" lon="10.86891"><ele>31.5</ele><time>2026-04-25T06:14:25.955Z</time></trkpt><trkpt lat="45.255825" lon="10.8689983"><ele>32.0</ele><time>2026-04-25T06:14:26.956Z</time></trkpt><trkpt lat="45.2561033" lon="10.8690867"><ele>32.0</ele><time>2026-04-25T06:14:27.955Z</time></trkpt><trkpt lat="45.25638" lon="10.8691733"><ele>32.0</ele><time>2026-04-25T06:14:28.956Z</time></trkpt><trkpt lat="45.2566583" lon="10.86926"><ele>32.0</ele><time>2026-04-25T06:14:29.955Z</time></trkpt><trkpt lat="45.2569367" lon="10.8693483"><ele>32.0</ele><time>2026-04-25T06:14:30.956Z</time></trkpt><trkpt lat="45.257215" lon="10.8694367"><ele>31.0</ele><time>2026-04-25T06:14:31.955Z</time></trkpt><trkpt lat="45.2574917" lon="10.8695283"><ele>30.0</ele><time>2026-04-25T06:14:32.955Z</time></trkpt><trkpt lat="45.2577683" lon="10.8696183"><ele>30.0</ele><time>2026-04-25T06:14:33.954Z</time></trkpt><trkpt lat="45.2580467" lon="10.8697067"><ele>30.0</ele><time>2026-04-25T06:14:34.956Z</time></trkpt><trkpt lat="45.2583233" lon="10.8697967"><ele>30.0</ele><time>2026-04-25T06:14:35.956Z</time></trkpt><trkpt lat="45.2586017" lon="10.869885"><ele>30.0</ele><time>2026-04-25T06:14:36.956Z</time></trkpt><trkpt lat="45.2588783" lon="10.869975"><ele>31.5</ele><time>2026-04-25T06:14:37.955Z</time></trkpt><trkpt lat="45.2591567" lon="10.870065"><ele>33.0</ele><time>2026-04-25T06:14:38.956Z</time></trkpt><trkpt lat="45.259435" lon="10.8701533"><ele>33.0</ele><time>2026-04-25T06:14:39.956Z</time></trkpt><trkpt lat="45.2597133" lon="10.87024"><ele>33.0</ele><time>2026-04-25T06:14:40.957Z</time></trkpt><trkpt lat="45.2599917" lon="10.87033"><ele>32.0</ele><time>2026-04-25T06:14:41.955Z</time></trkpt><trkpt lat="45.2602683" lon="10.8704183"><ele>31.0</ele><time>2026-04-25T06:14:42.954Z</time></trkpt><trkpt lat="45.26055" lon="10.8705083"><ele>31.5</ele><time>2026-04-25T06:14:43.955Z</time></trkpt><trkpt lat="45.2608317" lon="10.8705983"><ele>32.0</ele><time>2026-04-25T06:14:44.956Z</time></trkpt><trkpt lat="45.2611117" lon="10.8706883"><ele>32.0</ele><time>2026-04-25T06:14:45.956Z</time></trkpt><trkpt lat="45.2613917" lon="10.8707767"><ele>32.0</ele><time>2026-04-25T06:14:46.957Z</time></trkpt><trkpt lat="45.2616717" lon="10.870865"><ele>32.5</ele><time>2026-04-25T06:14:47.956Z</time></trkpt><trkpt lat="45.2619517" lon="10.8709533"><ele>33.0</ele><time>2026-04-25T06:14:48.956Z</time></trkpt><trkpt lat="45.262235" lon="10.87104"><ele>33.0</ele><time>2026-04-25T06:14:49.955Z</time></trkpt><trkpt lat="45.2625183" lon="10.8711283"><ele>33.0</ele><time>2026-04-25T06:14:50.956Z</time></trkpt><trkpt lat="45.2628017" lon="10.8712183"><ele>33.0</ele><time>2026-04-25T06:14:51.956Z</time></trkpt><trkpt lat="45.2630833" lon="10.8713083"><ele>33.0</ele><time>2026-04-25T06:14:52.957Z</time></trkpt><trkpt lat="45.2633667" lon="10.8714"><ele>32.5</ele><time>2026-04-25T06:14:53.954Z</time></trkpt><trkpt lat="45.2636517" lon="10.8714917"><ele>32.0</ele><time>2026-04-25T06:14:54.956Z</time></trkpt><trkpt lat="45.2639367" lon="10.8715833"><ele>33.0</ele><time>2026-04-25T06:14:55.955Z</time></trkpt><trkpt lat="45.2642217" lon="10.8716733"><ele>34.0</ele><time>2026-04-25T06:14:56.956Z</time></trkpt><trkpt lat="45.2645067" lon="10.8717633"><ele>33.0</ele><time>2026-04-25T06:14:57.955Z</time></trkpt><trkpt lat="45.2647917" lon="10.8718533"><ele>32.0</ele><time>2026-04-25T06:14:58.957Z</time></trkpt><trkpt lat="45.2650767" lon="10.8719433"><ele>32.0</ele><time>2026-04-25T06:14:59.956Z</time></trkpt><trkpt lat="45.26536" lon="10.872035"><ele>32.0</ele><time>2026-04-25T06:15:00.956Z</time></trkpt><trkpt lat="45.2656433" lon="10.8721267"><ele>31.0</ele><time>2026-04-25T06:15:01.954Z</time></trkpt><trkpt lat="45.2659267" lon="10.8722167"><ele>30.0</ele><time>2026-04-25T06:15:02.955Z</time></trkpt><trkpt lat="45.2662117" lon="10.8723083"><ele>31.5</ele><time>2026-04-25T06:15:03.954Z</time></trkpt><trkpt lat="45.266495" lon="10.8723983"><ele>33.0</ele><time>2026-04-25T06:15:04.957Z</time></trkpt><trkpt lat="45.26678" lon="10.8724883"><ele>33.0</ele><time>2026-04-25T06:15:05.955Z</time></trkpt><trkpt lat="45.2670633" lon="10.8725783"><ele>33.0</ele><time>2026-04-25T06:15:06.956Z</time></trkpt><trkpt lat="45.2673433" lon="10.8726717"><ele>32.0</ele><time>2026-04-25T06:15:07.956Z</time></trkpt><trkpt lat="45.2676233" lon="10.8727667"><ele>31.0</ele><time>2026-04-25T06:15:08.956Z</time></trkpt><trkpt lat="45.2678983" lon="10.8728667"><ele>32.0</ele><time>2026-04-25T06:15:09.955Z</time></trkpt><trkpt lat="45.2681717" lon="10.8729733"><ele>33.0</ele><time>2026-04-25T06:15:10.956Z</time></trkpt><trkpt lat="45.268445" lon="10.8730867"><ele>33.0</ele><time>2026-04-25T06:15:11.955Z</time></trkpt><trkpt lat="45.2687183" lon="10.873205"><ele>33.0</ele><time>2026-04-25T06:15:12.956Z</time></trkpt><trkpt lat="45.2689883" lon="10.8733267"><ele>31.5</ele><time>2026-04-25T06:15:13.955Z</time></trkpt><trkpt lat="45.2692583" lon="10.8734517"><ele>30.0</ele><time>2026-04-25T06:15:14.955Z</time></trkpt><trkpt lat="45.2695283" lon="10.87358"><ele>31.5</ele><time>2026-04-25T06:15:15.955Z</time></trkpt><trkpt lat="45.2697967" lon="10.873715"><ele>33.0</ele><time>2026-04-25T06:15:16.956Z</time></trkpt><trkpt lat="45.2700633" lon="10.873855"><ele>33.0</ele><time>2026-04-25T06:15:17.955Z</time></trkpt><trkpt lat="45.27033" lon="10.874"><ele>33.0</ele><time>2026-04-25T06:15:18.956Z</time></trkpt><trkpt lat="45.2705933" lon="10.8741483"><ele>33.0</ele><time>2026-04-25T06:15:19.954Z</time></trkpt><trkpt lat="45.2708567" lon="10.8743033"><ele>33.0</ele><time>2026-04-25T06:15:20.955Z</time></trkpt><trkpt lat="45.27112" lon="10.8744617"><ele>33.0</ele><time>2026-04-25T06:15:21.956Z</time></trkpt><trkpt lat="45.2713817" lon="10.8746267"><ele>33.0</ele><time>2026-04-25T06:15:22.958Z</time></trkpt><trkpt lat="45.2716417" lon="10.8747967"><ele>33.0</ele><time>2026-04-25T06:15:23.956Z</time></trkpt><trkpt lat="45.2719" lon="10.8749717"><ele>33.0</ele><time>2026-04-25T06:15:24.956Z</time></trkpt><trkpt lat="45.2721567" lon="10.87515"><ele>33.0</ele><time>2026-04-25T06:15:25.956Z</time></trkpt><trkpt lat="45.27241" lon="10.8753333"><ele>33.0</ele><time>2026-04-25T06:15:26.956Z</time></trkpt><trkpt lat="45.2726633" lon="10.8755217"><ele>33.0</ele><time>2026-04-25T06:15:27.955Z</time></trkpt><trkpt lat="45.272915" lon="10.875715"><ele>33.0</ele><time>2026-04-25T06:15:28.957Z</time></trkpt><trkpt lat="45.273165" lon="10.8759083"><ele>32.5</ele><time>2026-04-25T06:15:29.956Z</time></trkpt><trkpt lat="45.273415" lon="10.8761017"><ele>32.0</ele><time>2026-04-25T06:15:30.955Z</time></trkpt><trkpt lat="45.273665" lon="10.876295"><ele>32.0</ele><time>2026-04-25T06:15:31.955Z</time></trkpt><trkpt lat="45.2739133" lon="10.8764883"><ele>32.0</ele><time>2026-04-25T06:15:32.956Z</time></trkpt><trkpt lat="45.2741617" lon="10.8766833"><ele>32.0</ele><time>2026-04-25T06:15:33.955Z</time></trkpt><trkpt lat="45.2744117" lon="10.8768767"><ele>32.0</ele><time>2026-04-25T06:15:34.956Z</time></trkpt><trkpt lat="45.27466" lon="10.8770717"><ele>33.0</ele><time>2026-04-25T06:15:35.955Z</time></trkpt><trkpt lat="45.27491" lon="10.8772667"><ele>34.0</ele><time>2026-04-25T06:15:36.956Z</time></trkpt><trkpt lat="45.27516" lon="10.8774617"><ele>34.5</ele><time>2026-04-25T06:15:37.955Z</time></trkpt><trkpt lat="45.27541" lon="10.877655"><ele>35.0</ele><time>2026-04-25T06:15:38.955Z</time></trkpt><trkpt lat="45.2756617" lon="10.8778483"><ele>35.5</ele><time>2026-04-25T06:15:39.954Z</time></trkpt><trkpt lat="45.27591" lon="10.8780417"><ele>36.0</ele><time>2026-04-25T06:15:40.956Z</time></trkpt><trkpt lat="45.2761567" lon="10.8782367"><ele>36.0</ele><time>2026-04-25T06:15:41.955Z</time></trkpt><trkpt lat="45.276405" lon="10.8784317"><ele>36.0</ele><time>2026-04-25T06:15:42.956Z</time></trkpt><trkpt lat="45.2766533" lon="10.8786233"><ele>36.0</ele><time>2026-04-25T06:15:43.955Z</time></trkpt><trkpt lat="45.2769033" lon="10.8788167"><ele>36.0</ele><time>2026-04-25T06:15:44.954Z</time></trkpt><trkpt lat="45.2771533" lon="10.8790067"><ele>36.5</ele><time>2026-04-25T06:15:45.955Z</time></trkpt><trkpt lat="45.2774033" lon="10.8792"><ele>37.0</ele><time>2026-04-25T06:15:46.956Z</time></trkpt><trkpt lat="45.27765" lon="10.8793967"><ele>36.5</ele><time>2026-04-25T06:15:47.955Z</time></trkpt><trkpt lat="45.2778983" lon="10.87959"><ele>36.0</ele><time>2026-04-25T06:15:48.956Z</time></trkpt><trkpt lat="45.2781467" lon="10.8797883"><ele>36.0</ele><time>2026-04-25T06:15:49.955Z</time></trkpt><trkpt lat="45.2783983" lon="10.8799867"><ele>36.0</ele><time>2026-04-25T06:15:50.955Z</time></trkpt><trkpt lat="45.27865" lon="10.880185"><ele>36.0</ele><time>2026-04-25T06:15:51.955Z</time></trkpt><trkpt lat="45.2789033" lon="10.8803817"><ele>36.0</ele><time>2026-04-25T06:15:52.957Z</time></trkpt><trkpt lat="45.2791567" lon="10.8805817"><ele>35.0</ele><time>2026-04-25T06:15:53.959Z</time></trkpt><trkpt lat="45.2794117" lon="10.8807817"><ele>34.0</ele><time>2026-04-25T06:15:54.956Z</time></trkpt><trkpt lat="45.2796683" lon="10.8809833"><ele>33.5</ele><time>2026-04-25T06:15:55.955Z</time></trkpt><trkpt lat="45.2799267" lon="10.8811817"><ele>33.0</ele><time>2026-04-25T06:15:56.955Z</time></trkpt><trkpt lat="45.280185" lon="10.8813817"><ele>33.0</ele><time>2026-04-25T06:15:57.956Z</time></trkpt><trkpt lat="45.2804417" lon="10.88158"><ele>33.0</ele><time>2026-04-25T06:15:58.956Z</time></trkpt><trkpt lat="45.2807" lon="10.8817817"><ele>32.5</ele><time>2026-04-25T06:15:59.956Z</time></trkpt><trkpt lat="45.28096" lon="10.8819867"><ele>32.0</ele><time>2026-04-25T06:16:00.956Z</time></trkpt><trkpt lat="45.28122" lon="10.8821867"><ele>31.0</ele><time>2026-04-25T06:16:01.955Z</time></trkpt><trkpt lat="45.2814817" lon="10.8823867"><ele>30.0</ele><time>2026-04-25T06:16:02.956Z</time></trkpt><trkpt lat="45.2817433" lon="10.8825883"><ele>31.0</ele><time>2026-04-25T06:16:03.955Z</time></trkpt><trkpt lat="45.282005" lon="10.882795"><ele>32.0</ele><time>2026-04-25T06:16:04.957Z</time></trkpt><trkpt lat="45.2822633" lon="10.883"><ele>34.5</ele><time>2026-04-25T06:16:05.955Z</time></trkpt><trkpt lat="45.2825217" lon="10.883205"><ele>37.0</ele><time>2026-04-25T06:16:06.955Z</time></trkpt><trkpt lat="45.2827783" lon="10.883405"><ele>37.0</ele><time>2026-04-25T06:16:07.955Z</time></trkpt><trkpt lat="45.283035" lon="10.883605"><ele>37.0</ele><time>2026-04-25T06:16:08.956Z</time></trkpt><trkpt lat="45.2832917" lon="10.8838"><ele>34.5</ele><time>2026-04-25T06:16:09.956Z</time></trkpt><trkpt lat="45.2835483" lon="10.8839983"><ele>32.0</ele><time>2026-04-25T06:16:10.956Z</time></trkpt><trkpt lat="45.2838017" lon="10.8841967"><ele>32.5</ele><time>2026-04-25T06:16:11.955Z</time></trkpt><trkpt lat="45.284055" lon="10.884395"><ele>33.0</ele><time>2026-04-25T06:16:12.956Z</time></trkpt><trkpt lat="45.2843083" lon="10.8845933"><ele>33.0</ele><time>2026-04-25T06:16:13.955Z</time></trkpt><trkpt lat="45.2845617" lon="10.88479"><ele>33.0</ele><time>2026-04-25T06:16:14.956Z</time></trkpt><trkpt lat="45.2848167" lon="10.8849867"><ele>32.5</ele><time>2026-04-25T06:16:15.955Z</time></trkpt><trkpt lat="45.28507" lon="10.885185"><ele>32.0</ele><time>2026-04-25T06:16:16.955Z</time></trkpt><trkpt lat="45.28532" lon="10.8853817"><ele>32.0</ele><time>2026-04-25T06:16:17.956Z</time></trkpt><trkpt lat="45.28557" lon="10.885575"><ele>32.0</ele><time>2026-04-25T06:16:18.955Z</time></trkpt><trkpt lat="45.2858183" lon="10.8857683"><ele>32.0</ele><time>2026-04-25T06:16:19.955Z</time></trkpt><trkpt lat="45.2860667" lon="10.885965"><ele>32.0</ele><time>2026-04-25T06:16:20.954Z</time></trkpt><trkpt lat="45.2863167" lon="10.8861617"><ele>32.5</ele><time>2026-04-25T06:16:21.957Z</time></trkpt><trkpt lat="45.2865633" lon="10.88636"><ele>33.0</ele><time>2026-04-25T06:16:22.956Z</time></trkpt><trkpt lat="45.2868117" lon="10.8865583"><ele>33.0</ele><time>2026-04-25T06:16:23.956Z</time></trkpt><trkpt lat="45.2870583" lon="10.8867583"><ele>33.0</ele><time>2026-04-25T06:16:24.956Z</time></trkpt><trkpt lat="45.287305" lon="10.88696"><ele>33.5</ele><time>2026-04-25T06:16:25.956Z</time></trkpt><trkpt lat="45.28755" lon="10.8871667"><ele>34.0</ele><time>2026-04-25T06:16:26.957Z</time></trkpt><trkpt lat="45.2877933" lon="10.8873783"><ele>33.5</ele><time>2026-04-25T06:16:27.956Z</time></trkpt><trkpt lat="45.288035" lon="10.887595"><ele>33.0</ele><time>2026-04-25T06:16:28.955Z</time></trkpt><trkpt lat="45.2882733" lon="10.8878133"><ele>34.0</ele><time>2026-04-25T06:16:29.955Z</time></trkpt><trkpt lat="45.2885133" lon="10.888035"><ele>35.0</ele><time>2026-04-25T06:16:30.956Z</time></trkpt><trkpt lat="45.28875" lon="10.88826"><ele>35.0</ele><time>2026-04-25T06:16:31.956Z</time></trkpt><trkpt lat="45.2889833" lon="10.8884883"><ele>35.0</ele><time>2026-04-25T06:16:32.957Z</time></trkpt><trkpt lat="45.2892167" lon="10.8887217"><ele>35.0</ele><time>2026-04-25T06:16:33.956Z</time></trkpt><trkpt lat="45.2894467" lon="10.8889583"><ele>35.0</ele><time>2026-04-25T06:16:34.954Z</time></trkpt><trkpt lat="45.2896767" lon="10.8891983"><ele>35.0</ele><time>2026-04-25T06:16:35.955Z</time></trkpt><trkpt lat="45.2899067" lon="10.88944"><ele>35.0</ele><time>2026-04-25T06:16:36.955Z</time></trkpt><trkpt lat="45.290135" lon="10.889685"><ele>35.0</ele><time>2026-04-25T06:16:37.957Z</time></trkpt><trkpt lat="45.29036" lon="10.88993"><ele>35.0</ele><time>2026-04-25T06:16:38.955Z</time></trkpt><trkpt lat="45.2905883" lon="10.8901733"><ele>35.0</ele><time>2026-04-25T06:16:39.956Z</time></trkpt><trkpt lat="45.2908167" lon="10.890415"><ele>35.0</ele><time>2026-04-25T06:16:40.956Z</time></trkpt><trkpt lat="45.291045" lon="10.8906567"><ele>35.0</ele><time>2026-04-25T06:16:41.955Z</time></trkpt><trkpt lat="45.2912717" lon="10.8909017"><ele>35.0</ele><time>2026-04-25T06:16:42.956Z</time></trkpt><trkpt lat="45.2915" lon="10.8911467"><ele>35.5</ele><time>2026-04-25T06:16:43.955Z</time></trkpt><trkpt lat="45.29173" lon="10.8913883"><ele>36.0</ele><time>2026-04-25T06:16:44.955Z</time></trkpt><trkpt lat="45.2919583" lon="10.8916317"><ele>35.5</ele><time>2026-04-25T06:16:45.954Z</time></trkpt><trkpt lat="45.2921867" lon="10.8918717"><ele>35.0</ele><time>2026-04-25T06:16:46.955Z</time></trkpt><trkpt lat="45.2924117" lon="10.8921133"><ele>35.0</ele><time>2026-04-25T06:16:47.954Z</time></trkpt><trkpt lat="45.29264" lon="10.8923533"><ele>35.0</ele><time>2026-04-25T06:16:48.955Z</time></trkpt><trkpt lat="45.292865" lon="10.8925967"><ele>35.0</ele><time>2026-04-25T06:16:49.956Z</time></trkpt><trkpt lat="45.2930883" lon="10.8928417"><ele>35.0</ele><time>2026-04-25T06:16:50.955Z</time></trkpt><trkpt lat="45.293315" lon="10.893085"><ele>35.0</ele><time>2026-04-25T06:16:51.956Z</time></trkpt><trkpt lat="45.29354" lon="10.8933267"><ele>35.0</ele><time>2026-04-25T06:16:52.957Z</time></trkpt><trkpt lat="45.2937667" lon="10.8935683"><ele>34.5</ele><time>2026-04-25T06:16:53.956Z</time></trkpt><trkpt lat="45.2939933" lon="10.89381"><ele>34.0</ele><time>2026-04-25T06:16:54.955Z</time></trkpt><trkpt lat="45.2942183" lon="10.8940517"><ele>33.5</ele><time>2026-04-25T06:16:55.956Z</time></trkpt><trkpt lat="45.2944417" lon="10.8942933"><ele>33.0</ele><time>2026-04-25T06:16:56.956Z</time></trkpt><trkpt lat="45.29467" lon="10.8945367"><ele>33.5</ele><time>2026-04-25T06:16:57.956Z</time></trkpt><trkpt lat="45.294895" lon="10.89478"><ele>34.0</ele><time>2026-04-25T06:16:58.956Z</time></trkpt><trkpt lat="45.2951233" lon="10.8950233"><ele>33.0</ele><time>2026-04-25T06:16:59.956Z</time></trkpt><trkpt lat="45.2953517" lon="10.895265"><ele>32.0</ele><time>2026-04-25T06:17:00.956Z</time></trkpt><trkpt lat="45.29558" lon="10.8955083"><ele>32.5</ele><time>2026-04-25T06:17:01.957Z</time></trkpt><trkpt lat="45.295805" lon="10.8957517"><ele>33.0</ele><time>2026-04-25T06:17:02.957Z</time></trkpt><trkpt lat="45.296035" lon="10.8959933"><ele>33.0</ele><time>2026-04-25T06:17:03.955Z</time></trkpt><trkpt lat="45.2962617" lon="10.8962367"><ele>33.0</ele><time>2026-04-25T06:17:04.956Z</time></trkpt><trkpt lat="45.2964883" lon="10.8964783"><ele>33.5</ele><time>2026-04-25T06:17:05.956Z</time></trkpt><trkpt lat="45.2967133" lon="10.89672"><ele>34.0</ele><time>2026-04-25T06:17:06.955Z</time></trkpt><trkpt lat="45.2969417" lon="10.8969617"><ele>34.0</ele><time>2026-04-25T06:17:07.955Z</time></trkpt><trkpt lat="45.2971683" lon="10.897205"><ele>34.0</ele><time>2026-04-25T06:17:08.955Z</time></trkpt><trkpt lat="45.2973933" lon="10.8974467"><ele>34.5</ele><time>2026-04-25T06:17:09.954Z</time></trkpt><trkpt lat="45.2976233" lon="10.8976883"><ele>35.0</ele><time>2026-04-25T06:17:10.956Z</time></trkpt><trkpt lat="45.2978517" lon="10.8979283"><ele>35.0</ele><time>2026-04-25T06:17:11.956Z</time></trkpt><trkpt lat="45.29808" lon="10.89817"><ele>35.0</ele><time>2026-04-25T06:17:12.956Z</time></trkpt><trkpt lat="45.298305" lon="10.8984133"><ele>35.0</ele><time>2026-04-25T06:17:13.956Z</time></trkpt><trkpt lat="45.29853" lon="10.8986567"><ele>35.0</ele><time>2026-04-25T06:17:14.955Z</time></trkpt><trkpt lat="45.2987533" lon="10.8988983"><ele>34.0</ele><time>2026-04-25T06:17:15.956Z</time></trkpt><trkpt lat="45.29898" lon="10.8991417"><ele>33.0</ele><time>2026-04-25T06:17:16.956Z</time></trkpt><trkpt lat="45.2992083" lon="10.8993833"><ele>33.0</ele><time>2026-04-25T06:17:17.955Z</time></trkpt><trkpt lat="45.299435" lon="10.8996233"><ele>33.0</ele><time>2026-04-25T06:17:18.956Z</time></trkpt><trkpt lat="45.299665" lon="10.8998633"><ele>34.0</ele><time>2026-04-25T06:17:19.956Z</time></trkpt><trkpt lat="45.2998933" lon="10.9001017"><ele>35.0</ele><time>2026-04-25T06:17:20.954Z</time></trkpt><trkpt lat="45.3001217" lon="10.9003433"><ele>35.0</ele><time>2026-04-25T06:17:21.957Z</time></trkpt><trkpt lat="45.3003483" lon="10.900585"><ele>35.0</ele><time>2026-04-25T06:17:22.956Z</time></trkpt><trkpt lat="45.3005767" lon="10.900825"><ele>35.0</ele><time>2026-04-25T06:17:23.956Z</time></trkpt><trkpt lat="45.300805" lon="10.9010633"><ele>35.0</ele><time>2026-04-25T06:17:24.956Z</time></trkpt><trkpt lat="45.301035" lon="10.9013"><ele>35.0</ele><time>2026-04-25T06:17:25.955Z</time></trkpt><trkpt lat="45.3012683" lon="10.9015283"><ele>35.0</ele><time>2026-04-25T06:17:26.956Z</time></trkpt><trkpt lat="45.3015067" lon="10.9017517"><ele>34.5</ele><time>2026-04-25T06:17:27.956Z</time></trkpt><trkpt lat="45.301745" lon="10.9019717"><ele>34.0</ele><time>2026-04-25T06:17:28.956Z</time></trkpt><trkpt lat="45.3019833" lon="10.9021917"><ele>34.0</ele><time>2026-04-25T06:17:29.956Z</time></trkpt><trkpt lat="45.3022217" lon="10.9024083"><ele>34.0</ele><time>2026-04-25T06:17:30.955Z</time></trkpt><trkpt lat="45.3024617" lon="10.90262"><ele>35.5</ele><time>2026-04-25T06:17:31.955Z</time></trkpt><trkpt lat="45.302705" lon="10.9028283"><ele>37.0</ele><time>2026-04-25T06:17:32.955Z</time></trkpt><trkpt lat="45.30295" lon="10.9030333"><ele>36.0</ele><time>2026-04-25T06:17:33.955Z</time></trkpt><trkpt lat="45.303195" lon="10.9032317"><ele>35.0</ele><time>2026-04-25T06:17:34.956Z</time></trkpt><trkpt lat="45.3034433" lon="10.9034283"><ele>35.0</ele><time>2026-04-25T06:17:35.954Z</time></trkpt><trkpt lat="45.3036883" lon="10.9036167"><ele>35.0</ele><time>2026-04-25T06:17:36.954Z</time></trkpt><trkpt lat="45.3039317" lon="10.9038"><ele>37.0</ele><time>2026-04-25T06:17:37.956Z</time></trkpt><trkpt lat="45.304175" lon="10.9039783"><ele>39.0</ele><time>2026-04-25T06:17:38.955Z</time></trkpt><trkpt lat="45.3044217" lon="10.90415"><ele>40.0</ele><time>2026-04-25T06:17:39.956Z</time></trkpt><trkpt lat="45.3046717" lon="10.90432"><ele>41.0</ele><time>2026-04-25T06:17:40.956Z</time></trkpt><trkpt lat="45.304925" lon="10.904485"><ele>39.0</ele><time>2026-04-25T06:17:41.955Z</time></trkpt><trkpt lat="45.3051817" lon="10.904645"><ele>37.0</ele><time>2026-04-25T06:17:42.955Z</time></trkpt><trkpt lat="45.3054383" lon="10.9048017"><ele>36.5</ele><time>2026-04-25T06:17:43.956Z</time></trkpt><trkpt lat="45.3056933" lon="10.9049617"><ele>36.0</ele><time>2026-04-25T06:17:44.956Z</time></trkpt><trkpt lat="45.3059517" lon="10.9051183"><ele>36.0</ele><time>2026-04-25T06:17:45.955Z</time></trkpt><trkpt lat="45.3062117" lon="10.905275"><ele>36.0</ele><time>2026-04-25T06:17:46.956Z</time></trkpt><trkpt lat="45.306475" lon="10.905425"><ele>35.5</ele><time>2026-04-25T06:17:47.955Z</time></trkpt><trkpt lat="45.3067433" lon="10.9055733"><ele>35.0</ele><time>2026-04-25T06:17:48.955Z</time></trkpt><trkpt lat="45.307015" lon="10.90572"><ele>35.5</ele><time>2026-04-25T06:17:49.956Z</time></trkpt><trkpt lat="45.3072917" lon="10.9058633"><ele>36.0</ele><time>2026-04-25T06:17:50.955Z</time></trkpt><trkpt lat="45.3075683" lon="10.9060067"><ele>36.0</ele><time>2026-04-25T06:17:51.957Z</time></trkpt><trkpt lat="45.307845" lon="10.9061533"><ele>36.0</ele><time>2026-04-25T06:17:52.957Z</time></trkpt><trkpt lat="45.3081217" lon="10.9063017"><ele>36.0</ele><time>2026-04-25T06:17:53.957Z</time></trkpt><trkpt lat="45.3084" lon="10.90645"><ele>36.0</ele><time>2026-04-25T06:17:54.956Z</time></trkpt><trkpt lat="45.3086783" lon="10.9065933"><ele>35.5</ele><time>2026-04-25T06:17:55.956Z</time></trkpt><trkpt lat="45.3089583" lon="10.906735"><ele>35.0</ele><time>2026-04-25T06:17:56.955Z</time></trkpt><trkpt lat="45.3092367" lon="10.906875"><ele>34.5</ele><time>2026-04-25T06:17:57.955Z</time></trkpt><trkpt lat="45.309515" lon="10.9070167"><ele>34.0</ele><time>2026-04-25T06:17:58.955Z</time></trkpt><trkpt lat="45.3097933" lon="10.9071583"><ele>35.0</ele><time>2026-04-25T06:17:59.954Z</time></trkpt><trkpt lat="45.31007" lon="10.9073017"><ele>36.0</ele><time>2026-04-25T06:18:00.954Z</time></trkpt><trkpt lat="45.3103467" lon="10.90744"><ele>35.5</ele><time>2026-04-25T06:18:01.955Z</time></trkpt><trkpt lat="45.3106217" lon="10.9075783"><ele>35.0</ele><time>2026-04-25T06:18:02.955Z</time></trkpt><trkpt lat="45.310895" lon="10.907715"><ele>35.0</ele><time>2026-04-25T06:18:03.954Z</time></trkpt><trkpt lat="45.3111667" lon="10.9078517"><ele>35.0</ele><time>2026-04-25T06:18:04.956Z</time></trkpt><trkpt lat="45.311435" lon="10.9079867"><ele>35.0</ele><time>2026-04-25T06:18:05.955Z</time></trkpt><trkpt lat="45.311705" lon="10.908125"><ele>35.0</ele><time>2026-04-25T06:18:06.954Z</time></trkpt><trkpt lat="45.3119733" lon="10.9082617"><ele>35.0</ele><time>2026-04-25T06:18:07.956Z</time></trkpt><trkpt lat="45.3122467" lon="10.9083983"><ele>35.0</ele><time>2026-04-25T06:18:08.954Z</time></trkpt><trkpt lat="45.3125183" lon="10.9085367"><ele>35.0</ele><time>2026-04-25T06:18:09.955Z</time></trkpt><trkpt lat="45.3127883" lon="10.9086733"><ele>35.0</ele><time>2026-04-25T06:18:10.955Z</time></trkpt><trkpt lat="45.3130583" lon="10.9088083"><ele>36.0</ele><time>2026-04-25T06:18:11.955Z</time></trkpt><trkpt lat="45.31333" lon="10.908945"><ele>37.0</ele><time>2026-04-25T06:18:12.954Z</time></trkpt><trkpt lat="45.3136017" lon="10.90908"><ele>37.0</ele><time>2026-04-25T06:18:13.956Z</time></trkpt><trkpt lat="45.3138717" lon="10.9092167"><ele>37.0</ele><time>2026-04-25T06:18:14.955Z</time></trkpt><trkpt lat="45.314145" lon="10.90935"><ele>38.0</ele><time>2026-04-25T06:18:15.955Z</time></trkpt><trkpt lat="45.3144217" lon="10.909485"><ele>39.0</ele><time>2026-04-25T06:18:16.956Z</time></trkpt><trkpt lat="45.3146967" lon="10.9096233"><ele>38.5</ele><time>2026-04-25T06:18:17.956Z</time></trkpt><trkpt lat="45.31497" lon="10.909765"><ele>38.0</ele><time>2026-04-25T06:18:18.957Z</time></trkpt><trkpt lat="45.3152433" lon="10.9099133"><ele>38.0</ele><time>2026-04-25T06:18:19.956Z</time></trkpt><trkpt lat="45.31552" lon="10.9100633"><ele>38.0</ele><time>2026-04-25T06:18:20.955Z</time></trkpt><trkpt lat="45.315795" lon="10.9102167"><ele>37.5</ele><time>2026-04-25T06:18:21.955Z</time></trkpt><trkpt lat="45.31607" lon="10.9103717"><ele>37.0</ele><time>2026-04-25T06:18:22.955Z</time></trkpt><trkpt lat="45.3163483" lon="10.91053"><ele>36.5</ele><time>2026-04-25T06:18:23.954Z</time></trkpt><trkpt lat="45.3166283" lon="10.9106917"><ele>36.0</ele><time>2026-04-25T06:18:24.955Z</time></trkpt><trkpt lat="45.31691" lon="10.9108583"><ele>36.0</ele><time>2026-04-25T06:18:25.956Z</time></trkpt><trkpt lat="45.3171933" lon="10.9110283"><ele>36.0</ele><time>2026-04-25T06:18:26.956Z</time></trkpt><trkpt lat="45.31748" lon="10.9112017"><ele>36.0</ele><time>2026-04-25T06:18:27.956Z</time></trkpt><trkpt lat="45.317765" lon="10.911375"><ele>36.0</ele><time>2026-04-25T06:18:28.956Z</time></trkpt><trkpt lat="45.3180483" lon="10.9115483"><ele>36.0</ele><time>2026-04-25T06:18:29.956Z</time></trkpt><trkpt lat="45.3183317" lon="10.9117233"><ele>36.0</ele><time>2026-04-25T06:18:30.955Z</time></trkpt><trkpt lat="45.3186117" lon="10.9118967"><ele>36.0</ele><time>2026-04-25T06:18:31.956Z</time></trkpt><trkpt lat="45.31889" lon="10.9120683"><ele>36.0</ele><time>2026-04-25T06:18:32.955Z</time></trkpt><trkpt lat="45.3191667" lon="10.91224"><ele>36.0</ele><time>2026-04-25T06:18:33.955Z</time></trkpt><trkpt lat="45.3194433" lon="10.9124117"><ele>36.0</ele><time>2026-04-25T06:18:34.955Z</time></trkpt><trkpt lat="45.3197183" lon="10.912585"><ele>37.0</ele><time>2026-04-25T06:18:35.955Z</time></trkpt><trkpt lat="45.3199967" lon="10.91276"><ele>38.0</ele><time>2026-04-25T06:18:36.956Z</time></trkpt><trkpt lat="45.3202767" lon="10.9129367"><ele>38.0</ele><time>2026-04-25T06:18:37.957Z</time></trkpt><trkpt lat="45.3205583" lon="10.9131117"><ele>38.0</ele><time>2026-04-25T06:18:38.954Z</time></trkpt><trkpt lat="45.3208417" lon="10.9132883"><ele>38.0</ele><time>2026-04-25T06:18:39.956Z</time></trkpt><trkpt lat="45.3211267" lon="10.913465"><ele>38.0</ele><time>2026-04-25T06:18:40.956Z</time></trkpt><trkpt lat="45.32141" lon="10.9136417"><ele>38.0</ele><time>2026-04-25T06:18:41.955Z</time></trkpt><trkpt lat="45.3216967" lon="10.91382"><ele>38.0</ele><time>2026-04-25T06:18:42.956Z</time></trkpt><trkpt lat="45.3219817" lon="10.914"><ele>38.0</ele><time>2026-04-25T06:18:43.956Z</time></trkpt><trkpt lat="45.3222667" lon="10.91418"><ele>38.0</ele><time>2026-04-25T06:18:44.955Z</time></trkpt><trkpt lat="45.32255" lon="10.9143583"><ele>37.5</ele><time>2026-04-25T06:18:45.955Z</time></trkpt><trkpt lat="45.32283" lon="10.914535"><ele>37.0</ele><time>2026-04-25T06:18:46.956Z</time></trkpt><trkpt lat="45.3231117" lon="10.91471"><ele>37.0</ele><time>2026-04-25T06:18:47.956Z</time></trkpt><trkpt lat="45.3233917" lon="10.9148867"><ele>37.0</ele><time>2026-04-25T06:18:48.955Z</time></trkpt><trkpt lat="45.3236733" lon="10.9150617"><ele>36.5</ele><time>2026-04-25T06:18:49.957Z</time></trkpt><trkpt lat="45.32396" lon="10.91524"><ele>36.0</ele><time>2026-04-25T06:18:50.955Z</time></trkpt><trkpt lat="45.3242517" lon="10.9154167"><ele>36.0</ele><time>2026-04-25T06:18:51.955Z</time></trkpt><trkpt lat="45.324545" lon="10.9155944"><ele>36.0</ele><time>2026-04-25T06:18:52.956Z</time></trkpt><trkpt lat="45.3248414" lon="10.915772"><ele>37.0</ele><time>2026-04-25T06:18:53.955Z</time></trkpt><trkpt lat="45.3251425" lon="10.9159424"><ele>38.0</ele><time>2026-04-25T06:18:54.955Z</time></trkpt><trkpt lat="45.3254464" lon="10.916106"><ele>38.0</ele><time>2026-04-25T06:18:55.955Z</time></trkpt><trkpt lat="45.3257542" lon="10.91626"><ele>38.0</ele><time>2026-04-25T06:18:56.955Z</time></trkpt><trkpt lat="45.3260619" lon="10.9164032"><ele>38.0</ele><time>2026-04-25T06:18:57.954Z</time></trkpt><trkpt lat="45.3263704" lon="10.9165393"><ele>38.0</ele><time>2026-04-25T06:18:58.955Z</time></trkpt><trkpt lat="45.3266786" lon="10.9166651"><ele>38.5</ele><time>2026-04-25T06:18:59.955Z</time></trkpt><trkpt lat="45.3269909" lon="10.9167799"><ele>39.0</ele><time>2026-04-25T06:19:00.956Z</time></trkpt><trkpt lat="45.3273015" lon="10.9168877"><ele>39.0</ele><time>2026-04-25T06:19:01.955Z</time></trkpt><trkpt lat="45.327612" lon="10.9169899"><ele>39.0</ele><time>2026-04-25T06:19:02.955Z</time></trkpt><trkpt lat="45.3279237" lon="10.9170837"><ele>38.0</ele><time>2026-04-25T06:19:03.955Z</time></trkpt><trkpt lat="45.3282356" lon="10.9171678"><ele>37.0</ele><time>2026-04-25T06:19:04.956Z</time></trkpt><trkpt lat="45.3285457" lon="10.9172372"><ele>37.0</ele><time>2026-04-25T06:19:05.955Z</time></trkpt><trkpt lat="45.3288556" lon="10.9172987"><ele>37.0</ele><time>2026-04-25T06:19:06.956Z</time></trkpt><trkpt lat="45.3291627" lon="10.9173509"><ele>37.0</ele><time>2026-04-25T06:19:07.955Z</time></trkpt><trkpt lat="45.3294676" lon="10.917392"><ele>37.0</ele><time>2026-04-25T06:19:08.956Z</time></trkpt><trkpt lat="45.3297696" lon="10.9174231"><ele>37.5</ele><time>2026-04-25T06:19:09.955Z</time></trkpt><trkpt lat="45.3300696" lon="10.917451"><ele>38.0</ele><time>2026-04-25T06:19:10.955Z</time></trkpt><trkpt lat="45.330368" lon="10.9174746"><ele>39.5</ele><time>2026-04-25T06:19:11.954Z</time></trkpt><trkpt lat="45.3306618" lon="10.917499"><ele>41.0</ele><time>2026-04-25T06:19:12.954Z</time></trkpt><trkpt lat="45.3309489" lon="10.9175236"><ele>41.0</ele><time>2026-04-25T06:19:13.954Z</time></trkpt><trkpt lat="45.3312322" lon="10.9175531"><ele>41.0</ele><time>2026-04-25T06:19:14.956Z</time></trkpt><trkpt lat="45.3315175" lon="10.9175818"><ele>39.0</ele><time>2026-04-25T06:19:15.955Z</time></trkpt><trkpt lat="45.3318023" lon="10.9176113"><ele>37.0</ele><time>2026-04-25T06:19:16.956Z</time></trkpt><trkpt lat="45.3320868" lon="10.9176388"><ele>36.5</ele><time>2026-04-25T06:19:17.955Z</time></trkpt><trkpt lat="45.3323729" lon="10.9176635"><ele>36.0</ele><time>2026-04-25T06:19:18.956Z</time></trkpt><trkpt lat="45.3326581" lon="10.9176883"><ele>36.0</ele><time>2026-04-25T06:19:19.954Z</time></trkpt><trkpt lat="45.3329463" lon="10.9177146"><ele>36.0</ele><time>2026-04-25T06:19:20.956Z</time></trkpt><trkpt lat="45.3332342" lon="10.917743"><ele>36.0</ele><time>2026-04-25T06:19:21.955Z</time></trkpt><trkpt lat="45.3335246" lon="10.9177672"><ele>36.0</ele><time>2026-04-25T06:19:22.956Z</time></trkpt><trkpt lat="45.3338134" lon="10.9177908"><ele>36.0</ele><time>2026-04-25T06:19:23.955Z</time></trkpt><trkpt lat="45.3341044" lon="10.9178165"><ele>36.0</ele><time>2026-04-25T06:19:24.955Z</time></trkpt><trkpt lat="45.3343967" lon="10.9178467"><ele>36.0</ele><time>2026-04-25T06:19:25.955Z</time></trkpt><trkpt lat="45.334685" lon="10.9178733"><ele>36.0</ele><time>2026-04-25T06:19:26.956Z</time></trkpt><trkpt lat="45.334975" lon="10.9178983"><ele>37.0</ele><time>2026-04-25T06:19:27.955Z</time></trkpt><trkpt lat="45.3352633" lon="10.9179233"><ele>38.0</ele><time>2026-04-25T06:19:28.955Z</time></trkpt><trkpt lat="45.3355533" lon="10.9179467"><ele>39.5</ele><time>2026-04-25T06:19:29.955Z</time></trkpt><trkpt lat="45.3358417" lon="10.91797"><ele>41.0</ele><time>2026-04-25T06:19:30.956Z</time></trkpt><trkpt lat="45.3361267" lon="10.917995"><ele>41.0</ele><time>2026-04-25T06:19:31.955Z</time></trkpt><trkpt lat="45.336415" lon="10.9180183"><ele>41.0</ele><time>2026-04-25T06:19:32.955Z</time></trkpt><trkpt lat="45.3367033" lon="10.918045"><ele>41.0</ele><time>2026-04-25T06:19:33.955Z</time></trkpt><trkpt lat="45.3369967" lon="10.9180733"><ele>41.0</ele><time>2026-04-25T06:19:34.956Z</time></trkpt><trkpt lat="45.337285" lon="10.9181033"><ele>39.5</ele><time>2026-04-25T06:19:35.955Z</time></trkpt><trkpt lat="45.33757" lon="10.9181267"><ele>38.0</ele><time>2026-04-25T06:19:36.956Z</time></trkpt><trkpt lat="45.337855" lon="10.9181517"><ele>38.5</ele><time>2026-04-25T06:19:37.956Z</time></trkpt><trkpt lat="45.3381383" lon="10.9181767"><ele>39.0</ele><time>2026-04-25T06:19:38.955Z</time></trkpt><trkpt lat="45.3384217" lon="10.9182"><ele>39.0</ele><time>2026-04-25T06:19:39.956Z</time></trkpt><trkpt lat="45.338705" lon="10.9182233"><ele>39.0</ele><time>2026-04-25T06:19:40.956Z</time></trkpt><trkpt lat="45.338985" lon="10.9182483"><ele>38.5</ele><time>2026-04-25T06:19:41.954Z</time></trkpt><trkpt lat="45.3392667" lon="10.918275"><ele>38.0</ele><time>2026-04-25T06:19:42.955Z</time></trkpt><trkpt lat="45.3395517" lon="10.9183033"><ele>38.0</ele><time>2026-04-25T06:19:43.955Z</time></trkpt><trkpt lat="45.3398383" lon="10.9183283"><ele>38.0</ele><time>2026-04-25T06:19:44.955Z</time></trkpt><trkpt lat="45.3401233" lon="10.918355"><ele>38.0</ele><time>2026-04-25T06:19:45.955Z</time></trkpt><trkpt lat="45.3404083" lon="10.9183783"><ele>38.0</ele><time>2026-04-25T06:19:46.956Z</time></trkpt><trkpt lat="45.3406933" lon="10.918405"><ele>38.5</ele><time>2026-04-25T06:19:47.956Z</time></trkpt><trkpt lat="45.3409783" lon="10.91843"><ele>39.0</ele><time>2026-04-25T06:19:48.955Z</time></trkpt><trkpt lat="45.3412633" lon="10.9184567"><ele>39.5</ele><time>2026-04-25T06:19:49.956Z</time></trkpt><trkpt lat="45.3415467" lon="10.9184817"><ele>40.0</ele><time>2026-04-25T06:19:50.956Z</time></trkpt><trkpt lat="45.3418317" lon="10.9185083"><ele>40.0</ele><time>2026-04-25T06:19:51.955Z</time></trkpt><trkpt lat="45.3421183" lon="10.918535"><ele>40.0</ele><time>2026-04-25T06:19:52.956Z</time></trkpt><trkpt lat="45.3424033" lon="10.9185617"><ele>40.5</ele><time>2026-04-25T06:19:53.955Z</time></trkpt><trkpt lat="45.34269" lon="10.9185867"><ele>41.0</ele><time>2026-04-25T06:19:54.954Z</time></trkpt><trkpt lat="45.342975" lon="10.9186117"><ele>41.5</ele><time>2026-04-25T06:19:55.956Z</time></trkpt><trkpt lat="45.3432617" lon="10.918635"><ele>42.0</ele><time>2026-04-25T06:19:56.955Z</time></trkpt><trkpt lat="45.34355" lon="10.9186567"><ele>42.0</ele><time>2026-04-25T06:19:57.954Z</time></trkpt><trkpt lat="45.3438367" lon="10.9186833"><ele>42.0</ele><time>2026-04-25T06:19:58.954Z</time></trkpt><trkpt lat="45.3441233" lon="10.9187083"><ele>41.5</ele><time>2026-04-25T06:19:59.954Z</time></trkpt><trkpt lat="45.34441" lon="10.918735"><ele>41.0</ele><time>2026-04-25T06:20:00.955Z</time></trkpt><trkpt lat="45.3446967" lon="10.9187617"><ele>41.0</ele><time>2026-04-25T06:20:01.955Z</time></trkpt><trkpt lat="45.3449833" lon="10.9187883"><ele>41.0</ele><time>2026-04-25T06:20:02.957Z</time></trkpt><trkpt lat="45.3452683" lon="10.918815"><ele>40.5</ele><time>2026-04-25T06:20:03.954Z</time></trkpt><trkpt lat="45.345555" lon="10.9188417"><ele>40.0</ele><time>2026-04-25T06:20:04.957Z</time></trkpt><trkpt lat="45.3458433" lon="10.9188633"><ele>40.0</ele><time>2026-04-25T06:20:05.955Z</time></trkpt><trkpt lat="45.3461317" lon="10.918885"><ele>40.0</ele><time>2026-04-25T06:20:06.955Z</time></trkpt><trkpt lat="45.3464183" lon="10.91891"><ele>41.0</ele><time>2026-04-25T06:20:07.954Z</time></trkpt><trkpt lat="45.346705" lon="10.9189383"><ele>42.0</ele><time>2026-04-25T06:20:08.956Z</time></trkpt><trkpt lat="45.346985" lon="10.9189667"><ele>41.5</ele><time>2026-04-25T06:20:09.955Z</time></trkpt><trkpt lat="45.3472633" lon="10.9189933"><ele>41.0</ele><time>2026-04-25T06:20:10.958Z</time></trkpt><trkpt lat="45.3475383" lon="10.9190233"><ele>41.0</ele><time>2026-04-25T06:20:11.955Z</time></trkpt><trkpt lat="45.3478133" lon="10.9190533"><ele>41.0</ele><time>2026-04-25T06:20:12.957Z</time></trkpt><trkpt lat="45.3480883" lon="10.9190833"><ele>41.0</ele><time>2026-04-25T06:20:13.955Z</time></trkpt><trkpt lat="45.3483617" lon="10.919115"><ele>41.0</ele><time>2026-04-25T06:20:14.954Z</time></trkpt><trkpt lat="45.3486367" lon="10.9191467"><ele>41.5</ele><time>2026-04-25T06:20:15.954Z</time></trkpt><trkpt lat="45.3489133" lon="10.91918"><ele>42.0</ele><time>2026-04-25T06:20:16.956Z</time></trkpt><trkpt lat="45.3491933" lon="10.9192133"><ele>42.0</ele><time>2026-04-25T06:20:17.956Z</time></trkpt><trkpt lat="45.349475" lon="10.9192483"><ele>42.0</ele><time>2026-04-25T06:20:18.955Z</time></trkpt><trkpt lat="45.3497567" lon="10.919285"><ele>41.5</ele><time>2026-04-25T06:20:19.955Z</time></trkpt><trkpt lat="45.3500417" lon="10.91932"><ele>41.0</ele><time>2026-04-25T06:20:20.956Z</time></trkpt><trkpt lat="45.350325" lon="10.9193567"><ele>42.5</ele><time>2026-04-25T06:20:21.955Z</time></trkpt><trkpt lat="45.35061" lon="10.9193983"><ele>44.0</ele><time>2026-04-25T06:20:22.956Z</time></trkpt><trkpt lat="45.350895" lon="10.91944"><ele>44.0</ele><time>2026-04-25T06:20:23.955Z</time></trkpt><trkpt lat="45.3511817" lon="10.919485"><ele>44.0</ele><time>2026-04-25T06:20:24.954Z</time></trkpt><trkpt lat="45.35147" lon="10.919535"><ele>44.5</ele><time>2026-04-25T06:20:25.955Z</time></trkpt><trkpt lat="45.35176" lon="10.919585"><ele>45.0</ele><time>2026-04-25T06:20:26.956Z</time></trkpt><trkpt lat="45.3520517" lon="10.9196383"><ele>45.0</ele><time>2026-04-25T06:20:27.954Z</time></trkpt><trkpt lat="45.3523417" lon="10.91969"><ele>45.0</ele><time>2026-04-25T06:20:28.956Z</time></trkpt><trkpt lat="45.3526317" lon="10.91974"><ele>45.0</ele><time>2026-04-25T06:20:29.955Z</time></trkpt><trkpt lat="45.3529217" lon="10.91979"><ele>45.0</ele><time>2026-04-25T06:20:30.955Z</time></trkpt><trkpt lat="45.3532067" lon="10.91984"><ele>44.5</ele><time>2026-04-25T06:20:31.955Z</time></trkpt><trkpt lat="45.3534933" lon="10.9198867"><ele>44.0</ele><time>2026-04-25T06:20:32.955Z</time></trkpt><trkpt lat="45.35378" lon="10.9199333"><ele>44.5</ele><time>2026-04-25T06:20:33.954Z</time></trkpt><trkpt lat="45.3540667" lon="10.9199817"><ele>45.0</ele><time>2026-04-25T06:20:34.956Z</time></trkpt><trkpt lat="45.3543533" lon="10.9200317"><ele>45.0</ele><time>2026-04-25T06:20:35.955Z</time></trkpt><trkpt lat="45.3546417" lon="10.92008"><ele>45.0</ele><time>2026-04-25T06:20:36.955Z</time></trkpt><trkpt lat="45.3549283" lon="10.9201333"><ele>45.5</ele><time>2026-04-25T06:20:37.955Z</time></trkpt><trkpt lat="45.3552183" lon="10.9201783"><ele>46.0</ele><time>2026-04-25T06:20:38.955Z</time></trkpt><trkpt lat="45.3555117" lon="10.9202233"><ele>44.5</ele><time>2026-04-25T06:20:39.954Z</time></trkpt><trkpt lat="45.3558067" lon="10.92027"><ele>43.0</ele><time>2026-04-25T06:20:40.956Z</time></trkpt><trkpt lat="45.3560983" lon="10.9203167"><ele>44.0</ele><time>2026-04-25T06:20:41.955Z</time></trkpt><trkpt lat="45.35639" lon="10.920365"><ele>45.0</ele><time>2026-04-25T06:20:42.955Z</time></trkpt><trkpt lat="45.35668" lon="10.9204133"><ele>45.0</ele><time>2026-04-25T06:20:43.954Z</time></trkpt><trkpt lat="45.3569717" lon="10.9204583"><ele>45.0</ele><time>2026-04-25T06:20:44.955Z</time></trkpt><trkpt lat="45.3572617" lon="10.9205033"><ele>45.5</ele><time>2026-04-25T06:20:45.957Z</time></trkpt><trkpt lat="45.3575567" lon="10.920545"><ele>46.0</ele><time>2026-04-25T06:20:46.955Z</time></trkpt><trkpt lat="45.3578533" lon="10.920585"><ele>46.5</ele><time>2026-04-25T06:20:47.955Z</time></trkpt><trkpt lat="45.35815" lon="10.9206217"><ele>47.0</ele><time>2026-04-25T06:20:48.955Z</time></trkpt><trkpt lat="45.3584467" lon="10.9206517"><ele>47.0</ele><time>2026-04-25T06:20:49.954Z</time></trkpt><trkpt lat="45.3587433" lon="10.9206733"><ele>47.0</ele><time>2026-04-25T06:20:50.954Z</time></trkpt><trkpt lat="45.3590417" lon="10.92069"><ele>46.0</ele><time>2026-04-25T06:20:51.953Z</time></trkpt><trkpt lat="45.3593383" lon="10.9207017"><ele>45.0</ele><time>2026-04-25T06:20:52.955Z</time></trkpt><trkpt lat="45.3596367" lon="10.9207133"><ele>46.0</ele><time>2026-04-25T06:20:53.956Z</time></trkpt><trkpt lat="45.3599367" lon="10.9207167"><ele>47.0</ele><time>2026-04-25T06:20:54.955Z</time></trkpt><trkpt lat="45.360235" lon="10.9207133"><ele>45.5</ele><time>2026-04-25T06:20:55.955Z</time></trkpt><trkpt lat="45.360535" lon="10.9207017"><ele>44.0</ele><time>2026-04-25T06:20:56.956Z</time></trkpt><trkpt lat="45.360835" lon="10.920685"><ele>44.0</ele><time>2026-04-25T06:20:57.955Z</time></trkpt><trkpt lat="45.3611367" lon="10.9206583"><ele>44.0</ele><time>2026-04-25T06:20:58.955Z</time></trkpt><trkpt lat="45.3614383" lon="10.920625"><ele>44.5</ele><time>2026-04-25T06:20:59.956Z</time></trkpt><trkpt lat="45.3617417" lon="10.9205883"><ele>45.0</ele><time>2026-04-25T06:21:00.955Z</time></trkpt><trkpt lat="45.3620433" lon="10.9205483"><ele>46.0</ele><time>2026-04-25T06:21:01.955Z</time></trkpt><trkpt lat="45.3623467" lon="10.920505"><ele>47.0</ele><time>2026-04-25T06:21:02.953Z</time></trkpt><trkpt lat="45.3626517" lon="10.9204517"><ele>47.0</ele><time>2026-04-25T06:21:03.955Z</time></trkpt><trkpt lat="45.3629567" lon="10.920395"><ele>47.0</ele><time>2026-04-25T06:21:04.956Z</time></trkpt><trkpt lat="45.36326" lon="10.9203317"><ele>48.0</ele><time>2026-04-25T06:21:05.955Z</time></trkpt><trkpt lat="45.3635617" lon="10.92026"><ele>49.0</ele><time>2026-04-25T06:21:06.958Z</time></trkpt><trkpt lat="45.3638617" lon="10.9201833"><ele>48.5</ele><time>2026-04-25T06:21:07.955Z</time></trkpt><trkpt lat="45.36416" lon="10.9201017"><ele>48.0</ele><time>2026-04-25T06:21:08.954Z</time></trkpt><trkpt lat="45.3644533" lon="10.9200133"><ele>48.5</ele><time>2026-04-25T06:21:09.954Z</time></trkpt><trkpt lat="45.3647483" lon="10.9199183"><ele>49.0</ele><time>2026-04-25T06:21:10.955Z</time></trkpt><trkpt lat="45.3650417" lon="10.9198217"><ele>49.0</ele><time>2026-04-25T06:21:11.956Z</time></trkpt><trkpt lat="45.365335" lon="10.9197167"><ele>49.0</ele><time>2026-04-25T06:21:12.954Z</time></trkpt><trkpt lat="45.365625" lon="10.9196083"><ele>48.0</ele><time>2026-04-25T06:21:13.955Z</time></trkpt><trkpt lat="45.3659117" lon="10.9194933"><ele>47.0</ele><time>2026-04-25T06:21:14.954Z</time></trkpt><trkpt lat="45.366195" lon="10.919375"><ele>47.0</ele><time>2026-04-25T06:21:15.954Z</time></trkpt><trkpt lat="45.36648" lon="10.9192533"><ele>47.0</ele><time>2026-04-25T06:21:16.954Z</time></trkpt><trkpt lat="45.3667617" lon="10.919125"><ele>47.5</ele><time>2026-04-25T06:21:17.955Z</time></trkpt><trkpt lat="45.3670417" lon="10.9189917"><ele>48.0</ele><time>2026-04-25T06:21:18.955Z</time></trkpt><trkpt lat="45.3673183" lon="10.918855"><ele>48.0</ele><time>2026-04-25T06:21:19.956Z</time></trkpt><trkpt lat="45.3675983" lon="10.9187167"><ele>48.0</ele><time>2026-04-25T06:21:20.955Z</time></trkpt><trkpt lat="45.367875" lon="10.9185767"><ele>48.5</ele><time>2026-04-25T06:21:21.954Z</time></trkpt><trkpt lat="45.36815" lon="10.9184333"><ele>49.0</ele><time>2026-04-25T06:21:22.955Z</time></trkpt><trkpt lat="45.368425" lon="10.91829"><ele>49.5</ele><time>2026-04-25T06:21:23.956Z</time></trkpt><trkpt lat="45.368695" lon="10.9181467"><ele>50.0</ele><time>2026-04-25T06:21:24.954Z</time></trkpt><trkpt lat="45.36897" lon="10.9180067"><ele>49.0</ele><time>2026-04-25T06:21:25.955Z</time></trkpt><trkpt lat="45.369245" lon="10.917865"><ele>48.0</ele><time>2026-04-25T06:21:26.955Z</time></trkpt><trkpt lat="45.3695183" lon="10.917725"><ele>48.0</ele><time>2026-04-25T06:21:27.955Z</time></trkpt><trkpt lat="45.36979" lon="10.9175833"><ele>48.0</ele><time>2026-04-25T06:21:28.955Z</time></trkpt><trkpt lat="45.370065" lon="10.917445"><ele>48.5</ele><time>2026-04-25T06:21:29.955Z</time></trkpt><trkpt lat="45.37034" lon="10.9173033"><ele>49.0</ele><time>2026-04-25T06:21:30.955Z</time></trkpt><trkpt lat="45.3706167" lon="10.9171583"><ele>49.0</ele><time>2026-04-25T06:21:31.955Z</time></trkpt><trkpt lat="45.3708933" lon="10.917015"><ele>49.0</ele><time>2026-04-25T06:21:32.955Z</time></trkpt><trkpt lat="45.3711667" lon="10.91687"><ele>50.0</ele><time>2026-04-25T06:21:33.956Z</time></trkpt><trkpt lat="45.37144" lon="10.916725"><ele>51.0</ele><time>2026-04-25T06:21:34.954Z</time></trkpt><trkpt lat="45.371715" lon="10.91658"><ele>51.0</ele><time>2026-04-25T06:21:35.956Z</time></trkpt><trkpt lat="45.3719933" lon="10.9164417"><ele>51.0</ele><time>2026-04-25T06:21:36.955Z</time></trkpt><trkpt lat="45.3722717" lon="10.9163017"><ele>51.0</ele><time>2026-04-25T06:21:37.955Z</time></trkpt><trkpt lat="45.3725467" lon="10.9161617"><ele>51.0</ele><time>2026-04-25T06:21:38.955Z</time></trkpt><trkpt lat="45.3728217" lon="10.9160233"><ele>51.5</ele><time>2026-04-25T06:21:39.955Z</time></trkpt><trkpt lat="45.3730983" lon="10.9158767"><ele>52.0</ele><time>2026-04-25T06:21:40.955Z</time></trkpt><trkpt lat="45.373375" lon="10.9157317"><ele>52.0</ele><time>2026-04-25T06:21:41.955Z</time></trkpt><trkpt lat="45.3736517" lon="10.915585"><ele>52.0</ele><time>2026-04-25T06:21:42.954Z</time></trkpt><trkpt lat="45.37393" lon="10.91544"><ele>51.5</ele><time>2026-04-25T06:21:43.955Z</time></trkpt><trkpt lat="45.37421" lon="10.915295"><ele>51.0</ele><time>2026-04-25T06:21:44.955Z</time></trkpt><trkpt lat="45.37449" lon="10.91515"><ele>52.0</ele><time>2026-04-25T06:21:45.954Z</time></trkpt><trkpt lat="45.3747717" lon="10.9150067"><ele>53.0</ele><time>2026-04-25T06:21:46.956Z</time></trkpt><trkpt lat="45.3750517" lon="10.9148617"><ele>53.0</ele><time>2026-04-25T06:21:47.96Z</time></trkpt><trkpt lat="45.3753333" lon="10.9147167"><ele>53.0</ele><time>2026-04-25T06:21:48.954Z</time></trkpt><trkpt lat="45.375615" lon="10.9145717"><ele>53.0</ele><time>2026-04-25T06:21:49.956Z</time></trkpt><trkpt lat="45.3758967" lon="10.9144267"><ele>53.0</ele><time>2026-04-25T06:21:50.953Z</time></trkpt><trkpt lat="45.37618" lon="10.9142817"><ele>54.0</ele><time>2026-04-25T06:21:51.955Z</time></trkpt><trkpt lat="45.3764617" lon="10.9141383"><ele>55.0</ele><time>2026-04-25T06:21:52.955Z</time></trkpt><trkpt lat="45.3767467" lon="10.9139917"><ele>55.0</ele><time>2026-04-25T06:21:53.957Z</time></trkpt><trkpt lat="45.37703" lon="10.9138433"><ele>55.0</ele><time>2026-04-25T06:21:54.954Z</time></trkpt><trkpt lat="45.3773133" lon="10.9136917"><ele>54.5</ele><time>2026-04-25T06:21:55.955Z</time></trkpt><trkpt lat="45.3775967" lon="10.9135433"><ele>54.0</ele><time>2026-04-25T06:21:56.954Z</time></trkpt><trkpt lat="45.3778783" lon="10.9133933"><ele>52.5</ele><time>2026-04-25T06:21:57.955Z</time></trkpt><trkpt lat="45.3781583" lon="10.9132417"><ele>51.0</ele><time>2026-04-25T06:21:58.955Z</time></trkpt><trkpt lat="45.37844" lon="10.91309"><ele>51.0</ele><time>2026-04-25T06:21:59.955Z</time></trkpt><trkpt lat="45.3787217" lon="10.9129417"><ele>51.0</ele><time>2026-04-25T06:22:00.955Z</time></trkpt><trkpt lat="45.3790017" lon="10.912795"><ele>52.0</ele><time>2026-04-25T06:22:01.954Z</time></trkpt><trkpt lat="45.3792817" lon="10.91265"><ele>53.0</ele><time>2026-04-25T06:22:02.955Z</time></trkpt><trkpt lat="45.3795617" lon="10.912505"><ele>53.0</ele><time>2026-04-25T06:22:03.955Z</time></trkpt><trkpt lat="45.3798433" lon="10.91236"><ele>53.0</ele><time>2026-04-25T06:22:04.955Z</time></trkpt><trkpt lat="45.3801233" lon="10.9122133"><ele>53.0</ele><time>2026-04-25T06:22:05.956Z</time></trkpt><trkpt lat="45.3804017" lon="10.9120667"><ele>53.0</ele><time>2026-04-25T06:22:06.954Z</time></trkpt><trkpt lat="45.3806817" lon="10.9119233"><ele>53.5</ele><time>2026-04-25T06:22:07.955Z</time></trkpt><trkpt lat="45.3809617" lon="10.9117783"><ele>54.0</ele><time>2026-04-25T06:22:08.955Z</time></trkpt><trkpt lat="45.3812417" lon="10.911635"><ele>55.0</ele><time>2026-04-25T06:22:09.956Z</time></trkpt><trkpt lat="45.3815217" lon="10.91149"><ele>56.0</ele><time>2026-04-25T06:22:10.955Z</time></trkpt><trkpt lat="45.3818" lon="10.9113467"><ele>56.0</ele><time>2026-04-25T06:22:11.955Z</time></trkpt><trkpt lat="45.3820733" lon="10.911205"><ele>56.0</ele><time>2026-04-25T06:22:12.955Z</time></trkpt><trkpt lat="45.382345" lon="10.9110617"><ele>57.5</ele><time>2026-04-25T06:22:13.954Z</time></trkpt><trkpt lat="45.38261" lon="10.91092"><ele>59.0</ele><time>2026-04-25T06:22:14.955Z</time></trkpt><trkpt lat="45.382875" lon="10.9107817"><ele>58.0</ele><time>2026-04-25T06:22:15.955Z</time></trkpt><trkpt lat="45.383135" lon="10.9106483"><ele>57.0</ele><time>2026-04-25T06:22:16.956Z</time></trkpt><trkpt lat="45.3833933" lon="10.9105133"><ele>57.0</ele><time>2026-04-25T06:22:17.955Z</time></trkpt><trkpt lat="45.38365" lon="10.91038"><ele>57.0</ele><time>2026-04-25T06:22:18.955Z</time></trkpt><trkpt lat="45.3839083" lon="10.9102467"><ele>57.0</ele><time>2026-04-25T06:22:19.955Z</time></trkpt><trkpt lat="45.3841617" lon="10.9101183"><ele>57.0</ele><time>2026-04-25T06:22:20.955Z</time></trkpt><trkpt lat="45.3844117" lon="10.9099917"><ele>58.0</ele><time>2026-04-25T06:22:21.955Z</time></trkpt><trkpt lat="45.3846567" lon="10.9098667"><ele>59.0</ele><time>2026-04-25T06:22:22.954Z</time></trkpt><trkpt lat="45.384895" lon="10.9097467"><ele>59.0</ele><time>2026-04-25T06:22:23.954Z</time></trkpt><trkpt lat="45.3851283" lon="10.90963"><ele>59.0</ele><time>2026-04-25T06:22:24.955Z</time></trkpt><trkpt lat="45.3853583" lon="10.9095167"><ele>59.0</ele><time>2026-04-25T06:22:25.955Z</time></trkpt><trkpt lat="45.38559" lon="10.9094067"><ele>59.0</ele><time>2026-04-25T06:22:26.955Z</time></trkpt><trkpt lat="45.3858183" lon="10.9093033"><ele>59.5</ele><time>2026-04-25T06:22:27.956Z</time></trkpt><trkpt lat="45.3860433" lon="10.9092067"><ele>60.0</ele><time>2026-04-25T06:22:28.955Z</time></trkpt><trkpt lat="45.3862667" lon="10.9091167"><ele>60.0</ele><time>2026-04-25T06:22:29.955Z</time></trkpt><trkpt lat="45.3864883" lon="10.9090317"><ele>60.0</ele><time>2026-04-25T06:22:30.954Z</time></trkpt><trkpt lat="45.3867117" lon="10.908955"><ele>60.0</ele><time>2026-04-25T06:22:31.954Z</time></trkpt><trkpt lat="45.3869367" lon="10.9088817"><ele>60.0</ele><time>2026-04-25T06:22:32.955Z</time></trkpt><trkpt lat="45.3871617" lon="10.908815"><ele>59.5</ele><time>2026-04-25T06:22:33.955Z</time></trkpt><trkpt lat="45.387385" lon="10.9087533"><ele>59.0</ele><time>2026-04-25T06:22:34.955Z</time></trkpt><trkpt lat="45.3876117" lon="10.9086933"><ele>59.0</ele><time>2026-04-25T06:22:35.956Z</time></trkpt><trkpt lat="45.387845" lon="10.90863"><ele>59.0</ele><time>2026-04-25T06:22:36.955Z</time></trkpt><trkpt lat="45.38809" lon="10.90857"><ele>59.5</ele><time>2026-04-25T06:22:37.955Z</time></trkpt><trkpt lat="45.388345" lon="10.9085117"><ele>60.0</ele><time>2026-04-25T06:22:38.954Z</time></trkpt><trkpt lat="45.388615" lon="10.90846"><ele>60.5</ele><time>2026-04-25T06:22:39.955Z</time></trkpt><trkpt lat="45.3888967" lon="10.9084167"><ele>61.0</ele><time>2026-04-25T06:22:40.954Z</time></trkpt><trkpt lat="45.3891867" lon="10.9083833"><ele>61.5</ele><time>2026-04-25T06:22:41.956Z</time></trkpt><trkpt lat="45.38948" lon="10.9083617"><ele>62.0</ele><time>2026-04-25T06:22:42.954Z</time></trkpt><trkpt lat="45.38978" lon="10.90835"><ele>62.0</ele><time>2026-04-25T06:22:43.955Z</time></trkpt><trkpt lat="45.3900817" lon="10.908345"><ele>62.0</ele><time>2026-04-25T06:22:44.955Z</time></trkpt><trkpt lat="45.390385" lon="10.9083467"><ele>61.0</ele><time>2026-04-25T06:22:45.955Z</time></trkpt><trkpt lat="45.3906917" lon="10.9083567"><ele>60.0</ele><time>2026-04-25T06:22:46.955Z</time></trkpt><trkpt lat="45.391" lon="10.9083767"><ele>60.0</ele><time>2026-04-25T06:22:47.954Z</time></trkpt><trkpt lat="45.3913083" lon="10.9084017"><ele>60.0</ele><time>2026-04-25T06:22:48.955Z</time></trkpt><trkpt lat="45.3916183" lon="10.9084383"><ele>61.5</ele><time>2026-04-25T06:22:49.956Z</time></trkpt><trkpt lat="45.39193" lon="10.908485"><ele>63.0</ele><time>2026-04-25T06:22:50.954Z</time></trkpt><trkpt lat="45.39224" lon="10.9085433"><ele>63.0</ele><time>2026-04-25T06:22:51.955Z</time></trkpt><trkpt lat="45.3925483" lon="10.9086083"><ele>63.0</ele><time>2026-04-25T06:22:52.955Z</time></trkpt><trkpt lat="45.3928533" lon="10.90868"><ele>63.0</ele><time>2026-04-25T06:22:53.956Z</time></trkpt><trkpt lat="45.3931583" lon="10.90876"><ele>63.0</ele><time>2026-04-25T06:22:54.956Z</time></trkpt><trkpt lat="45.393465" lon="10.9088433"><ele>63.0</ele><time>2026-04-25T06:22:55.956Z</time></trkpt><trkpt lat="45.3937783" lon="10.9089317"><ele>63.0</ele><time>2026-04-25T06:22:56.956Z</time></trkpt><trkpt lat="45.3940933" lon="10.9090233"><ele>63.5</ele><time>2026-04-25T06:22:57.955Z</time></trkpt><trkpt lat="45.3944167" lon="10.9091133"><ele>64.0</ele><time>2026-04-25T06:22:58.956Z</time></trkpt><trkpt lat="45.3947417" lon="10.9092017"><ele>64.5</ele><time>2026-04-25T06:22:59.954Z</time></trkpt><trkpt lat="45.3950633" lon="10.909295"><ele>65.0</ele><time>2026-04-25T06:23:00.955Z</time></trkpt><trkpt lat="45.395385" lon="10.909385"><ele>65.0</ele><time>2026-04-25T06:23:01.954Z</time></trkpt><trkpt lat="45.3957" lon="10.9094717"><ele>65.0</ele><time>2026-04-25T06:23:02.955Z</time></trkpt><trkpt lat="45.3960067" lon="10.90956"><ele>65.0</ele><time>2026-04-25T06:23:03.955Z</time></trkpt><trkpt lat="45.3963083" lon="10.90965"><ele>65.0</ele><time>2026-04-25T06:23:04.956Z</time></trkpt><trkpt lat="45.3966067" lon="10.9097483"><ele>65.5</ele><time>2026-04-25T06:23:05.955Z</time></trkpt><trkpt lat="45.396905" lon="10.909845"><ele>66.0</ele><time>2026-04-25T06:23:06.955Z</time></trkpt><trkpt lat="45.3971983" lon="10.9099367"><ele>66.0</ele><time>2026-04-25T06:23:07.955Z</time></trkpt><trkpt lat="45.3974883" lon="10.91002"><ele>66.0</ele><time>2026-04-25T06:23:08.955Z</time></trkpt><trkpt lat="45.3977767" lon="10.9100983"><ele>65.5</ele><time>2026-04-25T06:23:09.955Z</time></trkpt><trkpt lat="45.3980683" lon="10.9101783"><ele>65.0</ele><time>2026-04-25T06:23:10.955Z</time></trkpt><trkpt lat="45.3983583" lon="10.91026"><ele>65.0</ele><time>2026-04-25T06:23:11.955Z</time></trkpt><trkpt lat="45.3986483" lon="10.91034"><ele>65.0</ele><time>2026-04-25T06:23:12.955Z</time></trkpt><trkpt lat="45.3989383" lon="10.9104217"><ele>66.0</ele><time>2026-04-25T06:23:13.954Z</time></trkpt><trkpt lat="45.3992267" lon="10.9105017"><ele>67.0</ele><time>2026-04-25T06:23:14.954Z</time></trkpt><trkpt lat="45.39951" lon="10.9105783"><ele>66.0</ele><time>2026-04-25T06:23:15.955Z</time></trkpt><trkpt lat="45.3997833" lon="10.9106517"><ele>65.0</ele><time>2026-04-25T06:23:16.956Z</time></trkpt><trkpt lat="45.4000483" lon="10.910725"><ele>65.0</ele><time>2026-04-25T06:23:17.955Z</time></trkpt><trkpt lat="45.4003083" lon="10.9108017"><ele>65.0</ele><time>2026-04-25T06:23:18.955Z</time></trkpt><trkpt lat="45.400565" lon="10.9108817"><ele>64.5</ele><time>2026-04-25T06:23:19.956Z</time></trkpt><trkpt lat="45.4008217" lon="10.9109617"><ele>64.0</ele><time>2026-04-25T06:23:20.955Z</time></trkpt><trkpt lat="45.401075" lon="10.9110417"><ele>64.0</ele><time>2026-04-25T06:23:21.956Z</time></trkpt><trkpt lat="45.4013283" lon="10.9111183"><ele>64.0</ele><time>2026-04-25T06:23:22.955Z</time></trkpt><trkpt lat="45.4015783" lon="10.9111933"><ele>63.5</ele><time>2026-04-25T06:23:23.956Z</time></trkpt><trkpt lat="45.4018233" lon="10.9112667"><ele>63.0</ele><time>2026-04-25T06:23:24.955Z</time></trkpt><trkpt lat="45.4020617" lon="10.9113417"><ele>64.0</ele><time>2026-04-25T06:23:25.956Z</time></trkpt><trkpt lat="45.4022983" lon="10.9114183"><ele>65.0</ele><time>2026-04-25T06:23:26.956Z</time></trkpt><trkpt lat="45.40253" lon="10.9115"><ele>65.0</ele><time>2026-04-25T06:23:27.956Z</time></trkpt><trkpt lat="45.4027583" lon="10.9115833"><ele>65.0</ele><time>2026-04-25T06:23:28.955Z</time></trkpt><trkpt lat="45.402985" lon="10.9116717"><ele>65.0</ele><time>2026-04-25T06:23:29.955Z</time></trkpt><trkpt lat="45.4032067" lon="10.9117617"><ele>65.0</ele><time>2026-04-25T06:23:30.954Z</time></trkpt><trkpt lat="45.403425" lon="10.91185"><ele>65.0</ele><time>2026-04-25T06:23:31.954Z</time></trkpt><trkpt lat="45.4036333" lon="10.9119333"><ele>65.0</ele><time>2026-04-25T06:23:32.954Z</time></trkpt><trkpt lat="45.40384" lon="10.9120233"><ele>65.0</ele><time>2026-04-25T06:23:33.955Z</time></trkpt><trkpt lat="45.4040417" lon="10.9121217"><ele>65.66666666666667</ele><time>2026-04-25T06:23:34.955Z</time></trkpt><trkpt lat="45.40424" lon="10.9122317"><ele>66.33333333333333</ele><time>2026-04-25T06:23:35.955Z</time></trkpt><trkpt lat="45.404435" lon="10.9123533"><ele>67.0</ele><time>2026-04-25T06:23:36.955Z</time></trkpt><trkpt lat="45.4046217" lon="10.91249"><ele>68.0</ele><time>2026-04-25T06:23:37.956Z</time></trkpt><trkpt lat="45.4047967" lon="10.9126467"><ele>69.0</ele><time>2026-04-25T06:23:38.955Z</time></trkpt><trkpt lat="45.40496" lon="10.9128333"><ele>70.0</ele><time>2026-04-25T06:23:39.955Z</time></trkpt><trkpt lat="45.4051167" lon="10.9130417"><ele>70.0</ele><time>2026-04-25T06:23:40.956Z</time></trkpt><trkpt lat="45.40527" lon="10.9132617"><ele>70.0</ele><time>2026-04-25T06:23:41.955Z</time></trkpt><trkpt lat="45.4054283" lon="10.9134867"><ele>70.0</ele><time>2026-04-25T06:23:42.955Z</time></trkpt><trkpt lat="45.4055883" lon="10.9137133"><ele>71.0</ele><time>2026-04-25T06:23:43.955Z</time></trkpt><trkpt lat="45.4057517" lon="10.91394"><ele>72.0</ele><time>2026-04-25T06:23:44.955Z</time></trkpt><trkpt lat="45.4059117" lon="10.9141683"><ele>72.0</ele><time>2026-04-25T06:23:45.959Z</time></trkpt><trkpt lat="45.40607" lon="10.91439"><ele>72.0</ele><time>2026-04-25T06:23:46.957Z</time></trkpt><trkpt lat="45.40622" lon="10.9146133"><ele>72.0</ele><time>2026-04-25T06:23:47.962Z</time></trkpt><trkpt lat="45.406355" lon="10.9148467"><ele>71.66666666666667</ele><time>2026-04-25T06:23:48.954Z</time></trkpt><trkpt lat="45.406465" lon="10.91509"><ele>71.33333333333334</ele><time>2026-04-25T06:23:49.956Z</time></trkpt><trkpt lat="45.4065467" lon="10.9153417"><ele>71.0</ele><time>2026-04-25T06:23:50.954Z</time></trkpt><trkpt lat="45.406615" lon="10.9155933"><ele>71.0</ele><time>2026-04-25T06:23:51.956Z</time></trkpt><trkpt lat="45.406665" lon="10.915855"><ele>71.0</ele><time>2026-04-25T06:23:52.956Z</time></trkpt><trkpt lat="45.406695" lon="10.91612"><ele>71.0</ele><time>2026-04-25T06:23:53.954Z</time></trkpt><trkpt lat="45.4066983" lon="10.9163883"><ele>70.33333333333334</ele><time>2026-04-25T06:23:54.955Z</time></trkpt><trkpt lat="45.40668" lon="10.9166533"><ele>69.66666666666667</ele><time>2026-04-25T06:23:55.956Z</time></trkpt><trkpt lat="45.40665" lon="10.9169217"><ele>69.0</ele><time>2026-04-25T06:23:56.955Z</time></trkpt><trkpt lat="45.40661" lon="10.9171917"><ele>69.0</ele><time>2026-04-25T06:23:57.956Z</time></trkpt><trkpt lat="45.4065567" lon="10.9174633"><ele>69.0</ele><time>2026-04-25T06:23:58.956Z</time></trkpt><trkpt lat="45.4064917" lon="10.917745"><ele>69.0</ele><time>2026-04-25T06:23:59.955Z</time></trkpt><trkpt lat="45.4064183" lon="10.9180317"><ele>69.0</ele><time>2026-04-25T06:24:00.955Z</time></trkpt><trkpt lat="45.406345" lon="10.9183267"><ele>69.0</ele><time>2026-04-25T06:24:01.956Z</time></trkpt><trkpt lat="45.40627" lon="10.91863"><ele>69.0</ele><time>2026-04-25T06:24:02.955Z</time></trkpt><trkpt lat="45.406195" lon="10.9189367"><ele>68.33333333333333</ele><time>2026-04-25T06:24:03.955Z</time></trkpt><trkpt lat="45.4061233" lon="10.9192417"><ele>67.66666666666666</ele><time>2026-04-25T06:24:04.956Z</time></trkpt><trkpt lat="45.4060533" lon="10.9195367"><ele>67.0</ele><time>2026-04-25T06:24:05.954Z</time></trkpt><trkpt lat="45.4059867" lon="10.919825"><ele>66.66666666666666</ele><time>2026-04-25T06:24:06.955Z</time></trkpt><trkpt lat="45.4059233" lon="10.9201083"><ele>66.33333333333333</ele><time>2026-04-25T06:24:07.955Z</time></trkpt><trkpt lat="45.4058583" lon="10.9204017"><ele>66.0</ele><time>2026-04-25T06:24:08.954Z</time></trkpt><trkpt lat="45.4057917" lon="10.92071"><ele>66.0</ele><time>2026-04-25T06:24:09.956Z</time></trkpt><trkpt lat="45.40572" lon="10.9210317"><ele>66.0</ele><time>2026-04-25T06:24:10.955Z</time></trkpt><trkpt lat="45.4056383" lon="10.9213617"><ele>66.0</ele><time>2026-04-25T06:24:11.956Z</time></trkpt><trkpt lat="45.40555" lon="10.9216983"><ele>66.0</ele><time>2026-04-25T06:24:12.955Z</time></trkpt><trkpt lat="45.4054567" lon="10.92204"><ele>66.5</ele><time>2026-04-25T06:24:13.956Z</time></trkpt><trkpt lat="45.4053633" lon="10.92238"><ele>67.0</ele><time>2026-04-25T06:24:14.955Z</time></trkpt><trkpt lat="45.4052683" lon="10.9227233"><ele>66.0</ele><time>2026-04-25T06:24:15.955Z</time></trkpt><trkpt lat="45.4051733" lon="10.9230683"><ele>65.0</ele><time>2026-04-25T06:24:16.956Z</time></trkpt><trkpt lat="45.4050767" lon="10.92342"><ele>64.5</ele><time>2026-04-25T06:24:17.956Z</time></trkpt><trkpt lat="45.4049783" lon="10.9237767"><ele>64.0</ele><time>2026-04-25T06:24:18.955Z</time></trkpt><trkpt lat="45.4048783" lon="10.9241367"><ele>64.0</ele><time>2026-04-25T06:24:19.955Z</time></trkpt><trkpt lat="45.4047767" lon="10.9245017"><ele>64.0</ele><time>2026-04-25T06:24:20.955Z</time></trkpt><trkpt lat="45.4046733" lon="10.9248683"><ele>65.5</ele><time>2026-04-25T06:24:21.956Z</time></trkpt><trkpt lat="45.4045733" lon="10.925235"><ele>67.0</ele><time>2026-04-25T06:24:22.957Z</time></trkpt><trkpt lat="45.4044767" lon="10.925605"><ele>67.5</ele><time>2026-04-25T06:24:23.957Z</time></trkpt><trkpt lat="45.40438" lon="10.9259767"><ele>68.0</ele><time>2026-04-25T06:24:24.956Z</time></trkpt><trkpt lat="45.4042833" lon="10.926355"><ele>67.0</ele><time>2026-04-25T06:24:25.957Z</time></trkpt><trkpt lat="45.4041933" lon="10.9267367"><ele>66.0</ele><time>2026-04-25T06:24:26.955Z</time></trkpt><trkpt lat="45.4041067" lon="10.927125"><ele>66.0</ele><time>2026-04-25T06:24:27.957Z</time></trkpt><trkpt lat="45.404025" lon="10.9275217"><ele>66.0</ele><time>2026-04-25T06:24:28.956Z</time></trkpt><trkpt lat="45.403945" lon="10.9279183"><ele>66.0</ele><time>2026-04-25T06:24:29.956Z</time></trkpt><trkpt lat="45.4038667" lon="10.92831"><ele>66.0</ele><time>2026-04-25T06:24:30.955Z</time></trkpt><trkpt lat="45.40379" lon="10.9286967"><ele>65.0</ele><time>2026-04-25T06:24:31.957Z</time></trkpt><trkpt lat="45.4037133" lon="10.92908"><ele>64.0</ele><time>2026-04-25T06:24:32.955Z</time></trkpt><trkpt lat="45.4036367" lon="10.9294617"><ele>66.5</ele><time>2026-04-25T06:24:33.956Z</time></trkpt><trkpt lat="45.4035583" lon="10.92984"><ele>69.0</ele><time>2026-04-25T06:24:34.956Z</time></trkpt><trkpt lat="45.4034817" lon="10.93022"><ele>69.0</ele><time>2026-04-25T06:24:35.957Z</time></trkpt><trkpt lat="45.403405" lon="10.9306017"><ele>69.0</ele><time>2026-04-25T06:24:36.956Z</time></trkpt><trkpt lat="45.4033267" lon="10.930985"><ele>68.5</ele><time>2026-04-25T06:24:37.957Z</time></trkpt><trkpt lat="45.4032483" lon="10.93137"><ele>68.0</ele><time>2026-04-25T06:24:38.956Z</time></trkpt><trkpt lat="45.40317" lon="10.9317567"><ele>66.5</ele><time>2026-04-25T06:24:39.956Z</time></trkpt><trkpt lat="45.4030917" lon="10.93215"><ele>65.0</ele><time>2026-04-25T06:24:40.957Z</time></trkpt><trkpt lat="45.403015" lon="10.9325433"><ele>64.5</ele><time>2026-04-25T06:24:41.956Z</time></trkpt><trkpt lat="45.4029367" lon="10.9329367"><ele>64.0</ele><time>2026-04-25T06:24:42.956Z</time></trkpt><trkpt lat="45.4028567" lon="10.9333317"><ele>64.0</ele><time>2026-04-25T06:24:43.957Z</time></trkpt><trkpt lat="45.402775" lon="10.9337283"><ele>64.0</ele><time>2026-04-25T06:24:44.956Z</time></trkpt><trkpt lat="45.402695" lon="10.9341267"><ele>64.0</ele><time>2026-04-25T06:24:45.956Z</time></trkpt><trkpt lat="45.402615" lon="10.9345283"><ele>64.0</ele><time>2026-04-25T06:24:46.956Z</time></trkpt><trkpt lat="45.4025317" lon="10.9349317"><ele>64.5</ele><time>2026-04-25T06:24:47.955Z</time></trkpt><trkpt lat="45.4024483" lon="10.9353383"><ele>65.0</ele><time>2026-04-25T06:24:48.956Z</time></trkpt><trkpt lat="45.4023667" lon="10.9357467"><ele>64.5</ele><time>2026-04-25T06:24:49.955Z</time></trkpt><trkpt lat="45.4022833" lon="10.936155"><ele>64.0</ele><time>2026-04-25T06:24:50.955Z</time></trkpt><trkpt lat="45.4022017" lon="10.9365617"><ele>62.5</ele><time>2026-04-25T06:24:51.957Z</time></trkpt><trkpt lat="45.40212" lon="10.93697"><ele>61.0</ele><time>2026-04-25T06:24:52.956Z</time></trkpt><trkpt lat="45.40204" lon="10.93738"><ele>61.5</ele><time>2026-04-25T06:24:53.956Z</time></trkpt><trkpt lat="45.4019583" lon="10.937785"><ele>62.0</ele><time>2026-04-25T06:24:54.956Z</time></trkpt><trkpt lat="45.4018783" lon="10.93819"><ele>61.5</ele><time>2026-04-25T06:24:55.955Z</time></trkpt><trkpt lat="45.4017967" lon="10.9385933"><ele>61.0</ele><time>2026-04-25T06:24:56.956Z</time></trkpt><trkpt lat="45.401715" lon="10.9389967"><ele>60.0</ele><time>2026-04-25T06:24:57.955Z</time></trkpt><trkpt lat="45.4016333" lon="10.939395"><ele>59.0</ele><time>2026-04-25T06:24:58.955Z</time></trkpt><trkpt lat="45.4015533" lon="10.9397917"><ele>60.0</ele><time>2026-04-25T06:24:59.956Z</time></trkpt><trkpt lat="45.401475" lon="10.940185"><ele>61.0</ele><time>2026-04-25T06:25:00.956Z</time></trkpt><trkpt lat="45.4013967" lon="10.940575"><ele>60.0</ele><time>2026-04-25T06:25:01.957Z</time></trkpt><trkpt lat="45.40132" lon="10.9409617"><ele>59.0</ele><time>2026-04-25T06:25:02.955Z</time></trkpt><trkpt lat="45.4012417" lon="10.94135"><ele>60.0</ele><time>2026-04-25T06:25:03.955Z</time></trkpt><trkpt lat="45.4011633" lon="10.941735"><ele>61.0</ele><time>2026-04-25T06:25:04.956Z</time></trkpt><trkpt lat="45.401085" lon="10.9421217"><ele>61.0</ele><time>2026-04-25T06:25:05.955Z</time></trkpt><trkpt lat="45.4010067" lon="10.942505"><ele>61.0</ele><time>2026-04-25T06:25:06.955Z</time></trkpt><trkpt lat="45.4009283" lon="10.9428883"><ele>60.5</ele><time>2026-04-25T06:25:07.955Z</time></trkpt><trkpt lat="45.40085" lon="10.9432717"><ele>60.0</ele><time>2026-04-25T06:25:08.955Z</time></trkpt><trkpt lat="45.40077" lon="10.9436583"><ele>60.0</ele><time>2026-04-25T06:25:09.956Z</time></trkpt><trkpt lat="45.4006917" lon="10.9440517"><ele>60.0</ele><time>2026-04-25T06:25:10.956Z</time></trkpt><trkpt lat="45.4006117" lon="10.944445"><ele>60.0</ele><time>2026-04-25T06:25:11.956Z</time></trkpt><trkpt lat="45.4005333" lon="10.94484"><ele>60.0</ele><time>2026-04-25T06:25:12.955Z</time></trkpt><trkpt lat="45.4004517" lon="10.9452317"><ele>60.0</ele><time>2026-04-25T06:25:13.955Z</time></trkpt><trkpt lat="45.4003717" lon="10.9456233"><ele>60.0</ele><time>2026-04-25T06:25:14.955Z</time></trkpt><trkpt lat="45.4002917" lon="10.946015"><ele>60.5</ele><time>2026-04-25T06:25:15.956Z</time></trkpt><trkpt lat="45.400215" lon="10.9464083"><ele>61.0</ele><time>2026-04-25T06:25:16.955Z</time></trkpt><trkpt lat="45.4001367" lon="10.9468083"><ele>60.0</ele><time>2026-04-25T06:25:17.955Z</time></trkpt><trkpt lat="45.4000533" lon="10.947215"><ele>59.0</ele><time>2026-04-25T06:25:18.954Z</time></trkpt><trkpt lat="45.3999667" lon="10.9476183"><ele>59.0</ele><time>2026-04-25T06:25:19.956Z</time></trkpt><trkpt lat="45.3998833" lon="10.9480167"><ele>59.0</ele><time>2026-04-25T06:25:20.955Z</time></trkpt><trkpt lat="45.3998017" lon="10.948415"><ele>59.0</ele><time>2026-04-25T06:25:21.956Z</time></trkpt><trkpt lat="45.3997217" lon="10.9488133"><ele>59.0</ele><time>2026-04-25T06:25:22.955Z</time></trkpt><trkpt lat="45.3996433" lon="10.9492033"><ele>58.0</ele><time>2026-04-25T06:25:23.956Z</time></trkpt><trkpt lat="45.399565" lon="10.94959"><ele>57.0</ele><time>2026-04-25T06:25:24.956Z</time></trkpt><trkpt lat="45.3994883" lon="10.9499733"><ele>58.5</ele><time>2026-04-25T06:25:25.956Z</time></trkpt><trkpt lat="45.3994117" lon="10.95035"><ele>60.0</ele><time>2026-04-25T06:25:26.955Z</time></trkpt><trkpt lat="45.399335" lon="10.9507283"><ele>60.5</ele><time>2026-04-25T06:25:27.956Z</time></trkpt><trkpt lat="45.39926" lon="10.951105"><ele>61.0</ele><time>2026-04-25T06:25:28.956Z</time></trkpt><trkpt lat="45.3991833" lon="10.9514833"><ele>61.0</ele><time>2026-04-25T06:25:29.955Z</time></trkpt><trkpt lat="45.3991083" lon="10.9518617"><ele>61.0</ele><time>2026-04-25T06:25:30.955Z</time></trkpt><trkpt lat="45.3990317" lon="10.9522433"><ele>60.5</ele><time>2026-04-25T06:25:31.955Z</time></trkpt><trkpt lat="45.3989533" lon="10.9526233"><ele>60.0</ele><time>2026-04-25T06:25:32.955Z</time></trkpt><trkpt lat="45.3988733" lon="10.9530067"><ele>59.5</ele><time>2026-04-25T06:25:33.959Z</time></trkpt><trkpt lat="45.398795" lon="10.9533917"><ele>59.0</ele><time>2026-04-25T06:25:34.956Z</time></trkpt><trkpt lat="45.39872" lon="10.95378"><ele>59.0</ele><time>2026-04-25T06:25:35.955Z</time></trkpt><trkpt lat="45.3986433" lon="10.9541683"><ele>59.0</ele><time>2026-04-25T06:25:36.955Z</time></trkpt><trkpt lat="45.398565" lon="10.9545567"><ele>60.5</ele><time>2026-04-25T06:25:37.955Z</time></trkpt><trkpt lat="45.3984867" lon="10.9549467"><ele>62.0</ele><time>2026-04-25T06:25:38.956Z</time></trkpt><trkpt lat="45.39841" lon="10.955335"><ele>62.0</ele><time>2026-04-25T06:25:39.955Z</time></trkpt><trkpt lat="45.3983383" lon="10.9557217"><ele>62.0</ele><time>2026-04-25T06:25:40.956Z</time></trkpt><trkpt lat="45.3982717" lon="10.9561167"><ele>61.0</ele><time>2026-04-25T06:25:41.956Z</time></trkpt><trkpt lat="45.3982133" lon="10.9565133"><ele>60.0</ele><time>2026-04-25T06:25:42.956Z</time></trkpt><trkpt lat="45.3981583" lon="10.95691"><ele>60.0</ele><time>2026-04-25T06:25:43.956Z</time></trkpt><trkpt lat="45.3981083" lon="10.9573117"><ele>60.0</ele><time>2026-04-25T06:25:44.955Z</time></trkpt><trkpt lat="45.3980617" lon="10.95772"><ele>60.0</ele><time>2026-04-25T06:25:45.955Z</time></trkpt><trkpt lat="45.39802" lon="10.9581267"><ele>60.0</ele><time>2026-04-25T06:25:46.956Z</time></trkpt><trkpt lat="45.3979767" lon="10.958535"><ele>59.5</ele><time>2026-04-25T06:25:47.955Z</time></trkpt><trkpt lat="45.3979317" lon="10.9589367"><ele>59.0</ele><time>2026-04-25T06:25:48.955Z</time></trkpt><trkpt lat="45.3978867" lon="10.9593383"><ele>59.0</ele><time>2026-04-25T06:25:49.955Z</time></trkpt><trkpt lat="45.39784" lon="10.95974"><ele>59.0</ele><time>2026-04-25T06:25:50.955Z</time></trkpt><trkpt lat="45.3977917" lon="10.96014"><ele>59.5</ele><time>2026-04-25T06:25:51.955Z</time></trkpt><trkpt lat="45.3977467" lon="10.9605383"><ele>60.0</ele><time>2026-04-25T06:25:52.956Z</time></trkpt><trkpt lat="45.3977083" lon="10.960935"><ele>60.0</ele><time>2026-04-25T06:25:53.955Z</time></trkpt><trkpt lat="45.39767" lon="10.9613333"><ele>60.0</ele><time>2026-04-25T06:25:54.957Z</time></trkpt><trkpt lat="45.397635" lon="10.96173"><ele>59.0</ele><time>2026-04-25T06:25:55.955Z</time></trkpt><trkpt lat="45.3976067" lon="10.962125"><ele>58.0</ele><time>2026-04-25T06:25:56.955Z</time></trkpt><trkpt lat="45.3975817" lon="10.9625183"><ele>58.0</ele><time>2026-04-25T06:25:57.955Z</time></trkpt><trkpt lat="45.39756" lon="10.9629133"><ele>58.0</ele><time>2026-04-25T06:25:58.956Z</time></trkpt><trkpt lat="45.3975417" lon="10.9633067"><ele>58.0</ele><time>2026-04-25T06:25:59.955Z</time></trkpt><trkpt lat="45.3975233" lon="10.9637"><ele>58.0</ele><time>2026-04-25T06:26:00.955Z</time></trkpt><trkpt lat="45.3975083" lon="10.9640983"><ele>58.0</ele><time>2026-04-25T06:26:01.955Z</time></trkpt><trkpt lat="45.3974933" lon="10.964495"><ele>58.0</ele><time>2026-04-25T06:26:02.955Z</time></trkpt><trkpt lat="45.397475" lon="10.9648917"><ele>57.5</ele><time>2026-04-25T06:26:03.956Z</time></trkpt><trkpt lat="45.397455" lon="10.9652917"><ele>57.0</ele><time>2026-04-25T06:26:04.956Z</time></trkpt><trkpt lat="45.397435" lon="10.9656933"><ele>56.5</ele><time>2026-04-25T06:26:05.956Z</time></trkpt><trkpt lat="45.3974167" lon="10.9660983"><ele>56.0</ele><time>2026-04-25T06:26:06.955Z</time></trkpt><trkpt lat="45.3974017" lon="10.966505"><ele>57.0</ele><time>2026-04-25T06:26:07.954Z</time></trkpt><trkpt lat="45.3973883" lon="10.9669133"><ele>58.0</ele><time>2026-04-25T06:26:08.954Z</time></trkpt><trkpt lat="45.397375" lon="10.9673233"><ele>55.5</ele><time>2026-04-25T06:26:09.955Z</time></trkpt><trkpt lat="45.3973633" lon="10.967735"><ele>53.0</ele><time>2026-04-25T06:26:10.955Z</time></trkpt><trkpt lat="45.3973433" lon="10.968145"><ele>53.5</ele><time>2026-04-25T06:26:11.954Z</time></trkpt><trkpt lat="45.3973233" lon="10.9685533"><ele>54.0</ele><time>2026-04-25T06:26:12.954Z</time></trkpt><trkpt lat="45.3973017" lon="10.968965"><ele>55.5</ele><time>2026-04-25T06:26:13.955Z</time></trkpt><trkpt lat="45.397285" lon="10.9693833"><ele>57.0</ele><time>2026-04-25T06:26:14.956Z</time></trkpt><trkpt lat="45.3972683" lon="10.9698017"><ele>57.5</ele><time>2026-04-25T06:26:15.955Z</time></trkpt><trkpt lat="45.3972517" lon="10.9702217"><ele>58.0</ele><time>2026-04-25T06:26:16.956Z</time></trkpt><trkpt lat="45.3972333" lon="10.97064"><ele>56.5</ele><time>2026-04-25T06:26:17.955Z</time></trkpt><trkpt lat="45.3972167" lon="10.9710583"><ele>55.0</ele><time>2026-04-25T06:26:18.955Z</time></trkpt><trkpt lat="45.3971983" lon="10.9714817"><ele>55.0</ele><time>2026-04-25T06:26:19.954Z</time></trkpt><trkpt lat="45.3971817" lon="10.9719"><ele>55.0</ele><time>2026-04-25T06:26:20.955Z</time></trkpt><trkpt lat="45.3971633" lon="10.9723083"><ele>55.0</ele><time>2026-04-25T06:26:21.955Z</time></trkpt><trkpt lat="45.397145" lon="10.9727167"><ele>55.0</ele><time>2026-04-25T06:26:22.955Z</time></trkpt><trkpt lat="45.3971267" lon="10.973125"><ele>55.5</ele><time>2026-04-25T06:26:23.955Z</time></trkpt><trkpt lat="45.3971133" lon="10.9735283"><ele>56.0</ele><time>2026-04-25T06:26:24.956Z</time></trkpt><trkpt lat="45.3970983" lon="10.97393"><ele>56.0</ele><time>2026-04-25T06:26:25.955Z</time></trkpt><trkpt lat="45.39708" lon="10.9743367"><ele>56.0</ele><time>2026-04-25T06:26:26.955Z</time></trkpt><trkpt lat="45.3970617" lon="10.9747417"><ele>55.5</ele><time>2026-04-25T06:26:27.955Z</time></trkpt><trkpt lat="45.3970433" lon="10.97515"><ele>55.0</ele><time>2026-04-25T06:26:28.958Z</time></trkpt><trkpt lat="45.397025" lon="10.9755583"><ele>55.0</ele><time>2026-04-25T06:26:29.955Z</time></trkpt><trkpt lat="45.3970083" lon="10.9759667"><ele>55.0</ele><time>2026-04-25T06:26:30.956Z</time></trkpt><trkpt lat="45.3969917" lon="10.9763783"><ele>53.0</ele><time>2026-04-25T06:26:31.954Z</time></trkpt><trkpt lat="45.3969767" lon="10.9767917"><ele>51.0</ele><time>2026-04-25T06:26:32.956Z</time></trkpt><trkpt lat="45.3969567" lon="10.9772017"><ele>51.0</ele><time>2026-04-25T06:26:33.954Z</time></trkpt><trkpt lat="45.3969417" lon="10.9776117"><ele>51.0</ele><time>2026-04-25T06:26:34.956Z</time></trkpt><trkpt lat="45.3969233" lon="10.9780233"><ele>51.5</ele><time>2026-04-25T06:26:35.955Z</time></trkpt><trkpt lat="45.3969067" lon="10.9784367"><ele>52.0</ele><time>2026-04-25T06:26:36.955Z</time></trkpt><trkpt lat="45.3968933" lon="10.97885"><ele>51.0</ele><time>2026-04-25T06:26:37.954Z</time></trkpt><trkpt lat="45.396885" lon="10.979265"><ele>50.0</ele><time>2026-04-25T06:26:38.956Z</time></trkpt><trkpt lat="45.3968833" lon="10.9796867"><ele>49.0</ele><time>2026-04-25T06:26:39.955Z</time></trkpt><trkpt lat="45.396885" lon="10.9801117"><ele>48.0</ele><time>2026-04-25T06:26:40.956Z</time></trkpt><trkpt lat="45.39689" lon="10.9805333"><ele>49.0</ele><time>2026-04-25T06:26:41.955Z</time></trkpt><trkpt lat="45.3969033" lon="10.9809583"><ele>50.0</ele><time>2026-04-25T06:26:42.956Z</time></trkpt><trkpt lat="45.3969183" lon="10.9813867"><ele>50.0</ele><time>2026-04-25T06:26:43.955Z</time></trkpt><trkpt lat="45.3969367" lon="10.9818167"><ele>50.0</ele><time>2026-04-25T06:26:44.955Z</time></trkpt><trkpt lat="45.3969583" lon="10.9822417"><ele>51.0</ele><time>2026-04-25T06:26:45.956Z</time></trkpt><trkpt lat="45.3969817" lon="10.9826683"><ele>52.0</ele><time>2026-04-25T06:26:46.956Z</time></trkpt><trkpt lat="45.39701" lon="10.983095"><ele>54.0</ele><time>2026-04-25T06:26:47.955Z</time></trkpt><trkpt lat="45.3970433" lon="10.9835183"><ele>56.0</ele><time>2026-04-25T06:26:48.956Z</time></trkpt><trkpt lat="45.3970817" lon="10.9839417"><ele>55.0</ele><time>2026-04-25T06:26:49.955Z</time></trkpt><trkpt lat="45.3971217" lon="10.9843633"><ele>54.0</ele><time>2026-04-25T06:26:50.954Z</time></trkpt><trkpt lat="45.3971667" lon="10.98478"><ele>55.5</ele><time>2026-04-25T06:26:51.955Z</time></trkpt><trkpt lat="45.397215" lon="10.98519"><ele>57.0</ele><time>2026-04-25T06:26:52.956Z</time></trkpt><trkpt lat="45.3972633" lon="10.9855967"><ele>57.5</ele><time>2026-04-25T06:26:53.954Z</time></trkpt><trkpt lat="45.3973167" lon="10.9860033"><ele>58.0</ele><time>2026-04-25T06:26:54.956Z</time></trkpt><trkpt lat="45.3973767" lon="10.9864117"><ele>57.5</ele><time>2026-04-25T06:26:55.955Z</time></trkpt><trkpt lat="45.3974367" lon="10.98682"><ele>57.0</ele><time>2026-04-25T06:26:56.955Z</time></trkpt><trkpt lat="45.3974983" lon="10.9872267"><ele>56.5</ele><time>2026-04-25T06:26:57.955Z</time></trkpt><trkpt lat="45.3975617" lon="10.987635"><ele>56.0</ele><time>2026-04-25T06:26:58.957Z</time></trkpt><trkpt lat="45.397625" lon="10.9880383"><ele>55.0</ele><time>2026-04-25T06:26:59.955Z</time></trkpt><trkpt lat="45.397685" lon="10.9884383"><ele>54.0</ele><time>2026-04-25T06:27:00.955Z</time></trkpt><trkpt lat="45.397745" lon="10.988835"><ele>53.0</ele><time>2026-04-25T06:27:01.955Z</time></trkpt><trkpt lat="45.3978033" lon="10.9892317"><ele>52.0</ele><time>2026-04-25T06:27:02.955Z</time></trkpt><trkpt lat="45.39786" lon="10.98963"><ele>51.5</ele><time>2026-04-25T06:27:03.954Z</time></trkpt><trkpt lat="45.39792" lon="10.9900317"><ele>51.0</ele><time>2026-04-25T06:27:04.956Z</time></trkpt><trkpt lat="45.39798" lon="10.990435"><ele>53.0</ele><time>2026-04-25T06:27:05.954Z</time></trkpt><trkpt lat="45.3980367" lon="10.9908383"><ele>55.0</ele><time>2026-04-25T06:27:06.955Z</time></trkpt><trkpt lat="45.3980883" lon="10.9912417"><ele>55.0</ele><time>2026-04-25T06:27:07.955Z</time></trkpt><trkpt lat="45.398135" lon="10.991645"><ele>55.0</ele><time>2026-04-25T06:27:08.955Z</time></trkpt><trkpt lat="45.398175" lon="10.99205"><ele>55.0</ele><time>2026-04-25T06:27:09.956Z</time></trkpt><trkpt lat="45.39821" lon="10.99245"><ele>55.0</ele><time>2026-04-25T06:27:10.956Z</time></trkpt><trkpt lat="45.3982417" lon="10.9928467"><ele>55.0</ele><time>2026-04-25T06:27:11.955Z</time></trkpt><trkpt lat="45.398275" lon="10.99324"><ele>55.0</ele><time>2026-04-25T06:27:12.956Z</time></trkpt><trkpt lat="45.3983167" lon="10.9936317"><ele>55.0</ele><time>2026-04-25T06:27:13.954Z</time></trkpt><trkpt lat="45.3983567" lon="10.9940267"><ele>55.0</ele><time>2026-04-25T06:27:14.956Z</time></trkpt><trkpt lat="45.3984017" lon="10.994425"><ele>55.0</ele><time>2026-04-25T06:27:15.955Z</time></trkpt><trkpt lat="45.3984467" lon="10.99483"><ele>55.0</ele><time>2026-04-25T06:27:16.957Z</time></trkpt><trkpt lat="45.3984933" lon="10.9952383"><ele>55.0</ele><time>2026-04-25T06:27:17.954Z</time></trkpt><trkpt lat="45.3985383" lon="10.99565"><ele>55.0</ele><time>2026-04-25T06:27:18.955Z</time></trkpt><trkpt lat="45.3985817" lon="10.9960583"><ele>55.0</ele><time>2026-04-25T06:27:19.954Z</time></trkpt><trkpt lat="45.39862" lon="10.99647"><ele>55.0</ele><time>2026-04-25T06:27:20.956Z</time></trkpt><trkpt lat="45.3986533" lon="10.9968817"><ele>53.5</ele><time>2026-04-25T06:27:21.956Z</time></trkpt><trkpt lat="45.3986833" lon="10.9972933"><ele>52.0</ele><time>2026-04-25T06:27:22.956Z</time></trkpt><trkpt lat="45.39871" lon="10.9977067"><ele>50.5</ele><time>2026-04-25T06:27:23.956Z</time></trkpt><trkpt lat="45.3987367" lon="10.99812"><ele>49.0</ele><time>2026-04-25T06:27:24.956Z</time></trkpt><trkpt lat="45.3987633" lon="10.99853"><ele>49.0</ele><time>2026-04-25T06:27:25.956Z</time></trkpt><trkpt lat="45.39879" lon="10.99894"><ele>49.0</ele><time>2026-04-25T06:27:26.958Z</time></trkpt><trkpt lat="45.3988183" lon="10.9993517"><ele>49.0</ele><time>2026-04-25T06:27:27.956Z</time></trkpt><trkpt lat="45.3988483" lon="10.9997617"><ele>49.0</ele><time>2026-04-25T06:27:28.957Z</time></trkpt><trkpt lat="45.3988767" lon="11.00017"><ele>49.0</ele><time>2026-04-25T06:27:29.957Z</time></trkpt><trkpt lat="45.3989083" lon="11.0005817"><ele>49.0</ele><time>2026-04-25T06:27:30.956Z</time></trkpt><trkpt lat="45.3989433" lon="11.0009967"><ele>48.0</ele><time>2026-04-25T06:27:31.956Z</time></trkpt><trkpt lat="45.3989817" lon="11.0014117"><ele>47.0</ele><time>2026-04-25T06:27:32.954Z</time></trkpt><trkpt lat="45.3990233" lon="11.0018283"><ele>49.0</ele><time>2026-04-25T06:27:33.955Z</time></trkpt><trkpt lat="45.3990667" lon="11.002245"><ele>51.0</ele><time>2026-04-25T06:27:34.957Z</time></trkpt><trkpt lat="45.3991083" lon="11.00266"><ele>51.0</ele><time>2026-04-25T06:27:35.956Z</time></trkpt><trkpt lat="45.3991483" lon="11.003075"><ele>51.0</ele><time>2026-04-25T06:27:36.955Z</time></trkpt><trkpt lat="45.3991883" lon="11.0034833"><ele>51.0</ele><time>2026-04-25T06:27:37.955Z</time></trkpt><trkpt lat="45.39923" lon="11.0038933"><ele>51.0</ele><time>2026-04-25T06:27:38.955Z</time></trkpt><trkpt lat="45.3992733" lon="11.0042983"><ele>51.0</ele><time>2026-04-25T06:27:39.957Z</time></trkpt><trkpt lat="45.399315" lon="11.004705"><ele>51.0</ele><time>2026-04-25T06:27:40.956Z</time></trkpt><trkpt lat="45.3993583" lon="11.0051083"><ele>51.0</ele><time>2026-04-25T06:27:41.956Z</time></trkpt><trkpt lat="45.3994017" lon="11.0055067"><ele>51.0</ele><time>2026-04-25T06:27:42.955Z</time></trkpt><trkpt lat="45.3994417" lon="11.0059033"><ele>50.0</ele><time>2026-04-25T06:27:43.955Z</time></trkpt><trkpt lat="45.3994817" lon="11.0062933"><ele>49.0</ele><time>2026-04-25T06:27:44.955Z</time></trkpt><trkpt lat="45.3995183" lon="11.00668"><ele>49.0</ele><time>2026-04-25T06:27:45.956Z</time></trkpt><trkpt lat="45.399555" lon="11.0070667"><ele>49.0</ele><time>2026-04-25T06:27:46.955Z</time></trkpt><trkpt lat="45.3995917" lon="11.00745"><ele>49.5</ele><time>2026-04-25T06:27:47.955Z</time></trkpt><trkpt lat="45.3996283" lon="11.0078317"><ele>50.0</ele><time>2026-04-25T06:27:48.956Z</time></trkpt><trkpt lat="45.3996683" lon="11.008215"><ele>51.0</ele><time>2026-04-25T06:27:49.955Z</time></trkpt><trkpt lat="45.3997083" lon="11.0086"><ele>52.0</ele><time>2026-04-25T06:27:50.955Z</time></trkpt><trkpt lat="45.399745" lon="11.00898"><ele>52.0</ele><time>2026-04-25T06:27:51.956Z</time></trkpt><trkpt lat="45.3997783" lon="11.009355"><ele>52.0</ele><time>2026-04-25T06:27:52.956Z</time></trkpt><trkpt lat="45.399815" lon="11.0097367"><ele>52.5</ele><time>2026-04-25T06:27:53.955Z</time></trkpt><trkpt lat="45.399855" lon="11.0101183"><ele>53.0</ele><time>2026-04-25T06:27:54.955Z</time></trkpt><trkpt lat="45.3998933" lon="11.010505"><ele>53.0</ele><time>2026-04-25T06:27:55.955Z</time></trkpt><trkpt lat="45.3999333" lon="11.0108983"><ele>53.0</ele><time>2026-04-25T06:27:56.955Z</time></trkpt><trkpt lat="45.399975" lon="11.0113017"><ele>51.5</ele><time>2026-04-25T06:27:57.955Z</time></trkpt><trkpt lat="45.400015" lon="11.0117067"><ele>50.0</ele><time>2026-04-25T06:27:58.957Z</time></trkpt><trkpt lat="45.4000567" lon="11.0121167"><ele>48.5</ele><time>2026-04-25T06:27:59.955Z</time></trkpt><trkpt lat="45.4000983" lon="11.01253"><ele>47.0</ele><time>2026-04-25T06:28:00.954Z</time></trkpt><trkpt lat="45.40014" lon="11.0129417"><ele>47.5</ele><time>2026-04-25T06:28:01.955Z</time></trkpt><trkpt lat="45.40018" lon="11.013355"><ele>48.0</ele><time>2026-04-25T06:28:02.956Z</time></trkpt><trkpt lat="45.40022" lon="11.0137667"><ele>48.5</ele><time>2026-04-25T06:28:03.954Z</time></trkpt><trkpt lat="45.4002617" lon="11.01418"><ele>49.0</ele><time>2026-04-25T06:28:04.955Z</time></trkpt><trkpt lat="45.4003017" lon="11.0145917"><ele>49.5</ele><time>2026-04-25T06:28:05.956Z</time></trkpt><trkpt lat="45.400345" lon="11.0150067"><ele>50.0</ele><time>2026-04-25T06:28:06.955Z</time></trkpt><trkpt lat="45.4003833" lon="11.01542"><ele>52.0</ele><time>2026-04-25T06:28:07.955Z</time></trkpt><trkpt lat="45.4004217" lon="11.0158317"><ele>54.0</ele><time>2026-04-25T06:28:08.957Z</time></trkpt><trkpt lat="45.40046" lon="11.0162433"><ele>53.5</ele><time>2026-04-25T06:28:09.954Z</time></trkpt><trkpt lat="45.4005017" lon="11.016655"><ele>53.0</ele><time>2026-04-25T06:28:10.956Z</time></trkpt><trkpt lat="45.4005417" lon="11.0170667"><ele>53.0</ele><time>2026-04-25T06:28:11.955Z</time></trkpt><trkpt lat="45.4005833" lon="11.0174783"><ele>53.0</ele><time>2026-04-25T06:28:12.954Z</time></trkpt><trkpt lat="45.4006267" lon="11.01789"><ele>54.5</ele><time>2026-04-25T06:28:13.955Z</time></trkpt><trkpt lat="45.40067" lon="11.0182933"><ele>56.0</ele><time>2026-04-25T06:28:14.956Z</time></trkpt><trkpt lat="45.40071" lon="11.01869"><ele>56.0</ele><time>2026-04-25T06:28:15.956Z</time></trkpt><trkpt lat="45.4007533" lon="11.0190883"><ele>56.0</ele><time>2026-04-25T06:28:16.956Z</time></trkpt><trkpt lat="45.4007933" lon="11.0194833"><ele>55.0</ele><time>2026-04-25T06:28:17.954Z</time></trkpt><trkpt lat="45.400835" lon="11.0198817"><ele>54.0</ele><time>2026-04-25T06:28:18.956Z</time></trkpt><trkpt lat="45.4008733" lon="11.02028"><ele>53.5</ele><time>2026-04-25T06:28:19.956Z</time></trkpt><trkpt lat="45.4009117" lon="11.02068"><ele>53.0</ele><time>2026-04-25T06:28:20.955Z</time></trkpt><trkpt lat="45.4009467" lon="11.021075"><ele>52.0</ele><time>2026-04-25T06:28:21.956Z</time></trkpt><trkpt lat="45.4009817" lon="11.02147"><ele>51.0</ele><time>2026-04-25T06:28:22.957Z</time></trkpt><trkpt lat="45.4010167" lon="11.0218683"><ele>51.0</ele><time>2026-04-25T06:28:23.956Z</time></trkpt><trkpt lat="45.40105" lon="11.022265"><ele>51.0</ele><time>2026-04-25T06:28:24.956Z</time></trkpt><trkpt lat="45.4010867" lon="11.0226617"><ele>51.5</ele><time>2026-04-25T06:28:25.957Z</time></trkpt><trkpt lat="45.40112" lon="11.0230583"><ele>52.0</ele><time>2026-04-25T06:28:26.956Z</time></trkpt><trkpt lat="45.4011567" lon="11.0234533"><ele>52.5</ele><time>2026-04-25T06:28:27.956Z</time></trkpt><trkpt lat="45.4011983" lon="11.0238483"><ele>53.0</ele><time>2026-04-25T06:28:28.956Z</time></trkpt><trkpt lat="45.4012433" lon="11.0242417"><ele>53.5</ele><time>2026-04-25T06:28:29.956Z</time></trkpt><trkpt lat="45.401295" lon="11.0246367"><ele>54.0</ele><time>2026-04-25T06:28:30.956Z</time></trkpt><trkpt lat="45.40135" lon="11.0250333"><ele>52.5</ele><time>2026-04-25T06:28:31.957Z</time></trkpt><trkpt lat="45.401405" lon="11.02543"><ele>51.0</ele><time>2026-04-25T06:28:32.956Z</time></trkpt><trkpt lat="45.4014583" lon="11.0258283"><ele>51.0</ele><time>2026-04-25T06:28:33.956Z</time></trkpt><trkpt lat="45.4015083" lon="11.0262267"><ele>51.0</ele><time>2026-04-25T06:28:34.956Z</time></trkpt><trkpt lat="45.4015583" lon="11.026625"><ele>51.5</ele><time>2026-04-25T06:28:35.955Z</time></trkpt><trkpt lat="45.4016067" lon="11.0270267"><ele>52.0</ele><time>2026-04-25T06:28:36.955Z</time></trkpt><trkpt lat="45.4016533" lon="11.02743"><ele>51.0</ele><time>2026-04-25T06:28:37.956Z</time></trkpt><trkpt lat="45.4016983" lon="11.0278367"><ele>50.0</ele><time>2026-04-25T06:28:38.955Z</time></trkpt><trkpt lat="45.4017383" lon="11.02824"><ele>49.5</ele><time>2026-04-25T06:28:39.954Z</time></trkpt><trkpt lat="45.40178" lon="11.0286417"><ele>49.0</ele><time>2026-04-25T06:28:40.956Z</time></trkpt><trkpt lat="45.4018183" lon="11.0290417"><ele>47.5</ele><time>2026-04-25T06:28:41.956Z</time></trkpt><trkpt lat="45.4018583" lon="11.029445"><ele>46.0</ele><time>2026-04-25T06:28:42.955Z</time></trkpt><trkpt lat="45.4018983" lon="11.02985"><ele>45.5</ele><time>2026-04-25T06:28:43.956Z</time></trkpt><trkpt lat="45.40194" lon="11.0302517"><ele>45.0</ele><time>2026-04-25T06:28:44.955Z</time></trkpt><trkpt lat="45.40198" lon="11.0306517"><ele>44.0</ele><time>2026-04-25T06:28:45.956Z</time></trkpt><trkpt lat="45.40202" lon="11.0310483"><ele>43.0</ele><time>2026-04-25T06:28:46.955Z</time></trkpt><trkpt lat="45.4020567" lon="11.03144"><ele>40.0</ele><time>2026-04-25T06:28:47.955Z</time></trkpt><trkpt lat="45.4020933" lon="11.0318317"><ele>37.0</ele><time>2026-04-25T06:28:48.955Z</time></trkpt><trkpt lat="45.4021317" lon="11.0322233"><ele>39.0</ele><time>2026-04-25T06:28:49.956Z</time></trkpt><trkpt lat="45.40217" lon="11.0326117"><ele>41.0</ele><time>2026-04-25T06:28:50.955Z</time></trkpt><trkpt lat="45.4022083" lon="11.0329983"><ele>41.5</ele><time>2026-04-25T06:28:51.955Z</time></trkpt><trkpt lat="45.4022467" lon="11.0333833"><ele>42.0</ele><time>2026-04-25T06:28:52.956Z</time></trkpt><trkpt lat="45.4022833" lon="11.0337683"><ele>41.5</ele><time>2026-04-25T06:28:53.955Z</time></trkpt><trkpt lat="45.4023217" lon="11.0341533"><ele>41.0</ele><time>2026-04-25T06:28:54.956Z</time></trkpt><trkpt lat="45.4023567" lon="11.0345433"><ele>41.0</ele><time>2026-04-25T06:28:55.958Z</time></trkpt><trkpt lat="45.4023883" lon="11.0349367"><ele>41.0</ele><time>2026-04-25T06:28:56.955Z</time></trkpt><trkpt lat="45.4024167" lon="11.0353367"><ele>40.5</ele><time>2026-04-25T06:28:57.956Z</time></trkpt><trkpt lat="45.4024417" lon="11.0357383"><ele>40.0</ele><time>2026-04-25T06:28:58.956Z</time></trkpt><trkpt lat="45.4024633" lon="11.0361433"><ele>39.5</ele><time>2026-04-25T06:28:59.955Z</time></trkpt><trkpt lat="45.4024817" lon="11.0365483"><ele>39.0</ele><time>2026-04-25T06:29:00.955Z</time></trkpt><trkpt lat="45.4024983" lon="11.0369517"><ele>40.0</ele><time>2026-04-25T06:29:01.955Z</time></trkpt><trkpt lat="45.40252" lon="11.037355"><ele>41.0</ele><time>2026-04-25T06:29:02.955Z</time></trkpt><trkpt lat="45.402545" lon="11.0377633"><ele>41.5</ele><time>2026-04-25T06:29:03.955Z</time></trkpt><trkpt lat="45.402575" lon="11.0381667"><ele>42.0</ele><time>2026-04-25T06:29:04.955Z</time></trkpt><trkpt lat="45.40261" lon="11.0385717"><ele>42.0</ele><time>2026-04-25T06:29:05.956Z</time></trkpt><trkpt lat="45.4026483" lon="11.0389817"><ele>42.0</ele><time>2026-04-25T06:29:06.955Z</time></trkpt><trkpt lat="45.4026917" lon="11.0393833"><ele>42.0</ele><time>2026-04-25T06:29:07.956Z</time></trkpt><trkpt lat="45.4027333" lon="11.0397833"><ele>42.0</ele><time>2026-04-25T06:29:08.955Z</time></trkpt><trkpt lat="45.4027717" lon="11.040185"><ele>41.5</ele><time>2026-04-25T06:29:09.954Z</time></trkpt><trkpt lat="45.4028067" lon="11.040585"><ele>41.0</ele><time>2026-04-25T06:29:10.955Z</time></trkpt><trkpt lat="45.4028417" lon="11.0409883"><ele>39.5</ele><time>2026-04-25T06:29:11.957Z</time></trkpt><trkpt lat="45.40288" lon="11.0413867"><ele>38.0</ele><time>2026-04-25T06:29:12.956Z</time></trkpt><trkpt lat="45.4029183" lon="11.0417883"><ele>38.0</ele><time>2026-04-25T06:29:13.956Z</time></trkpt><trkpt lat="45.4029567" lon="11.0421917"><ele>38.0</ele><time>2026-04-25T06:29:14.955Z</time></trkpt><trkpt lat="45.402995" lon="11.0425983"><ele>38.0</ele><time>2026-04-25T06:29:15.956Z</time></trkpt><trkpt lat="45.403035" lon="11.043005"><ele>38.0</ele><time>2026-04-25T06:29:16.956Z</time></trkpt><trkpt lat="45.403075" lon="11.0434067"><ele>38.5</ele><time>2026-04-25T06:29:17.955Z</time></trkpt><trkpt lat="45.4031167" lon="11.0438017"><ele>39.0</ele><time>2026-04-25T06:29:18.955Z</time></trkpt><trkpt lat="45.4031583" lon="11.0441917"><ele>39.0</ele><time>2026-04-25T06:29:19.955Z</time></trkpt><trkpt lat="45.4031983" lon="11.0445783"><ele>39.0</ele><time>2026-04-25T06:29:20.955Z</time></trkpt><trkpt lat="45.4032367" lon="11.0449633"><ele>40.0</ele><time>2026-04-25T06:29:21.955Z</time></trkpt><trkpt lat="45.4032767" lon="11.0453533"><ele>41.0</ele><time>2026-04-25T06:29:22.956Z</time></trkpt><trkpt lat="45.403315" lon="11.0457467"><ele>40.0</ele><time>2026-04-25T06:29:23.955Z</time></trkpt><trkpt lat="45.403355" lon="11.0461417"><ele>39.0</ele><time>2026-04-25T06:29:24.956Z</time></trkpt><trkpt lat="45.4033917" lon="11.0465367"><ele>38.0</ele><time>2026-04-25T06:29:25.957Z</time></trkpt><trkpt lat="45.4034317" lon="11.0469317"><ele>37.0</ele><time>2026-04-25T06:29:26.956Z</time></trkpt><trkpt lat="45.40347" lon="11.04733"><ele>37.0</ele><time>2026-04-25T06:29:27.957Z</time></trkpt><trkpt lat="45.4035067" lon="11.0477283"><ele>37.0</ele><time>2026-04-25T06:29:28.956Z</time></trkpt><trkpt lat="45.4035433" lon="11.0481267"><ele>37.0</ele><time>2026-04-25T06:29:29.956Z</time></trkpt><trkpt lat="45.4035833" lon="11.048525"><ele>37.0</ele><time>2026-04-25T06:29:30.954Z</time></trkpt><trkpt lat="45.4036233" lon="11.048925"><ele>37.0</ele><time>2026-04-25T06:29:31.956Z</time></trkpt><trkpt lat="45.403665" lon="11.0493267"><ele>37.0</ele><time>2026-04-25T06:29:32.956Z</time></trkpt><trkpt lat="45.403705" lon="11.04973"><ele>37.0</ele><time>2026-04-25T06:29:33.955Z</time></trkpt><trkpt lat="45.403745" lon="11.05013"><ele>37.0</ele><time>2026-04-25T06:29:34.956Z</time></trkpt><trkpt lat="45.4037833" lon="11.0505233"><ele>36.5</ele><time>2026-04-25T06:29:35.956Z</time></trkpt><trkpt lat="45.4038233" lon="11.0509083"><ele>36.0</ele><time>2026-04-25T06:29:36.955Z</time></trkpt><trkpt lat="45.4038617" lon="11.0512883"><ele>36.5</ele><time>2026-04-25T06:29:37.956Z</time></trkpt><trkpt lat="45.4039017" lon="11.0516667"><ele>37.0</ele><time>2026-04-25T06:29:38.955Z</time></trkpt><trkpt lat="45.4039417" lon="11.052045"><ele>37.0</ele><time>2026-04-25T06:29:39.955Z</time></trkpt><trkpt lat="45.4039833" lon="11.0524217"><ele>37.0</ele><time>2026-04-25T06:29:40.956Z</time></trkpt><trkpt lat="45.4040217" lon="11.0528"><ele>37.5</ele><time>2026-04-25T06:29:41.956Z</time></trkpt><trkpt lat="45.40406" lon="11.0531783"><ele>38.0</ele><time>2026-04-25T06:29:42.955Z</time></trkpt><trkpt lat="45.4041" lon="11.0535617"><ele>38.0</ele><time>2026-04-25T06:29:43.956Z</time></trkpt><trkpt lat="45.4041433" lon="11.0539533"><ele>38.0</ele><time>2026-04-25T06:29:44.954Z</time></trkpt><trkpt lat="45.404185" lon="11.0543533"><ele>37.5</ele><time>2026-04-25T06:29:45.956Z</time></trkpt><trkpt lat="45.40422" lon="11.05476"><ele>37.0</ele><time>2026-04-25T06:29:46.956Z</time></trkpt><trkpt lat="45.4042533" lon="11.0551733"><ele>36.5</ele><time>2026-04-25T06:29:47.956Z</time></trkpt><trkpt lat="45.4042867" lon="11.05559"><ele>36.0</ele><time>2026-04-25T06:29:48.954Z</time></trkpt><trkpt lat="45.4043217" lon="11.056"><ele>37.0</ele><time>2026-04-25T06:29:49.956Z</time></trkpt><trkpt lat="45.404355" lon="11.0564067"><ele>38.0</ele><time>2026-04-25T06:29:50.955Z</time></trkpt><trkpt lat="45.4043883" lon="11.0568083"><ele>38.0</ele><time>2026-04-25T06:29:51.956Z</time></trkpt><trkpt lat="45.40442" lon="11.0572083"><ele>38.0</ele><time>2026-04-25T06:29:52.956Z</time></trkpt><trkpt lat="45.4044517" lon="11.0576067"><ele>38.0</ele><time>2026-04-25T06:29:53.956Z</time></trkpt><trkpt lat="45.4044817" lon="11.0580067"><ele>38.0</ele><time>2026-04-25T06:29:54.956Z</time></trkpt><trkpt lat="45.4045133" lon="11.0584067"><ele>37.5</ele><time>2026-04-25T06:29:55.96Z</time></trkpt><trkpt lat="45.404545" lon="11.0588067"><ele>37.0</ele><time>2026-04-25T06:29:56.956Z</time></trkpt><trkpt lat="45.4045767" lon="11.0592083"><ele>37.0</ele><time>2026-04-25T06:29:57.955Z</time></trkpt><trkpt lat="45.4046083" lon="11.059605"><ele>37.0</ele><time>2026-04-25T06:29:58.955Z</time></trkpt><trkpt lat="45.4046433" lon="11.06"><ele>37.0</ele><time>2026-04-25T06:29:59.954Z</time></trkpt><trkpt lat="45.4046783" lon="11.0603917"><ele>37.0</ele><time>2026-04-25T06:30:00.956Z</time></trkpt><trkpt lat="45.4047133" lon="11.060785"><ele>37.5</ele><time>2026-04-25T06:30:01.956Z</time></trkpt><trkpt lat="45.4047467" lon="11.061185"><ele>38.0</ele><time>2026-04-25T06:30:02.955Z</time></trkpt><trkpt lat="45.4047783" lon="11.0615833"><ele>38.0</ele><time>2026-04-25T06:30:03.956Z</time></trkpt><trkpt lat="45.4048067" lon="11.06198"><ele>38.0</ele><time>2026-04-25T06:30:04.957Z</time></trkpt><trkpt lat="45.404835" lon="11.0623767"><ele>37.0</ele><time>2026-04-25T06:30:05.955Z</time></trkpt><trkpt lat="45.4048633" lon="11.062775"><ele>36.0</ele><time>2026-04-25T06:30:06.956Z</time></trkpt><trkpt lat="45.4048967" lon="11.0631733"><ele>36.5</ele><time>2026-04-25T06:30:07.956Z</time></trkpt><trkpt lat="45.40493" lon="11.0635667"><ele>37.0</ele><time>2026-04-25T06:30:08.956Z</time></trkpt><trkpt lat="45.4049633" lon="11.06396"><ele>36.5</ele><time>2026-04-25T06:30:09.956Z</time></trkpt><trkpt lat="45.4049983" lon="11.06436"><ele>36.0</ele><time>2026-04-25T06:30:10.957Z</time></trkpt><trkpt lat="45.4050317" lon="11.0647617"><ele>35.5</ele><time>2026-04-25T06:30:11.956Z</time></trkpt><trkpt lat="45.4050667" lon="11.065165"><ele>35.0</ele><time>2026-04-25T06:30:12.956Z</time></trkpt><trkpt lat="45.4051017" lon="11.0655717"><ele>36.0</ele><time>2026-04-25T06:30:13.955Z</time></trkpt><trkpt lat="45.405135" lon="11.065985"><ele>37.0</ele><time>2026-04-25T06:30:14.955Z</time></trkpt><trkpt lat="45.40517" lon="11.0663933"><ele>37.5</ele><time>2026-04-25T06:30:15.955Z</time></trkpt><trkpt lat="45.4052033" lon="11.0668067"><ele>38.0</ele><time>2026-04-25T06:30:16.955Z</time></trkpt><trkpt lat="45.4052383" lon="11.0672183"><ele>37.5</ele><time>2026-04-25T06:30:17.954Z</time></trkpt><trkpt lat="45.405275" lon="11.0676333"><ele>37.0</ele><time>2026-04-25T06:30:18.955Z</time></trkpt><trkpt lat="45.40531" lon="11.068045"><ele>38.0</ele><time>2026-04-25T06:30:19.956Z</time></trkpt><trkpt lat="45.4053467" lon="11.0684533"><ele>39.0</ele><time>2026-04-25T06:30:20.956Z</time></trkpt><trkpt lat="45.4053833" lon="11.0688633"><ele>39.5</ele><time>2026-04-25T06:30:21.955Z</time></trkpt><trkpt lat="45.4054267" lon="11.0692717"><ele>40.0</ele><time>2026-04-25T06:30:22.957Z</time></trkpt><trkpt lat="45.4054717" lon="11.0696783"><ele>40.0</ele><time>2026-04-25T06:30:23.954Z</time></trkpt><trkpt lat="45.4055233" lon="11.0700883"><ele>40.0</ele><time>2026-04-25T06:30:24.956Z</time></trkpt><trkpt lat="45.4055817" lon="11.0704983"><ele>40.0</ele><time>2026-04-25T06:30:25.955Z</time></trkpt><trkpt lat="45.405645" lon="11.0709083"><ele>40.0</ele><time>2026-04-25T06:30:26.956Z</time></trkpt><trkpt lat="45.4057133" lon="11.0713167"><ele>40.5</ele><time>2026-04-25T06:30:27.955Z</time></trkpt><trkpt lat="45.4057867" lon="11.0717233"><ele>41.0</ele><time>2026-04-25T06:30:28.957Z</time></trkpt><trkpt lat="45.4058633" lon="11.0721233"><ele>42.5</ele><time>2026-04-25T06:30:29.956Z</time></trkpt><trkpt lat="45.4059433" lon="11.0725217"><ele>44.0</ele><time>2026-04-25T06:30:30.956Z</time></trkpt><trkpt lat="45.4060267" lon="11.072915"><ele>42.5</ele><time>2026-04-25T06:30:31.957Z</time></trkpt><trkpt lat="45.406115" lon="11.0733067"><ele>41.0</ele><time>2026-04-25T06:30:32.956Z</time></trkpt><trkpt lat="45.4062083" lon="11.0736933"><ele>41.0</ele><time>2026-04-25T06:30:33.956Z</time></trkpt><trkpt lat="45.4063067" lon="11.0740783"><ele>41.0</ele><time>2026-04-25T06:30:34.956Z</time></trkpt><trkpt lat="45.4064067" lon="11.07446"><ele>41.0</ele><time>2026-04-25T06:30:35.956Z</time></trkpt><trkpt lat="45.4065067" lon="11.0748383"><ele>41.0</ele><time>2026-04-25T06:30:36.956Z</time></trkpt><trkpt lat="45.4066083" lon="11.0752183"><ele>41.0</ele><time>2026-04-25T06:30:37.956Z</time></trkpt><trkpt lat="45.4067117" lon="11.0755983"><ele>41.0</ele><time>2026-04-25T06:30:38.956Z</time></trkpt><trkpt lat="45.4068167" lon="11.0759817"><ele>41.0</ele><time>2026-04-25T06:30:39.955Z</time></trkpt><trkpt lat="45.4069217" lon="11.0763617"><ele>41.0</ele><time>2026-04-25T06:30:40.956Z</time></trkpt><trkpt lat="45.4070233" lon="11.0767433"><ele>41.0</ele><time>2026-04-25T06:30:41.954Z</time></trkpt><trkpt lat="45.4071233" lon="11.0771267"><ele>41.0</ele><time>2026-04-25T06:30:42.956Z</time></trkpt><trkpt lat="45.4072217" lon="11.07751"><ele>42.5</ele><time>2026-04-25T06:30:43.956Z</time></trkpt><trkpt lat="45.40732" lon="11.0778917"><ele>44.0</ele><time>2026-04-25T06:30:44.956Z</time></trkpt><trkpt lat="45.40742" lon="11.0782667"><ele>43.5</ele><time>2026-04-25T06:30:45.956Z</time></trkpt><trkpt lat="45.40752" lon="11.0786367"><ele>43.0</ele><time>2026-04-25T06:30:46.956Z</time></trkpt><trkpt lat="45.4076217" lon="11.0790067"><ele>41.5</ele><time>2026-04-25T06:30:47.955Z</time></trkpt><trkpt lat="45.407725" lon="11.0793867"><ele>40.0</ele><time>2026-04-25T06:30:48.955Z</time></trkpt><trkpt lat="45.40783" lon="11.07977"><ele>40.0</ele><time>2026-04-25T06:30:49.956Z</time></trkpt><trkpt lat="45.4079367" lon="11.080155"><ele>40.0</ele><time>2026-04-25T06:30:50.956Z</time></trkpt><trkpt lat="45.4080417" lon="11.0805383"><ele>42.0</ele><time>2026-04-25T06:30:51.955Z</time></trkpt><trkpt lat="45.4081433" lon="11.0809233"><ele>44.0</ele><time>2026-04-25T06:30:52.956Z</time></trkpt><trkpt lat="45.408245" lon="11.0813067"><ele>43.5</ele><time>2026-04-25T06:30:53.954Z</time></trkpt><trkpt lat="45.4083467" lon="11.08169"><ele>43.0</ele><time>2026-04-25T06:30:54.955Z</time></trkpt><trkpt lat="45.40845" lon="11.082075"><ele>44.0</ele><time>2026-04-25T06:30:55.955Z</time></trkpt><trkpt lat="45.4085567" lon="11.0824583"><ele>45.0</ele><time>2026-04-25T06:30:56.954Z</time></trkpt><trkpt lat="45.4086633" lon="11.0828467"><ele>45.0</ele><time>2026-04-25T06:30:57.955Z</time></trkpt><trkpt lat="45.4087683" lon="11.0832367"><ele>45.0</ele><time>2026-04-25T06:30:58.956Z</time></trkpt><trkpt lat="45.40887" lon="11.08362"><ele>44.5</ele><time>2026-04-25T06:30:59.955Z</time></trkpt><trkpt lat="45.4089717" lon="11.084"><ele>44.0</ele><time>2026-04-25T06:31:00.956Z</time></trkpt><trkpt lat="45.40907" lon="11.0843717"><ele>44.0</ele><time>2026-04-25T06:31:01.956Z</time></trkpt><trkpt lat="45.4091683" lon="11.08474"><ele>44.0</ele><time>2026-04-25T06:31:02.956Z</time></trkpt><trkpt lat="45.4092667" lon="11.0851017"><ele>44.0</ele><time>2026-04-25T06:31:03.957Z</time></trkpt><trkpt lat="45.409365" lon="11.08546"><ele>44.0</ele><time>2026-04-25T06:31:04.956Z</time></trkpt><trkpt lat="45.4094583" lon="11.085815"><ele>44.0</ele><time>2026-04-25T06:31:05.956Z</time></trkpt><trkpt lat="45.4095517" lon="11.0861683"><ele>44.0</ele><time>2026-04-25T06:31:06.956Z</time></trkpt><trkpt lat="45.4096483" lon="11.0865217"><ele>44.5</ele><time>2026-04-25T06:31:07.956Z</time></trkpt><trkpt lat="45.4097433" lon="11.0868717"><ele>45.0</ele><time>2026-04-25T06:31:08.957Z</time></trkpt><trkpt lat="45.4098383" lon="11.0872183"><ele>45.0</ele><time>2026-04-25T06:31:09.955Z</time></trkpt><trkpt lat="45.4099283" lon="11.0875517"><ele>45.0</ele><time>2026-04-25T06:31:10.955Z</time></trkpt><trkpt lat="45.4100183" lon="11.0878867"><ele>45.0</ele><time>2026-04-25T06:31:11.956Z</time></trkpt><trkpt lat="45.410105" lon="11.0882217"><ele>45.0</ele><time>2026-04-25T06:31:12.955Z</time></trkpt><trkpt lat="45.410195" lon="11.0885517"><ele>44.5</ele><time>2026-04-25T06:31:13.956Z</time></trkpt><trkpt lat="45.4102817" lon="11.0888817"><ele>44.0</ele><time>2026-04-25T06:31:14.956Z</time></trkpt><trkpt lat="45.4103733" lon="11.0892117"><ele>44.0</ele><time>2026-04-25T06:31:15.956Z</time></trkpt><trkpt lat="45.4104633" lon="11.08954"><ele>44.0</ele><time>2026-04-25T06:31:16.956Z</time></trkpt><trkpt lat="45.4105533" lon="11.08987"><ele>44.0</ele><time>2026-04-25T06:31:17.957Z</time></trkpt><trkpt lat="45.4106417" lon="11.0902"><ele>44.0</ele><time>2026-04-25T06:31:18.955Z</time></trkpt><trkpt lat="45.4107283" lon="11.0905333"><ele>45.5</ele><time>2026-04-25T06:31:19.954Z</time></trkpt><trkpt lat="45.41082" lon="11.090875"><ele>47.0</ele><time>2026-04-25T06:31:20.955Z</time></trkpt><trkpt lat="45.4109183" lon="11.0912283"><ele>47.0</ele><time>2026-04-25T06:31:21.956Z</time></trkpt><trkpt lat="45.41101" lon="11.0915883"><ele>47.0</ele><time>2026-04-25T06:31:22.956Z</time></trkpt><trkpt lat="45.4111033" lon="11.091955"><ele>47.5</ele><time>2026-04-25T06:31:23.955Z</time></trkpt><trkpt lat="45.4112" lon="11.092325"><ele>48.0</ele><time>2026-04-25T06:31:24.955Z</time></trkpt><trkpt lat="45.4113" lon="11.0926933"><ele>47.0</ele><time>2026-04-25T06:31:25.955Z</time></trkpt><trkpt lat="45.4113967" lon="11.0930617"><ele>46.0</ele><time>2026-04-25T06:31:26.955Z</time></trkpt><trkpt lat="45.411495" lon="11.0934317"><ele>46.0</ele><time>2026-04-25T06:31:27.956Z</time></trkpt><trkpt lat="45.41159" lon="11.0937983"><ele>46.0</ele><time>2026-04-25T06:31:28.955Z</time></trkpt><trkpt lat="45.4116867" lon="11.0941617"><ele>47.0</ele><time>2026-04-25T06:31:29.956Z</time></trkpt><trkpt lat="45.4117817" lon="11.0945167"><ele>48.0</ele><time>2026-04-25T06:31:30.954Z</time></trkpt><trkpt lat="45.4118717" lon="11.09486"><ele>48.0</ele><time>2026-04-25T06:31:31.955Z</time></trkpt><trkpt lat="45.4119617" lon="11.0951983"><ele>48.0</ele><time>2026-04-25T06:31:32.955Z</time></trkpt><trkpt lat="45.41205" lon="11.09553"><ele>48.0</ele><time>2026-04-25T06:31:33.956Z</time></trkpt><trkpt lat="45.4121367" lon="11.095855"><ele>48.0</ele><time>2026-04-25T06:31:34.956Z</time></trkpt><trkpt lat="45.4122217" lon="11.096175"><ele>48.0</ele><time>2026-04-25T06:31:35.955Z</time></trkpt><trkpt lat="45.4123033" lon="11.0964917"><ele>48.0</ele><time>2026-04-25T06:31:36.956Z</time></trkpt><trkpt lat="45.4123867" lon="11.096805"><ele>47.0</ele><time>2026-04-25T06:31:37.956Z</time></trkpt><trkpt lat="45.4124683" lon="11.09711"><ele>46.0</ele><time>2026-04-25T06:31:38.955Z</time></trkpt><trkpt lat="45.41255" lon="11.097415"><ele>45.5</ele><time>2026-04-25T06:31:39.956Z</time></trkpt><trkpt lat="45.4126333" lon="11.0977233"><ele>45.0</ele><time>2026-04-25T06:31:40.955Z</time></trkpt><trkpt lat="45.4127167" lon="11.0980333"><ele>44.0</ele><time>2026-04-25T06:31:41.955Z</time></trkpt><trkpt lat="45.4127983" lon="11.098345"><ele>43.0</ele><time>2026-04-25T06:31:42.955Z</time></trkpt><trkpt lat="45.412885" lon="11.0986617"><ele>43.0</ele><time>2026-04-25T06:31:43.954Z</time></trkpt><trkpt lat="45.412975" lon="11.0989883"><ele>43.0</ele><time>2026-04-25T06:31:44.955Z</time></trkpt><trkpt lat="45.4130683" lon="11.0993267"><ele>43.5</ele><time>2026-04-25T06:31:45.956Z</time></trkpt><trkpt lat="45.4131633" lon="11.0996767"><ele>44.0</ele><time>2026-04-25T06:31:46.956Z</time></trkpt><trkpt lat="45.4132583" lon="11.1000433"><ele>44.0</ele><time>2026-04-25T06:31:47.956Z</time></trkpt><trkpt lat="45.413355" lon="11.100415"><ele>44.0</ele><time>2026-04-25T06:31:48.955Z</time></trkpt><trkpt lat="45.4134567" lon="11.10079"><ele>43.5</ele><time>2026-04-25T06:31:49.956Z</time></trkpt><trkpt lat="45.4135583" lon="11.1011633"><ele>43.0</ele><time>2026-04-25T06:31:50.954Z</time></trkpt><trkpt lat="45.41366" lon="11.101535"><ele>43.0</ele><time>2026-04-25T06:31:51.956Z</time></trkpt><trkpt lat="45.4137567" lon="11.1019017"><ele>43.0</ele><time>2026-04-25T06:31:52.955Z</time></trkpt><trkpt lat="45.413855" lon="11.102265"><ele>43.0</ele><time>2026-04-25T06:31:53.956Z</time></trkpt><trkpt lat="45.41395" lon="11.1026267"><ele>43.0</ele><time>2026-04-25T06:31:54.955Z</time></trkpt><trkpt lat="45.414045" lon="11.10299"><ele>43.5</ele><time>2026-04-25T06:31:55.954Z</time></trkpt><trkpt lat="45.41414" lon="11.103355"><ele>44.0</ele><time>2026-04-25T06:31:56.954Z</time></trkpt><trkpt lat="45.4142367" lon="11.1037233"><ele>44.5</ele><time>2026-04-25T06:31:57.955Z</time></trkpt><trkpt lat="45.4143333" lon="11.10409"><ele>45.0</ele><time>2026-04-25T06:31:58.955Z</time></trkpt><trkpt lat="45.4144317" lon="11.104455"><ele>45.0</ele><time>2026-04-25T06:31:59.956Z</time></trkpt><trkpt lat="45.41453" lon="11.1048183"><ele>45.0</ele><time>2026-04-25T06:32:00.955Z</time></trkpt><trkpt lat="45.4146317" lon="11.105185"><ele>44.5</ele><time>2026-04-25T06:32:01.957Z</time></trkpt><trkpt lat="45.414735" lon="11.105555"><ele>44.0</ele><time>2026-04-25T06:32:02.955Z</time></trkpt><trkpt lat="45.4148367" lon="11.1059283"><ele>44.0</ele><time>2026-04-25T06:32:03.956Z</time></trkpt><trkpt lat="45.4149383" lon="11.106305"><ele>44.0</ele><time>2026-04-25T06:32:04.956Z</time></trkpt><trkpt lat="45.4150433" lon="11.1066833"><ele>44.0</ele><time>2026-04-25T06:32:05.955Z</time></trkpt><trkpt lat="45.41515" lon="11.107065"><ele>44.0</ele><time>2026-04-25T06:32:06.956Z</time></trkpt><trkpt lat="45.41526" lon="11.1074467"><ele>42.5</ele><time>2026-04-25T06:32:07.956Z</time></trkpt><trkpt lat="45.4153683" lon="11.1078333"><ele>41.0</ele><time>2026-04-25T06:32:08.955Z</time></trkpt><trkpt lat="45.4154817" lon="11.108225"><ele>41.0</ele><time>2026-04-25T06:32:09.957Z</time></trkpt><trkpt lat="45.4156" lon="11.108625"><ele>41.0</ele><time>2026-04-25T06:32:10.957Z</time></trkpt><trkpt lat="45.4157283" lon="11.109035"><ele>41.0</ele><time>2026-04-25T06:32:11.955Z</time></trkpt><trkpt lat="45.4158617" lon="11.10945"><ele>41.0</ele><time>2026-04-25T06:32:12.955Z</time></trkpt><trkpt lat="45.416" lon="11.1098667"><ele>40.5</ele><time>2026-04-25T06:32:13.956Z</time></trkpt><trkpt lat="45.416145" lon="11.1102883"><ele>40.0</ele><time>2026-04-25T06:32:14.956Z</time></trkpt><trkpt lat="45.416295" lon="11.1107083"><ele>41.0</ele><time>2026-04-25T06:32:15.956Z</time></trkpt><trkpt lat="45.416445" lon="11.111125"><ele>42.0</ele><time>2026-04-25T06:32:16.955Z</time></trkpt><trkpt lat="45.4165933" lon="11.1115383"><ele>42.0</ele><time>2026-04-25T06:32:17.955Z</time></trkpt><trkpt lat="45.41674" lon="11.11195"><ele>42.0</ele><time>2026-04-25T06:32:18.955Z</time></trkpt><trkpt lat="45.4168817" lon="11.1123567"><ele>42.0</ele><time>2026-04-25T06:32:19.955Z</time></trkpt><trkpt lat="45.4170233" lon="11.1127633"><ele>42.0</ele><time>2026-04-25T06:32:20.956Z</time></trkpt><trkpt lat="45.417165" lon="11.113165"><ele>44.0</ele><time>2026-04-25T06:32:21.955Z</time></trkpt><trkpt lat="45.4173083" lon="11.11357"><ele>46.0</ele><time>2026-04-25T06:32:22.956Z</time></trkpt><trkpt lat="45.417455" lon="11.1139767"><ele>45.5</ele><time>2026-04-25T06:32:23.955Z</time></trkpt><trkpt lat="45.4175983" lon="11.114385"><ele>45.0</ele><time>2026-04-25T06:32:24.955Z</time></trkpt><trkpt lat="45.4177417" lon="11.11479"><ele>45.0</ele><time>2026-04-25T06:32:25.955Z</time></trkpt><trkpt lat="45.4178833" lon="11.1151933"><ele>45.0</ele><time>2026-04-25T06:32:26.954Z</time></trkpt><trkpt lat="45.4180217" lon="11.1155917"><ele>46.5</ele><time>2026-04-25T06:32:27.955Z</time></trkpt><trkpt lat="45.41816" lon="11.11599"><ele>48.0</ele><time>2026-04-25T06:32:28.956Z</time></trkpt><trkpt lat="45.4182983" lon="11.116385"><ele>47.0</ele><time>2026-04-25T06:32:29.955Z</time></trkpt><trkpt lat="45.4184367" lon="11.1167783"><ele>46.0</ele><time>2026-04-25T06:32:30.956Z</time></trkpt><trkpt lat="45.4185767" lon="11.1171733"><ele>46.0</ele><time>2026-04-25T06:32:31.955Z</time></trkpt><trkpt lat="45.4187167" lon="11.117565"><ele>46.0</ele><time>2026-04-25T06:32:32.956Z</time></trkpt><trkpt lat="45.41886" lon="11.1179567"><ele>46.0</ele><time>2026-04-25T06:32:33.956Z</time></trkpt><trkpt lat="45.419005" lon="11.1183467"><ele>46.0</ele><time>2026-04-25T06:32:34.956Z</time></trkpt><trkpt lat="45.4191517" lon="11.1187333"><ele>45.5</ele><time>2026-04-25T06:32:35.956Z</time></trkpt><trkpt lat="45.4193017" lon="11.1191217"><ele>45.0</ele><time>2026-04-25T06:32:36.956Z</time></trkpt><trkpt lat="45.41945" lon="11.1195133"><ele>44.0</ele><time>2026-04-25T06:32:37.956Z</time></trkpt><trkpt lat="45.419595" lon="11.1199067"><ele>43.0</ele><time>2026-04-25T06:32:38.956Z</time></trkpt><trkpt lat="45.419735" lon="11.120305"><ele>43.0</ele><time>2026-04-25T06:32:39.956Z</time></trkpt><trkpt lat="45.4198733" lon="11.120705"><ele>43.0</ele><time>2026-04-25T06:32:40.957Z</time></trkpt><trkpt lat="45.4200133" lon="11.121105"><ele>42.0</ele><time>2026-04-25T06:32:41.956Z</time></trkpt><trkpt lat="45.4201483" lon="11.121505"><ele>41.0</ele><time>2026-04-25T06:32:42.956Z</time></trkpt><trkpt lat="45.420285" lon="11.1219033"><ele>41.0</ele><time>2026-04-25T06:32:43.955Z</time></trkpt><trkpt lat="45.420415" lon="11.1223033"><ele>41.0</ele><time>2026-04-25T06:32:44.954Z</time></trkpt><trkpt lat="45.4205433" lon="11.122705"><ele>43.5</ele><time>2026-04-25T06:32:45.955Z</time></trkpt><trkpt lat="45.420665" lon="11.1231133"><ele>46.0</ele><time>2026-04-25T06:32:46.956Z</time></trkpt><trkpt lat="45.42078" lon="11.12353"><ele>46.0</ele><time>2026-04-25T06:32:47.954Z</time></trkpt><trkpt lat="45.42089" lon="11.1239533"><ele>46.0</ele><time>2026-04-25T06:32:48.955Z</time></trkpt><trkpt lat="45.420995" lon="11.1243783"><ele>45.5</ele><time>2026-04-25T06:32:49.954Z</time></trkpt><trkpt lat="45.421095" lon="11.124805"><ele>45.0</ele><time>2026-04-25T06:32:50.955Z</time></trkpt><trkpt lat="45.4211867" lon="11.1252383"><ele>43.5</ele><time>2026-04-25T06:32:51.955Z</time></trkpt><trkpt lat="45.421275" lon="11.1256767"><ele>42.0</ele><time>2026-04-25T06:32:52.956Z</time></trkpt><trkpt lat="45.42136" lon="11.1261183"><ele>42.0</ele><time>2026-04-25T06:32:53.955Z</time></trkpt><trkpt lat="45.4214383" lon="11.126565"><ele>42.0</ele><time>2026-04-25T06:32:54.955Z</time></trkpt><trkpt lat="45.4215117" lon="11.1270183"><ele>41.5</ele><time>2026-04-25T06:32:55.955Z</time></trkpt><trkpt lat="45.4215817" lon="11.1274733"><ele>41.0</ele><time>2026-04-25T06:32:56.956Z</time></trkpt><trkpt lat="45.421645" lon="11.1279317"><ele>41.5</ele><time>2026-04-25T06:32:57.955Z</time></trkpt><trkpt lat="45.4217017" lon="11.1283933"><ele>42.0</ele><time>2026-04-25T06:32:58.955Z</time></trkpt><trkpt lat="45.4217517" lon="11.12886"><ele>42.0</ele><time>2026-04-25T06:32:59.955Z</time></trkpt><trkpt lat="45.4217967" lon="11.129325"><ele>42.0</ele><time>2026-04-25T06:33:00.955Z</time></trkpt><trkpt lat="45.4218333" lon="11.1297817"><ele>42.0</ele><time>2026-04-25T06:33:01.956Z</time></trkpt><trkpt lat="45.421865" lon="11.1302267"><ele>42.0</ele><time>2026-04-25T06:33:02.955Z</time></trkpt><trkpt lat="45.42189" lon="11.1306667"><ele>42.0</ele><time>2026-04-25T06:33:03.955Z</time></trkpt><trkpt lat="45.4219133" lon="11.1311033"><ele>42.0</ele><time>2026-04-25T06:33:04.956Z</time></trkpt><trkpt lat="45.42193" lon="11.1315383"><ele>42.0</ele><time>2026-04-25T06:33:05.957Z</time></trkpt><trkpt lat="45.4219433" lon="11.1319733"><ele>42.0</ele><time>2026-04-25T06:33:06.956Z</time></trkpt><trkpt lat="45.42195" lon="11.132405"><ele>43.0</ele><time>2026-04-25T06:33:07.956Z</time></trkpt><trkpt lat="45.4219517" lon="11.1328367"><ele>44.0</ele><time>2026-04-25T06:33:08.955Z</time></trkpt><trkpt lat="45.421945" lon="11.1332717"><ele>44.0</ele><time>2026-04-25T06:33:09.956Z</time></trkpt><trkpt lat="45.4219317" lon="11.1337067"><ele>44.0</ele><time>2026-04-25T06:33:10.956Z</time></trkpt><trkpt lat="45.4219117" lon="11.1341417"><ele>44.0</ele><time>2026-04-25T06:33:11.956Z</time></trkpt><trkpt lat="45.4218883" lon="11.134575"><ele>44.0</ele><time>2026-04-25T06:33:12.955Z</time></trkpt><trkpt lat="45.4218617" lon="11.1350067"><ele>44.5</ele><time>2026-04-25T06:33:13.955Z</time></trkpt><trkpt lat="45.42183" lon="11.1354367"><ele>45.0</ele><time>2026-04-25T06:33:14.955Z</time></trkpt><trkpt lat="45.4217967" lon="11.13587"><ele>45.0</ele><time>2026-04-25T06:33:15.955Z</time></trkpt><trkpt lat="45.4217583" lon="11.136305"><ele>45.0</ele><time>2026-04-25T06:33:16.955Z</time></trkpt><trkpt lat="45.4217233" lon="11.1367367"><ele>45.5</ele><time>2026-04-25T06:33:17.954Z</time></trkpt><trkpt lat="45.421685" lon="11.1371733"><ele>46.0</ele><time>2026-04-25T06:33:18.954Z</time></trkpt><trkpt lat="45.4216483" lon="11.13761"><ele>46.0</ele><time>2026-04-25T06:33:19.955Z</time></trkpt><trkpt lat="45.42161" lon="11.13805"><ele>46.0</ele><time>2026-04-25T06:33:20.955Z</time></trkpt><trkpt lat="45.4215733" lon="11.1384917"><ele>46.0</ele><time>2026-04-25T06:33:21.954Z</time></trkpt><trkpt lat="45.4215367" lon="11.1389333"><ele>46.0</ele><time>2026-04-25T06:33:22.955Z</time></trkpt><trkpt lat="45.4214983" lon="11.1393767"><ele>46.5</ele><time>2026-04-25T06:33:23.954Z</time></trkpt><trkpt lat="45.4214617" lon="11.1398233"><ele>47.0</ele><time>2026-04-25T06:33:24.955Z</time></trkpt><trkpt lat="45.4214233" lon="11.1402683"><ele>47.0</ele><time>2026-04-25T06:33:25.955Z</time></trkpt><trkpt lat="45.4213833" lon="11.1407117"><ele>47.0</ele><time>2026-04-25T06:33:26.955Z</time></trkpt><trkpt lat="45.42135" lon="11.14116"><ele>46.0</ele><time>2026-04-25T06:33:27.955Z</time></trkpt><trkpt lat="45.421315" lon="11.1416083"><ele>45.0</ele><time>2026-04-25T06:33:28.956Z</time></trkpt><trkpt lat="45.4212767" lon="11.142055"><ele>45.5</ele><time>2026-04-25T06:33:29.955Z</time></trkpt><trkpt lat="45.4212383" lon="11.1424983"><ele>46.0</ele><time>2026-04-25T06:33:30.956Z</time></trkpt><trkpt lat="45.4212" lon="11.1429417"><ele>46.0</ele><time>2026-04-25T06:33:31.955Z</time></trkpt><trkpt lat="45.42116" lon="11.1433883"><ele>46.0</ele><time>2026-04-25T06:33:32.954Z</time></trkpt><trkpt lat="45.4211167" lon="11.1438317"><ele>46.5</ele><time>2026-04-25T06:33:33.954Z</time></trkpt><trkpt lat="45.421075" lon="11.1442683"><ele>47.0</ele><time>2026-04-25T06:33:34.956Z</time></trkpt><trkpt lat="45.4210367" lon="11.1447"><ele>47.0</ele><time>2026-04-25T06:33:35.954Z</time></trkpt><trkpt lat="45.421" lon="11.1451267"><ele>47.0</ele><time>2026-04-25T06:33:36.956Z</time></trkpt><trkpt lat="45.4209633" lon="11.14555"><ele>46.5</ele><time>2026-04-25T06:33:37.956Z</time></trkpt><trkpt lat="45.4209267" lon="11.1459717"><ele>46.0</ele><time>2026-04-25T06:33:38.955Z</time></trkpt><trkpt lat="45.4208917" lon="11.14639"><ele>46.0</ele><time>2026-04-25T06:33:39.954Z</time></trkpt><trkpt lat="45.4208567" lon="11.146805"><ele>46.0</ele><time>2026-04-25T06:33:40.956Z</time></trkpt><trkpt lat="45.4208217" lon="11.14721"><ele>45.5</ele><time>2026-04-25T06:33:41.955Z</time></trkpt><trkpt lat="45.4207883" lon="11.1476133"><ele>45.0</ele><time>2026-04-25T06:33:42.955Z</time></trkpt><trkpt lat="45.4207533" lon="11.1480167"><ele>46.0</ele><time>2026-04-25T06:33:43.955Z</time></trkpt><trkpt lat="45.4207217" lon="11.1484283"><ele>47.0</ele><time>2026-04-25T06:33:44.955Z</time></trkpt><trkpt lat="45.4206917" lon="11.14884"><ele>48.0</ele><time>2026-04-25T06:33:45.955Z</time></trkpt><trkpt lat="45.42066" lon="11.1492517"><ele>49.0</ele><time>2026-04-25T06:33:46.955Z</time></trkpt><trkpt lat="45.4206267" lon="11.149665"><ele>48.5</ele><time>2026-04-25T06:33:47.956Z</time></trkpt><trkpt lat="45.420595" lon="11.1500783"><ele>48.0</ele><time>2026-04-25T06:33:48.955Z</time></trkpt><trkpt lat="45.4205583" lon="11.15049"><ele>48.5</ele><time>2026-04-25T06:33:49.955Z</time></trkpt><trkpt lat="45.42052" lon="11.1508983"><ele>49.0</ele><time>2026-04-25T06:33:50.955Z</time></trkpt><trkpt lat="45.4204833" lon="11.1513067"><ele>49.0</ele><time>2026-04-25T06:33:51.955Z</time></trkpt><trkpt lat="45.4204533" lon="11.1517167"><ele>49.0</ele><time>2026-04-25T06:33:52.956Z</time></trkpt><trkpt lat="45.4204217" lon="11.152125"><ele>48.0</ele><time>2026-04-25T06:33:53.954Z</time></trkpt><trkpt lat="45.4203883" lon="11.1525383"><ele>47.0</ele><time>2026-04-25T06:33:54.955Z</time></trkpt><trkpt lat="45.4203533" lon="11.1529483"><ele>47.0</ele><time>2026-04-25T06:33:55.955Z</time></trkpt><trkpt lat="45.42032" lon="11.1533583"><ele>47.0</ele><time>2026-04-25T06:33:56.955Z</time></trkpt><trkpt lat="45.4202883" lon="11.1537667"><ele>48.0</ele><time>2026-04-25T06:33:57.955Z</time></trkpt><trkpt lat="45.4202567" lon="11.154175"><ele>49.0</ele><time>2026-04-25T06:33:58.955Z</time></trkpt><trkpt lat="45.420225" lon="11.1545833"><ele>49.0</ele><time>2026-04-25T06:33:59.955Z</time></trkpt><trkpt lat="45.4201917" lon="11.1549933"><ele>49.0</ele><time>2026-04-25T06:34:00.956Z</time></trkpt><trkpt lat="45.4201567" lon="11.155405"><ele>49.0</ele><time>2026-04-25T06:34:01.955Z</time></trkpt><trkpt lat="45.4201217" lon="11.1558167"><ele>49.0</ele><time>2026-04-25T06:34:02.954Z</time></trkpt><trkpt lat="45.42009" lon="11.1562317"><ele>49.0</ele><time>2026-04-25T06:34:03.955Z</time></trkpt><trkpt lat="45.4200583" lon="11.156645"><ele>49.0</ele><time>2026-04-25T06:34:04.956Z</time></trkpt><trkpt lat="45.420025" lon="11.1570583"><ele>49.5</ele><time>2026-04-25T06:34:05.956Z</time></trkpt><trkpt lat="45.41999" lon="11.157475"><ele>50.0</ele><time>2026-04-25T06:34:06.955Z</time></trkpt><trkpt lat="45.41996" lon="11.15789"><ele>50.5</ele><time>2026-04-25T06:34:07.955Z</time></trkpt><trkpt lat="45.4199317" lon="11.1583017"><ele>51.0</ele><time>2026-04-25T06:34:08.956Z</time></trkpt><trkpt lat="45.41991" lon="11.15871"><ele>51.0</ele><time>2026-04-25T06:34:09.954Z</time></trkpt><trkpt lat="45.419895" lon="11.1591233"><ele>51.0</ele><time>2026-04-25T06:34:10.954Z</time></trkpt><trkpt lat="45.4198767" lon="11.1595367"><ele>51.0</ele><time>2026-04-25T06:34:11.954Z</time></trkpt><trkpt lat="45.41986" lon="11.1599517"><ele>51.0</ele><time>2026-04-25T06:34:12.954Z</time></trkpt><trkpt lat="45.4198433" lon="11.1603667"><ele>50.5</ele><time>2026-04-25T06:34:13.956Z</time></trkpt><trkpt lat="45.419825" lon="11.1607817"><ele>50.0</ele><time>2026-04-25T06:34:14.955Z</time></trkpt><trkpt lat="45.4198033" lon="11.1611983"><ele>50.0</ele><time>2026-04-25T06:34:15.955Z</time></trkpt><trkpt lat="45.41978" lon="11.1616167"><ele>50.0</ele><time>2026-04-25T06:34:16.956Z</time></trkpt><trkpt lat="45.41976" lon="11.1620433"><ele>50.0</ele><time>2026-04-25T06:34:17.954Z</time></trkpt><trkpt lat="45.41974" lon="11.1624733"><ele>50.0</ele><time>2026-04-25T06:34:18.956Z</time></trkpt><trkpt lat="45.4197217" lon="11.162905"><ele>50.5</ele><time>2026-04-25T06:34:19.955Z</time></trkpt><trkpt lat="45.4197017" lon="11.1633383"><ele>51.0</ele><time>2026-04-25T06:34:20.955Z</time></trkpt><trkpt lat="45.41968" lon="11.16377"><ele>51.0</ele><time>2026-04-25T06:34:21.955Z</time></trkpt><trkpt lat="45.4196583" lon="11.1642067"><ele>51.0</ele><time>2026-04-25T06:34:22.956Z</time></trkpt><trkpt lat="45.4196367" lon="11.1646433"><ele>51.0</ele><time>2026-04-25T06:34:23.955Z</time></trkpt><trkpt lat="45.419615" lon="11.1650833"><ele>51.0</ele><time>2026-04-25T06:34:24.955Z</time></trkpt><trkpt lat="45.4195917" lon="11.165525"><ele>51.0</ele><time>2026-04-25T06:34:25.956Z</time></trkpt><trkpt lat="45.4195717" lon="11.1659683"><ele>51.0</ele><time>2026-04-25T06:34:26.955Z</time></trkpt><trkpt lat="45.4195517" lon="11.1664117"><ele>50.0</ele><time>2026-04-25T06:34:27.955Z</time></trkpt><trkpt lat="45.4195317" lon="11.1668567"><ele>49.0</ele><time>2026-04-25T06:34:28.956Z</time></trkpt><trkpt lat="45.4195083" lon="11.1673033"><ele>48.5</ele><time>2026-04-25T06:34:29.955Z</time></trkpt><trkpt lat="45.419485" lon="11.1677467"><ele>48.0</ele><time>2026-04-25T06:34:30.955Z</time></trkpt><trkpt lat="45.4194633" lon="11.168195"><ele>48.0</ele><time>2026-04-25T06:34:31.955Z</time></trkpt><trkpt lat="45.4194417" lon="11.1686433"><ele>48.0</ele><time>2026-04-25T06:34:32.955Z</time></trkpt><trkpt lat="45.41942" lon="11.1690917"><ele>48.0</ele><time>2026-04-25T06:34:33.955Z</time></trkpt><trkpt lat="45.4193983" lon="11.1695367"><ele>48.0</ele><time>2026-04-25T06:34:34.956Z</time></trkpt><trkpt lat="45.4193767" lon="11.1699767"><ele>47.5</ele><time>2026-04-25T06:34:35.956Z</time></trkpt><trkpt lat="45.419355" lon="11.1704167"><ele>47.0</ele><time>2026-04-25T06:34:36.956Z</time></trkpt><trkpt lat="45.4193333" lon="11.1708533"><ele>48.0</ele><time>2026-04-25T06:34:37.956Z</time></trkpt><trkpt lat="45.4193117" lon="11.1712867"><ele>49.0</ele><time>2026-04-25T06:34:38.956Z</time></trkpt><trkpt lat="45.419285" lon="11.1717167"><ele>50.0</ele><time>2026-04-25T06:34:39.956Z</time></trkpt><trkpt lat="45.419255" lon="11.172145"><ele>51.0</ele><time>2026-04-25T06:34:40.956Z</time></trkpt><trkpt lat="45.419215" lon="11.1725717"><ele>51.5</ele><time>2026-04-25T06:34:41.956Z</time></trkpt><trkpt lat="45.41917" lon="11.1729967"><ele>52.0</ele><time>2026-04-25T06:34:42.959Z</time></trkpt><trkpt lat="45.4191183" lon="11.1734167"><ele>52.0</ele><time>2026-04-25T06:34:43.955Z</time></trkpt><trkpt lat="45.419065" lon="11.1738333"><ele>52.0</ele><time>2026-04-25T06:34:44.955Z</time></trkpt><trkpt lat="45.4190067" lon="11.1742483"><ele>51.5</ele><time>2026-04-25T06:34:45.955Z</time></trkpt><trkpt lat="45.418945" lon="11.1746617"><ele>51.0</ele><time>2026-04-25T06:34:46.956Z</time></trkpt><trkpt lat="45.4188767" lon="11.175075"><ele>52.0</ele><time>2026-04-25T06:34:47.955Z</time></trkpt><trkpt lat="45.4188033" lon="11.1754867"><ele>53.0</ele><time>2026-04-25T06:34:48.956Z</time></trkpt><trkpt lat="45.418725" lon="11.1758917"><ele>53.0</ele><time>2026-04-25T06:34:49.955Z</time></trkpt><trkpt lat="45.4186467" lon="11.1762917"><ele>53.0</ele><time>2026-04-25T06:34:50.955Z</time></trkpt><trkpt lat="45.4185633" lon="11.1766867"><ele>52.0</ele><time>2026-04-25T06:34:51.955Z</time></trkpt><trkpt lat="45.4184783" lon="11.1770783"><ele>51.0</ele><time>2026-04-25T06:34:52.956Z</time></trkpt><trkpt lat="45.41839" lon="11.1774667"><ele>51.0</ele><time>2026-04-25T06:34:53.956Z</time></trkpt><trkpt lat="45.4182983" lon="11.1778517"><ele>51.0</ele><time>2026-04-25T06:34:54.955Z</time></trkpt><trkpt lat="45.4182067" lon="11.1782367"><ele>51.5</ele><time>2026-04-25T06:34:55.958Z</time></trkpt><trkpt lat="45.4181133" lon="11.1786283"><ele>52.0</ele><time>2026-04-25T06:34:56.955Z</time></trkpt><trkpt lat="45.4180233" lon="11.1790183"><ele>51.5</ele><time>2026-04-25T06:34:57.954Z</time></trkpt><trkpt lat="45.4179333" lon="11.1794133"><ele>51.0</ele><time>2026-04-25T06:34:58.956Z</time></trkpt><trkpt lat="45.4178433" lon="11.1798117"><ele>51.0</ele><time>2026-04-25T06:34:59.955Z</time></trkpt><trkpt lat="45.4177533" lon="11.1802133"><ele>51.0</ele><time>2026-04-25T06:35:00.955Z</time></trkpt><trkpt lat="45.4176617" lon="11.180615"><ele>51.5</ele><time>2026-04-25T06:35:01.956Z</time></trkpt><trkpt lat="45.4175683" lon="11.18102"><ele>52.0</ele><time>2026-04-25T06:35:02.955Z</time></trkpt><trkpt lat="45.4174733" lon="11.1814267"><ele>52.0</ele><time>2026-04-25T06:35:03.956Z</time></trkpt><trkpt lat="45.41738" lon="11.1818317"><ele>52.0</ele><time>2026-04-25T06:35:04.958Z</time></trkpt><trkpt lat="45.4172867" lon="11.1822417"><ele>51.5</ele><time>2026-04-25T06:35:05.956Z</time></trkpt><trkpt lat="45.4171933" lon="11.18265"><ele>51.0</ele><time>2026-04-25T06:35:06.955Z</time></trkpt><trkpt lat="45.4171017" lon="11.1830583"><ele>50.5</ele><time>2026-04-25T06:35:07.956Z</time></trkpt><trkpt lat="45.4170083" lon="11.183465"><ele>50.0</ele><time>2026-04-25T06:35:08.956Z</time></trkpt><trkpt lat="45.4169133" lon="11.1838683"><ele>50.0</ele><time>2026-04-25T06:35:09.956Z</time></trkpt><trkpt lat="45.4168217" lon="11.18427"><ele>50.0</ele><time>2026-04-25T06:35:10.956Z</time></trkpt><trkpt lat="45.41673" lon="11.18467"><ele>51.0</ele><time>2026-04-25T06:35:11.956Z</time></trkpt><trkpt lat="45.4166383" lon="11.185075"><ele>52.0</ele><time>2026-04-25T06:35:12.955Z</time></trkpt><trkpt lat="45.4165467" lon="11.1854817"><ele>54.5</ele><time>2026-04-25T06:35:13.955Z</time></trkpt><trkpt lat="45.4164567" lon="11.1858883"><ele>57.0</ele><time>2026-04-25T06:35:14.955Z</time></trkpt><trkpt lat="45.416365" lon="11.1862883"><ele>54.0</ele><time>2026-04-25T06:35:15.955Z</time></trkpt><trkpt lat="45.4162733" lon="11.1866883"><ele>51.0</ele><time>2026-04-25T06:35:16.957Z</time></trkpt><trkpt lat="45.4161817" lon="11.1870883"><ele>51.0</ele><time>2026-04-25T06:35:17.954Z</time></trkpt><trkpt lat="45.4160933" lon="11.187495"><ele>51.0</ele><time>2026-04-25T06:35:18.954Z</time></trkpt><trkpt lat="45.4160017" lon="11.1878967"><ele>51.0</ele><time>2026-04-25T06:35:19.955Z</time></trkpt><trkpt lat="45.41591" lon="11.1883083"><ele>51.0</ele><time>2026-04-25T06:35:20.958Z</time></trkpt><trkpt lat="45.4158167" lon="11.188715"><ele>50.0</ele><time>2026-04-25T06:35:21.955Z</time></trkpt><trkpt lat="45.415725" lon="11.1891233"><ele>49.0</ele><time>2026-04-25T06:35:22.956Z</time></trkpt><trkpt lat="45.4156367" lon="11.1895317"><ele>49.0</ele><time>2026-04-25T06:35:23.956Z</time></trkpt><trkpt lat="45.4155467" lon="11.1899367"><ele>49.0</ele><time>2026-04-25T06:35:24.959Z</time></trkpt><trkpt lat="45.4154583" lon="11.19034"><ele>46.0</ele><time>2026-04-25T06:35:25.955Z</time></trkpt><trkpt lat="45.4153733" lon="11.1907433"><ele>43.0</ele><time>2026-04-25T06:35:26.956Z</time></trkpt><trkpt lat="45.4152933" lon="11.1911467"><ele>44.0</ele><time>2026-04-25T06:35:27.955Z</time></trkpt><trkpt lat="45.4152183" lon="11.1915483"><ele>45.0</ele><time>2026-04-25T06:35:28.957Z</time></trkpt><trkpt lat="45.4151483" lon="11.1919467"><ele>44.5</ele><time>2026-04-25T06:35:29.954Z</time></trkpt><trkpt lat="45.4150833" lon="11.1923433"><ele>44.0</ele><time>2026-04-25T06:35:30.955Z</time></trkpt><trkpt lat="45.4150183" lon="11.1927333"><ele>44.0</ele><time>2026-04-25T06:35:31.955Z</time></trkpt><trkpt lat="45.4149583" lon="11.193125"><ele>44.0</ele><time>2026-04-25T06:35:32.953Z</time></trkpt><trkpt lat="45.4148983" lon="11.1935167"><ele>42.5</ele><time>2026-04-25T06:35:33.954Z</time></trkpt><trkpt lat="45.414845" lon="11.19391"><ele>41.0</ele><time>2026-04-25T06:35:34.956Z</time></trkpt><trkpt lat="45.4147933" lon="11.194305"><ele>40.0</ele><time>2026-04-25T06:35:35.955Z</time></trkpt><trkpt lat="45.4147433" lon="11.1947017"><ele>39.0</ele><time>2026-04-25T06:35:36.954Z</time></trkpt><trkpt lat="45.4146967" lon="11.1950983"><ele>39.0</ele><time>2026-04-25T06:35:37.955Z</time></trkpt><trkpt lat="45.41465" lon="11.195495"><ele>39.0</ele><time>2026-04-25T06:35:38.955Z</time></trkpt><trkpt lat="45.41461" lon="11.1958983"><ele>38.0</ele><time>2026-04-25T06:35:39.956Z</time></trkpt><trkpt lat="45.4145683" lon="11.196305"><ele>37.0</ele><time>2026-04-25T06:35:40.956Z</time></trkpt><trkpt lat="45.4145283" lon="11.1967133"><ele>36.5</ele><time>2026-04-25T06:35:41.955Z</time></trkpt><trkpt lat="45.4144867" lon="11.1971233"><ele>36.0</ele><time>2026-04-25T06:35:42.956Z</time></trkpt><trkpt lat="45.414445" lon="11.197535"><ele>36.0</ele><time>2026-04-25T06:35:43.955Z</time></trkpt><trkpt lat="45.4144033" lon="11.1979517"><ele>36.0</ele><time>2026-04-25T06:35:44.955Z</time></trkpt><trkpt lat="45.41436" lon="11.19837"><ele>36.0</ele><time>2026-04-25T06:35:45.955Z</time></trkpt><trkpt lat="45.4143167" lon="11.1987883"><ele>36.0</ele><time>2026-04-25T06:35:46.956Z</time></trkpt><trkpt lat="45.4142733" lon="11.19921"><ele>35.5</ele><time>2026-04-25T06:35:47.955Z</time></trkpt><trkpt lat="45.41423" lon="11.1996317"><ele>35.0</ele><time>2026-04-25T06:35:48.956Z</time></trkpt><trkpt lat="45.4141883" lon="11.2000567"><ele>34.0</ele><time>2026-04-25T06:35:49.955Z</time></trkpt><trkpt lat="45.4141467" lon="11.2004833"><ele>33.0</ele><time>2026-04-25T06:35:50.957Z</time></trkpt><trkpt lat="45.4141067" lon="11.2009117"><ele>32.5</ele><time>2026-04-25T06:35:51.956Z</time></trkpt><trkpt lat="45.4140667" lon="11.20134"><ele>32.0</ele><time>2026-04-25T06:35:52.955Z</time></trkpt><trkpt lat="45.4140233" lon="11.201765"><ele>31.5</ele><time>2026-04-25T06:35:53.956Z</time></trkpt><trkpt lat="45.4139817" lon="11.2021917"><ele>31.0</ele><time>2026-04-25T06:35:54.955Z</time></trkpt><trkpt lat="45.41394" lon="11.2026183"><ele>30.5</ele><time>2026-04-25T06:35:55.955Z</time></trkpt><trkpt lat="45.4138983" lon="11.2030433"><ele>30.0</ele><time>2026-04-25T06:35:56.955Z</time></trkpt><trkpt lat="45.41386" lon="11.2034583"><ele>30.0</ele><time>2026-04-25T06:35:57.955Z</time></trkpt><trkpt lat="45.4138233" lon="11.2038567"><ele>30.0</ele><time>2026-04-25T06:35:58.955Z</time></trkpt><trkpt lat="45.413785" lon="11.2042433"><ele>29.0</ele><time>2026-04-25T06:35:59.955Z</time></trkpt><trkpt lat="45.4137483" lon="11.2046217"><ele>28.0</ele><time>2026-04-25T06:36:00.955Z</time></trkpt><trkpt lat="45.4137117" lon="11.205"><ele>28.0</ele><time>2026-04-25T06:36:01.953Z</time></trkpt><trkpt lat="45.4136767" lon="11.2053783"><ele>28.0</ele><time>2026-04-25T06:36:02.955Z</time></trkpt><trkpt lat="45.4136433" lon="11.20575"><ele>27.5</ele><time>2026-04-25T06:36:03.955Z</time></trkpt><trkpt lat="45.41361" lon="11.20611"><ele>27.0</ele><time>2026-04-25T06:36:04.956Z</time></trkpt><trkpt lat="45.413575" lon="11.2064583"><ele>27.5</ele><time>2026-04-25T06:36:05.955Z</time></trkpt><trkpt lat="45.4135417" lon="11.206805"><ele>28.0</ele><time>2026-04-25T06:36:06.955Z</time></trkpt><trkpt lat="45.4135083" lon="11.2071517"><ele>28.0</ele><time>2026-04-25T06:36:07.956Z</time></trkpt><trkpt lat="45.413475" lon="11.2074983"><ele>28.0</ele><time>2026-04-25T06:36:08.956Z</time></trkpt><trkpt lat="45.41344" lon="11.207845"><ele>28.0</ele><time>2026-04-25T06:36:09.956Z</time></trkpt><trkpt lat="45.4134033" lon="11.2081917"><ele>28.0</ele><time>2026-04-25T06:36:10.956Z</time></trkpt><trkpt lat="45.4133683" lon="11.2085367"><ele>28.0</ele><time>2026-04-25T06:36:11.955Z</time></trkpt><trkpt lat="45.4133367" lon="11.2088767"><ele>28.0</ele><time>2026-04-25T06:36:12.955Z</time></trkpt><trkpt lat="45.4133017" lon="11.2092033"><ele>28.5</ele><time>2026-04-25T06:36:13.955Z</time></trkpt><trkpt lat="45.41327" lon="11.209525"><ele>29.0</ele><time>2026-04-25T06:36:14.955Z</time></trkpt><trkpt lat="45.4132383" lon="11.2098433"><ele>29.0</ele><time>2026-04-25T06:36:15.955Z</time></trkpt><trkpt lat="45.4132083" lon="11.2101617"><ele>29.0</ele><time>2026-04-25T06:36:16.956Z</time></trkpt><trkpt lat="45.4131783" lon="11.2104817"><ele>29.5</ele><time>2026-04-25T06:36:17.955Z</time></trkpt><trkpt lat="45.4131483" lon="11.2108017"><ele>30.0</ele><time>2026-04-25T06:36:18.954Z</time></trkpt><trkpt lat="45.4131183" lon="11.2111217"><ele>30.0</ele><time>2026-04-25T06:36:19.956Z</time></trkpt><trkpt lat="45.413085" lon="11.2114433"><ele>30.0</ele><time>2026-04-25T06:36:20.956Z</time></trkpt><trkpt lat="45.4130533" lon="11.2117667"><ele>30.0</ele><time>2026-04-25T06:36:21.956Z</time></trkpt><trkpt lat="45.4130217" lon="11.2120917"><ele>30.0</ele><time>2026-04-25T06:36:22.956Z</time></trkpt><trkpt lat="45.4129883" lon="11.2124183"><ele>29.0</ele><time>2026-04-25T06:36:23.956Z</time></trkpt><trkpt lat="45.4129567" lon="11.2127433"><ele>28.0</ele><time>2026-04-25T06:36:24.956Z</time></trkpt><trkpt lat="45.412925" lon="11.2130633"><ele>28.0</ele><time>2026-04-25T06:36:25.956Z</time></trkpt><trkpt lat="45.4128933" lon="11.2133817"><ele>28.0</ele><time>2026-04-25T06:36:26.955Z</time></trkpt><trkpt lat="45.4128617" lon="11.2137033"><ele>29.5</ele><time>2026-04-25T06:36:27.955Z</time></trkpt><trkpt lat="45.41283" lon="11.214025"><ele>31.0</ele><time>2026-04-25T06:36:28.954Z</time></trkpt><trkpt lat="45.4127967" lon="11.21435"><ele>31.0</ele><time>2026-04-25T06:36:29.955Z</time></trkpt><trkpt lat="45.4127667" lon="11.2146733"><ele>31.0</ele><time>2026-04-25T06:36:30.955Z</time></trkpt><trkpt lat="45.4127383" lon="11.215"><ele>30.5</ele><time>2026-04-25T06:36:31.954Z</time></trkpt><trkpt lat="45.4127083" lon="11.21533"><ele>30.0</ele><time>2026-04-25T06:36:32.955Z</time></trkpt><trkpt lat="45.4126783" lon="11.2156633"><ele>29.5</ele><time>2026-04-25T06:36:33.954Z</time></trkpt><trkpt lat="45.41265" lon="11.2160033"><ele>29.0</ele><time>2026-04-25T06:36:34.955Z</time></trkpt><trkpt lat="45.4126167" lon="11.2163383"><ele>29.5</ele><time>2026-04-25T06:36:35.954Z</time></trkpt><trkpt lat="45.4125817" lon="11.21667"><ele>30.0</ele><time>2026-04-25T06:36:36.955Z</time></trkpt><trkpt lat="45.4125483" lon="11.2169967"><ele>30.5</ele><time>2026-04-25T06:36:37.955Z</time></trkpt><trkpt lat="45.412515" lon="11.2173217"><ele>31.0</ele><time>2026-04-25T06:36:38.955Z</time></trkpt><trkpt lat="45.412485" lon="11.2176467"><ele>31.0</ele><time>2026-04-25T06:36:39.955Z</time></trkpt><trkpt lat="45.4124567" lon="11.21798"><ele>31.0</ele><time>2026-04-25T06:36:40.955Z</time></trkpt><trkpt lat="45.4124283" lon="11.2183317"><ele>31.0</ele><time>2026-04-25T06:36:41.955Z</time></trkpt><trkpt lat="45.4123983" lon="11.218695"><ele>31.0</ele><time>2026-04-25T06:36:42.955Z</time></trkpt><trkpt lat="45.4123667" lon="11.219065"><ele>31.0</ele><time>2026-04-25T06:36:43.955Z</time></trkpt><trkpt lat="45.4123317" lon="11.2194467"><ele>31.0</ele><time>2026-04-25T06:36:44.957Z</time></trkpt><trkpt lat="45.412295" lon="11.2198417"><ele>31.5</ele><time>2026-04-25T06:36:45.955Z</time></trkpt><trkpt lat="45.4122617" lon="11.22025"><ele>32.0</ele><time>2026-04-25T06:36:46.955Z</time></trkpt><trkpt lat="45.4122233" lon="11.2206617"><ele>32.0</ele><time>2026-04-25T06:36:47.955Z</time></trkpt><trkpt lat="45.4121833" lon="11.2210767"><ele>32.0</ele><time>2026-04-25T06:36:48.956Z</time></trkpt><trkpt lat="45.4121433" lon="11.2214933"><ele>31.0</ele><time>2026-04-25T06:36:49.955Z</time></trkpt><trkpt lat="45.4121017" lon="11.2219067"><ele>30.0</ele><time>2026-04-25T06:36:50.955Z</time></trkpt><trkpt lat="45.41206" lon="11.22232"><ele>29.5</ele><time>2026-04-25T06:36:51.954Z</time></trkpt><trkpt lat="45.4120217" lon="11.2227333"><ele>29.0</ele><time>2026-04-25T06:36:52.955Z</time></trkpt><trkpt lat="45.4119867" lon="11.2231433"><ele>30.0</ele><time>2026-04-25T06:36:53.956Z</time></trkpt><trkpt lat="45.411945" lon="11.22355"><ele>31.0</ele><time>2026-04-25T06:36:54.956Z</time></trkpt><trkpt lat="45.4119" lon="11.2239517"><ele>30.5</ele><time>2026-04-25T06:36:55.956Z</time></trkpt><trkpt lat="45.4118517" lon="11.2243533"><ele>30.0</ele><time>2026-04-25T06:36:56.955Z</time></trkpt><trkpt lat="45.4118017" lon="11.2247533"><ele>30.5</ele><time>2026-04-25T06:36:57.954Z</time></trkpt><trkpt lat="45.4117567" lon="11.2251517"><ele>31.0</ele><time>2026-04-25T06:36:58.955Z</time></trkpt><trkpt lat="45.4117117" lon="11.22555"><ele>31.5</ele><time>2026-04-25T06:36:59.955Z</time></trkpt><trkpt lat="45.4116717" lon="11.2259517"><ele>32.0</ele><time>2026-04-25T06:37:00.956Z</time></trkpt><trkpt lat="45.41163" lon="11.2263533"><ele>30.5</ele><time>2026-04-25T06:37:01.955Z</time></trkpt><trkpt lat="45.4115917" lon="11.2267567"><ele>29.0</ele><time>2026-04-25T06:37:02.955Z</time></trkpt><trkpt lat="45.411555" lon="11.2271567"><ele>28.5</ele><time>2026-04-25T06:37:03.955Z</time></trkpt><trkpt lat="45.41152" lon="11.227555"><ele>28.0</ele><time>2026-04-25T06:37:04.955Z</time></trkpt><trkpt lat="45.411485" lon="11.2279517"><ele>28.0</ele><time>2026-04-25T06:37:05.956Z</time></trkpt><trkpt lat="45.4114533" lon="11.2283483"><ele>28.0</ele><time>2026-04-25T06:37:06.956Z</time></trkpt><trkpt lat="45.4114217" lon="11.228745"><ele>27.5</ele><time>2026-04-25T06:37:07.956Z</time></trkpt><trkpt lat="45.4113917" lon="11.22914"><ele>27.0</ele><time>2026-04-25T06:37:08.956Z</time></trkpt><trkpt lat="45.4113583" lon="11.2295317"><ele>28.5</ele><time>2026-04-25T06:37:09.955Z</time></trkpt><trkpt lat="45.4113233" lon="11.2299233"><ele>30.0</ele><time>2026-04-25T06:37:10.957Z</time></trkpt><trkpt lat="45.411285" lon="11.2303133"><ele>29.5</ele><time>2026-04-25T06:37:11.956Z</time></trkpt><trkpt lat="45.4112483" lon="11.230705"><ele>29.0</ele><time>2026-04-25T06:37:12.955Z</time></trkpt><trkpt lat="45.41121" lon="11.23109"><ele>29.5</ele><time>2026-04-25T06:37:13.956Z</time></trkpt><trkpt lat="45.4111733" lon="11.231475"><ele>30.0</ele><time>2026-04-25T06:37:14.955Z</time></trkpt><trkpt lat="45.4111367" lon="11.2318567"><ele>30.0</ele><time>2026-04-25T06:37:15.956Z</time></trkpt><trkpt lat="45.4110983" lon="11.2322383"><ele>30.0</ele><time>2026-04-25T06:37:16.955Z</time></trkpt><trkpt lat="45.41106" lon="11.23262"><ele>30.5</ele><time>2026-04-25T06:37:17.954Z</time></trkpt><trkpt lat="45.4110233" lon="11.233"><ele>31.0</ele><time>2026-04-25T06:37:18.954Z</time></trkpt><trkpt lat="45.4109883" lon="11.2333783"><ele>31.0</ele><time>2026-04-25T06:37:19.955Z</time></trkpt><trkpt lat="45.4109533" lon="11.23376"><ele>31.0</ele><time>2026-04-25T06:37:20.956Z</time></trkpt><trkpt lat="45.4109133" lon="11.2341433"><ele>31.0</ele><time>2026-04-25T06:37:21.956Z</time></trkpt><trkpt lat="45.4108717" lon="11.234535"><ele>31.0</ele><time>2026-04-25T06:37:22.956Z</time></trkpt><trkpt lat="45.410835" lon="11.2349333"><ele>31.0</ele><time>2026-04-25T06:37:23.956Z</time></trkpt><trkpt lat="45.4107983" lon="11.2353333"><ele>31.0</ele><time>2026-04-25T06:37:24.956Z</time></trkpt><trkpt lat="45.41076" lon="11.2357317"><ele>29.5</ele><time>2026-04-25T06:37:25.956Z</time></trkpt><trkpt lat="45.4107233" lon="11.2361317"><ele>28.0</ele><time>2026-04-25T06:37:26.956Z</time></trkpt><trkpt lat="45.4106833" lon="11.2365317"><ele>27.5</ele><time>2026-04-25T06:37:27.955Z</time></trkpt><trkpt lat="45.4106417" lon="11.2369333"><ele>27.0</ele><time>2026-04-25T06:37:28.955Z</time></trkpt><trkpt lat="45.4106" lon="11.2373317"><ele>27.0</ele><time>2026-04-25T06:37:29.955Z</time></trkpt><trkpt lat="45.4105617" lon="11.237735"><ele>27.0</ele><time>2026-04-25T06:37:30.954Z</time></trkpt><trkpt lat="45.41053" lon="11.23814"><ele>27.5</ele><time>2026-04-25T06:37:31.955Z</time></trkpt><trkpt lat="45.4105" lon="11.238545"><ele>28.0</ele><time>2026-04-25T06:37:32.955Z</time></trkpt><trkpt lat="45.41047" lon="11.2389533"><ele>29.5</ele><time>2026-04-25T06:37:33.954Z</time></trkpt><trkpt lat="45.4104383" lon="11.2393583"><ele>31.0</ele><time>2026-04-25T06:37:34.955Z</time></trkpt><trkpt lat="45.4104017" lon="11.2397617"><ele>30.5</ele><time>2026-04-25T06:37:35.955Z</time></trkpt><trkpt lat="45.41036" lon="11.2401617"><ele>30.0</ele><time>2026-04-25T06:37:36.955Z</time></trkpt><trkpt lat="45.41032" lon="11.2405633"><ele>30.0</ele><time>2026-04-25T06:37:37.955Z</time></trkpt><trkpt lat="45.4102783" lon="11.240965"><ele>30.0</ele><time>2026-04-25T06:37:38.954Z</time></trkpt><trkpt lat="45.41024" lon="11.241365"><ele>29.5</ele><time>2026-04-25T06:37:39.955Z</time></trkpt><trkpt lat="45.4102017" lon="11.241765"><ele>29.0</ele><time>2026-04-25T06:37:40.955Z</time></trkpt><trkpt lat="45.4101667" lon="11.242165"><ele>28.0</ele><time>2026-04-25T06:37:41.955Z</time></trkpt><trkpt lat="45.4101283" lon="11.242565"><ele>27.0</ele><time>2026-04-25T06:37:42.954Z</time></trkpt><trkpt lat="45.4100867" lon="11.242965"><ele>28.0</ele><time>2026-04-25T06:37:43.955Z</time></trkpt><trkpt lat="45.4100467" lon="11.2433633"><ele>29.0</ele><time>2026-04-25T06:37:44.956Z</time></trkpt><trkpt lat="45.410005" lon="11.2437633"><ele>29.5</ele><time>2026-04-25T06:37:45.955Z</time></trkpt><trkpt lat="45.409965" lon="11.2441633"><ele>30.0</ele><time>2026-04-25T06:37:46.956Z</time></trkpt><trkpt lat="45.409925" lon="11.2445633"><ele>30.0</ele><time>2026-04-25T06:37:47.955Z</time></trkpt><trkpt lat="45.4098867" lon="11.2449683"><ele>30.0</ele><time>2026-04-25T06:37:48.955Z</time></trkpt><trkpt lat="45.409845" lon="11.245375"><ele>29.0</ele><time>2026-04-25T06:37:49.954Z</time></trkpt><trkpt lat="45.4098033" lon="11.2457817"><ele>28.0</ele><time>2026-04-25T06:37:50.955Z</time></trkpt><trkpt lat="45.409765" lon="11.2461917"><ele>28.5</ele><time>2026-04-25T06:37:51.955Z</time></trkpt><trkpt lat="45.4097283" lon="11.2466"><ele>29.0</ele><time>2026-04-25T06:37:52.956Z</time></trkpt><trkpt lat="45.4096883" lon="11.2470083"><ele>30.5</ele><time>2026-04-25T06:37:53.955Z</time></trkpt><trkpt lat="45.40965" lon="11.2474167"><ele>32.0</ele><time>2026-04-25T06:37:54.955Z</time></trkpt><trkpt lat="45.4096117" lon="11.24782"><ele>32.0</ele><time>2026-04-25T06:37:55.954Z</time></trkpt><trkpt lat="45.4095717" lon="11.24822"><ele>32.0</ele><time>2026-04-25T06:37:56.956Z</time></trkpt><trkpt lat="45.40953" lon="11.248615"><ele>32.0</ele><time>2026-04-25T06:37:57.955Z</time></trkpt><trkpt lat="45.4094933" lon="11.2490133"><ele>32.0</ele><time>2026-04-25T06:37:58.955Z</time></trkpt><trkpt lat="45.409455" lon="11.249405"><ele>32.0</ele><time>2026-04-25T06:37:59.954Z</time></trkpt><trkpt lat="45.409415" lon="11.2497967"><ele>32.0</ele><time>2026-04-25T06:38:00.954Z</time></trkpt><trkpt lat="45.409375" lon="11.2501867"><ele>32.0</ele><time>2026-04-25T06:38:01.955Z</time></trkpt><trkpt lat="45.4093417" lon="11.2505767"><ele>32.0</ele><time>2026-04-25T06:38:02.955Z</time></trkpt><trkpt lat="45.409305" lon="11.250965"><ele>31.5</ele><time>2026-04-25T06:38:03.954Z</time></trkpt><trkpt lat="45.409265" lon="11.2513517"><ele>31.0</ele><time>2026-04-25T06:38:04.955Z</time></trkpt><trkpt lat="45.409225" lon="11.2517383"><ele>31.0</ele><time>2026-04-25T06:38:05.955Z</time></trkpt><trkpt lat="45.40919" lon="11.2521267"><ele>31.0</ele><time>2026-04-25T06:38:06.955Z</time></trkpt><trkpt lat="45.4091533" lon="11.2525133"><ele>31.0</ele><time>2026-04-25T06:38:07.954Z</time></trkpt><trkpt lat="45.4091183" lon="11.2529033"><ele>31.0</ele><time>2026-04-25T06:38:08.954Z</time></trkpt><trkpt lat="45.4090783" lon="11.2532933"><ele>31.0</ele><time>2026-04-25T06:38:09.953Z</time></trkpt><trkpt lat="45.40904" lon="11.2536833"><ele>31.0</ele><time>2026-04-25T06:38:10.954Z</time></trkpt><trkpt lat="45.4090033" lon="11.25408"><ele>30.0</ele><time>2026-04-25T06:38:11.954Z</time></trkpt><trkpt lat="45.4089633" lon="11.2544867"><ele>29.0</ele><time>2026-04-25T06:38:12.959Z</time></trkpt><trkpt lat="45.408925" lon="11.2549017"><ele>29.0</ele><time>2026-04-25T06:38:13.954Z</time></trkpt><trkpt lat="45.4088833" lon="11.25532"><ele>29.0</ele><time>2026-04-25T06:38:14.955Z</time></trkpt><trkpt lat="45.40884" lon="11.2557467"><ele>29.0</ele><time>2026-04-25T06:38:15.954Z</time></trkpt><trkpt lat="45.4088" lon="11.2561767"><ele>29.0</ele><time>2026-04-25T06:38:16.956Z</time></trkpt><trkpt lat="45.4087583" lon="11.2566067"><ele>29.0</ele><time>2026-04-25T06:38:17.954Z</time></trkpt><trkpt lat="45.4087217" lon="11.2570383"><ele>29.0</ele><time>2026-04-25T06:38:18.955Z</time></trkpt><trkpt lat="45.4086883" lon="11.25747"><ele>29.5</ele><time>2026-04-25T06:38:19.954Z</time></trkpt><trkpt lat="45.40866" lon="11.2579033"><ele>30.0</ele><time>2026-04-25T06:38:20.954Z</time></trkpt><trkpt lat="45.4086417" lon="11.25834"><ele>30.0</ele><time>2026-04-25T06:38:21.955Z</time></trkpt><trkpt lat="45.4086283" lon="11.258775"><ele>30.0</ele><time>2026-04-25T06:38:22.955Z</time></trkpt><trkpt lat="45.4086217" lon="11.2592067"><ele>30.0</ele><time>2026-04-25T06:38:23.955Z</time></trkpt><trkpt lat="45.4086267" lon="11.25964"><ele>30.0</ele><time>2026-04-25T06:38:24.955Z</time></trkpt><trkpt lat="45.4086367" lon="11.2600767"><ele>31.0</ele><time>2026-04-25T06:38:25.954Z</time></trkpt><trkpt lat="45.40865" lon="11.26051"><ele>32.0</ele><time>2026-04-25T06:38:26.959Z</time></trkpt><trkpt lat="45.40866" lon="11.260945"><ele>32.0</ele><time>2026-04-25T06:38:27.955Z</time></trkpt><trkpt lat="45.40867" lon="11.26138"><ele>32.0</ele><time>2026-04-25T06:38:28.955Z</time></trkpt><trkpt lat="45.408685" lon="11.261815"><ele>32.0</ele><time>2026-04-25T06:38:29.954Z</time></trkpt><trkpt lat="45.408695" lon="11.2622483"><ele>32.0</ele><time>2026-04-25T06:38:30.954Z</time></trkpt><trkpt lat="45.4086983" lon="11.2626783"><ele>29.5</ele><time>2026-04-25T06:38:31.954Z</time></trkpt><trkpt lat="45.4087033" lon="11.263115"><ele>27.0</ele><time>2026-04-25T06:38:32.955Z</time></trkpt><trkpt lat="45.4087067" lon="11.2635483"><ele>27.0</ele><time>2026-04-25T06:38:33.956Z</time></trkpt><trkpt lat="45.4087117" lon="11.2639833"><ele>27.0</ele><time>2026-04-25T06:38:34.957Z</time></trkpt><trkpt lat="45.40872" lon="11.2644167"><ele>26.5</ele><time>2026-04-25T06:38:35.955Z</time></trkpt><trkpt lat="45.40873" lon="11.26485"><ele>26.0</ele><time>2026-04-25T06:38:36.956Z</time></trkpt><trkpt lat="45.40874" lon="11.2652833"><ele>27.0</ele><time>2026-04-25T06:38:37.955Z</time></trkpt><trkpt lat="45.40875" lon="11.2657167"><ele>28.0</ele><time>2026-04-25T06:38:38.955Z</time></trkpt><trkpt lat="45.40876" lon="11.26615"><ele>27.5</ele><time>2026-04-25T06:38:39.955Z</time></trkpt><trkpt lat="45.4087717" lon="11.26658"><ele>27.0</ele><time>2026-04-25T06:38:40.956Z</time></trkpt><trkpt lat="45.408785" lon="11.26701"><ele>27.0</ele><time>2026-04-25T06:38:41.955Z</time></trkpt><trkpt lat="45.4087983" lon="11.2674433"><ele>27.0</ele><time>2026-04-25T06:38:42.956Z</time></trkpt><trkpt lat="45.40881" lon="11.267875"><ele>27.5</ele><time>2026-04-25T06:38:43.955Z</time></trkpt><trkpt lat="45.4088217" lon="11.2683083"><ele>28.0</ele><time>2026-04-25T06:38:44.955Z</time></trkpt><trkpt lat="45.4088383" lon="11.2687417"><ele>27.5</ele><time>2026-04-25T06:38:45.954Z</time></trkpt><trkpt lat="45.4088617" lon="11.269175"><ele>27.0</ele><time>2026-04-25T06:38:46.954Z</time></trkpt><trkpt lat="45.408895" lon="11.2696033"><ele>28.0</ele><time>2026-04-25T06:38:47.955Z</time></trkpt><trkpt lat="45.40893" lon="11.2700167"><ele>29.0</ele><time>2026-04-25T06:38:48.955Z</time></trkpt><trkpt lat="45.40897" lon="11.2704133"><ele>28.5</ele><time>2026-04-25T06:38:49.955Z</time></trkpt><trkpt lat="45.4090117" lon="11.270805"><ele>28.0</ele><time>2026-04-25T06:38:50.955Z</time></trkpt><trkpt lat="45.4090567" lon="11.271195"><ele>28.5</ele><time>2026-04-25T06:38:51.955Z</time></trkpt><trkpt lat="45.4091" lon="11.271585"><ele>29.0</ele><time>2026-04-25T06:38:52.956Z</time></trkpt><trkpt lat="45.40915" lon="11.2719733"><ele>29.0</ele><time>2026-04-25T06:38:53.953Z</time></trkpt><trkpt lat="45.4092067" lon="11.27236"><ele>29.0</ele><time>2026-04-25T06:38:54.954Z</time></trkpt><trkpt lat="45.4092683" lon="11.2727483"><ele>28.5</ele><time>2026-04-25T06:38:55.955Z</time></trkpt><trkpt lat="45.409335" lon="11.27314"><ele>28.0</ele><time>2026-04-25T06:38:56.96Z</time></trkpt><trkpt lat="45.409405" lon="11.2735317"><ele>28.0</ele><time>2026-04-25T06:38:57.955Z</time></trkpt><trkpt lat="45.4094817" lon="11.2739267"><ele>28.0</ele><time>2026-04-25T06:38:58.955Z</time></trkpt><trkpt lat="45.409565" lon="11.2743217"><ele>28.0</ele><time>2026-04-25T06:38:59.955Z</time></trkpt><trkpt lat="45.4096517" lon="11.274715"><ele>28.0</ele><time>2026-04-25T06:39:00.955Z</time></trkpt><trkpt lat="45.4097433" lon="11.2751083"><ele>28.5</ele><time>2026-04-25T06:39:01.956Z</time></trkpt><trkpt lat="45.4098367" lon="11.2755033"><ele>29.0</ele><time>2026-04-25T06:39:02.955Z</time></trkpt><trkpt lat="45.40993" lon="11.275895"><ele>29.0</ele><time>2026-04-25T06:39:03.953Z</time></trkpt><trkpt lat="45.4100217" lon="11.2762883"><ele>29.0</ele><time>2026-04-25T06:39:04.955Z</time></trkpt><trkpt lat="45.4101117" lon="11.2766817"><ele>29.5</ele><time>2026-04-25T06:39:05.955Z</time></trkpt><trkpt lat="45.410205" lon="11.2770733"><ele>30.0</ele><time>2026-04-25T06:39:06.955Z</time></trkpt><trkpt lat="45.4102967" lon="11.2774617"><ele>30.5</ele><time>2026-04-25T06:39:07.954Z</time></trkpt><trkpt lat="45.41039" lon="11.27785"><ele>31.0</ele><time>2026-04-25T06:39:08.955Z</time></trkpt><trkpt lat="45.4104833" lon="11.2782417"><ele>31.5</ele><time>2026-04-25T06:39:09.954Z</time></trkpt><trkpt lat="45.4105783" lon="11.2786333"><ele>32.0</ele><time>2026-04-25T06:39:10.955Z</time></trkpt><trkpt lat="45.4106733" lon="11.279025"><ele>31.0</ele><time>2026-04-25T06:39:11.955Z</time></trkpt><trkpt lat="45.4107667" lon="11.279415"><ele>30.0</ele><time>2026-04-25T06:39:12.955Z</time></trkpt><trkpt lat="45.41086" lon="11.279805"><ele>29.5</ele><time>2026-04-25T06:39:13.954Z</time></trkpt><trkpt lat="45.4109517" lon="11.280195"><ele>29.0</ele><time>2026-04-25T06:39:14.955Z</time></trkpt><trkpt lat="45.4110433" lon="11.280585"><ele>29.5</ele><time>2026-04-25T06:39:15.953Z</time></trkpt><trkpt lat="45.411135" lon="11.2809783"><ele>30.0</ele><time>2026-04-25T06:39:16.956Z</time></trkpt><trkpt lat="45.411225" lon="11.2813717"><ele>29.5</ele><time>2026-04-25T06:39:17.954Z</time></trkpt><trkpt lat="45.4113167" lon="11.2817683"><ele>29.0</ele><time>2026-04-25T06:39:18.955Z</time></trkpt><trkpt lat="45.4114083" lon="11.282165"><ele>29.0</ele><time>2026-04-25T06:39:19.955Z</time></trkpt><trkpt lat="45.4115033" lon="11.28256"><ele>29.0</ele><time>2026-04-25T06:39:20.955Z</time></trkpt><trkpt lat="45.4115967" lon="11.2829517"><ele>29.5</ele><time>2026-04-25T06:39:21.955Z</time></trkpt><trkpt lat="45.41169" lon="11.2833417"><ele>30.0</ele><time>2026-04-25T06:39:22.956Z</time></trkpt><trkpt lat="45.4117833" lon="11.2837333"><ele>31.0</ele><time>2026-04-25T06:39:23.956Z</time></trkpt><trkpt lat="45.4118767" lon="11.2841217"><ele>32.0</ele><time>2026-04-25T06:39:24.956Z</time></trkpt><trkpt lat="45.41197" lon="11.28451"><ele>32.0</ele><time>2026-04-25T06:39:25.955Z</time></trkpt><trkpt lat="45.4120617" lon="11.2849"><ele>32.0</ele><time>2026-04-25T06:39:26.956Z</time></trkpt><trkpt lat="45.4121517" lon="11.28529"><ele>33.0</ele><time>2026-04-25T06:39:27.955Z</time></trkpt><trkpt lat="45.4122433" lon="11.28568"><ele>34.0</ele><time>2026-04-25T06:39:28.956Z</time></trkpt><trkpt lat="45.412335" lon="11.28607"><ele>33.5</ele><time>2026-04-25T06:39:29.956Z</time></trkpt><trkpt lat="45.412425" lon="11.2864633"><ele>33.0</ele><time>2026-04-25T06:39:30.955Z</time></trkpt><trkpt lat="45.4125167" lon="11.2868533"><ele>33.0</ele><time>2026-04-25T06:39:31.954Z</time></trkpt><trkpt lat="45.41261" lon="11.2872433"><ele>33.0</ele><time>2026-04-25T06:39:32.955Z</time></trkpt><trkpt lat="45.4127033" lon="11.2876333"><ele>32.5</ele><time>2026-04-25T06:39:33.955Z</time></trkpt><trkpt lat="45.412795" lon="11.2880233"><ele>32.0</ele><time>2026-04-25T06:39:34.956Z</time></trkpt><trkpt lat="45.4128867" lon="11.2884133"><ele>32.0</ele><time>2026-04-25T06:39:35.954Z</time></trkpt><trkpt lat="45.41298" lon="11.2888033"><ele>32.0</ele><time>2026-04-25T06:39:36.955Z</time></trkpt><trkpt lat="45.41307" lon="11.2891917"><ele>32.0</ele><time>2026-04-25T06:39:37.955Z</time></trkpt><trkpt lat="45.41316" lon="11.2895833"><ele>32.0</ele><time>2026-04-25T06:39:38.955Z</time></trkpt><trkpt lat="45.4132517" lon="11.2899733"><ele>32.0</ele><time>2026-04-25T06:39:39.955Z</time></trkpt><trkpt lat="45.413345" lon="11.290365"><ele>32.0</ele><time>2026-04-25T06:39:40.956Z</time></trkpt><trkpt lat="45.41344" lon="11.2907517"><ele>31.0</ele><time>2026-04-25T06:39:41.954Z</time></trkpt><trkpt lat="45.4135333" lon="11.2911367"><ele>30.0</ele><time>2026-04-25T06:39:42.955Z</time></trkpt><trkpt lat="45.413625" lon="11.2915217"><ele>30.0</ele><time>2026-04-25T06:39:43.955Z</time></trkpt><trkpt lat="45.4137167" lon="11.29191"><ele>30.0</ele><time>2026-04-25T06:39:44.955Z</time></trkpt><trkpt lat="45.41381" lon="11.2923"><ele>30.5</ele><time>2026-04-25T06:39:45.954Z</time></trkpt><trkpt lat="45.4139" lon="11.2926883"><ele>31.0</ele><time>2026-04-25T06:39:46.956Z</time></trkpt><trkpt lat="45.4139883" lon="11.293075"><ele>31.0</ele><time>2026-04-25T06:39:47.955Z</time></trkpt><trkpt lat="45.41408" lon="11.2934617"><ele>31.0</ele><time>2026-04-25T06:39:48.955Z</time></trkpt><trkpt lat="45.4141717" lon="11.2938483"><ele>30.5</ele><time>2026-04-25T06:39:49.954Z</time></trkpt><trkpt lat="45.4142633" lon="11.2942367"><ele>30.0</ele><time>2026-04-25T06:39:50.954Z</time></trkpt><trkpt lat="45.414355" lon="11.294625"><ele>29.5</ele><time>2026-04-25T06:39:51.955Z</time></trkpt><trkpt lat="45.414445" lon="11.295015"><ele>29.0</ele><time>2026-04-25T06:39:52.957Z</time></trkpt><trkpt lat="45.4145383" lon="11.295405"><ele>30.5</ele><time>2026-04-25T06:39:53.956Z</time></trkpt><trkpt lat="45.4146317" lon="11.2957917"><ele>32.0</ele><time>2026-04-25T06:39:54.956Z</time></trkpt><trkpt lat="45.4147233" lon="11.2961783"><ele>33.0</ele><time>2026-04-25T06:39:55.956Z</time></trkpt><trkpt lat="45.414815" lon="11.2965667"><ele>34.0</ele><time>2026-04-25T06:39:56.957Z</time></trkpt><trkpt lat="45.4149067" lon="11.2969567"><ele>33.5</ele><time>2026-04-25T06:39:57.956Z</time></trkpt><trkpt lat="45.4149983" lon="11.29735"><ele>33.0</ele><time>2026-04-25T06:39:58.956Z</time></trkpt><trkpt lat="45.41509" lon="11.2977417"><ele>32.0</ele><time>2026-04-25T06:39:59.956Z</time></trkpt><trkpt lat="45.415185" lon="11.2981317"><ele>31.0</ele><time>2026-04-25T06:40:00.956Z</time></trkpt><trkpt lat="45.4152783" lon="11.298525"><ele>30.5</ele><time>2026-04-25T06:40:01.955Z</time></trkpt><trkpt lat="45.4153717" lon="11.2989183"><ele>30.0</ele><time>2026-04-25T06:40:02.955Z</time></trkpt><trkpt lat="45.4154633" lon="11.2993117"><ele>31.0</ele><time>2026-04-25T06:40:03.955Z</time></trkpt><trkpt lat="45.4155533" lon="11.299705"><ele>32.0</ele><time>2026-04-25T06:40:04.956Z</time></trkpt><trkpt lat="45.4156467" lon="11.3000983"><ele>32.0</ele><time>2026-04-25T06:40:05.955Z</time></trkpt><trkpt lat="45.4157417" lon="11.3004933"><ele>32.0</ele><time>2026-04-25T06:40:06.954Z</time></trkpt><trkpt lat="45.4158333" lon="11.3008883"><ele>32.5</ele><time>2026-04-25T06:40:07.955Z</time></trkpt><trkpt lat="45.415925" lon="11.3012883"><ele>33.0</ele><time>2026-04-25T06:40:08.957Z</time></trkpt><trkpt lat="45.4160167" lon="11.3016883"><ele>32.0</ele><time>2026-04-25T06:40:09.955Z</time></trkpt><trkpt lat="45.4161117" lon="11.3020917"><ele>31.0</ele><time>2026-04-25T06:40:10.956Z</time></trkpt><trkpt lat="45.41621" lon="11.3024917"><ele>30.5</ele><time>2026-04-25T06:40:11.955Z</time></trkpt><trkpt lat="45.4163067" lon="11.3028933"><ele>30.0</ele><time>2026-04-25T06:40:12.955Z</time></trkpt><trkpt lat="45.4164" lon="11.30329"><ele>30.0</ele><time>2026-04-25T06:40:13.955Z</time></trkpt><trkpt lat="45.4164967" lon="11.3036917"><ele>30.0</ele><time>2026-04-25T06:40:14.955Z</time></trkpt><trkpt lat="45.41659" lon="11.3040917"><ele>30.0</ele><time>2026-04-25T06:40:15.955Z</time></trkpt><trkpt lat="45.416685" lon="11.3044933"><ele>30.0</ele><time>2026-04-25T06:40:16.957Z</time></trkpt><trkpt lat="45.4167783" lon="11.3048967"><ele>30.5</ele><time>2026-04-25T06:40:17.955Z</time></trkpt><trkpt lat="45.416875" lon="11.3053017"><ele>31.0</ele><time>2026-04-25T06:40:18.955Z</time></trkpt><trkpt lat="45.4169717" lon="11.3057067"><ele>31.0</ele><time>2026-04-25T06:40:19.956Z</time></trkpt><trkpt lat="45.4170667" lon="11.3061133"><ele>31.0</ele><time>2026-04-25T06:40:20.955Z</time></trkpt><trkpt lat="45.41716" lon="11.30652"><ele>31.0</ele><time>2026-04-25T06:40:21.956Z</time></trkpt><trkpt lat="45.4172533" lon="11.3069283"><ele>31.0</ele><time>2026-04-25T06:40:22.956Z</time></trkpt><trkpt lat="45.4173467" lon="11.3073383"><ele>31.0</ele><time>2026-04-25T06:40:23.954Z</time></trkpt><trkpt lat="45.4174417" lon="11.3077467"><ele>31.0</ele><time>2026-04-25T06:40:24.956Z</time></trkpt><trkpt lat="45.4175383" lon="11.3081533"><ele>31.0</ele><time>2026-04-25T06:40:25.956Z</time></trkpt><trkpt lat="45.4176367" lon="11.30856"><ele>31.0</ele><time>2026-04-25T06:40:26.955Z</time></trkpt><trkpt lat="45.4177333" lon="11.308965"><ele>30.5</ele><time>2026-04-25T06:40:27.956Z</time></trkpt><trkpt lat="45.41783" lon="11.3093733"><ele>30.0</ele><time>2026-04-25T06:40:28.956Z</time></trkpt><trkpt lat="45.4179267" lon="11.30978"><ele>30.0</ele><time>2026-04-25T06:40:29.955Z</time></trkpt><trkpt lat="45.4180217" lon="11.310185"><ele>30.0</ele><time>2026-04-25T06:40:30.956Z</time></trkpt><trkpt lat="45.4181167" lon="11.3105917"><ele>30.0</ele><time>2026-04-25T06:40:31.956Z</time></trkpt><trkpt lat="45.4182117" lon="11.311"><ele>30.0</ele><time>2026-04-25T06:40:32.956Z</time></trkpt><trkpt lat="45.4183083" lon="11.311405"><ele>29.5</ele><time>2026-04-25T06:40:33.954Z</time></trkpt><trkpt lat="45.4184057" lon="11.3118107"><ele>29.0</ele><time>2026-04-25T06:40:34.956Z</time></trkpt><trkpt lat="45.4185022" lon="11.3122127"><ele>30.0</ele><time>2026-04-25T06:40:35.954Z</time></trkpt><trkpt lat="45.418599" lon="11.3126175"><ele>31.0</ele><time>2026-04-25T06:40:36.956Z</time></trkpt><trkpt lat="45.4186958" lon="11.3130214"><ele>30.5</ele><time>2026-04-25T06:40:37.955Z</time></trkpt><trkpt lat="45.4187935" lon="11.3134258"><ele>30.0</ele><time>2026-04-25T06:40:38.954Z</time></trkpt><trkpt lat="45.4188906" lon="11.3138296"><ele>30.5</ele><time>2026-04-25T06:40:39.955Z</time></trkpt><trkpt lat="45.4189862" lon="11.3142331"><ele>31.0</ele><time>2026-04-25T06:40:40.955Z</time></trkpt><trkpt lat="45.4190836" lon="11.3146374"><ele>31.0</ele><time>2026-04-25T06:40:41.956Z</time></trkpt><trkpt lat="45.4191807" lon="11.3150438"><ele>31.0</ele><time>2026-04-25T06:40:42.956Z</time></trkpt><trkpt lat="45.4192785" lon="11.3154498"><ele>30.5</ele><time>2026-04-25T06:40:43.955Z</time></trkpt><trkpt lat="45.4193807" lon="11.3158551"><ele>30.0</ele><time>2026-04-25T06:40:44.954Z</time></trkpt><trkpt lat="45.4194863" lon="11.3162557"><ele>30.5</ele><time>2026-04-25T06:40:45.955Z</time></trkpt><trkpt lat="45.4195986" lon="11.3166536"><ele>31.0</ele><time>2026-04-25T06:40:46.956Z</time></trkpt><trkpt lat="45.4197142" lon="11.3170471"><ele>32.0</ele><time>2026-04-25T06:40:47.955Z</time></trkpt><trkpt lat="45.4198355" lon="11.3174363"><ele>33.0</ele><time>2026-04-25T06:40:48.955Z</time></trkpt><trkpt lat="45.419962" lon="11.3178216"><ele>32.0</ele><time>2026-04-25T06:40:49.956Z</time></trkpt><trkpt lat="45.4200935" lon="11.3182043"><ele>31.0</ele><time>2026-04-25T06:40:50.956Z</time></trkpt><trkpt lat="45.42023" lon="11.3185843"><ele>31.0</ele><time>2026-04-25T06:40:51.956Z</time></trkpt><trkpt lat="45.4203704" lon="11.3189633"><ele>31.0</ele><time>2026-04-25T06:40:52.957Z</time></trkpt><trkpt lat="45.4205129" lon="11.3193392"><ele>31.5</ele><time>2026-04-25T06:40:53.957Z</time></trkpt><trkpt lat="45.4206621" lon="11.3197104"><ele>32.0</ele><time>2026-04-25T06:40:54.957Z</time></trkpt><trkpt lat="45.4208117" lon="11.3200785"><ele>32.0</ele><time>2026-04-25T06:40:55.955Z</time></trkpt><trkpt lat="45.4209664" lon="11.3204434"><ele>32.0</ele><time>2026-04-25T06:40:56.956Z</time></trkpt><trkpt lat="45.4211235" lon="11.320805"><ele>32.0</ele><time>2026-04-25T06:40:57.957Z</time></trkpt><trkpt lat="45.4212819" lon="11.3211669"><ele>32.0</ele><time>2026-04-25T06:40:58.956Z</time></trkpt><trkpt lat="45.4214402" lon="11.3215274"><ele>33.0</ele><time>2026-04-25T06:40:59.956Z</time></trkpt><trkpt lat="45.4215986" lon="11.3218929"><ele>34.0</ele><time>2026-04-25T06:41:00.956Z</time></trkpt><trkpt lat="45.4217548" lon="11.3222601"><ele>34.0</ele><time>2026-04-25T06:41:01.955Z</time></trkpt><trkpt lat="45.4219114" lon="11.3226253"><ele>34.0</ele><time>2026-04-25T06:41:02.955Z</time></trkpt><trkpt lat="45.4220692" lon="11.32299"><ele>34.5</ele><time>2026-04-25T06:41:03.954Z</time></trkpt><trkpt lat="45.4222275" lon="11.323355"><ele>35.0</ele><time>2026-04-25T06:41:04.955Z</time></trkpt><trkpt lat="45.4223857" lon="11.323721"><ele>35.0</ele><time>2026-04-25T06:41:05.955Z</time></trkpt><trkpt lat="45.4225431" lon="11.3240867"><ele>35.0</ele><time>2026-04-25T06:41:06.955Z</time></trkpt><trkpt lat="45.4226998" lon="11.3244519"><ele>35.5</ele><time>2026-04-25T06:41:07.955Z</time></trkpt><trkpt lat="45.4228577" lon="11.3248169"><ele>36.0</ele><time>2026-04-25T06:41:08.955Z</time></trkpt><trkpt lat="45.4230148" lon="11.3251834"><ele>36.0</ele><time>2026-04-25T06:41:09.959Z</time></trkpt><trkpt lat="45.4231726" lon="11.3255508"><ele>36.0</ele><time>2026-04-25T06:41:10.956Z</time></trkpt><trkpt lat="45.4233285" lon="11.3259191"><ele>37.0</ele><time>2026-04-25T06:41:11.955Z</time></trkpt><trkpt lat="45.423485" lon="11.3262876"><ele>38.0</ele><time>2026-04-25T06:41:12.956Z</time></trkpt><trkpt lat="45.4236427" lon="11.3266546"><ele>36.5</ele><time>2026-04-25T06:41:13.955Z</time></trkpt><trkpt lat="45.4237984" lon="11.3270222"><ele>35.0</ele><time>2026-04-25T06:41:14.956Z</time></trkpt><trkpt lat="45.4239542" lon="11.3273902"><ele>35.0</ele><time>2026-04-25T06:41:15.954Z</time></trkpt><trkpt lat="45.424109" lon="11.3277564"><ele>35.0</ele><time>2026-04-25T06:41:16.956Z</time></trkpt><trkpt lat="45.4242632" lon="11.3281197"><ele>33.5</ele><time>2026-04-25T06:41:17.955Z</time></trkpt><trkpt lat="45.4244181" lon="11.3284804"><ele>32.0</ele><time>2026-04-25T06:41:18.956Z</time></trkpt><trkpt lat="45.4245728" lon="11.32884"><ele>32.0</ele><time>2026-04-25T06:41:19.955Z</time></trkpt><trkpt lat="45.4247277" lon="11.3291986"><ele>32.0</ele><time>2026-04-25T06:41:20.955Z</time></trkpt><trkpt lat="45.4248813" lon="11.3295541"><ele>31.5</ele><time>2026-04-25T06:41:21.957Z</time></trkpt><trkpt lat="45.4250358" lon="11.3299116"><ele>31.0</ele><time>2026-04-25T06:41:22.957Z</time></trkpt><trkpt lat="45.4251906" lon="11.3302683"><ele>30.0</ele><time>2026-04-25T06:41:23.957Z</time></trkpt><trkpt lat="45.4253455" lon="11.3306248"><ele>29.0</ele><time>2026-04-25T06:41:24.956Z</time></trkpt><trkpt lat="45.4254994" lon="11.3309806"><ele>31.5</ele><time>2026-04-25T06:41:25.956Z</time></trkpt><trkpt lat="45.4256566" lon="11.3313407"><ele>34.0</ele><time>2026-04-25T06:41:26.956Z</time></trkpt><trkpt lat="45.4258124" lon="11.3317036"><ele>34.0</ele><time>2026-04-25T06:41:27.955Z</time></trkpt><trkpt lat="45.4259678" lon="11.3320672"><ele>34.0</ele><time>2026-04-25T06:41:28.956Z</time></trkpt><trkpt lat="45.4261229" lon="11.3324306"><ele>34.5</ele><time>2026-04-25T06:41:29.955Z</time></trkpt><trkpt lat="45.4262781" lon="11.3327955"><ele>35.0</ele><time>2026-04-25T06:41:30.956Z</time></trkpt><trkpt lat="45.4264328" lon="11.3331593"><ele>35.0</ele><time>2026-04-25T06:41:31.955Z</time></trkpt><trkpt lat="45.426586" lon="11.333523"><ele>35.0</ele><time>2026-04-25T06:41:32.956Z</time></trkpt><trkpt lat="45.4267396" lon="11.3338846"><ele>34.5</ele><time>2026-04-25T06:41:33.954Z</time></trkpt><trkpt lat="45.4268934" lon="11.3342451"><ele>34.0</ele><time>2026-04-25T06:41:34.956Z</time></trkpt><trkpt lat="45.427048" lon="11.3346064"><ele>34.5</ele><time>2026-04-25T06:41:35.956Z</time></trkpt><trkpt lat="45.4272041" lon="11.334968"><ele>35.0</ele><time>2026-04-25T06:41:36.956Z</time></trkpt><trkpt lat="45.4273606" lon="11.3353283"><ele>34.5</ele><time>2026-04-25T06:41:37.955Z</time></trkpt><trkpt lat="45.4275161" lon="11.3356873"><ele>34.0</ele><time>2026-04-25T06:41:38.955Z</time></trkpt><trkpt lat="45.4276723" lon="11.336048"><ele>34.0</ele><time>2026-04-25T06:41:39.955Z</time></trkpt><trkpt lat="45.4278289" lon="11.3364109"><ele>34.0</ele><time>2026-04-25T06:41:40.956Z</time></trkpt><trkpt lat="45.4279868" lon="11.3367741"><ele>34.0</ele><time>2026-04-25T06:41:41.956Z</time></trkpt><trkpt lat="45.4281438" lon="11.3371374"><ele>34.0</ele><time>2026-04-25T06:41:42.956Z</time></trkpt><trkpt lat="45.4283006" lon="11.3374996"><ele>34.0</ele><time>2026-04-25T06:41:43.955Z</time></trkpt><trkpt lat="45.4284562" lon="11.3378616"><ele>34.0</ele><time>2026-04-25T06:41:44.956Z</time></trkpt><trkpt lat="45.4286136" lon="11.338223"><ele>34.0</ele><time>2026-04-25T06:41:45.954Z</time></trkpt><trkpt lat="45.4287693" lon="11.3385835"><ele>34.0</ele><time>2026-04-25T06:41:46.955Z</time></trkpt><trkpt lat="45.428923" lon="11.3389473"><ele>34.5</ele><time>2026-04-25T06:41:47.956Z</time></trkpt><trkpt lat="45.4290771" lon="11.3393111"><ele>35.0</ele><time>2026-04-25T06:41:48.955Z</time></trkpt><trkpt lat="45.4292325" lon="11.3396744"><ele>35.5</ele><time>2026-04-25T06:41:49.956Z</time></trkpt><trkpt lat="45.4293891" lon="11.3400366"><ele>36.0</ele><time>2026-04-25T06:41:50.956Z</time></trkpt><trkpt lat="45.4295445" lon="11.3403995"><ele>35.5</ele><time>2026-04-25T06:41:51.956Z</time></trkpt><trkpt lat="45.4296996" lon="11.3407614"><ele>35.0</ele><time>2026-04-25T06:41:52.956Z</time></trkpt><trkpt lat="45.4298558" lon="11.3411231"><ele>34.5</ele><time>2026-04-25T06:41:53.954Z</time></trkpt><trkpt lat="45.4300112" lon="11.3414837"><ele>34.0</ele><time>2026-04-25T06:41:54.956Z</time></trkpt><trkpt lat="45.4301687" lon="11.3418438"><ele>34.0</ele><time>2026-04-25T06:41:55.956Z</time></trkpt><trkpt lat="45.4303256" lon="11.3422063"><ele>34.0</ele><time>2026-04-25T06:41:56.955Z</time></trkpt><trkpt lat="45.4304811" lon="11.342568"><ele>34.5</ele><time>2026-04-25T06:41:57.955Z</time></trkpt><trkpt lat="45.4306362" lon="11.3429296"><ele>35.0</ele><time>2026-04-25T06:41:58.956Z</time></trkpt><trkpt lat="45.4307897" lon="11.3432939"><ele>35.5</ele><time>2026-04-25T06:41:59.956Z</time></trkpt><trkpt lat="45.4309412" lon="11.3436568"><ele>36.0</ele><time>2026-04-25T06:42:00.955Z</time></trkpt><trkpt lat="45.4310952" lon="11.34402"><ele>35.0</ele><time>2026-04-25T06:42:01.954Z</time></trkpt><trkpt lat="45.431252" lon="11.3443831"><ele>34.0</ele><time>2026-04-25T06:42:02.956Z</time></trkpt><trkpt lat="45.4314089" lon="11.344745"><ele>33.5</ele><time>2026-04-25T06:42:03.955Z</time></trkpt><trkpt lat="45.4315656" lon="11.3451066"><ele>33.0</ele><time>2026-04-25T06:42:04.956Z</time></trkpt><trkpt lat="45.4317211" lon="11.3454705"><ele>35.0</ele><time>2026-04-25T06:42:05.955Z</time></trkpt><trkpt lat="45.4318749" lon="11.3458325"><ele>37.0</ele><time>2026-04-25T06:42:06.955Z</time></trkpt><trkpt lat="45.4320297" lon="11.3461959"><ele>36.5</ele><time>2026-04-25T06:42:07.959Z</time></trkpt><trkpt lat="45.4321852" lon="11.3465576"><ele>36.0</ele><time>2026-04-25T06:42:08.955Z</time></trkpt><trkpt lat="45.4323404" lon="11.34692"><ele>35.0</ele><time>2026-04-25T06:42:09.956Z</time></trkpt><trkpt lat="45.4324958" lon="11.3472803"><ele>34.0</ele><time>2026-04-25T06:42:10.955Z</time></trkpt><trkpt lat="45.4326511" lon="11.3476416"><ele>34.0</ele><time>2026-04-25T06:42:11.953Z</time></trkpt><trkpt lat="45.4328048" lon="11.3480033"><ele>34.0</ele><time>2026-04-25T06:42:12.955Z</time></trkpt><trkpt lat="45.4329563" lon="11.3483604"><ele>35.5</ele><time>2026-04-25T06:42:13.955Z</time></trkpt><trkpt lat="45.433105" lon="11.3487105"><ele>37.0</ele><time>2026-04-25T06:42:14.955Z</time></trkpt><trkpt lat="45.4332554" lon="11.3490544"><ele>37.0</ele><time>2026-04-25T06:42:15.956Z</time></trkpt><trkpt lat="45.4334054" lon="11.3493962"><ele>37.0</ele><time>2026-04-25T06:42:16.956Z</time></trkpt><trkpt lat="45.4335541" lon="11.3497402"><ele>37.0</ele><time>2026-04-25T06:42:17.955Z</time></trkpt><trkpt lat="45.4337011" lon="11.3500865"><ele>37.0</ele><time>2026-04-25T06:42:18.955Z</time></trkpt><trkpt lat="45.4338488" lon="11.3504347"><ele>37.0</ele><time>2026-04-25T06:42:19.955Z</time></trkpt><trkpt lat="45.433999" lon="11.3507859"><ele>37.0</ele><time>2026-04-25T06:42:20.955Z</time></trkpt><trkpt lat="45.4341494" lon="11.3511387"><ele>36.5</ele><time>2026-04-25T06:42:21.955Z</time></trkpt><trkpt lat="45.4342996" lon="11.351491"><ele>36.0</ele><time>2026-04-25T06:42:22.956Z</time></trkpt><trkpt lat="45.4344509" lon="11.3518427"><ele>36.0</ele><time>2026-04-25T06:42:23.956Z</time></trkpt><trkpt lat="45.4346024" lon="11.3521931"><ele>36.0</ele><time>2026-04-25T06:42:24.955Z</time></trkpt><trkpt lat="45.4347541" lon="11.3525434"><ele>36.0</ele><time>2026-04-25T06:42:25.955Z</time></trkpt><trkpt lat="45.4349034" lon="11.3528946"><ele>36.0</ele><time>2026-04-25T06:42:26.955Z</time></trkpt><trkpt lat="45.4350531" lon="11.353246"><ele>36.0</ele><time>2026-04-25T06:42:27.955Z</time></trkpt><trkpt lat="45.435203" lon="11.3535963"><ele>36.0</ele><time>2026-04-25T06:42:28.956Z</time></trkpt><trkpt lat="45.4353538" lon="11.3539445"><ele>36.5</ele><time>2026-04-25T06:42:29.954Z</time></trkpt><trkpt lat="45.4355039" lon="11.3542902"><ele>37.0</ele><time>2026-04-25T06:42:30.955Z</time></trkpt><trkpt lat="45.435655" lon="11.3546351"><ele>38.5</ele><time>2026-04-25T06:42:31.954Z</time></trkpt><trkpt lat="45.4358041" lon="11.3549786"><ele>40.0</ele><time>2026-04-25T06:42:32.955Z</time></trkpt><trkpt lat="45.43595" lon="11.3553192"><ele>40.5</ele><time>2026-04-25T06:42:33.955Z</time></trkpt><trkpt lat="45.4360948" lon="11.3556579"><ele>41.0</ele><time>2026-04-25T06:42:34.956Z</time></trkpt><trkpt lat="45.4362381" lon="11.3559956"><ele>39.5</ele><time>2026-04-25T06:42:35.955Z</time></trkpt><trkpt lat="45.4363829" lon="11.3563361"><ele>38.0</ele><time>2026-04-25T06:42:36.955Z</time></trkpt><trkpt lat="45.4365292" lon="11.3566778"><ele>38.0</ele><time>2026-04-25T06:42:37.955Z</time></trkpt><trkpt lat="45.436676" lon="11.3570209"><ele>38.0</ele><time>2026-04-25T06:42:38.956Z</time></trkpt><trkpt lat="45.4368227" lon="11.3573604"><ele>37.5</ele><time>2026-04-25T06:42:39.955Z</time></trkpt><trkpt lat="45.4369708" lon="11.3577032"><ele>37.0</ele><time>2026-04-25T06:42:40.956Z</time></trkpt><trkpt lat="45.4371181" lon="11.3580492"><ele>37.5</ele><time>2026-04-25T06:42:41.955Z</time></trkpt><trkpt lat="45.4372677" lon="11.3583989"><ele>38.0</ele><time>2026-04-25T06:42:42.955Z</time></trkpt><trkpt lat="45.4374179" lon="11.3587519"><ele>38.0</ele><time>2026-04-25T06:42:43.954Z</time></trkpt><trkpt lat="45.4375682" lon="11.3591069"><ele>38.0</ele><time>2026-04-25T06:42:44.955Z</time></trkpt><trkpt lat="45.43772" lon="11.3594617"><ele>38.0</ele><time>2026-04-25T06:42:45.955Z</time></trkpt><trkpt lat="45.4378683" lon="11.3598117"><ele>38.0</ele><time>2026-04-25T06:42:46.956Z</time></trkpt><trkpt lat="45.4380167" lon="11.3601633"><ele>38.0</ele><time>2026-04-25T06:42:47.955Z</time></trkpt><trkpt lat="45.4381633" lon="11.3605133"><ele>38.0</ele><time>2026-04-25T06:42:48.954Z</time></trkpt><trkpt lat="45.4383133" lon="11.36086"><ele>37.5</ele><time>2026-04-25T06:42:49.956Z</time></trkpt><trkpt lat="45.4384617" lon="11.3612083"><ele>37.0</ele><time>2026-04-25T06:42:50.954Z</time></trkpt><trkpt lat="45.4386083" lon="11.3615467"><ele>37.0</ele><time>2026-04-25T06:42:51.954Z</time></trkpt><trkpt lat="45.43875" lon="11.3618783"><ele>37.0</ele><time>2026-04-25T06:42:52.956Z</time></trkpt><trkpt lat="45.43889" lon="11.3622033"><ele>37.5</ele><time>2026-04-25T06:42:53.955Z</time></trkpt><trkpt lat="45.4390233" lon="11.36252"><ele>38.0</ele><time>2026-04-25T06:42:54.955Z</time></trkpt><trkpt lat="45.4391517" lon="11.3628333"><ele>38.0</ele><time>2026-04-25T06:42:55.955Z</time></trkpt><trkpt lat="45.43928" lon="11.36315"><ele>38.0</ele><time>2026-04-25T06:42:56.955Z</time></trkpt><trkpt lat="45.4394067" lon="11.363475"><ele>38.0</ele><time>2026-04-25T06:42:57.955Z</time></trkpt><trkpt lat="45.4395367" lon="11.363805"><ele>38.0</ele><time>2026-04-25T06:42:58.956Z</time></trkpt><trkpt lat="45.439665" lon="11.36415"><ele>39.5</ele><time>2026-04-25T06:42:59.955Z</time></trkpt><trkpt lat="45.4397967" lon="11.3645183"><ele>41.0</ele><time>2026-04-25T06:43:00.954Z</time></trkpt><trkpt lat="45.4399233" lon="11.3649033"><ele>41.0</ele><time>2026-04-25T06:43:01.955Z</time></trkpt><trkpt lat="45.440045" lon="11.3653"><ele>41.0</ele><time>2026-04-25T06:43:02.955Z</time></trkpt><trkpt lat="45.4401633" lon="11.365705"><ele>40.5</ele><time>2026-04-25T06:43:03.955Z</time></trkpt><trkpt lat="45.440275" lon="11.3661133"><ele>40.0</ele><time>2026-04-25T06:43:04.956Z</time></trkpt><trkpt lat="45.4403833" lon="11.36653"><ele>41.0</ele><time>2026-04-25T06:43:05.955Z</time></trkpt><trkpt lat="45.44049" lon="11.36695"><ele>42.0</ele><time>2026-04-25T06:43:06.955Z</time></trkpt><trkpt lat="45.440595" lon="11.367375"><ele>42.0</ele><time>2026-04-25T06:43:07.954Z</time></trkpt><trkpt lat="45.4406967" lon="11.3677933"><ele>42.0</ele><time>2026-04-25T06:43:08.955Z</time></trkpt><trkpt lat="45.4407983" lon="11.368205"><ele>42.0</ele><time>2026-04-25T06:43:09.955Z</time></trkpt><trkpt lat="45.4408983" lon="11.368605"><ele>42.0</ele><time>2026-04-25T06:43:10.954Z</time></trkpt><trkpt lat="45.4409967" lon="11.3689967"><ele>41.5</ele><time>2026-04-25T06:43:11.955Z</time></trkpt><trkpt lat="45.4410967" lon="11.3693883"><ele>41.0</ele><time>2026-04-25T06:43:12.954Z</time></trkpt><trkpt lat="45.441195" lon="11.3697767"><ele>42.0</ele><time>2026-04-25T06:43:13.955Z</time></trkpt><trkpt lat="45.4412917" lon="11.3701667"><ele>43.0</ele><time>2026-04-25T06:43:14.954Z</time></trkpt><trkpt lat="45.44139" lon="11.3705517"><ele>43.0</ele><time>2026-04-25T06:43:15.955Z</time></trkpt><trkpt lat="45.4414883" lon="11.3709367"><ele>43.0</ele><time>2026-04-25T06:43:16.955Z</time></trkpt><trkpt lat="45.4415917" lon="11.3713233"><ele>42.0</ele><time>2026-04-25T06:43:17.955Z</time></trkpt><trkpt lat="45.4417033" lon="11.3717133"><ele>41.0</ele><time>2026-04-25T06:43:18.955Z</time></trkpt><trkpt lat="45.441825" lon="11.3721083"><ele>40.0</ele><time>2026-04-25T06:43:19.955Z</time></trkpt><trkpt lat="45.44195" lon="11.3725"><ele>39.0</ele><time>2026-04-25T06:43:20.955Z</time></trkpt><trkpt lat="45.4420783" lon="11.3728983"><ele>41.5</ele><time>2026-04-25T06:43:21.955Z</time></trkpt><trkpt lat="45.44221" lon="11.3732933"><ele>44.0</ele><time>2026-04-25T06:43:22.956Z</time></trkpt><trkpt lat="45.4423433" lon="11.3736883"><ele>43.5</ele><time>2026-04-25T06:43:23.954Z</time></trkpt><trkpt lat="45.4424817" lon="11.3740767"><ele>43.0</ele><time>2026-04-25T06:43:24.953Z</time></trkpt><trkpt lat="45.44263" lon="11.37446"><ele>43.0</ele><time>2026-04-25T06:43:25.955Z</time></trkpt><trkpt lat="45.4427833" lon="11.37484"><ele>43.0</ele><time>2026-04-25T06:43:26.955Z</time></trkpt><trkpt lat="45.4429417" lon="11.375215"><ele>42.5</ele><time>2026-04-25T06:43:27.956Z</time></trkpt><trkpt lat="45.4431" lon="11.3755767"><ele>42.0</ele><time>2026-04-25T06:43:28.955Z</time></trkpt><trkpt lat="45.4432583" lon="11.3759267"><ele>42.0</ele><time>2026-04-25T06:43:29.956Z</time></trkpt><trkpt lat="45.4434233" lon="11.3762717"><ele>42.0</ele><time>2026-04-25T06:43:30.955Z</time></trkpt><trkpt lat="45.44359" lon="11.3766117"><ele>43.0</ele><time>2026-04-25T06:43:31.955Z</time></trkpt><trkpt lat="45.44376" lon="11.3769483"><ele>44.0</ele><time>2026-04-25T06:43:32.955Z</time></trkpt><trkpt lat="45.4439333" lon="11.377275"><ele>44.5</ele><time>2026-04-25T06:43:33.955Z</time></trkpt><trkpt lat="45.444105" lon="11.377595"><ele>45.0</ele><time>2026-04-25T06:43:34.955Z</time></trkpt><trkpt lat="45.44428" lon="11.37791"><ele>45.0</ele><time>2026-04-25T06:43:35.955Z</time></trkpt><trkpt lat="45.4444583" lon="11.3782217"><ele>45.0</ele><time>2026-04-25T06:43:36.956Z</time></trkpt><trkpt lat="45.4446417" lon="11.3785317"><ele>44.0</ele><time>2026-04-25T06:43:37.956Z</time></trkpt><trkpt lat="45.44483" lon="11.3788367"><ele>43.0</ele><time>2026-04-25T06:43:38.956Z</time></trkpt><trkpt lat="45.445025" lon="11.3791367"><ele>43.0</ele><time>2026-04-25T06:43:39.956Z</time></trkpt><trkpt lat="45.4452233" lon="11.3794317"><ele>43.0</ele><time>2026-04-25T06:43:40.956Z</time></trkpt><trkpt lat="45.4454217" lon="11.3797233"><ele>44.0</ele><time>2026-04-25T06:43:41.956Z</time></trkpt><trkpt lat="45.445625" lon="11.3800083"><ele>45.0</ele><time>2026-04-25T06:43:42.956Z</time></trkpt><trkpt lat="45.4458317" lon="11.3802883"><ele>44.5</ele><time>2026-04-25T06:43:43.957Z</time></trkpt><trkpt lat="45.44604" lon="11.380565"><ele>44.0</ele><time>2026-04-25T06:43:44.956Z</time></trkpt><trkpt lat="45.4462517" lon="11.3808417"><ele>45.0</ele><time>2026-04-25T06:43:45.955Z</time></trkpt><trkpt lat="45.4464683" lon="11.3811217"><ele>46.0</ele><time>2026-04-25T06:43:46.956Z</time></trkpt><trkpt lat="45.4466833" lon="11.3814017"><ele>46.0</ele><time>2026-04-25T06:43:47.954Z</time></trkpt><trkpt lat="45.4469017" lon="11.3816817"><ele>46.0</ele><time>2026-04-25T06:43:48.955Z</time></trkpt><trkpt lat="45.447115" lon="11.38196"><ele>46.0</ele><time>2026-04-25T06:43:49.955Z</time></trkpt><trkpt lat="45.4473283" lon="11.3822417"><ele>46.0</ele><time>2026-04-25T06:43:50.956Z</time></trkpt><trkpt lat="45.44754" lon="11.382525"><ele>46.0</ele><time>2026-04-25T06:43:51.955Z</time></trkpt><trkpt lat="45.4477533" lon="11.3828083"><ele>46.0</ele><time>2026-04-25T06:43:52.955Z</time></trkpt><trkpt lat="45.4479717" lon="11.38309"><ele>46.0</ele><time>2026-04-25T06:43:53.955Z</time></trkpt><trkpt lat="45.44819" lon="11.383375"><ele>46.0</ele><time>2026-04-25T06:43:54.955Z</time></trkpt><trkpt lat="45.4484067" lon="11.3836617"><ele>45.5</ele><time>2026-04-25T06:43:55.954Z</time></trkpt><trkpt lat="45.4486283" lon="11.38395"><ele>45.0</ele><time>2026-04-25T06:43:56.955Z</time></trkpt><trkpt lat="45.448845" lon="11.3842367"><ele>44.5</ele><time>2026-04-25T06:43:57.954Z</time></trkpt><trkpt lat="45.44906" lon="11.3845233"><ele>44.0</ele><time>2026-04-25T06:43:58.955Z</time></trkpt><trkpt lat="45.4492783" lon="11.3848083"><ele>44.0</ele><time>2026-04-25T06:43:59.954Z</time></trkpt><trkpt lat="45.4494967" lon="11.3850933"><ele>44.0</ele><time>2026-04-25T06:44:00.957Z</time></trkpt><trkpt lat="45.4497117" lon="11.3853767"><ele>45.5</ele><time>2026-04-25T06:44:01.955Z</time></trkpt><trkpt lat="45.4499283" lon="11.38566"><ele>47.0</ele><time>2026-04-25T06:44:02.955Z</time></trkpt><trkpt lat="45.4501417" lon="11.3859383"><ele>47.0</ele><time>2026-04-25T06:44:03.955Z</time></trkpt><trkpt lat="45.4503567" lon="11.3862167"><ele>47.0</ele><time>2026-04-25T06:44:04.956Z</time></trkpt><trkpt lat="45.4505683" lon="11.386495"><ele>47.0</ele><time>2026-04-25T06:44:05.955Z</time></trkpt><trkpt lat="45.4507783" lon="11.386775"><ele>47.0</ele><time>2026-04-25T06:44:06.954Z</time></trkpt><trkpt lat="45.45099" lon="11.3870533"><ele>47.0</ele><time>2026-04-25T06:44:07.954Z</time></trkpt><trkpt lat="45.4511967" lon="11.38733"><ele>47.0</ele><time>2026-04-25T06:44:08.959Z</time></trkpt><trkpt lat="45.4514017" lon="11.38761"><ele>47.0</ele><time>2026-04-25T06:44:09.955Z</time></trkpt><trkpt lat="45.4516017" lon="11.3878967"><ele>47.0</ele><time>2026-04-25T06:44:10.956Z</time></trkpt><trkpt lat="45.4517967" lon="11.3881867"><ele>47.5</ele><time>2026-04-25T06:44:11.955Z</time></trkpt><trkpt lat="45.4519867" lon="11.388485"><ele>48.0</ele><time>2026-04-25T06:44:12.956Z</time></trkpt><trkpt lat="45.452175" lon="11.3887883"><ele>48.5</ele><time>2026-04-25T06:44:13.955Z</time></trkpt><trkpt lat="45.4523583" lon="11.3890983"><ele>49.0</ele><time>2026-04-25T06:44:14.954Z</time></trkpt><trkpt lat="45.4525383" lon="11.3894117"><ele>49.5</ele><time>2026-04-25T06:44:15.955Z</time></trkpt><trkpt lat="45.4527183" lon="11.3897267"><ele>50.0</ele><time>2026-04-25T06:44:16.955Z</time></trkpt><trkpt lat="45.4528983" lon="11.39005"><ele>50.0</ele><time>2026-04-25T06:44:17.955Z</time></trkpt><trkpt lat="45.45307" lon="11.39038"><ele>50.0</ele><time>2026-04-25T06:44:18.956Z</time></trkpt><trkpt lat="45.4532367" lon="11.3907133"><ele>50.5</ele><time>2026-04-25T06:44:19.955Z</time></trkpt><trkpt lat="45.453405" lon="11.3910533"><ele>51.0</ele><time>2026-04-25T06:44:20.955Z</time></trkpt><trkpt lat="45.45357" lon="11.3913967"><ele>51.5</ele><time>2026-04-25T06:44:21.954Z</time></trkpt><trkpt lat="45.453725" lon="11.3917517"><ele>52.0</ele><time>2026-04-25T06:44:22.956Z</time></trkpt><trkpt lat="45.45388" lon="11.392105"><ele>51.0</ele><time>2026-04-25T06:44:23.955Z</time></trkpt><trkpt lat="45.45403" lon="11.3924633"><ele>50.0</ele><time>2026-04-25T06:44:24.955Z</time></trkpt><trkpt lat="45.4541783" lon="11.3928217"><ele>50.0</ele><time>2026-04-25T06:44:25.955Z</time></trkpt><trkpt lat="45.4543233" lon="11.3931817"><ele>50.0</ele><time>2026-04-25T06:44:26.954Z</time></trkpt><trkpt lat="45.4544667" lon="11.39354"><ele>50.0</ele><time>2026-04-25T06:44:27.955Z</time></trkpt><trkpt lat="45.4546083" lon="11.3938983"><ele>50.0</ele><time>2026-04-25T06:44:28.956Z</time></trkpt><trkpt lat="45.4547467" lon="11.394255"><ele>50.0</ele><time>2026-04-25T06:44:29.955Z</time></trkpt><trkpt lat="45.45489" lon="11.3946083"><ele>50.0</ele><time>2026-04-25T06:44:30.954Z</time></trkpt><trkpt lat="45.45503" lon="11.3949567"><ele>49.5</ele><time>2026-04-25T06:44:31.954Z</time></trkpt><trkpt lat="45.4551683" lon="11.3953017"><ele>49.0</ele><time>2026-04-25T06:44:32.955Z</time></trkpt><trkpt lat="45.45531" lon="11.3956417"><ele>51.0</ele><time>2026-04-25T06:44:33.954Z</time></trkpt><trkpt lat="45.4554583" lon="11.39598"><ele>53.0</ele><time>2026-04-25T06:44:34.955Z</time></trkpt><trkpt lat="45.4556133" lon="11.396315"><ele>53.5</ele><time>2026-04-25T06:44:35.955Z</time></trkpt><trkpt lat="45.4557717" lon="11.3966483"><ele>54.0</ele><time>2026-04-25T06:44:36.956Z</time></trkpt><trkpt lat="45.45593" lon="11.3969783"><ele>52.0</ele><time>2026-04-25T06:44:37.955Z</time></trkpt><trkpt lat="45.4560933" lon="11.3973083"><ele>50.0</ele><time>2026-04-25T06:44:38.955Z</time></trkpt><trkpt lat="45.45626" lon="11.3976367"><ele>51.0</ele><time>2026-04-25T06:44:39.955Z</time></trkpt><trkpt lat="45.456435" lon="11.3979567"><ele>52.0</ele><time>2026-04-25T06:44:40.954Z</time></trkpt><trkpt lat="45.4566117" lon="11.39827"><ele>52.5</ele><time>2026-04-25T06:44:41.954Z</time></trkpt><trkpt lat="45.4567883" lon="11.3985767"><ele>53.0</ele><time>2026-04-25T06:44:42.955Z</time></trkpt><trkpt lat="45.456965" lon="11.3988783"><ele>54.0</ele><time>2026-04-25T06:44:43.954Z</time></trkpt><trkpt lat="45.4571483" lon="11.3991767"><ele>55.0</ele><time>2026-04-25T06:44:44.955Z</time></trkpt><trkpt lat="45.457335" lon="11.3994733"><ele>56.0</ele><time>2026-04-25T06:44:45.956Z</time></trkpt><trkpt lat="45.457525" lon="11.399765"><ele>57.0</ele><time>2026-04-25T06:44:46.956Z</time></trkpt><trkpt lat="45.45772" lon="11.40005"><ele>57.0</ele><time>2026-04-25T06:44:47.954Z</time></trkpt><trkpt lat="45.45792" lon="11.4003333"><ele>57.0</ele><time>2026-04-25T06:44:48.955Z</time></trkpt><trkpt lat="45.4581217" lon="11.4006133"><ele>58.0</ele><time>2026-04-25T06:44:49.955Z</time></trkpt><trkpt lat="45.458325" lon="11.40089"><ele>59.0</ele><time>2026-04-25T06:44:50.954Z</time></trkpt><trkpt lat="45.4585317" lon="11.401165"><ele>57.5</ele><time>2026-04-25T06:44:51.953Z</time></trkpt><trkpt lat="45.4587417" lon="11.4014317"><ele>56.0</ele><time>2026-04-25T06:44:52.96Z</time></trkpt><trkpt lat="45.4589567" lon="11.4016983"><ele>56.0</ele><time>2026-04-25T06:44:53.954Z</time></trkpt><trkpt lat="45.459175" lon="11.40196"><ele>56.0</ele><time>2026-04-25T06:44:54.955Z</time></trkpt><trkpt lat="45.4593883" lon="11.4022183"><ele>56.0</ele><time>2026-04-25T06:44:55.956Z</time></trkpt><trkpt lat="45.45961" lon="11.40248"><ele>56.0</ele><time>2026-04-25T06:44:56.956Z</time></trkpt><trkpt lat="45.4598317" lon="11.40274"><ele>55.5</ele><time>2026-04-25T06:44:57.954Z</time></trkpt><trkpt lat="45.460055" lon="11.403005"><ele>55.0</ele><time>2026-04-25T06:44:58.956Z</time></trkpt><trkpt lat="45.4602767" lon="11.403275"><ele>55.5</ele><time>2026-04-25T06:44:59.955Z</time></trkpt><trkpt lat="45.4605" lon="11.403545"><ele>56.0</ele><time>2026-04-25T06:45:00.955Z</time></trkpt><trkpt lat="45.460725" lon="11.403815"><ele>56.0</ele><time>2026-04-25T06:45:01.955Z</time></trkpt><trkpt lat="45.4609517" lon="11.4040817"><ele>56.0</ele><time>2026-04-25T06:45:02.955Z</time></trkpt><trkpt lat="45.4611767" lon="11.4043483"><ele>55.5</ele><time>2026-04-25T06:45:03.955Z</time></trkpt><trkpt lat="45.461405" lon="11.4046183"><ele>55.0</ele><time>2026-04-25T06:45:04.955Z</time></trkpt><trkpt lat="45.4616333" lon="11.4048917"><ele>54.5</ele><time>2026-04-25T06:45:05.954Z</time></trkpt><trkpt lat="45.46186" lon="11.4051667"><ele>54.0</ele><time>2026-04-25T06:45:06.955Z</time></trkpt><trkpt lat="45.4620883" lon="11.40544"><ele>54.0</ele><time>2026-04-25T06:45:07.955Z</time></trkpt><trkpt lat="45.4623183" lon="11.4057133"><ele>54.0</ele><time>2026-04-25T06:45:08.955Z</time></trkpt><trkpt lat="45.4625483" lon="11.4059883"><ele>54.0</ele><time>2026-04-25T06:45:09.954Z</time></trkpt><trkpt lat="45.4627733" lon="11.4062633"><ele>54.0</ele><time>2026-04-25T06:45:10.954Z</time></trkpt><trkpt lat="45.4629983" lon="11.4065433"><ele>54.0</ele><time>2026-04-25T06:45:11.954Z</time></trkpt><trkpt lat="45.4632217" lon="11.4068283"><ele>54.0</ele><time>2026-04-25T06:45:12.954Z</time></trkpt><trkpt lat="45.4634333" lon="11.4071167"><ele>54.0</ele><time>2026-04-25T06:45:13.954Z</time></trkpt><trkpt lat="45.4636433" lon="11.40741"><ele>54.0</ele><time>2026-04-25T06:45:14.955Z</time></trkpt><trkpt lat="45.46385" lon="11.407705"><ele>53.0</ele><time>2026-04-25T06:45:15.954Z</time></trkpt><trkpt lat="45.4640517" lon="11.408005"><ele>52.0</ele><time>2026-04-25T06:45:16.956Z</time></trkpt><trkpt lat="45.4642517" lon="11.4083033"><ele>52.0</ele><time>2026-04-25T06:45:17.953Z</time></trkpt><trkpt lat="45.4644517" lon="11.4086"><ele>52.0</ele><time>2026-04-25T06:45:18.955Z</time></trkpt><trkpt lat="45.4646517" lon="11.408895"><ele>51.0</ele><time>2026-04-25T06:45:19.955Z</time></trkpt><trkpt lat="45.464855" lon="11.40919"><ele>50.0</ele><time>2026-04-25T06:45:20.955Z</time></trkpt><trkpt lat="45.4650567" lon="11.4094867"><ele>50.0</ele><time>2026-04-25T06:45:21.954Z</time></trkpt><trkpt lat="45.4652633" lon="11.409785"><ele>50.0</ele><time>2026-04-25T06:45:22.956Z</time></trkpt><trkpt lat="45.4654667" lon="11.4100833"><ele>50.5</ele><time>2026-04-25T06:45:23.956Z</time></trkpt><trkpt lat="45.46567" lon="11.41038"><ele>51.0</ele><time>2026-04-25T06:45:24.956Z</time></trkpt><trkpt lat="45.4658733" lon="11.4106733"><ele>51.0</ele><time>2026-04-25T06:45:25.958Z</time></trkpt><trkpt lat="45.4660767" lon="11.410965"><ele>51.0</ele><time>2026-04-25T06:45:26.955Z</time></trkpt><trkpt lat="45.466275" lon="11.4112583"><ele>52.0</ele><time>2026-04-25T06:45:27.955Z</time></trkpt><trkpt lat="45.4664767" lon="11.4115517"><ele>53.0</ele><time>2026-04-25T06:45:28.955Z</time></trkpt><trkpt lat="45.46667" lon="11.41185"><ele>53.0</ele><time>2026-04-25T06:45:29.955Z</time></trkpt><trkpt lat="45.46686" lon="11.4121467"><ele>53.0</ele><time>2026-04-25T06:45:30.955Z</time></trkpt><trkpt lat="45.4670467" lon="11.4124417"><ele>52.0</ele><time>2026-04-25T06:45:31.955Z</time></trkpt><trkpt lat="45.4672417" lon="11.412735"><ele>51.0</ele><time>2026-04-25T06:45:32.956Z</time></trkpt><trkpt lat="45.4674367" lon="11.413025"><ele>51.0</ele><time>2026-04-25T06:45:33.957Z</time></trkpt><trkpt lat="45.4676333" lon="11.4133133"><ele>51.0</ele><time>2026-04-25T06:45:34.955Z</time></trkpt><trkpt lat="45.46783" lon="11.4136"><ele>49.5</ele><time>2026-04-25T06:45:35.954Z</time></trkpt><trkpt lat="45.4680283" lon="11.4138867"><ele>48.0</ele><time>2026-04-25T06:45:36.955Z</time></trkpt><trkpt lat="45.4682217" lon="11.4141717"><ele>48.0</ele><time>2026-04-25T06:45:37.955Z</time></trkpt><trkpt lat="45.4684133" lon="11.41446"><ele>48.0</ele><time>2026-04-25T06:45:38.955Z</time></trkpt><trkpt lat="45.468605" lon="11.4147467"><ele>48.0</ele><time>2026-04-25T06:45:39.954Z</time></trkpt><trkpt lat="45.4688" lon="11.41503"><ele>48.0</ele><time>2026-04-25T06:45:40.956Z</time></trkpt><trkpt lat="45.4689933" lon="11.415315"><ele>49.5</ele><time>2026-04-25T06:45:41.955Z</time></trkpt><trkpt lat="45.4691883" lon="11.4156017"><ele>51.0</ele><time>2026-04-25T06:45:42.955Z</time></trkpt><trkpt lat="45.4693817" lon="11.41589"><ele>51.0</ele><time>2026-04-25T06:45:43.955Z</time></trkpt><trkpt lat="45.4695767" lon="11.41618"><ele>51.0</ele><time>2026-04-25T06:45:44.955Z</time></trkpt><trkpt lat="45.4697717" lon="11.41647"><ele>51.0</ele><time>2026-04-25T06:45:45.955Z</time></trkpt><trkpt lat="45.469965" lon="11.4167583"><ele>51.0</ele><time>2026-04-25T06:45:46.955Z</time></trkpt><trkpt lat="45.470155" lon="11.4170483"><ele>50.5</ele><time>2026-04-25T06:45:47.954Z</time></trkpt><trkpt lat="45.4703433" lon="11.4173383"><ele>50.0</ele><time>2026-04-25T06:45:48.954Z</time></trkpt><trkpt lat="45.4705283" lon="11.4176317"><ele>51.0</ele><time>2026-04-25T06:45:49.955Z</time></trkpt><trkpt lat="45.4707117" lon="11.4179267"><ele>52.0</ele><time>2026-04-25T06:45:50.955Z</time></trkpt><trkpt lat="45.470895" lon="11.4182217"><ele>52.0</ele><time>2026-04-25T06:45:51.956Z</time></trkpt><trkpt lat="45.4710767" lon="11.4185167"><ele>52.0</ele><time>2026-04-25T06:45:52.956Z</time></trkpt><trkpt lat="45.47126" lon="11.41882"><ele>54.0</ele><time>2026-04-25T06:45:53.959Z</time></trkpt><trkpt lat="45.4714433" lon="11.41912"><ele>56.0</ele><time>2026-04-25T06:45:54.954Z</time></trkpt><trkpt lat="45.471625" lon="11.4194183"><ele>54.5</ele><time>2026-04-25T06:45:55.955Z</time></trkpt><trkpt lat="45.4718083" lon="11.4197167"><ele>53.0</ele><time>2026-04-25T06:45:56.954Z</time></trkpt><trkpt lat="45.4719883" lon="11.4200167"><ele>54.0</ele><time>2026-04-25T06:45:57.956Z</time></trkpt><trkpt lat="45.4721733" lon="11.4203167"><ele>55.0</ele><time>2026-04-25T06:45:58.956Z</time></trkpt><trkpt lat="45.4723567" lon="11.4206183"><ele>55.5</ele><time>2026-04-25T06:45:59.956Z</time></trkpt><trkpt lat="45.4725367" lon="11.4209233"><ele>56.0</ele><time>2026-04-25T06:46:00.953Z</time></trkpt><trkpt lat="45.4727183" lon="11.4212317"><ele>56.0</ele><time>2026-04-25T06:46:01.954Z</time></trkpt><trkpt lat="45.4729" lon="11.421545"><ele>56.0</ele><time>2026-04-25T06:46:02.955Z</time></trkpt><trkpt lat="45.4730833" lon="11.4218583"><ele>53.0</ele><time>2026-04-25T06:46:03.954Z</time></trkpt><trkpt lat="45.4732683" lon="11.4221733"><ele>50.0</ele><time>2026-04-25T06:46:04.956Z</time></trkpt><trkpt lat="45.473445" lon="11.4224883"><ele>50.0</ele><time>2026-04-25T06:46:05.955Z</time></trkpt><trkpt lat="45.4736167" lon="11.4228017"><ele>50.0</ele><time>2026-04-25T06:46:06.955Z</time></trkpt><trkpt lat="45.47379" lon="11.4231083"><ele>51.5</ele><time>2026-04-25T06:46:07.956Z</time></trkpt><trkpt lat="45.4739583" lon="11.4234133"><ele>53.0</ele><time>2026-04-25T06:46:08.956Z</time></trkpt><trkpt lat="45.47412" lon="11.4237067"><ele>51.0</ele><time>2026-04-25T06:46:09.955Z</time></trkpt><trkpt lat="45.4742783" lon="11.42399"><ele>49.0</ele><time>2026-04-25T06:46:10.956Z</time></trkpt><trkpt lat="45.4744333" lon="11.4242683"><ele>49.0</ele><time>2026-04-25T06:46:11.956Z</time></trkpt><trkpt lat="45.474585" lon="11.4245367"><ele>49.0</ele><time>2026-04-25T06:46:12.957Z</time></trkpt><trkpt lat="45.4747333" lon="11.4247933"><ele>50.33333333333333</ele><time>2026-04-25T06:46:13.955Z</time></trkpt><trkpt lat="45.47488" lon="11.4250333"><ele>51.66666666666667</ele><time>2026-04-25T06:46:14.955Z</time></trkpt><trkpt lat="45.4750283" lon="11.425255"><ele>53.0</ele><time>2026-04-25T06:46:15.955Z</time></trkpt><trkpt lat="45.475185" lon="11.4254433"><ele>54.66666666666667</ele><time>2026-04-25T06:46:16.954Z</time></trkpt><trkpt lat="45.4753583" lon="11.4255883"><ele>56.33333333333333</ele><time>2026-04-25T06:46:17.955Z</time></trkpt><trkpt lat="45.4755517" lon="11.425685"><ele>58.0</ele><time>2026-04-25T06:46:18.955Z</time></trkpt><trkpt lat="45.47575" lon="11.42573"><ele>58.0</ele><time>2026-04-25T06:46:19.955Z</time></trkpt><trkpt lat="45.475955" lon="11.42572"><ele>58.0</ele><time>2026-04-25T06:46:20.955Z</time></trkpt><trkpt lat="45.4761733" lon="11.4256667"><ele>58.0</ele><time>2026-04-25T06:46:21.955Z</time></trkpt><trkpt lat="45.4764083" lon="11.4255817"><ele>55.5</ele><time>2026-04-25T06:46:22.955Z</time></trkpt><trkpt lat="45.476665" lon="11.4254833"><ele>53.0</ele><time>2026-04-25T06:46:23.955Z</time></trkpt><trkpt lat="45.47693" lon="11.425385"><ele>50.5</ele><time>2026-04-25T06:46:24.955Z</time></trkpt><trkpt lat="45.477195" lon="11.4252883"><ele>48.0</ele><time>2026-04-25T06:46:25.955Z</time></trkpt><trkpt lat="45.4774583" lon="11.4251867"><ele>48.0</ele><time>2026-04-25T06:46:26.954Z</time></trkpt><trkpt lat="45.47772" lon="11.4250867"><ele>48.0</ele><time>2026-04-25T06:46:27.956Z</time></trkpt><trkpt lat="45.477975" lon="11.4249883"><ele>48.0</ele><time>2026-04-25T06:46:28.956Z</time></trkpt><trkpt lat="45.4782217" lon="11.4249"><ele>48.0</ele><time>2026-04-25T06:46:29.956Z</time></trkpt><trkpt lat="45.478455" lon="11.4248333"><ele>48.0</ele><time>2026-04-25T06:46:30.955Z</time></trkpt><trkpt lat="45.478685" lon="11.4247883"><ele>48.0</ele><time>2026-04-25T06:46:31.956Z</time></trkpt><trkpt lat="45.478905" lon="11.4247733"><ele>48.33333333333333</ele><time>2026-04-25T06:46:32.956Z</time></trkpt><trkpt lat="45.4791217" lon="11.4247933"><ele>48.666666666666664</ele><time>2026-04-25T06:46:33.955Z</time></trkpt><trkpt lat="45.47933" lon="11.4248367"><ele>49.0</ele><time>2026-04-25T06:46:34.956Z</time></trkpt><trkpt lat="45.4795317" lon="11.42491"><ele>49.33333333333333</ele><time>2026-04-25T06:46:35.956Z</time></trkpt><trkpt lat="45.479735" lon="11.4250133"><ele>49.66666666666667</ele><time>2026-04-25T06:46:36.956Z</time></trkpt><trkpt lat="45.4799467" lon="11.425145"><ele>50.0</ele><time>2026-04-25T06:46:37.956Z</time></trkpt><trkpt lat="45.4801633" lon="11.425295"><ele>50.0</ele><time>2026-04-25T06:46:38.956Z</time></trkpt><trkpt lat="45.4803883" lon="11.4254617"><ele>50.0</ele><time>2026-04-25T06:46:39.957Z</time></trkpt><trkpt lat="45.48062" lon="11.4256417"><ele>51.0</ele><time>2026-04-25T06:46:40.956Z</time></trkpt><trkpt lat="45.4808667" lon="11.425825"><ele>52.0</ele><time>2026-04-25T06:46:41.955Z</time></trkpt><trkpt lat="45.4811233" lon="11.426015"><ele>52.5</ele><time>2026-04-25T06:46:42.956Z</time></trkpt><trkpt lat="45.481375" lon="11.4262017"><ele>53.0</ele><time>2026-04-25T06:46:43.956Z</time></trkpt><trkpt lat="45.4816117" lon="11.426375"><ele>50.5</ele><time>2026-04-25T06:46:44.954Z</time></trkpt><trkpt lat="45.4818417" lon="11.4265367"><ele>48.0</ele><time>2026-04-25T06:46:45.956Z</time></trkpt><trkpt lat="45.482075" lon="11.426675"><ele>50.0</ele><time>2026-04-25T06:46:46.956Z</time></trkpt><trkpt lat="45.482305" lon="11.4267883"><ele>52.0</ele><time>2026-04-25T06:46:47.955Z</time></trkpt><trkpt lat="45.4825317" lon="11.4268583"><ele>52.0</ele><time>2026-04-25T06:46:48.956Z</time></trkpt><trkpt lat="45.48275" lon="11.4268917"><ele>52.0</ele><time>2026-04-25T06:46:49.956Z</time></trkpt><trkpt lat="45.4829617" lon="11.4268967"><ele>52.0</ele><time>2026-04-25T06:46:50.955Z</time></trkpt><trkpt lat="45.48317" lon="11.426875"><ele>51.666666666666664</ele><time>2026-04-25T06:46:51.955Z</time></trkpt><trkpt lat="45.483375" lon="11.426825"><ele>51.33333333333333</ele><time>2026-04-25T06:46:52.956Z</time></trkpt><trkpt lat="45.483575" lon="11.426745"><ele>51.0</ele><time>2026-04-25T06:46:53.955Z</time></trkpt><trkpt lat="45.4837683" lon="11.4266383"><ele>51.0</ele><time>2026-04-25T06:46:54.956Z</time></trkpt><trkpt lat="45.4839583" lon="11.4265133"><ele>51.0</ele><time>2026-04-25T06:46:55.956Z</time></trkpt><trkpt lat="45.48414" lon="11.426375"><ele>51.0</ele><time>2026-04-25T06:46:56.956Z</time></trkpt><trkpt lat="45.48431" lon="11.4262117"><ele>50.66666666666667</ele><time>2026-04-25T06:46:57.955Z</time></trkpt><trkpt lat="45.4844717" lon="11.42603"><ele>50.333333333333336</ele><time>2026-04-25T06:46:58.956Z</time></trkpt><trkpt lat="45.4846267" lon="11.4258217"><ele>50.0</ele><time>2026-04-25T06:46:59.954Z</time></trkpt><trkpt lat="45.484765" lon="11.4255783"><ele>50.5</ele><time>2026-04-25T06:47:00.955Z</time></trkpt><trkpt lat="45.4848983" lon="11.4253017"><ele>51.0</ele><time>2026-04-25T06:47:01.955Z</time></trkpt><trkpt lat="45.4850283" lon="11.424995"><ele>51.0</ele><time>2026-04-25T06:47:02.955Z</time></trkpt><trkpt lat="45.4851633" lon="11.4246733"><ele>51.0</ele><time>2026-04-25T06:47:03.956Z</time></trkpt><trkpt lat="45.4853083" lon="11.4243483"><ele>50.5</ele><time>2026-04-25T06:47:04.956Z</time></trkpt><trkpt lat="45.4854517" lon="11.4240183"><ele>50.0</ele><time>2026-04-25T06:47:05.955Z</time></trkpt><trkpt lat="45.485595" lon="11.42368"><ele>50.0</ele><time>2026-04-25T06:47:06.955Z</time></trkpt><trkpt lat="45.4857433" lon="11.423345"><ele>50.0</ele><time>2026-04-25T06:47:07.956Z</time></trkpt><trkpt lat="45.4858867" lon="11.423005"><ele>51.5</ele><time>2026-04-25T06:47:08.956Z</time></trkpt><trkpt lat="45.4860367" lon="11.4226767"><ele>53.0</ele><time>2026-04-25T06:47:09.956Z</time></trkpt><trkpt lat="45.4861883" lon="11.4223583"><ele>54.5</ele><time>2026-04-25T06:47:10.955Z</time></trkpt><trkpt lat="45.4863533" lon="11.4220517"><ele>56.0</ele><time>2026-04-25T06:47:11.955Z</time></trkpt><trkpt lat="45.4865183" lon="11.4217433"><ele>56.0</ele><time>2026-04-25T06:47:12.955Z</time></trkpt><trkpt lat="45.486695" lon="11.4214333"><ele>56.0</ele><time>2026-04-25T06:47:13.956Z</time></trkpt><trkpt lat="45.48688" lon="11.4211167"><ele>56.0</ele><time>2026-04-25T06:47:14.954Z</time></trkpt><trkpt lat="45.487075" lon="11.4208"><ele>56.0</ele><time>2026-04-25T06:47:15.954Z</time></trkpt><trkpt lat="45.4872733" lon="11.4204867"><ele>56.0</ele><time>2026-04-25T06:47:16.956Z</time></trkpt><trkpt lat="45.4874783" lon="11.4201817"><ele>56.0</ele><time>2026-04-25T06:47:17.954Z</time></trkpt><trkpt lat="45.487685" lon="11.4198733"><ele>56.0</ele><time>2026-04-25T06:47:18.955Z</time></trkpt><trkpt lat="45.48789" lon="11.4195733"><ele>56.0</ele><time>2026-04-25T06:47:19.955Z</time></trkpt><trkpt lat="45.4880917" lon="11.4192867"><ele>56.0</ele><time>2026-04-25T06:47:20.956Z</time></trkpt><trkpt lat="45.48829" lon="11.41901"><ele>56.0</ele><time>2026-04-25T06:47:21.956Z</time></trkpt><trkpt lat="45.4884867" lon="11.41873"><ele>55.5</ele><time>2026-04-25T06:47:22.955Z</time></trkpt><trkpt lat="45.4886817" lon="11.4184533"><ele>55.0</ele><time>2026-04-25T06:47:23.956Z</time></trkpt><trkpt lat="45.4888733" lon="11.4181717"><ele>57.0</ele><time>2026-04-25T06:47:24.956Z</time></trkpt><trkpt lat="45.4890617" lon="11.4178917"><ele>59.0</ele><time>2026-04-25T06:47:25.956Z</time></trkpt><trkpt lat="45.4892517" lon="11.4176167"><ele>59.0</ele><time>2026-04-25T06:47:26.956Z</time></trkpt><trkpt lat="45.489445" lon="11.4173433"><ele>59.0</ele><time>2026-04-25T06:47:27.955Z</time></trkpt><trkpt lat="45.4896383" lon="11.4170617"><ele>59.0</ele><time>2026-04-25T06:47:28.955Z</time></trkpt><trkpt lat="45.4898317" lon="11.4167767"><ele>59.0</ele><time>2026-04-25T06:47:29.954Z</time></trkpt><trkpt lat="45.4900317" lon="11.4164883"><ele>61.5</ele><time>2026-04-25T06:47:30.954Z</time></trkpt><trkpt lat="45.4902283" lon="11.4161933"><ele>64.0</ele><time>2026-04-25T06:47:31.953Z</time></trkpt><trkpt lat="45.4904233" lon="11.415905"><ele>60.5</ele><time>2026-04-25T06:47:32.953Z</time></trkpt><trkpt lat="45.4906167" lon="11.415625"><ele>57.0</ele><time>2026-04-25T06:47:33.955Z</time></trkpt><trkpt lat="45.4908117" lon="11.41535"><ele>57.0</ele><time>2026-04-25T06:47:34.954Z</time></trkpt><trkpt lat="45.4910083" lon="11.4150767"><ele>57.0</ele><time>2026-04-25T06:47:35.955Z</time></trkpt><trkpt lat="45.4912" lon="11.4148017"><ele>56.5</ele><time>2026-04-25T06:47:36.955Z</time></trkpt><trkpt lat="45.4913917" lon="11.4145267"><ele>56.0</ele><time>2026-04-25T06:47:37.955Z</time></trkpt><trkpt lat="45.4915833" lon="11.4142533"><ele>56.0</ele><time>2026-04-25T06:47:38.957Z</time></trkpt><trkpt lat="45.491775" lon="11.4139783"><ele>56.0</ele><time>2026-04-25T06:47:39.955Z</time></trkpt><trkpt lat="45.4919667" lon="11.4137017"><ele>56.0</ele><time>2026-04-25T06:47:40.956Z</time></trkpt><trkpt lat="45.4921583" lon="11.4134267"><ele>56.0</ele><time>2026-04-25T06:47:41.956Z</time></trkpt><trkpt lat="45.4923483" lon="11.413155"><ele>57.0</ele><time>2026-04-25T06:47:42.955Z</time></trkpt><trkpt lat="45.49254" lon="11.4128817"><ele>58.0</ele><time>2026-04-25T06:47:43.955Z</time></trkpt><trkpt lat="45.49273" lon="11.4126067"><ele>58.0</ele><time>2026-04-25T06:47:44.955Z</time></trkpt><trkpt lat="45.4929183" lon="11.4123317"><ele>58.0</ele><time>2026-04-25T06:47:45.953Z</time></trkpt><trkpt lat="45.49311" lon="11.4120483"><ele>58.5</ele><time>2026-04-25T06:47:46.956Z</time></trkpt><trkpt lat="45.493305" lon="11.4117717"><ele>59.0</ele><time>2026-04-25T06:47:47.954Z</time></trkpt><trkpt lat="45.4934983" lon="11.411485"><ele>58.5</ele><time>2026-04-25T06:47:48.954Z</time></trkpt><trkpt lat="45.493695" lon="11.4112017"><ele>58.0</ele><time>2026-04-25T06:47:49.955Z</time></trkpt><trkpt lat="45.49389" lon="11.4109117"><ele>58.0</ele><time>2026-04-25T06:47:50.955Z</time></trkpt><trkpt lat="45.49409" lon="11.4106267"><ele>58.0</ele><time>2026-04-25T06:47:51.955Z</time></trkpt><trkpt lat="45.4942883" lon="11.4103367"><ele>58.5</ele><time>2026-04-25T06:47:52.955Z</time></trkpt><trkpt lat="45.49449" lon="11.41005"><ele>59.0</ele><time>2026-04-25T06:47:53.954Z</time></trkpt><trkpt lat="45.4946917" lon="11.40976"><ele>60.5</ele><time>2026-04-25T06:47:54.956Z</time></trkpt><trkpt lat="45.4948933" lon="11.4094683"><ele>62.0</ele><time>2026-04-25T06:47:55.955Z</time></trkpt><trkpt lat="45.4950967" lon="11.409175"><ele>62.0</ele><time>2026-04-25T06:47:56.954Z</time></trkpt><trkpt lat="45.4952983" lon="11.4088883"><ele>62.0</ele><time>2026-04-25T06:47:57.955Z</time></trkpt><trkpt lat="45.4955" lon="11.4086"><ele>61.0</ele><time>2026-04-25T06:47:58.955Z</time></trkpt><trkpt lat="45.4956933" lon="11.4083067"><ele>60.0</ele><time>2026-04-25T06:47:59.954Z</time></trkpt><trkpt lat="45.4958817" lon="11.40801"><ele>59.5</ele><time>2026-04-25T06:48:00.954Z</time></trkpt><trkpt lat="45.4960617" lon="11.4077083"><ele>59.0</ele><time>2026-04-25T06:48:01.955Z</time></trkpt><trkpt lat="45.496235" lon="11.4074017"><ele>60.5</ele><time>2026-04-25T06:48:02.955Z</time></trkpt><trkpt lat="45.4964" lon="11.4070883"><ele>62.0</ele><time>2026-04-25T06:48:03.956Z</time></trkpt><trkpt lat="45.4965567" lon="11.4067683"><ele>62.0</ele><time>2026-04-25T06:48:04.956Z</time></trkpt><trkpt lat="45.49671" lon="11.4064417"><ele>62.0</ele><time>2026-04-25T06:48:05.954Z</time></trkpt><trkpt lat="45.496855" lon="11.4061017"><ele>62.5</ele><time>2026-04-25T06:48:06.955Z</time></trkpt><trkpt lat="45.49699" lon="11.4057517"><ele>63.0</ele><time>2026-04-25T06:48:07.956Z</time></trkpt><trkpt lat="45.4971217" lon="11.4053967"><ele>63.5</ele><time>2026-04-25T06:48:08.955Z</time></trkpt><trkpt lat="45.4972517" lon="11.4050417"><ele>64.0</ele><time>2026-04-25T06:48:09.954Z</time></trkpt><trkpt lat="45.4973817" lon="11.404695"><ele>66.0</ele><time>2026-04-25T06:48:10.957Z</time></trkpt><trkpt lat="45.4975117" lon="11.40435"><ele>68.0</ele><time>2026-04-25T06:48:11.955Z</time></trkpt><trkpt lat="45.497645" lon="11.4040083"><ele>68.0</ele><time>2026-04-25T06:48:12.955Z</time></trkpt><trkpt lat="45.4977767" lon="11.403665"><ele>68.0</ele><time>2026-04-25T06:48:13.956Z</time></trkpt><trkpt lat="45.49791" lon="11.403325"><ele>67.0</ele><time>2026-04-25T06:48:14.955Z</time></trkpt><trkpt lat="45.4980417" lon="11.402985"><ele>66.0</ele><time>2026-04-25T06:48:15.956Z</time></trkpt><trkpt lat="45.49817" lon="11.4026483"><ele>66.0</ele><time>2026-04-25T06:48:16.956Z</time></trkpt><trkpt lat="45.4982983" lon="11.402315"><ele>66.0</ele><time>2026-04-25T06:48:17.955Z</time></trkpt><trkpt lat="45.4984283" lon="11.40198"><ele>66.5</ele><time>2026-04-25T06:48:18.953Z</time></trkpt><trkpt lat="45.4985567" lon="11.401645"><ele>67.0</ele><time>2026-04-25T06:48:19.954Z</time></trkpt><trkpt lat="45.4986867" lon="11.40131"><ele>65.5</ele><time>2026-04-25T06:48:20.956Z</time></trkpt><trkpt lat="45.498815" lon="11.4009767"><ele>64.0</ele><time>2026-04-25T06:48:21.955Z</time></trkpt><trkpt lat="45.4989417" lon="11.4006417"><ele>64.5</ele><time>2026-04-25T06:48:22.956Z</time></trkpt><trkpt lat="45.4990667" lon="11.400305"><ele>65.0</ele><time>2026-04-25T06:48:23.954Z</time></trkpt><trkpt lat="45.499195" lon="11.39997"><ele>65.0</ele><time>2026-04-25T06:48:24.955Z</time></trkpt><trkpt lat="45.4993283" lon="11.399635"><ele>65.0</ele><time>2026-04-25T06:48:25.955Z</time></trkpt><trkpt lat="45.49946" lon="11.399305"><ele>65.0</ele><time>2026-04-25T06:48:26.955Z</time></trkpt><trkpt lat="45.499595" lon="11.398985"><ele>65.0</ele><time>2026-04-25T06:48:27.956Z</time></trkpt><trkpt lat="45.4997383" lon="11.3986683"><ele>64.5</ele><time>2026-04-25T06:48:28.955Z</time></trkpt><trkpt lat="45.49989" lon="11.3983533"><ele>64.0</ele><time>2026-04-25T06:48:29.955Z</time></trkpt><trkpt lat="45.5000517" lon="11.3980433"><ele>61.5</ele><time>2026-04-25T06:48:30.956Z</time></trkpt><trkpt lat="45.5002217" lon="11.39774"><ele>59.0</ele><time>2026-04-25T06:48:31.955Z</time></trkpt><trkpt lat="45.5003983" lon="11.3974417"><ele>63.5</ele><time>2026-04-25T06:48:32.955Z</time></trkpt><trkpt lat="45.5005833" lon="11.3971483"><ele>68.0</ele><time>2026-04-25T06:48:33.955Z</time></trkpt><trkpt lat="45.500775" lon="11.3968583"><ele>68.0</ele><time>2026-04-25T06:48:34.956Z</time></trkpt><trkpt lat="45.500975" lon="11.3965817"><ele>68.0</ele><time>2026-04-25T06:48:35.955Z</time></trkpt><trkpt lat="45.50118" lon="11.3963167"><ele>69.0</ele><time>2026-04-25T06:48:36.955Z</time></trkpt><trkpt lat="45.501395" lon="11.396065"><ele>70.0</ele><time>2026-04-25T06:48:37.955Z</time></trkpt><trkpt lat="45.50161" lon="11.395825"><ele>70.0</ele><time>2026-04-25T06:48:38.955Z</time></trkpt><trkpt lat="45.5018317" lon="11.3955917"><ele>70.0</ele><time>2026-04-25T06:48:39.955Z</time></trkpt><trkpt lat="45.5020667" lon="11.39537"><ele>68.5</ele><time>2026-04-25T06:48:40.955Z</time></trkpt><trkpt lat="45.5022983" lon="11.3951533"><ele>67.0</ele><time>2026-04-25T06:48:41.955Z</time></trkpt><trkpt lat="45.502535" lon="11.3949417"><ele>67.0</ele><time>2026-04-25T06:48:42.956Z</time></trkpt><trkpt lat="45.502775" lon="11.3947317"><ele>67.0</ele><time>2026-04-25T06:48:43.955Z</time></trkpt><trkpt lat="45.503015" lon="11.3945183"><ele>67.0</ele><time>2026-04-25T06:48:44.956Z</time></trkpt><trkpt lat="45.5032567" lon="11.394305"><ele>67.0</ele><time>2026-04-25T06:48:45.956Z</time></trkpt><trkpt lat="45.5034983" lon="11.3940933"><ele>67.0</ele><time>2026-04-25T06:48:46.956Z</time></trkpt><trkpt lat="45.50374" lon="11.3938833"><ele>67.0</ele><time>2026-04-25T06:48:47.955Z</time></trkpt><trkpt lat="45.5039817" lon="11.39367"><ele>68.0</ele><time>2026-04-25T06:48:48.955Z</time></trkpt><trkpt lat="45.5042233" lon="11.3934583"><ele>69.0</ele><time>2026-04-25T06:48:49.954Z</time></trkpt><trkpt lat="45.5044667" lon="11.393245"><ele>70.0</ele><time>2026-04-25T06:48:50.955Z</time></trkpt><trkpt lat="45.5047067" lon="11.3930317"><ele>71.0</ele><time>2026-04-25T06:48:51.955Z</time></trkpt><trkpt lat="45.5049467" lon="11.392815"><ele>71.0</ele><time>2026-04-25T06:48:52.955Z</time></trkpt><trkpt lat="45.5051867" lon="11.3926017"><ele>71.0</ele><time>2026-04-25T06:48:53.956Z</time></trkpt><trkpt lat="45.5054233" lon="11.392385"><ele>70.5</ele><time>2026-04-25T06:48:54.955Z</time></trkpt><trkpt lat="45.50566" lon="11.3921733"><ele>70.0</ele><time>2026-04-25T06:48:55.958Z</time></trkpt><trkpt lat="45.5058967" lon="11.3919667"><ele>70.0</ele><time>2026-04-25T06:48:56.955Z</time></trkpt><trkpt lat="45.5061333" lon="11.39176"><ele>70.0</ele><time>2026-04-25T06:48:57.954Z</time></trkpt><trkpt lat="45.5063667" lon="11.3915533"><ele>69.5</ele><time>2026-04-25T06:48:58.955Z</time></trkpt><trkpt lat="45.5066" lon="11.391345"><ele>69.0</ele><time>2026-04-25T06:48:59.955Z</time></trkpt><trkpt lat="45.5068333" lon="11.391135"><ele>70.5</ele><time>2026-04-25T06:49:00.955Z</time></trkpt><trkpt lat="45.507065" lon="11.3909267"><ele>72.0</ele><time>2026-04-25T06:49:01.954Z</time></trkpt><trkpt lat="45.5072983" lon="11.3907183"><ele>72.0</ele><time>2026-04-25T06:49:02.954Z</time></trkpt><trkpt lat="45.5075317" lon="11.3905083"><ele>72.0</ele><time>2026-04-25T06:49:03.956Z</time></trkpt><trkpt lat="45.507765" lon="11.3903"><ele>73.5</ele><time>2026-04-25T06:49:04.955Z</time></trkpt><trkpt lat="45.508" lon="11.3900933"><ele>75.0</ele><time>2026-04-25T06:49:05.954Z</time></trkpt><trkpt lat="45.5082333" lon="11.3898917"><ele>75.0</ele><time>2026-04-25T06:49:06.955Z</time></trkpt><trkpt lat="45.5084667" lon="11.389695"><ele>75.0</ele><time>2026-04-25T06:49:07.955Z</time></trkpt><trkpt lat="45.5087" lon="11.3895083"><ele>76.0</ele><time>2026-04-25T06:49:08.955Z</time></trkpt><trkpt lat="45.5089333" lon="11.38933"><ele>77.0</ele><time>2026-04-25T06:49:09.954Z</time></trkpt><trkpt lat="45.509165" lon="11.389155"><ele>77.0</ele><time>2026-04-25T06:49:10.956Z</time></trkpt><trkpt lat="45.5094017" lon="11.3889983"><ele>77.0</ele><time>2026-04-25T06:49:11.954Z</time></trkpt><trkpt lat="45.5096433" lon="11.388855"><ele>78.0</ele><time>2026-04-25T06:49:12.955Z</time></trkpt><trkpt lat="45.5098867" lon="11.3887183"><ele>79.0</ele><time>2026-04-25T06:49:13.955Z</time></trkpt><trkpt lat="45.5101317" lon="11.3885933"><ele>79.0</ele><time>2026-04-25T06:49:14.955Z</time></trkpt><trkpt lat="45.5103767" lon="11.388475"><ele>79.0</ele><time>2026-04-25T06:49:15.956Z</time></trkpt><trkpt lat="45.510625" lon="11.3883733"><ele>79.5</ele><time>2026-04-25T06:49:16.956Z</time></trkpt><trkpt lat="45.510875" lon="11.38828"><ele>80.0</ele><time>2026-04-25T06:49:17.956Z</time></trkpt><trkpt lat="45.5111267" lon="11.388195"><ele>80.0</ele><time>2026-04-25T06:49:18.955Z</time></trkpt><trkpt lat="45.5113783" lon="11.3881167"><ele>80.0</ele><time>2026-04-25T06:49:19.956Z</time></trkpt><trkpt lat="45.51163" lon="11.3880533"><ele>80.0</ele><time>2026-04-25T06:49:20.956Z</time></trkpt><trkpt lat="45.5118817" lon="11.387995"><ele>80.0</ele><time>2026-04-25T06:49:21.955Z</time></trkpt><trkpt lat="45.51213" lon="11.387945"><ele>79.5</ele><time>2026-04-25T06:49:22.955Z</time></trkpt><trkpt lat="45.5123783" lon="11.3879"><ele>79.0</ele><time>2026-04-25T06:49:23.954Z</time></trkpt><trkpt lat="45.5126283" lon="11.387855"><ele>79.0</ele><time>2026-04-25T06:49:24.954Z</time></trkpt><trkpt lat="45.5128767" lon="11.3878117"><ele>79.0</ele><time>2026-04-25T06:49:25.955Z</time></trkpt><trkpt lat="45.5131217" lon="11.38777"><ele>79.0</ele><time>2026-04-25T06:49:26.955Z</time></trkpt><trkpt lat="45.513365" lon="11.3877267"><ele>79.0</ele><time>2026-04-25T06:49:27.953Z</time></trkpt><trkpt lat="45.5136133" lon="11.387685"><ele>79.5</ele><time>2026-04-25T06:49:28.956Z</time></trkpt><trkpt lat="45.5138633" lon="11.387635"><ele>80.0</ele><time>2026-04-25T06:49:29.955Z</time></trkpt><trkpt lat="45.51412" lon="11.38758"><ele>80.0</ele><time>2026-04-25T06:49:30.955Z</time></trkpt><trkpt lat="45.51439" lon="11.38752"><ele>80.0</ele><time>2026-04-25T06:49:31.955Z</time></trkpt><trkpt lat="45.5146733" lon="11.3874567"><ele>80.0</ele><time>2026-04-25T06:49:32.954Z</time></trkpt><trkpt lat="45.5149583" lon="11.3873933"><ele>80.0</ele><time>2026-04-25T06:49:33.955Z</time></trkpt><trkpt lat="45.515245" lon="11.387335"><ele>81.0</ele><time>2026-04-25T06:49:34.956Z</time></trkpt><trkpt lat="45.51553" lon="11.38728"><ele>82.0</ele><time>2026-04-25T06:49:35.956Z</time></trkpt><trkpt lat="45.515815" lon="11.387225"><ele>82.5</ele><time>2026-04-25T06:49:36.955Z</time></trkpt><trkpt lat="45.5160983" lon="11.3871717"><ele>83.0</ele><time>2026-04-25T06:49:37.955Z</time></trkpt><trkpt lat="45.5163833" lon="11.3871183"><ele>82.0</ele><time>2026-04-25T06:49:38.955Z</time></trkpt><trkpt lat="45.51667" lon="11.3870667"><ele>81.0</ele><time>2026-04-25T06:49:39.956Z</time></trkpt><trkpt lat="45.5169583" lon="11.3870167"><ele>81.5</ele><time>2026-04-25T06:49:40.956Z</time></trkpt><trkpt lat="45.517245" lon="11.3869667"><ele>82.0</ele><time>2026-04-25T06:49:41.954Z</time></trkpt><trkpt lat="45.51753" lon="11.38692"><ele>82.0</ele><time>2026-04-25T06:49:42.956Z</time></trkpt><trkpt lat="45.5178133" lon="11.3868767"><ele>82.0</ele><time>2026-04-25T06:49:43.955Z</time></trkpt><trkpt lat="45.5180933" lon="11.3868417"><ele>83.0</ele><time>2026-04-25T06:49:44.955Z</time></trkpt><trkpt lat="45.5183733" lon="11.3868017"><ele>84.0</ele><time>2026-04-25T06:49:45.956Z</time></trkpt><trkpt lat="45.5186533" lon="11.3867533"><ele>83.5</ele><time>2026-04-25T06:49:46.956Z</time></trkpt><trkpt lat="45.518935" lon="11.386705"><ele>83.0</ele><time>2026-04-25T06:49:47.955Z</time></trkpt><trkpt lat="45.5192117" lon="11.386655"><ele>83.0</ele><time>2026-04-25T06:49:48.953Z</time></trkpt><trkpt lat="45.5194833" lon="11.386605"><ele>83.0</ele><time>2026-04-25T06:49:49.955Z</time></trkpt><trkpt lat="45.5197517" lon="11.3865533"><ele>83.5</ele><time>2026-04-25T06:49:50.955Z</time></trkpt><trkpt lat="45.520015" lon="11.386505"><ele>84.0</ele><time>2026-04-25T06:49:51.953Z</time></trkpt><trkpt lat="45.520275" lon="11.386455"><ele>86.0</ele><time>2026-04-25T06:49:52.955Z</time></trkpt><trkpt lat="45.52054" lon="11.386405"><ele>88.0</ele><time>2026-04-25T06:49:53.954Z</time></trkpt><trkpt lat="45.520805" lon="11.386355"><ele>88.0</ele><time>2026-04-25T06:49:54.954Z</time></trkpt><trkpt lat="45.5210683" lon="11.3863067"><ele>88.0</ele><time>2026-04-25T06:49:55.954Z</time></trkpt><trkpt lat="45.5213333" lon="11.3862583"><ele>88.0</ele><time>2026-04-25T06:49:56.955Z</time></trkpt><trkpt lat="45.521595" lon="11.3862133"><ele>88.0</ele><time>2026-04-25T06:49:57.955Z</time></trkpt><trkpt lat="45.5218567" lon="11.386165"><ele>89.5</ele><time>2026-04-25T06:49:58.956Z</time></trkpt><trkpt lat="45.5221133" lon="11.38611"><ele>91.0</ele><time>2026-04-25T06:49:59.955Z</time></trkpt><trkpt lat="45.5223717" lon="11.386045"><ele>91.0</ele><time>2026-04-25T06:50:00.954Z</time></trkpt><trkpt lat="45.52263" lon="11.3859717"><ele>91.0</ele><time>2026-04-25T06:50:01.954Z</time></trkpt><trkpt lat="45.5228883" lon="11.3858917"><ele>91.5</ele><time>2026-04-25T06:50:02.955Z</time></trkpt><trkpt lat="45.5231483" lon="11.3858"><ele>92.0</ele><time>2026-04-25T06:50:03.954Z</time></trkpt><trkpt lat="45.5234083" lon="11.3857017"><ele>92.0</ele><time>2026-04-25T06:50:04.955Z</time></trkpt><trkpt lat="45.5236683" lon="11.3855983"><ele>92.0</ele><time>2026-04-25T06:50:05.953Z</time></trkpt><trkpt lat="45.5239283" lon="11.3854883"><ele>91.5</ele><time>2026-04-25T06:50:06.955Z</time></trkpt><trkpt lat="45.5241883" lon="11.3853683"><ele>91.0</ele><time>2026-04-25T06:50:07.954Z</time></trkpt><trkpt lat="45.52445" lon="11.38524"><ele>91.5</ele><time>2026-04-25T06:50:08.954Z</time></trkpt><trkpt lat="45.5247083" lon="11.3851033"><ele>92.0</ele><time>2026-04-25T06:50:09.954Z</time></trkpt><trkpt lat="45.524965" lon="11.38496"><ele>92.0</ele><time>2026-04-25T06:50:10.955Z</time></trkpt><trkpt lat="45.5252183" lon="11.3848083"><ele>92.0</ele><time>2026-04-25T06:50:11.954Z</time></trkpt><trkpt lat="45.525465" lon="11.3846533"><ele>91.0</ele><time>2026-04-25T06:50:12.954Z</time></trkpt><trkpt lat="45.5257067" lon="11.3844933"><ele>90.0</ele><time>2026-04-25T06:50:13.954Z</time></trkpt><trkpt lat="45.5259433" lon="11.38433"><ele>90.0</ele><time>2026-04-25T06:50:14.955Z</time></trkpt><trkpt lat="45.52618" lon="11.3841567"><ele>90.0</ele><time>2026-04-25T06:50:15.954Z</time></trkpt><trkpt lat="45.5264133" lon="11.3839767"><ele>88.5</ele><time>2026-04-25T06:50:16.955Z</time></trkpt><trkpt lat="45.5266433" lon="11.3837917"><ele>87.0</ele><time>2026-04-25T06:50:17.954Z</time></trkpt><trkpt lat="45.52687" lon="11.3836067"><ele>87.0</ele><time>2026-04-25T06:50:18.955Z</time></trkpt><trkpt lat="45.5270967" lon="11.38342"><ele>87.0</ele><time>2026-04-25T06:50:19.953Z</time></trkpt><trkpt lat="45.527325" lon="11.383235"><ele>87.0</ele><time>2026-04-25T06:50:20.955Z</time></trkpt><trkpt lat="45.52755" lon="11.38305"><ele>87.0</ele><time>2026-04-25T06:50:21.953Z</time></trkpt><trkpt lat="45.5277767" lon="11.382865"><ele>87.5</ele><time>2026-04-25T06:50:22.955Z</time></trkpt><trkpt lat="45.528005" lon="11.3826867"><ele>88.0</ele><time>2026-04-25T06:50:23.954Z</time></trkpt><trkpt lat="45.5282333" lon="11.3825117"><ele>88.0</ele><time>2026-04-25T06:50:24.955Z</time></trkpt><trkpt lat="45.5284633" lon="11.3823383"><ele>88.0</ele><time>2026-04-25T06:50:25.954Z</time></trkpt><trkpt lat="45.5287" lon="11.38217"><ele>91.5</ele><time>2026-04-25T06:50:26.959Z</time></trkpt><trkpt lat="45.52894" lon="11.382005"><ele>95.0</ele><time>2026-04-25T06:50:27.954Z</time></trkpt><trkpt lat="45.5291833" lon="11.381845"><ele>95.0</ele><time>2026-04-25T06:50:28.955Z</time></trkpt><trkpt lat="45.52943" lon="11.381695"><ele>95.0</ele><time>2026-04-25T06:50:29.955Z</time></trkpt><trkpt lat="45.52968" lon="11.3815517"><ele>96.5</ele><time>2026-04-25T06:50:30.954Z</time></trkpt><trkpt lat="45.5299367" lon="11.3814183"><ele>98.0</ele><time>2026-04-25T06:50:31.955Z</time></trkpt><trkpt lat="45.5301967" lon="11.381295"><ele>96.5</ele><time>2026-04-25T06:50:32.954Z</time></trkpt><trkpt lat="45.5304617" lon="11.3811783"><ele>95.0</ele><time>2026-04-25T06:50:33.954Z</time></trkpt><trkpt lat="45.5307267" lon="11.38107"><ele>95.0</ele><time>2026-04-25T06:50:34.955Z</time></trkpt><trkpt lat="45.5309933" lon="11.3809733"><ele>95.0</ele><time>2026-04-25T06:50:35.954Z</time></trkpt><trkpt lat="45.53126" lon="11.380885"><ele>95.5</ele><time>2026-04-25T06:50:36.955Z</time></trkpt><trkpt lat="45.5315283" lon="11.3808117"><ele>96.0</ele><time>2026-04-25T06:50:37.955Z</time></trkpt><trkpt lat="45.5318" lon="11.3807483"><ele>95.5</ele><time>2026-04-25T06:50:38.955Z</time></trkpt><trkpt lat="45.53207" lon="11.3806983"><ele>95.0</ele><time>2026-04-25T06:50:39.955Z</time></trkpt><trkpt lat="45.53234" lon="11.380655"><ele>95.0</ele><time>2026-04-25T06:50:40.955Z</time></trkpt><trkpt lat="45.5326117" lon="11.3806233"><ele>95.0</ele><time>2026-04-25T06:50:41.954Z</time></trkpt><trkpt lat="45.5328833" lon="11.3805967"><ele>95.0</ele><time>2026-04-25T06:50:42.954Z</time></trkpt><trkpt lat="45.5331517" lon="11.38058"><ele>95.0</ele><time>2026-04-25T06:50:43.955Z</time></trkpt><trkpt lat="45.53342" lon="11.3805717"><ele>95.0</ele><time>2026-04-25T06:50:44.954Z</time></trkpt><trkpt lat="45.5336883" lon="11.3805733"><ele>95.0</ele><time>2026-04-25T06:50:45.955Z</time></trkpt><trkpt lat="45.5339533" lon="11.380585"><ele>95.5</ele><time>2026-04-25T06:50:46.956Z</time></trkpt><trkpt lat="45.5342217" lon="11.3806067"><ele>96.0</ele><time>2026-04-25T06:50:47.954Z</time></trkpt><trkpt lat="45.53449" lon="11.3806383"><ele>97.5</ele><time>2026-04-25T06:50:48.956Z</time></trkpt><trkpt lat="45.5347567" lon="11.38068"><ele>99.0</ele><time>2026-04-25T06:50:49.953Z</time></trkpt><trkpt lat="45.5350233" lon="11.3807317"><ele>99.0</ele><time>2026-04-25T06:50:50.956Z</time></trkpt><trkpt lat="45.535285" lon="11.3807967"><ele>99.0</ele><time>2026-04-25T06:50:51.954Z</time></trkpt><trkpt lat="45.5355467" lon="11.38087"><ele>98.5</ele><time>2026-04-25T06:50:52.955Z</time></trkpt><trkpt lat="45.5358067" lon="11.3809517"><ele>98.0</ele><time>2026-04-25T06:50:53.955Z</time></trkpt><trkpt lat="45.53607" lon="11.3810417"><ele>99.5</ele><time>2026-04-25T06:50:54.955Z</time></trkpt><trkpt lat="45.5363317" lon="11.38114"><ele>101.0</ele><time>2026-04-25T06:50:55.955Z</time></trkpt><trkpt lat="45.5365917" lon="11.38125"><ele>100.5</ele><time>2026-04-25T06:50:56.955Z</time></trkpt><trkpt lat="45.5368517" lon="11.3813717"><ele>100.0</ele><time>2026-04-25T06:50:57.954Z</time></trkpt><trkpt lat="45.53711" lon="11.3815017"><ele>101.5</ele><time>2026-04-25T06:50:58.955Z</time></trkpt><trkpt lat="45.5373683" lon="11.3816433"><ele>103.0</ele><time>2026-04-25T06:50:59.953Z</time></trkpt><trkpt lat="45.5376267" lon="11.3817983"><ele>103.0</ele><time>2026-04-25T06:51:00.955Z</time></trkpt><trkpt lat="45.5378817" lon="11.381965"><ele>103.0</ele><time>2026-04-25T06:51:01.955Z</time></trkpt><trkpt lat="45.53813" lon="11.3821383"><ele>103.0</ele><time>2026-04-25T06:51:02.955Z</time></trkpt><trkpt lat="45.5383717" lon="11.3823183"><ele>103.0</ele><time>2026-04-25T06:51:03.955Z</time></trkpt><trkpt lat="45.53861" lon="11.3825033"><ele>103.0</ele><time>2026-04-25T06:51:04.956Z</time></trkpt><trkpt lat="45.5388483" lon="11.382695"><ele>103.0</ele><time>2026-04-25T06:51:05.954Z</time></trkpt><trkpt lat="45.5390817" lon="11.3829"><ele>102.5</ele><time>2026-04-25T06:51:06.955Z</time></trkpt><trkpt lat="45.5393083" lon="11.38311"><ele>102.0</ele><time>2026-04-25T06:51:07.955Z</time></trkpt><trkpt lat="45.5395317" lon="11.383325"><ele>103.0</ele><time>2026-04-25T06:51:08.955Z</time></trkpt><trkpt lat="45.5397483" lon="11.3835467"><ele>104.0</ele><time>2026-04-25T06:51:09.955Z</time></trkpt><trkpt lat="45.5399633" lon="11.3837767"><ele>104.0</ele><time>2026-04-25T06:51:10.955Z</time></trkpt><trkpt lat="45.5401733" lon="11.3840183"><ele>104.0</ele><time>2026-04-25T06:51:11.954Z</time></trkpt><trkpt lat="45.54038" lon="11.38427"><ele>104.5</ele><time>2026-04-25T06:51:12.955Z</time></trkpt><trkpt lat="45.5405817" lon="11.38453"><ele>105.0</ele><time>2026-04-25T06:51:13.955Z</time></trkpt><trkpt lat="45.54078" lon="11.3847983"><ele>106.0</ele><time>2026-04-25T06:51:14.955Z</time></trkpt><trkpt lat="45.5409717" lon="11.385075"><ele>107.0</ele><time>2026-04-25T06:51:15.955Z</time></trkpt><trkpt lat="45.5411617" lon="11.385355"><ele>108.0</ele><time>2026-04-25T06:51:16.955Z</time></trkpt><trkpt lat="45.541345" lon="11.38564"><ele>109.0</ele><time>2026-04-25T06:51:17.955Z</time></trkpt><trkpt lat="45.541525" lon="11.3859283"><ele>109.0</ele><time>2026-04-25T06:51:18.954Z</time></trkpt><trkpt lat="45.5417033" lon="11.3862167"><ele>109.0</ele><time>2026-04-25T06:51:19.955Z</time></trkpt><trkpt lat="45.5418833" lon="11.386505"><ele>108.5</ele><time>2026-04-25T06:51:20.954Z</time></trkpt><trkpt lat="45.5420617" lon="11.3867967"><ele>108.0</ele><time>2026-04-25T06:51:21.954Z</time></trkpt><trkpt lat="45.5422383" lon="11.3870883"><ele>110.5</ele><time>2026-04-25T06:51:22.955Z</time></trkpt><trkpt lat="45.5424183" lon="11.38738"><ele>113.0</ele><time>2026-04-25T06:51:23.955Z</time></trkpt><trkpt lat="45.5426017" lon="11.38767"><ele>113.0</ele><time>2026-04-25T06:51:24.955Z</time></trkpt><trkpt lat="45.5427867" lon="11.3879583"><ele>113.0</ele><time>2026-04-25T06:51:25.956Z</time></trkpt><trkpt lat="45.5429783" lon="11.3882433"><ele>111.0</ele><time>2026-04-25T06:51:26.956Z</time></trkpt><trkpt lat="45.543175" lon="11.3885217"><ele>109.0</ele><time>2026-04-25T06:51:27.955Z</time></trkpt><trkpt lat="45.5433767" lon="11.388795"><ele>109.5</ele><time>2026-04-25T06:51:28.956Z</time></trkpt><trkpt lat="45.5435783" lon="11.3890633"><ele>110.0</ele><time>2026-04-25T06:51:29.955Z</time></trkpt><trkpt lat="45.543785" lon="11.389325"><ele>110.0</ele><time>2026-04-25T06:51:30.954Z</time></trkpt><trkpt lat="45.5439967" lon="11.3895767"><ele>110.0</ele><time>2026-04-25T06:51:31.955Z</time></trkpt><trkpt lat="45.54421" lon="11.3898233"><ele>110.0</ele><time>2026-04-25T06:51:32.955Z</time></trkpt><trkpt lat="45.544425" lon="11.3900617"><ele>110.0</ele><time>2026-04-25T06:51:33.954Z</time></trkpt><trkpt lat="45.5446433" lon="11.390295"><ele>113.5</ele><time>2026-04-25T06:51:34.955Z</time></trkpt><trkpt lat="45.544865" lon="11.39052"><ele>117.0</ele><time>2026-04-25T06:51:35.954Z</time></trkpt><trkpt lat="45.5450933" lon="11.390735"><ele>117.0</ele><time>2026-04-25T06:51:36.955Z</time></trkpt><trkpt lat="45.5453267" lon="11.3909417"><ele>117.0</ele><time>2026-04-25T06:51:37.953Z</time></trkpt><trkpt lat="45.5455617" lon="11.3911433"><ele>115.5</ele><time>2026-04-25T06:51:38.955Z</time></trkpt><trkpt lat="45.5458" lon="11.391335"><ele>114.0</ele><time>2026-04-25T06:51:39.955Z</time></trkpt><trkpt lat="45.54604" lon="11.3915217"><ele>114.0</ele><time>2026-04-25T06:51:40.955Z</time></trkpt><trkpt lat="45.5462817" lon="11.3917"><ele>114.0</ele><time>2026-04-25T06:51:41.955Z</time></trkpt><trkpt lat="45.5465233" lon="11.3918717"><ele>114.0</ele><time>2026-04-25T06:51:42.955Z</time></trkpt><trkpt lat="45.5467717" lon="11.39203"><ele>114.0</ele><time>2026-04-25T06:51:43.954Z</time></trkpt><trkpt lat="45.5470217" lon="11.3921833"><ele>117.5</ele><time>2026-04-25T06:51:44.954Z</time></trkpt><trkpt lat="45.54727" lon="11.3923317"><ele>121.0</ele><time>2026-04-25T06:51:45.954Z</time></trkpt><trkpt lat="45.5475183" lon="11.392465"><ele>121.0</ele><time>2026-04-25T06:51:46.956Z</time></trkpt><trkpt lat="45.5477667" lon="11.392595"><ele>121.0</ele><time>2026-04-25T06:51:47.954Z</time></trkpt><trkpt lat="45.5480133" lon="11.392725"><ele>140.0</ele><time>2026-04-25T06:51:48.955Z</time></trkpt><trkpt lat="45.5482583" lon="11.3928533"><ele>159.0</ele><time>2026-04-25T06:51:49.955Z</time></trkpt><trkpt lat="45.548505" lon="11.392985"><ele>133.0</ele><time>2026-04-25T06:51:50.956Z</time></trkpt><trkpt lat="45.5619883" lon="11.3922333"><ele>127.0</ele><time>2026-04-25T06:52:43.955Z</time></trkpt><trkpt lat="45.56223" lon="11.3920683"><ele>121.0</ele><time>2026-04-25T06:52:44.957Z</time></trkpt><trkpt lat="45.5624633" lon="11.3918783"><ele>121.0</ele><time>2026-04-25T06:52:45.955Z</time></trkpt><trkpt lat="45.56269" lon="11.3916767"><ele>121.0</ele><time>2026-04-25T06:52:46.955Z</time></trkpt><trkpt lat="45.5629133" lon="11.3914683"><ele>121.5</ele><time>2026-04-25T06:52:47.955Z</time></trkpt><trkpt lat="45.563135" lon="11.39125"><ele>122.0</ele><time>2026-04-25T06:52:48.954Z</time></trkpt><trkpt lat="45.5633517" lon="11.3910233"><ele>122.0</ele><time>2026-04-25T06:52:49.955Z</time></trkpt><trkpt lat="45.5635617" lon="11.3907867"><ele>122.0</ele><time>2026-04-25T06:52:50.953Z</time></trkpt><trkpt lat="45.5637667" lon="11.3905433"><ele>123.5</ele><time>2026-04-25T06:52:51.954Z</time></trkpt><trkpt lat="45.5639667" lon="11.3903"><ele>125.0</ele><time>2026-04-25T06:52:52.954Z</time></trkpt><trkpt lat="45.56416" lon="11.3900517"><ele>125.0</ele><time>2026-04-25T06:52:53.954Z</time></trkpt><trkpt lat="45.56435" lon="11.3897967"><ele>125.0</ele><time>2026-04-25T06:52:54.955Z</time></trkpt><trkpt lat="45.5645367" lon="11.3895367"><ele>124.5</ele><time>2026-04-25T06:52:55.955Z</time></trkpt><trkpt lat="45.5647183" lon="11.3892717"><ele>124.0</ele><time>2026-04-25T06:52:56.955Z</time></trkpt><trkpt lat="45.5648967" lon="11.3889983"><ele>123.5</ele><time>2026-04-25T06:52:57.955Z</time></trkpt><trkpt lat="45.5650717" lon="11.3887217"><ele>123.0</ele><time>2026-04-25T06:52:58.956Z</time></trkpt><trkpt lat="45.5652433" lon="11.3884383"><ele>123.5</ele><time>2026-04-25T06:52:59.954Z</time></trkpt><trkpt lat="45.5654133" lon="11.388155"><ele>124.0</ele><time>2026-04-25T06:53:00.955Z</time></trkpt><trkpt lat="45.56558" lon="11.38787"><ele>124.0</ele><time>2026-04-25T06:53:01.955Z</time></trkpt><trkpt lat="45.5657483" lon="11.3875867"><ele>124.0</ele><time>2026-04-25T06:53:02.955Z</time></trkpt><trkpt lat="45.5659133" lon="11.3873083"><ele>125.0</ele><time>2026-04-25T06:53:03.955Z</time></trkpt><trkpt lat="45.56608" lon="11.3870267"><ele>126.0</ele><time>2026-04-25T06:53:04.954Z</time></trkpt><trkpt lat="45.56625" lon="11.3867433"><ele>127.0</ele><time>2026-04-25T06:53:05.954Z</time></trkpt><trkpt lat="45.5664217" lon="11.38646"><ele>128.0</ele><time>2026-04-25T06:53:06.955Z</time></trkpt><trkpt lat="45.56659" lon="11.386175"><ele>128.0</ele><time>2026-04-25T06:53:07.953Z</time></trkpt><trkpt lat="45.5667617" lon="11.3858883"><ele>128.0</ele><time>2026-04-25T06:53:08.954Z</time></trkpt><trkpt lat="45.5669333" lon="11.3856067"><ele>127.5</ele><time>2026-04-25T06:53:09.955Z</time></trkpt><trkpt lat="45.56711" lon="11.3853267"><ele>127.0</ele><time>2026-04-25T06:53:10.955Z</time></trkpt><trkpt lat="45.56729" lon="11.38505"><ele>127.0</ele><time>2026-04-25T06:53:11.954Z</time></trkpt><trkpt lat="45.5674767" lon="11.38478"><ele>127.0</ele><time>2026-04-25T06:53:12.953Z</time></trkpt><trkpt lat="45.567665" lon="11.3845167"><ele>127.5</ele><time>2026-04-25T06:53:13.953Z</time></trkpt><trkpt lat="45.5678583" lon="11.3842533"><ele>128.0</ele><time>2026-04-25T06:53:14.954Z</time></trkpt><trkpt lat="45.5680467" lon="11.38399"><ele>129.0</ele><time>2026-04-25T06:53:15.954Z</time></trkpt><trkpt lat="45.5682283" lon="11.383735"><ele>130.0</ele><time>2026-04-25T06:53:16.954Z</time></trkpt><trkpt lat="45.568425" lon="11.383505"><ele>130.0</ele><time>2026-04-25T06:53:17.953Z</time></trkpt><trkpt lat="45.5686533" lon="11.383335"><ele>130.0</ele><time>2026-04-25T06:53:18.954Z</time></trkpt><trkpt lat="45.568885" lon="11.38316"><ele>130.0</ele><time>2026-04-25T06:53:19.954Z</time></trkpt><trkpt lat="45.569115" lon="11.3829817"><ele>130.0</ele><time>2026-04-25T06:53:20.954Z</time></trkpt><trkpt lat="45.5693417" lon="11.38281"><ele>131.5</ele><time>2026-04-25T06:53:21.954Z</time></trkpt><trkpt lat="45.56957" lon="11.382645"><ele>133.0</ele><time>2026-04-25T06:53:22.955Z</time></trkpt><trkpt lat="45.569805" lon="11.382485"><ele>133.0</ele><time>2026-04-25T06:53:23.954Z</time></trkpt><trkpt lat="45.5700433" lon="11.3823317"><ele>133.0</ele><time>2026-04-25T06:53:24.955Z</time></trkpt><trkpt lat="45.570285" lon="11.3821933"><ele>133.0</ele><time>2026-04-25T06:53:25.956Z</time></trkpt><trkpt lat="45.5705267" lon="11.3820667"><ele>133.0</ele><time>2026-04-25T06:53:26.954Z</time></trkpt><trkpt lat="45.570775" lon="11.381945"><ele>133.0</ele><time>2026-04-25T06:53:27.955Z</time></trkpt><trkpt lat="45.571025" lon="11.3818367"><ele>133.0</ele><time>2026-04-25T06:53:28.955Z</time></trkpt><trkpt lat="45.5712783" lon="11.38174"><ele>134.5</ele><time>2026-04-25T06:53:29.955Z</time></trkpt><trkpt lat="45.57153" lon="11.3816533"><ele>136.0</ele><time>2026-04-25T06:53:30.954Z</time></trkpt><trkpt lat="45.5717867" lon="11.38158"><ele>135.5</ele><time>2026-04-25T06:53:31.955Z</time></trkpt><trkpt lat="45.5720433" lon="11.3815083"><ele>135.0</ele><time>2026-04-25T06:53:32.955Z</time></trkpt><trkpt lat="45.5723033" lon="11.3814467"><ele>135.0</ele><time>2026-04-25T06:53:33.956Z</time></trkpt><trkpt lat="45.5725617" lon="11.3813983"><ele>135.0</ele><time>2026-04-25T06:53:34.954Z</time></trkpt><trkpt lat="45.5728183" lon="11.3813617"><ele>134.0</ele><time>2026-04-25T06:53:35.955Z</time></trkpt><trkpt lat="45.5730783" lon="11.381335"><ele>133.0</ele><time>2026-04-25T06:53:36.954Z</time></trkpt><trkpt lat="45.5733367" lon="11.38132"><ele>133.0</ele><time>2026-04-25T06:53:37.955Z</time></trkpt><trkpt lat="45.5735983" lon="11.38131"><ele>133.0</ele><time>2026-04-25T06:53:38.955Z</time></trkpt><trkpt lat="45.5738617" lon="11.3813"><ele>134.0</ele><time>2026-04-25T06:53:39.956Z</time></trkpt><trkpt lat="45.5741233" lon="11.3812883"><ele>135.0</ele><time>2026-04-25T06:53:40.955Z</time></trkpt><trkpt lat="45.574385" lon="11.38128"><ele>136.5</ele><time>2026-04-25T06:53:41.954Z</time></trkpt><trkpt lat="45.5746483" lon="11.3812733"><ele>138.0</ele><time>2026-04-25T06:53:42.955Z</time></trkpt><trkpt lat="45.57491" lon="11.3812667"><ele>138.0</ele><time>2026-04-25T06:53:43.955Z</time></trkpt><trkpt lat="45.5751717" lon="11.3812533"><ele>138.0</ele><time>2026-04-25T06:53:44.954Z</time></trkpt><trkpt lat="45.5754333" lon="11.38123"><ele>137.5</ele><time>2026-04-25T06:53:45.956Z</time></trkpt><trkpt lat="45.575695" lon="11.3811983"><ele>137.0</ele><time>2026-04-25T06:53:46.955Z</time></trkpt><trkpt lat="45.575955" lon="11.381155"><ele>137.5</ele><time>2026-04-25T06:53:47.955Z</time></trkpt><trkpt lat="45.57621" lon="11.3810967"><ele>138.0</ele><time>2026-04-25T06:53:48.954Z</time></trkpt><trkpt lat="45.576465" lon="11.381025"><ele>138.0</ele><time>2026-04-25T06:53:49.954Z</time></trkpt><trkpt lat="45.5767167" lon="11.38094"><ele>138.0</ele><time>2026-04-25T06:53:50.955Z</time></trkpt><trkpt lat="45.5769667" lon="11.3808417"><ele>139.0</ele><time>2026-04-25T06:53:51.955Z</time></trkpt><trkpt lat="45.5772167" lon="11.3807317"><ele>140.0</ele><time>2026-04-25T06:53:52.955Z</time></trkpt><trkpt lat="45.5774667" lon="11.3806133"><ele>139.5</ele><time>2026-04-25T06:53:53.955Z</time></trkpt><trkpt lat="45.577715" lon="11.3804867"><ele>139.0</ele><time>2026-04-25T06:53:54.954Z</time></trkpt><trkpt lat="45.5779633" lon="11.3803483"><ele>139.0</ele><time>2026-04-25T06:53:55.955Z</time></trkpt><trkpt lat="45.5782067" lon="11.3801967"><ele>139.0</ele><time>2026-04-25T06:53:56.955Z</time></trkpt><trkpt lat="45.57845" lon="11.3800283"><ele>139.0</ele><time>2026-04-25T06:53:57.955Z</time></trkpt><trkpt lat="45.5786917" lon="11.3798533"><ele>139.0</ele><time>2026-04-25T06:53:58.954Z</time></trkpt><trkpt lat="45.578935" lon="11.3796783"><ele>139.0</ele><time>2026-04-25T06:53:59.956Z</time></trkpt><trkpt lat="45.5791783" lon="11.3795033"><ele>139.0</ele><time>2026-04-25T06:54:00.955Z</time></trkpt><trkpt lat="45.5794233" lon="11.379335"><ele>141.0</ele><time>2026-04-25T06:54:01.955Z</time></trkpt><trkpt lat="45.57967" lon="11.3791767"><ele>143.0</ele><time>2026-04-25T06:54:02.954Z</time></trkpt><trkpt lat="45.57992" lon="11.3790233"><ele>143.0</ele><time>2026-04-25T06:54:03.954Z</time></trkpt><trkpt lat="45.5801683" lon="11.3788783"><ele>143.0</ele><time>2026-04-25T06:54:04.955Z</time></trkpt><trkpt lat="45.5804167" lon="11.378735"><ele>143.0</ele><time>2026-04-25T06:54:05.956Z</time></trkpt><trkpt lat="45.5806667" lon="11.3785967"><ele>143.0</ele><time>2026-04-25T06:54:06.953Z</time></trkpt><trkpt lat="45.5809167" lon="11.37847"><ele>143.0</ele><time>2026-04-25T06:54:07.956Z</time></trkpt><trkpt lat="45.58117" lon="11.3783583"><ele>143.0</ele><time>2026-04-25T06:54:08.955Z</time></trkpt><trkpt lat="45.5814267" lon="11.378255"><ele>143.0</ele><time>2026-04-25T06:54:09.955Z</time></trkpt><trkpt lat="45.5816883" lon="11.3781667"><ele>143.0</ele><time>2026-04-25T06:54:10.955Z</time></trkpt><trkpt lat="45.5819517" lon="11.3780867"><ele>144.5</ele><time>2026-04-25T06:54:11.955Z</time></trkpt><trkpt lat="45.5822183" lon="11.3780183"><ele>146.0</ele><time>2026-04-25T06:54:12.953Z</time></trkpt><trkpt lat="45.5824867" lon="11.3779633"><ele>146.0</ele><time>2026-04-25T06:54:13.955Z</time></trkpt><trkpt lat="45.5827567" lon="11.37792"><ele>146.0</ele><time>2026-04-25T06:54:14.955Z</time></trkpt><trkpt lat="45.583025" lon="11.3778867"><ele>145.5</ele><time>2026-04-25T06:54:15.955Z</time></trkpt><trkpt lat="45.5832933" lon="11.3778583"><ele>145.0</ele><time>2026-04-25T06:54:16.955Z</time></trkpt><trkpt lat="45.5835633" lon="11.3778383"><ele>144.5</ele><time>2026-04-25T06:54:17.954Z</time></trkpt><trkpt lat="45.5838333" lon="11.377825"><ele>144.0</ele><time>2026-04-25T06:54:18.958Z</time></trkpt><trkpt lat="45.5841017" lon="11.3778183"><ele>144.0</ele><time>2026-04-25T06:54:19.955Z</time></trkpt><trkpt lat="45.5843733" lon="11.37781"><ele>144.0</ele><time>2026-04-25T06:54:20.955Z</time></trkpt><trkpt lat="45.5846467" lon="11.3778"><ele>145.0</ele><time>2026-04-25T06:54:21.959Z</time></trkpt><trkpt lat="45.58492" lon="11.37779"><ele>146.0</ele><time>2026-04-25T06:54:22.955Z</time></trkpt><trkpt lat="45.5851967" lon="11.3777783"><ele>147.5</ele><time>2026-04-25T06:54:23.956Z</time></trkpt><trkpt lat="45.585475" lon="11.37777"><ele>149.0</ele><time>2026-04-25T06:54:24.955Z</time></trkpt><trkpt lat="45.5857533" lon="11.377765"><ele>152.0</ele><time>2026-04-25T06:54:25.955Z</time></trkpt><trkpt lat="45.5868733" lon="11.37775"><ele>150.0</ele><time>2026-04-25T06:54:29.956Z</time></trkpt><trkpt lat="45.587155" lon="11.3777417"><ele>148.0</ele><time>2026-04-25T06:54:30.955Z</time></trkpt><trkpt lat="45.58744" lon="11.3777317"><ele>148.0</ele><time>2026-04-25T06:54:31.955Z</time></trkpt><trkpt lat="45.5877217" lon="11.3777217"><ele>148.0</ele><time>2026-04-25T06:54:32.955Z</time></trkpt><trkpt lat="45.5880067" lon="11.3777133"><ele>148.0</ele><time>2026-04-25T06:54:33.955Z</time></trkpt><trkpt lat="45.58829" lon="11.3777117"><ele>148.0</ele><time>2026-04-25T06:54:34.955Z</time></trkpt><trkpt lat="45.5885717" lon="11.37772"><ele>148.0</ele><time>2026-04-25T06:54:35.956Z</time></trkpt><trkpt lat="45.5888517" lon="11.377735"><ele>148.0</ele><time>2026-04-25T06:54:36.954Z</time></trkpt><trkpt lat="45.5891317" lon="11.377765"><ele>148.0</ele><time>2026-04-25T06:54:37.955Z</time></trkpt><trkpt lat="45.5894133" lon="11.3778033"><ele>148.0</ele><time>2026-04-25T06:54:38.955Z</time></trkpt><trkpt lat="45.5896983" lon="11.3778517"><ele>148.0</ele><time>2026-04-25T06:54:39.955Z</time></trkpt><trkpt lat="45.5899867" lon="11.377905"><ele>148.0</ele><time>2026-04-25T06:54:40.955Z</time></trkpt><trkpt lat="45.5902783" lon="11.37796"><ele>150.5</ele><time>2026-04-25T06:54:41.953Z</time></trkpt><trkpt lat="45.5905467" lon="11.37805"><ele>153.0</ele><time>2026-04-25T06:54:42.955Z</time></trkpt><trkpt lat="45.5908117" lon="11.3781617"><ele>153.0</ele><time>2026-04-25T06:54:43.956Z</time></trkpt><trkpt lat="45.5910767" lon="11.3782817"><ele>153.0</ele><time>2026-04-25T06:54:44.956Z</time></trkpt><trkpt lat="45.591335" lon="11.3784183"><ele>153.5</ele><time>2026-04-25T06:54:45.955Z</time></trkpt><trkpt lat="45.591595" lon="11.37855"><ele>154.0</ele><time>2026-04-25T06:54:46.955Z</time></trkpt><trkpt lat="45.5948833" lon="11.3806867"><ele>152.0</ele><time>2026-04-25T06:54:59.955Z</time></trkpt><trkpt lat="45.59515" lon="11.3808383"><ele>150.0</ele><time>2026-04-25T06:55:00.955Z</time></trkpt><trkpt lat="45.5953917" lon="11.3809883"><ele>149.5</ele><time>2026-04-25T06:55:01.955Z</time></trkpt><trkpt lat="45.59563" lon="11.3811317"><ele>149.0</ele><time>2026-04-25T06:55:02.955Z</time></trkpt><trkpt lat="45.5958817" lon="11.381265"><ele>149.5</ele><time>2026-04-25T06:55:03.955Z</time></trkpt><trkpt lat="45.5961283" lon="11.381405"><ele>150.0</ele><time>2026-04-25T06:55:04.955Z</time></trkpt><trkpt lat="45.5963783" lon="11.3815533"><ele>150.0</ele><time>2026-04-25T06:55:05.955Z</time></trkpt><trkpt lat="45.5966283" lon="11.3816883"><ele>150.0</ele><time>2026-04-25T06:55:06.955Z</time></trkpt><trkpt lat="45.5968717" lon="11.381825"><ele>151.0</ele><time>2026-04-25T06:55:07.956Z</time></trkpt><trkpt lat="45.597115" lon="11.3819667"><ele>152.0</ele><time>2026-04-25T06:55:08.954Z</time></trkpt><trkpt lat="45.5973583" lon="11.38211"><ele>152.5</ele><time>2026-04-25T06:55:09.954Z</time></trkpt><trkpt lat="45.5976033" lon="11.382255"><ele>153.0</ele><time>2026-04-25T06:55:10.955Z</time></trkpt><trkpt lat="45.59785" lon="11.3824"><ele>151.0</ele><time>2026-04-25T06:55:11.954Z</time></trkpt><trkpt lat="45.5988617" lon="11.3830183"><ele>151.0</ele><time>2026-04-25T06:55:15.956Z</time></trkpt><trkpt lat="45.5991233" lon="11.3831533"><ele>151.0</ele><time>2026-04-25T06:55:16.954Z</time></trkpt><trkpt lat="45.5993533" lon="11.3832517"><ele>151.0</ele><time>2026-04-25T06:55:17.954Z</time></trkpt><trkpt lat="45.5996133" lon="11.383355"><ele>151.0</ele><time>2026-04-25T06:55:18.953Z</time></trkpt><trkpt lat="45.5998717" lon="11.3834683"><ele>151.0</ele><time>2026-04-25T06:55:19.955Z</time></trkpt><trkpt lat="45.600125" lon="11.3835883"><ele>151.0</ele><time>2026-04-25T06:55:20.954Z</time></trkpt><trkpt lat="45.6003833" lon="11.3836967"><ele>151.0</ele><time>2026-04-25T06:55:21.954Z</time></trkpt><trkpt lat="45.6006417" lon="11.3837967"><ele>151.0</ele><time>2026-04-25T06:55:22.954Z</time></trkpt><trkpt lat="45.60089" lon="11.3838883"><ele>150.5</ele><time>2026-04-25T06:55:23.954Z</time></trkpt><trkpt lat="45.6011467" lon="11.3839783"><ele>150.0</ele><time>2026-04-25T06:55:24.955Z</time></trkpt><trkpt lat="45.6014067" lon="11.3840667"><ele>91.0</ele><time>2026-04-25T06:55:25.955Z</time></trkpt><trkpt lat="45.645985" lon="11.4281517"><ele>92.0</ele><time>2026-04-25T06:58:58.953Z</time></trkpt><trkpt lat="45.6461333" lon="11.4285083"><ele>93.0</ele><time>2026-04-25T06:58:59.954Z</time></trkpt><trkpt lat="45.6462567" lon="11.428865"><ele>93.0</ele><time>2026-04-25T06:59:00.955Z</time></trkpt><trkpt lat="45.646375" lon="11.42922"><ele>93.0</ele><time>2026-04-25T06:59:01.956Z</time></trkpt><trkpt lat="45.6464833" lon="11.4295717"><ele>93.5</ele><time>2026-04-25T06:59:02.955Z</time></trkpt><trkpt lat="45.6465817" lon="11.4299133"><ele>94.0</ele><time>2026-04-25T06:59:03.955Z</time></trkpt><trkpt lat="45.646675" lon="11.4302517"><ele>93.0</ele><time>2026-04-25T06:59:04.956Z</time></trkpt><trkpt lat="45.6467683" lon="11.4305917"><ele>92.0</ele><time>2026-04-25T06:59:05.955Z</time></trkpt><trkpt lat="45.6468567" lon="11.4309333"><ele>92.0</ele><time>2026-04-25T06:59:06.955Z</time></trkpt><trkpt lat="45.64694" lon="11.4312783"><ele>92.0</ele><time>2026-04-25T06:59:07.955Z</time></trkpt><trkpt lat="45.647025" lon="11.4316233"><ele>91.5</ele><time>2026-04-25T06:59:08.955Z</time></trkpt><trkpt lat="45.647105" lon="11.431965"><ele>91.0</ele><time>2026-04-25T06:59:09.955Z</time></trkpt><trkpt lat="45.647185" lon="11.4323117"><ele>90.0</ele><time>2026-04-25T06:59:10.959Z</time></trkpt><trkpt lat="45.6472633" lon="11.4326617"><ele>89.0</ele><time>2026-04-25T06:59:11.954Z</time></trkpt><trkpt lat="45.6473383" lon="11.433015"><ele>88.5</ele><time>2026-04-25T06:59:12.955Z</time></trkpt><trkpt lat="45.6474117" lon="11.4333717"><ele>88.0</ele><time>2026-04-25T06:59:13.956Z</time></trkpt><trkpt lat="45.6474817" lon="11.43373"><ele>88.5</ele><time>2026-04-25T06:59:14.954Z</time></trkpt><trkpt lat="45.6475517" lon="11.4340917"><ele>89.0</ele><time>2026-04-25T06:59:15.955Z</time></trkpt><trkpt lat="45.6476183" lon="11.4344583"><ele>89.5</ele><time>2026-04-25T06:59:16.956Z</time></trkpt><trkpt lat="45.647685" lon="11.43483"><ele>90.0</ele><time>2026-04-25T06:59:17.955Z</time></trkpt><trkpt lat="45.64775" lon="11.4352067"><ele>89.5</ele><time>2026-04-25T06:59:18.955Z</time></trkpt><trkpt lat="45.647815" lon="11.435585"><ele>89.0</ele><time>2026-04-25T06:59:19.956Z</time></trkpt><trkpt lat="45.6478783" lon="11.43596"><ele>88.5</ele><time>2026-04-25T06:59:20.955Z</time></trkpt><trkpt lat="45.6479417" lon="11.43633"><ele>88.0</ele><time>2026-04-25T06:59:21.956Z</time></trkpt><trkpt lat="45.6480017" lon="11.4366983"><ele>88.0</ele><time>2026-04-25T06:59:22.958Z</time></trkpt><trkpt lat="45.6480617" lon="11.437065"><ele>88.0</ele><time>2026-04-25T06:59:23.957Z</time></trkpt><trkpt lat="45.64812" lon="11.4374283"><ele>88.5</ele><time>2026-04-25T06:59:24.955Z</time></trkpt><trkpt lat="45.6481783" lon="11.437785"><ele>89.0</ele><time>2026-04-25T06:59:25.958Z</time></trkpt><trkpt lat="45.6482333" lon="11.43814"><ele>89.5</ele><time>2026-04-25T06:59:26.956Z</time></trkpt><trkpt lat="45.6482883" lon="11.438495"><ele>90.0</ele><time>2026-04-25T06:59:27.955Z</time></trkpt><trkpt lat="45.6483383" lon="11.4388467"><ele>90.5</ele><time>2026-04-25T06:59:28.956Z</time></trkpt><trkpt lat="45.6483867" lon="11.4391983"><ele>91.0</ele><time>2026-04-25T06:59:29.955Z</time></trkpt><trkpt lat="45.6484333" lon="11.43955"><ele>91.5</ele><time>2026-04-25T06:59:30.956Z</time></trkpt><trkpt lat="45.6484767" lon="11.4399033"><ele>92.0</ele><time>2026-04-25T06:59:31.956Z</time></trkpt><trkpt lat="45.6485183" lon="11.44026"><ele>91.0</ele><time>2026-04-25T06:59:32.956Z</time></trkpt><trkpt lat="45.6485567" lon="11.4406217"><ele>90.0</ele><time>2026-04-25T06:59:33.955Z</time></trkpt><trkpt lat="45.6485967" lon="11.4409867"><ele>91.0</ele><time>2026-04-25T06:59:34.955Z</time></trkpt><trkpt lat="45.6486317" lon="11.4413567"><ele>92.0</ele><time>2026-04-25T06:59:35.956Z</time></trkpt><trkpt lat="45.648665" lon="11.4417333"><ele>92.0</ele><time>2026-04-25T06:59:36.955Z</time></trkpt><trkpt lat="45.648695" lon="11.4421117"><ele>92.0</ele><time>2026-04-25T06:59:37.955Z</time></trkpt><trkpt lat="45.6487217" lon="11.44249"><ele>91.0</ele><time>2026-04-25T06:59:38.956Z</time></trkpt><trkpt lat="45.648745" lon="11.4428617"><ele>90.0</ele><time>2026-04-25T06:59:39.955Z</time></trkpt><trkpt lat="45.6487633" lon="11.443225"><ele>90.0</ele><time>2026-04-25T06:59:40.955Z</time></trkpt><trkpt lat="45.64878" lon="11.44359"><ele>90.0</ele><time>2026-04-25T06:59:41.956Z</time></trkpt><trkpt lat="45.6487933" lon="11.4439567"><ele>89.5</ele><time>2026-04-25T06:59:42.955Z</time></trkpt><trkpt lat="45.6488067" lon="11.4443267"><ele>89.0</ele><time>2026-04-25T06:59:43.955Z</time></trkpt><trkpt lat="45.6488167" lon="11.4446967"><ele>89.0</ele><time>2026-04-25T06:59:44.955Z</time></trkpt><trkpt lat="45.6488217" lon="11.4450617"><ele>89.0</ele><time>2026-04-25T06:59:45.956Z</time></trkpt><trkpt lat="45.64882" lon="11.4454283"><ele>89.5</ele><time>2026-04-25T06:59:46.956Z</time></trkpt><trkpt lat="45.6488167" lon="11.4457933"><ele>90.0</ele><time>2026-04-25T06:59:47.955Z</time></trkpt><trkpt lat="45.6488133" lon="11.4461567"><ele>89.5</ele><time>2026-04-25T06:59:48.954Z</time></trkpt><trkpt lat="45.64881" lon="11.4465183"><ele>89.0</ele><time>2026-04-25T06:59:49.956Z</time></trkpt><trkpt lat="45.6488067" lon="11.4468767"><ele>89.0</ele><time>2026-04-25T06:59:50.954Z</time></trkpt><trkpt lat="45.6488" lon="11.4472367"><ele>89.0</ele><time>2026-04-25T06:59:51.957Z</time></trkpt><trkpt lat="45.64879" lon="11.4475983"><ele>89.0</ele><time>2026-04-25T06:59:52.957Z</time></trkpt><trkpt lat="45.6487767" lon="11.447965"><ele>89.0</ele><time>2026-04-25T06:59:53.955Z</time></trkpt><trkpt lat="45.6487617" lon="11.44833"><ele>89.0</ele><time>2026-04-25T06:59:54.956Z</time></trkpt><trkpt lat="45.6487483" lon="11.4486933"><ele>89.0</ele><time>2026-04-25T06:59:55.956Z</time></trkpt><trkpt lat="45.6487367" lon="11.449055"><ele>88.5</ele><time>2026-04-25T06:59:56.956Z</time></trkpt><trkpt lat="45.6487283" lon="11.4494167"><ele>88.0</ele><time>2026-04-25T06:59:57.956Z</time></trkpt><trkpt lat="45.6487183" lon="11.449775"><ele>88.0</ele><time>2026-04-25T06:59:58.955Z</time></trkpt><trkpt lat="45.6487133" lon="11.4501317"><ele>88.0</ele><time>2026-04-25T06:59:59.955Z</time></trkpt><trkpt lat="45.6487083" lon="11.4504867"><ele>88.0</ele><time>2026-04-25T07:00:00.956Z</time></trkpt><trkpt lat="45.648705" lon="11.4508417"><ele>88.0</ele><time>2026-04-25T07:00:01.957Z</time></trkpt><trkpt lat="45.6487017" lon="11.451195"><ele>88.5</ele><time>2026-04-25T07:00:02.957Z</time></trkpt><trkpt lat="45.6487" lon="11.451545"><ele>89.0</ele><time>2026-04-25T07:00:03.958Z</time></trkpt><trkpt lat="45.6487017" lon="11.4518967"><ele>88.0</ele><time>2026-04-25T07:00:04.956Z</time></trkpt><trkpt lat="45.648705" lon="11.4522533"><ele>87.0</ele><time>2026-04-25T07:00:05.956Z</time></trkpt><trkpt lat="45.6487133" lon="11.4526183"><ele>86.5</ele><time>2026-04-25T07:00:06.956Z</time></trkpt><trkpt lat="45.6487283" lon="11.4529967"><ele>86.0</ele><time>2026-04-25T07:00:07.958Z</time></trkpt><trkpt lat="45.64875" lon="11.4533817"><ele>86.0</ele><time>2026-04-25T07:00:08.955Z</time></trkpt><trkpt lat="45.6487767" lon="11.45377"><ele>86.0</ele><time>2026-04-25T07:00:09.957Z</time></trkpt><trkpt lat="45.648805" lon="11.45416"><ele>85.5</ele><time>2026-04-25T07:00:10.955Z</time></trkpt><trkpt lat="45.64884" lon="11.4545483"><ele>85.0</ele><time>2026-04-25T07:00:11.955Z</time></trkpt><trkpt lat="45.6488767" lon="11.4549333"><ele>85.0</ele><time>2026-04-25T07:00:12.956Z</time></trkpt><trkpt lat="45.648915" lon="11.45531"><ele>85.0</ele><time>2026-04-25T07:00:13.956Z</time></trkpt><trkpt lat="45.6489567" lon="11.4556733"><ele>85.0</ele><time>2026-04-25T07:00:14.955Z</time></trkpt><trkpt lat="45.6490017" lon="11.4560367"><ele>85.0</ele><time>2026-04-25T07:00:15.956Z</time></trkpt><trkpt lat="45.6490517" lon="11.4564033"><ele>85.0</ele><time>2026-04-25T07:00:16.956Z</time></trkpt><trkpt lat="45.649105" lon="11.4567683"><ele>85.0</ele><time>2026-04-25T07:00:17.955Z</time></trkpt><trkpt lat="45.6491633" lon="11.4571317"><ele>86.0</ele><time>2026-04-25T07:00:18.955Z</time></trkpt><trkpt lat="45.6492233" lon="11.4574917"><ele>87.0</ele><time>2026-04-25T07:00:19.956Z</time></trkpt><trkpt lat="45.64929" lon="11.4578517"><ele>87.5</ele><time>2026-04-25T07:00:20.955Z</time></trkpt><trkpt lat="45.64936" lon="11.45821"><ele>88.0</ele><time>2026-04-25T07:00:21.955Z</time></trkpt><trkpt lat="45.649435" lon="11.458565"><ele>87.0</ele><time>2026-04-25T07:00:22.956Z</time></trkpt><trkpt lat="45.64951" lon="11.458915"><ele>86.0</ele><time>2026-04-25T07:00:23.956Z</time></trkpt><trkpt lat="45.6495883" lon="11.4592617"><ele>86.0</ele><time>2026-04-25T07:00:24.954Z</time></trkpt><trkpt lat="45.64967" lon="11.459605"><ele>86.0</ele><time>2026-04-25T07:00:25.956Z</time></trkpt><trkpt lat="45.6497533" lon="11.4599483"><ele>86.0</ele><time>2026-04-25T07:00:26.956Z</time></trkpt><trkpt lat="45.64984" lon="11.46029"><ele>86.0</ele><time>2026-04-25T07:00:27.954Z</time></trkpt><trkpt lat="45.6499317" lon="11.4606317"><ele>85.0</ele><time>2026-04-25T07:00:28.956Z</time></trkpt><trkpt lat="45.650025" lon="11.4609717"><ele>84.0</ele><time>2026-04-25T07:00:29.954Z</time></trkpt><trkpt lat="45.6501233" lon="11.4613167"><ele>84.0</ele><time>2026-04-25T07:00:30.957Z</time></trkpt><trkpt lat="45.6502233" lon="11.4616567"><ele>84.0</ele><time>2026-04-25T07:00:31.955Z</time></trkpt><trkpt lat="45.650325" lon="11.4619917"><ele>82.5</ele><time>2026-04-25T07:00:32.955Z</time></trkpt><trkpt lat="45.6504283" lon="11.462325"><ele>81.0</ele><time>2026-04-25T07:00:33.956Z</time></trkpt><trkpt lat="45.6505317" lon="11.46266"><ele>79.5</ele><time>2026-04-25T07:00:34.956Z</time></trkpt><trkpt lat="45.6506367" lon="11.462995"><ele>78.0</ele><time>2026-04-25T07:00:35.956Z</time></trkpt><trkpt lat="45.6507417" lon="11.4633283"><ele>78.0</ele><time>2026-04-25T07:00:36.954Z</time></trkpt><trkpt lat="45.6508483" lon="11.46366"><ele>78.0</ele><time>2026-04-25T07:00:37.958Z</time></trkpt><trkpt lat="45.650955" lon="11.4639867"><ele>79.5</ele><time>2026-04-25T07:00:38.955Z</time></trkpt><trkpt lat="45.65106" lon="11.4643183"><ele>81.0</ele><time>2026-04-25T07:00:39.956Z</time></trkpt><trkpt lat="45.651165" lon="11.464655"><ele>81.0</ele><time>2026-04-25T07:00:40.956Z</time></trkpt><trkpt lat="45.65127" lon="11.4649967"><ele>81.0</ele><time>2026-04-25T07:00:41.955Z</time></trkpt><trkpt lat="45.6513767" lon="11.4653433"><ele>80.5</ele><time>2026-04-25T07:00:42.956Z</time></trkpt><trkpt lat="45.6514883" lon="11.4656917"><ele>80.0</ele><time>2026-04-25T07:00:43.956Z</time></trkpt><trkpt lat="45.6516" lon="11.466045"><ele>81.5</ele><time>2026-04-25T07:00:44.956Z</time></trkpt><trkpt lat="45.6517133" lon="11.466395"><ele>83.0</ele><time>2026-04-25T07:00:45.956Z</time></trkpt><trkpt lat="45.651825" lon="11.466745"><ele>83.0</ele><time>2026-04-25T07:00:46.955Z</time></trkpt><trkpt lat="45.6519417" lon="11.4670883"><ele>83.0</ele><time>2026-04-25T07:00:47.955Z</time></trkpt><trkpt lat="45.6520583" lon="11.467435"><ele>83.0</ele><time>2026-04-25T07:00:48.955Z</time></trkpt><trkpt lat="45.6521767" lon="11.4677783"><ele>83.0</ele><time>2026-04-25T07:00:49.956Z</time></trkpt><trkpt lat="45.652295" lon="11.4681217"><ele>82.5</ele><time>2026-04-25T07:00:50.955Z</time></trkpt><trkpt lat="45.6524133" lon="11.4684617"><ele>82.0</ele><time>2026-04-25T07:00:51.956Z</time></trkpt><trkpt lat="45.652535" lon="11.4688"><ele>82.0</ele><time>2026-04-25T07:00:52.955Z</time></trkpt><trkpt lat="45.65266" lon="11.4691367"><ele>82.0</ele><time>2026-04-25T07:00:53.954Z</time></trkpt><trkpt lat="45.6527867" lon="11.4694733"><ele>81.5</ele><time>2026-04-25T07:00:54.956Z</time></trkpt><trkpt lat="45.6529183" lon="11.46981"><ele>81.0</ele><time>2026-04-25T07:00:55.957Z</time></trkpt><trkpt lat="45.6530533" lon="11.4701467"><ele>80.5</ele><time>2026-04-25T07:00:56.955Z</time></trkpt><trkpt lat="45.6531933" lon="11.4704833"><ele>80.0</ele><time>2026-04-25T07:00:57.956Z</time></trkpt><trkpt lat="45.6533383" lon="11.4708183"><ele>80.0</ele><time>2026-04-25T07:00:58.956Z</time></trkpt><trkpt lat="45.6534833" lon="11.4711533"><ele>80.0</ele><time>2026-04-25T07:00:59.956Z</time></trkpt><trkpt lat="45.65363" lon="11.4714783"><ele>80.5</ele><time>2026-04-25T07:01:00.956Z</time></trkpt><trkpt lat="45.6537783" lon="11.4717967"><ele>81.0</ele><time>2026-04-25T07:01:01.958Z</time></trkpt><trkpt lat="45.6539283" lon="11.4721083"><ele>81.0</ele><time>2026-04-25T07:01:02.955Z</time></trkpt><trkpt lat="45.65408" lon="11.472415"><ele>81.0</ele><time>2026-04-25T07:01:03.956Z</time></trkpt><trkpt lat="45.6542383" lon="11.4727233"><ele>81.5</ele><time>2026-04-25T07:01:04.956Z</time></trkpt><trkpt lat="45.65439" lon="11.4730333"><ele>82.0</ele><time>2026-04-25T07:01:05.955Z</time></trkpt><trkpt lat="45.6545433" lon="11.4733433"><ele>82.5</ele><time>2026-04-25T07:01:06.956Z</time></trkpt><trkpt lat="45.6546967" lon="11.4736517"><ele>83.0</ele><time>2026-04-25T07:01:07.955Z</time></trkpt><trkpt lat="45.65485" lon="11.4739617"><ele>82.0</ele><time>2026-04-25T07:01:08.955Z</time></trkpt><trkpt lat="45.6550033" lon="11.4742717"><ele>81.0</ele><time>2026-04-25T07:01:09.958Z</time></trkpt><trkpt lat="45.6551617" lon="11.4745883"><ele>81.0</ele><time>2026-04-25T07:01:10.958Z</time></trkpt><trkpt lat="45.6553567" lon="11.47489"><ele>81.0</ele><time>2026-04-25T07:01:11.956Z</time></trkpt><trkpt lat="45.6554817" lon="11.4751983"><ele>80.0</ele><time>2026-04-25T07:01:12.957Z</time></trkpt><trkpt lat="45.65568" lon="11.4754933"><ele>79.0</ele><time>2026-04-25T07:01:13.955Z</time></trkpt><trkpt lat="45.6558733" lon="11.4757767"><ele>79.0</ele><time>2026-04-25T07:01:14.956Z</time></trkpt><trkpt lat="45.6560583" lon="11.476065"><ele>79.0</ele><time>2026-04-25T07:01:15.956Z</time></trkpt><trkpt lat="45.6562367" lon="11.4763533"><ele>79.5</ele><time>2026-04-25T07:01:16.955Z</time></trkpt><trkpt lat="45.6564283" lon="11.4766383"><ele>80.0</ele><time>2026-04-25T07:01:17.955Z</time></trkpt><trkpt lat="45.6566183" lon="11.4769267"><ele>80.0</ele><time>2026-04-25T07:01:18.955Z</time></trkpt><trkpt lat="45.6568017" lon="11.4772167"><ele>80.0</ele><time>2026-04-25T07:01:19.956Z</time></trkpt><trkpt lat="45.6569883" lon="11.4775"><ele>80.5</ele><time>2026-04-25T07:01:20.954Z</time></trkpt><trkpt lat="45.6571717" lon="11.477785"><ele>81.0</ele><time>2026-04-25T07:01:21.956Z</time></trkpt><trkpt lat="45.657355" lon="11.4780717"><ele>81.0</ele><time>2026-04-25T07:01:22.956Z</time></trkpt><trkpt lat="45.6575367" lon="11.4783567"><ele>81.0</ele><time>2026-04-25T07:01:23.955Z</time></trkpt><trkpt lat="45.6577117" lon="11.4786067"><ele>80.0</ele><time>2026-04-25T07:01:24.955Z</time></trkpt><trkpt lat="45.6578517" lon="11.47889"><ele>79.0</ele><time>2026-04-25T07:01:25.955Z</time></trkpt><trkpt lat="45.6579967" lon="11.4791867"><ele>79.0</ele><time>2026-04-25T07:01:26.954Z</time></trkpt><trkpt lat="45.65815" lon="11.47948"><ele>79.0</ele><time>2026-04-25T07:01:27.956Z</time></trkpt><trkpt lat="45.658315" lon="11.4797733"><ele>79.0</ele><time>2026-04-25T07:01:28.958Z</time></trkpt><trkpt lat="45.6584733" lon="11.4800667"><ele>79.0</ele><time>2026-04-25T07:01:29.955Z</time></trkpt><trkpt lat="45.65862" lon="11.4803683"><ele>79.5</ele><time>2026-04-25T07:01:30.956Z</time></trkpt><trkpt lat="45.6587683" lon="11.480675"><ele>80.0</ele><time>2026-04-25T07:01:31.956Z</time></trkpt><trkpt lat="45.6589133" lon="11.4809817"><ele>79.5</ele><time>2026-04-25T07:01:32.956Z</time></trkpt><trkpt lat="45.6590567" lon="11.4812917"><ele>79.0</ele><time>2026-04-25T07:01:33.96Z</time></trkpt><trkpt lat="45.659195" lon="11.4816"><ele>79.0</ele><time>2026-04-25T07:01:34.957Z</time></trkpt><trkpt lat="45.6593283" lon="11.48191"><ele>79.0</ele><time>2026-04-25T07:01:35.956Z</time></trkpt><trkpt lat="45.659455" lon="11.4822217"><ele>79.5</ele><time>2026-04-25T07:01:36.955Z</time></trkpt><trkpt lat="45.6595767" lon="11.4825317"><ele>80.0</ele><time>2026-04-25T07:01:37.956Z</time></trkpt><trkpt lat="45.6597" lon="11.4828433"><ele>80.0</ele><time>2026-04-25T07:01:38.954Z</time></trkpt><trkpt lat="45.65982" lon="11.4831567"><ele>80.0</ele><time>2026-04-25T07:01:39.957Z</time></trkpt><trkpt lat="45.65994" lon="11.48348"><ele>79.5</ele><time>2026-04-25T07:01:40.956Z</time></trkpt><trkpt lat="45.6600617" lon="11.4838117"><ele>79.0</ele><time>2026-04-25T07:01:41.954Z</time></trkpt><trkpt lat="45.6601833" lon="11.484155"><ele>79.0</ele><time>2026-04-25T07:01:42.956Z</time></trkpt><trkpt lat="45.6603033" lon="11.484505"><ele>79.0</ele><time>2026-04-25T07:01:43.955Z</time></trkpt><trkpt lat="45.6604233" lon="11.4848633"><ele>79.5</ele><time>2026-04-25T07:01:44.955Z</time></trkpt><trkpt lat="45.66054" lon="11.4852283"><ele>80.0</ele><time>2026-04-25T07:01:45.955Z</time></trkpt><trkpt lat="45.6606483" lon="11.4856033"><ele>80.0</ele><time>2026-04-25T07:01:46.956Z</time></trkpt><trkpt lat="45.6607517" lon="11.485985"><ele>80.0</ele><time>2026-04-25T07:01:47.956Z</time></trkpt><trkpt lat="45.660855" lon="11.4863683"><ele>79.0</ele><time>2026-04-25T07:01:48.954Z</time></trkpt><trkpt lat="45.6609583" lon="11.4867633"><ele>78.0</ele><time>2026-04-25T07:01:49.956Z</time></trkpt><trkpt lat="45.6610567" lon="11.487165"><ele>78.5</ele><time>2026-04-25T07:01:50.955Z</time></trkpt><trkpt lat="45.6611517" lon="11.4875717"><ele>79.0</ele><time>2026-04-25T07:01:51.956Z</time></trkpt><trkpt lat="45.661245" lon="11.487975"><ele>79.0</ele><time>2026-04-25T07:01:52.956Z</time></trkpt><trkpt lat="45.6613367" lon="11.4883783"><ele>79.0</ele><time>2026-04-25T07:01:53.954Z</time></trkpt><trkpt lat="45.6614283" lon="11.4887783"><ele>79.0</ele><time>2026-04-25T07:01:54.956Z</time></trkpt><trkpt lat="45.6615167" lon="11.4891733"><ele>79.0</ele><time>2026-04-25T07:01:55.956Z</time></trkpt><trkpt lat="45.6616083" lon="11.4895617"><ele>79.5</ele><time>2026-04-25T07:01:56.955Z</time></trkpt><trkpt lat="45.6616967" lon="11.48994"><ele>80.0</ele><time>2026-04-25T07:01:57.955Z</time></trkpt><trkpt lat="45.661785" lon="11.49031"><ele>79.5</ele><time>2026-04-25T07:01:58.955Z</time></trkpt><trkpt lat="45.6618733" lon="11.4906717"><ele>79.0</ele><time>2026-04-25T07:01:59.955Z</time></trkpt><trkpt lat="45.6619567" lon="11.4910283"><ele>80.0</ele><time>2026-04-25T07:02:00.956Z</time></trkpt><trkpt lat="45.6620417" lon="11.491385"><ele>81.0</ele><time>2026-04-25T07:02:01.956Z</time></trkpt><trkpt lat="45.662125" lon="11.4917417"><ele>79.0</ele><time>2026-04-25T07:02:02.956Z</time></trkpt><trkpt lat="45.66327" lon="11.4969717"><ele>79.5</ele><time>2026-04-25T07:02:17.955Z</time></trkpt><trkpt lat="45.6633783" lon="11.497385"><ele>80.0</ele><time>2026-04-25T07:02:18.954Z</time></trkpt><trkpt lat="45.66349" lon="11.4978167"><ele>79.5</ele><time>2026-04-25T07:02:19.956Z</time></trkpt><trkpt lat="45.6635967" lon="11.4982267"><ele>79.0</ele><time>2026-04-25T07:02:20.956Z</time></trkpt><trkpt lat="45.663695" lon="11.4986167"><ele>78.0</ele><time>2026-04-25T07:02:21.956Z</time></trkpt><trkpt lat="45.66379" lon="11.4989883"><ele>77.0</ele><time>2026-04-25T07:02:22.954Z</time></trkpt><trkpt lat="45.6638733" lon="11.4993517"><ele>77.0</ele><time>2026-04-25T07:02:23.956Z</time></trkpt><trkpt lat="45.663955" lon="11.4997067"><ele>77.0</ele><time>2026-04-25T07:02:24.956Z</time></trkpt><trkpt lat="45.66438" lon="11.5014917"><ele>76.5</ele><time>2026-04-25T07:02:29.956Z</time></trkpt><trkpt lat="45.6644733" lon="11.5018283"><ele>76.0</ele><time>2026-04-25T07:02:30.955Z</time></trkpt><trkpt lat="45.664555" lon="11.5021733"><ele>77.5</ele><time>2026-04-25T07:02:31.956Z</time></trkpt><trkpt lat="45.6646417" lon="11.5025233"><ele>79.0</ele><time>2026-04-25T07:02:32.956Z</time></trkpt><trkpt lat="45.6647317" lon="11.50288"><ele>78.0</ele><time>2026-04-25T07:02:33.955Z</time></trkpt><trkpt lat="45.66482" lon="11.5032383"><ele>77.0</ele><time>2026-04-25T07:02:34.954Z</time></trkpt><trkpt lat="45.664915" lon="11.5036"><ele>75.5</ele><time>2026-04-25T07:02:35.955Z</time></trkpt><trkpt lat="45.6650083" lon="11.5039667"><ele>74.0</ele><time>2026-04-25T07:02:36.955Z</time></trkpt><trkpt lat="45.6650983" lon="11.504335"><ele>75.0</ele><time>2026-04-25T07:02:37.956Z</time></trkpt><trkpt lat="45.6651917" lon="11.5047083"><ele>76.0</ele><time>2026-04-25T07:02:38.955Z</time></trkpt><trkpt lat="45.6652833" lon="11.5050817"><ele>77.0</ele><time>2026-04-25T07:02:39.956Z</time></trkpt><trkpt lat="45.6653767" lon="11.5054617"><ele>78.0</ele><time>2026-04-25T07:02:40.956Z</time></trkpt><trkpt lat="45.6654683" lon="11.50584"><ele>78.0</ele><time>2026-04-25T07:02:41.955Z</time></trkpt><trkpt lat="45.6655583" lon="11.5062183"><ele>78.0</ele><time>2026-04-25T07:02:42.956Z</time></trkpt><trkpt lat="45.6656483" lon="11.506595"><ele>77.5</ele><time>2026-04-25T07:02:43.956Z</time></trkpt><trkpt lat="45.66574" lon="11.50697"><ele>77.0</ele><time>2026-04-25T07:02:44.955Z</time></trkpt><trkpt lat="45.6658267" lon="11.5073367"><ele>76.0</ele><time>2026-04-25T07:02:45.956Z</time></trkpt><trkpt lat="45.6659133" lon="11.5076967"><ele>75.0</ele><time>2026-04-25T07:02:46.955Z</time></trkpt><trkpt lat="45.6659983" lon="11.5080583"><ele>75.0</ele><time>2026-04-25T07:02:47.955Z</time></trkpt><trkpt lat="45.6660833" lon="11.50842"><ele>75.0</ele><time>2026-04-25T07:02:48.955Z</time></trkpt><trkpt lat="45.6661667" lon="11.5087833"><ele>75.5</ele><time>2026-04-25T07:02:49.955Z</time></trkpt><trkpt lat="45.66625" lon="11.509145"><ele>76.0</ele><time>2026-04-25T07:02:50.955Z</time></trkpt><trkpt lat="45.6663383" lon="11.5095"><ele>76.0</ele><time>2026-04-25T07:02:51.956Z</time></trkpt><trkpt lat="45.66643" lon="11.5098517"><ele>76.0</ele><time>2026-04-25T07:02:52.956Z</time></trkpt><trkpt lat="45.6665317" lon="11.5102"><ele>76.5</ele><time>2026-04-25T07:02:53.956Z</time></trkpt><trkpt lat="45.6666367" lon="11.510545"><ele>77.0</ele><time>2026-04-25T07:02:54.954Z</time></trkpt><trkpt lat="45.6667533" lon="11.5108867"><ele>77.0</ele><time>2026-04-25T07:02:55.956Z</time></trkpt><trkpt lat="45.66688" lon="11.5112233"><ele>77.0</ele><time>2026-04-25T07:02:56.955Z</time></trkpt><trkpt lat="45.667015" lon="11.5115567"><ele>77.0</ele><time>2026-04-25T07:02:57.956Z</time></trkpt><trkpt lat="45.6671533" lon="11.5118883"><ele>77.0</ele><time>2026-04-25T07:02:58.956Z</time></trkpt><trkpt lat="45.6672983" lon="11.512215"><ele>76.5</ele><time>2026-04-25T07:02:59.955Z</time></trkpt><trkpt lat="45.6674483" lon="11.5125367"><ele>76.0</ele><time>2026-04-25T07:03:00.956Z</time></trkpt><trkpt lat="45.6676067" lon="11.5128517"><ele>75.5</ele><time>2026-04-25T07:03:01.956Z</time></trkpt><trkpt lat="45.6677683" lon="11.5131567"><ele>75.0</ele><time>2026-04-25T07:03:02.955Z</time></trkpt><trkpt lat="45.66794" lon="11.513465"><ele>77.0</ele><time>2026-04-25T07:03:03.956Z</time></trkpt><trkpt lat="45.6681117" lon="11.5137583"><ele>79.0</ele><time>2026-04-25T07:03:04.957Z</time></trkpt><trkpt lat="45.6682917" lon="11.5140417"><ele>79.0</ele><time>2026-04-25T07:03:05.955Z</time></trkpt><trkpt lat="45.6684767" lon="11.514315"><ele>79.0</ele><time>2026-04-25T07:03:06.956Z</time></trkpt><trkpt lat="45.6686683" lon="11.51458"><ele>79.0</ele><time>2026-04-25T07:03:07.956Z</time></trkpt><trkpt lat="45.66886" lon="11.5148383"><ele>79.0</ele><time>2026-04-25T07:03:08.955Z</time></trkpt><trkpt lat="45.6690517" lon="11.515095"><ele>79.0</ele><time>2026-04-25T07:03:09.955Z</time></trkpt><trkpt lat="45.6692483" lon="11.515345"><ele>79.0</ele><time>2026-04-25T07:03:10.956Z</time></trkpt><trkpt lat="45.6694517" lon="11.5155833"><ele>79.0</ele><time>2026-04-25T07:03:11.956Z</time></trkpt><trkpt lat="45.669665" lon="11.5158117"><ele>79.0</ele><time>2026-04-25T07:03:12.956Z</time></trkpt><trkpt lat="45.6698833" lon="11.5160317"><ele>79.5</ele><time>2026-04-25T07:03:13.955Z</time></trkpt><trkpt lat="45.6701017" lon="11.51625"><ele>80.0</ele><time>2026-04-25T07:03:14.955Z</time></trkpt><trkpt lat="45.67032" lon="11.5164717"><ele>80.5</ele><time>2026-04-25T07:03:15.956Z</time></trkpt><trkpt lat="45.6705417" lon="11.5166917"><ele>81.0</ele><time>2026-04-25T07:03:16.955Z</time></trkpt><trkpt lat="45.6707667" lon="11.516925"><ele>80.0</ele><time>2026-04-25T07:03:17.955Z</time></trkpt><trkpt lat="45.6710333" lon="11.51708"><ele>79.0</ele><time>2026-04-25T07:03:18.955Z</time></trkpt><trkpt lat="45.671295" lon="11.51722"><ele>79.0</ele><time>2026-04-25T07:03:19.954Z</time></trkpt><trkpt lat="45.671545" lon="11.5173667"><ele>79.0</ele><time>2026-04-25T07:03:20.954Z</time></trkpt><trkpt lat="45.6717933" lon="11.517515"><ele>80.0</ele><time>2026-04-25T07:03:21.956Z</time></trkpt><trkpt lat="45.6720433" lon="11.5176567"><ele>81.0</ele><time>2026-04-25T07:03:22.956Z</time></trkpt><trkpt lat="45.6722983" lon="11.5177883"><ele>80.5</ele><time>2026-04-25T07:03:23.956Z</time></trkpt><trkpt lat="45.6725517" lon="11.51791"><ele>80.0</ele><time>2026-04-25T07:03:24.957Z</time></trkpt><trkpt lat="45.6728033" lon="11.5180233"><ele>78.5</ele><time>2026-04-25T07:03:25.956Z</time></trkpt><trkpt lat="45.6730583" lon="11.5181267"><ele>77.0</ele><time>2026-04-25T07:03:26.954Z</time></trkpt><trkpt lat="45.6733133" lon="11.51822"><ele>77.0</ele><time>2026-04-25T07:03:27.956Z</time></trkpt><trkpt lat="45.673575" lon="11.5183017"><ele>77.0</ele><time>2026-04-25T07:03:28.955Z</time></trkpt><trkpt lat="45.6738383" lon="11.5183733"><ele>78.0</ele><time>2026-04-25T07:03:29.956Z</time></trkpt><trkpt lat="45.6741017" lon="11.5184333"><ele>79.0</ele><time>2026-04-25T07:03:30.955Z</time></trkpt><trkpt lat="45.674365" lon="11.5184867"><ele>81.0</ele><time>2026-04-25T07:03:31.955Z</time></trkpt><trkpt lat="45.6746267" lon="11.518535"><ele>83.0</ele><time>2026-04-25T07:03:32.954Z</time></trkpt><trkpt lat="45.6748917" lon="11.5185767"><ele>83.0</ele><time>2026-04-25T07:03:33.956Z</time></trkpt><trkpt lat="45.6751583" lon="11.5186183"><ele>83.0</ele><time>2026-04-25T07:03:34.955Z</time></trkpt><trkpt lat="45.6754317" lon="11.518655"><ele>82.5</ele><time>2026-04-25T07:03:35.955Z</time></trkpt><trkpt lat="45.67571" lon="11.51869"><ele>82.0</ele><time>2026-04-25T07:03:36.956Z</time></trkpt><trkpt lat="45.6759933" lon="11.51873"><ele>83.0</ele><time>2026-04-25T07:03:37.957Z</time></trkpt><trkpt lat="45.6762783" lon="11.5187717"><ele>84.0</ele><time>2026-04-25T07:03:38.956Z</time></trkpt><trkpt lat="45.6765633" lon="11.5188183"><ele>84.0</ele><time>2026-04-25T07:03:39.956Z</time></trkpt><trkpt lat="45.6768467" lon="11.5188683"><ele>84.0</ele><time>2026-04-25T07:03:40.955Z</time></trkpt><trkpt lat="45.6771267" lon="11.5189167"><ele>84.0</ele><time>2026-04-25T07:03:41.955Z</time></trkpt><trkpt lat="45.677405" lon="11.5189617"><ele>84.0</ele><time>2026-04-25T07:03:42.957Z</time></trkpt><trkpt lat="45.677675" lon="11.5190117"><ele>84.0</ele><time>2026-04-25T07:03:43.955Z</time></trkpt><trkpt lat="45.677945" lon="11.519065"><ele>84.0</ele><time>2026-04-25T07:03:44.955Z</time></trkpt><trkpt lat="45.6782067" lon="11.5191267"><ele>84.0</ele><time>2026-04-25T07:03:45.955Z</time></trkpt><trkpt lat="45.6784667" lon="11.5191933"><ele>84.0</ele><time>2026-04-25T07:03:46.957Z</time></trkpt><trkpt lat="45.6787267" lon="11.5192633"><ele>85.0</ele><time>2026-04-25T07:03:47.954Z</time></trkpt><trkpt lat="45.678985" lon="11.51934"><ele>86.0</ele><time>2026-04-25T07:03:48.957Z</time></trkpt><trkpt lat="45.679245" lon="11.51943"><ele>86.5</ele><time>2026-04-25T07:03:49.956Z</time></trkpt><trkpt lat="45.6795033" lon="11.5195317"><ele>87.0</ele><time>2026-04-25T07:03:50.955Z</time></trkpt><trkpt lat="45.6797633" lon="11.51964"><ele>87.0</ele><time>2026-04-25T07:03:51.955Z</time></trkpt><trkpt lat="45.6800233" lon="11.5197533"><ele>87.0</ele><time>2026-04-25T07:03:52.958Z</time></trkpt><trkpt lat="45.68028" lon="11.5198783"><ele>87.0</ele><time>2026-04-25T07:03:53.955Z</time></trkpt><trkpt lat="45.6805383" lon="11.5200167"><ele>87.0</ele><time>2026-04-25T07:03:54.956Z</time></trkpt><trkpt lat="45.6807917" lon="11.520165"><ele>87.0</ele><time>2026-04-25T07:03:55.957Z</time></trkpt><trkpt lat="45.681045" lon="11.5203217"><ele>87.0</ele><time>2026-04-25T07:03:56.956Z</time></trkpt><trkpt lat="45.6813" lon="11.5204867"><ele>87.0</ele><time>2026-04-25T07:03:57.956Z</time></trkpt><trkpt lat="45.6815517" lon="11.5206583"><ele>87.0</ele><time>2026-04-25T07:03:58.955Z</time></trkpt><trkpt lat="45.6817967" lon="11.52084"><ele>87.5</ele><time>2026-04-25T07:03:59.956Z</time></trkpt><trkpt lat="45.6820367" lon="11.5210317"><ele>88.0</ele><time>2026-04-25T07:04:00.956Z</time></trkpt><trkpt lat="45.6822717" lon="11.5212317"><ele>87.5</ele><time>2026-04-25T07:04:01.957Z</time></trkpt><trkpt lat="45.6825017" lon="11.5214417"><ele>87.0</ele><time>2026-04-25T07:04:02.957Z</time></trkpt><trkpt lat="45.6827267" lon="11.52166"><ele>88.0</ele><time>2026-04-25T07:04:03.955Z</time></trkpt><trkpt lat="45.68295" lon="11.521885"><ele>89.0</ele><time>2026-04-25T07:04:04.955Z</time></trkpt><trkpt lat="45.6831667" lon="11.5221217"><ele>89.0</ele><time>2026-04-25T07:04:05.96Z</time></trkpt><trkpt lat="45.68338" lon="11.522365"><ele>89.0</ele><time>2026-04-25T07:04:06.955Z</time></trkpt><trkpt lat="45.6835917" lon="11.522615"><ele>88.5</ele><time>2026-04-25T07:04:07.955Z</time></trkpt><trkpt lat="45.6838033" lon="11.5228733"><ele>88.0</ele><time>2026-04-25T07:04:08.955Z</time></trkpt><trkpt lat="45.6840133" lon="11.523135"><ele>89.0</ele><time>2026-04-25T07:04:09.956Z</time></trkpt><trkpt lat="45.6842117" lon="11.523405"><ele>90.0</ele><time>2026-04-25T07:04:10.956Z</time></trkpt><trkpt lat="45.684405" lon="11.52368"><ele>89.5</ele><time>2026-04-25T07:04:11.955Z</time></trkpt><trkpt lat="45.6845933" lon="11.52396"><ele>89.0</ele><time>2026-04-25T07:04:12.956Z</time></trkpt><trkpt lat="45.6847767" lon="11.5242433"><ele>89.0</ele><time>2026-04-25T07:04:13.954Z</time></trkpt><trkpt lat="45.6849567" lon="11.5245267"><ele>89.0</ele><time>2026-04-25T07:04:14.955Z</time></trkpt><trkpt lat="45.68513" lon="11.5248033"><ele>91.5</ele><time>2026-04-25T07:04:15.956Z</time></trkpt><trkpt lat="45.6853" lon="11.5250767"><ele>94.0</ele><time>2026-04-25T07:04:16.955Z</time></trkpt><trkpt lat="45.6854667" lon="11.5253433"><ele>94.0</ele><time>2026-04-25T07:04:17.954Z</time></trkpt><trkpt lat="45.6856317" lon="11.52561"><ele>94.0</ele><time>2026-04-25T07:04:18.956Z</time></trkpt><trkpt lat="45.685795" lon="11.5258717"><ele>94.0</ele><time>2026-04-25T07:04:19.955Z</time></trkpt><trkpt lat="45.685955" lon="11.5261367"><ele>94.0</ele><time>2026-04-25T07:04:20.955Z</time></trkpt><trkpt lat="45.686115" lon="11.5264067"><ele>94.5</ele><time>2026-04-25T07:04:21.955Z</time></trkpt><trkpt lat="45.6862733" lon="11.5266783"><ele>95.0</ele><time>2026-04-25T07:04:22.956Z</time></trkpt><trkpt lat="45.6864333" lon="11.52695"><ele>94.0</ele><time>2026-04-25T07:04:23.955Z</time></trkpt><trkpt lat="45.6865933" lon="11.5272233"><ele>93.0</ele><time>2026-04-25T07:04:24.961Z</time></trkpt><trkpt lat="45.6867483" lon="11.5274933"><ele>102.0</ele><time>2026-04-25T07:04:25.955Z</time></trkpt><trkpt lat="45.68993" lon="11.5322917"><ele>102.0</ele><time>2026-04-25T07:04:44.955Z</time></trkpt><trkpt lat="45.6900833" lon="11.5325917"><ele>102.0</ele><time>2026-04-25T07:04:45.957Z</time></trkpt><trkpt lat="45.6902383" lon="11.5328833"><ele>102.5</ele><time>2026-04-25T07:04:46.956Z</time></trkpt><trkpt lat="45.6904067" lon="11.533165"><ele>103.0</ele><time>2026-04-25T07:04:47.955Z</time></trkpt><trkpt lat="45.6905767" lon="11.5334533"><ele>102.0</ele><time>2026-04-25T07:04:48.955Z</time></trkpt><trkpt lat="45.69075" lon="11.5337367"><ele>101.0</ele><time>2026-04-25T07:04:49.956Z</time></trkpt><trkpt lat="45.6909267" lon="11.534025"><ele>101.5</ele><time>2026-04-25T07:04:50.954Z</time></trkpt><trkpt lat="45.6911033" lon="11.5343167"><ele>102.0</ele><time>2026-04-25T07:04:51.956Z</time></trkpt><trkpt lat="45.691275" lon="11.534615"><ele>102.5</ele><time>2026-04-25T07:04:52.956Z</time></trkpt><trkpt lat="45.6914483" lon="11.5349217"><ele>103.0</ele><time>2026-04-25T07:04:53.954Z</time></trkpt><trkpt lat="45.6916183" lon="11.5352317"><ele>103.0</ele><time>2026-04-25T07:04:54.955Z</time></trkpt><trkpt lat="45.69178" lon="11.5355417"><ele>103.0</ele><time>2026-04-25T07:04:55.954Z</time></trkpt><trkpt lat="45.6919383" lon="11.5358467"><ele>102.5</ele><time>2026-04-25T07:04:56.958Z</time></trkpt><trkpt lat="45.6920883" lon="11.536155"><ele>102.0</ele><time>2026-04-25T07:04:57.956Z</time></trkpt><trkpt lat="45.69223" lon="11.5364633"><ele>102.0</ele><time>2026-04-25T07:04:58.957Z</time></trkpt><trkpt lat="45.6923617" lon="11.5367717"><ele>102.0</ele><time>2026-04-25T07:04:59.956Z</time></trkpt><trkpt lat="45.69249" lon="11.537085"><ele>103.0</ele><time>2026-04-25T07:05:00.956Z</time></trkpt><trkpt lat="45.692615" lon="11.5374017"><ele>104.0</ele><time>2026-04-25T07:05:01.956Z</time></trkpt><trkpt lat="45.6927367" lon="11.53772"><ele>104.0</ele><time>2026-04-25T07:05:02.955Z</time></trkpt><trkpt lat="45.692855" lon="11.5380383"><ele>104.0</ele><time>2026-04-25T07:05:03.955Z</time></trkpt><trkpt lat="45.6929683" lon="11.5383583"><ele>104.0</ele><time>2026-04-25T07:05:04.955Z</time></trkpt><trkpt lat="45.6930767" lon="11.53868"><ele>104.0</ele><time>2026-04-25T07:05:05.955Z</time></trkpt><trkpt lat="45.6931833" lon="11.5390017"><ele>104.0</ele><time>2026-04-25T07:05:06.956Z</time></trkpt><trkpt lat="45.6932917" lon="11.5393217"><ele>104.0</ele><time>2026-04-25T07:05:07.956Z</time></trkpt><trkpt lat="45.6933983" lon="11.5396383"><ele>104.0</ele><time>2026-04-25T07:05:08.955Z</time></trkpt><trkpt lat="45.6935883" lon="11.5402767"><ele>104.0</ele><time>2026-04-25T07:05:10.956Z</time></trkpt><trkpt lat="45.6936517" lon="11.5406"><ele>104.0</ele><time>2026-04-25T07:05:11.955Z</time></trkpt><trkpt lat="45.6937167" lon="11.5409317"><ele>104.5</ele><time>2026-04-25T07:05:12.955Z</time></trkpt><trkpt lat="45.693775" lon="11.5412667"><ele>105.0</ele><time>2026-04-25T07:05:13.955Z</time></trkpt><trkpt lat="45.6938433" lon="11.541605"><ele>105.0</ele><time>2026-04-25T07:05:14.956Z</time></trkpt><trkpt lat="45.6939" lon="11.541955"><ele>105.0</ele><time>2026-04-25T07:05:15.957Z</time></trkpt><trkpt lat="45.693955" lon="11.54231"><ele>104.0</ele><time>2026-04-25T07:05:16.956Z</time></trkpt><trkpt lat="45.694005" lon="11.5426767"><ele>103.0</ele><time>2026-04-25T07:05:17.955Z</time></trkpt><trkpt lat="45.694055" lon="11.5430517"><ele>102.5</ele><time>2026-04-25T07:05:18.955Z</time></trkpt><trkpt lat="45.6941083" lon="11.5434317"><ele>102.0</ele><time>2026-04-25T07:05:19.956Z</time></trkpt><trkpt lat="45.69416" lon="11.543815"><ele>102.0</ele><time>2026-04-25T07:05:20.955Z</time></trkpt><trkpt lat="45.6942067" lon="11.5441983"><ele>102.0</ele><time>2026-04-25T07:05:21.958Z</time></trkpt><trkpt lat="45.6942533" lon="11.5445817"><ele>103.0</ele><time>2026-04-25T07:05:22.955Z</time></trkpt><trkpt lat="45.6942983" lon="11.544965"><ele>104.0</ele><time>2026-04-25T07:05:23.956Z</time></trkpt><trkpt lat="45.6943417" lon="11.5453467"><ele>104.0</ele><time>2026-04-25T07:05:24.954Z</time></trkpt><trkpt lat="45.6943867" lon="11.54573"><ele>104.0</ele><time>2026-04-25T07:05:25.956Z</time></trkpt><trkpt lat="45.69443" lon="11.54611"><ele>103.0</ele><time>2026-04-25T07:05:26.954Z</time></trkpt><trkpt lat="45.6944733" lon="11.54649"><ele>102.0</ele><time>2026-04-25T07:05:27.956Z</time></trkpt><trkpt lat="45.6945167" lon="11.5468717"><ele>102.5</ele><time>2026-04-25T07:05:28.956Z</time></trkpt><trkpt lat="45.6945617" lon="11.5472533"><ele>103.0</ele><time>2026-04-25T07:05:29.955Z</time></trkpt><trkpt lat="45.6946067" lon="11.547635"><ele>102.0</ele><time>2026-04-25T07:05:30.954Z</time></trkpt><trkpt lat="45.6946517" lon="11.548015"><ele>101.0</ele><time>2026-04-25T07:05:31.955Z</time></trkpt><trkpt lat="45.694695" lon="11.548395"><ele>98.0</ele><time>2026-04-25T07:05:32.954Z</time></trkpt><trkpt lat="45.6947383" lon="11.5487767"><ele>95.0</ele><time>2026-04-25T07:05:33.955Z</time></trkpt><trkpt lat="45.6947783" lon="11.5491583"><ele>95.0</ele><time>2026-04-25T07:05:34.955Z</time></trkpt><trkpt lat="45.6948183" lon="11.5495383"><ele>95.0</ele><time>2026-04-25T07:05:35.955Z</time></trkpt><trkpt lat="45.6948583" lon="11.54992"><ele>95.5</ele><time>2026-04-25T07:05:36.955Z</time></trkpt><trkpt lat="45.6948983" lon="11.5503"><ele>96.0</ele><time>2026-04-25T07:05:37.956Z</time></trkpt><trkpt lat="45.694935" lon="11.5506783"><ele>98.0</ele><time>2026-04-25T07:05:38.955Z</time></trkpt><trkpt lat="45.694965" lon="11.5510483"><ele>100.0</ele><time>2026-04-25T07:05:39.955Z</time></trkpt><trkpt lat="45.694995" lon="11.55141"><ele>100.5</ele><time>2026-04-25T07:05:40.954Z</time></trkpt><trkpt lat="45.6950267" lon="11.551775"><ele>101.0</ele><time>2026-04-25T07:05:41.956Z</time></trkpt><trkpt lat="45.6950583" lon="11.5521417"><ele>101.0</ele><time>2026-04-25T07:05:42.955Z</time></trkpt><trkpt lat="45.69509" lon="11.5525083"><ele>101.0</ele><time>2026-04-25T07:05:43.955Z</time></trkpt><trkpt lat="45.6951233" lon="11.5528783"><ele>100.5</ele><time>2026-04-25T07:05:44.955Z</time></trkpt><trkpt lat="45.6951533" lon="11.5532483"><ele>100.0</ele><time>2026-04-25T07:05:45.955Z</time></trkpt><trkpt lat="45.695185" lon="11.55362"><ele>100.0</ele><time>2026-04-25T07:05:46.956Z</time></trkpt><trkpt lat="45.6952133" lon="11.5539933"><ele>100.0</ele><time>2026-04-25T07:05:47.955Z</time></trkpt><trkpt lat="45.6952417" lon="11.5543667"><ele>102.0</ele><time>2026-04-25T07:05:48.956Z</time></trkpt><trkpt lat="45.6952733" lon="11.55474"><ele>104.0</ele><time>2026-04-25T07:05:49.954Z</time></trkpt><trkpt lat="45.6953033" lon="11.5551117"><ele>104.5</ele><time>2026-04-25T07:05:50.956Z</time></trkpt><trkpt lat="45.6953317" lon="11.5554817"><ele>105.0</ele><time>2026-04-25T07:05:51.955Z</time></trkpt><trkpt lat="45.69536" lon="11.55585"><ele>105.0</ele><time>2026-04-25T07:05:52.956Z</time></trkpt><trkpt lat="45.6953883" lon="11.5562167"><ele>105.0</ele><time>2026-04-25T07:05:53.954Z</time></trkpt><trkpt lat="45.6954133" lon="11.5565817"><ele>105.0</ele><time>2026-04-25T07:05:54.956Z</time></trkpt><trkpt lat="45.695435" lon="11.5569467"><ele>105.0</ele><time>2026-04-25T07:05:55.956Z</time></trkpt><trkpt lat="45.695455" lon="11.5573083"><ele>104.0</ele><time>2026-04-25T07:05:56.956Z</time></trkpt><trkpt lat="45.695475" lon="11.5576717"><ele>103.0</ele><time>2026-04-25T07:05:57.955Z</time></trkpt><trkpt lat="45.6954967" lon="11.5580367"><ele>103.0</ele><time>2026-04-25T07:05:58.956Z</time></trkpt><trkpt lat="45.6955183" lon="11.5584083"><ele>103.0</ele><time>2026-04-25T07:05:59.958Z</time></trkpt><trkpt lat="45.6955383" lon="11.5587733"><ele>103.0</ele><time>2026-04-25T07:06:00.956Z</time></trkpt><trkpt lat="45.695555" lon="11.559145"><ele>103.0</ele><time>2026-04-25T07:06:01.955Z</time></trkpt><trkpt lat="45.695575" lon="11.559525"><ele>102.5</ele><time>2026-04-25T07:06:02.954Z</time></trkpt><trkpt lat="45.6955967" lon="11.559915"><ele>102.0</ele><time>2026-04-25T07:06:03.955Z</time></trkpt><trkpt lat="45.6956167" lon="11.56031"><ele>102.0</ele><time>2026-04-25T07:06:04.955Z</time></trkpt><trkpt lat="45.6956333" lon="11.56071"><ele>102.0</ele><time>2026-04-25T07:06:05.955Z</time></trkpt><trkpt lat="45.69565" lon="11.561115"><ele>101.5</ele><time>2026-04-25T07:06:06.956Z</time></trkpt><trkpt lat="45.6956683" lon="11.56152"><ele>101.0</ele><time>2026-04-25T07:06:07.954Z</time></trkpt><trkpt lat="45.695685" lon="11.5619217"><ele>101.0</ele><time>2026-04-25T07:06:08.955Z</time></trkpt><trkpt lat="45.6957" lon="11.5623133"><ele>101.0</ele><time>2026-04-25T07:06:09.955Z</time></trkpt><trkpt lat="45.6957117" lon="11.5627"><ele>101.0</ele><time>2026-04-25T07:06:10.955Z</time></trkpt><trkpt lat="45.6957217" lon="11.563085"><ele>101.0</ele><time>2026-04-25T07:06:11.955Z</time></trkpt><trkpt lat="45.69573" lon="11.5634683"><ele>101.5</ele><time>2026-04-25T07:06:12.958Z</time></trkpt><trkpt lat="45.6957317" lon="11.56385"><ele>102.0</ele><time>2026-04-25T07:06:13.954Z</time></trkpt><trkpt lat="45.6957467" lon="11.564235"><ele>101.0</ele><time>2026-04-25T07:06:14.955Z</time></trkpt><trkpt lat="45.6957667" lon="11.5646233"><ele>100.0</ele><time>2026-04-25T07:06:15.954Z</time></trkpt><trkpt lat="45.6957833" lon="11.56501"><ele>98.5</ele><time>2026-04-25T07:06:16.956Z</time></trkpt><trkpt lat="45.69579" lon="11.5653933"><ele>97.0</ele><time>2026-04-25T07:06:17.955Z</time></trkpt><trkpt lat="45.6958" lon="11.565775"><ele>97.0</ele><time>2026-04-25T07:06:18.955Z</time></trkpt><trkpt lat="45.69581" lon="11.566155"><ele>97.0</ele><time>2026-04-25T07:06:19.955Z</time></trkpt><trkpt lat="45.69582" lon="11.5665283"><ele>96.5</ele><time>2026-04-25T07:06:20.956Z</time></trkpt><trkpt lat="45.6958283" lon="11.5669"><ele>96.0</ele><time>2026-04-25T07:06:21.955Z</time></trkpt><trkpt lat="45.6958417" lon="11.56727"><ele>96.5</ele><time>2026-04-25T07:06:22.956Z</time></trkpt><trkpt lat="45.695855" lon="11.567645"><ele>97.0</ele><time>2026-04-25T07:06:23.955Z</time></trkpt><trkpt lat="45.695865" lon="11.5680233"><ele>97.0</ele><time>2026-04-25T07:06:24.954Z</time></trkpt><trkpt lat="45.695875" lon="11.568405"><ele>97.0</ele><time>2026-04-25T07:06:25.955Z</time></trkpt><trkpt lat="45.6958883" lon="11.56879"><ele>96.5</ele><time>2026-04-25T07:06:26.956Z</time></trkpt><trkpt lat="45.6959033" lon="11.56918"><ele>96.0</ele><time>2026-04-25T07:06:27.954Z</time></trkpt><trkpt lat="45.6959233" lon="11.5695717"><ele>96.0</ele><time>2026-04-25T07:06:28.956Z</time></trkpt><trkpt lat="45.6959417" lon="11.5699633"><ele>96.0</ele><time>2026-04-25T07:06:29.955Z</time></trkpt><trkpt lat="45.6959633" lon="11.5703583"><ele>95.5</ele><time>2026-04-25T07:06:30.956Z</time></trkpt><trkpt lat="45.6959883" lon="11.57075"><ele>95.0</ele><time>2026-04-25T07:06:31.954Z</time></trkpt><trkpt lat="45.6960133" lon="11.5711367"><ele>95.0</ele><time>2026-04-25T07:06:32.956Z</time></trkpt><trkpt lat="45.6960417" lon="11.5715167"><ele>95.0</ele><time>2026-04-25T07:06:33.955Z</time></trkpt><trkpt lat="45.6960717" lon="11.5718933"><ele>95.5</ele><time>2026-04-25T07:06:34.957Z</time></trkpt><trkpt lat="45.6961033" lon="11.5722683"><ele>96.0</ele><time>2026-04-25T07:06:35.956Z</time></trkpt><trkpt lat="45.6961367" lon="11.5726433"><ele>95.5</ele><time>2026-04-25T07:06:36.956Z</time></trkpt><trkpt lat="45.6961733" lon="11.5730117"><ele>95.0</ele><time>2026-04-25T07:06:37.955Z</time></trkpt><trkpt lat="45.6962117" lon="11.5733783"><ele>95.0</ele><time>2026-04-25T07:06:38.955Z</time></trkpt><trkpt lat="45.6962533" lon="11.5737417"><ele>95.0</ele><time>2026-04-25T07:06:39.955Z</time></trkpt><trkpt lat="45.6962967" lon="11.5741017"><ele>95.0</ele><time>2026-04-25T07:06:40.956Z</time></trkpt><trkpt lat="45.6963433" lon="11.5744617"><ele>95.0</ele><time>2026-04-25T07:06:41.955Z</time></trkpt><trkpt lat="45.6963933" lon="11.574825"><ele>95.5</ele><time>2026-04-25T07:06:42.955Z</time></trkpt><trkpt lat="45.696445" lon="11.5751867"><ele>96.0</ele><time>2026-04-25T07:06:43.956Z</time></trkpt><trkpt lat="45.6964983" lon="11.57555"><ele>95.0</ele><time>2026-04-25T07:06:44.955Z</time></trkpt><trkpt lat="45.6965567" lon="11.5759167"><ele>94.0</ele><time>2026-04-25T07:06:45.955Z</time></trkpt><trkpt lat="45.6966167" lon="11.5762883"><ele>93.5</ele><time>2026-04-25T07:06:46.956Z</time></trkpt><trkpt lat="45.69668" lon="11.57666"><ele>93.0</ele><time>2026-04-25T07:06:47.955Z</time></trkpt><trkpt lat="45.6967483" lon="11.5770367"><ele>92.0</ele><time>2026-04-25T07:06:48.955Z</time></trkpt><trkpt lat="45.69682" lon="11.5774117"><ele>91.0</ele><time>2026-04-25T07:06:49.955Z</time></trkpt><trkpt lat="45.6968933" lon="11.5777867"><ele>92.5</ele><time>2026-04-25T07:06:50.955Z</time></trkpt><trkpt lat="45.69697" lon="11.5781667"><ele>94.0</ele><time>2026-04-25T07:06:51.955Z</time></trkpt><trkpt lat="45.6970467" lon="11.578545"><ele>94.5</ele><time>2026-04-25T07:06:52.956Z</time></trkpt><trkpt lat="45.6971217" lon="11.5789217"><ele>95.0</ele><time>2026-04-25T07:06:53.955Z</time></trkpt><trkpt lat="45.697205" lon="11.579305"><ele>95.0</ele><time>2026-04-25T07:06:54.955Z</time></trkpt><trkpt lat="45.6972817" lon="11.579675"><ele>95.0</ele><time>2026-04-25T07:06:55.955Z</time></trkpt><trkpt lat="45.69737" lon="11.5800433"><ele>94.5</ele><time>2026-04-25T07:06:56.959Z</time></trkpt><trkpt lat="45.6974617" lon="11.580405"><ele>94.0</ele><time>2026-04-25T07:06:57.956Z</time></trkpt><trkpt lat="45.6975533" lon="11.58077"><ele>94.0</ele><time>2026-04-25T07:06:58.955Z</time></trkpt><trkpt lat="45.6976533" lon="11.5811283"><ele>94.0</ele><time>2026-04-25T07:06:59.955Z</time></trkpt><trkpt lat="45.6977517" lon="11.58149"><ele>93.5</ele><time>2026-04-25T07:07:00.955Z</time></trkpt><trkpt lat="45.6978517" lon="11.5818467"><ele>93.0</ele><time>2026-04-25T07:07:01.955Z</time></trkpt><trkpt lat="45.6979517" lon="11.5822017"><ele>92.5</ele><time>2026-04-25T07:07:02.954Z</time></trkpt><trkpt lat="45.6980533" lon="11.582555"><ele>92.0</ele><time>2026-04-25T07:07:03.954Z</time></trkpt><trkpt lat="45.6981567" lon="11.582905"><ele>91.5</ele><time>2026-04-25T07:07:04.955Z</time></trkpt><trkpt lat="45.698255" lon="11.5832517"><ele>91.0</ele><time>2026-04-25T07:07:05.955Z</time></trkpt><trkpt lat="45.6983567" lon="11.5835933"><ele>90.5</ele><time>2026-04-25T07:07:06.955Z</time></trkpt><trkpt lat="45.6984583" lon="11.58393"><ele>90.0</ele><time>2026-04-25T07:07:07.955Z</time></trkpt><trkpt lat="45.6985583" lon="11.5842667"><ele>90.0</ele><time>2026-04-25T07:07:08.955Z</time></trkpt><trkpt lat="45.6986583" lon="11.5846017"><ele>90.0</ele><time>2026-04-25T07:07:09.955Z</time></trkpt><trkpt lat="45.698755" lon="11.58494"><ele>90.0</ele><time>2026-04-25T07:07:10.955Z</time></trkpt><trkpt lat="45.6988533" lon="11.5852767"><ele>90.0</ele><time>2026-04-25T07:07:11.955Z</time></trkpt><trkpt lat="45.6989517" lon="11.585615"><ele>90.0</ele><time>2026-04-25T07:07:12.954Z</time></trkpt><trkpt lat="45.69905" lon="11.585955"><ele>90.0</ele><time>2026-04-25T07:07:13.955Z</time></trkpt><trkpt lat="45.6991483" lon="11.5862967"><ele>90.5</ele><time>2026-04-25T07:07:14.955Z</time></trkpt><trkpt lat="45.6992483" lon="11.5866383"><ele>91.0</ele><time>2026-04-25T07:07:15.956Z</time></trkpt><trkpt lat="45.69935" lon="11.5869767"><ele>90.0</ele><time>2026-04-25T07:07:16.956Z</time></trkpt><trkpt lat="45.6994517" lon="11.5873133"><ele>89.0</ele><time>2026-04-25T07:07:17.956Z</time></trkpt><trkpt lat="45.699555" lon="11.5876533"><ele>88.5</ele><time>2026-04-25T07:07:18.955Z</time></trkpt><trkpt lat="45.6996567" lon="11.587995"><ele>88.0</ele><time>2026-04-25T07:07:19.954Z</time></trkpt><trkpt lat="45.69976" lon="11.5883367"><ele>88.0</ele><time>2026-04-25T07:07:20.954Z</time></trkpt><trkpt lat="45.6998617" lon="11.5886783"><ele>88.0</ele><time>2026-04-25T07:07:21.955Z</time></trkpt><trkpt lat="45.6999617" lon="11.5890183"><ele>88.0</ele><time>2026-04-25T07:07:22.955Z</time></trkpt><trkpt lat="45.7000617" lon="11.5893583"><ele>88.0</ele><time>2026-04-25T07:07:23.956Z</time></trkpt><trkpt lat="45.70016" lon="11.5897"><ele>86.0</ele><time>2026-04-25T07:07:24.954Z</time></trkpt><trkpt lat="45.7002617" lon="11.59004"><ele>84.0</ele><time>2026-04-25T07:07:25.956Z</time></trkpt><trkpt lat="45.7003617" lon="11.59038"><ele>84.0</ele><time>2026-04-25T07:07:26.955Z</time></trkpt><trkpt lat="45.7004617" lon="11.5907217"><ele>84.0</ele><time>2026-04-25T07:07:27.954Z</time></trkpt><trkpt lat="45.7005617" lon="11.5910633"><ele>84.0</ele><time>2026-04-25T07:07:28.956Z</time></trkpt><trkpt lat="45.70066" lon="11.591405"><ele>84.0</ele><time>2026-04-25T07:07:29.955Z</time></trkpt><trkpt lat="45.70076" lon="11.5917467"><ele>85.0</ele><time>2026-04-25T07:07:30.955Z</time></trkpt><trkpt lat="45.7008583" lon="11.59209"><ele>86.0</ele><time>2026-04-25T07:07:31.956Z</time></trkpt><trkpt lat="45.7009617" lon="11.5924317"><ele>86.0</ele><time>2026-04-25T07:07:32.956Z</time></trkpt><trkpt lat="45.701065" lon="11.5927733"><ele>86.0</ele><time>2026-04-25T07:07:33.957Z</time></trkpt><trkpt lat="45.7011667" lon="11.593115"><ele>84.0</ele><time>2026-04-25T07:07:34.956Z</time></trkpt><trkpt lat="45.7012683" lon="11.5934567"><ele>82.0</ele><time>2026-04-25T07:07:35.955Z</time></trkpt><trkpt lat="45.7013683" lon="11.5938017"><ele>82.0</ele><time>2026-04-25T07:07:36.955Z</time></trkpt><trkpt lat="45.7014717" lon="11.5941467"><ele>82.0</ele><time>2026-04-25T07:07:37.957Z</time></trkpt><trkpt lat="45.701575" lon="11.59449"><ele>82.5</ele><time>2026-04-25T07:07:38.955Z</time></trkpt><trkpt lat="45.7016767" lon="11.5948333"><ele>83.0</ele><time>2026-04-25T07:07:39.955Z</time></trkpt><trkpt lat="45.7017767" lon="11.595175"><ele>82.5</ele><time>2026-04-25T07:07:40.956Z</time></trkpt><trkpt lat="45.7018783" lon="11.59552"><ele>82.0</ele><time>2026-04-25T07:07:41.955Z</time></trkpt><trkpt lat="45.7019783" lon="11.5958633"><ele>81.5</ele><time>2026-04-25T07:07:42.955Z</time></trkpt><trkpt lat="45.7020767" lon="11.596205"><ele>81.0</ele><time>2026-04-25T07:07:43.956Z</time></trkpt><trkpt lat="45.702175" lon="11.59655"><ele>81.0</ele><time>2026-04-25T07:07:44.955Z</time></trkpt><trkpt lat="45.7022717" lon="11.5968917"><ele>81.0</ele><time>2026-04-25T07:07:45.956Z</time></trkpt><trkpt lat="45.70237" lon="11.5972333"><ele>81.0</ele><time>2026-04-25T07:07:46.955Z</time></trkpt><trkpt lat="45.70247" lon="11.5975733"><ele>81.0</ele><time>2026-04-25T07:07:47.956Z</time></trkpt><trkpt lat="45.7025733" lon="11.59792"><ele>81.0</ele><time>2026-04-25T07:07:48.954Z</time></trkpt><trkpt lat="45.7026767" lon="11.5982667"><ele>81.0</ele><time>2026-04-25T07:07:49.955Z</time></trkpt><trkpt lat="45.70278" lon="11.5986167"><ele>79.0</ele><time>2026-04-25T07:07:50.956Z</time></trkpt><trkpt lat="45.7028883" lon="11.5989667"><ele>77.0</ele><time>2026-04-25T07:07:51.955Z</time></trkpt><trkpt lat="45.702995" lon="11.599315"><ele>77.5</ele><time>2026-04-25T07:07:52.956Z</time></trkpt><trkpt lat="45.703105" lon="11.5996633"><ele>78.0</ele><time>2026-04-25T07:07:53.954Z</time></trkpt><trkpt lat="45.7032183" lon="11.60001"><ele>77.5</ele><time>2026-04-25T07:07:54.955Z</time></trkpt><trkpt lat="45.7033317" lon="11.6003567"><ele>77.0</ele><time>2026-04-25T07:07:55.957Z</time></trkpt><trkpt lat="45.7034467" lon="11.6007033"><ele>77.0</ele><time>2026-04-25T07:07:56.955Z</time></trkpt><trkpt lat="45.70356" lon="11.6010483"><ele>77.0</ele><time>2026-04-25T07:07:57.955Z</time></trkpt><trkpt lat="45.7036733" lon="11.6013917"><ele>77.0</ele><time>2026-04-25T07:07:58.954Z</time></trkpt><trkpt lat="45.7037867" lon="11.601735"><ele>77.0</ele><time>2026-04-25T07:07:59.955Z</time></trkpt><trkpt lat="45.703905" lon="11.6020767"><ele>76.5</ele><time>2026-04-25T07:08:00.955Z</time></trkpt><trkpt lat="45.7040233" lon="11.6024183"><ele>76.0</ele><time>2026-04-25T07:08:01.956Z</time></trkpt><trkpt lat="45.7041417" lon="11.6027617"><ele>76.0</ele><time>2026-04-25T07:08:02.954Z</time></trkpt><trkpt lat="45.7042583" lon="11.603105"><ele>76.0</ele><time>2026-04-25T07:08:03.955Z</time></trkpt><trkpt lat="45.7043783" lon="11.603455"><ele>77.0</ele><time>2026-04-25T07:08:04.956Z</time></trkpt><trkpt lat="45.7044967" lon="11.603805"><ele>78.0</ele><time>2026-04-25T07:08:05.955Z</time></trkpt><trkpt lat="45.7046167" lon="11.604155"><ele>78.0</ele><time>2026-04-25T07:08:06.955Z</time></trkpt><trkpt lat="45.7047383" lon="11.604505"><ele>78.0</ele><time>2026-04-25T07:08:07.955Z</time></trkpt><trkpt lat="45.70486" lon="11.604855"><ele>78.0</ele><time>2026-04-25T07:08:08.956Z</time></trkpt><trkpt lat="45.7049833" lon="11.6052017"><ele>78.0</ele><time>2026-04-25T07:08:09.955Z</time></trkpt><trkpt lat="45.705105" lon="11.6055517"><ele>77.5</ele><time>2026-04-25T07:08:10.956Z</time></trkpt><trkpt lat="45.70523" lon="11.605905"><ele>77.0</ele><time>2026-04-25T07:08:11.955Z</time></trkpt><trkpt lat="45.7053533" lon="11.60626"><ele>77.0</ele><time>2026-04-25T07:08:12.955Z</time></trkpt><trkpt lat="45.7054767" lon="11.60662"><ele>77.0</ele><time>2026-04-25T07:08:13.956Z</time></trkpt><trkpt lat="45.7056033" lon="11.6069867"><ele>78.0</ele><time>2026-04-25T07:08:14.955Z</time></trkpt><trkpt lat="45.7057283" lon="11.60737"><ele>79.0</ele><time>2026-04-25T07:08:15.955Z</time></trkpt><trkpt lat="45.705855" lon="11.6077717"><ele>79.0</ele><time>2026-04-25T07:08:16.956Z</time></trkpt><trkpt lat="45.70599" lon="11.6081967"><ele>79.0</ele><time>2026-04-25T07:08:17.955Z</time></trkpt><trkpt lat="45.7061333" lon="11.6086367"><ele>78.5</ele><time>2026-04-25T07:08:18.955Z</time></trkpt><trkpt lat="45.7062667" lon="11.609065"><ele>78.0</ele><time>2026-04-25T07:08:19.956Z</time></trkpt><trkpt lat="45.7063867" lon="11.6094717"><ele>77.5</ele><time>2026-04-25T07:08:20.955Z</time></trkpt><trkpt lat="45.7065017" lon="11.6098617"><ele>77.0</ele><time>2026-04-25T07:08:21.955Z</time></trkpt><trkpt lat="45.7066133" lon="11.6102483"><ele>77.0</ele><time>2026-04-25T07:08:22.955Z</time></trkpt><trkpt lat="45.7067233" lon="11.610635"><ele>77.0</ele><time>2026-04-25T07:08:23.955Z</time></trkpt><trkpt lat="45.7068317" lon="11.6110183"><ele>76.5</ele><time>2026-04-25T07:08:24.955Z</time></trkpt><trkpt lat="45.7069383" lon="11.6114017"><ele>76.0</ele><time>2026-04-25T07:08:25.956Z</time></trkpt><trkpt lat="45.7070433" lon="11.6117867"><ele>76.5</ele><time>2026-04-25T07:08:26.955Z</time></trkpt><trkpt lat="45.707145" lon="11.6121733"><ele>77.0</ele><time>2026-04-25T07:08:27.955Z</time></trkpt><trkpt lat="45.707245" lon="11.6125583"><ele>77.5</ele><time>2026-04-25T07:08:28.956Z</time></trkpt><trkpt lat="45.707345" lon="11.6129433"><ele>78.0</ele><time>2026-04-25T07:08:29.955Z</time></trkpt><trkpt lat="45.7074417" lon="11.6133233"><ele>78.0</ele><time>2026-04-25T07:08:30.955Z</time></trkpt><trkpt lat="45.707535" lon="11.6137017"><ele>78.0</ele><time>2026-04-25T07:08:31.955Z</time></trkpt><trkpt lat="45.7076233" lon="11.61407"><ele>78.0</ele><time>2026-04-25T07:08:32.954Z</time></trkpt><trkpt lat="45.7077117" lon="11.614435"><ele>78.0</ele><time>2026-04-25T07:08:33.955Z</time></trkpt><trkpt lat="45.7077967" lon="11.6148"><ele>78.0</ele><time>2026-04-25T07:08:34.956Z</time></trkpt><trkpt lat="45.70788" lon="11.615165"><ele>78.0</ele><time>2026-04-25T07:08:35.955Z</time></trkpt><trkpt lat="45.7079667" lon="11.6155317"><ele>78.0</ele><time>2026-04-25T07:08:36.956Z</time></trkpt><trkpt lat="45.7080533" lon="11.6158983"><ele>78.0</ele><time>2026-04-25T07:08:37.956Z</time></trkpt><trkpt lat="45.70814" lon="11.6162633"><ele>77.0</ele><time>2026-04-25T07:08:38.955Z</time></trkpt><trkpt lat="45.708225" lon="11.6166283"><ele>76.0</ele><time>2026-04-25T07:08:39.956Z</time></trkpt><trkpt lat="45.7083033" lon="11.6169967"><ele>76.0</ele><time>2026-04-25T07:08:40.956Z</time></trkpt><trkpt lat="45.708375" lon="11.6173683"><ele>76.0</ele><time>2026-04-25T07:08:41.955Z</time></trkpt><trkpt lat="45.708445" lon="11.6177467"><ele>76.5</ele><time>2026-04-25T07:08:42.955Z</time></trkpt><trkpt lat="45.70851" lon="11.6181333"><ele>77.0</ele><time>2026-04-25T07:08:43.956Z</time></trkpt><trkpt lat="45.708575" lon="11.618525"><ele>77.5</ele><time>2026-04-25T07:08:44.955Z</time></trkpt><trkpt lat="45.7086383" lon="11.6189117"><ele>78.0</ele><time>2026-04-25T07:08:45.954Z</time></trkpt><trkpt lat="45.7087033" lon="11.6192883"><ele>78.0</ele><time>2026-04-25T07:08:46.956Z</time></trkpt><trkpt lat="45.7087667" lon="11.61966"><ele>78.0</ele><time>2026-04-25T07:08:47.956Z</time></trkpt><trkpt lat="45.7088283" lon="11.62003"><ele>78.5</ele><time>2026-04-25T07:08:48.955Z</time></trkpt><trkpt lat="45.7088883" lon="11.620405"><ele>79.0</ele><time>2026-04-25T07:08:49.956Z</time></trkpt><trkpt lat="45.7089483" lon="11.6207783"><ele>78.5</ele><time>2026-04-25T07:08:50.954Z</time></trkpt><trkpt lat="45.70901" lon="11.6211517"><ele>78.0</ele><time>2026-04-25T07:08:51.954Z</time></trkpt><trkpt lat="45.7090683" lon="11.621525"><ele>78.0</ele><time>2026-04-25T07:08:52.953Z</time></trkpt><trkpt lat="45.7091333" lon="11.6218967"><ele>78.0</ele><time>2026-04-25T07:08:53.955Z</time></trkpt><trkpt lat="45.7091967" lon="11.6222633"><ele>78.0</ele><time>2026-04-25T07:08:54.954Z</time></trkpt><trkpt lat="45.7092583" lon="11.6226217"><ele>78.0</ele><time>2026-04-25T07:08:55.956Z</time></trkpt><trkpt lat="45.7093167" lon="11.62298"><ele>78.5</ele><time>2026-04-25T07:08:56.954Z</time></trkpt><trkpt lat="45.7093767" lon="11.62334"><ele>79.0</ele><time>2026-04-25T07:08:57.956Z</time></trkpt><trkpt lat="45.7094367" lon="11.623705"><ele>77.5</ele><time>2026-04-25T07:08:58.955Z</time></trkpt><trkpt lat="45.709495" lon="11.624065"><ele>76.0</ele><time>2026-04-25T07:08:59.955Z</time></trkpt><trkpt lat="45.7095517" lon="11.62442"><ele>76.5</ele><time>2026-04-25T07:09:00.954Z</time></trkpt><trkpt lat="45.7096083" lon="11.62477"><ele>77.0</ele><time>2026-04-25T07:09:01.957Z</time></trkpt><trkpt lat="45.70967" lon="11.6251167"><ele>77.5</ele><time>2026-04-25T07:09:02.956Z</time></trkpt><trkpt lat="45.709735" lon="11.6254583"><ele>78.0</ele><time>2026-04-25T07:09:03.955Z</time></trkpt><trkpt lat="45.709805" lon="11.6257967"><ele>78.0</ele><time>2026-04-25T07:09:04.957Z</time></trkpt><trkpt lat="45.7098783" lon="11.6261317"><ele>78.0</ele><time>2026-04-25T07:09:05.955Z</time></trkpt><trkpt lat="45.7099567" lon="11.62647"><ele>78.0</ele><time>2026-04-25T07:09:06.955Z</time></trkpt><trkpt lat="45.7100417" lon="11.6268117"><ele>78.0</ele><time>2026-04-25T07:09:07.955Z</time></trkpt><trkpt lat="45.71013" lon="11.627155"><ele>78.0</ele><time>2026-04-25T07:09:08.955Z</time></trkpt><trkpt lat="45.7102233" lon="11.6275033"><ele>78.0</ele><time>2026-04-25T07:09:09.956Z</time></trkpt><trkpt lat="45.7103217" lon="11.6278483"><ele>78.5</ele><time>2026-04-25T07:09:10.955Z</time></trkpt><trkpt lat="45.7104267" lon="11.6281883"><ele>79.0</ele><time>2026-04-25T07:09:11.955Z</time></trkpt><trkpt lat="45.7105383" lon="11.628525"><ele>78.5</ele><time>2026-04-25T07:09:12.954Z</time></trkpt><trkpt lat="45.7106533" lon="11.6288583"><ele>78.0</ele><time>2026-04-25T07:09:13.956Z</time></trkpt><trkpt lat="45.71077" lon="11.6291867"><ele>77.0</ele><time>2026-04-25T07:09:14.954Z</time></trkpt><trkpt lat="45.7108933" lon="11.6295117"><ele>76.0</ele><time>2026-04-25T07:09:15.955Z</time></trkpt><trkpt lat="45.7110183" lon="11.62983"><ele>75.5</ele><time>2026-04-25T07:09:16.955Z</time></trkpt><trkpt lat="45.7111467" lon="11.6301417"><ele>75.0</ele><time>2026-04-25T07:09:17.956Z</time></trkpt><trkpt lat="45.7112783" lon="11.6304517"><ele>75.0</ele><time>2026-04-25T07:09:18.956Z</time></trkpt><trkpt lat="45.711415" lon="11.6307567"><ele>75.0</ele><time>2026-04-25T07:09:19.962Z</time></trkpt><trkpt lat="45.7115567" lon="11.6310583"><ele>75.0</ele><time>2026-04-25T07:09:20.955Z</time></trkpt><trkpt lat="45.7117033" lon="11.631355"><ele>75.0</ele><time>2026-04-25T07:09:21.955Z</time></trkpt><trkpt lat="45.7118567" lon="11.6316483"><ele>75.5</ele><time>2026-04-25T07:09:22.956Z</time></trkpt><trkpt lat="45.7120117" lon="11.631945"><ele>76.0</ele><time>2026-04-25T07:09:23.955Z</time></trkpt><trkpt lat="45.7121733" lon="11.632245"><ele>76.0</ele><time>2026-04-25T07:09:24.954Z</time></trkpt><trkpt lat="45.7123417" lon="11.6325433"><ele>76.0</ele><time>2026-04-25T07:09:25.956Z</time></trkpt><trkpt lat="45.7125117" lon="11.63284"><ele>76.5</ele><time>2026-04-25T07:09:26.955Z</time></trkpt><trkpt lat="45.71269" lon="11.6331283"><ele>77.0</ele><time>2026-04-25T07:09:27.955Z</time></trkpt><trkpt lat="45.712875" lon="11.6334117"><ele>77.0</ele><time>2026-04-25T07:09:28.956Z</time></trkpt><trkpt lat="45.713065" lon="11.6336917"><ele>77.0</ele><time>2026-04-25T07:09:29.955Z</time></trkpt><trkpt lat="45.71326" lon="11.63397"><ele>77.0</ele><time>2026-04-25T07:09:30.955Z</time></trkpt><trkpt lat="45.71346" lon="11.634245"><ele>77.0</ele><time>2026-04-25T07:09:31.956Z</time></trkpt><trkpt lat="45.71366" lon="11.6345117"><ele>78.5</ele><time>2026-04-25T07:09:32.955Z</time></trkpt><trkpt lat="45.7138583" lon="11.6347667"><ele>80.0</ele><time>2026-04-25T07:09:33.955Z</time></trkpt><trkpt lat="45.7140567" lon="11.6350133"><ele>80.0</ele><time>2026-04-25T07:09:34.955Z</time></trkpt><trkpt lat="45.7142567" lon="11.6352517"><ele>80.0</ele><time>2026-04-25T07:09:35.954Z</time></trkpt><trkpt lat="45.7144617" lon="11.6354833"><ele>79.5</ele><time>2026-04-25T07:09:36.955Z</time></trkpt><trkpt lat="45.7146717" lon="11.6357067"><ele>79.0</ele><time>2026-04-25T07:09:37.956Z</time></trkpt><trkpt lat="45.7148833" lon="11.635925"><ele>78.5</ele><time>2026-04-25T07:09:38.955Z</time></trkpt><trkpt lat="45.7150983" lon="11.636145"><ele>78.0</ele><time>2026-04-25T07:09:39.955Z</time></trkpt><trkpt lat="45.7153117" lon="11.6363683"><ele>78.0</ele><time>2026-04-25T07:09:40.956Z</time></trkpt><trkpt lat="45.715525" lon="11.63659"><ele>78.0</ele><time>2026-04-25T07:09:41.954Z</time></trkpt><trkpt lat="45.71574" lon="11.6368117"><ele>79.0</ele><time>2026-04-25T07:09:42.955Z</time></trkpt><trkpt lat="45.7159533" lon="11.637035"><ele>80.0</ele><time>2026-04-25T07:09:43.956Z</time></trkpt><trkpt lat="45.7161633" lon="11.6372567"><ele>80.5</ele><time>2026-04-25T07:09:44.955Z</time></trkpt><trkpt lat="45.7163717" lon="11.6374717"><ele>81.0</ele><time>2026-04-25T07:09:45.955Z</time></trkpt><trkpt lat="45.7165817" lon="11.637685"><ele>81.0</ele><time>2026-04-25T07:09:46.955Z</time></trkpt><trkpt lat="45.71679" lon="11.6379017"><ele>81.0</ele><time>2026-04-25T07:09:47.955Z</time></trkpt><trkpt lat="45.7169983" lon="11.6381183"><ele>81.0</ele><time>2026-04-25T07:09:48.955Z</time></trkpt><trkpt lat="45.7172067" lon="11.638335"><ele>81.0</ele><time>2026-04-25T07:09:49.955Z</time></trkpt><trkpt lat="45.7174117" lon="11.6385517"><ele>81.0</ele><time>2026-04-25T07:09:50.955Z</time></trkpt><trkpt lat="45.71762" lon="11.6387683"><ele>81.0</ele><time>2026-04-25T07:09:51.956Z</time></trkpt><trkpt lat="45.7178283" lon="11.6389833"><ele>82.0</ele><time>2026-04-25T07:09:52.955Z</time></trkpt><trkpt lat="45.7180417" lon="11.6392"><ele>83.0</ele><time>2026-04-25T07:09:53.956Z</time></trkpt><trkpt lat="45.7182517" lon="11.63942"><ele>82.5</ele><time>2026-04-25T07:09:54.955Z</time></trkpt><trkpt lat="45.7184617" lon="11.6396417"><ele>82.0</ele><time>2026-04-25T07:09:55.956Z</time></trkpt><trkpt lat="45.7186733" lon="11.63986"><ele>82.0</ele><time>2026-04-25T07:09:56.954Z</time></trkpt><trkpt lat="45.7188833" lon="11.6400783"><ele>82.0</ele><time>2026-04-25T07:09:57.956Z</time></trkpt><trkpt lat="45.719095" lon="11.640295"><ele>81.5</ele><time>2026-04-25T07:09:58.956Z</time></trkpt><trkpt lat="45.7193067" lon="11.6405117"><ele>81.0</ele><time>2026-04-25T07:09:59.955Z</time></trkpt><trkpt lat="45.7195167" lon="11.64073"><ele>81.0</ele><time>2026-04-25T07:10:00.955Z</time></trkpt><trkpt lat="45.71973" lon="11.6409483"><ele>81.0</ele><time>2026-04-25T07:10:01.955Z</time></trkpt><trkpt lat="45.719945" lon="11.6411667"><ele>81.0</ele><time>2026-04-25T07:10:02.955Z</time></trkpt><trkpt lat="45.72016" lon="11.641385"><ele>81.0</ele><time>2026-04-25T07:10:03.956Z</time></trkpt><trkpt lat="45.7203767" lon="11.6416033"><ele>81.0</ele><time>2026-04-25T07:10:04.956Z</time></trkpt><trkpt lat="45.720595" lon="11.6418233"><ele>81.0</ele><time>2026-04-25T07:10:05.956Z</time></trkpt><trkpt lat="45.720815" lon="11.642045"><ele>81.5</ele><time>2026-04-25T07:10:06.954Z</time></trkpt><trkpt lat="45.721035" lon="11.6422683"><ele>82.0</ele><time>2026-04-25T07:10:07.954Z</time></trkpt><trkpt lat="45.721255" lon="11.6424917"><ele>82.0</ele><time>2026-04-25T07:10:08.955Z</time></trkpt><trkpt lat="45.721475" lon="11.6427183"><ele>82.0</ele><time>2026-04-25T07:10:09.955Z</time></trkpt><trkpt lat="45.72169" lon="11.6429417"><ele>81.0</ele><time>2026-04-25T07:10:10.956Z</time></trkpt><trkpt lat="45.7219067" lon="11.643165"><ele>80.0</ele><time>2026-04-25T07:10:11.956Z</time></trkpt><trkpt lat="45.7221217" lon="11.6433867"><ele>80.0</ele><time>2026-04-25T07:10:12.955Z</time></trkpt><trkpt lat="45.7223367" lon="11.6436117"><ele>80.0</ele><time>2026-04-25T07:10:13.954Z</time></trkpt><trkpt lat="45.7225533" lon="11.6438383"><ele>80.5</ele><time>2026-04-25T07:10:14.955Z</time></trkpt><trkpt lat="45.7227717" lon="11.644065"><ele>81.0</ele><time>2026-04-25T07:10:15.956Z</time></trkpt><trkpt lat="45.722995" lon="11.6442933"><ele>81.0</ele><time>2026-04-25T07:10:16.956Z</time></trkpt><trkpt lat="45.7232183" lon="11.6445233"><ele>81.0</ele><time>2026-04-25T07:10:17.955Z</time></trkpt><trkpt lat="45.7234367" lon="11.6447517"><ele>81.5</ele><time>2026-04-25T07:10:18.955Z</time></trkpt><trkpt lat="45.7236483" lon="11.6449817"><ele>82.0</ele><time>2026-04-25T07:10:19.956Z</time></trkpt><trkpt lat="45.7238533" lon="11.6452167"><ele>82.0</ele><time>2026-04-25T07:10:20.955Z</time></trkpt><trkpt lat="45.7240517" lon="11.6454583"><ele>82.0</ele><time>2026-04-25T07:10:21.955Z</time></trkpt><trkpt lat="45.724245" lon="11.645705"><ele>82.5</ele><time>2026-04-25T07:10:22.956Z</time></trkpt><trkpt lat="45.7244317" lon="11.6459567"><ele>83.0</ele><time>2026-04-25T07:10:23.954Z</time></trkpt><trkpt lat="45.724615" lon="11.64622"><ele>83.0</ele><time>2026-04-25T07:10:24.956Z</time></trkpt><trkpt lat="45.7247917" lon="11.6464917"><ele>83.0</ele><time>2026-04-25T07:10:25.956Z</time></trkpt><trkpt lat="45.7249667" lon="11.64677"><ele>83.0</ele><time>2026-04-25T07:10:26.955Z</time></trkpt><trkpt lat="45.7251383" lon="11.6470583"><ele>83.0</ele><time>2026-04-25T07:10:27.955Z</time></trkpt><trkpt lat="45.7253017" lon="11.6473583"><ele>83.0</ele><time>2026-04-25T07:10:28.955Z</time></trkpt><trkpt lat="45.7254583" lon="11.6476617"><ele>83.0</ele><time>2026-04-25T07:10:29.955Z</time></trkpt><trkpt lat="45.7256067" lon="11.64797"><ele>82.5</ele><time>2026-04-25T07:10:30.955Z</time></trkpt><trkpt lat="45.7257483" lon="11.6482867"><ele>82.0</ele><time>2026-04-25T07:10:31.955Z</time></trkpt><trkpt lat="45.7258867" lon="11.6486083"><ele>82.0</ele><time>2026-04-25T07:10:32.954Z</time></trkpt><trkpt lat="45.7260183" lon="11.6489317"><ele>82.0</ele><time>2026-04-25T07:10:33.955Z</time></trkpt><trkpt lat="45.72614" lon="11.6492583"><ele>82.5</ele><time>2026-04-25T07:10:34.955Z</time></trkpt><trkpt lat="45.726255" lon="11.6495883"><ele>83.0</ele><time>2026-04-25T07:10:35.955Z</time></trkpt><trkpt lat="45.7263633" lon="11.649925"><ele>83.0</ele><time>2026-04-25T07:10:36.955Z</time></trkpt><trkpt lat="45.7264633" lon="11.65027"><ele>83.0</ele><time>2026-04-25T07:10:37.955Z</time></trkpt><trkpt lat="45.7265583" lon="11.6506183"><ele>86.0</ele><time>2026-04-25T07:10:38.954Z</time></trkpt><trkpt lat="45.7273117" lon="11.6588883"><ele>86.0</ele><time>2026-04-25T07:11:01.956Z</time></trkpt><trkpt lat="45.7273667" lon="11.6592817"><ele>86.0</ele><time>2026-04-25T07:11:02.955Z</time></trkpt><trkpt lat="45.7274233" lon="11.6596367"><ele>87.0</ele><time>2026-04-25T07:11:03.956Z</time></trkpt><trkpt lat="45.7274867" lon="11.6599983"><ele>88.0</ele><time>2026-04-25T07:11:04.955Z</time></trkpt><trkpt lat="45.7275533" lon="11.6603567"><ele>88.0</ele><time>2026-04-25T07:11:05.955Z</time></trkpt><trkpt lat="45.7276233" lon="11.660715"><ele>88.0</ele><time>2026-04-25T07:11:06.955Z</time></trkpt><trkpt lat="45.7276967" lon="11.6610733"><ele>86.5</ele><time>2026-04-25T07:11:07.956Z</time></trkpt><trkpt lat="45.7277783" lon="11.6614333"><ele>85.0</ele><time>2026-04-25T07:11:08.954Z</time></trkpt><trkpt lat="45.7278617" lon="11.6617917"><ele>86.0</ele><time>2026-04-25T07:11:09.954Z</time></trkpt><trkpt lat="45.7279483" lon="11.66215"><ele>87.0</ele><time>2026-04-25T07:11:10.956Z</time></trkpt><trkpt lat="45.7280417" lon="11.6625067"><ele>86.5</ele><time>2026-04-25T07:11:11.954Z</time></trkpt><trkpt lat="45.7281433" lon="11.6628617"><ele>86.0</ele><time>2026-04-25T07:11:12.955Z</time></trkpt><trkpt lat="45.7282533" lon="11.66322"><ele>86.0</ele><time>2026-04-25T07:11:13.956Z</time></trkpt><trkpt lat="45.7283683" lon="11.6635733"><ele>86.0</ele><time>2026-04-25T07:11:14.955Z</time></trkpt><trkpt lat="45.7284883" lon="11.6639233"><ele>86.0</ele><time>2026-04-25T07:11:15.956Z</time></trkpt><trkpt lat="45.7286117" lon="11.6642667"><ele>86.0</ele><time>2026-04-25T07:11:16.956Z</time></trkpt><trkpt lat="45.7296" lon="11.666505"><ele>86.0</ele><time>2026-04-25T07:11:23.955Z</time></trkpt><trkpt lat="45.7297733" lon="11.66679"><ele>86.0</ele><time>2026-04-25T07:11:24.955Z</time></trkpt><trkpt lat="45.7299217" lon="11.667115"><ele>85.5</ele><time>2026-04-25T07:11:25.956Z</time></trkpt><trkpt lat="45.7300817" lon="11.6674233"><ele>85.0</ele><time>2026-04-25T07:11:26.955Z</time></trkpt><trkpt lat="45.73025" lon="11.6677283"><ele>85.0</ele><time>2026-04-25T07:11:27.955Z</time></trkpt><trkpt lat="45.73042" lon="11.668025"><ele>85.0</ele><time>2026-04-25T07:11:28.955Z</time></trkpt><trkpt lat="45.7306" lon="11.668315"><ele>85.0</ele><time>2026-04-25T07:11:29.955Z</time></trkpt><trkpt lat="45.7307783" lon="11.6685933"><ele>85.0</ele><time>2026-04-25T07:11:30.954Z</time></trkpt><trkpt lat="45.7309583" lon="11.66886"><ele>85.5</ele><time>2026-04-25T07:11:31.955Z</time></trkpt><trkpt lat="45.7311467" lon="11.6691267"><ele>86.0</ele><time>2026-04-25T07:11:32.954Z</time></trkpt><trkpt lat="45.7313367" lon="11.6693917"><ele>86.0</ele><time>2026-04-25T07:11:33.955Z</time></trkpt><trkpt lat="45.731535" lon="11.6696567"><ele>86.0</ele><time>2026-04-25T07:11:34.954Z</time></trkpt><trkpt lat="45.73174" lon="11.669925"><ele>85.5</ele><time>2026-04-25T07:11:35.954Z</time></trkpt><trkpt lat="45.7319467" lon="11.6701917"><ele>85.0</ele><time>2026-04-25T07:11:36.954Z</time></trkpt><trkpt lat="45.7321483" lon="11.67045"><ele>86.0</ele><time>2026-04-25T07:11:37.955Z</time></trkpt><trkpt lat="45.73235" lon="11.6707083"><ele>87.0</ele><time>2026-04-25T07:11:38.955Z</time></trkpt><trkpt lat="45.7325467" lon="11.6709667"><ele>87.5</ele><time>2026-04-25T07:11:39.955Z</time></trkpt><trkpt lat="45.73274" lon="11.6712267"><ele>88.0</ele><time>2026-04-25T07:11:40.954Z</time></trkpt><trkpt lat="45.7329317" lon="11.671485"><ele>88.0</ele><time>2026-04-25T07:11:41.956Z</time></trkpt><trkpt lat="45.7331233" lon="11.67174"><ele>88.0</ele><time>2026-04-25T07:11:42.955Z</time></trkpt><trkpt lat="45.7333117" lon="11.6719983"><ele>88.0</ele><time>2026-04-25T07:11:43.955Z</time></trkpt><trkpt lat="45.733495" lon="11.6722617"><ele>88.0</ele><time>2026-04-25T07:11:44.955Z</time></trkpt><trkpt lat="45.7336733" lon="11.67253"><ele>88.5</ele><time>2026-04-25T07:11:45.956Z</time></trkpt><trkpt lat="45.7338483" lon="11.672805"><ele>89.0</ele><time>2026-04-25T07:11:46.955Z</time></trkpt><trkpt lat="45.7340183" lon="11.673085"><ele>89.0</ele><time>2026-04-25T07:11:47.954Z</time></trkpt><trkpt lat="45.7341833" lon="11.6733683"><ele>89.0</ele><time>2026-04-25T07:11:48.955Z</time></trkpt><trkpt lat="45.7343433" lon="11.6736567"><ele>87.5</ele><time>2026-04-25T07:11:49.956Z</time></trkpt><trkpt lat="45.7344983" lon="11.67395"><ele>86.0</ele><time>2026-04-25T07:11:50.954Z</time></trkpt><trkpt lat="45.7346483" lon="11.6742467"><ele>87.0</ele><time>2026-04-25T07:11:51.957Z</time></trkpt><trkpt lat="45.7347933" lon="11.6745483"><ele>88.0</ele><time>2026-04-25T07:11:52.955Z</time></trkpt><trkpt lat="45.734935" lon="11.674855"><ele>88.0</ele><time>2026-04-25T07:11:53.955Z</time></trkpt><trkpt lat="45.73507" lon="11.6751633"><ele>88.0</ele><time>2026-04-25T07:11:54.955Z</time></trkpt><trkpt lat="45.7351983" lon="11.6754783"><ele>88.0</ele><time>2026-04-25T07:11:55.955Z</time></trkpt><trkpt lat="45.7353217" lon="11.675795"><ele>88.0</ele><time>2026-04-25T07:11:56.956Z</time></trkpt><trkpt lat="45.735445" lon="11.67612"><ele>87.5</ele><time>2026-04-25T07:11:57.955Z</time></trkpt><trkpt lat="45.7355683" lon="11.67645"><ele>87.0</ele><time>2026-04-25T07:11:58.955Z</time></trkpt><trkpt lat="45.73569" lon="11.6767817"><ele>88.5</ele><time>2026-04-25T07:11:59.955Z</time></trkpt><trkpt lat="45.7358133" lon="11.677115"><ele>90.0</ele><time>2026-04-25T07:12:00.955Z</time></trkpt><trkpt lat="45.7359333" lon="11.6774467"><ele>88.5</ele><time>2026-04-25T07:12:01.954Z</time></trkpt><trkpt lat="45.7360533" lon="11.6777767"><ele>87.0</ele><time>2026-04-25T07:12:02.956Z</time></trkpt><trkpt lat="45.7361767" lon="11.6781033"><ele>87.0</ele><time>2026-04-25T07:12:03.955Z</time></trkpt><trkpt lat="45.736305" lon="11.6784317"><ele>87.0</ele><time>2026-04-25T07:12:04.957Z</time></trkpt><trkpt lat="45.7364317" lon="11.67876"><ele>87.5</ele><time>2026-04-25T07:12:05.955Z</time></trkpt><trkpt lat="45.736555" lon="11.679085"><ele>88.0</ele><time>2026-04-25T07:12:06.956Z</time></trkpt><trkpt lat="45.7366783" lon="11.679405"><ele>88.5</ele><time>2026-04-25T07:12:07.955Z</time></trkpt><trkpt lat="45.7368" lon="11.6797233"><ele>89.0</ele><time>2026-04-25T07:12:08.955Z</time></trkpt><trkpt lat="45.73692" lon="11.680045"><ele>88.0</ele><time>2026-04-25T07:12:09.955Z</time></trkpt><trkpt lat="45.73704" lon="11.6803667"><ele>87.0</ele><time>2026-04-25T07:12:10.956Z</time></trkpt><trkpt lat="45.7371617" lon="11.6806883"><ele>87.0</ele><time>2026-04-25T07:12:11.956Z</time></trkpt><trkpt lat="45.7372817" lon="11.68101"><ele>87.0</ele><time>2026-04-25T07:12:12.955Z</time></trkpt><trkpt lat="45.7374" lon="11.68133"><ele>87.0</ele><time>2026-04-25T07:12:13.955Z</time></trkpt><trkpt lat="45.7375183" lon="11.681655"><ele>87.0</ele><time>2026-04-25T07:12:14.956Z</time></trkpt><trkpt lat="45.7376333" lon="11.6819867"><ele>87.5</ele><time>2026-04-25T07:12:15.955Z</time></trkpt><trkpt lat="45.7377433" lon="11.6823283"><ele>88.0</ele><time>2026-04-25T07:12:16.955Z</time></trkpt><trkpt lat="45.73785" lon="11.6826717"><ele>88.0</ele><time>2026-04-25T07:12:17.955Z</time></trkpt><trkpt lat="45.73795" lon="11.6830233"><ele>88.0</ele><time>2026-04-25T07:12:18.955Z</time></trkpt><trkpt lat="45.7380417" lon="11.6833817"><ele>87.5</ele><time>2026-04-25T07:12:19.955Z</time></trkpt><trkpt lat="45.738125" lon="11.6837467"><ele>87.0</ele><time>2026-04-25T07:12:20.954Z</time></trkpt><trkpt lat="45.7382" lon="11.6841183"><ele>87.0</ele><time>2026-04-25T07:12:21.956Z</time></trkpt><trkpt lat="45.7382683" lon="11.6844967"><ele>87.0</ele><time>2026-04-25T07:12:22.956Z</time></trkpt><trkpt lat="45.738335" lon="11.68488"><ele>87.0</ele><time>2026-04-25T07:12:23.955Z</time></trkpt><trkpt lat="45.7383933" lon="11.685265"><ele>87.0</ele><time>2026-04-25T07:12:24.956Z</time></trkpt><trkpt lat="45.7384417" lon="11.6856483"><ele>87.0</ele><time>2026-04-25T07:12:25.955Z</time></trkpt><trkpt lat="45.7384833" lon="11.6860317"><ele>87.0</ele><time>2026-04-25T07:12:26.955Z</time></trkpt><trkpt lat="45.738515" lon="11.6864133"><ele>87.0</ele><time>2026-04-25T07:12:27.955Z</time></trkpt><trkpt lat="45.738535" lon="11.6867967"><ele>87.0</ele><time>2026-04-25T07:12:28.956Z</time></trkpt><trkpt lat="45.7385483" lon="11.6871817"><ele>87.5</ele><time>2026-04-25T07:12:29.955Z</time></trkpt><trkpt lat="45.73856" lon="11.6875683"><ele>88.0</ele><time>2026-04-25T07:12:30.955Z</time></trkpt><trkpt lat="45.7385683" lon="11.6879583"><ele>88.0</ele><time>2026-04-25T07:12:31.955Z</time></trkpt><trkpt lat="45.7385767" lon="11.6883467"><ele>88.0</ele><time>2026-04-25T07:12:32.956Z</time></trkpt><trkpt lat="45.738585" lon="11.6887333"><ele>88.0</ele><time>2026-04-25T07:12:33.955Z</time></trkpt><trkpt lat="45.7385933" lon="11.68912"><ele>88.0</ele><time>2026-04-25T07:12:34.956Z</time></trkpt><trkpt lat="45.7386017" lon="11.6895017"><ele>88.0</ele><time>2026-04-25T07:12:35.955Z</time></trkpt><trkpt lat="45.7386083" lon="11.6898833"><ele>88.0</ele><time>2026-04-25T07:12:36.954Z</time></trkpt><trkpt lat="45.7386183" lon="11.6902617"><ele>88.0</ele><time>2026-04-25T07:12:37.955Z</time></trkpt><trkpt lat="45.7386283" lon="11.6906383"><ele>88.0</ele><time>2026-04-25T07:12:38.956Z</time></trkpt><trkpt lat="45.7386333" lon="11.6910083"><ele>89.0</ele><time>2026-04-25T07:12:39.955Z</time></trkpt><trkpt lat="45.738635" lon="11.69138"><ele>90.0</ele><time>2026-04-25T07:12:40.956Z</time></trkpt><trkpt lat="45.738635" lon="11.691745"><ele>89.0</ele><time>2026-04-25T07:12:41.955Z</time></trkpt><trkpt lat="45.738635" lon="11.692105"><ele>88.0</ele><time>2026-04-25T07:12:42.955Z</time></trkpt><trkpt lat="45.7386367" lon="11.6924583"><ele>87.5</ele><time>2026-04-25T07:12:43.954Z</time></trkpt><trkpt lat="45.738635" lon="11.6928083"><ele>87.0</ele><time>2026-04-25T07:12:44.954Z</time></trkpt><trkpt lat="45.7386317" lon="11.6931567"><ele>87.0</ele><time>2026-04-25T07:12:45.955Z</time></trkpt><trkpt lat="45.73863" lon="11.6935117"><ele>87.0</ele><time>2026-04-25T07:12:46.956Z</time></trkpt><trkpt lat="45.738625" lon="11.6938667"><ele>87.0</ele><time>2026-04-25T07:12:47.955Z</time></trkpt><trkpt lat="45.7386217" lon="11.6942283"><ele>87.0</ele><time>2026-04-25T07:12:48.954Z</time></trkpt><trkpt lat="45.738615" lon="11.69459"><ele>87.5</ele><time>2026-04-25T07:12:49.954Z</time></trkpt><trkpt lat="45.7386083" lon="11.694955"><ele>88.0</ele><time>2026-04-25T07:12:50.954Z</time></trkpt><trkpt lat="45.7385983" lon="11.6953233"><ele>88.0</ele><time>2026-04-25T07:12:51.956Z</time></trkpt><trkpt lat="45.73859" lon="11.6956983"><ele>88.0</ele><time>2026-04-25T07:12:52.956Z</time></trkpt><trkpt lat="45.7385783" lon="11.6960733"><ele>87.0</ele><time>2026-04-25T07:12:53.955Z</time></trkpt><trkpt lat="45.738565" lon="11.69645"><ele>86.0</ele><time>2026-04-25T07:12:54.955Z</time></trkpt><trkpt lat="45.73855" lon="11.6968267"><ele>86.0</ele><time>2026-04-25T07:12:55.957Z</time></trkpt><trkpt lat="45.7385333" lon="11.6972083"><ele>86.0</ele><time>2026-04-25T07:12:56.955Z</time></trkpt><trkpt lat="45.7385167" lon="11.6975933"><ele>87.0</ele><time>2026-04-25T07:12:57.955Z</time></trkpt><trkpt lat="45.7385" lon="11.6979833"><ele>88.0</ele><time>2026-04-25T07:12:58.956Z</time></trkpt><trkpt lat="45.7384817" lon="11.6983733"><ele>89.0</ele><time>2026-04-25T07:12:59.955Z</time></trkpt><trkpt lat="45.7384617" lon="11.6987567"><ele>90.0</ele><time>2026-04-25T07:13:00.955Z</time></trkpt><trkpt lat="45.738445" lon="11.6991333"><ele>88.0</ele><time>2026-04-25T07:13:01.955Z</time></trkpt><trkpt lat="45.7384233" lon="11.6995117"><ele>86.0</ele><time>2026-04-25T07:13:02.956Z</time></trkpt><trkpt lat="45.7384033" lon="11.6998883"><ele>87.0</ele><time>2026-04-25T07:13:03.955Z</time></trkpt><trkpt lat="45.7383817" lon="11.7002617"><ele>88.0</ele><time>2026-04-25T07:13:04.956Z</time></trkpt><trkpt lat="45.7383567" lon="11.7006317"><ele>88.0</ele><time>2026-04-25T07:13:05.955Z</time></trkpt><trkpt lat="45.7383317" lon="11.7009983"><ele>88.0</ele><time>2026-04-25T07:13:06.955Z</time></trkpt><trkpt lat="45.7383033" lon="11.7013667"><ele>88.5</ele><time>2026-04-25T07:13:07.955Z</time></trkpt><trkpt lat="45.7382733" lon="11.7017367"><ele>89.0</ele><time>2026-04-25T07:13:08.955Z</time></trkpt><trkpt lat="45.7382433" lon="11.702105"><ele>90.0</ele><time>2026-04-25T07:13:09.955Z</time></trkpt><trkpt lat="45.7382167" lon="11.7024767"><ele>91.0</ele><time>2026-04-25T07:13:10.956Z</time></trkpt><trkpt lat="45.73819" lon="11.7028467"><ele>91.0</ele><time>2026-04-25T07:13:11.954Z</time></trkpt><trkpt lat="45.7381617" lon="11.7032133"><ele>91.0</ele><time>2026-04-25T07:13:12.955Z</time></trkpt><trkpt lat="45.738135" lon="11.70357"><ele>91.0</ele><time>2026-04-25T07:13:13.956Z</time></trkpt><trkpt lat="45.73811" lon="11.7039233"><ele>91.0</ele><time>2026-04-25T07:13:14.956Z</time></trkpt><trkpt lat="45.738085" lon="11.7042733"><ele>92.5</ele><time>2026-04-25T07:13:15.955Z</time></trkpt><trkpt lat="45.7380583" lon="11.7046283"><ele>94.0</ele><time>2026-04-25T07:13:16.955Z</time></trkpt><trkpt lat="45.73803" lon="11.704985"><ele>92.0</ele><time>2026-04-25T07:13:17.955Z</time></trkpt><trkpt lat="45.738005" lon="11.705345"><ele>90.0</ele><time>2026-04-25T07:13:18.954Z</time></trkpt><trkpt lat="45.7379767" lon="11.7057083"><ele>90.5</ele><time>2026-04-25T07:13:19.955Z</time></trkpt><trkpt lat="45.7379483" lon="11.70608"><ele>91.0</ele><time>2026-04-25T07:13:20.955Z</time></trkpt><trkpt lat="45.73792" lon="11.7064533"><ele>91.0</ele><time>2026-04-25T07:13:21.956Z</time></trkpt><trkpt lat="45.7378917" lon="11.70683"><ele>91.0</ele><time>2026-04-25T07:13:22.956Z</time></trkpt><trkpt lat="45.7378633" lon="11.7072067"><ele>91.5</ele><time>2026-04-25T07:13:23.955Z</time></trkpt><trkpt lat="45.7378367" lon="11.70758"><ele>92.0</ele><time>2026-04-25T07:13:24.956Z</time></trkpt><trkpt lat="45.7378083" lon="11.7079467"><ele>92.0</ele><time>2026-04-25T07:13:25.955Z</time></trkpt><trkpt lat="45.73778" lon="11.7083083"><ele>92.0</ele><time>2026-04-25T07:13:26.956Z</time></trkpt><trkpt lat="45.73775" lon="11.7086617"><ele>92.5</ele><time>2026-04-25T07:13:27.954Z</time></trkpt><trkpt lat="45.7377217" lon="11.7090167"><ele>93.0</ele><time>2026-04-25T07:13:28.955Z</time></trkpt><trkpt lat="45.7376967" lon="11.7093717"><ele>94.0</ele><time>2026-04-25T07:13:29.954Z</time></trkpt><trkpt lat="45.7376733" lon="11.7097317"><ele>95.0</ele><time>2026-04-25T07:13:30.955Z</time></trkpt><trkpt lat="45.7376533" lon="11.7100983"><ele>95.5</ele><time>2026-04-25T07:13:31.955Z</time></trkpt><trkpt lat="45.73764" lon="11.71047"><ele>96.0</ele><time>2026-04-25T07:13:32.955Z</time></trkpt><trkpt lat="45.7376333" lon="11.7108433"><ele>95.0</ele><time>2026-04-25T07:13:33.955Z</time></trkpt><trkpt lat="45.7376317" lon="11.7112183"><ele>94.0</ele><time>2026-04-25T07:13:34.955Z</time></trkpt><trkpt lat="45.7376367" lon="11.71159"><ele>93.5</ele><time>2026-04-25T07:13:35.955Z</time></trkpt><trkpt lat="45.737645" lon="11.71196"><ele>93.0</ele><time>2026-04-25T07:13:36.955Z</time></trkpt><trkpt lat="45.7376583" lon="11.7123233"><ele>93.0</ele><time>2026-04-25T07:13:37.955Z</time></trkpt><trkpt lat="45.737675" lon="11.7126817"><ele>93.0</ele><time>2026-04-25T07:13:38.955Z</time></trkpt><trkpt lat="45.7376967" lon="11.7130333"><ele>93.0</ele><time>2026-04-25T07:13:39.955Z</time></trkpt><trkpt lat="45.7377233" lon="11.7133817"><ele>93.0</ele><time>2026-04-25T07:13:40.956Z</time></trkpt><trkpt lat="45.73775" lon="11.7137283"><ele>93.0</ele><time>2026-04-25T07:13:41.954Z</time></trkpt><trkpt lat="45.7377817" lon="11.7140783"><ele>93.0</ele><time>2026-04-25T07:13:42.955Z</time></trkpt><trkpt lat="45.7378133" lon="11.7144283"><ele>93.5</ele><time>2026-04-25T07:13:43.955Z</time></trkpt><trkpt lat="45.73785" lon="11.7147833"><ele>94.0</ele><time>2026-04-25T07:13:44.955Z</time></trkpt><trkpt lat="45.737885" lon="11.7151433"><ele>94.5</ele><time>2026-04-25T07:13:45.953Z</time></trkpt><trkpt lat="45.73792" lon="11.7155067"><ele>95.0</ele><time>2026-04-25T07:13:46.955Z</time></trkpt><trkpt lat="45.7379533" lon="11.7158733"><ele>95.0</ele><time>2026-04-25T07:13:47.954Z</time></trkpt><trkpt lat="45.7379833" lon="11.7162383"><ele>95.0</ele><time>2026-04-25T07:13:48.955Z</time></trkpt><trkpt lat="45.738015" lon="11.7166067"><ele>96.0</ele><time>2026-04-25T07:13:49.955Z</time></trkpt><trkpt lat="45.7380483" lon="11.7169717"><ele>97.0</ele><time>2026-04-25T07:13:50.96Z</time></trkpt><trkpt lat="45.7380817" lon="11.71734"><ele>97.0</ele><time>2026-04-25T07:13:51.954Z</time></trkpt><trkpt lat="45.7381167" lon="11.7177083"><ele>97.0</ele><time>2026-04-25T07:13:52.955Z</time></trkpt><trkpt lat="45.7381517" lon="11.7180783"><ele>96.5</ele><time>2026-04-25T07:13:53.955Z</time></trkpt><trkpt lat="45.738185" lon="11.7184517"><ele>96.0</ele><time>2026-04-25T07:13:54.955Z</time></trkpt><trkpt lat="45.73822" lon="11.7188233"><ele>96.0</ele><time>2026-04-25T07:13:55.954Z</time></trkpt><trkpt lat="45.738255" lon="11.719195"><ele>96.0</ele><time>2026-04-25T07:13:56.956Z</time></trkpt><trkpt lat="45.7382917" lon="11.71956"><ele>96.0</ele><time>2026-04-25T07:13:57.955Z</time></trkpt><trkpt lat="45.738325" lon="11.7199217"><ele>96.0</ele><time>2026-04-25T07:13:58.956Z</time></trkpt><trkpt lat="45.7383583" lon="11.7202833"><ele>95.0</ele><time>2026-04-25T07:13:59.955Z</time></trkpt><trkpt lat="45.73839" lon="11.720645"><ele>94.0</ele><time>2026-04-25T07:14:00.954Z</time></trkpt><trkpt lat="45.7384217" lon="11.7210083"><ele>94.0</ele><time>2026-04-25T07:14:01.955Z</time></trkpt><trkpt lat="45.738455" lon="11.7213733"><ele>94.0</ele><time>2026-04-25T07:14:02.955Z</time></trkpt><trkpt lat="45.73849" lon="11.7217383"><ele>94.5</ele><time>2026-04-25T07:14:03.955Z</time></trkpt><trkpt lat="45.738525" lon="11.7221067"><ele>95.0</ele><time>2026-04-25T07:14:04.955Z</time></trkpt><trkpt lat="45.7385617" lon="11.7224733"><ele>95.5</ele><time>2026-04-25T07:14:05.956Z</time></trkpt><trkpt lat="45.7385967" lon="11.722845"><ele>96.0</ele><time>2026-04-25T07:14:06.956Z</time></trkpt><trkpt lat="45.7386283" lon="11.7232133"><ele>96.0</ele><time>2026-04-25T07:14:07.955Z</time></trkpt><trkpt lat="45.7386617" lon="11.723585"><ele>96.0</ele><time>2026-04-25T07:14:08.956Z</time></trkpt><trkpt lat="45.7386933" lon="11.7239567"><ele>96.0</ele><time>2026-04-25T07:14:09.955Z</time></trkpt><trkpt lat="45.7387233" lon="11.7243333"><ele>96.0</ele><time>2026-04-25T07:14:10.955Z</time></trkpt><trkpt lat="45.7387467" lon="11.72471"><ele>97.0</ele><time>2026-04-25T07:14:11.955Z</time></trkpt><trkpt lat="45.7387683" lon="11.7250917"><ele>98.0</ele><time>2026-04-25T07:14:12.953Z</time></trkpt><trkpt lat="45.7387833" lon="11.7254733"><ele>98.0</ele><time>2026-04-25T07:14:13.955Z</time></trkpt><trkpt lat="45.73879" lon="11.725855"><ele>98.0</ele><time>2026-04-25T07:14:14.955Z</time></trkpt><trkpt lat="45.7387883" lon="11.7262367"><ele>98.0</ele><time>2026-04-25T07:14:15.955Z</time></trkpt><trkpt lat="45.7387833" lon="11.7266233"><ele>98.0</ele><time>2026-04-25T07:14:16.955Z</time></trkpt><trkpt lat="45.7387717" lon="11.7270117"><ele>98.0</ele><time>2026-04-25T07:14:17.956Z</time></trkpt><trkpt lat="45.7387533" lon="11.7273983"><ele>98.0</ele><time>2026-04-25T07:14:18.956Z</time></trkpt><trkpt lat="45.7387317" lon="11.7277783"><ele>96.5</ele><time>2026-04-25T07:14:19.954Z</time></trkpt><trkpt lat="45.7387033" lon="11.7281567"><ele>95.0</ele><time>2026-04-25T07:14:20.955Z</time></trkpt><trkpt lat="45.7386683" lon="11.728525"><ele>95.5</ele><time>2026-04-25T07:14:21.955Z</time></trkpt><trkpt lat="45.7386283" lon="11.7288817"><ele>96.0</ele><time>2026-04-25T07:14:22.956Z</time></trkpt><trkpt lat="45.7385817" lon="11.7292317"><ele>95.5</ele><time>2026-04-25T07:14:23.955Z</time></trkpt><trkpt lat="45.73853" lon="11.72958"><ele>95.0</ele><time>2026-04-25T07:14:24.957Z</time></trkpt><trkpt lat="45.7384733" lon="11.7299333"><ele>96.5</ele><time>2026-04-25T07:14:25.955Z</time></trkpt><trkpt lat="45.7384117" lon="11.7302883"><ele>98.0</ele><time>2026-04-25T07:14:26.955Z</time></trkpt><trkpt lat="45.738345" lon="11.7306467"><ele>98.0</ele><time>2026-04-25T07:14:27.955Z</time></trkpt><trkpt lat="45.7382733" lon="11.73101"><ele>98.0</ele><time>2026-04-25T07:14:28.954Z</time></trkpt><trkpt lat="45.7381967" lon="11.7313717"><ele>98.5</ele><time>2026-04-25T07:14:29.955Z</time></trkpt><trkpt lat="45.7381167" lon="11.7317317"><ele>99.0</ele><time>2026-04-25T07:14:30.955Z</time></trkpt><trkpt lat="45.738035" lon="11.73209"><ele>99.0</ele><time>2026-04-25T07:14:31.955Z</time></trkpt><trkpt lat="45.737955" lon="11.7324517"><ele>99.0</ele><time>2026-04-25T07:14:32.955Z</time></trkpt><trkpt lat="45.7378733" lon="11.732815"><ele>99.5</ele><time>2026-04-25T07:14:33.956Z</time></trkpt><trkpt lat="45.7377917" lon="11.7331767"><ele>100.0</ele><time>2026-04-25T07:14:34.956Z</time></trkpt><trkpt lat="45.73771" lon="11.7335383"><ele>101.0</ele><time>2026-04-25T07:14:35.954Z</time></trkpt><trkpt lat="45.7376283" lon="11.7338967"><ele>102.0</ele><time>2026-04-25T07:14:36.955Z</time></trkpt><trkpt lat="45.7375483" lon="11.7342533"><ele>101.0</ele><time>2026-04-25T07:14:37.955Z</time></trkpt><trkpt lat="45.7374683" lon="11.7346083"><ele>100.0</ele><time>2026-04-25T07:14:38.955Z</time></trkpt><trkpt lat="45.7373867" lon="11.73496"><ele>100.5</ele><time>2026-04-25T07:14:39.956Z</time></trkpt><trkpt lat="45.7373067" lon="11.7353067"><ele>101.0</ele><time>2026-04-25T07:14:40.956Z</time></trkpt><trkpt lat="45.7372267" lon="11.7356483"><ele>101.0</ele><time>2026-04-25T07:14:41.954Z</time></trkpt><trkpt lat="45.7371467" lon="11.735995"><ele>101.0</ele><time>2026-04-25T07:14:42.956Z</time></trkpt><trkpt lat="45.7370683" lon="11.7363383"><ele>100.5</ele><time>2026-04-25T07:14:43.955Z</time></trkpt><trkpt lat="45.73699" lon="11.73668"><ele>100.0</ele><time>2026-04-25T07:14:44.954Z</time></trkpt><trkpt lat="45.73691" lon="11.73702"><ele>100.5</ele><time>2026-04-25T07:14:45.957Z</time></trkpt><trkpt lat="45.7368283" lon="11.7373583"><ele>101.0</ele><time>2026-04-25T07:14:46.956Z</time></trkpt><trkpt lat="45.736745" lon="11.7376967"><ele>101.0</ele><time>2026-04-25T07:14:47.955Z</time></trkpt><trkpt lat="45.736665" lon="11.738035"><ele>101.0</ele><time>2026-04-25T07:14:48.956Z</time></trkpt><trkpt lat="45.7365933" lon="11.73837"><ele>100.5</ele><time>2026-04-25T07:14:49.955Z</time></trkpt><trkpt lat="45.7365333" lon="11.7387033"><ele>100.0</ele><time>2026-04-25T07:14:50.955Z</time></trkpt><trkpt lat="45.7364783" lon="11.7390417"><ele>99.5</ele><time>2026-04-25T07:14:51.955Z</time></trkpt><trkpt lat="45.7364317" lon="11.739385"><ele>99.0</ele><time>2026-04-25T07:14:52.956Z</time></trkpt><trkpt lat="45.73639" lon="11.7397333"><ele>99.0</ele><time>2026-04-25T07:14:53.955Z</time></trkpt><trkpt lat="45.7363533" lon="11.7400867"><ele>99.0</ele><time>2026-04-25T07:14:54.955Z</time></trkpt><trkpt lat="45.736325" lon="11.740445"><ele>100.0</ele><time>2026-04-25T07:14:55.953Z</time></trkpt><trkpt lat="45.7363017" lon="11.7408067"><ele>101.0</ele><time>2026-04-25T07:14:56.954Z</time></trkpt><trkpt lat="45.7362817" lon="11.7411667"><ele>102.0</ele><time>2026-04-25T07:14:57.956Z</time></trkpt><trkpt lat="45.73626" lon="11.7415283"><ele>103.0</ele><time>2026-04-25T07:14:58.955Z</time></trkpt><trkpt lat="45.736235" lon="11.7419017"><ele>103.0</ele><time>2026-04-25T07:14:59.955Z</time></trkpt><trkpt lat="45.7362317" lon="11.7422783"><ele>103.0</ele><time>2026-04-25T07:15:00.955Z</time></trkpt><trkpt lat="45.7362133" lon="11.74264"><ele>103.0</ele><time>2026-04-25T07:15:01.954Z</time></trkpt><trkpt lat="45.7361933" lon="11.7430133"><ele>103.0</ele><time>2026-04-25T07:15:02.955Z</time></trkpt><trkpt lat="45.7361667" lon="11.743385"><ele>102.5</ele><time>2026-04-25T07:15:03.955Z</time></trkpt><trkpt lat="45.7361367" lon="11.7437583"><ele>102.0</ele><time>2026-04-25T07:15:04.955Z</time></trkpt><trkpt lat="45.7361117" lon="11.74414"><ele>101.5</ele><time>2026-04-25T07:15:05.955Z</time></trkpt><trkpt lat="45.7361" lon="11.7445283"><ele>101.0</ele><time>2026-04-25T07:15:06.955Z</time></trkpt><trkpt lat="45.7360817" lon="11.7449183"><ele>101.0</ele><time>2026-04-25T07:15:07.955Z</time></trkpt><trkpt lat="45.73606" lon="11.74531"><ele>101.0</ele><time>2026-04-25T07:15:08.954Z</time></trkpt><trkpt lat="45.736035" lon="11.7456983"><ele>101.0</ele><time>2026-04-25T07:15:09.955Z</time></trkpt><trkpt lat="45.7360133" lon="11.7460867"><ele>101.0</ele><time>2026-04-25T07:15:10.955Z</time></trkpt><trkpt lat="45.73599" lon="11.7464667"><ele>101.0</ele><time>2026-04-25T07:15:11.955Z</time></trkpt><trkpt lat="45.7359717" lon="11.74684"><ele>101.0</ele><time>2026-04-25T07:15:12.955Z</time></trkpt><trkpt lat="45.7359533" lon="11.7472083"><ele>101.0</ele><time>2026-04-25T07:15:13.955Z</time></trkpt><trkpt lat="45.7359317" lon="11.7475733"><ele>101.0</ele><time>2026-04-25T07:15:14.954Z</time></trkpt><trkpt lat="45.7359117" lon="11.7479367"><ele>101.5</ele><time>2026-04-25T07:15:15.955Z</time></trkpt><trkpt lat="45.7358883" lon="11.7482983"><ele>102.0</ele><time>2026-04-25T07:15:16.955Z</time></trkpt><trkpt lat="45.7358667" lon="11.7486617"><ele>102.0</ele><time>2026-04-25T07:15:17.955Z</time></trkpt><trkpt lat="45.7358467" lon="11.7490283"><ele>102.0</ele><time>2026-04-25T07:15:18.955Z</time></trkpt><trkpt lat="45.7358317" lon="11.7494017"><ele>101.5</ele><time>2026-04-25T07:15:19.954Z</time></trkpt><trkpt lat="45.73582" lon="11.74978"><ele>101.0</ele><time>2026-04-25T07:15:20.955Z</time></trkpt><trkpt lat="45.735815" lon="11.75016"><ele>102.5</ele><time>2026-04-25T07:15:21.956Z</time></trkpt><trkpt lat="45.7358183" lon="11.7505417"><ele>104.0</ele><time>2026-04-25T07:15:22.956Z</time></trkpt><trkpt lat="45.73583" lon="11.75093"><ele>102.5</ele><time>2026-04-25T07:15:23.955Z</time></trkpt><trkpt lat="45.7358483" lon="11.7513133"><ele>101.0</ele><time>2026-04-25T07:15:24.954Z</time></trkpt><trkpt lat="45.7358717" lon="11.7516983"><ele>101.0</ele><time>2026-04-25T07:15:25.956Z</time></trkpt><trkpt lat="45.7359" lon="11.7520883"><ele>101.0</ele><time>2026-04-25T07:15:26.955Z</time></trkpt><trkpt lat="45.7359383" lon="11.7524933"><ele>101.0</ele><time>2026-04-25T07:15:27.956Z</time></trkpt><trkpt lat="45.7359883" lon="11.7529"><ele>101.0</ele><time>2026-04-25T07:15:28.956Z</time></trkpt><trkpt lat="45.7360433" lon="11.7532833"><ele>101.0</ele><time>2026-04-25T07:15:29.954Z</time></trkpt><trkpt lat="45.736095" lon="11.7536367"><ele>101.0</ele><time>2026-04-25T07:15:30.955Z</time></trkpt><trkpt lat="45.7361417" lon="11.75397"><ele>101.0</ele><time>2026-04-25T07:15:31.957Z</time></trkpt><trkpt lat="45.7361883" lon="11.7542967"><ele>101.0</ele><time>2026-04-25T07:15:32.955Z</time></trkpt><trkpt lat="45.7362333" lon="11.7546233"><ele>101.0</ele><time>2026-04-25T07:15:33.955Z</time></trkpt><trkpt lat="45.7362783" lon="11.754955"><ele>101.0</ele><time>2026-04-25T07:15:34.956Z</time></trkpt><trkpt lat="45.73632" lon="11.75529"><ele>101.0</ele><time>2026-04-25T07:15:35.955Z</time></trkpt><trkpt lat="45.7363633" lon="11.7556317"><ele>101.0</ele><time>2026-04-25T07:15:36.954Z</time></trkpt><trkpt lat="45.7364083" lon="11.7559817"><ele>101.0</ele><time>2026-04-25T07:15:37.955Z</time></trkpt><trkpt lat="45.73645" lon="11.7563383"><ele>101.0</ele><time>2026-04-25T07:15:38.955Z</time></trkpt><trkpt lat="45.7364967" lon="11.7566983"><ele>100.5</ele><time>2026-04-25T07:15:39.954Z</time></trkpt><trkpt lat="45.73654" lon="11.7570633"><ele>100.0</ele><time>2026-04-25T07:15:40.955Z</time></trkpt><trkpt lat="45.7365883" lon="11.7574383"><ele>100.5</ele><time>2026-04-25T07:15:41.955Z</time></trkpt><trkpt lat="45.73664" lon="11.757815"><ele>101.0</ele><time>2026-04-25T07:15:42.954Z</time></trkpt><trkpt lat="45.7366933" lon="11.758195"><ele>101.5</ele><time>2026-04-25T07:15:43.954Z</time></trkpt><trkpt lat="45.7367483" lon="11.7585767"><ele>102.0</ele><time>2026-04-25T07:15:44.955Z</time></trkpt><trkpt lat="45.7367983" lon="11.758955"><ele>102.0</ele><time>2026-04-25T07:15:45.955Z</time></trkpt><trkpt lat="45.73685" lon="11.759335"><ele>102.0</ele><time>2026-04-25T07:15:46.955Z</time></trkpt><trkpt lat="45.7369033" lon="11.75971"><ele>102.5</ele><time>2026-04-25T07:15:47.955Z</time></trkpt><trkpt lat="45.7369567" lon="11.7600867"><ele>103.0</ele><time>2026-04-25T07:15:48.955Z</time></trkpt><trkpt lat="45.737005" lon="11.7604633"><ele>103.0</ele><time>2026-04-25T07:15:49.955Z</time></trkpt><trkpt lat="45.7370583" lon="11.7608417"><ele>103.0</ele><time>2026-04-25T07:15:50.954Z</time></trkpt><trkpt lat="45.7371133" lon="11.7612167"><ele>102.0</ele><time>2026-04-25T07:15:51.955Z</time></trkpt><trkpt lat="45.7371683" lon="11.76159"><ele>101.0</ele><time>2026-04-25T07:15:52.955Z</time></trkpt><trkpt lat="45.7372267" lon="11.76196"><ele>101.0</ele><time>2026-04-25T07:15:53.955Z</time></trkpt><trkpt lat="45.737285" lon="11.7623283"><ele>101.0</ele><time>2026-04-25T07:15:54.954Z</time></trkpt><trkpt lat="45.73734" lon="11.7627017"><ele>101.0</ele><time>2026-04-25T07:15:55.955Z</time></trkpt><trkpt lat="45.737385" lon="11.7630717"><ele>101.0</ele><time>2026-04-25T07:15:56.955Z</time></trkpt><trkpt lat="45.7374267" lon="11.7634283"><ele>102.0</ele><time>2026-04-25T07:15:57.954Z</time></trkpt><trkpt lat="45.7374767" lon="11.7637817"><ele>103.0</ele><time>2026-04-25T07:15:58.955Z</time></trkpt><trkpt lat="45.73753" lon="11.7641367"><ele>102.5</ele><time>2026-04-25T07:15:59.955Z</time></trkpt><trkpt lat="45.7375883" lon="11.7644867"><ele>102.0</ele><time>2026-04-25T07:16:00.955Z</time></trkpt><trkpt lat="45.737645" lon="11.76484"><ele>102.0</ele><time>2026-04-25T07:16:01.954Z</time></trkpt><trkpt lat="45.7377017" lon="11.7651817"><ele>102.0</ele><time>2026-04-25T07:16:02.955Z</time></trkpt><trkpt lat="45.737755" lon="11.7655117"><ele>102.0</ele><time>2026-04-25T07:16:03.955Z</time></trkpt><trkpt lat="45.7378083" lon="11.7658367"><ele>102.0</ele><time>2026-04-25T07:16:04.955Z</time></trkpt><trkpt lat="45.73786" lon="11.76616"><ele>102.0</ele><time>2026-04-25T07:16:05.955Z</time></trkpt><trkpt lat="45.7379133" lon="11.76648"><ele>102.0</ele><time>2026-04-25T07:16:06.955Z</time></trkpt><trkpt lat="45.7379667" lon="11.7667983"><ele>102.33333333333334</ele><time>2026-04-25T07:16:07.955Z</time></trkpt><trkpt lat="45.7380217" lon="11.7671117"><ele>102.66666666666667</ele><time>2026-04-25T07:16:08.954Z</time></trkpt><trkpt lat="45.7380767" lon="11.7674167"><ele>103.0</ele><time>2026-04-25T07:16:09.954Z</time></trkpt><trkpt lat="45.73812" lon="11.767705"><ele>103.33333333333334</ele><time>2026-04-25T07:16:10.955Z</time></trkpt><trkpt lat="45.738155" lon="11.7679817"><ele>103.66666666666666</ele><time>2026-04-25T07:16:11.955Z</time></trkpt><trkpt lat="45.7381817" lon="11.7682467"><ele>104.0</ele><time>2026-04-25T07:16:12.955Z</time></trkpt><trkpt lat="45.738205" lon="11.7684967"><ele>103.66666666666666</ele><time>2026-04-25T07:16:13.955Z</time></trkpt><trkpt lat="45.7382267" lon="11.768745"><ele>103.33333333333334</ele><time>2026-04-25T07:16:14.953Z</time></trkpt><trkpt lat="45.7382533" lon="11.7689917"><ele>103.0</ele><time>2026-04-25T07:16:15.954Z</time></trkpt><trkpt lat="45.7382817" lon="11.769235"><ele>102.0</ele><time>2026-04-25T07:16:16.955Z</time></trkpt><trkpt lat="45.7383083" lon="11.7694767"><ele>101.0</ele><time>2026-04-25T07:16:17.954Z</time></trkpt><trkpt lat="45.7383367" lon="11.7697067"><ele>100.0</ele><time>2026-04-25T07:16:18.955Z</time></trkpt><trkpt lat="45.7383683" lon="11.7699283"><ele>100.0</ele><time>2026-04-25T07:16:19.955Z</time></trkpt><trkpt lat="45.7384033" lon="11.7701283"><ele>100.0</ele><time>2026-04-25T07:16:20.956Z</time></trkpt><trkpt lat="45.73844" lon="11.7702967"><ele>100.0</ele><time>2026-04-25T07:16:21.956Z</time></trkpt><trkpt lat="45.7384667" lon="11.7704317"><ele>100.0</ele><time>2026-04-25T07:16:22.956Z</time></trkpt><trkpt lat="45.738485" lon="11.7705317"><ele>100.0</ele><time>2026-04-25T07:16:23.956Z</time></trkpt><trkpt lat="45.7385167" lon="11.7706667"><ele>99.83333333333334</ele><time>2026-04-25T07:16:25.956Z</time></trkpt><trkpt lat="45.7385067" lon="11.770795"><ele>99.66666666666667</ele><time>2026-04-25T07:17:15.954Z</time></trkpt><trkpt lat="45.73853" lon="11.77093"><ele>99.5</ele><time>2026-04-25T07:17:17.953Z</time></trkpt><trkpt lat="45.7385317" lon="11.7710217"><ele>99.33333333333334</ele><time>2026-04-25T07:17:18.955Z</time></trkpt><trkpt lat="45.7385333" lon="11.7711267"><ele>99.16666666666667</ele><time>2026-04-25T07:17:19.955Z</time></trkpt><trkpt lat="45.7385283" lon="11.7712383"><ele>99.0</ele><time>2026-04-25T07:17:20.955Z</time></trkpt><trkpt lat="45.7385267" lon="11.7713383"><ele>101.0</ele><time>2026-04-25T07:17:21.955Z</time></trkpt><trkpt lat="45.738535" lon="11.771445"><ele>101.0</ele><time>2026-04-25T07:17:23.954Z</time></trkpt></trkseg><trkseg><trkpt lat="45.7386083" lon="11.771585"><ele>100.99999999999999</ele><time>2026-04-25T07:32:21.955Z</time></trkpt><trkpt lat="45.7386717" lon="11.7716783"><ele>101.0</ele><time>2026-04-25T07:32:23.955Z</time></trkpt><trkpt lat="45.7387183" lon="11.7717417"><ele>101.0</ele><time>2026-04-25T07:32:24.955Z</time></trkpt><trkpt lat="45.7387783" lon="11.7718917"><ele>101.0</ele><time>2026-04-25T07:32:26.955Z</time></trkpt><trkpt lat="45.7388" lon="11.771985"><ele>100.99999999999999</ele><time>2026-04-25T07:32:27.956Z</time></trkpt><trkpt lat="45.7388217" lon="11.7720883"><ele>101.0</ele><time>2026-04-25T07:32:28.956Z</time></trkpt><trkpt lat="45.7388383" lon="11.7722067"><ele>101.0</ele><time>2026-04-25T07:32:29.954Z</time></trkpt><trkpt lat="45.73886" lon="11.7723433"><ele>101.0</ele><time>2026-04-25T07:32:30.956Z</time></trkpt><trkpt lat="45.738875" lon="11.77249"><ele>101.0</ele><time>2026-04-25T07:32:31.955Z</time></trkpt><trkpt lat="45.7388933" lon="11.7726367"><ele>101.0</ele><time>2026-04-25T07:32:32.954Z</time></trkpt><trkpt lat="45.7389083" lon="11.7727817"><ele>101.0</ele><time>2026-04-25T07:32:33.954Z</time></trkpt><trkpt lat="45.73892" lon="11.7729233"><ele>100.99999999999999</ele><time>2026-04-25T07:32:34.956Z</time></trkpt><trkpt lat="45.7389233" lon="11.7730533"><ele>101.0</ele><time>2026-04-25T07:32:35.955Z</time></trkpt><trkpt lat="45.738925" lon="11.773175"><ele>101.0</ele><time>2026-04-25T07:32:36.956Z</time></trkpt><trkpt lat="45.7389383" lon="11.7732933"><ele>101.0</ele><time>2026-04-25T07:32:37.955Z</time></trkpt><trkpt lat="45.7389467" lon="11.77341"><ele>100.99999999999999</ele><time>2026-04-25T07:32:38.955Z</time></trkpt><trkpt lat="45.7389467" lon="11.773525"><ele>101.0</ele><time>2026-04-25T07:32:39.956Z</time></trkpt><trkpt lat="45.7389467" lon="11.7736483"><ele>101.0</ele><time>2026-04-25T07:32:40.955Z</time></trkpt><trkpt lat="45.738945" lon="11.773775"><ele>101.0</ele><time>2026-04-25T07:32:41.955Z</time></trkpt><trkpt lat="45.7389433" lon="11.7739067"><ele>101.0</ele><time>2026-04-25T07:32:42.955Z</time></trkpt><trkpt lat="45.7389483" lon="11.7740433"><ele>101.0</ele><time>2026-04-25T07:32:43.96Z</time></trkpt><trkpt lat="45.73897" lon="11.7741833"><ele>101.0</ele><time>2026-04-25T07:32:44.955Z</time></trkpt><trkpt lat="45.739015" lon="11.774315"><ele>100.8</ele><time>2026-04-25T07:32:45.955Z</time></trkpt><trkpt lat="45.7390783" lon="11.774425"><ele>100.6</ele><time>2026-04-25T07:32:46.956Z</time></trkpt><trkpt lat="45.73916" lon="11.77451"><ele>100.4</ele><time>2026-04-25T07:32:47.954Z</time></trkpt><trkpt lat="45.73924" lon="11.7745683"><ele>100.2</ele><time>2026-04-25T07:32:48.955Z</time></trkpt><trkpt lat="45.7393183" lon="11.7746033"><ele>100.0</ele><time>2026-04-25T07:32:49.956Z</time></trkpt><trkpt lat="45.739405" lon="11.774605"><ele>100.4</ele><time>2026-04-25T07:32:50.955Z</time></trkpt><trkpt lat="45.7395" lon="11.7745717"><ele>100.8</ele><time>2026-04-25T07:32:51.954Z</time></trkpt><trkpt lat="45.7395833" lon="11.7744883"><ele>101.19999999999999</ele><time>2026-04-25T07:32:52.955Z</time></trkpt><trkpt lat="45.7396533" lon="11.7743917"><ele>101.6</ele><time>2026-04-25T07:32:53.955Z</time></trkpt><trkpt lat="45.7397083" lon="11.77428"><ele>102.0</ele><time>2026-04-25T07:32:54.956Z</time></trkpt><trkpt lat="45.73976" lon="11.774175"><ele>102.19999999999999</ele><time>2026-04-25T07:32:55.957Z</time></trkpt><trkpt lat="45.7398233" lon="11.774075"><ele>102.4</ele><time>2026-04-25T07:32:56.957Z</time></trkpt><trkpt lat="45.739905" lon="11.7739983"><ele>102.6</ele><time>2026-04-25T07:32:57.955Z</time></trkpt><trkpt lat="45.7399983" lon="11.77395"><ele>102.80000000000001</ele><time>2026-04-25T07:32:58.957Z</time></trkpt><trkpt lat="45.7400967" lon="11.7739317"><ele>103.0</ele><time>2026-04-25T07:32:59.955Z</time></trkpt><trkpt lat="45.7401967" lon="11.7739367"><ele>102.5</ele><time>2026-04-25T07:33:00.955Z</time></trkpt><trkpt lat="45.7402983" lon="11.7739833"><ele>102.0</ele><time>2026-04-25T07:33:01.956Z</time></trkpt><trkpt lat="45.7403983" lon="11.7740683"><ele>101.5</ele><time>2026-04-25T07:33:02.955Z</time></trkpt><trkpt lat="45.7404883" lon="11.774185"><ele>101.0</ele><time>2026-04-25T07:33:03.955Z</time></trkpt><trkpt lat="45.7405733" lon="11.774315"><ele>101.5</ele><time>2026-04-25T07:33:04.956Z</time></trkpt><trkpt lat="45.7406567" lon="11.7744483"><ele>102.0</ele><time>2026-04-25T07:33:05.954Z</time></trkpt><trkpt lat="45.7407383" lon="11.7745817"><ele>102.5</ele><time>2026-04-25T07:33:06.956Z</time></trkpt><trkpt lat="45.7408167" lon="11.7747033"><ele>103.0</ele><time>2026-04-25T07:33:07.956Z</time></trkpt><trkpt lat="45.740895" lon="11.7748067"><ele>103.0</ele><time>2026-04-25T07:33:08.956Z</time></trkpt><trkpt lat="45.740975" lon="11.77489"><ele>103.0</ele><time>2026-04-25T07:33:09.956Z</time></trkpt><trkpt lat="45.741055" lon="11.7749533"><ele>103.0</ele><time>2026-04-25T07:33:10.957Z</time></trkpt><trkpt lat="45.74113" lon="11.7750167"><ele>103.0</ele><time>2026-04-25T07:33:11.954Z</time></trkpt><trkpt lat="45.7411983" lon="11.775095"><ele>103.0</ele><time>2026-04-25T07:33:12.956Z</time></trkpt><trkpt lat="45.7412567" lon="11.7751933"><ele>103.0</ele><time>2026-04-25T07:33:13.956Z</time></trkpt><trkpt lat="45.7413167" lon="11.7752917"><ele>103.0</ele><time>2026-04-25T07:33:14.956Z</time></trkpt><trkpt lat="45.74139" lon="11.77537"><ele>103.0</ele><time>2026-04-25T07:33:15.955Z</time></trkpt><trkpt lat="45.7414833" lon="11.7754433"><ele>103.0</ele><time>2026-04-25T07:33:16.956Z</time></trkpt><trkpt lat="45.7416" lon="11.77553"><ele>103.0</ele><time>2026-04-25T07:33:17.957Z</time></trkpt><trkpt lat="45.74173" lon="11.77563"><ele>103.0</ele><time>2026-04-25T07:33:18.956Z</time></trkpt><trkpt lat="45.74186" lon="11.7757317"><ele>103.0</ele><time>2026-04-25T07:33:19.955Z</time></trkpt><trkpt lat="45.7420017" lon="11.77582"><ele>103.0</ele><time>2026-04-25T07:33:20.955Z</time></trkpt><trkpt lat="45.7421483" lon="11.77589"><ele>102.75</ele><time>2026-04-25T07:33:21.956Z</time></trkpt><trkpt lat="45.7422967" lon="11.7759467"><ele>102.5</ele><time>2026-04-25T07:33:22.957Z</time></trkpt><trkpt lat="45.7424417" lon="11.775985"><ele>102.25</ele><time>2026-04-25T07:33:23.955Z</time></trkpt><trkpt lat="45.7425867" lon="11.7760117"><ele>102.0</ele><time>2026-04-25T07:33:24.955Z</time></trkpt><trkpt lat="45.7427317" lon="11.7760233"><ele>102.66666666666666</ele><time>2026-04-25T07:33:25.955Z</time></trkpt><trkpt lat="45.7428767" lon="11.776035"><ele>103.33333333333333</ele><time>2026-04-25T07:33:26.956Z</time></trkpt><trkpt lat="45.7430217" lon="11.7760517"><ele>104.0</ele><time>2026-04-25T07:33:27.954Z</time></trkpt><trkpt lat="45.74318" lon="11.7760733"><ele>104.0</ele><time>2026-04-25T07:33:28.957Z</time></trkpt><trkpt lat="45.7433517" lon="11.7761033"><ele>104.0</ele><time>2026-04-25T07:33:29.954Z</time></trkpt><trkpt lat="45.7435317" lon="11.776145"><ele>104.0</ele><time>2026-04-25T07:33:30.956Z</time></trkpt><trkpt lat="45.7437067" lon="11.776185"><ele>103.66666666666666</ele><time>2026-04-25T07:33:31.955Z</time></trkpt><trkpt lat="45.7438883" lon="11.77621"><ele>103.33333333333334</ele><time>2026-04-25T07:33:32.956Z</time></trkpt><trkpt lat="45.7440733" lon="11.7762333"><ele>103.0</ele><time>2026-04-25T07:33:33.955Z</time></trkpt><trkpt lat="45.7442567" lon="11.7762567"><ele>103.0</ele><time>2026-04-25T07:33:34.956Z</time></trkpt><trkpt lat="45.744435" lon="11.776275"><ele>103.0</ele><time>2026-04-25T07:33:35.955Z</time></trkpt><trkpt lat="45.744615" lon="11.7762917"><ele>103.0</ele><time>2026-04-25T07:33:36.957Z</time></trkpt><trkpt lat="45.7447933" lon="11.776305"><ele>103.0</ele><time>2026-04-25T07:33:37.958Z</time></trkpt><trkpt lat="45.7449767" lon="11.776325"><ele>103.0</ele><time>2026-04-25T07:33:38.957Z</time></trkpt><trkpt lat="45.74516" lon="11.77634"><ele>103.0</ele><time>2026-04-25T07:33:39.957Z</time></trkpt><trkpt lat="45.7453533" lon="11.776345"><ele>102.66666666666667</ele><time>2026-04-25T07:33:40.959Z</time></trkpt><trkpt lat="45.7455517" lon="11.7763467"><ele>102.33333333333334</ele><time>2026-04-25T07:33:41.957Z</time></trkpt><trkpt lat="45.745755" lon="11.7763367"><ele>102.0</ele><time>2026-04-25T07:33:42.957Z</time></trkpt><trkpt lat="45.7459617" lon="11.7763317"><ele>102.33333333333334</ele><time>2026-04-25T07:33:43.957Z</time></trkpt><trkpt lat="45.7461633" lon="11.7763283"><ele>102.66666666666667</ele><time>2026-04-25T07:33:44.956Z</time></trkpt><trkpt lat="45.7463683" lon="11.7763267"><ele>103.0</ele><time>2026-04-25T07:33:45.955Z</time></trkpt><trkpt lat="45.7465783" lon="11.776325"><ele>103.0</ele><time>2026-04-25T07:33:46.956Z</time></trkpt><trkpt lat="45.74678" lon="11.77632"><ele>103.0</ele><time>2026-04-25T07:33:47.955Z</time></trkpt><trkpt lat="45.7469733" lon="11.7763167"><ele>103.0</ele><time>2026-04-25T07:33:48.956Z</time></trkpt><trkpt lat="45.7471617" lon="11.7763117"><ele>103.66666666666667</ele><time>2026-04-25T07:33:49.954Z</time></trkpt><trkpt lat="45.7473533" lon="11.7763083"><ele>104.33333333333334</ele><time>2026-04-25T07:33:50.955Z</time></trkpt><trkpt lat="45.7475467" lon="11.7763017"><ele>105.0</ele><time>2026-04-25T07:33:51.956Z</time></trkpt><trkpt lat="45.7477433" lon="11.7762967"><ele>105.0</ele><time>2026-04-25T07:33:52.955Z</time></trkpt><trkpt lat="45.74794" lon="11.7762967"><ele>105.0</ele><time>2026-04-25T07:33:53.955Z</time></trkpt><trkpt lat="45.748135" lon="11.7762967"><ele>105.0</ele><time>2026-04-25T07:33:54.955Z</time></trkpt><trkpt lat="45.74833" lon="11.7762933"><ele>105.0</ele><time>2026-04-25T07:33:55.956Z</time></trkpt><trkpt lat="45.7485233" lon="11.7762883"><ele>105.0</ele><time>2026-04-25T07:33:56.956Z</time></trkpt><trkpt lat="45.7487133" lon="11.7762833"><ele>105.0</ele><time>2026-04-25T07:33:57.955Z</time></trkpt><trkpt lat="45.7489033" lon="11.776285"><ele>105.0</ele><time>2026-04-25T07:33:58.955Z</time></trkpt><trkpt lat="45.7490933" lon="11.7762817"><ele>105.0</ele><time>2026-04-25T07:33:59.955Z</time></trkpt><trkpt lat="45.7492783" lon="11.77628"><ele>105.0</ele><time>2026-04-25T07:34:00.956Z</time></trkpt><trkpt lat="45.7494617" lon="11.776275"><ele>105.33333333333334</ele><time>2026-04-25T07:34:01.955Z</time></trkpt><trkpt lat="45.749645" lon="11.776275"><ele>105.66666666666667</ele><time>2026-04-25T07:34:02.955Z</time></trkpt><trkpt lat="45.749825" lon="11.7762733"><ele>106.0</ele><time>2026-04-25T07:34:03.955Z</time></trkpt><trkpt lat="45.7500033" lon="11.77627"><ele>106.0</ele><time>2026-04-25T07:34:04.957Z</time></trkpt><trkpt lat="45.7501783" lon="11.77627"><ele>106.0</ele><time>2026-04-25T07:34:05.955Z</time></trkpt><trkpt lat="45.750355" lon="11.7762667"><ele>106.0</ele><time>2026-04-25T07:34:06.955Z</time></trkpt><trkpt lat="45.75053" lon="11.7762667"><ele>106.0</ele><time>2026-04-25T07:34:07.956Z</time></trkpt><trkpt lat="45.7507067" lon="11.77626"><ele>106.0</ele><time>2026-04-25T07:34:08.955Z</time></trkpt><trkpt lat="45.75089" lon="11.7762517"><ele>106.0</ele><time>2026-04-25T07:34:09.955Z</time></trkpt><trkpt lat="45.751075" lon="11.7762433"><ele>106.33333333333334</ele><time>2026-04-25T07:34:10.956Z</time></trkpt><trkpt lat="45.7512583" lon="11.7762233"><ele>106.66666666666666</ele><time>2026-04-25T07:34:11.958Z</time></trkpt><trkpt lat="45.751445" lon="11.7762083"><ele>107.0</ele><time>2026-04-25T07:34:12.956Z</time></trkpt><trkpt lat="45.7516367" lon="11.7761883"><ele>107.0</ele><time>2026-04-25T07:34:13.955Z</time></trkpt><trkpt lat="45.7518317" lon="11.7761617"><ele>107.0</ele><time>2026-04-25T07:34:14.956Z</time></trkpt><trkpt lat="45.7520283" lon="11.7761333"><ele>107.0</ele><time>2026-04-25T07:34:15.955Z</time></trkpt><trkpt lat="45.7522217" lon="11.7760983"><ele>107.33333333333333</ele><time>2026-04-25T07:34:16.956Z</time></trkpt><trkpt lat="45.752415" lon="11.7760583"><ele>107.66666666666666</ele><time>2026-04-25T07:34:17.955Z</time></trkpt><trkpt lat="45.75261" lon="11.7760167"><ele>108.0</ele><time>2026-04-25T07:34:18.956Z</time></trkpt><trkpt lat="45.752805" lon="11.7759683"><ele>108.0</ele><time>2026-04-25T07:34:19.955Z</time></trkpt><trkpt lat="45.7529967" lon="11.7759183"><ele>108.0</ele><time>2026-04-25T07:34:20.955Z</time></trkpt><trkpt lat="45.7531833" lon="11.7758583"><ele>108.0</ele><time>2026-04-25T07:34:21.955Z</time></trkpt><trkpt lat="45.7533683" lon="11.7758017"><ele>108.33333333333334</ele><time>2026-04-25T07:34:22.956Z</time></trkpt><trkpt lat="45.7535467" lon="11.7757383"><ele>108.66666666666667</ele><time>2026-04-25T07:34:23.955Z</time></trkpt><trkpt lat="45.75372" lon="11.7756783"><ele>109.0</ele><time>2026-04-25T07:34:24.956Z</time></trkpt><trkpt lat="45.7538867" lon="11.7756133"><ele>109.0</ele><time>2026-04-25T07:34:25.955Z</time></trkpt><trkpt lat="45.754055" lon="11.775545"><ele>109.0</ele><time>2026-04-25T07:34:26.955Z</time></trkpt><trkpt lat="45.7542283" lon="11.7754717"><ele>109.0</ele><time>2026-04-25T07:34:27.955Z</time></trkpt><trkpt lat="45.7544067" lon="11.7753967"><ele>109.0</ele><time>2026-04-25T07:34:28.955Z</time></trkpt><trkpt lat="45.7545867" lon="11.7753183"><ele>109.0</ele><time>2026-04-25T07:34:29.954Z</time></trkpt><trkpt lat="45.7547667" lon="11.7752383"><ele>109.0</ele><time>2026-04-25T07:34:30.956Z</time></trkpt><trkpt lat="45.7549433" lon="11.7751633"><ele>108.33333333333334</ele><time>2026-04-25T07:34:31.956Z</time></trkpt><trkpt lat="45.7551167" lon="11.7750883"><ele>107.66666666666666</ele><time>2026-04-25T07:34:32.955Z</time></trkpt><trkpt lat="45.7552917" lon="11.7750133"><ele>107.0</ele><time>2026-04-25T07:34:33.956Z</time></trkpt><trkpt lat="45.7554667" lon="11.7749367"><ele>109.0</ele><time>2026-04-25T07:34:34.956Z</time></trkpt><trkpt lat="45.75564" lon="11.7748617"><ele>111.0</ele><time>2026-04-25T07:34:35.955Z</time></trkpt><trkpt lat="45.7558133" lon="11.7747833"><ele>113.0</ele><time>2026-04-25T07:34:36.956Z</time></trkpt><trkpt lat="45.7559833" lon="11.7747067"><ele>112.33333333333333</ele><time>2026-04-25T07:34:37.955Z</time></trkpt><trkpt lat="45.7561517" lon="11.774635"><ele>111.66666666666666</ele><time>2026-04-25T07:34:38.957Z</time></trkpt><trkpt lat="45.7563133" lon="11.77456"><ele>111.0</ele><time>2026-04-25T07:34:39.957Z</time></trkpt><trkpt lat="45.7564683" lon="11.7744883"><ele>111.0</ele><time>2026-04-25T07:34:40.957Z</time></trkpt><trkpt lat="45.7566167" lon="11.77442"><ele>111.0</ele><time>2026-04-25T07:34:41.957Z</time></trkpt><trkpt lat="45.7567583" lon="11.774355"><ele>111.0</ele><time>2026-04-25T07:34:42.956Z</time></trkpt><trkpt lat="45.7569" lon="11.77429"><ele>111.0</ele><time>2026-04-25T07:34:43.954Z</time></trkpt><trkpt lat="45.75704" lon="11.774225"><ele>111.0</ele><time>2026-04-25T07:34:44.956Z</time></trkpt><trkpt lat="45.75718" lon="11.7741567"><ele>111.0</ele><time>2026-04-25T07:34:45.956Z</time></trkpt><trkpt lat="45.7573167" lon="11.7740833"><ele>111.0</ele><time>2026-04-25T07:34:46.956Z</time></trkpt><trkpt lat="45.757455" lon="11.7740117"><ele>111.0</ele><time>2026-04-25T07:34:47.955Z</time></trkpt><trkpt lat="45.7575967" lon="11.7739333"><ele>111.0</ele><time>2026-04-25T07:34:48.956Z</time></trkpt><trkpt lat="45.75774" lon="11.77385"><ele>111.0</ele><time>2026-04-25T07:34:49.957Z</time></trkpt><trkpt lat="45.757885" lon="11.77377"><ele>111.33333333333334</ele><time>2026-04-25T07:34:50.957Z</time></trkpt><trkpt lat="45.75803" lon="11.7736867"><ele>111.66666666666667</ele><time>2026-04-25T07:34:51.957Z</time></trkpt><trkpt lat="45.758175" lon="11.7736067"><ele>112.0</ele><time>2026-04-25T07:34:52.958Z</time></trkpt><trkpt lat="45.7583217" lon="11.7735267"><ele>111.66666666666667</ele><time>2026-04-25T07:34:53.957Z</time></trkpt><trkpt lat="45.7584683" lon="11.7734417"><ele>111.33333333333334</ele><time>2026-04-25T07:34:54.957Z</time></trkpt><trkpt lat="45.7586167" lon="11.7733583"><ele>111.0</ele><time>2026-04-25T07:34:55.957Z</time></trkpt><trkpt lat="45.75876" lon="11.77327"><ele>110.66666666666666</ele><time>2026-04-25T07:34:56.956Z</time></trkpt><trkpt lat="45.7589" lon="11.7731817"><ele>110.33333333333333</ele><time>2026-04-25T07:34:57.956Z</time></trkpt><trkpt lat="45.7590367" lon="11.7730933"><ele>110.0</ele><time>2026-04-25T07:34:58.957Z</time></trkpt><trkpt lat="45.759175" lon="11.7730033"><ele>110.0</ele><time>2026-04-25T07:34:59.956Z</time></trkpt><trkpt lat="45.7593167" lon="11.772905"><ele>110.0</ele><time>2026-04-25T07:35:00.956Z</time></trkpt><trkpt lat="45.759465" lon="11.7728017"><ele>110.0</ele><time>2026-04-25T07:35:01.957Z</time></trkpt><trkpt lat="45.7596183" lon="11.7726933"><ele>111.33333333333333</ele><time>2026-04-25T07:35:02.957Z</time></trkpt><trkpt lat="45.759775" lon="11.772585"><ele>112.66666666666666</ele><time>2026-04-25T07:35:03.955Z</time></trkpt><trkpt lat="45.7599317" lon="11.772475"><ele>114.0</ele><time>2026-04-25T07:35:04.96Z</time></trkpt><trkpt lat="45.76009" lon="11.772365"><ele>113.66666666666666</ele><time>2026-04-25T07:35:05.956Z</time></trkpt><trkpt lat="45.7602467" lon="11.772255"><ele>113.33333333333333</ele><time>2026-04-25T07:35:06.956Z</time></trkpt><trkpt lat="45.7604" lon="11.7721383"><ele>113.0</ele><time>2026-04-25T07:35:07.956Z</time></trkpt><trkpt lat="45.7605517" lon="11.7720183"><ele>113.0</ele><time>2026-04-25T07:35:08.956Z</time></trkpt><trkpt lat="45.7607033" lon="11.7718967"><ele>113.0</ele><time>2026-04-25T07:35:09.956Z</time></trkpt><trkpt lat="45.7608533" lon="11.7717767"><ele>113.0</ele><time>2026-04-25T07:35:10.957Z</time></trkpt><trkpt lat="45.761005" lon="11.7716567"><ele>113.66666666666666</ele><time>2026-04-25T07:35:11.955Z</time></trkpt><trkpt lat="45.76116" lon="11.7715333"><ele>114.33333333333334</ele><time>2026-04-25T07:35:12.956Z</time></trkpt><trkpt lat="45.7613167" lon="11.7714033"><ele>115.0</ele><time>2026-04-25T07:35:13.955Z</time></trkpt><trkpt lat="45.7614783" lon="11.771265"><ele>115.0</ele><time>2026-04-25T07:35:14.955Z</time></trkpt><trkpt lat="45.7616467" lon="11.771125"><ele>115.0</ele><time>2026-04-25T07:35:15.955Z</time></trkpt><trkpt lat="45.761815" lon="11.7709817"><ele>115.0</ele><time>2026-04-25T07:35:16.956Z</time></trkpt><trkpt lat="45.7619883" lon="11.770845"><ele>114.66666666666667</ele><time>2026-04-25T07:35:17.954Z</time></trkpt><trkpt lat="45.7621567" lon="11.770715"><ele>114.33333333333334</ele><time>2026-04-25T07:35:18.955Z</time></trkpt><trkpt lat="45.7623233" lon="11.7705833"><ele>114.0</ele><time>2026-04-25T07:35:19.955Z</time></trkpt><trkpt lat="45.7624867" lon="11.7704483"><ele>114.0</ele><time>2026-04-25T07:35:20.956Z</time></trkpt><trkpt lat="45.76265" lon="11.770315"><ele>114.0</ele><time>2026-04-25T07:35:21.958Z</time></trkpt><trkpt lat="45.7628117" lon="11.7701767"><ele>114.0</ele><time>2026-04-25T07:35:22.958Z</time></trkpt><trkpt lat="45.7629733" lon="11.77004"><ele>114.66666666666666</ele><time>2026-04-25T07:35:23.956Z</time></trkpt><trkpt lat="45.7631383" lon="11.7699033"><ele>115.33333333333333</ele><time>2026-04-25T07:35:24.958Z</time></trkpt><trkpt lat="45.7633" lon="11.769765"><ele>116.0</ele><time>2026-04-25T07:35:25.958Z</time></trkpt><trkpt lat="45.763465" lon="11.769625"><ele>117.0</ele><time>2026-04-25T07:35:26.957Z</time></trkpt><trkpt lat="45.7636317" lon="11.769485"><ele>118.0</ele><time>2026-04-25T07:35:27.958Z</time></trkpt><trkpt lat="45.7638" lon="11.769345"><ele>119.0</ele><time>2026-04-25T07:35:28.958Z</time></trkpt><trkpt lat="45.76397" lon="11.7692067"><ele>119.0</ele><time>2026-04-25T07:35:29.957Z</time></trkpt><trkpt lat="45.7641367" lon="11.769075"><ele>119.0</ele><time>2026-04-25T07:35:30.957Z</time></trkpt><trkpt lat="45.7643017" lon="11.7689483"><ele>119.0</ele><time>2026-04-25T07:35:31.957Z</time></trkpt><trkpt lat="45.7644633" lon="11.7688317"><ele>119.0</ele><time>2026-04-25T07:35:32.957Z</time></trkpt><trkpt lat="45.7646217" lon="11.7687133"><ele>119.0</ele><time>2026-04-25T07:35:33.957Z</time></trkpt><trkpt lat="45.7647817" lon="11.768595"><ele>119.0</ele><time>2026-04-25T07:35:34.959Z</time></trkpt><trkpt lat="45.7649433" lon="11.7684817"><ele>119.0</ele><time>2026-04-25T07:35:35.957Z</time></trkpt><trkpt lat="45.7651033" lon="11.76837"><ele>119.0</ele><time>2026-04-25T07:35:36.958Z</time></trkpt><trkpt lat="45.7652667" lon="11.7682583"><ele>119.0</ele><time>2026-04-25T07:35:37.956Z</time></trkpt><trkpt lat="45.7654317" lon="11.7681517"><ele>119.0</ele><time>2026-04-25T07:35:38.957Z</time></trkpt><trkpt lat="45.7656" lon="11.76805"><ele>119.0</ele><time>2026-04-25T07:35:39.957Z</time></trkpt><trkpt lat="45.76577" lon="11.7679483"><ele>119.0</ele><time>2026-04-25T07:35:40.956Z</time></trkpt><trkpt lat="45.76594" lon="11.7678483"><ele>119.66666666666666</ele><time>2026-04-25T07:35:41.957Z</time></trkpt><trkpt lat="45.7661133" lon="11.7677483"><ele>120.33333333333334</ele><time>2026-04-25T07:35:42.956Z</time></trkpt><trkpt lat="45.7662883" lon="11.7676533"><ele>121.0</ele><time>2026-04-25T07:35:43.955Z</time></trkpt><trkpt lat="45.7664683" lon="11.7675583"><ele>121.0</ele><time>2026-04-25T07:35:44.956Z</time></trkpt><trkpt lat="45.7666467" lon="11.7674667"><ele>121.0</ele><time>2026-04-25T07:35:45.955Z</time></trkpt><trkpt lat="45.7668233" lon="11.7673733"><ele>121.0</ele><time>2026-04-25T07:35:46.956Z</time></trkpt><trkpt lat="45.7669983" lon="11.76728"><ele>120.66666666666667</ele><time>2026-04-25T07:35:47.955Z</time></trkpt><trkpt lat="45.7671733" lon="11.767185"><ele>120.33333333333334</ele><time>2026-04-25T07:35:48.955Z</time></trkpt><trkpt lat="45.7673483" lon="11.7670883"><ele>120.0</ele><time>2026-04-25T07:35:49.957Z</time></trkpt><trkpt lat="45.7675267" lon="11.7669917"><ele>120.66666666666666</ele><time>2026-04-25T07:35:50.956Z</time></trkpt><trkpt lat="45.7677017" lon="11.7668933"><ele>121.33333333333333</ele><time>2026-04-25T07:35:51.956Z</time></trkpt><trkpt lat="45.7678783" lon="11.766795"><ele>122.0</ele><time>2026-04-25T07:35:52.958Z</time></trkpt><trkpt lat="45.7680567" lon="11.7666967"><ele>122.0</ele><time>2026-04-25T07:35:53.957Z</time></trkpt><trkpt lat="45.768235" lon="11.7666"><ele>122.0</ele><time>2026-04-25T07:35:54.957Z</time></trkpt><trkpt lat="45.76841" lon="11.766505"><ele>122.0</ele><time>2026-04-25T07:35:55.957Z</time></trkpt><trkpt lat="45.7685833" lon="11.7664083"><ele>122.66666666666666</ele><time>2026-04-25T07:35:56.956Z</time></trkpt><trkpt lat="45.7687567" lon="11.766315"><ele>123.33333333333334</ele><time>2026-04-25T07:35:57.955Z</time></trkpt><trkpt lat="45.7689283" lon="11.766225"><ele>124.0</ele><time>2026-04-25T07:35:58.957Z</time></trkpt><trkpt lat="45.7690983" lon="11.766135"><ele>124.0</ele><time>2026-04-25T07:35:59.955Z</time></trkpt><trkpt lat="45.769265" lon="11.7660467"><ele>124.0</ele><time>2026-04-25T07:36:00.955Z</time></trkpt><trkpt lat="45.7694283" lon="11.7659583"><ele>124.0</ele><time>2026-04-25T07:36:01.955Z</time></trkpt><trkpt lat="45.76959" lon="11.7658683"><ele>124.66666666666667</ele><time>2026-04-25T07:36:02.956Z</time></trkpt><trkpt lat="45.76975" lon="11.7657817"><ele>125.33333333333334</ele><time>2026-04-25T07:36:03.955Z</time></trkpt><trkpt lat="45.7699017" lon="11.7657"><ele>126.0</ele><time>2026-04-25T07:36:04.957Z</time></trkpt><trkpt lat="45.7700467" lon="11.76562"><ele>126.0</ele><time>2026-04-25T07:36:05.955Z</time></trkpt><trkpt lat="45.77019" lon="11.7655433"><ele>126.0</ele><time>2026-04-25T07:36:06.956Z</time></trkpt><trkpt lat="45.7703283" lon="11.7654633"><ele>126.0</ele><time>2026-04-25T07:36:07.956Z</time></trkpt><trkpt lat="45.7704633" lon="11.7653883"><ele>126.0</ele><time>2026-04-25T07:36:08.956Z</time></trkpt><trkpt lat="45.770595" lon="11.7653183"><ele>126.0</ele><time>2026-04-25T07:36:09.956Z</time></trkpt><trkpt lat="45.7707267" lon="11.7652483"><ele>126.0</ele><time>2026-04-25T07:36:10.956Z</time></trkpt><trkpt lat="45.77086" lon="11.7651767"><ele>126.0</ele><time>2026-04-25T07:36:11.954Z</time></trkpt><trkpt lat="45.7709917" lon="11.7651067"><ele>126.0</ele><time>2026-04-25T07:36:12.956Z</time></trkpt><trkpt lat="45.771125" lon="11.7650333"><ele>126.25</ele><time>2026-04-25T07:36:13.955Z</time></trkpt><trkpt lat="45.771255" lon="11.7649633"><ele>126.5</ele><time>2026-04-25T07:36:14.955Z</time></trkpt><trkpt lat="45.771375" lon="11.7649"><ele>126.75</ele><time>2026-04-25T07:36:15.956Z</time></trkpt><trkpt lat="45.7714883" lon="11.7648383"><ele>127.0</ele><time>2026-04-25T07:36:16.956Z</time></trkpt><trkpt lat="45.7716" lon="11.76478"><ele>127.0</ele><time>2026-04-25T07:36:17.956Z</time></trkpt><trkpt lat="45.7717117" lon="11.7647233"><ele>127.0</ele><time>2026-04-25T07:36:18.956Z</time></trkpt><trkpt lat="45.7718267" lon="11.7646633"><ele>127.0</ele><time>2026-04-25T07:36:19.957Z</time></trkpt><trkpt lat="45.7719433" lon="11.7646"><ele>127.0</ele><time>2026-04-25T07:36:20.958Z</time></trkpt><trkpt lat="45.7720633" lon="11.7645333"><ele>127.0</ele><time>2026-04-25T07:36:21.957Z</time></trkpt><trkpt lat="45.7721917" lon="11.76446"><ele>127.0</ele><time>2026-04-25T07:36:22.958Z</time></trkpt><trkpt lat="45.772335" lon="11.764375"><ele>127.0</ele><time>2026-04-25T07:36:23.957Z</time></trkpt><trkpt lat="45.77249" lon="11.76428"><ele>127.66666666666667</ele><time>2026-04-25T07:36:24.958Z</time></trkpt><trkpt lat="45.77266" lon="11.7641783"><ele>128.33333333333334</ele><time>2026-04-25T07:36:25.957Z</time></trkpt><trkpt lat="45.77284" lon="11.764075"><ele>129.0</ele><time>2026-04-25T07:36:26.957Z</time></trkpt><trkpt lat="45.7730317" lon="11.7639683"><ele>129.0</ele><time>2026-04-25T07:36:27.955Z</time></trkpt><trkpt lat="45.7732367" lon="11.7638583"><ele>129.0</ele><time>2026-04-25T07:36:28.956Z</time></trkpt><trkpt lat="45.7734467" lon="11.763745"><ele>129.0</ele><time>2026-04-25T07:36:29.955Z</time></trkpt><trkpt lat="45.7736583" lon="11.7636333"><ele>128.33333333333334</ele><time>2026-04-25T07:36:30.956Z</time></trkpt><trkpt lat="45.77387" lon="11.763525"><ele>127.66666666666667</ele><time>2026-04-25T07:36:31.955Z</time></trkpt><trkpt lat="45.7740783" lon="11.76342"><ele>127.0</ele><time>2026-04-25T07:36:32.957Z</time></trkpt><trkpt lat="45.7742817" lon="11.7633117"><ele>127.0</ele><time>2026-04-25T07:36:33.955Z</time></trkpt><trkpt lat="45.7744833" lon="11.763205"><ele>127.0</ele><time>2026-04-25T07:36:34.957Z</time></trkpt><trkpt lat="45.7746833" lon="11.7631017"><ele>127.0</ele><time>2026-04-25T07:36:35.956Z</time></trkpt><trkpt lat="45.77488" lon="11.7629967"><ele>127.0</ele><time>2026-04-25T07:36:36.956Z</time></trkpt><trkpt lat="45.775075" lon="11.7628933"><ele>127.0</ele><time>2026-04-25T07:36:37.955Z</time></trkpt><trkpt lat="45.7752683" lon="11.76279"><ele>127.0</ele><time>2026-04-25T07:36:38.956Z</time></trkpt><trkpt lat="45.7754633" lon="11.76269"><ele>127.33333333333334</ele><time>2026-04-25T07:36:39.956Z</time></trkpt><trkpt lat="45.77566" lon="11.7625833"><ele>127.66666666666666</ele><time>2026-04-25T07:36:40.957Z</time></trkpt><trkpt lat="45.7758583" lon="11.7624783"><ele>128.0</ele><time>2026-04-25T07:36:41.955Z</time></trkpt><trkpt lat="45.7760567" lon="11.7623683"><ele>128.66666666666666</ele><time>2026-04-25T07:36:42.957Z</time></trkpt><trkpt lat="45.7762567" lon="11.76226"><ele>129.33333333333334</ele><time>2026-04-25T07:36:43.956Z</time></trkpt><trkpt lat="45.7764583" lon="11.7621517"><ele>130.0</ele><time>2026-04-25T07:36:44.956Z</time></trkpt><trkpt lat="45.7766583" lon="11.7620433"><ele>130.0</ele><time>2026-04-25T07:36:45.955Z</time></trkpt><trkpt lat="45.7768583" lon="11.7619367"><ele>130.0</ele><time>2026-04-25T07:36:46.957Z</time></trkpt><trkpt lat="45.77706" lon="11.7618317"><ele>130.0</ele><time>2026-04-25T07:36:47.956Z</time></trkpt><trkpt lat="45.77726" lon="11.7617283"><ele>130.66666666666669</ele><time>2026-04-25T07:36:48.956Z</time></trkpt><trkpt lat="45.7774583" lon="11.7616267"><ele>131.33333333333334</ele><time>2026-04-25T07:36:49.955Z</time></trkpt><trkpt lat="45.7776567" lon="11.761525"><ele>132.0</ele><time>2026-04-25T07:36:50.958Z</time></trkpt><trkpt lat="45.777855" lon="11.761425"><ele>132.0</ele><time>2026-04-25T07:36:51.958Z</time></trkpt><trkpt lat="45.778055" lon="11.7613217"><ele>132.0</ele><time>2026-04-25T07:36:52.959Z</time></trkpt><trkpt lat="45.7782567" lon="11.761215"><ele>132.0</ele><time>2026-04-25T07:36:53.957Z</time></trkpt><trkpt lat="45.7784583" lon="11.76111"><ele>132.0</ele><time>2026-04-25T07:36:54.958Z</time></trkpt><trkpt lat="45.7786617" lon="11.7610067"><ele>132.0</ele><time>2026-04-25T07:36:55.958Z</time></trkpt><trkpt lat="45.778865" lon="11.760905"><ele>132.0</ele><time>2026-04-25T07:36:56.956Z</time></trkpt><trkpt lat="45.7790667" lon="11.7608"><ele>132.0</ele><time>2026-04-25T07:36:57.956Z</time></trkpt><trkpt lat="45.77927" lon="11.7606933"><ele>132.0</ele><time>2026-04-25T07:36:58.956Z</time></trkpt><trkpt lat="45.77947" lon="11.7605883"><ele>132.0</ele><time>2026-04-25T07:36:59.955Z</time></trkpt><trkpt lat="45.779675" lon="11.76049"><ele>132.33333333333334</ele><time>2026-04-25T07:37:00.954Z</time></trkpt><trkpt lat="45.77988" lon="11.7603833"><ele>132.66666666666669</ele><time>2026-04-25T07:37:01.956Z</time></trkpt><trkpt lat="45.7800817" lon="11.7602767"><ele>133.0</ele><time>2026-04-25T07:37:02.956Z</time></trkpt><trkpt lat="45.7802833" lon="11.7601683"><ele>134.0</ele><time>2026-04-25T07:37:03.956Z</time></trkpt><trkpt lat="45.7804867" lon="11.7600617"><ele>135.0</ele><time>2026-04-25T07:37:04.956Z</time></trkpt><trkpt lat="45.7806917" lon="11.7599533"><ele>136.0</ele><time>2026-04-25T07:37:05.956Z</time></trkpt><trkpt lat="45.7808967" lon="11.7598467"><ele>136.33333333333334</ele><time>2026-04-25T07:37:06.955Z</time></trkpt><trkpt lat="45.7810983" lon="11.7597383"><ele>136.66666666666666</ele><time>2026-04-25T07:37:07.955Z</time></trkpt><trkpt lat="45.781295" lon="11.7596317"><ele>137.0</ele><time>2026-04-25T07:37:08.955Z</time></trkpt><trkpt lat="45.7814833" lon="11.75953"><ele>137.0</ele><time>2026-04-25T07:37:09.955Z</time></trkpt><trkpt lat="45.7816733" lon="11.759425"><ele>137.0</ele><time>2026-04-25T07:37:10.956Z</time></trkpt><trkpt lat="45.781865" lon="11.7593183"><ele>137.0</ele><time>2026-04-25T07:37:11.954Z</time></trkpt><trkpt lat="45.782055" lon="11.7592033"><ele>137.33333333333331</ele><time>2026-04-25T07:37:12.956Z</time></trkpt><trkpt lat="45.7822417" lon="11.7590783"><ele>137.66666666666666</ele><time>2026-04-25T07:37:13.956Z</time></trkpt><trkpt lat="45.7824233" lon="11.7589517"><ele>138.0</ele><time>2026-04-25T07:37:14.956Z</time></trkpt><trkpt lat="45.7826" lon="11.7588183"><ele>138.33333333333334</ele><time>2026-04-25T07:37:15.956Z</time></trkpt><trkpt lat="45.7827733" lon="11.7586783"><ele>138.66666666666669</ele><time>2026-04-25T07:37:16.957Z</time></trkpt><trkpt lat="45.7829433" lon="11.7585433"><ele>139.0</ele><time>2026-04-25T07:37:17.956Z</time></trkpt><trkpt lat="45.78311" lon="11.7584067"><ele>139.33333333333334</ele><time>2026-04-25T07:37:18.956Z</time></trkpt><trkpt lat="45.783265" lon="11.7582633"><ele>139.66666666666666</ele><time>2026-04-25T07:37:19.956Z</time></trkpt><trkpt lat="45.7834033" lon="11.758125"><ele>140.0</ele><time>2026-04-25T07:37:20.956Z</time></trkpt><trkpt lat="45.783525" lon="11.7579933"><ele>140.5</ele><time>2026-04-25T07:37:21.956Z</time></trkpt><trkpt lat="45.7836333" lon="11.757875"><ele>141.0</ele><time>2026-04-25T07:37:22.957Z</time></trkpt><trkpt lat="45.7837317" lon="11.75776"><ele>141.5</ele><time>2026-04-25T07:37:23.956Z</time></trkpt><trkpt lat="45.7838267" lon="11.757665"><ele>142.0</ele><time>2026-04-25T07:37:24.957Z</time></trkpt><trkpt lat="45.78393" lon="11.75761"><ele>142.5</ele><time>2026-04-25T07:37:25.956Z</time></trkpt><trkpt lat="45.7840367" lon="11.7575917"><ele>143.0</ele><time>2026-04-25T07:37:26.956Z</time></trkpt><trkpt lat="45.78415" lon="11.7576133"><ele>143.5</ele><time>2026-04-25T07:37:27.956Z</time></trkpt><trkpt lat="45.78427" lon="11.7576733"><ele>144.0</ele><time>2026-04-25T07:37:28.955Z</time></trkpt><trkpt lat="45.7843917" lon="11.75777"><ele>144.0</ele><time>2026-04-25T07:37:29.957Z</time></trkpt><trkpt lat="45.7845117" lon="11.7578867"><ele>144.0</ele><time>2026-04-25T07:37:30.957Z</time></trkpt><trkpt lat="45.7846267" lon="11.7580067"><ele>144.0</ele><time>2026-04-25T07:37:31.954Z</time></trkpt><trkpt lat="45.78473" lon="11.7581117"><ele>144.0</ele><time>2026-04-25T07:37:32.956Z</time></trkpt><trkpt lat="45.78482" lon="11.7582"><ele>144.0</ele><time>2026-04-25T07:37:33.955Z</time></trkpt><trkpt lat="45.7848967" lon="11.7582767"><ele>144.0</ele><time>2026-04-25T07:37:34.955Z</time></trkpt><trkpt lat="45.784955" lon="11.7583417"><ele>144.0</ele><time>2026-04-25T07:37:35.956Z</time></trkpt><trkpt lat="45.7850317" lon="11.75844"><ele>144.0</ele><time>2026-04-25T07:37:37.956Z</time></trkpt><trkpt lat="45.7851017" lon="11.758535"><ele>144.0</ele><time>2026-04-25T07:37:39.958Z</time></trkpt><trkpt lat="45.7851867" lon="11.7586383"><ele>144.57142857142858</ele><time>2026-04-25T07:37:41.956Z</time></trkpt><trkpt lat="45.7852467" lon="11.7586667"><ele>145.14285714285714</ele><time>2026-04-25T07:37:42.955Z</time></trkpt><trkpt lat="45.785315" lon="11.758675"><ele>145.71428571428572</ele><time>2026-04-25T07:37:43.957Z</time></trkpt><trkpt lat="45.78538" lon="11.7586617"><ele>146.28571428571428</ele><time>2026-04-25T07:37:44.956Z</time></trkpt><trkpt lat="45.7854367" lon="11.75861"><ele>146.85714285714286</ele><time>2026-04-25T07:37:45.957Z</time></trkpt><trkpt lat="45.7854733" lon="11.7585233"><ele>147.42857142857144</ele><time>2026-04-25T07:37:46.956Z</time></trkpt><trkpt lat="45.785485" lon="11.75841"><ele>148.0</ele><time>2026-04-25T07:37:47.955Z</time></trkpt><trkpt lat="45.78549" lon="11.758285"><ele>148.0</ele><time>2026-04-25T07:37:48.955Z</time></trkpt><trkpt lat="45.7854717" lon="11.7581183"><ele>148.0</ele><time>2026-04-25T07:37:49.955Z</time></trkpt><trkpt lat="45.7854483" lon="11.7579417"><ele>148.0</ele><time>2026-04-25T07:37:50.957Z</time></trkpt><trkpt lat="45.785425" lon="11.7577533"><ele>148.0</ele><time>2026-04-25T07:37:51.955Z</time></trkpt><trkpt lat="45.7854133" lon="11.7575633"><ele>148.0</ele><time>2026-04-25T07:37:52.956Z</time></trkpt><trkpt lat="45.785415" lon="11.757365"><ele>148.0</ele><time>2026-04-25T07:37:53.955Z</time></trkpt><trkpt lat="45.78543" lon="11.757155"><ele>148.0</ele><time>2026-04-25T07:37:54.956Z</time></trkpt><trkpt lat="45.7854533" lon="11.7569417"><ele>148.0</ele><time>2026-04-25T07:37:55.957Z</time></trkpt><trkpt lat="45.7854767" lon="11.756735"><ele>148.25</ele><time>2026-04-25T07:37:56.957Z</time></trkpt><trkpt lat="45.7855033" lon="11.7565333"><ele>148.5</ele><time>2026-04-25T07:37:57.956Z</time></trkpt><trkpt lat="45.78553" lon="11.7563283"><ele>148.75</ele><time>2026-04-25T07:37:58.958Z</time></trkpt><trkpt lat="45.785565" lon="11.7561267"><ele>149.0</ele><time>2026-04-25T07:37:59.957Z</time></trkpt><trkpt lat="45.7856067" lon="11.7559333"><ele>148.5</ele><time>2026-04-25T07:38:00.958Z</time></trkpt><trkpt lat="45.7856617" lon="11.7557533"><ele>148.0</ele><time>2026-04-25T07:38:01.957Z</time></trkpt><trkpt lat="45.7857267" lon="11.7555917"><ele>147.5</ele><time>2026-04-25T07:38:02.956Z</time></trkpt><trkpt lat="45.7858017" lon="11.7554367"><ele>147.0</ele><time>2026-04-25T07:38:03.956Z</time></trkpt><trkpt lat="45.7858883" lon="11.7552883"><ele>146.25</ele><time>2026-04-25T07:38:04.956Z</time></trkpt><trkpt lat="45.7859783" lon="11.7551483"><ele>145.5</ele><time>2026-04-25T07:38:05.955Z</time></trkpt><trkpt lat="45.786065" lon="11.7550067"><ele>144.75</ele><time>2026-04-25T07:38:06.955Z</time></trkpt><trkpt lat="45.78615" lon="11.754865"><ele>144.0</ele><time>2026-04-25T07:38:07.955Z</time></trkpt><trkpt lat="45.7862333" lon="11.7547233"><ele>145.0</ele><time>2026-04-25T07:38:08.955Z</time></trkpt><trkpt lat="45.786305" lon="11.75459"><ele>146.0</ele><time>2026-04-25T07:38:09.957Z</time></trkpt><trkpt lat="45.7863683" lon="11.7544667"><ele>147.0</ele><time>2026-04-25T07:38:10.958Z</time></trkpt><trkpt lat="45.7864217" lon="11.7543633"><ele>148.0</ele><time>2026-04-25T07:38:11.957Z</time></trkpt><trkpt lat="45.78647" lon="11.7542817"><ele>149.0</ele><time>2026-04-25T07:38:12.957Z</time></trkpt><trkpt lat="45.78655" lon="11.754175"><ele>149.0</ele><time>2026-04-25T07:38:14.959Z</time></trkpt><trkpt lat="45.7866033" lon="11.7541133"><ele>149.0</ele><time>2026-04-25T07:38:17.957Z</time></trkpt><trkpt lat="45.7866967" lon="11.7541317"><ele>149.0</ele><time>2026-04-25T07:38:23.955Z</time></trkpt><trkpt lat="45.7867633" lon="11.7541783"><ele>149.0</ele><time>2026-04-25T07:38:24.956Z</time></trkpt><trkpt lat="45.78684" lon="11.75424"><ele>149.0</ele><time>2026-04-25T07:38:25.956Z</time></trkpt><trkpt lat="45.7869217" lon="11.7543017"><ele>149.0</ele><time>2026-04-25T07:38:26.955Z</time></trkpt><trkpt lat="45.7870083" lon="11.75436"><ele>149.6</ele><time>2026-04-25T07:38:27.956Z</time></trkpt><trkpt lat="45.7871033" lon="11.7544133"><ele>150.2</ele><time>2026-04-25T07:38:28.957Z</time></trkpt><trkpt lat="45.7872" lon="11.75446"><ele>150.79999999999998</ele><time>2026-04-25T07:38:29.955Z</time></trkpt><trkpt lat="45.7873067" lon="11.7544967"><ele>151.4</ele><time>2026-04-25T07:38:30.955Z</time></trkpt><trkpt lat="45.787415" lon="11.7545383"><ele>152.0</ele><time>2026-04-25T07:38:31.956Z</time></trkpt><trkpt lat="45.7875267" lon="11.7545767"><ele>152.0</ele><time>2026-04-25T07:38:32.956Z</time></trkpt><trkpt lat="45.7876367" lon="11.7546117"><ele>152.0</ele><time>2026-04-25T07:38:33.956Z</time></trkpt><trkpt lat="45.7877417" lon="11.7546433"><ele>152.0</ele><time>2026-04-25T07:38:34.955Z</time></trkpt><trkpt lat="45.78785" lon="11.7546733"><ele>152.0</ele><time>2026-04-25T07:38:35.954Z</time></trkpt><trkpt lat="45.7879567" lon="11.7547083"><ele>152.0</ele><time>2026-04-25T07:38:36.956Z</time></trkpt><trkpt lat="45.7880683" lon="11.7547483"><ele>151.75</ele><time>2026-04-25T07:38:37.955Z</time></trkpt><trkpt lat="45.788185" lon="11.7547867"><ele>151.5</ele><time>2026-04-25T07:38:38.956Z</time></trkpt><trkpt lat="45.7883067" lon="11.7548283"><ele>151.25</ele><time>2026-04-25T07:38:39.957Z</time></trkpt><trkpt lat="45.7884317" lon="11.7548683"><ele>151.0</ele><time>2026-04-25T07:38:40.957Z</time></trkpt><trkpt lat="45.7885567" lon="11.7549067"><ele>151.75</ele><time>2026-04-25T07:38:41.955Z</time></trkpt><trkpt lat="45.788685" lon="11.7549483"><ele>152.5</ele><time>2026-04-25T07:38:42.956Z</time></trkpt><trkpt lat="45.788815" lon="11.754985"><ele>153.25</ele><time>2026-04-25T07:38:43.956Z</time></trkpt><trkpt lat="45.7889417" lon="11.75502"><ele>154.0</ele><time>2026-04-25T07:38:44.956Z</time></trkpt><trkpt lat="45.7890667" lon="11.7550517"><ele>154.0</ele><time>2026-04-25T07:38:45.956Z</time></trkpt><trkpt lat="45.78919" lon="11.75508"><ele>154.0</ele><time>2026-04-25T07:38:46.956Z</time></trkpt><trkpt lat="45.7893167" lon="11.7551"><ele>154.0</ele><time>2026-04-25T07:38:47.955Z</time></trkpt><trkpt lat="45.78944" lon="11.7551183"><ele>154.0</ele><time>2026-04-25T07:38:48.956Z</time></trkpt><trkpt lat="45.7895633" lon="11.7551317"><ele>154.0</ele><time>2026-04-25T07:38:49.956Z</time></trkpt><trkpt lat="45.7896917" lon="11.7551417"><ele>154.0</ele><time>2026-04-25T07:38:50.955Z</time></trkpt><trkpt lat="45.7898183" lon="11.755155"><ele>154.0</ele><time>2026-04-25T07:38:51.956Z</time></trkpt><trkpt lat="45.789945" lon="11.7551733"><ele>154.0</ele><time>2026-04-25T07:38:52.955Z</time></trkpt><trkpt lat="45.7900733" lon="11.7551933"><ele>154.5</ele><time>2026-04-25T07:38:53.954Z</time></trkpt><trkpt lat="45.7902067" lon="11.7552233"><ele>155.0</ele><time>2026-04-25T07:38:54.954Z</time></trkpt><trkpt lat="45.7903383" lon="11.7552633"><ele>155.5</ele><time>2026-04-25T07:38:55.956Z</time></trkpt><trkpt lat="45.79047" lon="11.755315"><ele>156.0</ele><time>2026-04-25T07:38:56.955Z</time></trkpt><trkpt lat="45.7906" lon="11.7553767"><ele>156.0</ele><time>2026-04-25T07:38:57.956Z</time></trkpt><trkpt lat="45.7907283" lon="11.75544"><ele>156.0</ele><time>2026-04-25T07:38:58.957Z</time></trkpt><trkpt lat="45.7908533" lon="11.7555083"><ele>156.0</ele><time>2026-04-25T07:38:59.956Z</time></trkpt><trkpt lat="45.7909783" lon="11.755575"><ele>156.0</ele><time>2026-04-25T07:39:00.957Z</time></trkpt><trkpt lat="45.7911" lon="11.7556383"><ele>156.0</ele><time>2026-04-25T07:39:01.957Z</time></trkpt><trkpt lat="45.7912183" lon="11.7556983"><ele>156.0</ele><time>2026-04-25T07:39:02.954Z</time></trkpt><trkpt lat="45.7913367" lon="11.7557583"><ele>156.0</ele><time>2026-04-25T07:39:03.956Z</time></trkpt><trkpt lat="45.7914567" lon="11.75582"><ele>156.0</ele><time>2026-04-25T07:39:04.955Z</time></trkpt><trkpt lat="45.7915767" lon="11.7558817"><ele>156.0</ele><time>2026-04-25T07:39:05.956Z</time></trkpt><trkpt lat="45.7916933" lon="11.7559433"><ele>156.0</ele><time>2026-04-25T07:39:06.956Z</time></trkpt><trkpt lat="45.7918117" lon="11.7560067"><ele>156.0</ele><time>2026-04-25T07:39:07.957Z</time></trkpt><trkpt lat="45.7919283" lon="11.7560717"><ele>156.0</ele><time>2026-04-25T07:39:08.956Z</time></trkpt><trkpt lat="45.7920467" lon="11.756135"><ele>156.75</ele><time>2026-04-25T07:39:09.955Z</time></trkpt><trkpt lat="45.79217" lon="11.756195"><ele>157.5</ele><time>2026-04-25T07:39:10.956Z</time></trkpt><trkpt lat="45.7922933" lon="11.7562617"><ele>158.25</ele><time>2026-04-25T07:39:11.955Z</time></trkpt><trkpt lat="45.792415" lon="11.7563283"><ele>159.0</ele><time>2026-04-25T07:39:12.956Z</time></trkpt><trkpt lat="45.7925333" lon="11.7563933"><ele>159.0</ele><time>2026-04-25T07:39:13.955Z</time></trkpt><trkpt lat="45.79265" lon="11.75646"><ele>159.0</ele><time>2026-04-25T07:39:14.955Z</time></trkpt><trkpt lat="45.79276" lon="11.75652"><ele>159.0</ele><time>2026-04-25T07:39:15.957Z</time></trkpt><trkpt lat="45.7928683" lon="11.756575"><ele>159.0</ele><time>2026-04-25T07:39:16.956Z</time></trkpt><trkpt lat="45.7929733" lon="11.756625"><ele>159.25</ele><time>2026-04-25T07:39:17.955Z</time></trkpt><trkpt lat="45.79308" lon="11.7566733"><ele>159.5</ele><time>2026-04-25T07:39:18.956Z</time></trkpt><trkpt lat="45.793185" lon="11.7567233"><ele>159.75</ele><time>2026-04-25T07:39:19.956Z</time></trkpt><trkpt lat="45.7932917" lon="11.7567783"><ele>160.0</ele><time>2026-04-25T07:39:20.954Z</time></trkpt><trkpt lat="45.7934" lon="11.7568383"><ele>160.75</ele><time>2026-04-25T07:39:21.956Z</time></trkpt><trkpt lat="45.7935117" lon="11.7568983"><ele>161.5</ele><time>2026-04-25T07:39:22.956Z</time></trkpt><trkpt lat="45.79363" lon="11.7569583"><ele>162.25</ele><time>2026-04-25T07:39:23.955Z</time></trkpt><trkpt lat="45.7937467" lon="11.757015"><ele>163.0</ele><time>2026-04-25T07:39:24.956Z</time></trkpt><trkpt lat="45.7938633" lon="11.757075"><ele>163.0</ele><time>2026-04-25T07:39:25.955Z</time></trkpt><trkpt lat="45.793975" lon="11.7571367"><ele>163.0</ele><time>2026-04-25T07:39:26.955Z</time></trkpt><trkpt lat="45.7940867" lon="11.7571967"><ele>163.0</ele><time>2026-04-25T07:39:27.956Z</time></trkpt><trkpt lat="45.794195" lon="11.7572567"><ele>163.0</ele><time>2026-04-25T07:39:28.957Z</time></trkpt><trkpt lat="45.7943033" lon="11.7573133"><ele>163.5</ele><time>2026-04-25T07:39:29.956Z</time></trkpt><trkpt lat="45.7944117" lon="11.7573717"><ele>164.0</ele><time>2026-04-25T07:39:30.956Z</time></trkpt><trkpt lat="45.7945217" lon="11.7574317"><ele>164.5</ele><time>2026-04-25T07:39:31.955Z</time></trkpt><trkpt lat="45.7946317" lon="11.75749"><ele>165.0</ele><time>2026-04-25T07:39:32.956Z</time></trkpt><trkpt lat="45.794745" lon="11.7575517"><ele>165.0</ele><time>2026-04-25T07:39:33.955Z</time></trkpt><trkpt lat="45.7948617" lon="11.7576083"><ele>165.0</ele><time>2026-04-25T07:39:34.956Z</time></trkpt><trkpt lat="45.7949767" lon="11.7576667"><ele>165.0</ele><time>2026-04-25T07:39:35.956Z</time></trkpt><trkpt lat="45.7950883" lon="11.7577233"><ele>165.0</ele><time>2026-04-25T07:39:36.956Z</time></trkpt><trkpt lat="45.7951967" lon="11.7577783"><ele>165.6</ele><time>2026-04-25T07:39:37.957Z</time></trkpt><trkpt lat="45.7953033" lon="11.7578317"><ele>166.2</ele><time>2026-04-25T07:39:38.956Z</time></trkpt><trkpt lat="45.7954083" lon="11.7578817"><ele>166.8</ele><time>2026-04-25T07:39:39.955Z</time></trkpt><trkpt lat="45.7955033" lon="11.7579333"><ele>167.4</ele><time>2026-04-25T07:39:40.956Z</time></trkpt><trkpt lat="45.7955917" lon="11.75798"><ele>168.0</ele><time>2026-04-25T07:39:41.956Z</time></trkpt><trkpt lat="45.79567" lon="11.7580233"><ele>168.0</ele><time>2026-04-25T07:39:42.956Z</time></trkpt><trkpt lat="45.7957467" lon="11.75806"><ele>168.0</ele><time>2026-04-25T07:39:43.956Z</time></trkpt><trkpt lat="45.79582" lon="11.7580983"><ele>168.0</ele><time>2026-04-25T07:39:44.956Z</time></trkpt><trkpt lat="45.795885" lon="11.758135"><ele>168.0</ele><time>2026-04-25T07:39:45.956Z</time></trkpt><trkpt lat="45.7959467" lon="11.7581683"><ele>168.0</ele><time>2026-04-25T07:39:46.956Z</time></trkpt><trkpt lat="45.796045" lon="11.7582333"><ele>168.0</ele><time>2026-04-25T07:39:48.956Z</time></trkpt><trkpt lat="45.796115" lon="11.75834"><ele>168.16666666666666</ele><time>2026-04-25T07:39:50.955Z</time></trkpt><trkpt lat="45.7961583" lon="11.758415"><ele>168.33333333333334</ele><time>2026-04-25T07:39:51.955Z</time></trkpt><trkpt lat="45.7962117" lon="11.758495"><ele>168.5</ele><time>2026-04-25T07:39:52.955Z</time></trkpt><trkpt lat="45.7962733" lon="11.7585667"><ele>168.66666666666669</ele><time>2026-04-25T07:39:53.954Z</time></trkpt><trkpt lat="45.7963367" lon="11.758635"><ele>168.83333333333334</ele><time>2026-04-25T07:39:54.956Z</time></trkpt><trkpt lat="45.7963933" lon="11.758705"><ele>169.0</ele><time>2026-04-25T07:39:55.955Z</time></trkpt><trkpt lat="45.796445" lon="11.7587833"><ele>169.39999999999998</ele><time>2026-04-25T07:39:56.954Z</time></trkpt><trkpt lat="45.7965033" lon="11.7588717"><ele>169.8</ele><time>2026-04-25T07:39:57.956Z</time></trkpt><trkpt lat="45.796565" lon="11.758965"><ele>170.2</ele><time>2026-04-25T07:39:58.955Z</time></trkpt><trkpt lat="45.796635" lon="11.7590617"><ele>170.60000000000002</ele><time>2026-04-25T07:39:59.953Z</time></trkpt><trkpt lat="45.7967083" lon="11.7591667"><ele>171.0</ele><time>2026-04-25T07:40:00.955Z</time></trkpt><trkpt lat="45.7967883" lon="11.75928"><ele>171.20000000000002</ele><time>2026-04-25T07:40:01.955Z</time></trkpt><trkpt lat="45.7968683" lon="11.7593983"><ele>171.4</ele><time>2026-04-25T07:40:02.956Z</time></trkpt><trkpt lat="45.796945" lon="11.759515"><ele>171.6</ele><time>2026-04-25T07:40:03.953Z</time></trkpt><trkpt lat="45.7970217" lon="11.7596317"><ele>171.8</ele><time>2026-04-25T07:40:04.956Z</time></trkpt><trkpt lat="45.7970983" lon="11.7597467"><ele>172.0</ele><time>2026-04-25T07:40:05.954Z</time></trkpt><trkpt lat="45.797175" lon="11.7598583"><ele>172.0</ele><time>2026-04-25T07:40:06.954Z</time></trkpt><trkpt lat="45.7972433" lon="11.7599667"><ele>172.0</ele><time>2026-04-25T07:40:07.955Z</time></trkpt><trkpt lat="45.7973133" lon="11.76007"><ele>172.0</ele><time>2026-04-25T07:40:08.954Z</time></trkpt><trkpt lat="45.797385" lon="11.7601733"><ele>172.0</ele><time>2026-04-25T07:40:09.954Z</time></trkpt><trkpt lat="45.7974583" lon="11.7602833"><ele>172.0</ele><time>2026-04-25T07:40:10.955Z</time></trkpt><trkpt lat="45.7975367" lon="11.7603967"><ele>173.0</ele><time>2026-04-25T07:40:11.955Z</time></trkpt><trkpt lat="45.7976183" lon="11.760515"><ele>174.0</ele><time>2026-04-25T07:40:12.954Z</time></trkpt><trkpt lat="45.7976983" lon="11.7606383"><ele>175.0</ele><time>2026-04-25T07:40:13.954Z</time></trkpt><trkpt lat="45.7977817" lon="11.7607617"><ele>176.0</ele><time>2026-04-25T07:40:14.954Z</time></trkpt><trkpt lat="45.7978683" lon="11.7608917"><ele>176.0</ele><time>2026-04-25T07:40:15.954Z</time></trkpt><trkpt lat="45.7979583" lon="11.76103"><ele>176.0</ele><time>2026-04-25T07:40:16.955Z</time></trkpt><trkpt lat="45.7980583" lon="11.7611783"><ele>176.0</ele><time>2026-04-25T07:40:17.954Z</time></trkpt><trkpt lat="45.798165" lon="11.76133"><ele>176.0</ele><time>2026-04-25T07:40:18.955Z</time></trkpt><trkpt lat="45.79827" lon="11.76148"><ele>177.0</ele><time>2026-04-25T07:40:19.954Z</time></trkpt><trkpt lat="45.7983667" lon="11.7616283"><ele>178.0</ele><time>2026-04-25T07:40:20.954Z</time></trkpt><trkpt lat="45.7984567" lon="11.7617733"><ele>179.0</ele><time>2026-04-25T07:40:21.955Z</time></trkpt><trkpt lat="45.7985467" lon="11.761915"><ele>180.0</ele><time>2026-04-25T07:40:22.956Z</time></trkpt><trkpt lat="45.79864" lon="11.76206"><ele>181.0</ele><time>2026-04-25T07:40:23.954Z</time></trkpt><trkpt lat="45.7987433" lon="11.7622117"><ele>182.0</ele><time>2026-04-25T07:40:24.955Z</time></trkpt><trkpt lat="45.7988483" lon="11.7623617"><ele>183.0</ele><time>2026-04-25T07:40:25.956Z</time></trkpt><trkpt lat="45.798945" lon="11.7625067"><ele>184.0</ele><time>2026-04-25T07:40:26.955Z</time></trkpt><trkpt lat="45.7990433" lon="11.7626383"><ele>185.5</ele><time>2026-04-25T07:40:27.953Z</time></trkpt><trkpt lat="45.799155" lon="11.762755"><ele>187.0</ele><time>2026-04-25T07:40:28.955Z</time></trkpt><trkpt lat="45.799275" lon="11.762855"><ele>188.5</ele><time>2026-04-25T07:40:29.956Z</time></trkpt><trkpt lat="45.7994033" lon="11.7629383"><ele>190.0</ele><time>2026-04-25T07:40:30.955Z</time></trkpt><trkpt lat="45.7995383" lon="11.7630017"><ele>190.0</ele><time>2026-04-25T07:40:31.955Z</time></trkpt><trkpt lat="45.7996617" lon="11.7630567"><ele>190.0</ele><time>2026-04-25T07:40:32.955Z</time></trkpt><trkpt lat="45.7997733" lon="11.7631083"><ele>190.0</ele><time>2026-04-25T07:40:33.954Z</time></trkpt><trkpt lat="45.7998833" lon="11.76316"><ele>190.0</ele><time>2026-04-25T07:40:34.956Z</time></trkpt><trkpt lat="45.7999983" lon="11.7632133"><ele>190.0</ele><time>2026-04-25T07:40:35.954Z</time></trkpt><trkpt lat="45.800125" lon="11.7632717"><ele>190.0</ele><time>2026-04-25T07:40:36.955Z</time></trkpt><trkpt lat="45.80026" lon="11.7633317"><ele>190.0</ele><time>2026-04-25T07:40:37.954Z</time></trkpt><trkpt lat="45.800405" lon="11.7634067"><ele>190.0</ele><time>2026-04-25T07:40:38.955Z</time></trkpt><trkpt lat="45.80056" lon="11.76348"><ele>191.33333333333334</ele><time>2026-04-25T07:40:39.954Z</time></trkpt><trkpt lat="45.8007133" lon="11.7635567"><ele>192.66666666666669</ele><time>2026-04-25T07:40:40.955Z</time></trkpt><trkpt lat="45.8008583" lon="11.7636283"><ele>194.0</ele><time>2026-04-25T07:40:41.954Z</time></trkpt><trkpt lat="45.8009967" lon="11.7636967"><ele>194.75</ele><time>2026-04-25T07:40:42.955Z</time></trkpt><trkpt lat="45.801125" lon="11.7637667"><ele>195.5</ele><time>2026-04-25T07:40:43.955Z</time></trkpt><trkpt lat="45.8012467" lon="11.7638283"><ele>196.25</ele><time>2026-04-25T07:40:44.955Z</time></trkpt><trkpt lat="45.801365" lon="11.7638833"><ele>197.0</ele><time>2026-04-25T07:40:45.955Z</time></trkpt><trkpt lat="45.8014767" lon="11.7639367"><ele>197.0</ele><time>2026-04-25T07:40:46.955Z</time></trkpt><trkpt lat="45.8015883" lon="11.7639933"><ele>197.0</ele><time>2026-04-25T07:40:47.953Z</time></trkpt><trkpt lat="45.8017033" lon="11.7640583"><ele>197.0</ele><time>2026-04-25T07:40:48.954Z</time></trkpt><trkpt lat="45.8018117" lon="11.7641417"><ele>197.0</ele><time>2026-04-25T07:40:49.955Z</time></trkpt><trkpt lat="45.8019117" lon="11.7642483"><ele>198.0</ele><time>2026-04-25T07:40:50.955Z</time></trkpt><trkpt lat="45.8020033" lon="11.7643733"><ele>199.0</ele><time>2026-04-25T07:40:51.953Z</time></trkpt><trkpt lat="45.8020883" lon="11.7645067"><ele>200.0</ele><time>2026-04-25T07:40:52.955Z</time></trkpt><trkpt lat="45.8021717" lon="11.76464"><ele>201.0</ele><time>2026-04-25T07:40:53.954Z</time></trkpt><trkpt lat="45.80225" lon="11.7647667"><ele>201.0</ele><time>2026-04-25T07:40:54.955Z</time></trkpt><trkpt lat="45.80233" lon="11.76489"><ele>201.0</ele><time>2026-04-25T07:40:55.955Z</time></trkpt><trkpt lat="45.8024083" lon="11.7650133"><ele>201.0</ele><time>2026-04-25T07:40:56.955Z</time></trkpt><trkpt lat="45.802485" lon="11.76514"><ele>201.0</ele><time>2026-04-25T07:40:57.956Z</time></trkpt><trkpt lat="45.8025633" lon="11.7652683"><ele>201.5</ele><time>2026-04-25T07:40:58.956Z</time></trkpt><trkpt lat="45.80264" lon="11.7653967"><ele>202.0</ele><time>2026-04-25T07:40:59.953Z</time></trkpt><trkpt lat="45.802715" lon="11.7655283"><ele>202.5</ele><time>2026-04-25T07:41:00.955Z</time></trkpt><trkpt lat="45.8027767" lon="11.7656683"><ele>203.0</ele><time>2026-04-25T07:41:01.954Z</time></trkpt><trkpt lat="45.802815" lon="11.765815"><ele>201.0</ele><time>2026-04-25T07:41:02.954Z</time></trkpt><trkpt lat="45.8028583" lon="11.7659567"><ele>199.0</ele><time>2026-04-25T07:41:03.955Z</time></trkpt><trkpt lat="45.8028933" lon="11.7661"><ele>197.0</ele><time>2026-04-25T07:41:04.955Z</time></trkpt><trkpt lat="45.8029183" lon="11.7662533"><ele>195.0</ele><time>2026-04-25T07:41:05.954Z</time></trkpt><trkpt lat="45.8029367" lon="11.7664117"><ele>193.0</ele><time>2026-04-25T07:41:06.955Z</time></trkpt><trkpt lat="45.8029567" lon="11.76658"><ele>192.5</ele><time>2026-04-25T07:41:07.954Z</time></trkpt><trkpt lat="45.8029817" lon="11.7667633"><ele>192.0</ele><time>2026-04-25T07:41:08.955Z</time></trkpt><trkpt lat="45.803015" lon="11.76695"><ele>191.5</ele><time>2026-04-25T07:41:09.955Z</time></trkpt><trkpt lat="45.8030633" lon="11.7671417"><ele>191.0</ele><time>2026-04-25T07:41:10.954Z</time></trkpt><trkpt lat="45.8031217" lon="11.7673317"><ele>190.75</ele><time>2026-04-25T07:41:11.955Z</time></trkpt><trkpt lat="45.803185" lon="11.767515"><ele>190.5</ele><time>2026-04-25T07:41:12.953Z</time></trkpt><trkpt lat="45.8032667" lon="11.7676917"><ele>190.25</ele><time>2026-04-25T07:41:13.955Z</time></trkpt><trkpt lat="45.80335" lon="11.7678667"><ele>190.0</ele><time>2026-04-25T07:41:14.954Z</time></trkpt><trkpt lat="45.80343" lon="11.76804"><ele>189.25</ele><time>2026-04-25T07:41:15.954Z</time></trkpt><trkpt lat="45.803505" lon="11.7682117"><ele>188.5</ele><time>2026-04-25T07:41:16.955Z</time></trkpt><trkpt lat="45.8035783" lon="11.76838"><ele>187.75</ele><time>2026-04-25T07:41:17.953Z</time></trkpt><trkpt lat="45.8036483" lon="11.7685467"><ele>187.0</ele><time>2026-04-25T07:41:18.955Z</time></trkpt><trkpt lat="45.8037183" lon="11.768715"><ele>186.75</ele><time>2026-04-25T07:41:19.956Z</time></trkpt><trkpt lat="45.8037917" lon="11.7688833"><ele>186.5</ele><time>2026-04-25T07:41:20.953Z</time></trkpt><trkpt lat="45.803865" lon="11.76906"><ele>186.25</ele><time>2026-04-25T07:41:21.955Z</time></trkpt><trkpt lat="45.80394" lon="11.76924"><ele>186.0</ele><time>2026-04-25T07:41:22.955Z</time></trkpt><trkpt lat="45.8040133" lon="11.769415"><ele>185.5</ele><time>2026-04-25T07:41:23.955Z</time></trkpt><trkpt lat="45.8040833" lon="11.7695817"><ele>185.0</ele><time>2026-04-25T07:41:24.955Z</time></trkpt><trkpt lat="45.804145" lon="11.76973"><ele>184.5</ele><time>2026-04-25T07:41:25.957Z</time></trkpt><trkpt lat="45.8042017" lon="11.76987"><ele>184.0</ele><time>2026-04-25T07:41:26.955Z</time></trkpt><trkpt lat="45.804255" lon="11.7700067"><ele>184.0</ele><time>2026-04-25T07:41:27.955Z</time></trkpt><trkpt lat="45.804305" lon="11.7701383"><ele>184.0</ele><time>2026-04-25T07:41:28.955Z</time></trkpt><trkpt lat="45.8043533" lon="11.7702717"><ele>184.0</ele><time>2026-04-25T07:41:29.955Z</time></trkpt><trkpt lat="45.8044" lon="11.7704067"><ele>184.0</ele><time>2026-04-25T07:41:30.954Z</time></trkpt><trkpt lat="45.80445" lon="11.7705417"><ele>184.0</ele><time>2026-04-25T07:41:31.955Z</time></trkpt><trkpt lat="45.8044983" lon="11.7706767"><ele>183.79999999999998</ele><time>2026-04-25T07:41:32.955Z</time></trkpt><trkpt lat="45.804545" lon="11.7708167"><ele>183.6</ele><time>2026-04-25T07:41:33.955Z</time></trkpt><trkpt lat="45.8045967" lon="11.7709583"><ele>183.4</ele><time>2026-04-25T07:41:34.955Z</time></trkpt><trkpt lat="45.804645" lon="11.7710983"><ele>183.2</ele><time>2026-04-25T07:41:35.954Z</time></trkpt><trkpt lat="45.8046967" lon="11.7712333"><ele>183.0</ele><time>2026-04-25T07:41:36.954Z</time></trkpt><trkpt lat="45.8047483" lon="11.7713617"><ele>182.60000000000002</ele><time>2026-04-25T07:41:37.955Z</time></trkpt><trkpt lat="45.804795" lon="11.7714867"><ele>182.20000000000002</ele><time>2026-04-25T07:41:38.955Z</time></trkpt><trkpt lat="45.804845" lon="11.7716117"><ele>181.8</ele><time>2026-04-25T07:41:39.955Z</time></trkpt><trkpt lat="45.8048967" lon="11.7717433"><ele>181.4</ele><time>2026-04-25T07:41:40.955Z</time></trkpt><trkpt lat="45.8049483" lon="11.77188"><ele>181.0</ele><time>2026-04-25T07:41:41.955Z</time></trkpt><trkpt lat="45.8050017" lon="11.7720233"><ele>180.4</ele><time>2026-04-25T07:41:42.955Z</time></trkpt><trkpt lat="45.8050533" lon="11.7721667"><ele>179.8</ele><time>2026-04-25T07:41:43.954Z</time></trkpt><trkpt lat="45.8051" lon="11.772305"><ele>179.20000000000002</ele><time>2026-04-25T07:41:44.955Z</time></trkpt><trkpt lat="45.8051483" lon="11.7724433"><ele>178.60000000000002</ele><time>2026-04-25T07:41:45.956Z</time></trkpt><trkpt lat="45.8051933" lon="11.7725717"><ele>178.0</ele><time>2026-04-25T07:41:46.955Z</time></trkpt><trkpt lat="45.805235" lon="11.77269"><ele>177.66666666666669</ele><time>2026-04-25T07:41:47.955Z</time></trkpt><trkpt lat="45.8052717" lon="11.7728"><ele>177.33333333333334</ele><time>2026-04-25T07:41:48.955Z</time></trkpt><trkpt lat="45.8053083" lon="11.772905"><ele>177.0</ele><time>2026-04-25T07:41:49.955Z</time></trkpt><trkpt lat="45.805345" lon="11.7730083"><ele>176.66666666666666</ele><time>2026-04-25T07:41:50.954Z</time></trkpt><trkpt lat="45.8053783" lon="11.77311"><ele>176.33333333333331</ele><time>2026-04-25T07:41:51.955Z</time></trkpt><trkpt lat="45.805415" lon="11.7732067"><ele>176.0</ele><time>2026-04-25T07:41:52.955Z</time></trkpt><trkpt lat="45.80545" lon="11.7733017"><ele>176.0</ele><time>2026-04-25T07:41:53.954Z</time></trkpt><trkpt lat="45.8054833" lon="11.773395"><ele>176.0</ele><time>2026-04-25T07:41:54.954Z</time></trkpt><trkpt lat="45.805515" lon="11.7734867"><ele>176.0</ele><time>2026-04-25T07:41:55.956Z</time></trkpt><trkpt lat="45.805545" lon="11.773575"><ele>176.0</ele><time>2026-04-25T07:41:56.954Z</time></trkpt><trkpt lat="45.8055733" lon="11.77366"><ele>176.0</ele><time>2026-04-25T07:41:57.955Z</time></trkpt><trkpt lat="45.80563" lon="11.7738283"><ele>176.0</ele><time>2026-04-25T07:41:59.954Z</time></trkpt><trkpt lat="45.8056633" lon="11.77392"><ele>176.0</ele><time>2026-04-25T07:42:00.956Z</time></trkpt><trkpt lat="45.805695" lon="11.774015"><ele>176.0</ele><time>2026-04-25T07:42:01.956Z</time></trkpt><trkpt lat="45.8057317" lon="11.774115"><ele>176.0</ele><time>2026-04-25T07:42:02.955Z</time></trkpt><trkpt lat="45.805775" lon="11.77422"><ele>176.0</ele><time>2026-04-25T07:42:03.956Z</time></trkpt><trkpt lat="45.80582" lon="11.7743333"><ele>176.0</ele><time>2026-04-25T07:42:04.956Z</time></trkpt><trkpt lat="45.8058683" lon="11.7744567"><ele>176.0</ele><time>2026-04-25T07:42:05.954Z</time></trkpt><trkpt lat="45.8059183" lon="11.7745867"><ele>176.0</ele><time>2026-04-25T07:42:06.955Z</time></trkpt><trkpt lat="45.8059683" lon="11.77472"><ele>176.0</ele><time>2026-04-25T07:42:07.955Z</time></trkpt><trkpt lat="45.8060183" lon="11.7748567"><ele>176.0</ele><time>2026-04-25T07:42:08.955Z</time></trkpt><trkpt lat="45.806065" lon="11.7749933"><ele>176.0</ele><time>2026-04-25T07:42:09.954Z</time></trkpt><trkpt lat="45.80611" lon="11.7751267"><ele>176.0</ele><time>2026-04-25T07:42:10.954Z</time></trkpt><trkpt lat="45.8061517" lon="11.7752567"><ele>175.75</ele><time>2026-04-25T07:42:11.955Z</time></trkpt><trkpt lat="45.806195" lon="11.775395"><ele>175.5</ele><time>2026-04-25T07:42:12.954Z</time></trkpt><trkpt lat="45.80624" lon="11.7755467"><ele>175.25</ele><time>2026-04-25T07:42:13.955Z</time></trkpt><trkpt lat="45.806285" lon="11.7757033"><ele>175.0</ele><time>2026-04-25T07:42:14.955Z</time></trkpt><trkpt lat="45.8063333" lon="11.775865"><ele>174.75</ele><time>2026-04-25T07:42:15.955Z</time></trkpt><trkpt lat="45.806385" lon="11.7760317"><ele>174.5</ele><time>2026-04-25T07:42:16.956Z</time></trkpt><trkpt lat="45.8064417" lon="11.7762033"><ele>174.25</ele><time>2026-04-25T07:42:17.954Z</time></trkpt><trkpt lat="45.8064967" lon="11.7763733"><ele>174.0</ele><time>2026-04-25T07:42:18.955Z</time></trkpt><trkpt lat="45.80655" lon="11.7765383"><ele>174.0</ele><time>2026-04-25T07:42:19.955Z</time></trkpt><trkpt lat="45.806605" lon="11.7767033"><ele>174.0</ele><time>2026-04-25T07:42:20.955Z</time></trkpt><trkpt lat="45.80666" lon="11.7768683"><ele>174.0</ele><time>2026-04-25T07:42:21.955Z</time></trkpt><trkpt lat="45.806715" lon="11.7770383"><ele>174.0</ele><time>2026-04-25T07:42:22.955Z</time></trkpt><trkpt lat="45.80677" lon="11.777215"><ele>173.75</ele><time>2026-04-25T07:42:23.954Z</time></trkpt><trkpt lat="45.8068283" lon="11.777395"><ele>173.5</ele><time>2026-04-25T07:42:24.955Z</time></trkpt><trkpt lat="45.8068867" lon="11.7775783"><ele>173.25</ele><time>2026-04-25T07:42:25.956Z</time></trkpt><trkpt lat="45.8069467" lon="11.7777633"><ele>173.0</ele><time>2026-04-25T07:42:26.954Z</time></trkpt><trkpt lat="45.8070067" lon="11.77795"><ele>173.0</ele><time>2026-04-25T07:42:27.955Z</time></trkpt><trkpt lat="45.8070667" lon="11.7781367"><ele>173.0</ele><time>2026-04-25T07:42:28.956Z</time></trkpt><trkpt lat="45.8071267" lon="11.7783217"><ele>173.0</ele><time>2026-04-25T07:42:29.955Z</time></trkpt><trkpt lat="45.8071833" lon="11.7785017"><ele>173.0</ele><time>2026-04-25T07:42:30.955Z</time></trkpt><trkpt lat="45.80724" lon="11.77868"><ele>172.5</ele><time>2026-04-25T07:42:31.955Z</time></trkpt><trkpt lat="45.8072967" lon="11.7788583"><ele>172.0</ele><time>2026-04-25T07:42:32.956Z</time></trkpt><trkpt lat="45.8073533" lon="11.7790333"><ele>171.5</ele><time>2026-04-25T07:42:33.954Z</time></trkpt><trkpt lat="45.8074117" lon="11.7792083"><ele>171.0</ele><time>2026-04-25T07:42:34.954Z</time></trkpt><trkpt lat="45.8074683" lon="11.77938"><ele>171.0</ele><time>2026-04-25T07:42:35.955Z</time></trkpt><trkpt lat="45.807525" lon="11.7795517"><ele>171.0</ele><time>2026-04-25T07:42:36.955Z</time></trkpt><trkpt lat="45.80758" lon="11.7797183"><ele>171.0</ele><time>2026-04-25T07:42:37.955Z</time></trkpt><trkpt lat="45.807635" lon="11.7798883"><ele>171.0</ele><time>2026-04-25T07:42:38.954Z</time></trkpt><trkpt lat="45.8076883" lon="11.7800583"><ele>172.5</ele><time>2026-04-25T07:42:39.956Z</time></trkpt><trkpt lat="45.80774" lon="11.7802267"><ele>174.0</ele><time>2026-04-25T07:42:40.956Z</time></trkpt><trkpt lat="45.8077933" lon="11.7803983"><ele>175.5</ele><time>2026-04-25T07:42:41.955Z</time></trkpt><trkpt lat="45.8078467" lon="11.7805733"><ele>177.0</ele><time>2026-04-25T07:42:42.955Z</time></trkpt><trkpt lat="45.8079017" lon="11.7807533"><ele>177.0</ele><time>2026-04-25T07:42:43.955Z</time></trkpt><trkpt lat="45.8079583" lon="11.7809417"><ele>177.0</ele><time>2026-04-25T07:42:44.955Z</time></trkpt><trkpt lat="45.8080183" lon="11.7811317"><ele>177.0</ele><time>2026-04-25T07:42:45.954Z</time></trkpt><trkpt lat="45.8080817" lon="11.7813267"><ele>177.0</ele><time>2026-04-25T07:42:46.956Z</time></trkpt><trkpt lat="45.808145" lon="11.7815267"><ele>177.0</ele><time>2026-04-25T07:42:47.955Z</time></trkpt><trkpt lat="45.8082083" lon="11.7817283"><ele>177.0</ele><time>2026-04-25T07:42:48.954Z</time></trkpt><trkpt lat="45.8082733" lon="11.7819283"><ele>177.0</ele><time>2026-04-25T07:42:49.955Z</time></trkpt><trkpt lat="45.8083367" lon="11.782125"><ele>176.75</ele><time>2026-04-25T07:42:50.955Z</time></trkpt><trkpt lat="45.8083967" lon="11.78232"><ele>176.5</ele><time>2026-04-25T07:42:51.955Z</time></trkpt><trkpt lat="45.8084567" lon="11.7825133"><ele>176.25</ele><time>2026-04-25T07:42:52.956Z</time></trkpt><trkpt lat="45.808515" lon="11.7827033"><ele>176.0</ele><time>2026-04-25T07:42:53.955Z</time></trkpt><trkpt lat="45.80858" lon="11.7828933"><ele>177.0</ele><time>2026-04-25T07:42:54.955Z</time></trkpt><trkpt lat="45.80864" lon="11.783085"><ele>178.0</ele><time>2026-04-25T07:42:55.955Z</time></trkpt><trkpt lat="45.8087017" lon="11.7832783"><ele>179.0</ele><time>2026-04-25T07:42:56.956Z</time></trkpt><trkpt lat="45.808765" lon="11.7834717"><ele>180.0</ele><time>2026-04-25T07:42:57.955Z</time></trkpt><trkpt lat="45.8088317" lon="11.7836683"><ele>180.0</ele><time>2026-04-25T07:42:58.955Z</time></trkpt><trkpt lat="45.808895" lon="11.7838667"><ele>180.0</ele><time>2026-04-25T07:42:59.956Z</time></trkpt><trkpt lat="45.80896" lon="11.7840633"><ele>180.0</ele><time>2026-04-25T07:43:00.955Z</time></trkpt><trkpt lat="45.8090217" lon="11.7842583"><ele>179.5</ele><time>2026-04-25T07:43:01.955Z</time></trkpt><trkpt lat="45.8090867" lon="11.78445"><ele>179.0</ele><time>2026-04-25T07:43:02.954Z</time></trkpt><trkpt lat="45.80915" lon="11.7846433"><ele>178.5</ele><time>2026-04-25T07:43:03.955Z</time></trkpt><trkpt lat="45.80921" lon="11.7848383"><ele>178.0</ele><time>2026-04-25T07:43:04.955Z</time></trkpt><trkpt lat="45.80927" lon="11.785035"><ele>180.0</ele><time>2026-04-25T07:43:05.953Z</time></trkpt><trkpt lat="45.8093333" lon="11.7852367"><ele>182.0</ele><time>2026-04-25T07:43:06.955Z</time></trkpt><trkpt lat="45.8094" lon="11.78544"><ele>184.0</ele><time>2026-04-25T07:43:07.955Z</time></trkpt><trkpt lat="45.8094667" lon="11.785645"><ele>184.0</ele><time>2026-04-25T07:43:08.955Z</time></trkpt><trkpt lat="45.8095317" lon="11.7858483"><ele>184.0</ele><time>2026-04-25T07:43:09.955Z</time></trkpt><trkpt lat="45.809595" lon="11.7860483"><ele>184.0</ele><time>2026-04-25T07:43:10.954Z</time></trkpt><trkpt lat="45.809655" lon="11.78624"><ele>183.25</ele><time>2026-04-25T07:43:11.955Z</time></trkpt><trkpt lat="45.8097183" lon="11.78643"><ele>182.5</ele><time>2026-04-25T07:43:12.954Z</time></trkpt><trkpt lat="45.8097867" lon="11.7866183"><ele>181.75</ele><time>2026-04-25T07:43:13.955Z</time></trkpt><trkpt lat="45.80986" lon="11.786805"><ele>181.0</ele><time>2026-04-25T07:43:14.954Z</time></trkpt><trkpt lat="45.809945" lon="11.78699"><ele>181.33333333333334</ele><time>2026-04-25T07:43:15.955Z</time></trkpt><trkpt lat="45.8100433" lon="11.7871683"><ele>181.66666666666666</ele><time>2026-04-25T07:43:16.955Z</time></trkpt><trkpt lat="45.8101517" lon="11.787335"><ele>182.0</ele><time>2026-04-25T07:43:17.956Z</time></trkpt><trkpt lat="45.810265" lon="11.787485"><ele>182.0</ele><time>2026-04-25T07:43:18.954Z</time></trkpt><trkpt lat="45.81038" lon="11.7876233"><ele>182.0</ele><time>2026-04-25T07:43:19.955Z</time></trkpt><trkpt lat="45.8104983" lon="11.7877583"><ele>182.0</ele><time>2026-04-25T07:43:20.955Z</time></trkpt><trkpt lat="45.810615" lon="11.78789"><ele>181.75</ele><time>2026-04-25T07:43:21.954Z</time></trkpt><trkpt lat="45.81073" lon="11.7880233"><ele>181.5</ele><time>2026-04-25T07:43:22.955Z</time></trkpt><trkpt lat="45.8108417" lon="11.7881583"><ele>181.25</ele><time>2026-04-25T07:43:23.955Z</time></trkpt><trkpt lat="45.8109517" lon="11.7882917"><ele>181.0</ele><time>2026-04-25T07:43:24.955Z</time></trkpt><trkpt lat="45.811065" lon="11.788425"><ele>182.0</ele><time>2026-04-25T07:43:25.954Z</time></trkpt><trkpt lat="45.81118" lon="11.7885583"><ele>183.0</ele><time>2026-04-25T07:43:26.954Z</time></trkpt><trkpt lat="45.8112967" lon="11.788695"><ele>184.0</ele><time>2026-04-25T07:43:27.954Z</time></trkpt><trkpt lat="45.8114133" lon="11.7888333"><ele>184.0</ele><time>2026-04-25T07:43:28.955Z</time></trkpt><trkpt lat="45.8115283" lon="11.7889733"><ele>184.0</ele><time>2026-04-25T07:43:29.955Z</time></trkpt><trkpt lat="45.8116417" lon="11.7891083"><ele>184.0</ele><time>2026-04-25T07:43:30.955Z</time></trkpt><trkpt lat="45.8117533" lon="11.7892433"><ele>184.0</ele><time>2026-04-25T07:43:31.954Z</time></trkpt><trkpt lat="45.8118683" lon="11.78938"><ele>185.66666666666669</ele><time>2026-04-25T07:43:32.954Z</time></trkpt><trkpt lat="45.811985" lon="11.789515"><ele>187.33333333333334</ele><time>2026-04-25T07:43:33.955Z</time></trkpt><trkpt lat="45.8121017" lon="11.7896533"><ele>189.0</ele><time>2026-04-25T07:43:34.955Z</time></trkpt><trkpt lat="45.81222" lon="11.7897933"><ele>189.0</ele><time>2026-04-25T07:43:35.953Z</time></trkpt><trkpt lat="45.8123367" lon="11.7899333"><ele>189.0</ele><time>2026-04-25T07:43:36.954Z</time></trkpt><trkpt lat="45.8124567" lon="11.790075"><ele>189.0</ele><time>2026-04-25T07:43:37.955Z</time></trkpt><trkpt lat="45.8125783" lon="11.7902167"><ele>189.33333333333334</ele><time>2026-04-25T07:43:38.954Z</time></trkpt><trkpt lat="45.8127033" lon="11.7903567"><ele>189.66666666666669</ele><time>2026-04-25T07:43:39.954Z</time></trkpt><trkpt lat="45.8128317" lon="11.7904983"><ele>190.0</ele><time>2026-04-25T07:43:40.956Z</time></trkpt><trkpt lat="45.8129583" lon="11.7906483"><ele>190.0</ele><time>2026-04-25T07:43:41.953Z</time></trkpt><trkpt lat="45.81309" lon="11.7908"><ele>190.0</ele><time>2026-04-25T07:43:42.955Z</time></trkpt><trkpt lat="45.8132167" lon="11.7909517"><ele>190.0</ele><time>2026-04-25T07:43:43.958Z</time></trkpt><trkpt lat="45.8133433" lon="11.7910967"><ele>190.33333333333334</ele><time>2026-04-25T07:43:44.955Z</time></trkpt><trkpt lat="45.81347" lon="11.7912467"><ele>190.66666666666666</ele><time>2026-04-25T07:43:45.955Z</time></trkpt><trkpt lat="45.8136" lon="11.7913983"><ele>191.0</ele><time>2026-04-25T07:43:46.954Z</time></trkpt><trkpt lat="45.81373" lon="11.791555"><ele>191.0</ele><time>2026-04-25T07:43:47.955Z</time></trkpt><trkpt lat="45.813865" lon="11.79171"><ele>191.0</ele><time>2026-04-25T07:43:48.954Z</time></trkpt><trkpt lat="45.814" lon="11.7918617"><ele>191.0</ele><time>2026-04-25T07:43:49.955Z</time></trkpt><trkpt lat="45.8141367" lon="11.7920017"><ele>191.33333333333331</ele><time>2026-04-25T07:43:50.955Z</time></trkpt><trkpt lat="45.8142767" lon="11.792135"><ele>191.66666666666666</ele><time>2026-04-25T07:43:51.954Z</time></trkpt><trkpt lat="45.8144233" lon="11.792255"><ele>192.0</ele><time>2026-04-25T07:43:52.955Z</time></trkpt><trkpt lat="45.8145717" lon="11.7923683"><ele>192.0</ele><time>2026-04-25T07:43:53.955Z</time></trkpt><trkpt lat="45.8147133" lon="11.7924733"><ele>192.0</ele><time>2026-04-25T07:43:54.955Z</time></trkpt><trkpt lat="45.814845" lon="11.7925817"><ele>192.0</ele><time>2026-04-25T07:43:55.955Z</time></trkpt><trkpt lat="45.8149633" lon="11.792705"><ele>191.33333333333334</ele><time>2026-04-25T07:43:56.955Z</time></trkpt><trkpt lat="45.8150733" lon="11.7928533"><ele>190.66666666666669</ele><time>2026-04-25T07:43:57.955Z</time></trkpt><trkpt lat="45.8151717" lon="11.7930217"><ele>190.0</ele><time>2026-04-25T07:43:58.955Z</time></trkpt><trkpt lat="45.815255" lon="11.793205"><ele>190.0</ele><time>2026-04-25T07:43:59.954Z</time></trkpt><trkpt lat="45.8153217" lon="11.7933983"><ele>190.0</ele><time>2026-04-25T07:44:00.955Z</time></trkpt><trkpt lat="45.815375" lon="11.7936"><ele>190.0</ele><time>2026-04-25T07:44:01.955Z</time></trkpt><trkpt lat="45.815415" lon="11.79381"><ele>188.66666666666669</ele><time>2026-04-25T07:44:02.953Z</time></trkpt><trkpt lat="45.8154417" lon="11.7940233"><ele>187.33333333333334</ele><time>2026-04-25T07:44:03.954Z</time></trkpt><trkpt lat="45.8154583" lon="11.7942383"><ele>186.0</ele><time>2026-04-25T07:44:04.956Z</time></trkpt><trkpt lat="45.81546" lon="11.794455"><ele>186.0</ele><time>2026-04-25T07:44:05.954Z</time></trkpt><trkpt lat="45.8154533" lon="11.794675"><ele>186.0</ele><time>2026-04-25T07:44:06.955Z</time></trkpt><trkpt lat="45.8154483" lon="11.7948967"><ele>186.0</ele><time>2026-04-25T07:44:07.955Z</time></trkpt><trkpt lat="45.8154467" lon="11.7951183"><ele>185.33333333333334</ele><time>2026-04-25T07:44:08.954Z</time></trkpt><trkpt lat="45.8154483" lon="11.795345"><ele>184.66666666666669</ele><time>2026-04-25T07:44:09.954Z</time></trkpt><trkpt lat="45.8154467" lon="11.79557"><ele>184.0</ele><time>2026-04-25T07:44:10.955Z</time></trkpt><trkpt lat="45.815445" lon="11.795795"><ele>183.33333333333334</ele><time>2026-04-25T07:44:11.955Z</time></trkpt><trkpt lat="45.81544" lon="11.796025"><ele>182.66666666666666</ele><time>2026-04-25T07:44:12.954Z</time></trkpt><trkpt lat="45.8154367" lon="11.7962567"><ele>182.0</ele><time>2026-04-25T07:44:13.955Z</time></trkpt><trkpt lat="45.815435" lon="11.79649"><ele>182.0</ele><time>2026-04-25T07:44:14.955Z</time></trkpt><trkpt lat="45.815435" lon="11.7967217"><ele>182.0</ele><time>2026-04-25T07:44:15.954Z</time></trkpt><trkpt lat="45.815435" lon="11.7969583"><ele>182.0</ele><time>2026-04-25T07:44:16.956Z</time></trkpt><trkpt lat="45.815435" lon="11.797195"><ele>183.33333333333331</ele><time>2026-04-25T07:44:17.954Z</time></trkpt><trkpt lat="45.8154333" lon="11.79743"><ele>184.66666666666666</ele><time>2026-04-25T07:44:18.955Z</time></trkpt><trkpt lat="45.8154283" lon="11.7976633"><ele>186.0</ele><time>2026-04-25T07:44:19.953Z</time></trkpt><trkpt lat="45.815425" lon="11.7978933"><ele>187.33333333333334</ele><time>2026-04-25T07:44:20.956Z</time></trkpt><trkpt lat="45.8154233" lon="11.798115"><ele>188.66666666666669</ele><time>2026-04-25T07:44:21.955Z</time></trkpt><trkpt lat="45.8154217" lon="11.798335"><ele>190.0</ele><time>2026-04-25T07:44:22.956Z</time></trkpt><trkpt lat="45.8154217" lon="11.7985583"><ele>191.0</ele><time>2026-04-25T07:44:23.954Z</time></trkpt><trkpt lat="45.8154167" lon="11.798785"><ele>192.0</ele><time>2026-04-25T07:44:24.955Z</time></trkpt><trkpt lat="45.8154117" lon="11.7990133"><ele>193.0</ele><time>2026-04-25T07:44:25.955Z</time></trkpt><trkpt lat="45.8154033" lon="11.7992433"><ele>193.33333333333331</ele><time>2026-04-25T07:44:26.955Z</time></trkpt><trkpt lat="45.8154017" lon="11.7994783"><ele>193.66666666666669</ele><time>2026-04-25T07:44:27.955Z</time></trkpt><trkpt lat="45.8154" lon="11.7997067"><ele>194.0</ele><time>2026-04-25T07:44:28.957Z</time></trkpt><trkpt lat="45.8153983" lon="11.799925"><ele>194.0</ele><time>2026-04-25T07:44:29.953Z</time></trkpt><trkpt lat="45.8154" lon="11.80013"><ele>194.0</ele><time>2026-04-25T07:44:30.955Z</time></trkpt><trkpt lat="45.8154117" lon="11.80032"><ele>194.0</ele><time>2026-04-25T07:44:31.955Z</time></trkpt><trkpt lat="45.815425" lon="11.8004983"><ele>194.0</ele><time>2026-04-25T07:44:32.955Z</time></trkpt><trkpt lat="45.81544" lon="11.8006633"><ele>194.6</ele><time>2026-04-25T07:44:33.955Z</time></trkpt><trkpt lat="45.8154533" lon="11.8008217"><ele>195.2</ele><time>2026-04-25T07:44:34.956Z</time></trkpt><trkpt lat="45.815465" lon="11.8009717"><ele>195.79999999999998</ele><time>2026-04-25T07:44:35.955Z</time></trkpt><trkpt lat="45.815475" lon="11.8011217"><ele>196.39999999999998</ele><time>2026-04-25T07:44:36.955Z</time></trkpt><trkpt lat="45.815485" lon="11.801265"><ele>197.0</ele><time>2026-04-25T07:44:37.954Z</time></trkpt><trkpt lat="45.815495" lon="11.8014017"><ele>197.2</ele><time>2026-04-25T07:44:38.957Z</time></trkpt><trkpt lat="45.8155083" lon="11.8015367"><ele>197.39999999999998</ele><time>2026-04-25T07:44:39.954Z</time></trkpt><trkpt lat="45.8155217" lon="11.801675"><ele>197.60000000000002</ele><time>2026-04-25T07:44:40.956Z</time></trkpt><trkpt lat="45.8155383" lon="11.8018117"><ele>197.8</ele><time>2026-04-25T07:44:41.954Z</time></trkpt><trkpt lat="45.815555" lon="11.8019533"><ele>198.0</ele><time>2026-04-25T07:44:42.955Z</time></trkpt><trkpt lat="45.81557" lon="11.8021"><ele>198.5</ele><time>2026-04-25T07:44:43.954Z</time></trkpt><trkpt lat="45.815585" lon="11.8022533"><ele>199.0</ele><time>2026-04-25T07:44:44.955Z</time></trkpt><trkpt lat="45.8156017" lon="11.8024167"><ele>199.5</ele><time>2026-04-25T07:44:45.954Z</time></trkpt><trkpt lat="45.8156183" lon="11.8025883"><ele>200.0</ele><time>2026-04-25T07:44:46.961Z</time></trkpt><trkpt lat="45.815635" lon="11.8027567"><ele>200.25</ele><time>2026-04-25T07:44:47.956Z</time></trkpt><trkpt lat="45.8156533" lon="11.8029267"><ele>200.5</ele><time>2026-04-25T07:44:48.955Z</time></trkpt><trkpt lat="45.8156683" lon="11.8030967"><ele>200.75</ele><time>2026-04-25T07:44:49.955Z</time></trkpt><trkpt lat="45.8156867" lon="11.8032683"><ele>201.0</ele><time>2026-04-25T07:44:50.955Z</time></trkpt><trkpt lat="45.815705" lon="11.8034417"><ele>200.25</ele><time>2026-04-25T07:44:51.954Z</time></trkpt><trkpt lat="45.8157217" lon="11.8036233"><ele>199.5</ele><time>2026-04-25T07:44:52.956Z</time></trkpt><trkpt lat="45.81574" lon="11.8038133"><ele>198.75</ele><time>2026-04-25T07:44:53.954Z</time></trkpt><trkpt lat="45.8157633" lon="11.8040167"><ele>198.0</ele><time>2026-04-25T07:44:54.954Z</time></trkpt><trkpt lat="45.8157817" lon="11.80423"><ele>198.0</ele><time>2026-04-25T07:44:55.958Z</time></trkpt><trkpt lat="45.815805" lon="11.8044483"><ele>198.0</ele><time>2026-04-25T07:44:56.954Z</time></trkpt><trkpt lat="45.8158267" lon="11.8046617"><ele>198.0</ele><time>2026-04-25T07:44:57.955Z</time></trkpt><trkpt lat="45.8158467" lon="11.8048633"><ele>198.0</ele><time>2026-04-25T07:44:58.956Z</time></trkpt><trkpt lat="45.8158667" lon="11.8050533"><ele>198.5</ele><time>2026-04-25T07:44:59.955Z</time></trkpt><trkpt lat="45.8158867" lon="11.8052433"><ele>199.0</ele><time>2026-04-25T07:45:00.956Z</time></trkpt><trkpt lat="45.815905" lon="11.8054317"><ele>199.5</ele><time>2026-04-25T07:45:01.955Z</time></trkpt><trkpt lat="45.8159217" lon="11.8056117"><ele>200.0</ele><time>2026-04-25T07:45:02.954Z</time></trkpt><trkpt lat="45.8159367" lon="11.805765"><ele>200.00000000000003</ele><time>2026-04-25T07:45:03.958Z</time></trkpt><trkpt lat="45.8159467" lon="11.80589"><ele>200.0</ele><time>2026-04-25T07:45:04.957Z</time></trkpt><trkpt lat="45.8159517" lon="11.806"><ele>200.0</ele><time>2026-04-25T07:45:05.955Z</time></trkpt><trkpt lat="45.8159567" lon="11.806095"><ele>200.0</ele><time>2026-04-25T07:45:06.955Z</time></trkpt><trkpt lat="45.815955" lon="11.8062667"><ele>200.00000000000003</ele><time>2026-04-25T07:45:08.955Z</time></trkpt><trkpt lat="45.8159367" lon="11.8063567"><ele>200.0</ele><time>2026-04-25T07:45:09.954Z</time></trkpt><trkpt lat="45.8159183" lon="11.8064633"><ele>200.8</ele><time>2026-04-25T07:45:10.954Z</time></trkpt><trkpt lat="45.8159183" lon="11.8065733"><ele>201.6</ele><time>2026-04-25T07:45:11.957Z</time></trkpt><trkpt lat="45.8159367" lon="11.8066867"><ele>202.39999999999998</ele><time>2026-04-25T07:45:12.956Z</time></trkpt><trkpt lat="45.8159767" lon="11.8068033"><ele>203.2</ele><time>2026-04-25T07:45:13.957Z</time></trkpt><trkpt lat="45.8160467" lon="11.80693"><ele>204.0</ele><time>2026-04-25T07:45:14.956Z</time></trkpt><trkpt lat="45.8161083" lon="11.80708"><ele>205.0</ele><time>2026-04-25T07:45:15.956Z</time></trkpt><trkpt lat="45.8161633" lon="11.8072517"><ele>206.0</ele><time>2026-04-25T07:45:16.955Z</time></trkpt><trkpt lat="45.8162133" lon="11.8074417"><ele>207.0</ele><time>2026-04-25T07:45:17.954Z</time></trkpt><trkpt lat="45.8162617" lon="11.8076467"><ele>208.0</ele><time>2026-04-25T07:45:18.956Z</time></trkpt><trkpt lat="45.8163067" lon="11.8078583"><ele>208.0</ele><time>2026-04-25T07:45:19.957Z</time></trkpt><trkpt lat="45.8163583" lon="11.8080717"><ele>208.0</ele><time>2026-04-25T07:45:20.956Z</time></trkpt><trkpt lat="45.8164067" lon="11.80828"><ele>208.0</ele><time>2026-04-25T07:45:21.955Z</time></trkpt><trkpt lat="45.8164567" lon="11.80849"><ele>208.66666666666666</ele><time>2026-04-25T07:45:22.956Z</time></trkpt><trkpt lat="45.8165067" lon="11.8087"><ele>209.33333333333331</ele><time>2026-04-25T07:45:23.954Z</time></trkpt><trkpt lat="45.8165567" lon="11.808915"><ele>210.0</ele><time>2026-04-25T07:45:24.955Z</time></trkpt><trkpt lat="45.81661" lon="11.809135"><ele>209.66666666666669</ele><time>2026-04-25T07:45:25.956Z</time></trkpt><trkpt lat="45.8166617" lon="11.809355"><ele>209.33333333333334</ele><time>2026-04-25T07:45:26.955Z</time></trkpt><trkpt lat="45.8167167" lon="11.8095767"><ele>209.0</ele><time>2026-04-25T07:45:27.954Z</time></trkpt><trkpt lat="45.8167733" lon="11.809805"><ele>211.0</ele><time>2026-04-25T07:45:28.955Z</time></trkpt><trkpt lat="45.81683" lon="11.81003"><ele>213.0</ele><time>2026-04-25T07:45:29.955Z</time></trkpt><trkpt lat="45.8168817" lon="11.8102483"><ele>215.0</ele><time>2026-04-25T07:45:30.955Z</time></trkpt><trkpt lat="45.8169317" lon="11.8104617"><ele>215.0</ele><time>2026-04-25T07:45:31.955Z</time></trkpt><trkpt lat="45.8169817" lon="11.8106767"><ele>215.0</ele><time>2026-04-25T07:45:32.955Z</time></trkpt><trkpt lat="45.8170317" lon="11.8108917"><ele>215.0</ele><time>2026-04-25T07:45:33.959Z</time></trkpt><trkpt lat="45.8170817" lon="11.81111"><ele>215.0</ele><time>2026-04-25T07:45:34.956Z</time></trkpt><trkpt lat="45.8171333" lon="11.8113283"><ele>215.0</ele><time>2026-04-25T07:45:35.957Z</time></trkpt><trkpt lat="45.8171833" lon="11.8115433"><ele>215.0</ele><time>2026-04-25T07:45:36.957Z</time></trkpt><trkpt lat="45.8172317" lon="11.8117583"><ele>214.66666666666669</ele><time>2026-04-25T07:45:37.955Z</time></trkpt><trkpt lat="45.8172783" lon="11.81197"><ele>214.33333333333331</ele><time>2026-04-25T07:45:38.955Z</time></trkpt><trkpt lat="45.817325" lon="11.81218"><ele>214.0</ele><time>2026-04-25T07:45:39.955Z</time></trkpt><trkpt lat="45.8173733" lon="11.8123883"><ele>214.0</ele><time>2026-04-25T07:45:40.955Z</time></trkpt><trkpt lat="45.8174217" lon="11.812595"><ele>214.0</ele><time>2026-04-25T07:45:41.955Z</time></trkpt><trkpt lat="45.8174717" lon="11.8128"><ele>214.0</ele><time>2026-04-25T07:45:42.955Z</time></trkpt><trkpt lat="45.8175217" lon="11.8130067"><ele>214.0</ele><time>2026-04-25T07:45:43.955Z</time></trkpt><trkpt lat="45.8175683" lon="11.8132133"><ele>214.0</ele><time>2026-04-25T07:45:44.955Z</time></trkpt><trkpt lat="45.817615" lon="11.8134217"><ele>214.0</ele><time>2026-04-25T07:45:45.955Z</time></trkpt><trkpt lat="45.8176633" lon="11.81363"><ele>215.75</ele><time>2026-04-25T07:45:46.955Z</time></trkpt><trkpt lat="45.8177133" lon="11.813835"><ele>217.5</ele><time>2026-04-25T07:45:47.955Z</time></trkpt><trkpt lat="45.81776" lon="11.8140367"><ele>219.25</ele><time>2026-04-25T07:45:48.956Z</time></trkpt><trkpt lat="45.817805" lon="11.8142267"><ele>221.0</ele><time>2026-04-25T07:45:49.955Z</time></trkpt><trkpt lat="45.817845" lon="11.8144033"><ele>221.0</ele><time>2026-04-25T07:45:50.955Z</time></trkpt><trkpt lat="45.817885" lon="11.8145717"><ele>221.0</ele><time>2026-04-25T07:45:51.954Z</time></trkpt><trkpt lat="45.8179217" lon="11.8147317"><ele>221.0</ele><time>2026-04-25T07:45:52.955Z</time></trkpt><trkpt lat="45.8179567" lon="11.814885"><ele>221.0</ele><time>2026-04-25T07:45:53.955Z</time></trkpt><trkpt lat="45.81799" lon="11.8150367"><ele>221.0</ele><time>2026-04-25T07:45:54.955Z</time></trkpt><trkpt lat="45.8180217" lon="11.815185"><ele>221.00000000000003</ele><time>2026-04-25T07:45:55.956Z</time></trkpt><trkpt lat="45.8180533" lon="11.815335"><ele>221.00000000000003</ele><time>2026-04-25T07:45:56.954Z</time></trkpt><trkpt lat="45.8180833" lon="11.8154867"><ele>221.0</ele><time>2026-04-25T07:45:57.956Z</time></trkpt><trkpt lat="45.8181183" lon="11.815635"><ele>221.0</ele><time>2026-04-25T07:45:58.955Z</time></trkpt><trkpt lat="45.8181567" lon="11.815785"><ele>221.0</ele><time>2026-04-25T07:45:59.954Z</time></trkpt><trkpt lat="45.818205" lon="11.81594"><ele>221.0</ele><time>2026-04-25T07:46:00.953Z</time></trkpt><trkpt lat="45.81826" lon="11.8160933"><ele>221.0</ele><time>2026-04-25T07:46:01.955Z</time></trkpt><trkpt lat="45.8183183" lon="11.8162383"><ele>221.0</ele><time>2026-04-25T07:46:02.954Z</time></trkpt><trkpt lat="45.8183767" lon="11.816375"><ele>221.4</ele><time>2026-04-25T07:46:03.955Z</time></trkpt><trkpt lat="45.818435" lon="11.8165067"><ele>221.8</ele><time>2026-04-25T07:46:04.955Z</time></trkpt><trkpt lat="45.81849" lon="11.816635"><ele>222.20000000000002</ele><time>2026-04-25T07:46:05.956Z</time></trkpt><trkpt lat="45.8185467" lon="11.8167633"><ele>222.60000000000002</ele><time>2026-04-25T07:46:06.954Z</time></trkpt><trkpt lat="45.8186" lon="11.8168983"><ele>223.0</ele><time>2026-04-25T07:46:07.955Z</time></trkpt><trkpt lat="45.8186533" lon="11.817035"><ele>224.75</ele><time>2026-04-25T07:46:08.955Z</time></trkpt><trkpt lat="45.8187067" lon="11.8171733"><ele>226.5</ele><time>2026-04-25T07:46:09.959Z</time></trkpt><trkpt lat="45.818765" lon="11.8173167"><ele>228.25</ele><time>2026-04-25T07:46:10.956Z</time></trkpt><trkpt lat="45.8188267" lon="11.8174633"><ele>230.0</ele><time>2026-04-25T07:46:11.954Z</time></trkpt><trkpt lat="45.8188917" lon="11.817615"><ele>230.5</ele><time>2026-04-25T07:46:12.954Z</time></trkpt><trkpt lat="45.8189583" lon="11.8177783"><ele>231.0</ele><time>2026-04-25T07:46:13.957Z</time></trkpt><trkpt lat="45.8190317" lon="11.817955"><ele>231.5</ele><time>2026-04-25T07:46:14.955Z</time></trkpt><trkpt lat="45.8191083" lon="11.8181383"><ele>232.0</ele><time>2026-04-25T07:46:15.955Z</time></trkpt><trkpt lat="45.8191883" lon="11.8183217"><ele>232.75</ele><time>2026-04-25T07:46:16.955Z</time></trkpt><trkpt lat="45.819265" lon="11.8185017"><ele>233.5</ele><time>2026-04-25T07:46:17.955Z</time></trkpt><trkpt lat="45.8193333" lon="11.818675"><ele>234.25</ele><time>2026-04-25T07:46:18.955Z</time></trkpt><trkpt lat="45.8193983" lon="11.81883"><ele>235.0</ele><time>2026-04-25T07:46:19.955Z</time></trkpt><trkpt lat="45.8194567" lon="11.8189683"><ele>235.4</ele><time>2026-04-25T07:46:20.954Z</time></trkpt><trkpt lat="45.8195117" lon="11.8190917"><ele>235.8</ele><time>2026-04-25T07:46:21.954Z</time></trkpt><trkpt lat="45.819565" lon="11.8192067"><ele>236.2</ele><time>2026-04-25T07:46:22.956Z</time></trkpt><trkpt lat="45.8196133" lon="11.819325"><ele>236.6</ele><time>2026-04-25T07:46:23.955Z</time></trkpt><trkpt lat="45.8196633" lon="11.8194417"><ele>237.0</ele><time>2026-04-25T07:46:24.955Z</time></trkpt><trkpt lat="45.819705" lon="11.8195717"><ele>237.75</ele><time>2026-04-25T07:46:25.955Z</time></trkpt><trkpt lat="45.8197433" lon="11.819725"><ele>238.5</ele><time>2026-04-25T07:46:26.954Z</time></trkpt><trkpt lat="45.8197767" lon="11.8199033"><ele>239.25</ele><time>2026-04-25T07:46:27.954Z</time></trkpt><trkpt lat="45.819805" lon="11.8200917"><ele>240.0</ele><time>2026-04-25T07:46:28.954Z</time></trkpt><trkpt lat="45.8198333" lon="11.8202817"><ele>240.75</ele><time>2026-04-25T07:46:29.955Z</time></trkpt><trkpt lat="45.819865" lon="11.8204767"><ele>241.5</ele><time>2026-04-25T07:46:30.954Z</time></trkpt><trkpt lat="45.8199" lon="11.8206783"><ele>242.25</ele><time>2026-04-25T07:46:31.956Z</time></trkpt><trkpt lat="45.8199367" lon="11.8208817"><ele>243.0</ele><time>2026-04-25T07:46:32.954Z</time></trkpt><trkpt lat="45.81997" lon="11.8210817"><ele>243.0</ele><time>2026-04-25T07:46:33.954Z</time></trkpt><trkpt lat="45.8200033" lon="11.8212767"><ele>243.0</ele><time>2026-04-25T07:46:34.954Z</time></trkpt><trkpt lat="45.8200333" lon="11.8214567"><ele>243.0</ele><time>2026-04-25T07:46:35.955Z</time></trkpt><trkpt lat="45.8200633" lon="11.8216367"><ele>243.0</ele><time>2026-04-25T07:46:36.954Z</time></trkpt><trkpt lat="45.820095" lon="11.821825"><ele>243.0</ele><time>2026-04-25T07:46:37.956Z</time></trkpt><trkpt lat="45.820135" lon="11.8220133"><ele>243.0</ele><time>2026-04-25T07:46:38.955Z</time></trkpt><trkpt lat="45.820175" lon="11.8222083"><ele>243.0</ele><time>2026-04-25T07:46:39.954Z</time></trkpt><trkpt lat="45.8202183" lon="11.82241"><ele>243.0</ele><time>2026-04-25T07:46:40.954Z</time></trkpt><trkpt lat="45.8202633" lon="11.822615"><ele>245.33333333333331</ele><time>2026-04-25T07:46:41.955Z</time></trkpt><trkpt lat="45.82031" lon="11.8228183"><ele>247.66666666666666</ele><time>2026-04-25T07:46:42.955Z</time></trkpt><trkpt lat="45.8203583" lon="11.8230283"><ele>250.0</ele><time>2026-04-25T07:46:43.954Z</time></trkpt><trkpt lat="45.820405" lon="11.82324"><ele>250.0</ele><time>2026-04-25T07:46:44.955Z</time></trkpt><trkpt lat="45.8204483" lon="11.8234417"><ele>250.0</ele><time>2026-04-25T07:46:45.956Z</time></trkpt><trkpt lat="45.8204917" lon="11.8236383"><ele>250.0</ele><time>2026-04-25T07:46:46.955Z</time></trkpt><trkpt lat="45.8205283" lon="11.8238417"><ele>250.0</ele><time>2026-04-25T07:46:47.955Z</time></trkpt><trkpt lat="45.82057" lon="11.8240483"><ele>250.0</ele><time>2026-04-25T07:46:48.955Z</time></trkpt><trkpt lat="45.8206133" lon="11.8242567"><ele>250.0</ele><time>2026-04-25T07:46:49.955Z</time></trkpt><trkpt lat="45.82066" lon="11.8244683"><ele>250.0</ele><time>2026-04-25T07:46:50.955Z</time></trkpt><trkpt lat="45.8207083" lon="11.82469"><ele>249.66666666666666</ele><time>2026-04-25T07:46:51.956Z</time></trkpt><trkpt lat="45.8207617" lon="11.8249167"><ele>249.33333333333331</ele><time>2026-04-25T07:46:52.956Z</time></trkpt><trkpt lat="45.820815" lon="11.8251483"><ele>249.0</ele><time>2026-04-25T07:46:53.954Z</time></trkpt><trkpt lat="45.820865" lon="11.82538"><ele>250.0</ele><time>2026-04-25T07:46:54.955Z</time></trkpt><trkpt lat="45.8209167" lon="11.8256083"><ele>251.0</ele><time>2026-04-25T07:46:55.956Z</time></trkpt><trkpt lat="45.8209717" lon="11.8258383"><ele>252.0</ele><time>2026-04-25T07:46:56.956Z</time></trkpt><trkpt lat="45.8210267" lon="11.826065"><ele>253.66666666666669</ele><time>2026-04-25T07:46:57.955Z</time></trkpt><trkpt lat="45.8210783" lon="11.8262817"><ele>255.33333333333334</ele><time>2026-04-25T07:46:58.955Z</time></trkpt><trkpt lat="45.8211283" lon="11.8264817"><ele>257.0</ele><time>2026-04-25T07:46:59.955Z</time></trkpt><trkpt lat="45.8211767" lon="11.8266783"><ele>257.5</ele><time>2026-04-25T07:47:00.955Z</time></trkpt><trkpt lat="45.8212267" lon="11.8268767"><ele>258.0</ele><time>2026-04-25T07:47:01.955Z</time></trkpt><trkpt lat="45.821275" lon="11.8270733"><ele>258.5</ele><time>2026-04-25T07:47:02.955Z</time></trkpt><trkpt lat="45.8213233" lon="11.82727"><ele>259.0</ele><time>2026-04-25T07:47:03.956Z</time></trkpt><trkpt lat="45.82137" lon="11.8274617"><ele>259.0</ele><time>2026-04-25T07:47:04.955Z</time></trkpt><trkpt lat="45.8214167" lon="11.8276417"><ele>259.0</ele><time>2026-04-25T07:47:05.955Z</time></trkpt><trkpt lat="45.82146" lon="11.8278083"><ele>259.0</ele><time>2026-04-25T07:47:06.957Z</time></trkpt><trkpt lat="45.8215017" lon="11.8279683"><ele>259.0</ele><time>2026-04-25T07:47:07.958Z</time></trkpt><trkpt lat="45.821545" lon="11.8281283"><ele>259.25</ele><time>2026-04-25T07:47:08.955Z</time></trkpt><trkpt lat="45.8215883" lon="11.82829"><ele>259.5</ele><time>2026-04-25T07:47:09.955Z</time></trkpt><trkpt lat="45.8216283" lon="11.82845"><ele>259.75</ele><time>2026-04-25T07:47:10.955Z</time></trkpt><trkpt lat="45.8216633" lon="11.8286"><ele>260.0</ele><time>2026-04-25T07:47:11.955Z</time></trkpt><trkpt lat="45.8216967" lon="11.8287383"><ele>260.0</ele><time>2026-04-25T07:47:12.955Z</time></trkpt><trkpt lat="45.8217217" lon="11.8288667"><ele>260.0</ele><time>2026-04-25T07:47:13.955Z</time></trkpt><trkpt lat="45.8217383" lon="11.82898"><ele>260.0</ele><time>2026-04-25T07:47:14.954Z</time></trkpt><trkpt lat="45.82174" lon="11.8290783"><ele>260.0</ele><time>2026-04-25T07:47:15.955Z</time></trkpt><trkpt lat="45.82169" lon="11.8292467"><ele>260.0</ele><time>2026-04-25T07:47:17.955Z</time></trkpt><trkpt lat="45.8216433" lon="11.82934"><ele>260.1666666666667</ele><time>2026-04-25T07:47:18.96Z</time></trkpt><trkpt lat="45.821615" lon="11.829445"><ele>260.33333333333337</ele><time>2026-04-25T07:47:19.955Z</time></trkpt><trkpt lat="45.8216117" lon="11.8295467"><ele>260.5</ele><time>2026-04-25T07:47:20.955Z</time></trkpt><trkpt lat="45.8216417" lon="11.8296367"><ele>260.6666666666667</ele><time>2026-04-25T07:47:21.956Z</time></trkpt><trkpt lat="45.8217167" lon="11.8296883"><ele>260.8333333333333</ele><time>2026-04-25T07:47:22.957Z</time></trkpt><trkpt lat="45.821805" lon="11.82972"><ele>261.0</ele><time>2026-04-25T07:47:23.956Z</time></trkpt><trkpt lat="45.8218933" lon="11.82976"><ele>261.6</ele><time>2026-04-25T07:47:24.955Z</time></trkpt><trkpt lat="45.8219867" lon="11.8298217"><ele>262.20000000000005</ele><time>2026-04-25T07:47:25.957Z</time></trkpt><trkpt lat="45.822075" lon="11.8299117"><ele>262.79999999999995</ele><time>2026-04-25T07:47:26.956Z</time></trkpt><trkpt lat="45.8221567" lon="11.8300183"><ele>263.4</ele><time>2026-04-25T07:47:27.955Z</time></trkpt><trkpt lat="45.8222317" lon="11.8301467"><ele>264.0</ele><time>2026-04-25T07:47:28.956Z</time></trkpt><trkpt lat="45.8223017" lon="11.8302817"><ele>264.25</ele><time>2026-04-25T07:47:29.955Z</time></trkpt><trkpt lat="45.8223683" lon="11.8304167"><ele>264.5</ele><time>2026-04-25T07:47:30.955Z</time></trkpt><trkpt lat="45.8224433" lon="11.830555"><ele>264.75</ele><time>2026-04-25T07:47:31.956Z</time></trkpt><trkpt lat="45.8225183" lon="11.8306967"><ele>265.0</ele><time>2026-04-25T07:47:32.956Z</time></trkpt><trkpt lat="45.82259" lon="11.8308333"><ele>265.75</ele><time>2026-04-25T07:47:33.956Z</time></trkpt><trkpt lat="45.8226617" lon="11.8309667"><ele>266.5</ele><time>2026-04-25T07:47:34.956Z</time></trkpt><trkpt lat="45.822735" lon="11.8310983"><ele>267.25</ele><time>2026-04-25T07:47:35.954Z</time></trkpt><trkpt lat="45.8228083" lon="11.8312283"><ele>268.0</ele><time>2026-04-25T07:47:36.954Z</time></trkpt><trkpt lat="45.82288" lon="11.8313633"><ele>268.5</ele><time>2026-04-25T07:47:37.956Z</time></trkpt><trkpt lat="45.8229483" lon="11.8314983"><ele>269.0</ele><time>2026-04-25T07:47:38.954Z</time></trkpt><trkpt lat="45.82302" lon="11.83163"><ele>269.5</ele><time>2026-04-25T07:47:39.955Z</time></trkpt><trkpt lat="45.8230967" lon="11.831765"><ele>270.0</ele><time>2026-04-25T07:47:40.956Z</time></trkpt><trkpt lat="45.8231717" lon="11.8319083"><ele>270.0</ele><time>2026-04-25T07:47:41.954Z</time></trkpt><trkpt lat="45.8232483" lon="11.8320567"><ele>270.0</ele><time>2026-04-25T07:47:42.955Z</time></trkpt><trkpt lat="45.8233283" lon="11.8322067"><ele>270.0</ele><time>2026-04-25T07:47:43.955Z</time></trkpt><trkpt lat="45.8234083" lon="11.8323483"><ele>270.0</ele><time>2026-04-25T07:47:44.955Z</time></trkpt><trkpt lat="45.82348" lon="11.832475"><ele>270.6</ele><time>2026-04-25T07:47:45.956Z</time></trkpt><trkpt lat="45.8235467" lon="11.8325833"><ele>271.2</ele><time>2026-04-25T07:47:46.956Z</time></trkpt><trkpt lat="45.8236117" lon="11.83268"><ele>271.8</ele><time>2026-04-25T07:47:47.955Z</time></trkpt><trkpt lat="45.8236717" lon="11.8327667"><ele>272.4</ele><time>2026-04-25T07:47:48.956Z</time></trkpt><trkpt lat="45.8237383" lon="11.8328517"><ele>273.0</ele><time>2026-04-25T07:47:49.955Z</time></trkpt><trkpt lat="45.823815" lon="11.83294"><ele>273.0</ele><time>2026-04-25T07:47:50.956Z</time></trkpt><trkpt lat="45.8239083" lon="11.83304"><ele>273.0</ele><time>2026-04-25T07:47:51.957Z</time></trkpt><trkpt lat="45.82401" lon="11.8331517"><ele>273.0</ele><time>2026-04-25T07:47:52.957Z</time></trkpt><trkpt lat="45.8241233" lon="11.83327"><ele>273.0</ele><time>2026-04-25T07:47:53.956Z</time></trkpt><trkpt lat="45.8242367" lon="11.8333933"><ele>274.25</ele><time>2026-04-25T07:47:54.957Z</time></trkpt><trkpt lat="45.82435" lon="11.8335167"><ele>275.5</ele><time>2026-04-25T07:47:55.957Z</time></trkpt><trkpt lat="45.82446" lon="11.8336333"><ele>276.75</ele><time>2026-04-25T07:47:56.956Z</time></trkpt><trkpt lat="45.8245633" lon="11.83374"><ele>278.0</ele><time>2026-04-25T07:47:57.954Z</time></trkpt><trkpt lat="45.8246633" lon="11.833845"><ele>278.0</ele><time>2026-04-25T07:47:58.956Z</time></trkpt><trkpt lat="45.8247617" lon="11.83395"><ele>278.0</ele><time>2026-04-25T07:47:59.955Z</time></trkpt><trkpt lat="45.82486" lon="11.834055"><ele>278.0</ele><time>2026-04-25T07:48:00.955Z</time></trkpt><trkpt lat="45.8249617" lon="11.83416"><ele>278.0</ele><time>2026-04-25T07:48:01.954Z</time></trkpt><trkpt lat="45.82506" lon="11.8342717"><ele>279.25</ele><time>2026-04-25T07:48:02.955Z</time></trkpt><trkpt lat="45.8251617" lon="11.834385"><ele>280.5</ele><time>2026-04-25T07:48:03.955Z</time></trkpt><trkpt lat="45.8252667" lon="11.834495"><ele>281.75</ele><time>2026-04-25T07:48:04.957Z</time></trkpt><trkpt lat="45.8253767" lon="11.834605"><ele>283.0</ele><time>2026-04-25T07:48:05.955Z</time></trkpt><trkpt lat="45.8254833" lon="11.8347217"><ele>283.0</ele><time>2026-04-25T07:48:06.955Z</time></trkpt><trkpt lat="45.8255883" lon="11.834835"><ele>283.0</ele><time>2026-04-25T07:48:07.956Z</time></trkpt><trkpt lat="45.82569" lon="11.8349417"><ele>283.0</ele><time>2026-04-25T07:48:08.955Z</time></trkpt><trkpt lat="45.8257833" lon="11.835045"><ele>283.0</ele><time>2026-04-25T07:48:09.954Z</time></trkpt><trkpt lat="45.8258733" lon="11.83514"><ele>282.4</ele><time>2026-04-25T07:48:10.957Z</time></trkpt><trkpt lat="45.82596" lon="11.83523"><ele>281.8</ele><time>2026-04-25T07:48:11.955Z</time></trkpt><trkpt lat="45.82604" lon="11.8353183"><ele>281.2</ele><time>2026-04-25T07:48:12.956Z</time></trkpt><trkpt lat="45.8261167" lon="11.8354017"><ele>280.6</ele><time>2026-04-25T07:48:13.956Z</time></trkpt><trkpt lat="45.8261917" lon="11.8354867"><ele>280.0</ele><time>2026-04-25T07:48:14.953Z</time></trkpt><trkpt lat="45.826265" lon="11.8355733"><ele>281.0</ele><time>2026-04-25T07:48:15.954Z</time></trkpt><trkpt lat="45.8263317" lon="11.8356667"><ele>282.0</ele><time>2026-04-25T07:48:16.956Z</time></trkpt><trkpt lat="45.8263933" lon="11.835775"><ele>283.0</ele><time>2026-04-25T07:48:17.955Z</time></trkpt><trkpt lat="45.8264467" lon="11.835905"><ele>284.0</ele><time>2026-04-25T07:48:18.956Z</time></trkpt><trkpt lat="45.8264967" lon="11.83607"><ele>285.0</ele><time>2026-04-25T07:48:19.956Z</time></trkpt><trkpt lat="45.8265433" lon="11.8362533"><ele>285.0</ele><time>2026-04-25T07:48:20.954Z</time></trkpt><trkpt lat="45.8265783" lon="11.836435"><ele>285.0</ele><time>2026-04-25T07:48:21.957Z</time></trkpt><trkpt lat="45.82661" lon="11.83661"><ele>285.0</ele><time>2026-04-25T07:48:22.955Z</time></trkpt><trkpt lat="45.8266417" lon="11.8367733"><ele>285.0</ele><time>2026-04-25T07:48:23.955Z</time></trkpt><trkpt lat="45.8266733" lon="11.836925"><ele>285.0</ele><time>2026-04-25T07:48:24.955Z</time></trkpt><trkpt lat="45.8267" lon="11.8370683"><ele>285.0</ele><time>2026-04-25T07:48:25.955Z</time></trkpt><trkpt lat="45.8267233" lon="11.8372"><ele>285.0</ele><time>2026-04-25T07:48:26.954Z</time></trkpt><trkpt lat="45.8267483" lon="11.8373183"><ele>285.0</ele><time>2026-04-25T07:48:27.956Z</time></trkpt><trkpt lat="45.82677" lon="11.8374167"><ele>285.0</ele><time>2026-04-25T07:48:28.955Z</time></trkpt><trkpt lat="45.8268017" lon="11.8375467"><ele>286.6666666666667</ele><time>2026-04-25T07:48:30.956Z</time></trkpt><trkpt lat="45.82684" lon="11.8377067"><ele>288.3333333333333</ele><time>2026-04-25T07:49:40.954Z</time></trkpt><trkpt lat="45.826855" lon="11.8378533"><ele>290.0</ele><time>2026-04-25T07:49:42.954Z</time></trkpt><trkpt lat="45.8268683" lon="11.8379533"><ele>291.66666666666663</ele><time>2026-04-25T07:49:43.954Z</time></trkpt><trkpt lat="45.8268833" lon="11.8380633"><ele>293.3333333333333</ele><time>2026-04-25T07:49:44.954Z</time></trkpt><trkpt lat="45.8269067" lon="11.83817"><ele>295.0</ele><time>2026-04-25T07:49:45.955Z</time></trkpt><trkpt lat="45.826935" lon="11.8382767"><ele>295.0</ele><time>2026-04-25T07:49:46.956Z</time></trkpt><trkpt lat="45.826965" lon="11.83839"><ele>295.0</ele><time>2026-04-25T07:49:47.955Z</time></trkpt><trkpt lat="45.8269983" lon="11.8385117"><ele>295.0</ele><time>2026-04-25T07:49:48.954Z</time></trkpt><trkpt lat="45.82703" lon="11.8386433"><ele>295.0</ele><time>2026-04-25T07:49:49.955Z</time></trkpt><trkpt lat="45.8270583" lon="11.83878"><ele>295.0</ele><time>2026-04-25T07:49:50.955Z</time></trkpt><trkpt lat="45.8270883" lon="11.8389183"><ele>294.6</ele><time>2026-04-25T07:49:51.955Z</time></trkpt><trkpt lat="45.8271233" lon="11.8390683"><ele>294.2</ele><time>2026-04-25T07:49:52.955Z</time></trkpt><trkpt lat="45.8271617" lon="11.8392267"><ele>293.8</ele><time>2026-04-25T07:49:53.955Z</time></trkpt><trkpt lat="45.827195" lon="11.8393733"><ele>293.4</ele><time>2026-04-25T07:49:54.955Z</time></trkpt><trkpt lat="45.8272233" lon="11.83951"><ele>293.0</ele><time>2026-04-25T07:49:55.955Z</time></trkpt><trkpt lat="45.8272517" lon="11.8396383"><ele>293.0</ele><time>2026-04-25T07:49:56.955Z</time></trkpt><trkpt lat="45.8272783" lon="11.83976"><ele>293.0</ele><time>2026-04-25T07:49:57.955Z</time></trkpt><trkpt lat="45.8273083" lon="11.8398783"><ele>293.0</ele><time>2026-04-25T07:49:58.955Z</time></trkpt><trkpt lat="45.8273567" lon="11.8399917"><ele>293.0</ele><time>2026-04-25T07:49:59.956Z</time></trkpt><trkpt lat="45.8274283" lon="11.8400683"><ele>293.0</ele><time>2026-04-25T07:50:00.955Z</time></trkpt><trkpt lat="45.8275033" lon="11.8401233"><ele>293.0</ele><time>2026-04-25T07:50:01.955Z</time></trkpt><trkpt lat="45.827595" lon="11.84016"><ele>293.6</ele><time>2026-04-25T07:50:02.954Z</time></trkpt><trkpt lat="45.8276983" lon="11.840175"><ele>294.20000000000005</ele><time>2026-04-25T07:50:03.955Z</time></trkpt><trkpt lat="45.8278083" lon="11.8401667"><ele>294.8</ele><time>2026-04-25T07:50:04.955Z</time></trkpt><trkpt lat="45.8279117" lon="11.84014"><ele>295.40000000000003</ele><time>2026-04-25T07:50:05.955Z</time></trkpt><trkpt lat="45.828015" lon="11.840115"><ele>296.0</ele><time>2026-04-25T07:50:06.954Z</time></trkpt><trkpt lat="45.8281133" lon="11.8400867"><ele>296.0</ele><time>2026-04-25T07:50:07.956Z</time></trkpt><trkpt lat="45.8282083" lon="11.84006"><ele>296.0</ele><time>2026-04-25T07:50:08.955Z</time></trkpt><trkpt lat="45.8283033" lon="11.8400383"><ele>296.0</ele><time>2026-04-25T07:50:09.956Z</time></trkpt><trkpt lat="45.8283917" lon="11.840015"><ele>296.0</ele><time>2026-04-25T07:50:10.955Z</time></trkpt><trkpt lat="45.8284683" lon="11.8400017"><ele>296.0</ele><time>2026-04-25T07:50:11.955Z</time></trkpt><trkpt lat="45.8285467" lon="11.839995"><ele>296.0</ele><time>2026-04-25T07:50:12.955Z</time></trkpt><trkpt lat="45.82862" lon="11.8399917"><ele>296.5</ele><time>2026-04-25T07:50:13.955Z</time></trkpt><trkpt lat="45.828695" lon="11.840015"><ele>297.0</ele><time>2026-04-25T07:50:14.954Z</time></trkpt><trkpt lat="45.828765" lon="11.840065"><ele>297.5</ele><time>2026-04-25T07:50:15.955Z</time></trkpt><trkpt lat="45.828825" lon="11.8401567"><ele>298.0</ele><time>2026-04-25T07:50:16.954Z</time></trkpt><trkpt lat="45.8288733" lon="11.8402633"><ele>298.5</ele><time>2026-04-25T07:50:17.954Z</time></trkpt><trkpt lat="45.8289083" lon="11.840385"><ele>299.0</ele><time>2026-04-25T07:50:18.955Z</time></trkpt><trkpt lat="45.82894" lon="11.84051"><ele>299.2</ele><time>2026-04-25T07:50:19.955Z</time></trkpt><trkpt lat="45.8289633" lon="11.8406367"><ele>299.4</ele><time>2026-04-25T07:50:20.955Z</time></trkpt><trkpt lat="45.828985" lon="11.84076"><ele>299.6</ele><time>2026-04-25T07:50:21.955Z</time></trkpt><trkpt lat="45.8290117" lon="11.8408833"><ele>299.8</ele><time>2026-04-25T07:50:22.956Z</time></trkpt><trkpt lat="45.8290383" lon="11.8410117"><ele>300.0</ele><time>2026-04-25T07:50:23.954Z</time></trkpt><trkpt lat="45.8290683" lon="11.8411367"><ele>300.0</ele><time>2026-04-25T07:50:24.954Z</time></trkpt><trkpt lat="45.829095" lon="11.8412633"><ele>300.0</ele><time>2026-04-25T07:50:25.955Z</time></trkpt><trkpt lat="45.8291233" lon="11.8413883"><ele>300.0</ele><time>2026-04-25T07:50:26.955Z</time></trkpt><trkpt lat="45.8291533" lon="11.8415083"><ele>300.0</ele><time>2026-04-25T07:50:27.954Z</time></trkpt><trkpt lat="45.8291967" lon="11.8416167"><ele>300.0</ele><time>2026-04-25T07:50:28.954Z</time></trkpt><trkpt lat="45.82925" lon="11.841705"><ele>300.0</ele><time>2026-04-25T07:50:29.955Z</time></trkpt><trkpt lat="45.8293283" lon="11.8417567"><ele>299.2</ele><time>2026-04-25T07:50:30.955Z</time></trkpt><trkpt lat="45.829425" lon="11.8417417"><ele>298.4</ele><time>2026-04-25T07:50:31.96Z</time></trkpt><trkpt lat="45.82952" lon="11.8417033"><ele>297.6</ele><time>2026-04-25T07:50:32.954Z</time></trkpt><trkpt lat="45.8296083" lon="11.841645"><ele>296.8</ele><time>2026-04-25T07:50:33.954Z</time></trkpt><trkpt lat="45.8296667" lon="11.8415267"><ele>296.0</ele><time>2026-04-25T07:50:34.954Z</time></trkpt><trkpt lat="45.82971" lon="11.8413783"><ele>296.0</ele><time>2026-04-25T07:50:35.955Z</time></trkpt><trkpt lat="45.82974" lon="11.8412033"><ele>296.0</ele><time>2026-04-25T07:50:36.955Z</time></trkpt><trkpt lat="45.8297583" lon="11.8410267"><ele>296.0</ele><time>2026-04-25T07:50:37.955Z</time></trkpt><trkpt lat="45.8297667" lon="11.8408517"><ele>296.0</ele><time>2026-04-25T07:50:38.955Z</time></trkpt><trkpt lat="45.8297733" lon="11.840685"><ele>296.25</ele><time>2026-04-25T07:50:39.955Z</time></trkpt><trkpt lat="45.8297817" lon="11.84052"><ele>296.5</ele><time>2026-04-25T07:50:40.956Z</time></trkpt><trkpt lat="45.829785" lon="11.8403483"><ele>296.75</ele><time>2026-04-25T07:50:41.955Z</time></trkpt><trkpt lat="45.8297933" lon="11.84018"><ele>297.0</ele><time>2026-04-25T07:50:42.954Z</time></trkpt><trkpt lat="45.8298067" lon="11.840005"><ele>297.0</ele><time>2026-04-25T07:50:43.956Z</time></trkpt><trkpt lat="45.8298317" lon="11.8398317"><ele>297.0</ele><time>2026-04-25T07:50:44.955Z</time></trkpt><trkpt lat="45.8298633" lon="11.8396533"><ele>297.0</ele><time>2026-04-25T07:50:45.955Z</time></trkpt><trkpt lat="45.8299" lon="11.839475"><ele>297.0</ele><time>2026-04-25T07:50:46.954Z</time></trkpt><trkpt lat="45.8299333" lon="11.8392933"><ele>297.5</ele><time>2026-04-25T07:50:47.955Z</time></trkpt><trkpt lat="45.8299667" lon="11.83912"><ele>298.0</ele><time>2026-04-25T07:50:48.955Z</time></trkpt><trkpt lat="45.8299967" lon="11.838955"><ele>298.5</ele><time>2026-04-25T07:50:49.953Z</time></trkpt><trkpt lat="45.83003" lon="11.8387983"><ele>299.0</ele><time>2026-04-25T07:50:50.955Z</time></trkpt><trkpt lat="45.830065" lon="11.8386517"><ele>299.0</ele><time>2026-04-25T07:50:51.955Z</time></trkpt><trkpt lat="45.8301083" lon="11.838515"><ele>299.0</ele><time>2026-04-25T07:50:52.955Z</time></trkpt><trkpt lat="45.8301617" lon="11.83839"><ele>299.0</ele><time>2026-04-25T07:50:53.955Z</time></trkpt><trkpt lat="45.8302467" lon="11.8382933"><ele>299.0</ele><time>2026-04-25T07:50:54.954Z</time></trkpt><trkpt lat="45.83035" lon="11.8382383"><ele>299.0</ele><time>2026-04-25T07:50:55.955Z</time></trkpt><trkpt lat="45.8304583" lon="11.83823"><ele>300.25</ele><time>2026-04-25T07:50:56.955Z</time></trkpt><trkpt lat="45.8305683" lon="11.8382883"><ele>301.5</ele><time>2026-04-25T07:50:57.955Z</time></trkpt><trkpt lat="45.83067" lon="11.8383983"><ele>302.75</ele><time>2026-04-25T07:50:58.955Z</time></trkpt><trkpt lat="45.830765" lon="11.8385383"><ele>304.0</ele><time>2026-04-25T07:50:59.953Z</time></trkpt><trkpt lat="45.8308583" lon="11.8387033"><ele>304.0</ele><time>2026-04-25T07:51:00.955Z</time></trkpt><trkpt lat="45.8309533" lon="11.8388767"><ele>304.0</ele><time>2026-04-25T07:51:01.955Z</time></trkpt><trkpt lat="45.83105" lon="11.8390533"><ele>304.0</ele><time>2026-04-25T07:51:02.954Z</time></trkpt><trkpt lat="45.8311417" lon="11.8392233"><ele>305.25</ele><time>2026-04-25T07:51:03.955Z</time></trkpt><trkpt lat="45.831225" lon="11.8393783"><ele>306.5</ele><time>2026-04-25T07:51:04.955Z</time></trkpt><trkpt lat="45.8313083" lon="11.839535"><ele>307.75</ele><time>2026-04-25T07:51:05.954Z</time></trkpt><trkpt lat="45.8313917" lon="11.8396933"><ele>309.0</ele><time>2026-04-25T07:51:06.955Z</time></trkpt><trkpt lat="45.8314683" lon="11.839855"><ele>309.0</ele><time>2026-04-25T07:51:07.954Z</time></trkpt><trkpt lat="45.8315383" lon="11.840025"><ele>309.0</ele><time>2026-04-25T07:51:08.955Z</time></trkpt><trkpt lat="45.8316033" lon="11.8402033"><ele>309.0</ele><time>2026-04-25T07:51:09.955Z</time></trkpt><trkpt lat="45.831665" lon="11.8403933"><ele>309.0</ele><time>2026-04-25T07:51:10.955Z</time></trkpt><trkpt lat="45.8317267" lon="11.8405917"><ele>308.0</ele><time>2026-04-25T07:51:11.955Z</time></trkpt><trkpt lat="45.8317883" lon="11.8407983"><ele>307.0</ele><time>2026-04-25T07:51:12.955Z</time></trkpt><trkpt lat="45.8318517" lon="11.8410033"><ele>306.0</ele><time>2026-04-25T07:51:13.955Z</time></trkpt><trkpt lat="45.8319117" lon="11.8412017"><ele>306.5</ele><time>2026-04-25T07:51:14.955Z</time></trkpt><trkpt lat="45.8319683" lon="11.84139"><ele>307.0</ele><time>2026-04-25T07:51:15.955Z</time></trkpt><trkpt lat="45.8320217" lon="11.8415617"><ele>307.5</ele><time>2026-04-25T07:51:16.955Z</time></trkpt><trkpt lat="45.83208" lon="11.84171"><ele>308.0</ele><time>2026-04-25T07:51:17.955Z</time></trkpt><trkpt lat="45.832155" lon="11.841835"><ele>308.0</ele><time>2026-04-25T07:51:18.955Z</time></trkpt><trkpt lat="45.8322567" lon="11.8419217"><ele>308.0</ele><time>2026-04-25T07:51:19.955Z</time></trkpt><trkpt lat="45.8323733" lon="11.8419933"><ele>308.0</ele><time>2026-04-25T07:51:20.955Z</time></trkpt><trkpt lat="45.832505" lon="11.8420583"><ele>308.0</ele><time>2026-04-25T07:51:21.955Z</time></trkpt><trkpt lat="45.8326533" lon="11.8421167"><ele>311.6666666666667</ele><time>2026-04-25T07:51:22.956Z</time></trkpt><trkpt lat="45.8328083" lon="11.8421733"><ele>315.3333333333333</ele><time>2026-04-25T07:51:23.955Z</time></trkpt><trkpt lat="45.8329583" lon="11.842235"><ele>319.0</ele><time>2026-04-25T07:51:24.956Z</time></trkpt><trkpt lat="45.8330967" lon="11.8422917"><ele>319.0</ele><time>2026-04-25T07:51:25.956Z</time></trkpt><trkpt lat="45.83323" lon="11.842345"><ele>319.0</ele><time>2026-04-25T07:51:26.955Z</time></trkpt><trkpt lat="45.8333567" lon="11.8423967"><ele>319.0</ele><time>2026-04-25T07:51:27.955Z</time></trkpt><trkpt lat="45.8334733" lon="11.842445"><ele>319.0</ele><time>2026-04-25T07:51:28.954Z</time></trkpt><trkpt lat="45.8335767" lon="11.8425017"><ele>319.8333333333333</ele><time>2026-04-25T07:51:29.955Z</time></trkpt><trkpt lat="45.83366" lon="11.842585"><ele>320.66666666666663</ele><time>2026-04-25T07:51:30.955Z</time></trkpt><trkpt lat="45.833715" lon="11.8426833"><ele>321.5</ele><time>2026-04-25T07:51:31.956Z</time></trkpt><trkpt lat="45.8337467" lon="11.8427817"><ele>322.3333333333333</ele><time>2026-04-25T07:51:32.955Z</time></trkpt><trkpt lat="45.8337217" lon="11.8428767"><ele>323.1666666666667</ele><time>2026-04-25T07:51:33.955Z</time></trkpt><trkpt lat="45.8336767" lon="11.84298"><ele>324.0</ele><time>2026-04-25T07:51:34.956Z</time></trkpt><trkpt lat="45.8336167" lon="11.8431017"><ele>324.0</ele><time>2026-04-25T07:51:35.955Z</time></trkpt><trkpt lat="45.83355" lon="11.8432433"><ele>324.0</ele><time>2026-04-25T07:51:36.955Z</time></trkpt><trkpt lat="45.8334783" lon="11.8433933"><ele>324.0</ele><time>2026-04-25T07:51:37.955Z</time></trkpt><trkpt lat="45.833405" lon="11.84355"><ele>324.0</ele><time>2026-04-25T07:51:38.955Z</time></trkpt><trkpt lat="45.8333333" lon="11.8437117"><ele>323.0</ele><time>2026-04-25T07:51:39.954Z</time></trkpt><trkpt lat="45.8332567" lon="11.84388"><ele>322.0</ele><time>2026-04-25T07:51:40.955Z</time></trkpt><trkpt lat="45.8331767" lon="11.8440567"><ele>321.0</ele><time>2026-04-25T07:51:41.955Z</time></trkpt><trkpt lat="45.8330917" lon="11.8442417"><ele>320.0</ele><time>2026-04-25T07:51:42.955Z</time></trkpt><trkpt lat="45.8330083" lon="11.8444333"><ele>320.0</ele><time>2026-04-25T07:51:43.956Z</time></trkpt><trkpt lat="45.83293" lon="11.844615"><ele>320.0</ele><time>2026-04-25T07:51:44.955Z</time></trkpt><trkpt lat="45.8328583" lon="11.8447933"><ele>320.0</ele><time>2026-04-25T07:51:45.955Z</time></trkpt><trkpt lat="45.832795" lon="11.84496"><ele>320.0</ele><time>2026-04-25T07:51:46.957Z</time></trkpt><trkpt lat="45.8327433" lon="11.8451267"><ele>320.5</ele><time>2026-04-25T07:51:47.954Z</time></trkpt><trkpt lat="45.832705" lon="11.8453017"><ele>321.0</ele><time>2026-04-25T07:51:48.955Z</time></trkpt><trkpt lat="45.8326833" lon="11.8454767"><ele>321.5</ele><time>2026-04-25T07:51:49.955Z</time></trkpt><trkpt lat="45.8326833" lon="11.8456517"><ele>322.0</ele><time>2026-04-25T07:51:50.955Z</time></trkpt><trkpt lat="45.832705" lon="11.8458217"><ele>322.6</ele><time>2026-04-25T07:51:51.957Z</time></trkpt><trkpt lat="45.832745" lon="11.8459717"><ele>323.20000000000005</ele><time>2026-04-25T07:51:52.956Z</time></trkpt><trkpt lat="45.8328" lon="11.8460967"><ele>323.8</ele><time>2026-04-25T07:51:53.956Z</time></trkpt><trkpt lat="45.8328667" lon="11.8462083"><ele>324.4</ele><time>2026-04-25T07:51:54.956Z</time></trkpt><trkpt lat="45.8329433" lon="11.8463167"><ele>325.0</ele><time>2026-04-25T07:51:55.957Z</time></trkpt><trkpt lat="45.833025" lon="11.8464283"><ele>325.0</ele><time>2026-04-25T07:51:56.956Z</time></trkpt><trkpt lat="45.8331117" lon="11.846545"><ele>325.0</ele><time>2026-04-25T07:51:57.957Z</time></trkpt><trkpt lat="45.8332" lon="11.8466617"><ele>325.0</ele><time>2026-04-25T07:51:58.958Z</time></trkpt><trkpt lat="45.833285" lon="11.8467783"><ele>325.0</ele><time>2026-04-25T07:51:59.957Z</time></trkpt><trkpt lat="45.83337" lon="11.8468983"><ele>325.25</ele><time>2026-04-25T07:52:00.956Z</time></trkpt><trkpt lat="45.8334583" lon="11.8470233"><ele>325.5</ele><time>2026-04-25T07:52:01.957Z</time></trkpt><trkpt lat="45.83355" lon="11.8471467"><ele>325.75</ele><time>2026-04-25T07:52:02.957Z</time></trkpt><trkpt lat="45.833645" lon="11.8472633"><ele>326.0</ele><time>2026-04-25T07:52:03.957Z</time></trkpt><trkpt lat="45.833745" lon="11.8473683"><ele>326.75</ele><time>2026-04-25T07:52:04.957Z</time></trkpt><trkpt lat="45.83385" lon="11.8474583"><ele>327.5</ele><time>2026-04-25T07:52:05.956Z</time></trkpt><trkpt lat="45.8339517" lon="11.8475383"><ele>328.25</ele><time>2026-04-25T07:52:06.957Z</time></trkpt><trkpt lat="45.8340533" lon="11.8476183"><ele>329.0</ele><time>2026-04-25T07:52:07.958Z</time></trkpt><trkpt lat="45.83415" lon="11.8476967"><ele>329.0</ele><time>2026-04-25T07:52:08.957Z</time></trkpt><trkpt lat="45.8342467" lon="11.8477717"><ele>329.0</ele><time>2026-04-25T07:52:09.958Z</time></trkpt><trkpt lat="45.8343433" lon="11.84784"><ele>329.0</ele><time>2026-04-25T07:52:10.956Z</time></trkpt><trkpt lat="45.834435" lon="11.8479083"><ele>329.0</ele><time>2026-04-25T07:52:11.957Z</time></trkpt><trkpt lat="45.8345217" lon="11.8479717"><ele>329.0</ele><time>2026-04-25T07:52:12.956Z</time></trkpt><trkpt lat="45.834605" lon="11.8480317"><ele>329.83333333333337</ele><time>2026-04-25T07:52:13.957Z</time></trkpt><trkpt lat="45.8346817" lon="11.84809"><ele>330.6666666666667</ele><time>2026-04-25T07:52:14.956Z</time></trkpt><trkpt lat="45.834755" lon="11.8481467"><ele>331.5</ele><time>2026-04-25T07:52:15.959Z</time></trkpt><trkpt lat="45.834825" lon="11.8482083"><ele>332.3333333333333</ele><time>2026-04-25T07:52:16.958Z</time></trkpt><trkpt lat="45.8348983" lon="11.8482817"><ele>333.16666666666663</ele><time>2026-04-25T07:52:17.956Z</time></trkpt><trkpt lat="45.8349767" lon="11.84837"><ele>334.0</ele><time>2026-04-25T07:52:18.955Z</time></trkpt><trkpt lat="45.8350517" lon="11.8484717"><ele>334.2</ele><time>2026-04-25T07:52:19.957Z</time></trkpt><trkpt lat="45.8351233" lon="11.848585"><ele>334.4</ele><time>2026-04-25T07:52:20.954Z</time></trkpt><trkpt lat="45.8351917" lon="11.8487067"><ele>334.6</ele><time>2026-04-25T07:52:21.955Z</time></trkpt><trkpt lat="45.835255" lon="11.8488383"><ele>334.8</ele><time>2026-04-25T07:52:22.956Z</time></trkpt><trkpt lat="45.8353117" lon="11.84898"><ele>335.0</ele><time>2026-04-25T07:52:23.955Z</time></trkpt><trkpt lat="45.8353567" lon="11.8491367"><ele>336.0</ele><time>2026-04-25T07:52:24.955Z</time></trkpt><trkpt lat="45.83539" lon="11.8493033"><ele>337.0</ele><time>2026-04-25T07:52:25.955Z</time></trkpt><trkpt lat="45.8354183" lon="11.8494767"><ele>338.0</ele><time>2026-04-25T07:52:26.955Z</time></trkpt><trkpt lat="45.835445" lon="11.8496567"><ele>339.0</ele><time>2026-04-25T07:52:27.954Z</time></trkpt><trkpt lat="45.8354767" lon="11.8498467"><ele>339.0</ele><time>2026-04-25T07:52:28.955Z</time></trkpt><trkpt lat="45.8355067" lon="11.8500417"><ele>339.0</ele><time>2026-04-25T07:52:29.954Z</time></trkpt><trkpt lat="45.83554" lon="11.8502383"><ele>339.0</ele><time>2026-04-25T07:52:30.956Z</time></trkpt><trkpt lat="45.8355733" lon="11.8504317"><ele>339.0</ele><time>2026-04-25T07:52:31.956Z</time></trkpt><trkpt lat="45.8356017" lon="11.8506167"><ele>338.75</ele><time>2026-04-25T07:52:32.955Z</time></trkpt><trkpt lat="45.8356267" lon="11.850795"><ele>338.5</ele><time>2026-04-25T07:52:33.955Z</time></trkpt><trkpt lat="45.8356517" lon="11.8509767"><ele>338.25</ele><time>2026-04-25T07:52:34.956Z</time></trkpt><trkpt lat="45.8356783" lon="11.8511617"><ele>338.0</ele><time>2026-04-25T07:52:35.955Z</time></trkpt><trkpt lat="45.83571" lon="11.8513517"><ele>337.75</ele><time>2026-04-25T07:52:36.955Z</time></trkpt><trkpt lat="45.8357433" lon="11.851545"><ele>337.5</ele><time>2026-04-25T07:52:37.955Z</time></trkpt><trkpt lat="45.8357833" lon="11.8517383"><ele>337.25</ele><time>2026-04-25T07:52:38.955Z</time></trkpt><trkpt lat="45.8358233" lon="11.85193"><ele>337.0</ele><time>2026-04-25T07:52:39.955Z</time></trkpt><trkpt lat="45.8358683" lon="11.8521183"><ele>337.0</ele><time>2026-04-25T07:52:40.956Z</time></trkpt><trkpt lat="45.83592" lon="11.8523083"><ele>337.0</ele><time>2026-04-25T07:52:41.956Z</time></trkpt><trkpt lat="45.8359767" lon="11.8524983"><ele>337.0</ele><time>2026-04-25T07:52:42.955Z</time></trkpt><trkpt lat="45.8360367" lon="11.8526867"><ele>337.0</ele><time>2026-04-25T07:52:43.956Z</time></trkpt><trkpt lat="45.8361" lon="11.8528767"><ele>337.75</ele><time>2026-04-25T07:52:44.955Z</time></trkpt><trkpt lat="45.83616" lon="11.85307"><ele>338.5</ele><time>2026-04-25T07:52:45.955Z</time></trkpt><trkpt lat="45.8362217" lon="11.8532667"><ele>339.25</ele><time>2026-04-25T07:52:46.956Z</time></trkpt><trkpt lat="45.8362867" lon="11.8534617"><ele>340.0</ele><time>2026-04-25T07:52:47.956Z</time></trkpt><trkpt lat="45.8363517" lon="11.8536583"><ele>340.0</ele><time>2026-04-25T07:52:48.955Z</time></trkpt><trkpt lat="45.83641" lon="11.8538517"><ele>340.0</ele><time>2026-04-25T07:52:49.956Z</time></trkpt><trkpt lat="45.836465" lon="11.8540367"><ele>340.0</ele><time>2026-04-25T07:52:50.956Z</time></trkpt><trkpt lat="45.836515" lon="11.8542133"><ele>340.0</ele><time>2026-04-25T07:52:51.955Z</time></trkpt><trkpt lat="45.8365717" lon="11.8543833"><ele>338.75</ele><time>2026-04-25T07:52:52.956Z</time></trkpt><trkpt lat="45.8366233" lon="11.8545483"><ele>337.5</ele><time>2026-04-25T07:52:53.955Z</time></trkpt><trkpt lat="45.8366717" lon="11.8547133"><ele>336.25</ele><time>2026-04-25T07:52:54.957Z</time></trkpt><trkpt lat="45.8367283" lon="11.8548767"><ele>335.0</ele><time>2026-04-25T07:52:55.956Z</time></trkpt><trkpt lat="45.8367867" lon="11.85505"><ele>335.75</ele><time>2026-04-25T07:52:56.955Z</time></trkpt><trkpt lat="45.8368467" lon="11.8552333"><ele>336.5</ele><time>2026-04-25T07:52:57.956Z</time></trkpt><trkpt lat="45.8369083" lon="11.8554217"><ele>337.25</ele><time>2026-04-25T07:52:58.955Z</time></trkpt><trkpt lat="45.8369733" lon="11.855615"><ele>338.0</ele><time>2026-04-25T07:52:59.955Z</time></trkpt><trkpt lat="45.83704" lon="11.855815"><ele>337.0</ele><time>2026-04-25T07:53:00.957Z</time></trkpt><trkpt lat="45.83711" lon="11.8560183"><ele>336.0</ele><time>2026-04-25T07:53:01.956Z</time></trkpt><trkpt lat="45.8371817" lon="11.8562167"><ele>335.0</ele><time>2026-04-25T07:53:02.954Z</time></trkpt><trkpt lat="45.8372633" lon="11.856405"><ele>335.0</ele><time>2026-04-25T07:53:03.956Z</time></trkpt><trkpt lat="45.83735" lon="11.856575"><ele>335.0</ele><time>2026-04-25T07:53:04.955Z</time></trkpt><trkpt lat="45.8374417" lon="11.8567267"><ele>335.0</ele><time>2026-04-25T07:53:05.955Z</time></trkpt><trkpt lat="45.8375367" lon="11.8568633"><ele>335.0</ele><time>2026-04-25T07:53:06.954Z</time></trkpt><trkpt lat="45.8376383" lon="11.8569883"><ele>335.0</ele><time>2026-04-25T07:53:07.955Z</time></trkpt><trkpt lat="45.8377483" lon="11.8571067"><ele>335.0</ele><time>2026-04-25T07:53:08.955Z</time></trkpt><trkpt lat="45.8378667" lon="11.8572133"><ele>335.0</ele><time>2026-04-25T07:53:09.955Z</time></trkpt><trkpt lat="45.8379967" lon="11.857305"><ele>335.0</ele><time>2026-04-25T07:53:10.956Z</time></trkpt><trkpt lat="45.8381317" lon="11.8573867"><ele>335.0</ele><time>2026-04-25T07:53:11.955Z</time></trkpt><trkpt lat="45.8382733" lon="11.8574633"><ele>335.0</ele><time>2026-04-25T07:53:12.956Z</time></trkpt><trkpt lat="45.8384183" lon="11.8575483"><ele>335.0</ele><time>2026-04-25T07:53:13.956Z</time></trkpt><trkpt lat="45.838565" lon="11.857635"><ele>335.33333333333337</ele><time>2026-04-25T07:53:14.955Z</time></trkpt><trkpt lat="45.8387083" lon="11.85772"><ele>335.6666666666667</ele><time>2026-04-25T07:53:15.955Z</time></trkpt><trkpt lat="45.8388483" lon="11.8578033"><ele>336.0</ele><time>2026-04-25T07:53:16.955Z</time></trkpt><trkpt lat="45.8389867" lon="11.8578833"><ele>336.0</ele><time>2026-04-25T07:53:17.955Z</time></trkpt><trkpt lat="45.8391267" lon="11.8579633"><ele>336.0</ele><time>2026-04-25T07:53:18.955Z</time></trkpt><trkpt lat="45.8392667" lon="11.8580433"><ele>336.0</ele><time>2026-04-25T07:53:19.955Z</time></trkpt><trkpt lat="45.8394067" lon="11.8581267"><ele>336.3333333333333</ele><time>2026-04-25T07:53:20.956Z</time></trkpt><trkpt lat="45.83955" lon="11.8582083"><ele>336.66666666666663</ele><time>2026-04-25T07:53:21.955Z</time></trkpt><trkpt lat="45.8396917" lon="11.8582917"><ele>337.0</ele><time>2026-04-25T07:53:22.956Z</time></trkpt><trkpt lat="45.8398283" lon="11.8583717"><ele>337.0</ele><time>2026-04-25T07:53:23.954Z</time></trkpt><trkpt lat="45.8399633" lon="11.8584467"><ele>337.0</ele><time>2026-04-25T07:53:24.955Z</time></trkpt><trkpt lat="45.840095" lon="11.8585217"><ele>337.0</ele><time>2026-04-25T07:53:25.956Z</time></trkpt><trkpt lat="45.8402283" lon="11.8585983"><ele>337.0</ele><time>2026-04-25T07:53:26.956Z</time></trkpt><trkpt lat="45.84036" lon="11.8586733"><ele>337.0</ele><time>2026-04-25T07:53:27.956Z</time></trkpt><trkpt lat="45.8404883" lon="11.85875"><ele>337.0</ele><time>2026-04-25T07:53:28.958Z</time></trkpt><trkpt lat="45.840615" lon="11.858825"><ele>337.0</ele><time>2026-04-25T07:53:29.954Z</time></trkpt><trkpt lat="45.8407383" lon="11.8588983"><ele>337.0</ele><time>2026-04-25T07:53:30.956Z</time></trkpt><trkpt lat="45.8408533" lon="11.8589733"><ele>337.0</ele><time>2026-04-25T07:53:31.955Z</time></trkpt><trkpt lat="45.8409683" lon="11.859045"><ele>337.0</ele><time>2026-04-25T07:53:32.954Z</time></trkpt><trkpt lat="45.841085" lon="11.8591067"><ele>337.0</ele><time>2026-04-25T07:53:33.955Z</time></trkpt><trkpt lat="45.8412083" lon="11.8591567"><ele>337.0</ele><time>2026-04-25T07:53:34.955Z</time></trkpt><trkpt lat="45.841335" lon="11.8591867"><ele>337.0</ele><time>2026-04-25T07:53:35.954Z</time></trkpt><trkpt lat="45.84146" lon="11.8591933"><ele>337.0</ele><time>2026-04-25T07:53:36.961Z</time></trkpt><trkpt lat="45.841585" lon="11.8591833"><ele>337.0</ele><time>2026-04-25T07:53:37.956Z</time></trkpt><trkpt lat="45.8417033" lon="11.8591617"><ele>337.0</ele><time>2026-04-25T07:53:38.956Z</time></trkpt><trkpt lat="45.8418133" lon="11.859115"><ele>336.20000000000005</ele><time>2026-04-25T07:53:39.957Z</time></trkpt><trkpt lat="45.8419167" lon="11.859055"><ele>335.4</ele><time>2026-04-25T07:53:40.956Z</time></trkpt><trkpt lat="45.8420117" lon="11.8589917"><ele>334.6</ele><time>2026-04-25T07:53:41.956Z</time></trkpt><trkpt lat="45.8420967" lon="11.8589483"><ele>333.79999999999995</ele><time>2026-04-25T07:53:42.956Z</time></trkpt><trkpt lat="45.8421783" lon="11.8589183"><ele>333.0</ele><time>2026-04-25T07:53:43.954Z</time></trkpt><trkpt lat="45.8422667" lon="11.8589033"><ele>333.0</ele><time>2026-04-25T07:53:44.955Z</time></trkpt><trkpt lat="45.84236" lon="11.8589533"><ele>333.0</ele><time>2026-04-25T07:53:45.955Z</time></trkpt><trkpt lat="45.842435" lon="11.8590583"><ele>333.0</ele><time>2026-04-25T07:53:46.956Z</time></trkpt><trkpt lat="45.8425" lon="11.8591967"><ele>333.0</ele><time>2026-04-25T07:53:47.956Z</time></trkpt><trkpt lat="45.8425633" lon="11.859355"><ele>333.0</ele><time>2026-04-25T07:53:48.956Z</time></trkpt><trkpt lat="45.8426317" lon="11.8595183"><ele>333.75</ele><time>2026-04-25T07:53:49.957Z</time></trkpt><trkpt lat="45.8427017" lon="11.85968"><ele>334.5</ele><time>2026-04-25T07:53:50.96Z</time></trkpt><trkpt lat="45.84277" lon="11.8598367"><ele>335.25</ele><time>2026-04-25T07:53:51.957Z</time></trkpt><trkpt lat="45.8428367" lon="11.8599917"><ele>336.0</ele><time>2026-04-25T07:53:52.957Z</time></trkpt><trkpt lat="45.8429" lon="11.8601483"><ele>334.0</ele><time>2026-04-25T07:53:53.957Z</time></trkpt><trkpt lat="45.842965" lon="11.860305"><ele>332.0</ele><time>2026-04-25T07:53:54.956Z</time></trkpt><trkpt lat="45.84303" lon="11.8604617"><ele>330.0</ele><time>2026-04-25T07:53:55.957Z</time></trkpt><trkpt lat="45.8430967" lon="11.8606167"><ele>328.0</ele><time>2026-04-25T07:53:56.956Z</time></trkpt><trkpt lat="45.8431583" lon="11.8607617"><ele>328.0</ele><time>2026-04-25T07:53:57.956Z</time></trkpt><trkpt lat="45.8432217" lon="11.8608983"><ele>328.0</ele><time>2026-04-25T07:53:58.956Z</time></trkpt><trkpt lat="45.84329" lon="11.8610233"><ele>328.0</ele><time>2026-04-25T07:53:59.955Z</time></trkpt><trkpt lat="45.843365" lon="11.8611383"><ele>328.0</ele><time>2026-04-25T07:54:00.955Z</time></trkpt><trkpt lat="45.8434567" lon="11.861235"><ele>328.0</ele><time>2026-04-25T07:54:01.955Z</time></trkpt><trkpt lat="45.843565" lon="11.8612917"><ele>324.5</ele><time>2026-04-25T07:54:02.955Z</time></trkpt><trkpt lat="45.8436817" lon="11.8613"><ele>321.0</ele><time>2026-04-25T07:54:03.956Z</time></trkpt><trkpt lat="45.8437967" lon="11.8612667"><ele>317.5</ele><time>2026-04-25T07:54:04.956Z</time></trkpt><trkpt lat="45.8439017" lon="11.8612033"><ele>314.0</ele><time>2026-04-25T07:54:05.955Z</time></trkpt><trkpt lat="45.8439983" lon="11.8611083"><ele>314.0</ele><time>2026-04-25T07:54:06.956Z</time></trkpt><trkpt lat="45.8440717" lon="11.8609767"><ele>314.0</ele><time>2026-04-25T07:54:07.955Z</time></trkpt><trkpt lat="45.8441233" lon="11.860825"><ele>314.0</ele><time>2026-04-25T07:54:08.955Z</time></trkpt><trkpt lat="45.8441467" lon="11.86066"><ele>314.0</ele><time>2026-04-25T07:54:09.955Z</time></trkpt><trkpt lat="45.8441367" lon="11.8604967"><ele>315.4</ele><time>2026-04-25T07:54:10.956Z</time></trkpt><trkpt lat="45.844115" lon="11.8603417"><ele>316.79999999999995</ele><time>2026-04-25T07:54:11.954Z</time></trkpt><trkpt lat="45.8440867" lon="11.8601917"><ele>318.20000000000005</ele><time>2026-04-25T07:54:12.954Z</time></trkpt><trkpt lat="45.8440667" lon="11.86005"><ele>319.6</ele><time>2026-04-25T07:54:13.955Z</time></trkpt><trkpt lat="45.8440583" lon="11.8599167"><ele>321.0</ele><time>2026-04-25T07:54:14.956Z</time></trkpt><trkpt lat="45.844065" lon="11.85979"><ele>321.4</ele><time>2026-04-25T07:54:15.955Z</time></trkpt><trkpt lat="45.8440917" lon="11.8596683"><ele>321.8</ele><time>2026-04-25T07:54:16.956Z</time></trkpt><trkpt lat="45.8441333" lon="11.8595483"><ele>322.2</ele><time>2026-04-25T07:54:17.954Z</time></trkpt><trkpt lat="45.8441867" lon="11.85943"><ele>322.59999999999997</ele><time>2026-04-25T07:54:18.955Z</time></trkpt><trkpt lat="45.844245" lon="11.8593183"><ele>323.0</ele><time>2026-04-25T07:54:19.955Z</time></trkpt><trkpt lat="45.8443217" lon="11.8592283"><ele>324.2</ele><time>2026-04-25T07:54:20.954Z</time></trkpt><trkpt lat="45.8444117" lon="11.8591667"><ele>325.4</ele><time>2026-04-25T07:54:21.955Z</time></trkpt><trkpt lat="45.8445067" lon="11.859155"><ele>326.59999999999997</ele><time>2026-04-25T07:54:22.956Z</time></trkpt><trkpt lat="45.8446" lon="11.859195"><ele>327.79999999999995</ele><time>2026-04-25T07:54:23.955Z</time></trkpt><trkpt lat="45.844685" lon="11.8592633"><ele>329.0</ele><time>2026-04-25T07:54:24.954Z</time></trkpt><trkpt lat="45.8447717" lon="11.859345"><ele>329.5</ele><time>2026-04-25T07:54:25.955Z</time></trkpt><trkpt lat="45.8448667" lon="11.8594267"><ele>330.0</ele><time>2026-04-25T07:54:26.955Z</time></trkpt><trkpt lat="45.8449683" lon="11.8595117"><ele>330.5</ele><time>2026-04-25T07:54:27.957Z</time></trkpt><trkpt lat="45.8450717" lon="11.8595967"><ele>331.0</ele><time>2026-04-25T07:54:28.956Z</time></trkpt><trkpt lat="45.845165" lon="11.8596767"><ele>331.0</ele><time>2026-04-25T07:54:29.954Z</time></trkpt><trkpt lat="45.8452467" lon="11.8597467"><ele>331.0</ele><time>2026-04-25T07:54:30.955Z</time></trkpt><trkpt lat="45.84532" lon="11.85982"><ele>331.0</ele><time>2026-04-25T07:54:31.956Z</time></trkpt><trkpt lat="45.84539" lon="11.8599033"><ele>331.0</ele><time>2026-04-25T07:54:32.955Z</time></trkpt><trkpt lat="45.845435" lon="11.8600033"><ele>331.0</ele><time>2026-04-25T07:54:33.955Z</time></trkpt><trkpt lat="45.8454617" lon="11.860115"><ele>331.0</ele><time>2026-04-25T07:54:34.956Z</time></trkpt><trkpt lat="45.8454467" lon="11.8602417"><ele>330.75</ele><time>2026-04-25T07:54:35.955Z</time></trkpt><trkpt lat="45.84541" lon="11.860375"><ele>330.5</ele><time>2026-04-25T07:54:36.956Z</time></trkpt><trkpt lat="45.84533" lon="11.8605217"><ele>330.25</ele><time>2026-04-25T07:54:37.955Z</time></trkpt><trkpt lat="45.8452383" lon="11.86068"><ele>330.0</ele><time>2026-04-25T07:54:38.955Z</time></trkpt><trkpt lat="45.8451483" lon="11.8608383"><ele>324.0</ele><time>2026-04-25T07:54:39.956Z</time></trkpt><trkpt lat="45.8450667" lon="11.86099"><ele>318.0</ele><time>2026-04-25T07:54:40.958Z</time></trkpt><trkpt lat="45.8450033" lon="11.86115"><ele>312.0</ele><time>2026-04-25T07:54:41.955Z</time></trkpt><trkpt lat="45.8449583" lon="11.8613367"><ele>306.0</ele><time>2026-04-25T07:54:42.955Z</time></trkpt><trkpt lat="45.8449333" lon="11.8615367"><ele>306.0</ele><time>2026-04-25T07:54:43.955Z</time></trkpt><trkpt lat="45.8449267" lon="11.8617433"><ele>306.0</ele><time>2026-04-25T07:54:44.954Z</time></trkpt><trkpt lat="45.8449267" lon="11.8619483"><ele>306.0</ele><time>2026-04-25T07:54:45.956Z</time></trkpt><trkpt lat="45.844925" lon="11.8621567"><ele>306.0</ele><time>2026-04-25T07:54:46.955Z</time></trkpt><trkpt lat="45.844925" lon="11.862375"><ele>305.3333333333333</ele><time>2026-04-25T07:54:47.955Z</time></trkpt><trkpt lat="45.8449333" lon="11.862605"><ele>304.66666666666663</ele><time>2026-04-25T07:54:48.955Z</time></trkpt><trkpt lat="45.8449567" lon="11.8628333"><ele>304.0</ele><time>2026-04-25T07:54:49.955Z</time></trkpt><trkpt lat="45.844985" lon="11.8630683"><ele>300.3333333333333</ele><time>2026-04-25T07:54:50.954Z</time></trkpt><trkpt lat="45.8450217" lon="11.863325"><ele>296.6666666666667</ele><time>2026-04-25T07:54:51.955Z</time></trkpt><trkpt lat="45.84506" lon="11.86361"><ele>293.0</ele><time>2026-04-25T07:54:52.954Z</time></trkpt><trkpt lat="45.845095" lon="11.8639183"><ele>289.5</ele><time>2026-04-25T07:54:53.954Z</time></trkpt><trkpt lat="45.8451267" lon="11.8642483"><ele>286.0</ele><time>2026-04-25T07:54:54.955Z</time></trkpt><trkpt lat="45.8451567" lon="11.8645883"><ele>278.5</ele><time>2026-04-25T07:54:55.955Z</time></trkpt><trkpt lat="45.8451867" lon="11.8649217"><ele>271.0</ele><time>2026-04-25T07:54:56.955Z</time></trkpt><trkpt lat="45.845215" lon="11.8652383"><ele>270.66666666666663</ele><time>2026-04-25T07:54:57.954Z</time></trkpt><trkpt lat="45.8452417" lon="11.8655333"><ele>270.3333333333333</ele><time>2026-04-25T07:54:58.955Z</time></trkpt><trkpt lat="45.8452667" lon="11.8658133"><ele>270.0</ele><time>2026-04-25T07:54:59.955Z</time></trkpt><trkpt lat="45.84529" lon="11.8660867"><ele>270.0</ele><time>2026-04-25T07:55:00.955Z</time></trkpt><trkpt lat="45.8453167" lon="11.8663583"><ele>270.0</ele><time>2026-04-25T07:55:01.955Z</time></trkpt><trkpt lat="45.84536" lon="11.8666333"><ele>270.0</ele><time>2026-04-25T07:55:02.955Z</time></trkpt><trkpt lat="45.84542" lon="11.866895"><ele>268.6666666666667</ele><time>2026-04-25T07:55:03.955Z</time></trkpt><trkpt lat="45.8454967" lon="11.8671383"><ele>267.33333333333337</ele><time>2026-04-25T07:55:04.956Z</time></trkpt><trkpt lat="45.845595" lon="11.8673583"><ele>266.0</ele><time>2026-04-25T07:55:05.955Z</time></trkpt><trkpt lat="45.8457067" lon="11.86756"><ele>265.6666666666667</ele><time>2026-04-25T07:55:06.955Z</time></trkpt><trkpt lat="45.84583" lon="11.867735"><ele>265.3333333333333</ele><time>2026-04-25T07:55:07.956Z</time></trkpt><trkpt lat="45.84595" lon="11.86788"><ele>265.0</ele><time>2026-04-25T07:55:08.955Z</time></trkpt><trkpt lat="45.846065" lon="11.8680033"><ele>265.0</ele><time>2026-04-25T07:55:09.956Z</time></trkpt><trkpt lat="45.8461683" lon="11.8681067"><ele>265.0</ele><time>2026-04-25T07:55:10.956Z</time></trkpt><trkpt lat="45.8462683" lon="11.8681967"><ele>265.0</ele><time>2026-04-25T07:55:11.954Z</time></trkpt><trkpt lat="45.8463617" lon="11.868275"><ele>265.0</ele><time>2026-04-25T07:55:12.955Z</time></trkpt><trkpt lat="45.84645" lon="11.8683467"><ele>265.0</ele><time>2026-04-25T07:55:13.955Z</time></trkpt><trkpt lat="45.8465367" lon="11.86842"><ele>265.0</ele><time>2026-04-25T07:55:14.956Z</time></trkpt><trkpt lat="45.8466267" lon="11.8685"><ele>265.0</ele><time>2026-04-25T07:55:15.955Z</time></trkpt><trkpt lat="45.8467233" lon="11.8685817"><ele>265.0</ele><time>2026-04-25T07:55:16.955Z</time></trkpt><trkpt lat="45.8468167" lon="11.868665"><ele>265.0</ele><time>2026-04-25T07:55:17.954Z</time></trkpt><trkpt lat="45.8469133" lon="11.8687533"><ele>264.5</ele><time>2026-04-25T07:55:18.956Z</time></trkpt><trkpt lat="45.84702" lon="11.86884"><ele>264.0</ele><time>2026-04-25T07:55:19.956Z</time></trkpt><trkpt lat="45.8471167" lon="11.8689317"><ele>263.5</ele><time>2026-04-25T07:55:20.956Z</time></trkpt><trkpt lat="45.8472167" lon="11.86902"><ele>263.0</ele><time>2026-04-25T07:55:21.954Z</time></trkpt><trkpt lat="45.8473133" lon="11.869105"><ele>263.0</ele><time>2026-04-25T07:55:22.955Z</time></trkpt><trkpt lat="45.847405" lon="11.8691933"><ele>263.0</ele><time>2026-04-25T07:55:23.955Z</time></trkpt><trkpt lat="45.8475017" lon="11.86928"><ele>263.0</ele><time>2026-04-25T07:55:24.954Z</time></trkpt><trkpt lat="45.8476017" lon="11.8693667"><ele>263.0</ele><time>2026-04-25T07:55:25.955Z</time></trkpt><trkpt lat="45.8477017" lon="11.86945"><ele>262.0</ele><time>2026-04-25T07:55:26.955Z</time></trkpt><trkpt lat="45.8478" lon="11.8695317"><ele>261.0</ele><time>2026-04-25T07:55:27.957Z</time></trkpt><trkpt lat="45.8478917" lon="11.8696117"><ele>260.0</ele><time>2026-04-25T07:55:28.956Z</time></trkpt><trkpt lat="45.84798" lon="11.8696933"><ele>259.0</ele><time>2026-04-25T07:55:29.956Z</time></trkpt><trkpt lat="45.84807" lon="11.869775"><ele>258.0</ele><time>2026-04-25T07:55:30.955Z</time></trkpt><trkpt lat="45.848165" lon="11.869855"><ele>258.0</ele><time>2026-04-25T07:55:31.956Z</time></trkpt><trkpt lat="45.8482633" lon="11.8699317"><ele>258.0</ele><time>2026-04-25T07:55:32.955Z</time></trkpt><trkpt lat="45.8483633" lon="11.8700167"><ele>258.0</ele><time>2026-04-25T07:55:33.955Z</time></trkpt><trkpt lat="45.8484633" lon="11.8701083"><ele>258.0</ele><time>2026-04-25T07:55:34.956Z</time></trkpt><trkpt lat="45.8485733" lon="11.8702067"><ele>259.6666666666667</ele><time>2026-04-25T07:55:35.955Z</time></trkpt><trkpt lat="45.8486983" lon="11.8703183"><ele>261.33333333333337</ele><time>2026-04-25T07:55:36.955Z</time></trkpt><trkpt lat="45.8488317" lon="11.870435"><ele>263.0</ele><time>2026-04-25T07:55:37.955Z</time></trkpt><trkpt lat="45.848965" lon="11.8705617"><ele>263.0</ele><time>2026-04-25T07:55:38.955Z</time></trkpt><trkpt lat="45.8491017" lon="11.8706867"><ele>263.0</ele><time>2026-04-25T07:55:39.956Z</time></trkpt><trkpt lat="45.8492333" lon="11.8708017"><ele>263.0</ele><time>2026-04-25T07:55:40.954Z</time></trkpt><trkpt lat="45.8493533" lon="11.8709133"><ele>263.75</ele><time>2026-04-25T07:55:41.955Z</time></trkpt><trkpt lat="45.8494667" lon="11.8710133"><ele>264.5</ele><time>2026-04-25T07:55:42.957Z</time></trkpt><trkpt lat="45.849575" lon="11.8711117"><ele>265.25</ele><time>2026-04-25T07:55:43.956Z</time></trkpt><trkpt lat="45.8496833" lon="11.8712083"><ele>266.0</ele><time>2026-04-25T07:55:44.955Z</time></trkpt><trkpt lat="45.8497933" lon="11.8713017"><ele>266.0</ele><time>2026-04-25T07:55:45.955Z</time></trkpt><trkpt lat="45.8499033" lon="11.8713933"><ele>266.0</ele><time>2026-04-25T07:55:46.956Z</time></trkpt><trkpt lat="45.8500117" lon="11.8714883"><ele>266.0</ele><time>2026-04-25T07:55:47.955Z</time></trkpt><trkpt lat="45.8501217" lon="11.8715833"><ele>266.0</ele><time>2026-04-25T07:55:48.954Z</time></trkpt><trkpt lat="45.8502367" lon="11.8716867"><ele>266.0</ele><time>2026-04-25T07:55:49.955Z</time></trkpt><trkpt lat="45.8503533" lon="11.8718033"><ele>266.0</ele><time>2026-04-25T07:55:50.955Z</time></trkpt><trkpt lat="45.8504733" lon="11.8719383"><ele>266.0</ele><time>2026-04-25T07:55:51.955Z</time></trkpt><trkpt lat="45.8505867" lon="11.872095"><ele>266.0</ele><time>2026-04-25T07:55:52.955Z</time></trkpt><trkpt lat="45.850695" lon="11.8722667"><ele>266.0</ele><time>2026-04-25T07:55:53.954Z</time></trkpt><trkpt lat="45.8507983" lon="11.8724517"><ele>266.0</ele><time>2026-04-25T07:55:54.954Z</time></trkpt><trkpt lat="45.8508917" lon="11.8726467"><ele>267.0</ele><time>2026-04-25T07:55:55.955Z</time></trkpt><trkpt lat="45.8509733" lon="11.8728367"><ele>268.0</ele><time>2026-04-25T07:55:56.955Z</time></trkpt><trkpt lat="45.851045" lon="11.8730067"><ele>269.0</ele><time>2026-04-25T07:55:57.954Z</time></trkpt><trkpt lat="45.8511067" lon="11.8731567"><ele>270.0</ele><time>2026-04-25T07:55:58.955Z</time></trkpt><trkpt lat="45.8511583" lon="11.8732917"><ele>270.0</ele><time>2026-04-25T07:55:59.955Z</time></trkpt><trkpt lat="45.8512017" lon="11.8734117"><ele>270.0</ele><time>2026-04-25T07:56:00.954Z</time></trkpt><trkpt lat="45.8512333" lon="11.8735283"><ele>270.0</ele><time>2026-04-25T07:56:01.954Z</time></trkpt><trkpt lat="45.8512533" lon="11.87364"><ele>270.0</ele><time>2026-04-25T07:56:02.955Z</time></trkpt><trkpt lat="45.8512533" lon="11.873755"><ele>270.0</ele><time>2026-04-25T07:56:03.962Z</time></trkpt><trkpt lat="45.8512333" lon="11.8738817"><ele>270.0</ele><time>2026-04-25T07:56:04.956Z</time></trkpt><trkpt lat="45.8511933" lon="11.8740233"><ele>270.0</ele><time>2026-04-25T07:56:05.955Z</time></trkpt><trkpt lat="45.8511233" lon="11.8741833"><ele>270.0</ele><time>2026-04-25T07:56:06.955Z</time></trkpt><trkpt lat="45.8510233" lon="11.8743567"><ele>270.0</ele><time>2026-04-25T07:56:07.955Z</time></trkpt><trkpt lat="45.850915" lon="11.87454"><ele>267.6666666666667</ele><time>2026-04-25T07:56:08.955Z</time></trkpt><trkpt lat="45.8508083" lon="11.8747183"><ele>265.33333333333337</ele><time>2026-04-25T07:56:09.955Z</time></trkpt><trkpt lat="45.8507033" lon="11.87489"><ele>263.0</ele><time>2026-04-25T07:56:10.956Z</time></trkpt><trkpt lat="45.8505983" lon="11.8750483"><ele>262.33333333333337</ele><time>2026-04-25T07:56:11.955Z</time></trkpt><trkpt lat="45.8504817" lon="11.8751967"><ele>261.6666666666667</ele><time>2026-04-25T07:56:12.954Z</time></trkpt><trkpt lat="45.8503517" lon="11.875335"><ele>261.0</ele><time>2026-04-25T07:56:13.955Z</time></trkpt><trkpt lat="45.8502133" lon="11.875465"><ele>260.0</ele><time>2026-04-25T07:56:14.956Z</time></trkpt><trkpt lat="45.850075" lon="11.8755867"><ele>259.0</ele><time>2026-04-25T07:56:15.955Z</time></trkpt><trkpt lat="45.8499417" lon="11.8757067"><ele>258.0</ele><time>2026-04-25T07:56:16.957Z</time></trkpt><trkpt lat="45.8498083" lon="11.87582"><ele>258.0</ele><time>2026-04-25T07:56:17.955Z</time></trkpt><trkpt lat="45.8496683" lon="11.8759317"><ele>258.0</ele><time>2026-04-25T07:56:18.955Z</time></trkpt><trkpt lat="45.849525" lon="11.87604"><ele>258.0</ele><time>2026-04-25T07:56:19.955Z</time></trkpt><trkpt lat="45.8493817" lon="11.87615"><ele>255.66666666666669</ele><time>2026-04-25T07:56:20.955Z</time></trkpt><trkpt lat="45.8492383" lon="11.876265"><ele>253.33333333333334</ele><time>2026-04-25T07:56:21.954Z</time></trkpt><trkpt lat="45.8490967" lon="11.8763817"><ele>251.0</ele><time>2026-04-25T07:56:22.955Z</time></trkpt><trkpt lat="45.8489617" lon="11.876495"><ele>251.0</ele><time>2026-04-25T07:56:23.956Z</time></trkpt><trkpt lat="45.84883" lon="11.876605"><ele>251.0</ele><time>2026-04-25T07:56:24.955Z</time></trkpt><trkpt lat="45.848705" lon="11.8767083"><ele>251.0</ele><time>2026-04-25T07:56:25.96Z</time></trkpt><trkpt lat="45.8485883" lon="11.8768067"><ele>251.0</ele><time>2026-04-25T07:56:26.954Z</time></trkpt><trkpt lat="45.8484733" lon="11.876915"><ele>251.0</ele><time>2026-04-25T07:56:27.955Z</time></trkpt><trkpt lat="45.848365" lon="11.8770367"><ele>251.0</ele><time>2026-04-25T07:56:28.956Z</time></trkpt><trkpt lat="45.84827" lon="11.8771783"><ele>251.0</ele><time>2026-04-25T07:56:29.955Z</time></trkpt><trkpt lat="45.8481983" lon="11.877345"><ele>251.0</ele><time>2026-04-25T07:56:30.954Z</time></trkpt><trkpt lat="45.8481517" lon="11.8775483"><ele>250.33333333333334</ele><time>2026-04-25T07:56:31.956Z</time></trkpt><trkpt lat="45.8481383" lon="11.877765"><ele>249.66666666666669</ele><time>2026-04-25T07:56:32.955Z</time></trkpt><trkpt lat="45.8481483" lon="11.877985"><ele>249.0</ele><time>2026-04-25T07:56:33.955Z</time></trkpt><trkpt lat="45.84817" lon="11.8782017"><ele>249.0</ele><time>2026-04-25T07:56:34.955Z</time></trkpt><trkpt lat="45.8481967" lon="11.8784133"><ele>249.0</ele><time>2026-04-25T07:56:35.955Z</time></trkpt><trkpt lat="45.8482233" lon="11.8786267"><ele>249.0</ele><time>2026-04-25T07:56:36.954Z</time></trkpt><trkpt lat="45.8482483" lon="11.8788417"><ele>248.0</ele><time>2026-04-25T07:56:37.955Z</time></trkpt><trkpt lat="45.84827" lon="11.87906"><ele>247.0</ele><time>2026-04-25T07:56:38.954Z</time></trkpt><trkpt lat="45.8482933" lon="11.87928"><ele>246.0</ele><time>2026-04-25T07:56:39.954Z</time></trkpt><trkpt lat="45.8483183" lon="11.879505"><ele>245.33333333333331</ele><time>2026-04-25T07:56:40.955Z</time></trkpt><trkpt lat="45.848345" lon="11.8797333"><ele>244.66666666666666</ele><time>2026-04-25T07:56:41.955Z</time></trkpt><trkpt lat="45.8483667" lon="11.8799633"><ele>244.0</ele><time>2026-04-25T07:56:42.954Z</time></trkpt><trkpt lat="45.8483917" lon="11.8801883"><ele>243.75</ele><time>2026-04-25T07:56:43.956Z</time></trkpt><trkpt lat="45.84842" lon="11.8804033"><ele>243.5</ele><time>2026-04-25T07:56:44.955Z</time></trkpt><trkpt lat="45.8484417" lon="11.880605"><ele>243.25</ele><time>2026-04-25T07:56:45.954Z</time></trkpt><trkpt lat="45.8484617" lon="11.880795"><ele>243.0</ele><time>2026-04-25T07:56:46.956Z</time></trkpt><trkpt lat="45.8484783" lon="11.88098"><ele>242.25</ele><time>2026-04-25T07:56:47.956Z</time></trkpt><trkpt lat="45.848495" lon="11.8811667"><ele>241.5</ele><time>2026-04-25T07:56:48.954Z</time></trkpt><trkpt lat="45.8485133" lon="11.881365"><ele>240.75</ele><time>2026-04-25T07:56:49.955Z</time></trkpt><trkpt lat="45.8485333" lon="11.8815767"><ele>240.0</ele><time>2026-04-25T07:56:50.954Z</time></trkpt><trkpt lat="45.848555" lon="11.8817983"><ele>239.33333333333331</ele><time>2026-04-25T07:56:51.954Z</time></trkpt><trkpt lat="45.8485767" lon="11.88203"><ele>238.66666666666666</ele><time>2026-04-25T07:56:52.954Z</time></trkpt><trkpt lat="45.8486" lon="11.8822683"><ele>238.0</ele><time>2026-04-25T07:56:53.955Z</time></trkpt><trkpt lat="45.8486233" lon="11.88251"><ele>238.0</ele><time>2026-04-25T07:56:54.955Z</time></trkpt><trkpt lat="45.8486483" lon="11.8827433"><ele>238.0</ele><time>2026-04-25T07:56:55.955Z</time></trkpt><trkpt lat="45.8486733" lon="11.8829733"><ele>238.0</ele><time>2026-04-25T07:56:56.955Z</time></trkpt><trkpt lat="45.8486967" lon="11.8832133"><ele>237.0</ele><time>2026-04-25T07:56:57.954Z</time></trkpt><trkpt lat="45.848715" lon="11.8834567"><ele>236.0</ele><time>2026-04-25T07:56:58.956Z</time></trkpt><trkpt lat="45.8487383" lon="11.8837083"><ele>235.0</ele><time>2026-04-25T07:56:59.955Z</time></trkpt><trkpt lat="45.8487667" lon="11.883965"><ele>235.0</ele><time>2026-04-25T07:57:00.956Z</time></trkpt><trkpt lat="45.8488017" lon="11.8842233"><ele>235.0</ele><time>2026-04-25T07:57:01.955Z</time></trkpt><trkpt lat="45.8488483" lon="11.8844767"><ele>235.0</ele><time>2026-04-25T07:57:02.955Z</time></trkpt><trkpt lat="45.8489" lon="11.88473"><ele>234.66666666666666</ele><time>2026-04-25T07:57:03.954Z</time></trkpt><trkpt lat="45.84896" lon="11.8849817"><ele>234.33333333333331</ele><time>2026-04-25T07:57:04.957Z</time></trkpt><trkpt lat="45.84902" lon="11.88523"><ele>234.0</ele><time>2026-04-25T07:57:05.956Z</time></trkpt><trkpt lat="45.8490817" lon="11.88548"><ele>234.0</ele><time>2026-04-25T07:57:06.96Z</time></trkpt><trkpt lat="45.8491433" lon="11.88573"><ele>234.0</ele><time>2026-04-25T07:57:07.955Z</time></trkpt><trkpt lat="45.8492033" lon="11.885975"><ele>234.0</ele><time>2026-04-25T07:57:08.955Z</time></trkpt><trkpt lat="45.84926" lon="11.8862083"><ele>233.75</ele><time>2026-04-25T07:57:09.955Z</time></trkpt><trkpt lat="45.8493117" lon="11.8864283"><ele>233.5</ele><time>2026-04-25T07:57:10.956Z</time></trkpt><trkpt lat="45.8493583" lon="11.8866317"><ele>233.25</ele><time>2026-04-25T07:57:11.954Z</time></trkpt><trkpt lat="45.8493983" lon="11.8868217"><ele>233.0</ele><time>2026-04-25T07:57:12.955Z</time></trkpt><trkpt lat="45.8494283" lon="11.8870017"><ele>232.25</ele><time>2026-04-25T07:57:13.955Z</time></trkpt><trkpt lat="45.849445" lon="11.88718"><ele>231.5</ele><time>2026-04-25T07:57:14.955Z</time></trkpt><trkpt lat="45.8494533" lon="11.88735"><ele>230.75</ele><time>2026-04-25T07:57:15.954Z</time></trkpt><trkpt lat="45.84945" lon="11.8875133"><ele>230.0</ele><time>2026-04-25T07:57:16.956Z</time></trkpt><trkpt lat="45.84944" lon="11.8876683"><ele>229.6</ele><time>2026-04-25T07:57:17.956Z</time></trkpt><trkpt lat="45.8494183" lon="11.8878183"><ele>229.2</ele><time>2026-04-25T07:57:18.954Z</time></trkpt><trkpt lat="45.8493967" lon="11.88796"><ele>228.8</ele><time>2026-04-25T07:57:19.956Z</time></trkpt><trkpt lat="45.84938" lon="11.8880967"><ele>228.4</ele><time>2026-04-25T07:57:20.956Z</time></trkpt><trkpt lat="45.8493833" lon="11.8882267"><ele>228.0</ele><time>2026-04-25T07:57:21.955Z</time></trkpt><trkpt lat="45.8494083" lon="11.8883517"><ele>227.75</ele><time>2026-04-25T07:57:22.956Z</time></trkpt><trkpt lat="45.84949" lon="11.88846"><ele>227.5</ele><time>2026-04-25T07:57:23.955Z</time></trkpt><trkpt lat="45.8496233" lon="11.8885267"><ele>227.25</ele><time>2026-04-25T07:57:24.955Z</time></trkpt><trkpt lat="45.849745" lon="11.8886133"><ele>227.0</ele><time>2026-04-25T07:57:25.956Z</time></trkpt><trkpt lat="45.8498733" lon="11.8887117"><ele>227.0</ele><time>2026-04-25T07:57:26.953Z</time></trkpt><trkpt lat="45.849995" lon="11.8888317"><ele>227.0</ele><time>2026-04-25T07:57:27.955Z</time></trkpt><trkpt lat="45.8501117" lon="11.8889817"><ele>227.0</ele><time>2026-04-25T07:57:28.957Z</time></trkpt><trkpt lat="45.8502233" lon="11.8891533"><ele>226.33333333333334</ele><time>2026-04-25T07:57:29.955Z</time></trkpt><trkpt lat="45.8503283" lon="11.8893383"><ele>225.66666666666669</ele><time>2026-04-25T07:57:30.955Z</time></trkpt><trkpt lat="45.8504333" lon="11.8895317"><ele>225.0</ele><time>2026-04-25T07:57:31.956Z</time></trkpt><trkpt lat="45.850535" lon="11.889725"><ele>225.0</ele><time>2026-04-25T07:57:32.955Z</time></trkpt><trkpt lat="45.8506367" lon="11.8899117"><ele>225.0</ele><time>2026-04-25T07:57:33.956Z</time></trkpt><trkpt lat="45.8507367" lon="11.890095"><ele>225.0</ele><time>2026-04-25T07:57:34.956Z</time></trkpt><trkpt lat="45.850835" lon="11.8902733"><ele>224.66666666666669</ele><time>2026-04-25T07:57:35.956Z</time></trkpt><trkpt lat="45.8509333" lon="11.8904517"><ele>224.33333333333334</ele><time>2026-04-25T07:57:36.954Z</time></trkpt><trkpt lat="45.8510283" lon="11.8906333"><ele>224.0</ele><time>2026-04-25T07:57:37.955Z</time></trkpt><trkpt lat="45.8511267" lon="11.890815"><ele>222.66666666666669</ele><time>2026-04-25T07:57:38.954Z</time></trkpt><trkpt lat="45.8512217" lon="11.8910017"><ele>221.33333333333331</ele><time>2026-04-25T07:57:39.956Z</time></trkpt><trkpt lat="45.8513183" lon="11.8911883"><ele>220.0</ele><time>2026-04-25T07:57:40.957Z</time></trkpt><trkpt lat="45.8514133" lon="11.8913767"><ele>220.0</ele><time>2026-04-25T07:57:41.956Z</time></trkpt><trkpt lat="45.8515083" lon="11.89157"><ele>220.0</ele><time>2026-04-25T07:57:42.955Z</time></trkpt><trkpt lat="45.8516017" lon="11.8917633"><ele>220.0</ele><time>2026-04-25T07:57:43.956Z</time></trkpt><trkpt lat="45.85169" lon="11.89196"><ele>220.33333333333331</ele><time>2026-04-25T07:57:44.956Z</time></trkpt><trkpt lat="45.8517783" lon="11.8921567"><ele>220.66666666666669</ele><time>2026-04-25T07:57:45.955Z</time></trkpt><trkpt lat="45.8518583" lon="11.8923567"><ele>221.0</ele><time>2026-04-25T07:57:46.956Z</time></trkpt><trkpt lat="45.8519317" lon="11.89256"><ele>220.0</ele><time>2026-04-25T07:57:47.954Z</time></trkpt><trkpt lat="45.852" lon="11.8927683"><ele>219.0</ele><time>2026-04-25T07:57:48.955Z</time></trkpt><trkpt lat="45.8520617" lon="11.8929817"><ele>218.0</ele><time>2026-04-25T07:57:49.955Z</time></trkpt><trkpt lat="45.8521217" lon="11.8932"><ele>218.0</ele><time>2026-04-25T07:57:50.955Z</time></trkpt><trkpt lat="45.852175" lon="11.893415"><ele>218.0</ele><time>2026-04-25T07:57:51.954Z</time></trkpt><trkpt lat="45.8522267" lon="11.8936233"><ele>218.0</ele><time>2026-04-25T07:57:52.956Z</time></trkpt><trkpt lat="45.852275" lon="11.8938183"><ele>218.25</ele><time>2026-04-25T07:57:53.954Z</time></trkpt><trkpt lat="45.8523217" lon="11.894005"><ele>218.5</ele><time>2026-04-25T07:57:54.955Z</time></trkpt><trkpt lat="45.852365" lon="11.8941883"><ele>218.75</ele><time>2026-04-25T07:57:55.954Z</time></trkpt><trkpt lat="45.8524067" lon="11.894375"><ele>219.0</ele><time>2026-04-25T07:57:56.956Z</time></trkpt><trkpt lat="45.85245" lon="11.8945717"><ele>219.0</ele><time>2026-04-25T07:57:57.955Z</time></trkpt><trkpt lat="45.8524967" lon="11.89478"><ele>219.0</ele><time>2026-04-25T07:57:58.956Z</time></trkpt><trkpt lat="45.852545" lon="11.8950017"><ele>219.0</ele><time>2026-04-25T07:57:59.956Z</time></trkpt><trkpt lat="45.8525967" lon="11.895235"><ele>218.66666666666669</ele><time>2026-04-25T07:58:00.955Z</time></trkpt><trkpt lat="45.8526517" lon="11.8954783"><ele>218.33333333333334</ele><time>2026-04-25T07:58:01.956Z</time></trkpt><trkpt lat="45.8527033" lon="11.895725"><ele>218.0</ele><time>2026-04-25T07:58:02.955Z</time></trkpt><trkpt lat="45.8527533" lon="11.8959617"><ele>218.0</ele><time>2026-04-25T07:58:03.956Z</time></trkpt><trkpt lat="45.8528033" lon="11.896185"><ele>218.0</ele><time>2026-04-25T07:58:04.956Z</time></trkpt><trkpt lat="45.852855" lon="11.8964033"><ele>218.0</ele><time>2026-04-25T07:58:05.955Z</time></trkpt><trkpt lat="45.8529033" lon="11.8966167"><ele>218.0</ele><time>2026-04-25T07:58:06.955Z</time></trkpt><trkpt lat="45.8529533" lon="11.8968233"><ele>218.0</ele><time>2026-04-25T07:58:07.956Z</time></trkpt><trkpt lat="45.8529967" lon="11.8970233"><ele>218.0</ele><time>2026-04-25T07:58:08.955Z</time></trkpt><trkpt lat="45.8530383" lon="11.89722"><ele>218.0</ele><time>2026-04-25T07:58:09.954Z</time></trkpt><trkpt lat="45.8530783" lon="11.89742"><ele>217.25</ele><time>2026-04-25T07:58:10.955Z</time></trkpt><trkpt lat="45.85312" lon="11.897615"><ele>216.5</ele><time>2026-04-25T07:58:11.956Z</time></trkpt><trkpt lat="45.85316" lon="11.897815"><ele>215.75</ele><time>2026-04-25T07:58:12.955Z</time></trkpt><trkpt lat="45.8532033" lon="11.8980183"><ele>215.0</ele><time>2026-04-25T07:58:13.955Z</time></trkpt><trkpt lat="45.85325" lon="11.8982233"><ele>214.66666666666669</ele><time>2026-04-25T07:58:14.954Z</time></trkpt><trkpt lat="45.8532967" lon="11.8984317"><ele>214.33333333333331</ele><time>2026-04-25T07:58:15.955Z</time></trkpt><trkpt lat="45.8533467" lon="11.8986517"><ele>214.0</ele><time>2026-04-25T07:58:16.956Z</time></trkpt><trkpt lat="45.8533967" lon="11.8988767"><ele>214.0</ele><time>2026-04-25T07:58:17.956Z</time></trkpt><trkpt lat="45.8534467" lon="11.89911"><ele>214.0</ele><time>2026-04-25T07:58:18.955Z</time></trkpt><trkpt lat="45.8534967" lon="11.8993533"><ele>214.0</ele><time>2026-04-25T07:58:19.955Z</time></trkpt><trkpt lat="45.8535433" lon="11.8996083"><ele>214.66666666666666</ele><time>2026-04-25T07:58:20.956Z</time></trkpt><trkpt lat="45.8535833" lon="11.8998717"><ele>215.33333333333331</ele><time>2026-04-25T07:58:21.955Z</time></trkpt><trkpt lat="45.8536167" lon="11.900135"><ele>216.0</ele><time>2026-04-25T07:58:22.956Z</time></trkpt><trkpt lat="45.85364" lon="11.9003967"><ele>216.0</ele><time>2026-04-25T07:58:23.955Z</time></trkpt><trkpt lat="45.8536533" lon="11.900655"><ele>216.0</ele><time>2026-04-25T07:58:24.955Z</time></trkpt><trkpt lat="45.8536633" lon="11.900905"><ele>216.0</ele><time>2026-04-25T07:58:25.956Z</time></trkpt><trkpt lat="45.8536683" lon="11.9011533"><ele>215.33333333333331</ele><time>2026-04-25T07:58:26.956Z</time></trkpt><trkpt lat="45.8536567" lon="11.901405"><ele>214.66666666666666</ele><time>2026-04-25T07:58:27.956Z</time></trkpt><trkpt lat="45.8536383" lon="11.9016667"><ele>214.0</ele><time>2026-04-25T07:58:28.956Z</time></trkpt><trkpt lat="45.8536117" lon="11.9019317"><ele>213.66666666666666</ele><time>2026-04-25T07:58:29.955Z</time></trkpt><trkpt lat="45.8535817" lon="11.902195"><ele>213.33333333333331</ele><time>2026-04-25T07:58:30.956Z</time></trkpt><trkpt lat="45.853555" lon="11.90246"><ele>213.0</ele><time>2026-04-25T07:58:31.956Z</time></trkpt><trkpt lat="45.8535317" lon="11.9027217"><ele>213.0</ele><time>2026-04-25T07:58:32.957Z</time></trkpt><trkpt lat="45.85351" lon="11.9029783"><ele>213.0</ele><time>2026-04-25T07:58:33.955Z</time></trkpt><trkpt lat="45.8534917" lon="11.9032267"><ele>213.0</ele><time>2026-04-25T07:58:34.956Z</time></trkpt><trkpt lat="45.853475" lon="11.9034717"><ele>212.33333333333331</ele><time>2026-04-25T07:58:35.955Z</time></trkpt><trkpt lat="45.85347" lon="11.9037217"><ele>211.66666666666666</ele><time>2026-04-25T07:58:36.955Z</time></trkpt><trkpt lat="45.8534733" lon="11.9039833"><ele>211.0</ele><time>2026-04-25T07:58:37.956Z</time></trkpt><trkpt lat="45.8534867" lon="11.9042533"><ele>210.33333333333331</ele><time>2026-04-25T07:58:38.955Z</time></trkpt><trkpt lat="45.8535117" lon="11.9045367"><ele>209.66666666666669</ele><time>2026-04-25T07:58:39.955Z</time></trkpt><trkpt lat="45.853545" lon="11.904825"><ele>209.0</ele><time>2026-04-25T07:58:40.957Z</time></trkpt><trkpt lat="45.8535817" lon="11.9051083"><ele>208.66666666666669</ele><time>2026-04-25T07:58:41.955Z</time></trkpt><trkpt lat="45.8536217" lon="11.9053783"><ele>208.33333333333331</ele><time>2026-04-25T07:58:42.957Z</time></trkpt><trkpt lat="45.85366" lon="11.905645"><ele>208.0</ele><time>2026-04-25T07:58:43.956Z</time></trkpt><trkpt lat="45.8536983" lon="11.9059133"><ele>208.0</ele><time>2026-04-25T07:58:44.955Z</time></trkpt><trkpt lat="45.8537367" lon="11.9061817"><ele>208.0</ele><time>2026-04-25T07:58:45.955Z</time></trkpt><trkpt lat="45.853775" lon="11.9064433"><ele>208.0</ele><time>2026-04-25T07:58:46.956Z</time></trkpt><trkpt lat="45.8538083" lon="11.9066983"><ele>208.0</ele><time>2026-04-25T07:58:47.956Z</time></trkpt><trkpt lat="45.853845" lon="11.9069467"><ele>208.0</ele><time>2026-04-25T07:58:48.955Z</time></trkpt><trkpt lat="45.8538833" lon="11.9072"><ele>208.0</ele><time>2026-04-25T07:58:49.957Z</time></trkpt><trkpt lat="45.8539217" lon="11.90746"><ele>207.66666666666666</ele><time>2026-04-25T07:58:50.955Z</time></trkpt><trkpt lat="45.8539533" lon="11.9077267"><ele>207.33333333333331</ele><time>2026-04-25T07:58:51.955Z</time></trkpt><trkpt lat="45.8539767" lon="11.90799"><ele>207.0</ele><time>2026-04-25T07:58:52.956Z</time></trkpt><trkpt lat="45.85399" lon="11.9082517"><ele>206.66666666666669</ele><time>2026-04-25T07:58:53.955Z</time></trkpt><trkpt lat="45.853995" lon="11.9085167"><ele>206.33333333333334</ele><time>2026-04-25T07:58:54.956Z</time></trkpt><trkpt lat="45.8539933" lon="11.90879"><ele>206.0</ele><time>2026-04-25T07:58:55.956Z</time></trkpt><trkpt lat="45.853985" lon="11.909085"><ele>205.0</ele><time>2026-04-25T07:58:56.956Z</time></trkpt><trkpt lat="45.8539633" lon="11.90941"><ele>204.0</ele><time>2026-04-25T07:58:57.955Z</time></trkpt><trkpt lat="45.8539317" lon="11.9097733"><ele>204.0</ele><time>2026-04-25T07:58:58.956Z</time></trkpt><trkpt lat="45.853895" lon="11.9101683"><ele>204.0</ele><time>2026-04-25T07:58:59.96Z</time></trkpt><trkpt lat="45.8538483" lon="11.9105933"><ele>203.5</ele><time>2026-04-25T07:59:00.956Z</time></trkpt><trkpt lat="45.8537917" lon="11.9110383"><ele>203.0</ele><time>2026-04-25T07:59:01.956Z</time></trkpt><trkpt lat="45.8537333" lon="11.911485"><ele>203.0</ele><time>2026-04-25T07:59:02.956Z</time></trkpt><trkpt lat="45.8536817" lon="11.911915"><ele>203.0</ele><time>2026-04-25T07:59:03.956Z</time></trkpt><trkpt lat="45.8536333" lon="11.9123233"><ele>202.0</ele><time>2026-04-25T07:59:04.955Z</time></trkpt><trkpt lat="45.85359" lon="11.9127117"><ele>201.0</ele><time>2026-04-25T07:59:05.956Z</time></trkpt><trkpt lat="45.8535533" lon="11.9130883"><ele>201.5</ele><time>2026-04-25T07:59:06.957Z</time></trkpt><trkpt lat="45.8535317" lon="11.9134617"><ele>202.0</ele><time>2026-04-25T07:59:07.957Z</time></trkpt><trkpt lat="45.853525" lon="11.9138267"><ele>202.0</ele><time>2026-04-25T07:59:08.955Z</time></trkpt><trkpt lat="45.8535383" lon="11.914185"><ele>202.0</ele><time>2026-04-25T07:59:09.956Z</time></trkpt><trkpt lat="45.853565" lon="11.9145283"><ele>202.0</ele><time>2026-04-25T07:59:10.956Z</time></trkpt><trkpt lat="45.8536017" lon="11.9148633"><ele>202.0</ele><time>2026-04-25T07:59:11.955Z</time></trkpt><trkpt lat="45.8536517" lon="11.9151933"><ele>201.0</ele><time>2026-04-25T07:59:12.955Z</time></trkpt><trkpt lat="45.8537183" lon="11.9155183"><ele>200.0</ele><time>2026-04-25T07:59:13.956Z</time></trkpt><trkpt lat="45.8537967" lon="11.9158383"><ele>200.0</ele><time>2026-04-25T07:59:14.955Z</time></trkpt><trkpt lat="45.8538817" lon="11.9161583"><ele>200.0</ele><time>2026-04-25T07:59:15.956Z</time></trkpt><trkpt lat="45.853975" lon="11.9164833"><ele>199.0</ele><time>2026-04-25T07:59:16.955Z</time></trkpt><trkpt lat="45.8540717" lon="11.916805"><ele>198.0</ele><time>2026-04-25T07:59:17.955Z</time></trkpt><trkpt lat="45.854165" lon="11.91713"><ele>198.0</ele><time>2026-04-25T07:59:18.956Z</time></trkpt><trkpt lat="45.8542583" lon="11.917455"><ele>198.0</ele><time>2026-04-25T07:59:19.956Z</time></trkpt><trkpt lat="45.85435" lon="11.9177783"><ele>198.5</ele><time>2026-04-25T07:59:20.956Z</time></trkpt><trkpt lat="45.85444" lon="11.918095"><ele>199.0</ele><time>2026-04-25T07:59:21.956Z</time></trkpt><trkpt lat="45.8545267" lon="11.9184033"><ele>199.5</ele><time>2026-04-25T07:59:22.956Z</time></trkpt><trkpt lat="45.8546133" lon="11.9187067"><ele>200.0</ele><time>2026-04-25T07:59:23.955Z</time></trkpt><trkpt lat="45.8547" lon="11.91901"><ele>199.5</ele><time>2026-04-25T07:59:24.956Z</time></trkpt><trkpt lat="45.8547867" lon="11.9193117"><ele>199.0</ele><time>2026-04-25T07:59:25.957Z</time></trkpt><trkpt lat="45.8548733" lon="11.91961"><ele>199.0</ele><time>2026-04-25T07:59:26.956Z</time></trkpt><trkpt lat="45.8549567" lon="11.9199033"><ele>199.0</ele><time>2026-04-25T07:59:27.956Z</time></trkpt><trkpt lat="45.85504" lon="11.9201917"><ele>199.0</ele><time>2026-04-25T07:59:28.955Z</time></trkpt><trkpt lat="45.8551183" lon="11.92047"><ele>199.33333333333331</ele><time>2026-04-25T07:59:29.956Z</time></trkpt><trkpt lat="45.855195" lon="11.9207333"><ele>199.66666666666669</ele><time>2026-04-25T07:59:30.955Z</time></trkpt><trkpt lat="45.855265" lon="11.9209833"><ele>200.0</ele><time>2026-04-25T07:59:31.955Z</time></trkpt><trkpt lat="45.85533" lon="11.921225"><ele>199.33333333333334</ele><time>2026-04-25T07:59:32.954Z</time></trkpt><trkpt lat="45.855395" lon="11.9214617"><ele>198.66666666666669</ele><time>2026-04-25T07:59:33.955Z</time></trkpt><trkpt lat="45.85546" lon="11.9217033"><ele>198.0</ele><time>2026-04-25T07:59:34.955Z</time></trkpt><trkpt lat="45.8555283" lon="11.92194"><ele>197.33333333333331</ele><time>2026-04-25T07:59:35.955Z</time></trkpt><trkpt lat="45.8555967" lon="11.9221717"><ele>196.66666666666666</ele><time>2026-04-25T07:59:36.955Z</time></trkpt><trkpt lat="45.855665" lon="11.9224017"><ele>196.0</ele><time>2026-04-25T07:59:37.955Z</time></trkpt><trkpt lat="45.8557317" lon="11.9226317"><ele>195.0</ele><time>2026-04-25T07:59:38.958Z</time></trkpt><trkpt lat="45.8557967" lon="11.92286"><ele>194.0</ele><time>2026-04-25T07:59:39.955Z</time></trkpt><trkpt lat="45.8558617" lon="11.923085"><ele>193.0</ele><time>2026-04-25T07:59:40.955Z</time></trkpt><trkpt lat="45.8559283" lon="11.9233117"><ele>194.66666666666666</ele><time>2026-04-25T07:59:41.956Z</time></trkpt><trkpt lat="45.8559933" lon="11.9235383"><ele>196.33333333333331</ele><time>2026-04-25T07:59:42.955Z</time></trkpt><trkpt lat="45.8560567" lon="11.923765"><ele>198.0</ele><time>2026-04-25T07:59:43.956Z</time></trkpt><trkpt lat="45.8561217" lon="11.9239933"><ele>198.0</ele><time>2026-04-25T07:59:44.955Z</time></trkpt><trkpt lat="45.8561867" lon="11.9242167"><ele>198.0</ele><time>2026-04-25T07:59:45.954Z</time></trkpt><trkpt lat="45.8562517" lon="11.9244367"><ele>198.0</ele><time>2026-04-25T07:59:46.956Z</time></trkpt><trkpt lat="45.856315" lon="11.9246567"><ele>196.66666666666669</ele><time>2026-04-25T07:59:47.955Z</time></trkpt><trkpt lat="45.856375" lon="11.9248717"><ele>195.33333333333334</ele><time>2026-04-25T07:59:48.956Z</time></trkpt><trkpt lat="45.856435" lon="11.9250767"><ele>194.0</ele><time>2026-04-25T07:59:49.954Z</time></trkpt><trkpt lat="45.85649" lon="11.9252683"><ele>193.25</ele><time>2026-04-25T07:59:50.955Z</time></trkpt><trkpt lat="45.8565433" lon="11.9254533"><ele>192.5</ele><time>2026-04-25T07:59:51.956Z</time></trkpt><trkpt lat="45.8565967" lon="11.9256417"><ele>191.75</ele><time>2026-04-25T07:59:52.956Z</time></trkpt><trkpt lat="45.85665" lon="11.9258383"><ele>191.0</ele><time>2026-04-25T07:59:53.956Z</time></trkpt><trkpt lat="45.8567017" lon="11.9260383"><ele>191.0</ele><time>2026-04-25T07:59:54.956Z</time></trkpt><trkpt lat="45.8567517" lon="11.9262417"><ele>191.0</ele><time>2026-04-25T07:59:55.955Z</time></trkpt><trkpt lat="45.856805" lon="11.92645"><ele>191.0</ele><time>2026-04-25T07:59:56.957Z</time></trkpt><trkpt lat="45.8568583" lon="11.9266633"><ele>192.0</ele><time>2026-04-25T07:59:57.957Z</time></trkpt><trkpt lat="45.8569133" lon="11.9268817"><ele>193.0</ele><time>2026-04-25T07:59:58.956Z</time></trkpt><trkpt lat="45.8569667" lon="11.9271017"><ele>194.0</ele><time>2026-04-25T07:59:59.955Z</time></trkpt><trkpt lat="45.8570217" lon="11.9273233"><ele>194.0</ele><time>2026-04-25T08:00:00.956Z</time></trkpt><trkpt lat="45.8570783" lon="11.9275483"><ele>194.0</ele><time>2026-04-25T08:00:01.956Z</time></trkpt><trkpt lat="45.8571383" lon="11.9277817"><ele>194.0</ele><time>2026-04-25T08:00:02.955Z</time></trkpt><trkpt lat="45.8572" lon="11.9280217"><ele>193.66666666666669</ele><time>2026-04-25T08:00:03.956Z</time></trkpt><trkpt lat="45.85726" lon="11.9282667"><ele>193.33333333333331</ele><time>2026-04-25T08:00:04.956Z</time></trkpt><trkpt lat="45.8573217" lon="11.9285167"><ele>193.0</ele><time>2026-04-25T08:00:05.954Z</time></trkpt><trkpt lat="45.857385" lon="11.9287733"><ele>193.0</ele><time>2026-04-25T08:00:06.957Z</time></trkpt><trkpt lat="45.85745" lon="11.929035"><ele>193.0</ele><time>2026-04-25T08:00:07.956Z</time></trkpt><trkpt lat="45.8575167" lon="11.9293033"><ele>193.0</ele><time>2026-04-25T08:00:08.955Z</time></trkpt><trkpt lat="45.8575817" lon="11.92957"><ele>192.0</ele><time>2026-04-25T08:00:09.956Z</time></trkpt><trkpt lat="45.8576433" lon="11.9298317"><ele>191.0</ele><time>2026-04-25T08:00:10.957Z</time></trkpt><trkpt lat="45.857705" lon="11.9300867"><ele>190.0</ele><time>2026-04-25T08:00:11.954Z</time></trkpt><trkpt lat="45.857765" lon="11.9303367"><ele>190.0</ele><time>2026-04-25T08:00:12.955Z</time></trkpt><trkpt lat="45.8578233" lon="11.930585"><ele>190.0</ele><time>2026-04-25T08:00:13.956Z</time></trkpt><trkpt lat="45.857885" lon="11.9308283"><ele>190.0</ele><time>2026-04-25T08:00:14.956Z</time></trkpt><trkpt lat="45.8579467" lon="11.93107"><ele>190.0</ele><time>2026-04-25T08:00:15.956Z</time></trkpt><trkpt lat="45.8580117" lon="11.9313167"><ele>190.0</ele><time>2026-04-25T08:00:16.956Z</time></trkpt><trkpt lat="45.858075" lon="11.9315617"><ele>190.0</ele><time>2026-04-25T08:00:17.955Z</time></trkpt><trkpt lat="45.8581383" lon="11.9318083"><ele>190.0</ele><time>2026-04-25T08:00:18.955Z</time></trkpt><trkpt lat="45.8582033" lon="11.9320567"><ele>190.0</ele><time>2026-04-25T08:00:19.955Z</time></trkpt><trkpt lat="45.8582667" lon="11.9323083"><ele>190.0</ele><time>2026-04-25T08:00:20.955Z</time></trkpt><trkpt lat="45.8583317" lon="11.9325617"><ele>189.33333333333334</ele><time>2026-04-25T08:00:21.955Z</time></trkpt><trkpt lat="45.858395" lon="11.932815"><ele>188.66666666666666</ele><time>2026-04-25T08:00:22.955Z</time></trkpt><trkpt lat="45.8584517" lon="11.933055"><ele>188.0</ele><time>2026-04-25T08:00:23.956Z</time></trkpt><trkpt lat="45.8585033" lon="11.9332783"><ele>187.66666666666666</ele><time>2026-04-25T08:00:24.955Z</time></trkpt><trkpt lat="45.858555" lon="11.9334883"><ele>187.33333333333334</ele><time>2026-04-25T08:00:25.955Z</time></trkpt><trkpt lat="45.8586067" lon="11.9336983"><ele>187.0</ele><time>2026-04-25T08:00:26.954Z</time></trkpt><trkpt lat="45.8586583" lon="11.93391"><ele>187.0</ele><time>2026-04-25T08:00:27.955Z</time></trkpt><trkpt lat="45.8587117" lon="11.9341233"><ele>187.0</ele><time>2026-04-25T08:00:28.955Z</time></trkpt><trkpt lat="45.858765" lon="11.934345"><ele>187.0</ele><time>2026-04-25T08:00:29.954Z</time></trkpt><trkpt lat="45.85882" lon="11.93457"><ele>187.0</ele><time>2026-04-25T08:00:30.957Z</time></trkpt><trkpt lat="45.8588767" lon="11.9347967"><ele>187.0</ele><time>2026-04-25T08:00:31.956Z</time></trkpt><trkpt lat="45.858935" lon="11.9350267"><ele>187.0</ele><time>2026-04-25T08:00:32.958Z</time></trkpt><trkpt lat="45.858995" lon="11.9352667"><ele>186.66666666666669</ele><time>2026-04-25T08:00:33.955Z</time></trkpt><trkpt lat="45.8590583" lon="11.9355133"><ele>186.33333333333334</ele><time>2026-04-25T08:00:34.956Z</time></trkpt><trkpt lat="45.8591233" lon="11.9357683"><ele>186.0</ele><time>2026-04-25T08:00:35.956Z</time></trkpt><trkpt lat="45.8591917" lon="11.936035"><ele>185.66666666666666</ele><time>2026-04-25T08:00:36.955Z</time></trkpt><trkpt lat="45.8592633" lon="11.936315"><ele>185.33333333333331</ele><time>2026-04-25T08:00:37.956Z</time></trkpt><trkpt lat="45.8593317" lon="11.936595"><ele>185.0</ele><time>2026-04-25T08:00:38.955Z</time></trkpt><trkpt lat="45.859395" lon="11.9368667"><ele>185.33333333333331</ele><time>2026-04-25T08:00:39.956Z</time></trkpt><trkpt lat="45.85946" lon="11.9371317"><ele>185.66666666666666</ele><time>2026-04-25T08:00:40.955Z</time></trkpt><trkpt lat="45.8595283" lon="11.9373967"><ele>186.0</ele><time>2026-04-25T08:00:41.955Z</time></trkpt><trkpt lat="45.8595983" lon="11.9376683"><ele>186.0</ele><time>2026-04-25T08:00:42.956Z</time></trkpt><trkpt lat="45.859665" lon="11.9379517"><ele>186.0</ele><time>2026-04-25T08:00:43.956Z</time></trkpt><trkpt lat="45.8597417" lon="11.9382583"><ele>186.0</ele><time>2026-04-25T08:00:44.955Z</time></trkpt><trkpt lat="45.8598267" lon="11.9385833"><ele>185.5</ele><time>2026-04-25T08:00:45.955Z</time></trkpt><trkpt lat="45.8599217" lon="11.9389267"><ele>185.0</ele><time>2026-04-25T08:00:46.955Z</time></trkpt><trkpt lat="45.8600183" lon="11.9392783"><ele>186.0</ele><time>2026-04-25T08:00:47.955Z</time></trkpt><trkpt lat="45.86011" lon="11.9396317"><ele>187.0</ele><time>2026-04-25T08:00:48.955Z</time></trkpt><trkpt lat="45.8601917" lon="11.9399717"><ele>187.0</ele><time>2026-04-25T08:00:49.956Z</time></trkpt><trkpt lat="45.8602683" lon="11.9403"><ele>187.0</ele><time>2026-04-25T08:00:50.955Z</time></trkpt><trkpt lat="45.8603467" lon="11.94063"><ele>186.0</ele><time>2026-04-25T08:00:51.956Z</time></trkpt><trkpt lat="45.8604267" lon="11.9409567"><ele>185.0</ele><time>2026-04-25T08:00:52.956Z</time></trkpt><trkpt lat="45.8605133" lon="11.9412783"><ele>185.0</ele><time>2026-04-25T08:00:53.955Z</time></trkpt><trkpt lat="45.8606067" lon="11.94159"><ele>185.0</ele><time>2026-04-25T08:00:54.954Z</time></trkpt><trkpt lat="45.8607033" lon="11.9418917"><ele>185.5</ele><time>2026-04-25T08:00:55.955Z</time></trkpt><trkpt lat="45.8608033" lon="11.94219"><ele>186.0</ele><time>2026-04-25T08:00:56.955Z</time></trkpt><trkpt lat="45.8609083" lon="11.9424833"><ele>186.33333333333334</ele><time>2026-04-25T08:00:57.955Z</time></trkpt><trkpt lat="45.8610183" lon="11.9427667"><ele>186.66666666666669</ele><time>2026-04-25T08:00:58.956Z</time></trkpt><trkpt lat="45.86113" lon="11.9430383"><ele>187.0</ele><time>2026-04-25T08:00:59.955Z</time></trkpt><trkpt lat="45.861245" lon="11.9433"><ele>187.0</ele><time>2026-04-25T08:01:00.955Z</time></trkpt><trkpt lat="45.8613583" lon="11.9435467"><ele>187.0</ele><time>2026-04-25T08:01:01.957Z</time></trkpt><trkpt lat="45.86147" lon="11.9437817"><ele>187.0</ele><time>2026-04-25T08:01:02.954Z</time></trkpt><trkpt lat="45.8615867" lon="11.944015"><ele>187.0</ele><time>2026-04-25T08:01:03.956Z</time></trkpt><trkpt lat="45.8617033" lon="11.9442433"><ele>187.0</ele><time>2026-04-25T08:01:04.957Z</time></trkpt><trkpt lat="45.8618233" lon="11.944465"><ele>187.0</ele><time>2026-04-25T08:01:05.955Z</time></trkpt><trkpt lat="45.8619467" lon="11.9446817"><ele>187.0</ele><time>2026-04-25T08:01:06.956Z</time></trkpt><trkpt lat="45.8620783" lon="11.9449"><ele>187.0</ele><time>2026-04-25T08:01:07.956Z</time></trkpt><trkpt lat="45.862215" lon="11.9451217"><ele>187.0</ele><time>2026-04-25T08:01:08.955Z</time></trkpt><trkpt lat="45.8623533" lon="11.945345"><ele>187.33333333333334</ele><time>2026-04-25T08:01:09.956Z</time></trkpt><trkpt lat="45.8624933" lon="11.945575"><ele>187.66666666666666</ele><time>2026-04-25T08:01:10.957Z</time></trkpt><trkpt lat="45.8626383" lon="11.94581"><ele>188.0</ele><time>2026-04-25T08:01:11.955Z</time></trkpt><trkpt lat="45.86279" lon="11.946055"><ele>188.5</ele><time>2026-04-25T08:01:12.955Z</time></trkpt><trkpt lat="45.8629533" lon="11.946315"><ele>189.0</ele><time>2026-04-25T08:01:13.955Z</time></trkpt><trkpt lat="45.86313" lon="11.9465933"><ele>189.5</ele><time>2026-04-25T08:01:14.954Z</time></trkpt><trkpt lat="45.8633167" lon="11.9468933"><ele>190.0</ele><time>2026-04-25T08:01:15.954Z</time></trkpt><trkpt lat="45.8635083" lon="11.9472167"><ele>190.5</ele><time>2026-04-25T08:01:16.956Z</time></trkpt><trkpt lat="45.8636983" lon="11.9475433"><ele>191.0</ele><time>2026-04-25T08:01:17.955Z</time></trkpt><trkpt lat="45.8638833" lon="11.94786"><ele>190.0</ele><time>2026-04-25T08:01:18.955Z</time></trkpt><trkpt lat="45.864065" lon="11.948165"><ele>189.0</ele><time>2026-04-25T08:01:19.956Z</time></trkpt><trkpt lat="45.86424" lon="11.9484517"><ele>189.5</ele><time>2026-04-25T08:01:20.959Z</time></trkpt><trkpt lat="45.864405" lon="11.948725"><ele>190.0</ele><time>2026-04-25T08:01:21.957Z</time></trkpt><trkpt lat="45.8645633" lon="11.9489833"><ele>190.5</ele><time>2026-04-25T08:01:22.955Z</time></trkpt><trkpt lat="45.864715" lon="11.9492333"><ele>191.0</ele><time>2026-04-25T08:01:23.954Z</time></trkpt><trkpt lat="45.8648667" lon="11.94948"><ele>191.0</ele><time>2026-04-25T08:01:24.957Z</time></trkpt><trkpt lat="45.8650167" lon="11.9497233"><ele>191.0</ele><time>2026-04-25T08:01:25.957Z</time></trkpt><trkpt lat="45.86517" lon="11.9499633"><ele>191.33333333333331</ele><time>2026-04-25T08:01:26.956Z</time></trkpt><trkpt lat="45.86532" lon="11.9502017"><ele>191.66666666666666</ele><time>2026-04-25T08:01:27.956Z</time></trkpt><trkpt lat="45.86547" lon="11.9504433"><ele>192.0</ele><time>2026-04-25T08:01:28.961Z</time></trkpt><trkpt lat="45.8656217" lon="11.950685"><ele>192.0</ele><time>2026-04-25T08:01:29.955Z</time></trkpt><trkpt lat="45.8657733" lon="11.9509267"><ele>192.0</ele><time>2026-04-25T08:01:30.956Z</time></trkpt><trkpt lat="45.86592" lon="11.951165"><ele>192.0</ele><time>2026-04-25T08:01:31.956Z</time></trkpt><trkpt lat="45.86606" lon="11.9513933"><ele>192.0</ele><time>2026-04-25T08:01:32.954Z</time></trkpt><trkpt lat="45.8661917" lon="11.9516083"><ele>192.0</ele><time>2026-04-25T08:01:33.957Z</time></trkpt><trkpt lat="45.866315" lon="11.9518067"><ele>192.0</ele><time>2026-04-25T08:01:34.955Z</time></trkpt><trkpt lat="45.866425" lon="11.9519867"><ele>192.0</ele><time>2026-04-25T08:01:35.954Z</time></trkpt><trkpt lat="45.8665267" lon="11.9521533"><ele>192.0</ele><time>2026-04-25T08:01:36.955Z</time></trkpt><trkpt lat="45.8666167" lon="11.95231"><ele>192.0</ele><time>2026-04-25T08:01:37.956Z</time></trkpt><trkpt lat="45.8667" lon="11.9524533"><ele>192.0</ele><time>2026-04-25T08:01:38.956Z</time></trkpt><trkpt lat="45.8667683" lon="11.95259"><ele>192.2</ele><time>2026-04-25T08:01:39.956Z</time></trkpt><trkpt lat="45.86682" lon="11.9527233"><ele>192.39999999999998</ele><time>2026-04-25T08:01:40.956Z</time></trkpt><trkpt lat="45.8668533" lon="11.9528567"><ele>192.60000000000002</ele><time>2026-04-25T08:01:41.955Z</time></trkpt><trkpt lat="45.86689" lon="11.9529967"><ele>192.8</ele><time>2026-04-25T08:01:42.955Z</time></trkpt><trkpt lat="45.8669417" lon="11.953135"><ele>193.0</ele><time>2026-04-25T08:01:43.954Z</time></trkpt><trkpt lat="45.86703" lon="11.9532533"><ele>193.0</ele><time>2026-04-25T08:01:44.955Z</time></trkpt><trkpt lat="45.8671517" lon="11.9533583"><ele>193.0</ele><time>2026-04-25T08:01:45.955Z</time></trkpt><trkpt lat="45.867295" lon="11.95349"><ele>193.0</ele><time>2026-04-25T08:01:46.956Z</time></trkpt><trkpt lat="45.8674433" lon="11.95367"><ele>193.0</ele><time>2026-04-25T08:01:47.955Z</time></trkpt><trkpt lat="45.86759" lon="11.9538917"><ele>193.0</ele><time>2026-04-25T08:01:48.954Z</time></trkpt><trkpt lat="45.8677367" lon="11.9541317"><ele>193.0</ele><time>2026-04-25T08:01:49.956Z</time></trkpt><trkpt lat="45.8678833" lon="11.95437"><ele>193.0</ele><time>2026-04-25T08:01:50.954Z</time></trkpt><trkpt lat="45.8680317" lon="11.9546083"><ele>193.0</ele><time>2026-04-25T08:01:51.955Z</time></trkpt><trkpt lat="45.8681783" lon="11.9548483"><ele>193.0</ele><time>2026-04-25T08:01:52.957Z</time></trkpt><trkpt lat="45.8683233" lon="11.9550883"><ele>193.33333333333331</ele><time>2026-04-25T08:01:53.956Z</time></trkpt><trkpt lat="45.8684683" lon="11.9553267"><ele>193.66666666666669</ele><time>2026-04-25T08:01:54.956Z</time></trkpt><trkpt lat="45.86861" lon="11.9555567"><ele>194.0</ele><time>2026-04-25T08:01:55.956Z</time></trkpt><trkpt lat="45.86875" lon="11.9557817"><ele>194.66666666666669</ele><time>2026-04-25T08:01:56.954Z</time></trkpt><trkpt lat="45.8688867" lon="11.9560067"><ele>195.33333333333331</ele><time>2026-04-25T08:01:57.956Z</time></trkpt><trkpt lat="45.8690233" lon="11.9562267"><ele>196.0</ele><time>2026-04-25T08:01:58.955Z</time></trkpt><trkpt lat="45.8691567" lon="11.9564467"><ele>196.33333333333331</ele><time>2026-04-25T08:01:59.956Z</time></trkpt><trkpt lat="45.86929" lon="11.9566683"><ele>196.66666666666669</ele><time>2026-04-25T08:02:00.955Z</time></trkpt><trkpt lat="45.8694183" lon="11.9568933"><ele>197.0</ele><time>2026-04-25T08:02:01.955Z</time></trkpt><trkpt lat="45.8695417" lon="11.957115"><ele>197.33333333333334</ele><time>2026-04-25T08:02:02.955Z</time></trkpt><trkpt lat="45.8696567" lon="11.9573317"><ele>197.66666666666669</ele><time>2026-04-25T08:02:03.956Z</time></trkpt><trkpt lat="45.869765" lon="11.9575483"><ele>198.0</ele><time>2026-04-25T08:02:04.956Z</time></trkpt><trkpt lat="45.8698733" lon="11.9577633"><ele>198.0</ele><time>2026-04-25T08:02:05.955Z</time></trkpt><trkpt lat="45.86998" lon="11.95798"><ele>198.0</ele><time>2026-04-25T08:02:06.955Z</time></trkpt><trkpt lat="45.8700833" lon="11.9582033"><ele>198.0</ele><time>2026-04-25T08:02:07.957Z</time></trkpt><trkpt lat="45.8701833" lon="11.9584317"><ele>197.33333333333331</ele><time>2026-04-25T08:02:08.956Z</time></trkpt><trkpt lat="45.8702817" lon="11.958665"><ele>196.66666666666666</ele><time>2026-04-25T08:02:09.957Z</time></trkpt><trkpt lat="45.8703767" lon="11.9589"><ele>196.0</ele><time>2026-04-25T08:02:10.956Z</time></trkpt><trkpt lat="45.8704683" lon="11.9591383"><ele>196.0</ele><time>2026-04-25T08:02:11.955Z</time></trkpt><trkpt lat="45.870555" lon="11.9593767"><ele>196.0</ele><time>2026-04-25T08:02:12.954Z</time></trkpt><trkpt lat="45.87064" lon="11.95961"><ele>196.0</ele><time>2026-04-25T08:02:13.956Z</time></trkpt><trkpt lat="45.8707217" lon="11.9598317"><ele>196.66666666666666</ele><time>2026-04-25T08:02:14.955Z</time></trkpt><trkpt lat="45.8708" lon="11.960045"><ele>197.33333333333331</ele><time>2026-04-25T08:02:15.955Z</time></trkpt><trkpt lat="45.870875" lon="11.9602567"><ele>198.0</ele><time>2026-04-25T08:02:16.955Z</time></trkpt><trkpt lat="45.8709517" lon="11.9604683"><ele>198.33333333333331</ele><time>2026-04-25T08:02:17.956Z</time></trkpt><trkpt lat="45.8710283" lon="11.9606767"><ele>198.66666666666666</ele><time>2026-04-25T08:02:18.955Z</time></trkpt><trkpt lat="45.8711017" lon="11.9608783"><ele>199.0</ele><time>2026-04-25T08:02:19.956Z</time></trkpt><trkpt lat="45.8711683" lon="11.9610683"><ele>197.5</ele><time>2026-04-25T08:02:20.955Z</time></trkpt><trkpt lat="45.8712317" lon="11.9612467"><ele>196.0</ele><time>2026-04-25T08:02:21.954Z</time></trkpt><trkpt lat="45.8712967" lon="11.9614267"><ele>194.5</ele><time>2026-04-25T08:02:22.956Z</time></trkpt><trkpt lat="45.8713633" lon="11.9616033"><ele>193.0</ele><time>2026-04-25T08:02:23.956Z</time></trkpt><trkpt lat="45.8714317" lon="11.9617883"><ele>191.33333333333331</ele><time>2026-04-25T08:02:24.955Z</time></trkpt><trkpt lat="45.8715033" lon="11.9619783"><ele>189.66666666666666</ele><time>2026-04-25T08:02:25.954Z</time></trkpt><trkpt lat="45.8715767" lon="11.9621717"><ele>188.0</ele><time>2026-04-25T08:02:26.956Z</time></trkpt><trkpt lat="45.87165" lon="11.96236"><ele>188.0</ele><time>2026-04-25T08:02:27.955Z</time></trkpt><trkpt lat="45.8717167" lon="11.9625383"><ele>188.0</ele><time>2026-04-25T08:02:28.956Z</time></trkpt><trkpt lat="45.8717817" lon="11.962715"><ele>188.0</ele><time>2026-04-25T08:02:29.955Z</time></trkpt><trkpt lat="45.8718467" lon="11.962895"><ele>188.0</ele><time>2026-04-25T08:02:30.955Z</time></trkpt><trkpt lat="45.8719117" lon="11.9630817"><ele>188.33333333333331</ele><time>2026-04-25T08:02:31.956Z</time></trkpt><trkpt lat="45.8719817" lon="11.9632783"><ele>188.66666666666666</ele><time>2026-04-25T08:02:32.955Z</time></trkpt><trkpt lat="45.8720567" lon="11.9634867"><ele>189.0</ele><time>2026-04-25T08:02:33.955Z</time></trkpt><trkpt lat="45.8721367" lon="11.9637017"><ele>187.66666666666666</ele><time>2026-04-25T08:02:34.956Z</time></trkpt><trkpt lat="45.87222" lon="11.9639183"><ele>186.33333333333331</ele><time>2026-04-25T08:02:35.955Z</time></trkpt><trkpt lat="45.87231" lon="11.9641383"><ele>185.0</ele><time>2026-04-25T08:02:36.956Z</time></trkpt><trkpt lat="45.87241" lon="11.9643533"><ele>185.0</ele><time>2026-04-25T08:02:37.956Z</time></trkpt><trkpt lat="45.87252" lon="11.9645617"><ele>185.0</ele><time>2026-04-25T08:02:38.956Z</time></trkpt><trkpt lat="45.8726417" lon="11.964765"><ele>185.0</ele><time>2026-04-25T08:02:39.956Z</time></trkpt><trkpt lat="45.87277" lon="11.9649583"><ele>181.66666666666666</ele><time>2026-04-25T08:02:40.957Z</time></trkpt><trkpt lat="45.872905" lon="11.9651417"><ele>178.33333333333334</ele><time>2026-04-25T08:02:41.956Z</time></trkpt><trkpt lat="45.8730467" lon="11.9653117"><ele>175.0</ele><time>2026-04-25T08:02:42.956Z</time></trkpt><trkpt lat="45.87319" lon="11.9654667"><ele>175.0</ele><time>2026-04-25T08:02:43.955Z</time></trkpt><trkpt lat="45.87333" lon="11.965605"><ele>175.0</ele><time>2026-04-25T08:02:44.955Z</time></trkpt><trkpt lat="45.8734567" lon="11.96572"><ele>175.0</ele><time>2026-04-25T08:02:45.956Z</time></trkpt><trkpt lat="45.8735783" lon="11.9658117"><ele>172.0</ele><time>2026-04-25T08:02:46.956Z</time></trkpt><trkpt lat="45.8737083" lon="11.9658783"><ele>169.0</ele><time>2026-04-25T08:02:47.954Z</time></trkpt><trkpt lat="45.8738433" lon="11.9659117"><ele>166.0</ele><time>2026-04-25T08:02:48.955Z</time></trkpt><trkpt lat="45.8739767" lon="11.9659183"><ele>163.0</ele><time>2026-04-25T08:02:49.954Z</time></trkpt><trkpt lat="45.8741017" lon="11.9658983"><ele>163.60000000000002</ele><time>2026-04-25T08:02:50.955Z</time></trkpt><trkpt lat="45.87421" lon="11.965845"><ele>164.20000000000002</ele><time>2026-04-25T08:02:51.954Z</time></trkpt><trkpt lat="45.8743083" lon="11.9657783"><ele>164.8</ele><time>2026-04-25T08:02:52.955Z</time></trkpt><trkpt lat="45.8743967" lon="11.9657017"><ele>165.4</ele><time>2026-04-25T08:02:53.956Z</time></trkpt><trkpt lat="45.8744717" lon="11.9656067"><ele>166.0</ele><time>2026-04-25T08:02:54.954Z</time></trkpt><trkpt lat="45.874535" lon="11.9655017"><ele>166.0</ele><time>2026-04-25T08:02:55.956Z</time></trkpt><trkpt lat="45.87458" lon="11.9653783"><ele>166.0</ele><time>2026-04-25T08:02:56.955Z</time></trkpt><trkpt lat="45.8746167" lon="11.9652467"><ele>166.0</ele><time>2026-04-25T08:02:57.954Z</time></trkpt><trkpt lat="45.8746417" lon="11.9651067"><ele>166.0</ele><time>2026-04-25T08:02:58.955Z</time></trkpt><trkpt lat="45.87466" lon="11.96497"><ele>166.0</ele><time>2026-04-25T08:02:59.956Z</time></trkpt><trkpt lat="45.8746733" lon="11.964845"><ele>167.16666666666669</ele><time>2026-04-25T08:03:00.955Z</time></trkpt><trkpt lat="45.8746917" lon="11.9647367"><ele>168.33333333333334</ele><time>2026-04-25T08:03:01.955Z</time></trkpt><trkpt lat="45.8747217" lon="11.9646467"><ele>169.5</ele><time>2026-04-25T08:03:02.955Z</time></trkpt><trkpt lat="45.874785" lon="11.9645117"><ele>170.66666666666666</ele><time>2026-04-25T08:03:04.956Z</time></trkpt><trkpt lat="45.8748283" lon="11.9644217"><ele>171.83333333333331</ele><time>2026-04-25T08:03:06.955Z</time></trkpt><trkpt lat="45.8748783" lon="11.96433"><ele>173.0</ele><time>2026-04-25T08:03:21.956Z</time></trkpt><trkpt lat="45.8749733" lon="11.9642283"><ele>174.4</ele><time>2026-04-25T08:03:23.955Z</time></trkpt><trkpt lat="45.8750483" lon="11.9641683"><ele>175.8</ele><time>2026-04-25T08:03:24.955Z</time></trkpt><trkpt lat="45.8751283" lon="11.9641133"><ele>177.2</ele><time>2026-04-25T08:03:25.955Z</time></trkpt><trkpt lat="45.875215" lon="11.9640567"><ele>178.6</ele><time>2026-04-25T08:03:26.955Z</time></trkpt><trkpt lat="45.8753067" lon="11.9639967"><ele>180.0</ele><time>2026-04-25T08:03:27.956Z</time></trkpt><trkpt lat="45.8754083" lon="11.9639367"><ele>180.0</ele><time>2026-04-25T08:03:28.956Z</time></trkpt><trkpt lat="45.8755183" lon="11.96387"><ele>180.0</ele><time>2026-04-25T08:03:29.955Z</time></trkpt><trkpt lat="45.8756333" lon="11.9637967"><ele>180.0</ele><time>2026-04-25T08:03:30.956Z</time></trkpt><trkpt lat="45.87575" lon="11.9637133"><ele>180.0</ele><time>2026-04-25T08:03:31.956Z</time></trkpt><trkpt lat="45.87587" lon="11.96364"><ele>178.0</ele><time>2026-04-25T08:03:32.955Z</time></trkpt><trkpt lat="45.87599" lon="11.9635767"><ele>176.0</ele><time>2026-04-25T08:03:33.955Z</time></trkpt><trkpt lat="45.876115" lon="11.9635217"><ele>174.0</ele><time>2026-04-25T08:03:34.956Z</time></trkpt><trkpt lat="45.8762517" lon="11.963475"><ele>172.0</ele><time>2026-04-25T08:03:35.955Z</time></trkpt><trkpt lat="45.8763933" lon="11.9634317"><ele>172.0</ele><time>2026-04-25T08:03:36.955Z</time></trkpt><trkpt lat="45.8765333" lon="11.9633933"><ele>172.0</ele><time>2026-04-25T08:03:37.955Z</time></trkpt><trkpt lat="45.8766717" lon="11.9633583"><ele>172.0</ele><time>2026-04-25T08:03:38.956Z</time></trkpt><trkpt lat="45.8768117" lon="11.9633283"><ele>172.0</ele><time>2026-04-25T08:03:39.956Z</time></trkpt><trkpt lat="45.8769517" lon="11.9633017"><ele>173.75</ele><time>2026-04-25T08:03:40.956Z</time></trkpt><trkpt lat="45.877095" lon="11.9632767"><ele>175.5</ele><time>2026-04-25T08:03:41.956Z</time></trkpt><trkpt lat="45.8772417" lon="11.96325"><ele>177.25</ele><time>2026-04-25T08:03:42.956Z</time></trkpt><trkpt lat="45.87739" lon="11.9632233"><ele>179.0</ele><time>2026-04-25T08:03:43.954Z</time></trkpt><trkpt lat="45.8775383" lon="11.9631917"><ele>178.75</ele><time>2026-04-25T08:03:44.955Z</time></trkpt><trkpt lat="45.8776883" lon="11.9631633"><ele>178.5</ele><time>2026-04-25T08:03:45.954Z</time></trkpt><trkpt lat="45.877835" lon="11.9631383"><ele>178.25</ele><time>2026-04-25T08:03:46.955Z</time></trkpt><trkpt lat="45.87798" lon="11.9631133"><ele>178.0</ele><time>2026-04-25T08:03:47.954Z</time></trkpt><trkpt lat="45.8781267" lon="11.9630833"><ele>178.0</ele><time>2026-04-25T08:03:48.955Z</time></trkpt><trkpt lat="45.8782717" lon="11.9630567"><ele>178.0</ele><time>2026-04-25T08:03:49.959Z</time></trkpt><trkpt lat="45.878415" lon="11.9630267"><ele>178.0</ele><time>2026-04-25T08:03:50.955Z</time></trkpt><trkpt lat="45.8785567" lon="11.9629933"><ele>178.0</ele><time>2026-04-25T08:03:51.956Z</time></trkpt><trkpt lat="45.8786967" lon="11.9629583"><ele>175.5</ele><time>2026-04-25T08:03:52.956Z</time></trkpt><trkpt lat="45.878835" lon="11.9629167"><ele>173.0</ele><time>2026-04-25T08:03:53.955Z</time></trkpt><trkpt lat="45.8789717" lon="11.9628733"><ele>170.5</ele><time>2026-04-25T08:03:54.955Z</time></trkpt><trkpt lat="45.8791117" lon="11.9628283"><ele>168.0</ele><time>2026-04-25T08:03:55.956Z</time></trkpt><trkpt lat="45.8792533" lon="11.96277"><ele>167.33333333333334</ele><time>2026-04-25T08:03:56.955Z</time></trkpt><trkpt lat="45.8793933" lon="11.962685"><ele>166.66666666666669</ele><time>2026-04-25T08:03:57.956Z</time></trkpt><trkpt lat="45.8795267" lon="11.962565"><ele>166.0</ele><time>2026-04-25T08:03:58.957Z</time></trkpt><trkpt lat="45.8796533" lon="11.96242"><ele>167.66666666666669</ele><time>2026-04-25T08:03:59.954Z</time></trkpt><trkpt lat="45.8797783" lon="11.962265"><ele>169.33333333333334</ele><time>2026-04-25T08:04:00.956Z</time></trkpt><trkpt lat="45.8799033" lon="11.9621117"><ele>171.0</ele><time>2026-04-25T08:04:01.956Z</time></trkpt><trkpt lat="45.8800233" lon="11.9619617"><ele>171.33333333333334</ele><time>2026-04-25T08:04:02.956Z</time></trkpt><trkpt lat="45.88014" lon="11.9618083"><ele>171.66666666666669</ele><time>2026-04-25T08:04:03.955Z</time></trkpt><trkpt lat="45.88026" lon="11.9616533"><ele>172.0</ele><time>2026-04-25T08:04:04.956Z</time></trkpt><trkpt lat="45.8803767" lon="11.96149"><ele>172.0</ele><time>2026-04-25T08:04:05.955Z</time></trkpt><trkpt lat="45.8805017" lon="11.961315"><ele>172.0</ele><time>2026-04-25T08:04:06.956Z</time></trkpt><trkpt lat="45.8806267" lon="11.9611283"><ele>172.0</ele><time>2026-04-25T08:04:07.954Z</time></trkpt><trkpt lat="45.8807483" lon="11.960925"><ele>173.33333333333334</ele><time>2026-04-25T08:04:08.956Z</time></trkpt><trkpt lat="45.8808683" lon="11.9607067"><ele>174.66666666666666</ele><time>2026-04-25T08:04:09.955Z</time></trkpt><trkpt lat="45.8809867" lon="11.9604783"><ele>176.0</ele><time>2026-04-25T08:04:10.955Z</time></trkpt><trkpt lat="45.881105" lon="11.9602433"><ele>173.33333333333331</ele><time>2026-04-25T08:04:11.955Z</time></trkpt><trkpt lat="45.881225" lon="11.96"><ele>170.66666666666666</ele><time>2026-04-25T08:04:12.955Z</time></trkpt><trkpt lat="45.8813467" lon="11.9597567"><ele>168.0</ele><time>2026-04-25T08:04:13.956Z</time></trkpt><trkpt lat="45.8814683" lon="11.9595133"><ele>168.0</ele><time>2026-04-25T08:04:14.956Z</time></trkpt><trkpt lat="45.8815917" lon="11.9592733"><ele>168.0</ele><time>2026-04-25T08:04:15.956Z</time></trkpt><trkpt lat="45.8817183" lon="11.9590383"><ele>168.0</ele><time>2026-04-25T08:04:16.955Z</time></trkpt><trkpt lat="45.881845" lon="11.9588083"><ele>168.33333333333334</ele><time>2026-04-25T08:04:17.956Z</time></trkpt><trkpt lat="45.8819717" lon="11.9585883"><ele>168.66666666666669</ele><time>2026-04-25T08:04:18.954Z</time></trkpt><trkpt lat="45.8821" lon="11.9583767"><ele>169.0</ele><time>2026-04-25T08:04:19.955Z</time></trkpt><trkpt lat="45.88223" lon="11.95817"><ele>169.0</ele><time>2026-04-25T08:04:20.955Z</time></trkpt><trkpt lat="45.8823617" lon="11.957965"><ele>169.0</ele><time>2026-04-25T08:04:21.956Z</time></trkpt><trkpt lat="45.8824933" lon="11.9577617"><ele>169.0</ele><time>2026-04-25T08:04:22.957Z</time></trkpt><trkpt lat="45.882625" lon="11.9575517"><ele>168.66666666666669</ele><time>2026-04-25T08:04:23.955Z</time></trkpt><trkpt lat="45.8827567" lon="11.957335"><ele>168.33333333333334</ele><time>2026-04-25T08:04:24.956Z</time></trkpt><trkpt lat="45.88289" lon="11.9571133"><ele>168.0</ele><time>2026-04-25T08:04:25.956Z</time></trkpt><trkpt lat="45.8830217" lon="11.9568883"><ele>170.33333333333334</ele><time>2026-04-25T08:04:26.954Z</time></trkpt><trkpt lat="45.8831533" lon="11.9566717"><ele>172.66666666666669</ele><time>2026-04-25T08:04:27.956Z</time></trkpt><trkpt lat="45.8832817" lon="11.9564633"><ele>175.0</ele><time>2026-04-25T08:04:28.956Z</time></trkpt><trkpt lat="45.883405" lon="11.95626"><ele>173.0</ele><time>2026-04-25T08:04:29.954Z</time></trkpt><trkpt lat="45.8835217" lon="11.9560617"><ele>171.0</ele><time>2026-04-25T08:04:30.955Z</time></trkpt><trkpt lat="45.883635" lon="11.9558667"><ele>169.0</ele><time>2026-04-25T08:04:31.956Z</time></trkpt><trkpt lat="45.8837483" lon="11.955675"><ele>169.0</ele><time>2026-04-25T08:04:32.954Z</time></trkpt><trkpt lat="45.88386" lon="11.9554833"><ele>169.0</ele><time>2026-04-25T08:04:33.956Z</time></trkpt><trkpt lat="45.8839717" lon="11.95529"><ele>169.0</ele><time>2026-04-25T08:04:34.956Z</time></trkpt><trkpt lat="45.8840833" lon="11.9550983"><ele>170.0</ele><time>2026-04-25T08:04:35.955Z</time></trkpt><trkpt lat="45.884195" lon="11.95491"><ele>171.0</ele><time>2026-04-25T08:04:36.956Z</time></trkpt><trkpt lat="45.8843033" lon="11.954725"><ele>172.0</ele><time>2026-04-25T08:04:37.956Z</time></trkpt><trkpt lat="45.88441" lon="11.9545367"><ele>172.0</ele><time>2026-04-25T08:04:38.955Z</time></trkpt><trkpt lat="45.8845133" lon="11.954335"><ele>172.0</ele><time>2026-04-25T08:04:39.956Z</time></trkpt><trkpt lat="45.8846083" lon="11.9541167"><ele>172.0</ele><time>2026-04-25T08:04:40.956Z</time></trkpt><trkpt lat="45.8846917" lon="11.95388"><ele>172.0</ele><time>2026-04-25T08:04:41.954Z</time></trkpt><trkpt lat="45.8847533" lon="11.95362"><ele>172.0</ele><time>2026-04-25T08:04:42.956Z</time></trkpt><trkpt lat="45.8848017" lon="11.9533433"><ele>172.0</ele><time>2026-04-25T08:04:43.956Z</time></trkpt><trkpt lat="45.88485" lon="11.9530567"><ele>173.66666666666669</ele><time>2026-04-25T08:04:44.954Z</time></trkpt><trkpt lat="45.8848967" lon="11.952765"><ele>175.33333333333334</ele><time>2026-04-25T08:04:45.957Z</time></trkpt><trkpt lat="45.8849483" lon="11.95248"><ele>177.0</ele><time>2026-04-25T08:04:46.956Z</time></trkpt><trkpt lat="45.8850033" lon="11.952195"><ele>179.33333333333334</ele><time>2026-04-25T08:04:47.956Z</time></trkpt><trkpt lat="45.8850567" lon="11.95191"><ele>181.66666666666669</ele><time>2026-04-25T08:04:48.955Z</time></trkpt><trkpt lat="45.8851083" lon="11.9516233"><ele>184.0</ele><time>2026-04-25T08:04:49.955Z</time></trkpt><trkpt lat="45.8851667" lon="11.9513483"><ele>178.0</ele><time>2026-04-25T08:04:50.956Z</time></trkpt><trkpt lat="45.8852233" lon="11.9510783"><ele>172.0</ele><time>2026-04-25T08:04:51.955Z</time></trkpt><trkpt lat="45.88528" lon="11.95081"><ele>166.0</ele><time>2026-04-25T08:04:52.956Z</time></trkpt><trkpt lat="45.8853383" lon="11.9505433"><ele>164.66666666666669</ele><time>2026-04-25T08:04:53.956Z</time></trkpt><trkpt lat="45.8854" lon="11.9502783"><ele>163.33333333333334</ele><time>2026-04-25T08:04:54.956Z</time></trkpt><trkpt lat="45.885465" lon="11.950015"><ele>162.0</ele><time>2026-04-25T08:04:55.956Z</time></trkpt><trkpt lat="45.885535" lon="11.949755"><ele>164.66666666666666</ele><time>2026-04-25T08:04:56.956Z</time></trkpt><trkpt lat="45.885615" lon="11.94951"><ele>167.33333333333331</ele><time>2026-04-25T08:04:57.957Z</time></trkpt><trkpt lat="45.8856983" lon="11.9492733"><ele>170.0</ele><time>2026-04-25T08:04:58.96Z</time></trkpt><trkpt lat="45.88578" lon="11.9490417"><ele>169.66666666666666</ele><time>2026-04-25T08:04:59.956Z</time></trkpt><trkpt lat="45.8858633" lon="11.9488167"><ele>169.33333333333334</ele><time>2026-04-25T08:05:00.958Z</time></trkpt><trkpt lat="45.8859517" lon="11.9485883"><ele>169.0</ele><time>2026-04-25T08:05:01.955Z</time></trkpt><trkpt lat="45.886045" lon="11.9483667"><ele>169.0</ele><time>2026-04-25T08:05:02.955Z</time></trkpt><trkpt lat="45.8861467" lon="11.94815"><ele>169.0</ele><time>2026-04-25T08:05:03.955Z</time></trkpt><trkpt lat="45.8862567" lon="11.9479367"><ele>169.0</ele><time>2026-04-25T08:05:04.956Z</time></trkpt><trkpt lat="45.8863717" lon="11.9477267"><ele>169.33333333333334</ele><time>2026-04-25T08:05:05.954Z</time></trkpt><trkpt lat="45.8864917" lon="11.947525"><ele>169.66666666666666</ele><time>2026-04-25T08:05:06.956Z</time></trkpt><trkpt lat="45.8866267" lon="11.9473367"><ele>170.0</ele><time>2026-04-25T08:05:07.955Z</time></trkpt><trkpt lat="45.8867717" lon="11.9471633"><ele>170.0</ele><time>2026-04-25T08:05:08.957Z</time></trkpt><trkpt lat="45.8869267" lon="11.94701"><ele>170.0</ele><time>2026-04-25T08:05:09.954Z</time></trkpt><trkpt lat="45.8870833" lon="11.9468667"><ele>170.0</ele><time>2026-04-25T08:05:10.956Z</time></trkpt><trkpt lat="45.88724" lon="11.9467217"><ele>170.0</ele><time>2026-04-25T08:05:11.954Z</time></trkpt><trkpt lat="45.8873967" lon="11.94658"><ele>170.0</ele><time>2026-04-25T08:05:12.955Z</time></trkpt><trkpt lat="45.8875467" lon="11.9464433"><ele>170.0</ele><time>2026-04-25T08:05:13.955Z</time></trkpt><trkpt lat="45.8876933" lon="11.9463083"><ele>170.0</ele><time>2026-04-25T08:05:14.956Z</time></trkpt><trkpt lat="45.8878417" lon="11.9461733"><ele>170.0</ele><time>2026-04-25T08:05:15.955Z</time></trkpt><trkpt lat="45.8879933" lon="11.9460383"><ele>170.0</ele><time>2026-04-25T08:05:16.956Z</time></trkpt><trkpt lat="45.8881467" lon="11.9459017"><ele>169.66666666666666</ele><time>2026-04-25T08:05:17.956Z</time></trkpt><trkpt lat="45.8883" lon="11.9457667"><ele>169.33333333333334</ele><time>2026-04-25T08:05:18.957Z</time></trkpt><trkpt lat="45.8884483" lon="11.9456333"><ele>169.0</ele><time>2026-04-25T08:05:19.957Z</time></trkpt><trkpt lat="45.8885983" lon="11.9455"><ele>169.0</ele><time>2026-04-25T08:05:20.957Z</time></trkpt><trkpt lat="45.888745" lon="11.9453683"><ele>169.0</ele><time>2026-04-25T08:05:21.96Z</time></trkpt><trkpt lat="45.8888933" lon="11.9452383"><ele>169.0</ele><time>2026-04-25T08:05:22.956Z</time></trkpt><trkpt lat="45.88904" lon="11.94511"><ele>170.66666666666669</ele><time>2026-04-25T08:05:23.957Z</time></trkpt><trkpt lat="45.8891867" lon="11.9449817"><ele>172.33333333333334</ele><time>2026-04-25T08:05:24.957Z</time></trkpt><trkpt lat="45.889335" lon="11.94485"><ele>174.0</ele><time>2026-04-25T08:05:25.958Z</time></trkpt><trkpt lat="45.889485" lon="11.9447083"><ele>174.0</ele><time>2026-04-25T08:05:26.956Z</time></trkpt><trkpt lat="45.889635" lon="11.944565"><ele>174.0</ele><time>2026-04-25T08:05:27.955Z</time></trkpt><trkpt lat="45.88978" lon="11.9444283"><ele>174.0</ele><time>2026-04-25T08:05:28.955Z</time></trkpt><trkpt lat="45.8899217" lon="11.9443"><ele>174.66666666666666</ele><time>2026-04-25T08:05:29.955Z</time></trkpt><trkpt lat="45.890065" lon="11.944185"><ele>175.33333333333331</ele><time>2026-04-25T08:05:30.955Z</time></trkpt><trkpt lat="45.89021" lon="11.94409"><ele>176.0</ele><time>2026-04-25T08:05:31.955Z</time></trkpt><trkpt lat="45.8903583" lon="11.944015"><ele>176.0</ele><time>2026-04-25T08:05:32.956Z</time></trkpt><trkpt lat="45.8905133" lon="11.9439617"><ele>176.0</ele><time>2026-04-25T08:05:33.955Z</time></trkpt><trkpt lat="45.8906767" lon="11.9439267"><ele>176.0</ele><time>2026-04-25T08:05:34.956Z</time></trkpt><trkpt lat="45.8908483" lon="11.9439"><ele>175.66666666666666</ele><time>2026-04-25T08:05:35.955Z</time></trkpt><trkpt lat="45.8910283" lon="11.9438733"><ele>175.33333333333334</ele><time>2026-04-25T08:05:36.954Z</time></trkpt><trkpt lat="45.8912117" lon="11.943845"><ele>175.0</ele><time>2026-04-25T08:05:37.955Z</time></trkpt><trkpt lat="45.8913983" lon="11.943815"><ele>175.0</ele><time>2026-04-25T08:05:38.955Z</time></trkpt><trkpt lat="45.8915883" lon="11.94378"><ele>175.0</ele><time>2026-04-25T08:05:39.955Z</time></trkpt><trkpt lat="45.8917817" lon="11.9437417"><ele>175.0</ele><time>2026-04-25T08:05:40.956Z</time></trkpt><trkpt lat="45.891975" lon="11.943695"><ele>175.33333333333334</ele><time>2026-04-25T08:05:41.955Z</time></trkpt><trkpt lat="45.8921633" lon="11.9436417"><ele>175.66666666666666</ele><time>2026-04-25T08:05:42.955Z</time></trkpt><trkpt lat="45.8923467" lon="11.9435767"><ele>176.0</ele><time>2026-04-25T08:05:43.956Z</time></trkpt><trkpt lat="45.8925283" lon="11.9434967"><ele>176.66666666666666</ele><time>2026-04-25T08:05:44.954Z</time></trkpt><trkpt lat="45.892705" lon="11.9434017"><ele>177.33333333333334</ele><time>2026-04-25T08:05:45.955Z</time></trkpt><trkpt lat="45.8928783" lon="11.9432983"><ele>178.0</ele><time>2026-04-25T08:05:46.956Z</time></trkpt><trkpt lat="45.8930417" lon="11.943185"><ele>178.0</ele><time>2026-04-25T08:05:47.954Z</time></trkpt><trkpt lat="45.8932" lon="11.9430717"><ele>178.0</ele><time>2026-04-25T08:05:48.957Z</time></trkpt><trkpt lat="45.89335" lon="11.9429617"><ele>178.0</ele><time>2026-04-25T08:05:49.958Z</time></trkpt><trkpt lat="45.8934983" lon="11.9428533"><ele>175.33333333333334</ele><time>2026-04-25T08:05:50.957Z</time></trkpt><trkpt lat="45.8936467" lon="11.942745"><ele>172.66666666666666</ele><time>2026-04-25T08:05:51.957Z</time></trkpt><trkpt lat="45.8938" lon="11.9426467"><ele>170.0</ele><time>2026-04-25T08:05:52.958Z</time></trkpt><trkpt lat="45.8939517" lon="11.9425567"><ele>172.66666666666666</ele><time>2026-04-25T08:05:53.957Z</time></trkpt><trkpt lat="45.894105" lon="11.94248"><ele>175.33333333333334</ele><time>2026-04-25T08:05:54.956Z</time></trkpt><trkpt lat="45.8942633" lon="11.9424217"><ele>178.0</ele><time>2026-04-25T08:05:55.957Z</time></trkpt><trkpt lat="45.8944317" lon="11.9423883"><ele>178.0</ele><time>2026-04-25T08:05:56.957Z</time></trkpt><trkpt lat="45.8946" lon="11.9423783"><ele>178.0</ele><time>2026-04-25T08:05:57.957Z</time></trkpt><trkpt lat="45.8947683" lon="11.9423833"><ele>178.0</ele><time>2026-04-25T08:05:58.957Z</time></trkpt><trkpt lat="45.8949433" lon="11.942405"><ele>179.66666666666669</ele><time>2026-04-25T08:05:59.957Z</time></trkpt><trkpt lat="45.895115" lon="11.9424317"><ele>181.33333333333334</ele><time>2026-04-25T08:06:00.957Z</time></trkpt><trkpt lat="45.895285" lon="11.9424583"><ele>183.0</ele><time>2026-04-25T08:06:01.958Z</time></trkpt><trkpt lat="45.8954533" lon="11.9424867"><ele>183.0</ele><time>2026-04-25T08:06:02.957Z</time></trkpt><trkpt lat="45.895615" lon="11.942515"><ele>183.0</ele><time>2026-04-25T08:06:03.958Z</time></trkpt><trkpt lat="45.89577" lon="11.9425417"><ele>183.0</ele><time>2026-04-25T08:06:04.958Z</time></trkpt><trkpt lat="45.8959183" lon="11.9425717"><ele>181.25</ele><time>2026-04-25T08:06:05.956Z</time></trkpt><trkpt lat="45.8960617" lon="11.9426"><ele>179.5</ele><time>2026-04-25T08:06:06.957Z</time></trkpt><trkpt lat="45.8962067" lon="11.9426267"><ele>177.75</ele><time>2026-04-25T08:06:07.957Z</time></trkpt><trkpt lat="45.8963567" lon="11.942655"><ele>176.0</ele><time>2026-04-25T08:06:08.955Z</time></trkpt><trkpt lat="45.8965067" lon="11.9426783"><ele>176.0</ele><time>2026-04-25T08:06:09.956Z</time></trkpt><trkpt lat="45.8966617" lon="11.9426883"><ele>176.0</ele><time>2026-04-25T08:06:10.956Z</time></trkpt><trkpt lat="45.896815" lon="11.9427067"><ele>176.0</ele><time>2026-04-25T08:06:11.956Z</time></trkpt><trkpt lat="45.8969717" lon="11.942715"><ele>175.33333333333331</ele><time>2026-04-25T08:06:12.956Z</time></trkpt><trkpt lat="45.8971317" lon="11.9427217"><ele>174.66666666666666</ele><time>2026-04-25T08:06:13.956Z</time></trkpt><trkpt lat="45.8972933" lon="11.9427233"><ele>174.0</ele><time>2026-04-25T08:06:14.955Z</time></trkpt><trkpt lat="45.8974533" lon="11.9427183"><ele>174.0</ele><time>2026-04-25T08:06:15.956Z</time></trkpt><trkpt lat="45.8975983" lon="11.94271"><ele>174.0</ele><time>2026-04-25T08:06:16.956Z</time></trkpt><trkpt lat="45.8977267" lon="11.9426933"><ele>174.0</ele><time>2026-04-25T08:06:17.955Z</time></trkpt><trkpt lat="45.8978367" lon="11.9426817"><ele>174.0</ele><time>2026-04-25T08:06:18.955Z</time></trkpt><trkpt lat="45.8979417" lon="11.9426667"><ele>174.0</ele><time>2026-04-25T08:06:19.96Z</time></trkpt><trkpt lat="45.8980483" lon="11.9426483"><ele>174.0</ele><time>2026-04-25T08:06:20.955Z</time></trkpt><trkpt lat="45.8981583" lon="11.942635"><ele>174.0</ele><time>2026-04-25T08:06:21.955Z</time></trkpt><trkpt lat="45.8982733" lon="11.9426267"><ele>174.0</ele><time>2026-04-25T08:06:22.955Z</time></trkpt><trkpt lat="45.898385" lon="11.94262"><ele>174.0</ele><time>2026-04-25T08:06:23.954Z</time></trkpt><trkpt lat="45.8984917" lon="11.9426183"><ele>175.2</ele><time>2026-04-25T08:06:24.955Z</time></trkpt><trkpt lat="45.8985967" lon="11.94262"><ele>176.39999999999998</ele><time>2026-04-25T08:06:25.956Z</time></trkpt><trkpt lat="45.8986983" lon="11.94263"><ele>177.6</ele><time>2026-04-25T08:06:26.955Z</time></trkpt><trkpt lat="45.8987967" lon="11.94265"><ele>178.8</ele><time>2026-04-25T08:06:27.955Z</time></trkpt><trkpt lat="45.89889" lon="11.9426733"><ele>180.0</ele><time>2026-04-25T08:06:28.956Z</time></trkpt><trkpt lat="45.8989767" lon="11.9426917"><ele>180.0</ele><time>2026-04-25T08:06:29.956Z</time></trkpt><trkpt lat="45.8990467" lon="11.9427083"><ele>180.0</ele><time>2026-04-25T08:06:30.955Z</time></trkpt><trkpt lat="45.899145" lon="11.9427267"><ele>180.0</ele><time>2026-04-25T08:06:32.958Z</time></trkpt><trkpt lat="45.8992217" lon="11.9427417"><ele>180.0</ele><time>2026-04-25T08:06:35.955Z</time></trkpt><trkpt lat="45.899315" lon="11.9427867"><ele>180.0</ele><time>2026-04-25T08:06:38.955Z</time></trkpt><trkpt lat="45.8994067" lon="11.9428533"><ele>180.0</ele><time>2026-04-25T08:06:40.956Z</time></trkpt><trkpt lat="45.8994883" lon="11.9429733"><ele>180.66666666666666</ele><time>2026-04-25T08:06:42.956Z</time></trkpt><trkpt lat="45.8995283" lon="11.9430633"><ele>181.33333333333334</ele><time>2026-04-25T08:06:43.955Z</time></trkpt><trkpt lat="45.8995717" lon="11.943165"><ele>182.0</ele><time>2026-04-25T08:06:44.954Z</time></trkpt><trkpt lat="45.8996217" lon="11.9432683"><ele>182.66666666666669</ele><time>2026-04-25T08:06:45.956Z</time></trkpt><trkpt lat="45.8996667" lon="11.9433883"><ele>183.33333333333334</ele><time>2026-04-25T08:06:46.955Z</time></trkpt><trkpt lat="45.899705" lon="11.94353"><ele>184.0</ele><time>2026-04-25T08:06:47.955Z</time></trkpt><trkpt lat="45.8997317" lon="11.9436967"><ele>182.75</ele><time>2026-04-25T08:06:48.956Z</time></trkpt><trkpt lat="45.8997483" lon="11.9438733"><ele>181.5</ele><time>2026-04-25T08:06:49.956Z</time></trkpt><trkpt lat="45.8997583" lon="11.9440583"><ele>180.25</ele><time>2026-04-25T08:06:50.956Z</time></trkpt><trkpt lat="45.89977" lon="11.9442583"><ele>179.0</ele><time>2026-04-25T08:06:51.955Z</time></trkpt><trkpt lat="45.8997833" lon="11.9444733"><ele>179.0</ele><time>2026-04-25T08:06:52.956Z</time></trkpt><trkpt lat="45.8997967" lon="11.9447"><ele>179.0</ele><time>2026-04-25T08:06:53.955Z</time></trkpt><trkpt lat="45.8998133" lon="11.9449283"><ele>179.0</ele><time>2026-04-25T08:06:54.956Z</time></trkpt><trkpt lat="45.89983" lon="11.9451517"><ele>179.33333333333331</ele><time>2026-04-25T08:06:55.956Z</time></trkpt><trkpt lat="45.8998433" lon="11.9453833"><ele>179.66666666666666</ele><time>2026-04-25T08:06:56.956Z</time></trkpt><trkpt lat="45.89986" lon="11.945625"><ele>180.0</ele><time>2026-04-25T08:06:57.954Z</time></trkpt><trkpt lat="45.8998767" lon="11.9458767"><ele>178.66666666666666</ele><time>2026-04-25T08:06:58.957Z</time></trkpt><trkpt lat="45.899895" lon="11.946135"><ele>177.33333333333331</ele><time>2026-04-25T08:06:59.955Z</time></trkpt><trkpt lat="45.899915" lon="11.9463967"><ele>176.0</ele><time>2026-04-25T08:07:00.954Z</time></trkpt><trkpt lat="45.899935" lon="11.9466583"><ele>174.33333333333331</ele><time>2026-04-25T08:07:01.955Z</time></trkpt><trkpt lat="45.8999517" lon="11.9469183"><ele>172.66666666666666</ele><time>2026-04-25T08:07:02.955Z</time></trkpt><trkpt lat="45.8999683" lon="11.9471717"><ele>171.0</ele><time>2026-04-25T08:07:03.955Z</time></trkpt><trkpt lat="45.89998" lon="11.947415"><ele>171.33333333333334</ele><time>2026-04-25T08:07:04.956Z</time></trkpt><trkpt lat="45.8999933" lon="11.94765"><ele>171.66666666666669</ele><time>2026-04-25T08:07:05.955Z</time></trkpt><trkpt lat="45.900005" lon="11.94788"><ele>172.0</ele><time>2026-04-25T08:07:06.955Z</time></trkpt><trkpt lat="45.9000167" lon="11.9481"><ele>172.0</ele><time>2026-04-25T08:07:07.955Z</time></trkpt><trkpt lat="45.9000283" lon="11.948315"><ele>172.0</ele><time>2026-04-25T08:07:08.955Z</time></trkpt><trkpt lat="45.9000417" lon="11.9485233"><ele>172.0</ele><time>2026-04-25T08:07:09.954Z</time></trkpt><trkpt lat="45.9000517" lon="11.9487267"><ele>172.0</ele><time>2026-04-25T08:07:10.955Z</time></trkpt><trkpt lat="45.9000617" lon="11.948925"><ele>172.0</ele><time>2026-04-25T08:07:11.955Z</time></trkpt><trkpt lat="45.9000733" lon="11.9491233"><ele>172.0</ele><time>2026-04-25T08:07:12.955Z</time></trkpt><trkpt lat="45.900085" lon="11.9493217"><ele>172.0</ele><time>2026-04-25T08:07:13.955Z</time></trkpt><trkpt lat="45.9000983" lon="11.94952"><ele>172.0</ele><time>2026-04-25T08:07:14.956Z</time></trkpt><trkpt lat="45.90011" lon="11.949715"><ele>172.0</ele><time>2026-04-25T08:07:15.955Z</time></trkpt><trkpt lat="45.9001217" lon="11.94991"><ele>172.0</ele><time>2026-04-25T08:07:16.956Z</time></trkpt><trkpt lat="45.9001317" lon="11.9501"><ele>172.0</ele><time>2026-04-25T08:07:17.956Z</time></trkpt><trkpt lat="45.9001433" lon="11.9502867"><ele>172.0</ele><time>2026-04-25T08:07:18.955Z</time></trkpt><trkpt lat="45.900155" lon="11.95047"><ele>172.0</ele><time>2026-04-25T08:07:19.954Z</time></trkpt><trkpt lat="45.9001667" lon="11.9506483"><ele>172.0</ele><time>2026-04-25T08:07:20.955Z</time></trkpt><trkpt lat="45.9001817" lon="11.9508133"><ele>172.0</ele><time>2026-04-25T08:07:21.955Z</time></trkpt><trkpt lat="45.900195" lon="11.9509617"><ele>172.0</ele><time>2026-04-25T08:07:22.956Z</time></trkpt><trkpt lat="45.900205" lon="11.95109"><ele>172.0</ele><time>2026-04-25T08:07:23.955Z</time></trkpt><trkpt lat="45.900215" lon="11.9512083"><ele>175.83333333333334</ele><time>2026-04-25T08:07:24.955Z</time></trkpt><trkpt lat="45.9002183" lon="11.9513133"><ele>179.66666666666669</ele><time>2026-04-25T08:07:25.956Z</time></trkpt><trkpt lat="45.90022" lon="11.9514067"><ele>183.5</ele><time>2026-04-25T08:07:26.955Z</time></trkpt><trkpt lat="45.9002217" lon="11.9515817"><ele>187.33333333333334</ele><time>2026-04-25T08:07:28.956Z</time></trkpt><trkpt lat="45.900285" lon="11.951685"><ele>191.16666666666666</ele><time>2026-04-25T08:07:30.955Z</time></trkpt><trkpt lat="45.9003483" lon="11.9517033"><ele>195.0</ele><time>2026-04-25T08:07:31.955Z</time></trkpt><trkpt lat="45.900455" lon="11.951695"><ele>195.0</ele><time>2026-04-25T08:07:32.955Z</time></trkpt><trkpt lat="45.9005733" lon="11.9516833"><ele>195.0</ele><time>2026-04-25T08:07:33.956Z</time></trkpt><trkpt lat="45.9007017" lon="11.9516717"><ele>195.0</ele><time>2026-04-25T08:07:34.955Z</time></trkpt><trkpt lat="45.9008483" lon="11.9516617"><ele>195.0</ele><time>2026-04-25T08:07:35.955Z</time></trkpt><trkpt lat="45.9010033" lon="11.95165"><ele>192.66666666666666</ele><time>2026-04-25T08:07:36.954Z</time></trkpt><trkpt lat="45.901165" lon="11.9516433"><ele>190.33333333333331</ele><time>2026-04-25T08:07:37.955Z</time></trkpt><trkpt lat="45.9013283" lon="11.9516417"><ele>188.0</ele><time>2026-04-25T08:07:38.956Z</time></trkpt><trkpt lat="45.9014883" lon="11.95163"><ele>188.0</ele><time>2026-04-25T08:07:39.955Z</time></trkpt><trkpt lat="45.90165" lon="11.9516233"><ele>188.0</ele><time>2026-04-25T08:07:40.958Z</time></trkpt><trkpt lat="45.9018167" lon="11.9516183"><ele>188.0</ele><time>2026-04-25T08:07:41.954Z</time></trkpt><trkpt lat="45.9019867" lon="11.9516133"><ele>188.33333333333331</ele><time>2026-04-25T08:07:42.954Z</time></trkpt><trkpt lat="45.90216" lon="11.9516117"><ele>188.66666666666666</ele><time>2026-04-25T08:07:43.955Z</time></trkpt><trkpt lat="45.90233" lon="11.9516133"><ele>189.0</ele><time>2026-04-25T08:07:44.955Z</time></trkpt><trkpt lat="45.9024983" lon="11.9516133"><ele>188.0</ele><time>2026-04-25T08:07:45.956Z</time></trkpt><trkpt lat="45.90267" lon="11.9516217"><ele>187.0</ele><time>2026-04-25T08:07:46.956Z</time></trkpt><trkpt lat="45.9028433" lon="11.95163"><ele>186.0</ele><time>2026-04-25T08:07:47.955Z</time></trkpt><trkpt lat="45.9030183" lon="11.95164"><ele>186.0</ele><time>2026-04-25T08:07:48.956Z</time></trkpt><trkpt lat="45.9031933" lon="11.9516417"><ele>186.0</ele><time>2026-04-25T08:07:49.955Z</time></trkpt><trkpt lat="45.9033617" lon="11.951645"><ele>186.0</ele><time>2026-04-25T08:07:50.955Z</time></trkpt><trkpt lat="45.9035217" lon="11.9516467"><ele>185.5</ele><time>2026-04-25T08:07:51.955Z</time></trkpt><trkpt lat="45.9036717" lon="11.9516533"><ele>185.0</ele><time>2026-04-25T08:07:52.955Z</time></trkpt><trkpt lat="45.903815" lon="11.951655"><ele>184.5</ele><time>2026-04-25T08:07:53.955Z</time></trkpt><trkpt lat="45.90396" lon="11.951655"><ele>184.0</ele><time>2026-04-25T08:07:54.956Z</time></trkpt><trkpt lat="45.9041033" lon="11.9516533"><ele>184.0</ele><time>2026-04-25T08:07:55.957Z</time></trkpt><trkpt lat="45.90424" lon="11.9516567"><ele>184.0</ele><time>2026-04-25T08:07:56.956Z</time></trkpt><trkpt lat="45.9043717" lon="11.9516683"><ele>184.0</ele><time>2026-04-25T08:07:57.955Z</time></trkpt><trkpt lat="45.9044933" lon="11.951685"><ele>184.0</ele><time>2026-04-25T08:07:58.956Z</time></trkpt><trkpt lat="45.90461" lon="11.951695"><ele>184.5</ele><time>2026-04-25T08:07:59.956Z</time></trkpt><trkpt lat="45.9047267" lon="11.9517167"><ele>185.0</ele><time>2026-04-25T08:08:00.955Z</time></trkpt><trkpt lat="45.9048483" lon="11.9517633"><ele>185.5</ele><time>2026-04-25T08:08:01.955Z</time></trkpt><trkpt lat="45.9049717" lon="11.951835"><ele>186.0</ele><time>2026-04-25T08:08:02.956Z</time></trkpt><trkpt lat="45.905095" lon="11.9519083"><ele>186.0</ele><time>2026-04-25T08:08:03.955Z</time></trkpt><trkpt lat="45.9052167" lon="11.9519617"><ele>186.0</ele><time>2026-04-25T08:08:04.956Z</time></trkpt><trkpt lat="45.9053333" lon="11.9519917"><ele>186.0</ele><time>2026-04-25T08:08:05.956Z</time></trkpt><trkpt lat="45.9054517" lon="11.952"><ele>186.0</ele><time>2026-04-25T08:08:06.956Z</time></trkpt><trkpt lat="45.9055717" lon="11.95198"><ele>186.0</ele><time>2026-04-25T08:08:07.956Z</time></trkpt><trkpt lat="45.9056917" lon="11.951915"><ele>186.0</ele><time>2026-04-25T08:08:08.956Z</time></trkpt><trkpt lat="45.9058167" lon="11.9518283"><ele>186.0</ele><time>2026-04-25T08:08:09.956Z</time></trkpt><trkpt lat="45.90596" lon="11.9517717"><ele>186.0</ele><time>2026-04-25T08:08:10.955Z</time></trkpt><trkpt lat="45.9061233" lon="11.9517467"><ele>183.0</ele><time>2026-04-25T08:08:11.955Z</time></trkpt><trkpt lat="45.9062933" lon="11.951725"><ele>180.0</ele><time>2026-04-25T08:08:12.955Z</time></trkpt><trkpt lat="45.906465" lon="11.9516983"><ele>177.0</ele><time>2026-04-25T08:08:13.956Z</time></trkpt><trkpt lat="45.90664" lon="11.9516617"><ele>176.0</ele><time>2026-04-25T08:08:14.954Z</time></trkpt><trkpt lat="45.9068183" lon="11.9516233"><ele>175.0</ele><time>2026-04-25T08:08:15.955Z</time></trkpt><trkpt lat="45.9069867" lon="11.9515883"><ele>174.0</ele><time>2026-04-25T08:08:16.956Z</time></trkpt><trkpt lat="45.90715" lon="11.9515533"><ele>174.0</ele><time>2026-04-25T08:08:17.954Z</time></trkpt><trkpt lat="45.907315" lon="11.9515167"><ele>174.0</ele><time>2026-04-25T08:08:18.956Z</time></trkpt><trkpt lat="45.9074783" lon="11.9514767"><ele>174.0</ele><time>2026-04-25T08:08:19.955Z</time></trkpt><trkpt lat="45.9076467" lon="11.951435"><ele>175.0</ele><time>2026-04-25T08:08:20.955Z</time></trkpt><trkpt lat="45.9078167" lon="11.951395"><ele>176.0</ele><time>2026-04-25T08:08:21.955Z</time></trkpt><trkpt lat="45.90799" lon="11.9513517"><ele>177.0</ele><time>2026-04-25T08:08:22.956Z</time></trkpt><trkpt lat="45.9081683" lon="11.95131"><ele>177.0</ele><time>2026-04-25T08:08:23.954Z</time></trkpt><trkpt lat="45.9083483" lon="11.951265"><ele>177.0</ele><time>2026-04-25T08:08:24.955Z</time></trkpt><trkpt lat="45.9085283" lon="11.951225"><ele>177.0</ele><time>2026-04-25T08:08:25.954Z</time></trkpt><trkpt lat="45.9087083" lon="11.9511833"><ele>177.0</ele><time>2026-04-25T08:08:26.954Z</time></trkpt><trkpt lat="45.908895" lon="11.9511383"><ele>177.0</ele><time>2026-04-25T08:08:27.954Z</time></trkpt><trkpt lat="45.90909" lon="11.9510883"><ele>177.0</ele><time>2026-04-25T08:08:28.956Z</time></trkpt><trkpt lat="45.9092917" lon="11.95104"><ele>177.0</ele><time>2026-04-25T08:08:29.954Z</time></trkpt><trkpt lat="45.9095" lon="11.9509917"><ele>177.0</ele><time>2026-04-25T08:08:30.956Z</time></trkpt><trkpt lat="45.90971" lon="11.9509417"><ele>177.0</ele><time>2026-04-25T08:08:31.956Z</time></trkpt><trkpt lat="45.9099133" lon="11.9508933"><ele>176.33333333333334</ele><time>2026-04-25T08:08:32.954Z</time></trkpt><trkpt lat="45.9101067" lon="11.9508467"><ele>175.66666666666669</ele><time>2026-04-25T08:08:33.956Z</time></trkpt><trkpt lat="45.9102933" lon="11.9508033"><ele>175.0</ele><time>2026-04-25T08:08:34.955Z</time></trkpt><trkpt lat="45.9104783" lon="11.9507583"><ele>175.0</ele><time>2026-04-25T08:08:35.956Z</time></trkpt><trkpt lat="45.910665" lon="11.95071"><ele>175.0</ele><time>2026-04-25T08:08:36.955Z</time></trkpt><trkpt lat="45.91085" lon="11.950665"><ele>175.0</ele><time>2026-04-25T08:08:37.955Z</time></trkpt><trkpt lat="45.91103" lon="11.9506233"><ele>175.0</ele><time>2026-04-25T08:08:38.956Z</time></trkpt><trkpt lat="45.9112033" lon="11.9505833"><ele>175.0</ele><time>2026-04-25T08:08:39.956Z</time></trkpt><trkpt lat="45.9113717" lon="11.9505467"><ele>175.0</ele><time>2026-04-25T08:08:40.956Z</time></trkpt><trkpt lat="45.91154" lon="11.9505117"><ele>175.0</ele><time>2026-04-25T08:08:41.955Z</time></trkpt><trkpt lat="45.9117083" lon="11.950475"><ele>175.0</ele><time>2026-04-25T08:08:42.956Z</time></trkpt><trkpt lat="45.91188" lon="11.9504383"><ele>175.0</ele><time>2026-04-25T08:08:43.955Z</time></trkpt><trkpt lat="45.91205" lon="11.9504017"><ele>175.66666666666669</ele><time>2026-04-25T08:08:44.956Z</time></trkpt><trkpt lat="45.9122267" lon="11.9503633"><ele>176.33333333333334</ele><time>2026-04-25T08:08:45.956Z</time></trkpt><trkpt lat="45.9124083" lon="11.9503233"><ele>177.0</ele><time>2026-04-25T08:08:46.956Z</time></trkpt><trkpt lat="45.9125933" lon="11.9502833"><ele>177.0</ele><time>2026-04-25T08:08:47.956Z</time></trkpt><trkpt lat="45.9127817" lon="11.9502417"><ele>177.0</ele><time>2026-04-25T08:08:48.955Z</time></trkpt><trkpt lat="45.91297" lon="11.9502067"><ele>177.0</ele><time>2026-04-25T08:08:49.955Z</time></trkpt><trkpt lat="45.9131617" lon="11.9501767"><ele>177.0</ele><time>2026-04-25T08:08:50.954Z</time></trkpt><trkpt lat="45.913355" lon="11.9501533"><ele>177.0</ele><time>2026-04-25T08:08:51.955Z</time></trkpt><trkpt lat="45.91355" lon="11.9501367"><ele>177.0</ele><time>2026-04-25T08:08:52.956Z</time></trkpt><trkpt lat="45.913745" lon="11.95013"><ele>177.33333333333334</ele><time>2026-04-25T08:08:53.955Z</time></trkpt><trkpt lat="45.9139333" lon="11.9501333"><ele>177.66666666666669</ele><time>2026-04-25T08:08:54.956Z</time></trkpt><trkpt lat="45.9141183" lon="11.9501383"><ele>178.0</ele><time>2026-04-25T08:08:55.955Z</time></trkpt><trkpt lat="45.9143017" lon="11.9501433"><ele>178.0</ele><time>2026-04-25T08:08:56.956Z</time></trkpt><trkpt lat="45.9144833" lon="11.9501483"><ele>178.0</ele><time>2026-04-25T08:08:57.956Z</time></trkpt><trkpt lat="45.9146617" lon="11.9501533"><ele>178.0</ele><time>2026-04-25T08:08:58.957Z</time></trkpt><trkpt lat="45.9148367" lon="11.950155"><ele>178.0</ele><time>2026-04-25T08:08:59.955Z</time></trkpt><trkpt lat="45.91501" lon="11.9501567"><ele>178.0</ele><time>2026-04-25T08:09:00.955Z</time></trkpt><trkpt lat="45.915185" lon="11.95016"><ele>178.0</ele><time>2026-04-25T08:09:01.955Z</time></trkpt><trkpt lat="45.91536" lon="11.95016"><ele>178.66666666666669</ele><time>2026-04-25T08:09:02.956Z</time></trkpt><trkpt lat="45.9155367" lon="11.95016"><ele>179.33333333333334</ele><time>2026-04-25T08:09:03.956Z</time></trkpt><trkpt lat="45.9157133" lon="11.9501617"><ele>180.0</ele><time>2026-04-25T08:09:04.955Z</time></trkpt><trkpt lat="45.91589" lon="11.9501667"><ele>180.0</ele><time>2026-04-25T08:09:05.954Z</time></trkpt><trkpt lat="45.9160683" lon="11.9501717"><ele>180.0</ele><time>2026-04-25T08:09:06.955Z</time></trkpt><trkpt lat="45.9162533" lon="11.9501733"><ele>180.0</ele><time>2026-04-25T08:09:07.956Z</time></trkpt><trkpt lat="45.9164467" lon="11.9501767"><ele>180.0</ele><time>2026-04-25T08:09:08.956Z</time></trkpt><trkpt lat="45.9166467" lon="11.95018"><ele>180.0</ele><time>2026-04-25T08:09:09.956Z</time></trkpt><trkpt lat="45.91685" lon="11.950185"><ele>180.0</ele><time>2026-04-25T08:09:10.956Z</time></trkpt><trkpt lat="45.9170567" lon="11.9501917"><ele>180.66666666666666</ele><time>2026-04-25T08:09:11.955Z</time></trkpt><trkpt lat="45.9172617" lon="11.9501967"><ele>181.33333333333331</ele><time>2026-04-25T08:09:12.956Z</time></trkpt><trkpt lat="45.9174683" lon="11.9501967"><ele>182.0</ele><time>2026-04-25T08:09:13.956Z</time></trkpt><trkpt lat="45.9176767" lon="11.9501883"><ele>184.66666666666666</ele><time>2026-04-25T08:09:14.955Z</time></trkpt><trkpt lat="45.9178867" lon="11.95017"><ele>187.33333333333334</ele><time>2026-04-25T08:09:15.956Z</time></trkpt><trkpt lat="45.918095" lon="11.95015"><ele>190.0</ele><time>2026-04-25T08:09:16.956Z</time></trkpt><trkpt lat="45.9182967" lon="11.9501267"><ele>190.0</ele><time>2026-04-25T08:09:17.955Z</time></trkpt><trkpt lat="45.9184883" lon="11.9501033"><ele>190.0</ele><time>2026-04-25T08:09:18.956Z</time></trkpt><trkpt lat="45.91867" lon="11.95008"><ele>190.0</ele><time>2026-04-25T08:09:19.957Z</time></trkpt><trkpt lat="45.9188483" lon="11.9500567"><ele>189.33333333333334</ele><time>2026-04-25T08:09:20.955Z</time></trkpt><trkpt lat="45.9190333" lon="11.95003"><ele>188.66666666666666</ele><time>2026-04-25T08:09:21.956Z</time></trkpt><trkpt lat="45.9192167" lon="11.9500083"><ele>188.0</ele><time>2026-04-25T08:09:22.956Z</time></trkpt><trkpt lat="45.9194" lon="11.9499933"><ele>188.0</ele><time>2026-04-25T08:09:23.955Z</time></trkpt><trkpt lat="45.91958" lon="11.9499783"><ele>188.0</ele><time>2026-04-25T08:09:24.956Z</time></trkpt><trkpt lat="45.91976" lon="11.9499533"><ele>188.0</ele><time>2026-04-25T08:09:25.956Z</time></trkpt><trkpt lat="45.9199417" lon="11.949925"><ele>190.0</ele><time>2026-04-25T08:09:26.956Z</time></trkpt><trkpt lat="45.920125" lon="11.949895"><ele>192.0</ele><time>2026-04-25T08:09:27.956Z</time></trkpt><trkpt lat="45.9203133" lon="11.9498683"><ele>194.0</ele><time>2026-04-25T08:09:28.956Z</time></trkpt><trkpt lat="45.9205067" lon="11.9498433"><ele>194.0</ele><time>2026-04-25T08:09:29.956Z</time></trkpt><trkpt lat="45.9207" lon="11.949825"><ele>194.0</ele><time>2026-04-25T08:09:30.955Z</time></trkpt><trkpt lat="45.9209" lon="11.9498033"><ele>194.0</ele><time>2026-04-25T08:09:31.956Z</time></trkpt><trkpt lat="45.9210967" lon="11.9497883"><ele>199.0</ele><time>2026-04-25T08:09:32.955Z</time></trkpt><trkpt lat="45.92129" lon="11.9497733"><ele>204.0</ele><time>2026-04-25T08:09:33.955Z</time></trkpt><trkpt lat="45.9214817" lon="11.9497583"><ele>209.0</ele><time>2026-04-25T08:09:34.957Z</time></trkpt><trkpt lat="45.9216717" lon="11.9497417"><ele>221.0</ele><time>2026-04-25T08:09:35.956Z</time></trkpt><trkpt lat="45.92186" lon="11.9497217"><ele>233.0</ele><time>2026-04-25T08:09:36.956Z</time></trkpt><trkpt lat="45.9220467" lon="11.9497217"><ele>245.0</ele><time>2026-04-25T08:09:37.956Z</time></trkpt><trkpt lat="45.922235" lon="11.9497183"><ele>245.0</ele><time>2026-04-25T08:09:38.956Z</time></trkpt><trkpt lat="45.9224233" lon="11.9497167"><ele>245.0</ele><time>2026-04-25T08:09:39.956Z</time></trkpt><trkpt lat="45.9305433" lon="11.94249"><ele>247.33333333333334</ele><time>2026-04-25T08:10:29.955Z</time></trkpt><trkpt lat="45.9306117" lon="11.942225"><ele>249.66666666666669</ele><time>2026-04-25T08:10:30.955Z</time></trkpt><trkpt lat="45.9306867" lon="11.94206"><ele>252.0</ele><time>2026-04-25T08:10:31.956Z</time></trkpt><trkpt lat="45.930775" lon="11.9419"><ele>252.0</ele><time>2026-04-25T08:10:32.955Z</time></trkpt><trkpt lat="45.9308817" lon="11.94176"><ele>252.0</ele><time>2026-04-25T08:10:33.956Z</time></trkpt><trkpt lat="45.9309967" lon="11.9416333"><ele>252.0</ele><time>2026-04-25T08:10:34.956Z</time></trkpt><trkpt lat="45.9311217" lon="11.9415317"><ele>252.0</ele><time>2026-04-25T08:10:35.955Z</time></trkpt><trkpt lat="45.9312617" lon="11.9414567"><ele>248.66666666666669</ele><time>2026-04-25T08:10:36.955Z</time></trkpt><trkpt lat="45.9314083" lon="11.9413867"><ele>245.33333333333334</ele><time>2026-04-25T08:10:37.955Z</time></trkpt><trkpt lat="45.9315567" lon="11.9413083"><ele>242.0</ele><time>2026-04-25T08:10:38.955Z</time></trkpt><trkpt lat="45.9317083" lon="11.9412167"><ele>245.33333333333334</ele><time>2026-04-25T08:10:39.956Z</time></trkpt><trkpt lat="45.9318567" lon="11.9411067"><ele>248.66666666666669</ele><time>2026-04-25T08:10:40.954Z</time></trkpt><trkpt lat="45.9320017" lon="11.94099"><ele>252.0</ele><time>2026-04-25T08:10:41.955Z</time></trkpt><trkpt lat="45.9321383" lon="11.9408683"><ele>248.0</ele><time>2026-04-25T08:10:42.956Z</time></trkpt><trkpt lat="45.9322633" lon="11.9407383"><ele>244.0</ele><time>2026-04-25T08:10:43.955Z</time></trkpt><trkpt lat="45.9323767" lon="11.9406183"><ele>240.0</ele><time>2026-04-25T08:10:44.956Z</time></trkpt><trkpt lat="45.9324833" lon="11.9405017"><ele>236.0</ele><time>2026-04-25T08:10:45.955Z</time></trkpt><trkpt lat="45.9325883" lon="11.9403767"><ele>236.0</ele><time>2026-04-25T08:10:46.956Z</time></trkpt><trkpt lat="45.9326867" lon="11.94026"><ele>236.0</ele><time>2026-04-25T08:10:47.956Z</time></trkpt><trkpt lat="45.9327783" lon="11.9401483"><ele>236.0</ele><time>2026-04-25T08:10:48.955Z</time></trkpt><trkpt lat="45.9328633" lon="11.9400433"><ele>236.0</ele><time>2026-04-25T08:10:49.956Z</time></trkpt><trkpt lat="45.9329417" lon="11.9399483"><ele>233.4</ele><time>2026-04-25T08:10:50.956Z</time></trkpt><trkpt lat="45.9330167" lon="11.9398633"><ele>230.8</ele><time>2026-04-25T08:10:51.955Z</time></trkpt><trkpt lat="45.93309" lon="11.9397983"><ele>228.20000000000002</ele><time>2026-04-25T08:10:52.957Z</time></trkpt><trkpt lat="45.9331717" lon="11.9397433"><ele>225.60000000000002</ele><time>2026-04-25T08:10:53.956Z</time></trkpt><trkpt lat="45.9332567" lon="11.9396917"><ele>223.0</ele><time>2026-04-25T08:10:54.956Z</time></trkpt><trkpt lat="45.93334" lon="11.9396267"><ele>223.99999999999997</ele><time>2026-04-25T08:10:55.955Z</time></trkpt><trkpt lat="45.9334067" lon="11.9395433"><ele>225.0</ele><time>2026-04-25T08:10:56.955Z</time></trkpt><trkpt lat="45.9334633" lon="11.9394483"><ele>226.0</ele><time>2026-04-25T08:10:57.956Z</time></trkpt><trkpt lat="45.93351" lon="11.9393467"><ele>227.0</ele><time>2026-04-25T08:10:58.956Z</time></trkpt><trkpt lat="45.9335417" lon="11.9392217"><ele>227.99999999999997</ele><time>2026-04-25T08:10:59.954Z</time></trkpt><trkpt lat="45.9335833" lon="11.939105"><ele>229.0</ele><time>2026-04-25T08:11:00.955Z</time></trkpt><trkpt lat="45.933655" lon="11.9390117"><ele>225.75</ele><time>2026-04-25T08:11:01.956Z</time></trkpt><trkpt lat="45.9337533" lon="11.9389483"><ele>222.5</ele><time>2026-04-25T08:11:02.954Z</time></trkpt><trkpt lat="45.93387" lon="11.938895"><ele>219.25</ele><time>2026-04-25T08:11:03.955Z</time></trkpt><trkpt lat="45.934" lon="11.93885"><ele>216.0</ele><time>2026-04-25T08:11:04.955Z</time></trkpt><trkpt lat="45.9341383" lon="11.9387967"><ele>216.0</ele><time>2026-04-25T08:11:05.956Z</time></trkpt><trkpt lat="45.9342833" lon="11.938735"><ele>216.0</ele><time>2026-04-25T08:11:06.954Z</time></trkpt><trkpt lat="45.9344317" lon="11.9386717"><ele>216.0</ele><time>2026-04-25T08:11:07.956Z</time></trkpt><trkpt lat="45.9345817" lon="11.93861"><ele>216.0</ele><time>2026-04-25T08:11:08.955Z</time></trkpt><trkpt lat="45.9347367" lon="11.938545"><ele>216.0</ele><time>2026-04-25T08:11:09.956Z</time></trkpt><trkpt lat="45.934895" lon="11.9384767"><ele>216.0</ele><time>2026-04-25T08:11:10.956Z</time></trkpt><trkpt lat="45.9350517" lon="11.938405"><ele>216.25</ele><time>2026-04-25T08:11:11.955Z</time></trkpt><trkpt lat="45.9351983" lon="11.93833"><ele>216.5</ele><time>2026-04-25T08:11:12.955Z</time></trkpt><trkpt lat="45.935335" lon="11.9382483"><ele>216.75</ele><time>2026-04-25T08:11:13.957Z</time></trkpt><trkpt lat="45.9354567" lon="11.9381633"><ele>217.0</ele><time>2026-04-25T08:11:14.956Z</time></trkpt><trkpt lat="45.9355633" lon="11.938075"><ele>217.0</ele><time>2026-04-25T08:11:15.954Z</time></trkpt><trkpt lat="45.935655" lon="11.9379933"><ele>217.0</ele><time>2026-04-25T08:11:16.956Z</time></trkpt><trkpt lat="45.9357417" lon="11.93791"><ele>217.0</ele><time>2026-04-25T08:11:17.954Z</time></trkpt><trkpt lat="45.935825" lon="11.9378167"><ele>217.0</ele><time>2026-04-25T08:11:18.956Z</time></trkpt><trkpt lat="45.93591" lon="11.9377133"><ele>217.0</ele><time>2026-04-25T08:11:19.956Z</time></trkpt><trkpt lat="45.935995" lon="11.9375967"><ele>216.5</ele><time>2026-04-25T08:11:20.956Z</time></trkpt><trkpt lat="45.9360817" lon="11.93747"><ele>216.0</ele><time>2026-04-25T08:11:21.955Z</time></trkpt><trkpt lat="45.9361633" lon="11.9373333"><ele>215.5</ele><time>2026-04-25T08:11:22.956Z</time></trkpt><trkpt lat="45.936245" lon="11.9371783"><ele>215.0</ele><time>2026-04-25T08:11:23.955Z</time></trkpt><trkpt lat="45.9363233" lon="11.937005"><ele>215.0</ele><time>2026-04-25T08:11:24.955Z</time></trkpt><trkpt lat="45.936395" lon="11.9368117"><ele>215.0</ele><time>2026-04-25T08:11:25.955Z</time></trkpt><trkpt lat="45.9364583" lon="11.9366183"><ele>215.0</ele><time>2026-04-25T08:11:26.955Z</time></trkpt><trkpt lat="45.936515" lon="11.93642"><ele>214.0</ele><time>2026-04-25T08:11:27.955Z</time></trkpt><trkpt lat="45.936565" lon="11.93622"><ele>213.0</ele><time>2026-04-25T08:11:28.955Z</time></trkpt><trkpt lat="45.936605" lon="11.93601"><ele>212.0</ele><time>2026-04-25T08:11:29.954Z</time></trkpt><trkpt lat="45.93664" lon="11.935795"><ele>210.33333333333334</ele><time>2026-04-25T08:11:30.955Z</time></trkpt><trkpt lat="45.9366667" lon="11.9355633"><ele>208.66666666666669</ele><time>2026-04-25T08:11:31.953Z</time></trkpt><trkpt lat="45.9366817" lon="11.9353133"><ele>207.0</ele><time>2026-04-25T08:11:32.954Z</time></trkpt><trkpt lat="45.9366833" lon="11.9350467"><ele>206.33333333333331</ele><time>2026-04-25T08:11:33.954Z</time></trkpt><trkpt lat="45.9366717" lon="11.9347783"><ele>205.66666666666666</ele><time>2026-04-25T08:11:34.954Z</time></trkpt><trkpt lat="45.9366483" lon="11.934515"><ele>205.0</ele><time>2026-04-25T08:11:35.954Z</time></trkpt><trkpt lat="45.9366233" lon="11.934265"><ele>204.66666666666666</ele><time>2026-04-25T08:11:36.955Z</time></trkpt><trkpt lat="45.9366" lon="11.9340283"><ele>204.33333333333331</ele><time>2026-04-25T08:11:37.954Z</time></trkpt><trkpt lat="45.9365733" lon="11.9338017"><ele>204.0</ele><time>2026-04-25T08:11:38.954Z</time></trkpt><trkpt lat="45.9365483" lon="11.9335833"><ele>204.33333333333331</ele><time>2026-04-25T08:11:39.955Z</time></trkpt><trkpt lat="45.9365233" lon="11.9333617"><ele>204.66666666666666</ele><time>2026-04-25T08:11:40.954Z</time></trkpt><trkpt lat="45.9364917" lon="11.9331233"><ele>205.0</ele><time>2026-04-25T08:11:41.954Z</time></trkpt><trkpt lat="45.93646" lon="11.9328667"><ele>205.0</ele><time>2026-04-25T08:11:42.954Z</time></trkpt><trkpt lat="45.93643" lon="11.9326167"><ele>205.0</ele><time>2026-04-25T08:11:43.955Z</time></trkpt><trkpt lat="45.9364033" lon="11.9323817"><ele>205.0</ele><time>2026-04-25T08:11:44.955Z</time></trkpt><trkpt lat="45.9363783" lon="11.93216"><ele>206.33333333333331</ele><time>2026-04-25T08:11:45.954Z</time></trkpt><trkpt lat="45.9363533" lon="11.9319433"><ele>207.66666666666669</ele><time>2026-04-25T08:11:46.955Z</time></trkpt><trkpt lat="45.93633" lon="11.93172"><ele>209.0</ele><time>2026-04-25T08:11:47.954Z</time></trkpt><trkpt lat="45.9363133" lon="11.9314717"><ele>209.0</ele><time>2026-04-25T08:11:48.955Z</time></trkpt><trkpt lat="45.9363017" lon="11.9312117"><ele>209.0</ele><time>2026-04-25T08:11:49.955Z</time></trkpt><trkpt lat="45.9363017" lon="11.930965"><ele>209.0</ele><time>2026-04-25T08:11:50.956Z</time></trkpt><trkpt lat="45.9363117" lon="11.930735"><ele>209.0</ele><time>2026-04-25T08:11:51.954Z</time></trkpt><trkpt lat="45.9363267" lon="11.93052"><ele>209.0</ele><time>2026-04-25T08:11:52.956Z</time></trkpt><trkpt lat="45.93635" lon="11.9303067"><ele>209.0</ele><time>2026-04-25T08:11:53.956Z</time></trkpt><trkpt lat="45.93638" lon="11.9300883"><ele>208.0</ele><time>2026-04-25T08:11:54.956Z</time></trkpt><trkpt lat="45.9364233" lon="11.929855"><ele>207.0</ele><time>2026-04-25T08:11:55.956Z</time></trkpt><trkpt lat="45.9364733" lon="11.9296"><ele>206.0</ele><time>2026-04-25T08:11:56.956Z</time></trkpt><trkpt lat="45.936535" lon="11.9293483"><ele>204.0</ele><time>2026-04-25T08:11:57.954Z</time></trkpt><trkpt lat="45.9366" lon="11.929115"><ele>202.0</ele><time>2026-04-25T08:11:58.955Z</time></trkpt><trkpt lat="45.93667" lon="11.928895"><ele>200.0</ele><time>2026-04-25T08:11:59.955Z</time></trkpt><trkpt lat="45.9367517" lon="11.9286783"><ele>200.0</ele><time>2026-04-25T08:12:00.955Z</time></trkpt><trkpt lat="45.9368383" lon="11.9284683"><ele>200.0</ele><time>2026-04-25T08:12:01.955Z</time></trkpt><trkpt lat="45.9369267" lon="11.9282717"><ele>200.0</ele><time>2026-04-25T08:12:02.954Z</time></trkpt><trkpt lat="45.9370233" lon="11.9280783"><ele>197.0</ele><time>2026-04-25T08:12:03.955Z</time></trkpt><trkpt lat="45.93713" lon="11.927885"><ele>194.0</ele><time>2026-04-25T08:12:04.955Z</time></trkpt><trkpt lat="45.9372467" lon="11.927695"><ele>191.0</ele><time>2026-04-25T08:12:05.955Z</time></trkpt><trkpt lat="45.937375" lon="11.92751"><ele>190.66666666666666</ele><time>2026-04-25T08:12:06.955Z</time></trkpt><trkpt lat="45.9375083" lon="11.92733"><ele>190.33333333333334</ele><time>2026-04-25T08:12:07.953Z</time></trkpt><trkpt lat="45.9376483" lon="11.9271583"><ele>190.0</ele><time>2026-04-25T08:12:08.954Z</time></trkpt><trkpt lat="45.9377933" lon="11.926995"><ele>190.0</ele><time>2026-04-25T08:12:09.955Z</time></trkpt><trkpt lat="45.9379483" lon="11.92684"><ele>190.0</ele><time>2026-04-25T08:12:10.954Z</time></trkpt><trkpt lat="45.938115" lon="11.9266933"><ele>190.0</ele><time>2026-04-25T08:12:11.955Z</time></trkpt><trkpt lat="45.93829" lon="11.9265517"><ele>191.66666666666669</ele><time>2026-04-25T08:12:12.954Z</time></trkpt><trkpt lat="45.9384733" lon="11.9264133"><ele>193.33333333333334</ele><time>2026-04-25T08:12:13.956Z</time></trkpt><trkpt lat="45.93866" lon="11.9262767"><ele>195.0</ele><time>2026-04-25T08:12:14.955Z</time></trkpt><trkpt lat="45.9388467" lon="11.92614"><ele>195.0</ele><time>2026-04-25T08:12:15.955Z</time></trkpt><trkpt lat="45.9390333" lon="11.9260033"><ele>195.0</ele><time>2026-04-25T08:12:16.955Z</time></trkpt><trkpt lat="45.9392217" lon="11.9258633"><ele>195.0</ele><time>2026-04-25T08:12:17.955Z</time></trkpt><trkpt lat="45.9394083" lon="11.9257267"><ele>196.66666666666669</ele><time>2026-04-25T08:12:18.954Z</time></trkpt><trkpt lat="45.9395917" lon="11.9255917"><ele>198.33333333333334</ele><time>2026-04-25T08:12:19.956Z</time></trkpt><trkpt lat="45.9397683" lon="11.92546"><ele>200.0</ele><time>2026-04-25T08:12:20.957Z</time></trkpt><trkpt lat="45.9399333" lon="11.925335"><ele>203.0</ele><time>2026-04-25T08:12:21.953Z</time></trkpt><trkpt lat="45.9400917" lon="11.9252183"><ele>206.0</ele><time>2026-04-25T08:12:22.955Z</time></trkpt><trkpt lat="45.940235" lon="11.9251117"><ele>209.0</ele><time>2026-04-25T08:12:23.954Z</time></trkpt><trkpt lat="45.9403683" lon="11.9250083"><ele>209.0</ele><time>2026-04-25T08:12:24.955Z</time></trkpt><trkpt lat="45.9404967" lon="11.9248983"><ele>209.0</ele><time>2026-04-25T08:12:25.955Z</time></trkpt><trkpt lat="45.940615" lon="11.9247767"><ele>209.0</ele><time>2026-04-25T08:12:26.954Z</time></trkpt><trkpt lat="45.9407183" lon="11.92466"><ele>209.0</ele><time>2026-04-25T08:12:27.954Z</time></trkpt><trkpt lat="45.940805" lon="11.9245567"><ele>209.0</ele><time>2026-04-25T08:12:28.955Z</time></trkpt><trkpt lat="45.94088" lon="11.92447"><ele>209.0</ele><time>2026-04-25T08:12:29.954Z</time></trkpt><trkpt lat="45.9409567" lon="11.9244067"><ele>209.0</ele><time>2026-04-25T08:12:30.955Z</time></trkpt><trkpt lat="45.941035" lon="11.9243733"><ele>209.0</ele><time>2026-04-25T08:12:31.954Z</time></trkpt><trkpt lat="45.9411217" lon="11.9243683"><ele>209.0</ele><time>2026-04-25T08:12:32.954Z</time></trkpt><trkpt lat="45.9412183" lon="11.924355"><ele>205.75</ele><time>2026-04-25T08:12:33.955Z</time></trkpt><trkpt lat="45.9413167" lon="11.9243217"><ele>202.5</ele><time>2026-04-25T08:12:34.954Z</time></trkpt><trkpt lat="45.941425" lon="11.924275"><ele>199.25</ele><time>2026-04-25T08:12:35.953Z</time></trkpt><trkpt lat="45.94155" lon="11.924245"><ele>196.0</ele><time>2026-04-25T08:12:36.953Z</time></trkpt><trkpt lat="45.9416833" lon="11.9242167"><ele>196.75</ele><time>2026-04-25T08:12:37.953Z</time></trkpt><trkpt lat="45.94182" lon="11.9241967"><ele>197.5</ele><time>2026-04-25T08:12:38.954Z</time></trkpt><trkpt lat="45.94196" lon="11.92418"><ele>198.25</ele><time>2026-04-25T08:12:39.955Z</time></trkpt><trkpt lat="45.9421083" lon="11.9241733"><ele>199.0</ele><time>2026-04-25T08:12:40.955Z</time></trkpt><trkpt lat="45.9422683" lon="11.924175"><ele>199.0</ele><time>2026-04-25T08:12:41.954Z</time></trkpt><trkpt lat="45.9424467" lon="11.9241983"><ele>199.0</ele><time>2026-04-25T08:12:42.954Z</time></trkpt><trkpt lat="45.9426383" lon="11.9242417"><ele>199.0</ele><time>2026-04-25T08:12:43.955Z</time></trkpt><trkpt lat="45.9428383" lon="11.924305"><ele>199.33333333333331</ele><time>2026-04-25T08:12:44.954Z</time></trkpt><trkpt lat="45.9430383" lon="11.9243783"><ele>199.66666666666669</ele><time>2026-04-25T08:12:45.956Z</time></trkpt><trkpt lat="45.9432283" lon="11.9244617"><ele>200.0</ele><time>2026-04-25T08:12:46.955Z</time></trkpt><trkpt lat="45.9434133" lon="11.92455"><ele>200.0</ele><time>2026-04-25T08:12:47.954Z</time></trkpt><trkpt lat="45.943595" lon="11.9246517"><ele>200.0</ele><time>2026-04-25T08:12:48.955Z</time></trkpt><trkpt lat="45.9437733" lon="11.9247767"><ele>200.0</ele><time>2026-04-25T08:12:49.955Z</time></trkpt><trkpt lat="45.943945" lon="11.924925"><ele>199.33333333333334</ele><time>2026-04-25T08:12:50.959Z</time></trkpt><trkpt lat="45.94411" lon="11.9250983"><ele>198.66666666666669</ele><time>2026-04-25T08:12:51.954Z</time></trkpt><trkpt lat="45.9442733" lon="11.9252867"><ele>198.0</ele><time>2026-04-25T08:12:52.954Z</time></trkpt><trkpt lat="45.9444333" lon="11.92549"><ele>198.0</ele><time>2026-04-25T08:12:53.954Z</time></trkpt><trkpt lat="45.9445883" lon="11.9257033"><ele>198.0</ele><time>2026-04-25T08:12:54.954Z</time></trkpt><trkpt lat="45.9447383" lon="11.9259217"><ele>198.0</ele><time>2026-04-25T08:12:55.955Z</time></trkpt><trkpt lat="45.9448867" lon="11.926135"><ele>196.33333333333331</ele><time>2026-04-25T08:12:56.955Z</time></trkpt><trkpt lat="45.945035" lon="11.9263433"><ele>194.66666666666666</ele><time>2026-04-25T08:12:57.955Z</time></trkpt><trkpt lat="45.9451783" lon="11.926545"><ele>193.0</ele><time>2026-04-25T08:12:58.954Z</time></trkpt><trkpt lat="45.9453183" lon="11.9267283"><ele>199.0</ele><time>2026-04-25T08:12:59.954Z</time></trkpt><trkpt lat="45.9454617" lon="11.9268867"><ele>205.0</ele><time>2026-04-25T08:13:00.955Z</time></trkpt><trkpt lat="45.94561" lon="11.9270267"><ele>211.0</ele><time>2026-04-25T08:13:01.955Z</time></trkpt><trkpt lat="45.9457583" lon="11.9271583"><ele>207.33333333333331</ele><time>2026-04-25T08:13:02.953Z</time></trkpt><trkpt lat="45.9459167" lon="11.9272733"><ele>203.66666666666669</ele><time>2026-04-25T08:13:03.956Z</time></trkpt><trkpt lat="45.9460767" lon="11.9273733"><ele>200.0</ele><time>2026-04-25T08:13:04.956Z</time></trkpt><trkpt lat="45.94624" lon="11.9274633"><ele>200.0</ele><time>2026-04-25T08:13:05.955Z</time></trkpt><trkpt lat="45.94641" lon="11.9275467"><ele>200.0</ele><time>2026-04-25T08:13:06.955Z</time></trkpt><trkpt lat="45.9465917" lon="11.927635"><ele>200.0</ele><time>2026-04-25T08:13:07.956Z</time></trkpt><trkpt lat="45.9467833" lon="11.9277283"><ele>205.33333333333334</ele><time>2026-04-25T08:13:08.954Z</time></trkpt><trkpt lat="45.9469733" lon="11.9278233"><ele>210.66666666666669</ele><time>2026-04-25T08:13:09.955Z</time></trkpt><trkpt lat="45.9471633" lon="11.9279183"><ele>216.0</ele><time>2026-04-25T08:13:10.954Z</time></trkpt><trkpt lat="45.94735" lon="11.9280167"><ele>216.0</ele><time>2026-04-25T08:13:11.954Z</time></trkpt><trkpt lat="45.9475383" lon="11.9281233"><ele>216.0</ele><time>2026-04-25T08:13:12.956Z</time></trkpt><trkpt lat="45.9477217" lon="11.928245"><ele>216.0</ele><time>2026-04-25T08:13:13.955Z</time></trkpt><trkpt lat="45.9478983" lon="11.92838"><ele>212.0</ele><time>2026-04-25T08:13:14.954Z</time></trkpt><trkpt lat="45.9480683" lon="11.9285267"><ele>208.0</ele><time>2026-04-25T08:13:15.954Z</time></trkpt><trkpt lat="45.9482283" lon="11.9286867"><ele>204.0</ele><time>2026-04-25T08:13:16.956Z</time></trkpt><trkpt lat="45.9483867" lon="11.928855"><ele>204.0</ele><time>2026-04-25T08:13:17.955Z</time></trkpt><trkpt lat="45.9485367" lon="11.9290317"><ele>204.0</ele><time>2026-04-25T08:13:18.955Z</time></trkpt><trkpt lat="45.9486817" lon="11.929215"><ele>204.0</ele><time>2026-04-25T08:13:19.955Z</time></trkpt><trkpt lat="45.9488233" lon="11.929405"><ele>204.0</ele><time>2026-04-25T08:13:20.954Z</time></trkpt><trkpt lat="45.948965" lon="11.9295917"><ele>204.0</ele><time>2026-04-25T08:13:21.954Z</time></trkpt><trkpt lat="45.9491033" lon="11.9297783"><ele>204.0</ele><time>2026-04-25T08:13:22.956Z</time></trkpt><trkpt lat="45.9492417" lon="11.9299617"><ele>202.0</ele><time>2026-04-25T08:13:23.955Z</time></trkpt><trkpt lat="45.94938" lon="11.9301467"><ele>200.0</ele><time>2026-04-25T08:13:24.955Z</time></trkpt><trkpt lat="45.950375" lon="11.9315017"><ele>199.33333333333334</ele><time>2026-04-25T08:13:32.954Z</time></trkpt><trkpt lat="45.9503617" lon="11.9316883"><ele>198.66666666666669</ele><time>2026-04-25T08:13:33.955Z</time></trkpt><trkpt lat="45.9504517" lon="11.9318817"><ele>198.0</ele><time>2026-04-25T08:13:34.96Z</time></trkpt><trkpt lat="45.9505633" lon="11.9320883"><ele>196.33333333333331</ele><time>2026-04-25T08:13:35.953Z</time></trkpt><trkpt lat="45.9506667" lon="11.9323083"><ele>194.66666666666666</ele><time>2026-04-25T08:13:36.955Z</time></trkpt><trkpt lat="45.95077" lon="11.932545"><ele>193.0</ele><time>2026-04-25T08:13:37.954Z</time></trkpt><trkpt lat="45.9508783" lon="11.9328017"><ele>193.0</ele><time>2026-04-25T08:13:38.954Z</time></trkpt><trkpt lat="45.9509967" lon="11.9330717"><ele>193.0</ele><time>2026-04-25T08:13:39.955Z</time></trkpt><trkpt lat="45.9511183" lon="11.93335"><ele>198.5</ele><time>2026-04-25T08:13:40.955Z</time></trkpt><trkpt lat="45.95125" lon="11.93363"><ele>204.0</ele><time>2026-04-25T08:13:41.954Z</time></trkpt><trkpt lat="45.951385" lon="11.9339017"><ele>204.0</ele><time>2026-04-25T08:13:42.955Z</time></trkpt><trkpt lat="45.9515267" lon="11.9341683"><ele>204.0</ele><time>2026-04-25T08:13:43.956Z</time></trkpt><trkpt lat="45.9516767" lon="11.9344283"><ele>200.0</ele><time>2026-04-25T08:13:44.954Z</time></trkpt><trkpt lat="45.9518317" lon="11.9346783"><ele>196.0</ele><time>2026-04-25T08:13:45.953Z</time></trkpt><trkpt lat="45.9519933" lon="11.9349133"><ele>203.33333333333331</ele><time>2026-04-25T08:13:46.955Z</time></trkpt><trkpt lat="45.9521567" lon="11.935135"><ele>210.66666666666669</ele><time>2026-04-25T08:13:47.954Z</time></trkpt><trkpt lat="45.95232" lon="11.9353483"><ele>218.0</ele><time>2026-04-25T08:13:48.958Z</time></trkpt><trkpt lat="45.9524767" lon="11.9355517"><ele>213.66666666666669</ele><time>2026-04-25T08:13:49.955Z</time></trkpt><trkpt lat="45.952635" lon="11.9357517"><ele>209.33333333333331</ele><time>2026-04-25T08:13:50.956Z</time></trkpt><trkpt lat="45.9527883" lon="11.9359483"><ele>205.0</ele><time>2026-04-25T08:13:51.954Z</time></trkpt><trkpt lat="45.9529383" lon="11.9361417"><ele>205.0</ele><time>2026-04-25T08:13:52.955Z</time></trkpt><trkpt lat="45.9530867" lon="11.9363317"><ele>205.0</ele><time>2026-04-25T08:13:53.954Z</time></trkpt><trkpt lat="45.9532333" lon="11.93652"><ele>205.0</ele><time>2026-04-25T08:13:54.955Z</time></trkpt><trkpt lat="45.9533817" lon="11.9367033"><ele>204.33333333333331</ele><time>2026-04-25T08:13:55.955Z</time></trkpt><trkpt lat="45.95353" lon="11.9368833"><ele>203.66666666666669</ele><time>2026-04-25T08:13:56.955Z</time></trkpt><trkpt lat="45.9536833" lon="11.9370583"><ele>203.0</ele><time>2026-04-25T08:13:57.954Z</time></trkpt><trkpt lat="45.95384" lon="11.93722"><ele>203.0</ele><time>2026-04-25T08:13:58.956Z</time></trkpt><trkpt lat="45.954" lon="11.9373633"><ele>203.0</ele><time>2026-04-25T08:13:59.954Z</time></trkpt><trkpt lat="45.9541617" lon="11.9374917"><ele>203.0</ele><time>2026-04-25T08:14:00.954Z</time></trkpt><trkpt lat="45.954325" lon="11.9376067"><ele>205.66666666666669</ele><time>2026-04-25T08:14:01.954Z</time></trkpt><trkpt lat="45.954485" lon="11.937705"><ele>208.33333333333331</ele><time>2026-04-25T08:14:02.953Z</time></trkpt><trkpt lat="45.9546383" lon="11.9377933"><ele>211.0</ele><time>2026-04-25T08:14:03.955Z</time></trkpt><trkpt lat="45.9547933" lon="11.9378733"><ele>211.0</ele><time>2026-04-25T08:14:04.955Z</time></trkpt><trkpt lat="45.9549483" lon="11.9379483"><ele>211.0</ele><time>2026-04-25T08:14:05.955Z</time></trkpt><trkpt lat="45.9551033" lon="11.9380167"><ele>211.0</ele><time>2026-04-25T08:14:06.955Z</time></trkpt><trkpt lat="45.9552617" lon="11.9380767"><ele>207.33333333333331</ele><time>2026-04-25T08:14:07.954Z</time></trkpt><trkpt lat="45.9554233" lon="11.93814"><ele>203.66666666666669</ele><time>2026-04-25T08:14:08.955Z</time></trkpt><trkpt lat="45.95559" lon="11.9382033"><ele>200.0</ele><time>2026-04-25T08:14:09.955Z</time></trkpt><trkpt lat="45.9557617" lon="11.9382617"><ele>199.66666666666669</ele><time>2026-04-25T08:14:10.955Z</time></trkpt><trkpt lat="45.9559317" lon="11.938315"><ele>199.33333333333331</ele><time>2026-04-25T08:14:11.954Z</time></trkpt><trkpt lat="45.9561067" lon="11.9383517"><ele>199.0</ele><time>2026-04-25T08:14:12.956Z</time></trkpt><trkpt lat="45.9562833" lon="11.9383733"><ele>202.66666666666666</ele><time>2026-04-25T08:14:13.955Z</time></trkpt><trkpt lat="45.9564567" lon="11.93839"><ele>206.33333333333331</ele><time>2026-04-25T08:14:14.954Z</time></trkpt><trkpt lat="45.9566233" lon="11.9384067"><ele>210.0</ele><time>2026-04-25T08:14:15.953Z</time></trkpt><trkpt lat="45.95679" lon="11.9384233"><ele>210.0</ele><time>2026-04-25T08:14:16.954Z</time></trkpt><trkpt lat="45.956955" lon="11.9384317"><ele>210.0</ele><time>2026-04-25T08:14:17.955Z</time></trkpt><trkpt lat="45.95712" lon="11.93844"><ele>210.0</ele><time>2026-04-25T08:14:18.956Z</time></trkpt><trkpt lat="45.9572867" lon="11.9384467"><ele>210.0</ele><time>2026-04-25T08:14:19.955Z</time></trkpt><trkpt lat="45.95746" lon="11.938455"><ele>210.0</ele><time>2026-04-25T08:14:20.953Z</time></trkpt><trkpt lat="45.9576367" lon="11.9384667"><ele>210.0</ele><time>2026-04-25T08:14:21.956Z</time></trkpt><trkpt lat="45.957815" lon="11.938475"><ele>208.33333333333331</ele><time>2026-04-25T08:14:22.954Z</time></trkpt><trkpt lat="45.9579917" lon="11.938485"><ele>206.66666666666666</ele><time>2026-04-25T08:14:23.955Z</time></trkpt><trkpt lat="45.9581617" lon="11.938495"><ele>205.0</ele><time>2026-04-25T08:14:24.954Z</time></trkpt><trkpt lat="45.95833" lon="11.9385067"><ele>208.0</ele><time>2026-04-25T08:14:25.954Z</time></trkpt><trkpt lat="45.9584983" lon="11.93852"><ele>211.0</ele><time>2026-04-25T08:14:26.955Z</time></trkpt><trkpt lat="45.9586667" lon="11.9385317"><ele>214.0</ele><time>2026-04-25T08:14:27.955Z</time></trkpt><trkpt lat="45.9588367" lon="11.9385417"><ele>214.0</ele><time>2026-04-25T08:14:28.955Z</time></trkpt><trkpt lat="45.9590083" lon="11.9385533"><ele>214.0</ele><time>2026-04-25T08:14:29.954Z</time></trkpt><trkpt lat="45.9591817" lon="11.938565"><ele>214.0</ele><time>2026-04-25T08:14:30.955Z</time></trkpt><trkpt lat="45.9593583" lon="11.9385717"><ele>213.66666666666666</ele><time>2026-04-25T08:14:31.954Z</time></trkpt><trkpt lat="45.9595367" lon="11.93858"><ele>213.33333333333331</ele><time>2026-04-25T08:14:32.955Z</time></trkpt><trkpt lat="45.9597167" lon="11.93859"><ele>213.0</ele><time>2026-04-25T08:14:33.955Z</time></trkpt><trkpt lat="45.9599" lon="11.938595"><ele>212.33333333333331</ele><time>2026-04-25T08:14:34.956Z</time></trkpt><trkpt lat="45.9600867" lon="11.9386"><ele>211.66666666666666</ele><time>2026-04-25T08:14:35.955Z</time></trkpt><trkpt lat="45.960275" lon="11.938605"><ele>211.0</ele><time>2026-04-25T08:14:36.954Z</time></trkpt><trkpt lat="45.9604567" lon="11.9386167"><ele>211.0</ele><time>2026-04-25T08:14:37.954Z</time></trkpt><trkpt lat="45.9606383" lon="11.93863"><ele>211.0</ele><time>2026-04-25T08:14:38.954Z</time></trkpt><trkpt lat="45.9608233" lon="11.93863"><ele>211.0</ele><time>2026-04-25T08:14:39.954Z</time></trkpt><trkpt lat="45.9610067" lon="11.938635"><ele>209.66666666666666</ele><time>2026-04-25T08:14:40.955Z</time></trkpt><trkpt lat="45.9611883" lon="11.9386383"><ele>208.33333333333331</ele><time>2026-04-25T08:14:41.954Z</time></trkpt><trkpt lat="45.9613667" lon="11.9386417"><ele>207.0</ele><time>2026-04-25T08:14:42.954Z</time></trkpt><trkpt lat="45.96155" lon="11.9386383"><ele>211.0</ele><time>2026-04-25T08:14:43.956Z</time></trkpt><trkpt lat="45.96173" lon="11.9386283"><ele>215.0</ele><time>2026-04-25T08:14:44.955Z</time></trkpt><trkpt lat="45.96191" lon="11.93861"><ele>219.0</ele><time>2026-04-25T08:14:45.955Z</time></trkpt><trkpt lat="45.962095" lon="11.938585"><ele>219.0</ele><time>2026-04-25T08:14:46.955Z</time></trkpt><trkpt lat="45.962285" lon="11.9385383"><ele>219.0</ele><time>2026-04-25T08:14:47.955Z</time></trkpt><trkpt lat="45.9624783" lon="11.9384767"><ele>219.0</ele><time>2026-04-25T08:14:48.955Z</time></trkpt><trkpt lat="45.9626683" lon="11.9384017"><ele>216.33333333333331</ele><time>2026-04-25T08:14:49.955Z</time></trkpt><trkpt lat="45.9628567" lon="11.9383133"><ele>213.66666666666666</ele><time>2026-04-25T08:14:50.955Z</time></trkpt><trkpt lat="45.96305" lon="11.9382117"><ele>211.0</ele><time>2026-04-25T08:14:51.954Z</time></trkpt><trkpt lat="45.9632533" lon="11.9380883"><ele>218.5</ele><time>2026-04-25T08:14:52.954Z</time></trkpt><trkpt lat="45.9634683" lon="11.93795"><ele>226.0</ele><time>2026-04-25T08:14:53.954Z</time></trkpt><trkpt lat="45.9637017" lon="11.9378167"><ele>226.0</ele><time>2026-04-25T08:14:54.955Z</time></trkpt><trkpt lat="45.963955" lon="11.937685"><ele>226.0</ele><time>2026-04-25T08:14:55.955Z</time></trkpt><trkpt lat="45.9642133" lon="11.93756"><ele>219.0</ele><time>2026-04-25T08:14:56.954Z</time></trkpt><trkpt lat="45.9644567" lon="11.9374367"><ele>212.0</ele><time>2026-04-25T08:14:57.955Z</time></trkpt><trkpt lat="45.9646867" lon="11.9373117"><ele>212.0</ele><time>2026-04-25T08:14:58.956Z</time></trkpt><trkpt lat="45.9649067" lon="11.93718"><ele>212.0</ele><time>2026-04-25T08:14:59.955Z</time></trkpt><trkpt lat="45.9651233" lon="11.937065"><ele>218.33333333333334</ele><time>2026-04-25T08:15:00.955Z</time></trkpt><trkpt lat="45.9653367" lon="11.9369533"><ele>224.66666666666669</ele><time>2026-04-25T08:15:01.954Z</time></trkpt><trkpt lat="45.9655433" lon="11.93684"><ele>231.0</ele><time>2026-04-25T08:15:02.955Z</time></trkpt><trkpt lat="45.965745" lon="11.9367333"><ele>226.33333333333331</ele><time>2026-04-25T08:15:03.956Z</time></trkpt><trkpt lat="45.9659467" lon="11.9366333"><ele>221.66666666666666</ele><time>2026-04-25T08:15:04.955Z</time></trkpt><trkpt lat="45.9661467" lon="11.93654"><ele>217.0</ele><time>2026-04-25T08:15:05.953Z</time></trkpt><trkpt lat="45.9663517" lon="11.9364667"><ele>217.0</ele><time>2026-04-25T08:15:06.953Z</time></trkpt><trkpt lat="45.9665583" lon="11.9364067"><ele>217.0</ele><time>2026-04-25T08:15:07.955Z</time></trkpt><trkpt lat="45.966765" lon="11.93636"><ele>217.0</ele><time>2026-04-25T08:15:08.954Z</time></trkpt><trkpt lat="45.966975" lon="11.936335"><ele>217.33333333333331</ele><time>2026-04-25T08:15:09.956Z</time></trkpt><trkpt lat="45.967185" lon="11.936325"><ele>217.66666666666669</ele><time>2026-04-25T08:15:10.956Z</time></trkpt><trkpt lat="45.9673967" lon="11.9363317"><ele>218.0</ele><time>2026-04-25T08:15:11.954Z</time></trkpt><trkpt lat="45.96761" lon="11.9363517"><ele>218.0</ele><time>2026-04-25T08:15:12.955Z</time></trkpt><trkpt lat="45.96783" lon="11.936385"><ele>218.0</ele><time>2026-04-25T08:15:13.954Z</time></trkpt><trkpt lat="45.968055" lon="11.936435"><ele>218.0</ele><time>2026-04-25T08:15:14.955Z</time></trkpt><trkpt lat="45.96828" lon="11.936485"><ele>217.0</ele><time>2026-04-25T08:15:15.956Z</time></trkpt><trkpt lat="45.9684983" lon="11.9365333"><ele>216.0</ele><time>2026-04-25T08:15:16.956Z</time></trkpt><trkpt lat="45.9687133" lon="11.93658"><ele>215.0</ele><time>2026-04-25T08:15:17.955Z</time></trkpt><trkpt lat="45.9689217" lon="11.9366233"><ele>215.0</ele><time>2026-04-25T08:15:18.955Z</time></trkpt><trkpt lat="45.9691217" lon="11.9366817"><ele>215.0</ele><time>2026-04-25T08:15:19.955Z</time></trkpt><trkpt lat="45.969315" lon="11.93675"><ele>215.0</ele><time>2026-04-25T08:15:20.954Z</time></trkpt><trkpt lat="45.9694983" lon="11.9368267"><ele>211.33333333333334</ele><time>2026-04-25T08:15:21.955Z</time></trkpt><trkpt lat="45.9696767" lon="11.9369117"><ele>207.66666666666669</ele><time>2026-04-25T08:15:22.955Z</time></trkpt><trkpt lat="45.969855" lon="11.9370167"><ele>204.0</ele><time>2026-04-25T08:15:23.954Z</time></trkpt><trkpt lat="45.9700317" lon="11.93713"><ele>204.0</ele><time>2026-04-25T08:15:24.955Z</time></trkpt><trkpt lat="45.9702083" lon="11.9372717"><ele>204.0</ele><time>2026-04-25T08:15:25.954Z</time></trkpt><trkpt lat="45.9703833" lon="11.9374417"><ele>204.0</ele><time>2026-04-25T08:15:26.955Z</time></trkpt><trkpt lat="45.9705583" lon="11.9376233"><ele>203.33333333333331</ele><time>2026-04-25T08:15:27.955Z</time></trkpt><trkpt lat="45.9707283" lon="11.9378133"><ele>202.66666666666666</ele><time>2026-04-25T08:15:28.956Z</time></trkpt><trkpt lat="45.9708967" lon="11.9380067"><ele>202.0</ele><time>2026-04-25T08:15:29.956Z</time></trkpt><trkpt lat="45.9710617" lon="11.9382067"><ele>206.33333333333331</ele><time>2026-04-25T08:15:30.955Z</time></trkpt><trkpt lat="45.9712233" lon="11.9384133"><ele>210.66666666666669</ele><time>2026-04-25T08:15:31.954Z</time></trkpt><trkpt lat="45.9713767" lon="11.9386317"><ele>215.0</ele><time>2026-04-25T08:15:32.954Z</time></trkpt><trkpt lat="45.971525" lon="11.9388533"><ele>215.0</ele><time>2026-04-25T08:15:33.954Z</time></trkpt><trkpt lat="45.9716667" lon="11.93908"><ele>215.0</ele><time>2026-04-25T08:15:34.955Z</time></trkpt><trkpt lat="45.9718033" lon="11.9393167"><ele>215.0</ele><time>2026-04-25T08:15:35.955Z</time></trkpt><trkpt lat="45.9719367" lon="11.9395533"><ele>218.0</ele><time>2026-04-25T08:15:36.955Z</time></trkpt><trkpt lat="45.9720717" lon="11.9397917"><ele>221.0</ele><time>2026-04-25T08:15:37.955Z</time></trkpt><trkpt lat="45.9722017" lon="11.9400317"><ele>224.0</ele><time>2026-04-25T08:15:38.955Z</time></trkpt><trkpt lat="45.9723167" lon="11.94028"><ele>224.0</ele><time>2026-04-25T08:15:39.953Z</time></trkpt><trkpt lat="45.9724267" lon="11.940535"><ele>224.0</ele><time>2026-04-25T08:15:40.955Z</time></trkpt><trkpt lat="45.972535" lon="11.9407917"><ele>224.0</ele><time>2026-04-25T08:15:41.955Z</time></trkpt><trkpt lat="45.9726433" lon="11.9410533"><ele>220.0</ele><time>2026-04-25T08:15:42.954Z</time></trkpt><trkpt lat="45.9727517" lon="11.941315"><ele>216.0</ele><time>2026-04-25T08:15:43.956Z</time></trkpt><trkpt lat="45.9728633" lon="11.9415783"><ele>212.0</ele><time>2026-04-25T08:15:44.955Z</time></trkpt><trkpt lat="45.9729667" lon="11.9418383"><ele>212.0</ele><time>2026-04-25T08:15:45.954Z</time></trkpt><trkpt lat="45.9730717" lon="11.9420967"><ele>212.0</ele><time>2026-04-25T08:15:46.955Z</time></trkpt><trkpt lat="45.9731767" lon="11.94236"><ele>212.0</ele><time>2026-04-25T08:15:47.954Z</time></trkpt><trkpt lat="45.973285" lon="11.94263"><ele>208.66666666666669</ele><time>2026-04-25T08:15:48.954Z</time></trkpt><trkpt lat="45.9733917" lon="11.942905"><ele>205.33333333333331</ele><time>2026-04-25T08:15:49.954Z</time></trkpt><trkpt lat="45.9735" lon="11.9431817"><ele>202.0</ele><time>2026-04-25T08:15:50.953Z</time></trkpt><trkpt lat="45.9736067" lon="11.9434617"><ele>202.0</ele><time>2026-04-25T08:15:51.955Z</time></trkpt><trkpt lat="45.97371" lon="11.9437383"><ele>202.0</ele><time>2026-04-25T08:15:52.955Z</time></trkpt><trkpt lat="45.9738083" lon="11.9440133"><ele>202.0</ele><time>2026-04-25T08:15:53.955Z</time></trkpt><trkpt lat="45.9739033" lon="11.9442883"><ele>201.66666666666666</ele><time>2026-04-25T08:15:54.955Z</time></trkpt><trkpt lat="45.974" lon="11.9445683"><ele>201.33333333333331</ele><time>2026-04-25T08:15:55.955Z</time></trkpt><trkpt lat="45.9740933" lon="11.9448533"><ele>201.0</ele><time>2026-04-25T08:15:56.955Z</time></trkpt><trkpt lat="45.97419" lon="11.94515"><ele>201.0</ele><time>2026-04-25T08:15:57.956Z</time></trkpt><trkpt lat="45.9742867" lon="11.9454533"><ele>201.0</ele><time>2026-04-25T08:15:58.956Z</time></trkpt><trkpt lat="45.9743867" lon="11.9457583"><ele>201.0</ele><time>2026-04-25T08:15:59.953Z</time></trkpt><trkpt lat="45.9744867" lon="11.946065"><ele>201.0</ele><time>2026-04-25T08:16:00.954Z</time></trkpt><trkpt lat="45.9745883" lon="11.94637"><ele>201.0</ele><time>2026-04-25T08:16:01.954Z</time></trkpt><trkpt lat="45.97469" lon="11.9466767"><ele>201.0</ele><time>2026-04-25T08:16:02.954Z</time></trkpt><trkpt lat="45.9747883" lon="11.9469717"><ele>201.0</ele><time>2026-04-25T08:16:03.954Z</time></trkpt><trkpt lat="45.9748867" lon="11.9472617"><ele>201.0</ele><time>2026-04-25T08:16:04.956Z</time></trkpt><trkpt lat="45.9749833" lon="11.9475483"><ele>201.0</ele><time>2026-04-25T08:16:05.954Z</time></trkpt><trkpt lat="45.9750783" lon="11.9478317"><ele>201.0</ele><time>2026-04-25T08:16:06.955Z</time></trkpt><trkpt lat="45.9751733" lon="11.948115"><ele>201.0</ele><time>2026-04-25T08:16:07.955Z</time></trkpt><trkpt lat="45.9752633" lon="11.9484"><ele>201.0</ele><time>2026-04-25T08:16:08.955Z</time></trkpt><trkpt lat="45.97535" lon="11.9486883"><ele>202.0</ele><time>2026-04-25T08:16:09.955Z</time></trkpt><trkpt lat="45.9754333" lon="11.9489767"><ele>203.0</ele><time>2026-04-25T08:16:10.955Z</time></trkpt><trkpt lat="45.9755083" lon="11.9492667"><ele>204.0</ele><time>2026-04-25T08:16:11.954Z</time></trkpt><trkpt lat="45.9755667" lon="11.94956"><ele>204.33333333333331</ele><time>2026-04-25T08:16:12.953Z</time></trkpt><trkpt lat="45.9756067" lon="11.9498633"><ele>204.66666666666666</ele><time>2026-04-25T08:16:13.954Z</time></trkpt><trkpt lat="45.9756283" lon="11.95017"><ele>205.0</ele><time>2026-04-25T08:16:14.954Z</time></trkpt><trkpt lat="45.97563" lon="11.9504833"><ele>205.33333333333331</ele><time>2026-04-25T08:16:15.955Z</time></trkpt><trkpt lat="45.97561" lon="11.9508017"><ele>205.66666666666669</ele><time>2026-04-25T08:16:16.955Z</time></trkpt><trkpt lat="45.9755733" lon="11.9511167"><ele>206.0</ele><time>2026-04-25T08:16:17.954Z</time></trkpt><trkpt lat="45.975515" lon="11.9514283"><ele>206.33333333333334</ele><time>2026-04-25T08:16:18.955Z</time></trkpt><trkpt lat="45.975445" lon="11.95173"><ele>206.66666666666669</ele><time>2026-04-25T08:16:19.954Z</time></trkpt><trkpt lat="45.97537" lon="11.9520183"><ele>207.0</ele><time>2026-04-25T08:16:20.955Z</time></trkpt><trkpt lat="45.9753033" lon="11.9523017"><ele>206.66666666666669</ele><time>2026-04-25T08:16:21.955Z</time></trkpt><trkpt lat="45.9752517" lon="11.952585"><ele>206.33333333333334</ele><time>2026-04-25T08:16:22.955Z</time></trkpt><trkpt lat="45.9752133" lon="11.9528733"><ele>206.0</ele><time>2026-04-25T08:16:23.955Z</time></trkpt><trkpt lat="45.9751867" lon="11.9531667"><ele>206.33333333333334</ele><time>2026-04-25T08:16:24.955Z</time></trkpt><trkpt lat="45.9751783" lon="11.95347"><ele>206.66666666666669</ele><time>2026-04-25T08:16:25.955Z</time></trkpt><trkpt lat="45.97519" lon="11.9537783"><ele>207.0</ele><time>2026-04-25T08:16:26.954Z</time></trkpt><trkpt lat="45.9752217" lon="11.9541017"><ele>208.0</ele><time>2026-04-25T08:16:27.954Z</time></trkpt><trkpt lat="45.9752717" lon="11.954435"><ele>209.0</ele><time>2026-04-25T08:16:28.957Z</time></trkpt><trkpt lat="45.9753333" lon="11.9547683"><ele>210.0</ele><time>2026-04-25T08:16:29.955Z</time></trkpt><trkpt lat="45.9753983" lon="11.9550933"><ele>211.0</ele><time>2026-04-25T08:16:30.955Z</time></trkpt><trkpt lat="45.975465" lon="11.955405"><ele>211.0</ele><time>2026-04-25T08:16:31.955Z</time></trkpt><trkpt lat="45.97553" lon="11.9557067"><ele>211.0</ele><time>2026-04-25T08:16:32.954Z</time></trkpt><trkpt lat="45.9755833" lon="11.95599"><ele>211.0</ele><time>2026-04-25T08:16:33.955Z</time></trkpt><trkpt lat="45.9756383" lon="11.9562633"><ele>212.66666666666666</ele><time>2026-04-25T08:16:34.954Z</time></trkpt><trkpt lat="45.975695" lon="11.95652"><ele>214.33333333333331</ele><time>2026-04-25T08:16:35.953Z</time></trkpt><trkpt lat="45.9757517" lon="11.9567633"><ele>216.0</ele><time>2026-04-25T08:16:36.954Z</time></trkpt><trkpt lat="45.9758133" lon="11.9569967"><ele>214.66666666666669</ele><time>2026-04-25T08:16:37.959Z</time></trkpt><trkpt lat="45.9758783" lon="11.957215"><ele>213.33333333333334</ele><time>2026-04-25T08:16:38.955Z</time></trkpt><trkpt lat="45.97595" lon="11.957425"><ele>212.0</ele><time>2026-04-25T08:16:39.955Z</time></trkpt><trkpt lat="45.976035" lon="11.9576333"><ele>212.0</ele><time>2026-04-25T08:16:40.955Z</time></trkpt><trkpt lat="45.9761317" lon="11.9578383"><ele>212.0</ele><time>2026-04-25T08:16:41.954Z</time></trkpt><trkpt lat="45.97624" lon="11.9580433"><ele>212.0</ele><time>2026-04-25T08:16:42.955Z</time></trkpt><trkpt lat="45.976355" lon="11.9582533"><ele>211.0</ele><time>2026-04-25T08:16:43.955Z</time></trkpt><trkpt lat="45.97647" lon="11.9584717"><ele>210.0</ele><time>2026-04-25T08:16:44.955Z</time></trkpt><trkpt lat="45.9765867" lon="11.9586917"><ele>209.0</ele><time>2026-04-25T08:16:45.954Z</time></trkpt><trkpt lat="45.9766967" lon="11.9589033"><ele>209.0</ele><time>2026-04-25T08:16:46.954Z</time></trkpt><trkpt lat="45.9768017" lon="11.9591017"><ele>209.0</ele><time>2026-04-25T08:16:47.953Z</time></trkpt><trkpt lat="45.9769033" lon="11.9592967"><ele>209.0</ele><time>2026-04-25T08:16:48.954Z</time></trkpt><trkpt lat="45.9770083" lon="11.95949"><ele>209.66666666666669</ele><time>2026-04-25T08:16:49.954Z</time></trkpt><trkpt lat="45.9771133" lon="11.959685"><ele>210.33333333333331</ele><time>2026-04-25T08:16:50.954Z</time></trkpt><trkpt lat="45.9772183" lon="11.9598817"><ele>211.0</ele><time>2026-04-25T08:16:51.956Z</time></trkpt><trkpt lat="45.977325" lon="11.96008"><ele>210.66666666666666</ele><time>2026-04-25T08:16:52.957Z</time></trkpt><trkpt lat="45.9774317" lon="11.9602833"><ele>210.33333333333331</ele><time>2026-04-25T08:16:53.954Z</time></trkpt><trkpt lat="45.977545" lon="11.9604983"><ele>210.0</ele><time>2026-04-25T08:16:54.955Z</time></trkpt><trkpt lat="45.97766" lon="11.9607167"><ele>209.66666666666669</ele><time>2026-04-25T08:16:55.956Z</time></trkpt><trkpt lat="45.9777733" lon="11.9609333"><ele>209.33333333333334</ele><time>2026-04-25T08:16:56.956Z</time></trkpt><trkpt lat="45.97789" lon="11.961155"><ele>209.0</ele><time>2026-04-25T08:16:57.955Z</time></trkpt><trkpt lat="45.9780067" lon="11.9613767"><ele>209.0</ele><time>2026-04-25T08:16:58.956Z</time></trkpt><trkpt lat="45.978125" lon="11.9616033"><ele>209.0</ele><time>2026-04-25T08:16:59.956Z</time></trkpt><trkpt lat="45.9782433" lon="11.9618317"><ele>209.0</ele><time>2026-04-25T08:17:00.955Z</time></trkpt><trkpt lat="45.9783633" lon="11.9620633"><ele>208.66666666666669</ele><time>2026-04-25T08:17:01.954Z</time></trkpt><trkpt lat="45.9784833" lon="11.9622933"><ele>208.33333333333331</ele><time>2026-04-25T08:17:02.954Z</time></trkpt><trkpt lat="45.9786017" lon="11.96252"><ele>208.0</ele><time>2026-04-25T08:17:03.956Z</time></trkpt><trkpt lat="45.97872" lon="11.9627467"><ele>208.66666666666666</ele><time>2026-04-25T08:17:04.956Z</time></trkpt><trkpt lat="45.9788383" lon="11.962975"><ele>209.33333333333331</ele><time>2026-04-25T08:17:05.955Z</time></trkpt><trkpt lat="45.9789517" lon="11.9632117"><ele>210.0</ele><time>2026-04-25T08:17:06.955Z</time></trkpt><trkpt lat="45.9790567" lon="11.9634583"><ele>211.0</ele><time>2026-04-25T08:17:07.956Z</time></trkpt><trkpt lat="45.9791467" lon="11.9637133"><ele>212.0</ele><time>2026-04-25T08:17:08.955Z</time></trkpt><trkpt lat="45.9792233" lon="11.9639733"><ele>213.0</ele><time>2026-04-25T08:17:09.955Z</time></trkpt><trkpt lat="45.97929" lon="11.96424"><ele>211.33333333333331</ele><time>2026-04-25T08:17:10.956Z</time></trkpt><trkpt lat="45.97935" lon="11.9645067"><ele>209.66666666666666</ele><time>2026-04-25T08:17:11.957Z</time></trkpt><trkpt lat="45.9794033" lon="11.9647767"><ele>208.0</ele><time>2026-04-25T08:17:12.955Z</time></trkpt><trkpt lat="45.9794567" lon="11.96505"><ele>208.0</ele><time>2026-04-25T08:17:13.957Z</time></trkpt><trkpt lat="45.97951" lon="11.965325"><ele>208.0</ele><time>2026-04-25T08:17:14.954Z</time></trkpt><trkpt lat="45.9795617" lon="11.9656"><ele>208.0</ele><time>2026-04-25T08:17:15.955Z</time></trkpt><trkpt lat="45.979615" lon="11.9658717"><ele>208.0</ele><time>2026-04-25T08:17:16.954Z</time></trkpt><trkpt lat="45.9796683" lon="11.966145"><ele>208.0</ele><time>2026-04-25T08:17:17.954Z</time></trkpt><trkpt lat="45.97972" lon="11.9664167"><ele>208.0</ele><time>2026-04-25T08:17:18.955Z</time></trkpt><trkpt lat="45.97977" lon="11.9666883"><ele>209.33333333333331</ele><time>2026-04-25T08:17:19.957Z</time></trkpt><trkpt lat="45.9798183" lon="11.9669567"><ele>210.66666666666669</ele><time>2026-04-25T08:17:20.957Z</time></trkpt><trkpt lat="45.979865" lon="11.9672217"><ele>212.0</ele><time>2026-04-25T08:17:21.956Z</time></trkpt><trkpt lat="45.979915" lon="11.967485"><ele>213.33333333333334</ele><time>2026-04-25T08:17:22.957Z</time></trkpt><trkpt lat="45.9799683" lon="11.9677433"><ele>214.66666666666669</ele><time>2026-04-25T08:17:23.955Z</time></trkpt><trkpt lat="45.98002" lon="11.968"><ele>216.0</ele><time>2026-04-25T08:17:24.955Z</time></trkpt><trkpt lat="45.980075" lon="11.9682583"><ele>212.33333333333331</ele><time>2026-04-25T08:17:25.954Z</time></trkpt><trkpt lat="45.9801283" lon="11.9685217"><ele>208.66666666666666</ele><time>2026-04-25T08:17:26.955Z</time></trkpt><trkpt lat="45.98019" lon="11.9687883"><ele>205.0</ele><time>2026-04-25T08:17:27.955Z</time></trkpt><trkpt lat="45.98026" lon="11.9690517"><ele>206.0</ele><time>2026-04-25T08:17:28.955Z</time></trkpt><trkpt lat="45.9803367" lon="11.96931"><ele>207.0</ele><time>2026-04-25T08:17:29.954Z</time></trkpt><trkpt lat="45.9804217" lon="11.9695633"><ele>208.0</ele><time>2026-04-25T08:17:30.953Z</time></trkpt><trkpt lat="45.980515" lon="11.969815"><ele>206.33333333333331</ele><time>2026-04-25T08:17:31.954Z</time></trkpt><trkpt lat="45.9806167" lon="11.9700683"><ele>204.66666666666669</ele><time>2026-04-25T08:17:32.953Z</time></trkpt><trkpt lat="45.9807317" lon="11.97033"><ele>203.0</ele><time>2026-04-25T08:17:33.954Z</time></trkpt><trkpt lat="45.98085" lon="11.9705983"><ele>206.5</ele><time>2026-04-25T08:17:34.955Z</time></trkpt><trkpt lat="45.980975" lon="11.9708767"><ele>210.0</ele><time>2026-04-25T08:17:35.954Z</time></trkpt><trkpt lat="45.9811067" lon="11.97117"><ele>210.0</ele><time>2026-04-25T08:17:36.955Z</time></trkpt><trkpt lat="45.9812417" lon="11.9714783"><ele>210.0</ele><time>2026-04-25T08:17:37.953Z</time></trkpt><trkpt lat="45.981385" lon="11.9718033"><ele>209.5</ele><time>2026-04-25T08:17:38.955Z</time></trkpt><trkpt lat="45.9815383" lon="11.9721483"><ele>209.0</ele><time>2026-04-25T08:17:39.953Z</time></trkpt><trkpt lat="45.981705" lon="11.97251"><ele>208.5</ele><time>2026-04-25T08:17:40.955Z</time></trkpt><trkpt lat="45.9818767" lon="11.9728983"><ele>208.0</ele><time>2026-04-25T08:17:41.955Z</time></trkpt><trkpt lat="45.98205" lon="11.9733017"><ele>213.0</ele><time>2026-04-25T08:17:42.957Z</time></trkpt><trkpt lat="45.9822117" lon="11.973695"><ele>218.0</ele><time>2026-04-25T08:17:43.954Z</time></trkpt><trkpt lat="45.98237" lon="11.9740667"><ele>212.5</ele><time>2026-04-25T08:17:44.955Z</time></trkpt><trkpt lat="45.9825233" lon="11.9744167"><ele>207.0</ele><time>2026-04-25T08:17:45.954Z</time></trkpt><trkpt lat="45.9826683" lon="11.9747517"><ele>210.5</ele><time>2026-04-25T08:17:46.955Z</time></trkpt><trkpt lat="45.9828083" lon="11.9750717"><ele>214.0</ele><time>2026-04-25T08:17:47.954Z</time></trkpt><trkpt lat="45.982945" lon="11.97538"><ele>214.0</ele><time>2026-04-25T08:17:48.953Z</time></trkpt><trkpt lat="45.9830717" lon="11.9756717"><ele>214.0</ele><time>2026-04-25T08:17:49.955Z</time></trkpt><trkpt lat="45.9831933" lon="11.9759483"><ele>212.33333333333331</ele><time>2026-04-25T08:17:50.955Z</time></trkpt><trkpt lat="45.98331" lon="11.9762133"><ele>210.66666666666669</ele><time>2026-04-25T08:17:51.955Z</time></trkpt><trkpt lat="45.9834267" lon="11.97647"><ele>209.0</ele><time>2026-04-25T08:17:52.955Z</time></trkpt><trkpt lat="45.983545" lon="11.97673"><ele>213.66666666666669</ele><time>2026-04-25T08:17:53.954Z</time></trkpt><trkpt lat="45.9836717" lon="11.9769867"><ele>218.33333333333331</ele><time>2026-04-25T08:17:54.956Z</time></trkpt><trkpt lat="45.9838167" lon="11.9772317"><ele>223.0</ele><time>2026-04-25T08:17:55.955Z</time></trkpt><trkpt lat="45.9839767" lon="11.9774617"><ele>223.0</ele><time>2026-04-25T08:17:56.955Z</time></trkpt><trkpt lat="45.9841517" lon="11.9776717"><ele>223.0</ele><time>2026-04-25T08:17:57.954Z</time></trkpt><trkpt lat="45.9843333" lon="11.9778533"><ele>223.0</ele><time>2026-04-25T08:17:58.955Z</time></trkpt><trkpt lat="45.9845233" lon="11.9780133"><ele>223.0</ele><time>2026-04-25T08:17:59.954Z</time></trkpt><trkpt lat="45.9847083" lon="11.9781583"><ele>223.0</ele><time>2026-04-25T08:18:00.954Z</time></trkpt><trkpt lat="45.984885" lon="11.9783117"><ele>223.0</ele><time>2026-04-25T08:18:01.955Z</time></trkpt><trkpt lat="45.9850517" lon="11.9784917"><ele>221.66666666666666</ele><time>2026-04-25T08:18:02.954Z</time></trkpt><trkpt lat="45.9852133" lon="11.9786983"><ele>220.33333333333331</ele><time>2026-04-25T08:18:03.954Z</time></trkpt><trkpt lat="45.985375" lon="11.9789183"><ele>219.0</ele><time>2026-04-25T08:18:04.956Z</time></trkpt><trkpt lat="45.98554" lon="11.9791333"><ele>221.0</ele><time>2026-04-25T08:18:05.954Z</time></trkpt><trkpt lat="45.9857133" lon="11.9793383"><ele>223.0</ele><time>2026-04-25T08:18:06.957Z</time></trkpt><trkpt lat="45.9858967" lon="11.9795333"><ele>223.0</ele><time>2026-04-25T08:18:07.955Z</time></trkpt><trkpt lat="45.9860883" lon="11.9797167"><ele>223.0</ele><time>2026-04-25T08:18:08.954Z</time></trkpt><trkpt lat="45.9862983" lon="11.979875"><ele>223.0</ele><time>2026-04-25T08:18:09.954Z</time></trkpt><trkpt lat="45.98652" lon="11.9800083"><ele>223.0</ele><time>2026-04-25T08:18:10.955Z</time></trkpt><trkpt lat="45.986745" lon="11.980115"><ele>230.5</ele><time>2026-04-25T08:18:11.954Z</time></trkpt><trkpt lat="45.9869733" lon="11.980195"><ele>238.0</ele><time>2026-04-25T08:18:12.954Z</time></trkpt><trkpt lat="45.9871983" lon="11.98025"><ele>238.0</ele><time>2026-04-25T08:18:13.954Z</time></trkpt><trkpt lat="45.9874117" lon="11.9802917"><ele>238.0</ele><time>2026-04-25T08:18:14.953Z</time></trkpt><trkpt lat="45.9876233" lon="11.9803217"><ele>238.0</ele><time>2026-04-25T08:18:15.955Z</time></trkpt><trkpt lat="45.9878267" lon="11.9803467"><ele>235.0</ele><time>2026-04-25T08:18:16.955Z</time></trkpt><trkpt lat="45.9880283" lon="11.98037"><ele>232.0</ele><time>2026-04-25T08:18:17.955Z</time></trkpt><trkpt lat="45.9882333" lon="11.9804083"><ele>229.0</ele><time>2026-04-25T08:18:18.955Z</time></trkpt><trkpt lat="45.9884433" lon="11.9804683"><ele>225.0</ele><time>2026-04-25T08:18:19.956Z</time></trkpt><trkpt lat="45.9886517" lon="11.9805633"><ele>221.0</ele><time>2026-04-25T08:18:20.955Z</time></trkpt><trkpt lat="45.9888533" lon="11.98069"><ele>217.0</ele><time>2026-04-25T08:18:21.955Z</time></trkpt><trkpt lat="45.98905" lon="11.980835"><ele>219.0</ele><time>2026-04-25T08:18:22.954Z</time></trkpt><trkpt lat="45.9892433" lon="11.9809967"><ele>221.0</ele><time>2026-04-25T08:18:23.955Z</time></trkpt><trkpt lat="45.9894367" lon="11.981175"><ele>221.0</ele><time>2026-04-25T08:18:24.954Z</time></trkpt><trkpt lat="45.9896283" lon="11.9813617"><ele>221.0</ele><time>2026-04-25T08:18:25.953Z</time></trkpt><trkpt lat="45.98982" lon="11.98155"><ele>223.0</ele><time>2026-04-25T08:18:26.955Z</time></trkpt><trkpt lat="45.9900117" lon="11.9817333"><ele>225.0</ele><time>2026-04-25T08:18:27.954Z</time></trkpt><trkpt lat="45.9902033" lon="11.9819133"><ele>225.0</ele><time>2026-04-25T08:18:28.955Z</time></trkpt><trkpt lat="45.99039" lon="11.9820933"><ele>225.0</ele><time>2026-04-25T08:18:29.953Z</time></trkpt><trkpt lat="45.9905767" lon="11.982265"><ele>225.0</ele><time>2026-04-25T08:18:30.955Z</time></trkpt><trkpt lat="45.990765" lon="11.9824083"><ele>231.0</ele><time>2026-04-25T08:18:31.955Z</time></trkpt><trkpt lat="45.9909667" lon="11.9825367"><ele>237.0</ele><time>2026-04-25T08:18:32.955Z</time></trkpt><trkpt lat="45.9911817" lon="11.9826367"><ele>243.0</ele><time>2026-04-25T08:18:33.955Z</time></trkpt><trkpt lat="45.99141" lon="11.9827033"><ele>243.0</ele><time>2026-04-25T08:18:34.955Z</time></trkpt><trkpt lat="45.9916433" lon="11.98275"><ele>243.0</ele><time>2026-04-25T08:18:35.955Z</time></trkpt><trkpt lat="45.9918817" lon="11.982785"><ele>244.0</ele><time>2026-04-25T08:18:36.955Z</time></trkpt><trkpt lat="45.9921217" lon="11.9828133"><ele>245.0</ele><time>2026-04-25T08:18:37.954Z</time></trkpt><trkpt lat="45.99236" lon="11.9828433"><ele>242.0</ele><time>2026-04-25T08:18:38.954Z</time></trkpt><trkpt lat="45.9925983" lon="11.982875"><ele>239.0</ele><time>2026-04-25T08:18:39.957Z</time></trkpt><trkpt lat="45.9928333" lon="11.9829183"><ele>239.0</ele><time>2026-04-25T08:18:40.956Z</time></trkpt><trkpt lat="45.99307" lon="11.9829633"><ele>239.0</ele><time>2026-04-25T08:18:41.957Z</time></trkpt><trkpt lat="45.99331" lon="11.9829983"><ele>237.0</ele><time>2026-04-25T08:18:42.955Z</time></trkpt><trkpt lat="45.9935533" lon="11.9830167"><ele>235.0</ele><time>2026-04-25T08:18:43.955Z</time></trkpt><trkpt lat="45.9937867" lon="11.9830367"><ele>235.0</ele><time>2026-04-25T08:18:44.955Z</time></trkpt><trkpt lat="45.9940083" lon="11.9830483"><ele>235.0</ele><time>2026-04-25T08:18:45.955Z</time></trkpt><trkpt lat="45.9942183" lon="11.983055"><ele>235.0</ele><time>2026-04-25T08:18:46.96Z</time></trkpt><trkpt lat="45.9944233" lon="11.9830733"><ele>234.0</ele><time>2026-04-25T08:18:47.955Z</time></trkpt><trkpt lat="45.994625" lon="11.98311"><ele>233.0</ele><time>2026-04-25T08:18:48.956Z</time></trkpt><trkpt lat="45.994825" lon="11.983165"><ele>232.0</ele><time>2026-04-25T08:18:49.955Z</time></trkpt><trkpt lat="45.99503" lon="11.9832267"><ele>230.33333333333331</ele><time>2026-04-25T08:18:50.955Z</time></trkpt><trkpt lat="45.9952417" lon="11.983295"><ele>228.66666666666669</ele><time>2026-04-25T08:18:51.955Z</time></trkpt><trkpt lat="45.9954617" lon="11.9833467"><ele>227.0</ele><time>2026-04-25T08:18:52.954Z</time></trkpt><trkpt lat="45.9956783" lon="11.983375"><ele>228.66666666666669</ele><time>2026-04-25T08:18:53.955Z</time></trkpt><trkpt lat="45.9958917" lon="11.9833717"><ele>230.33333333333331</ele><time>2026-04-25T08:18:54.955Z</time></trkpt><trkpt lat="45.9961067" lon="11.98335"><ele>232.0</ele><time>2026-04-25T08:18:55.953Z</time></trkpt><trkpt lat="45.99633" lon="11.9833167"><ele>232.0</ele><time>2026-04-25T08:18:56.955Z</time></trkpt><trkpt lat="45.9965567" lon="11.9832833"><ele>232.0</ele><time>2026-04-25T08:18:57.955Z</time></trkpt><trkpt lat="45.996785" lon="11.9832567"><ele>234.0</ele><time>2026-04-25T08:18:58.956Z</time></trkpt><trkpt lat="45.9970133" lon="11.9832283"><ele>236.0</ele><time>2026-04-25T08:18:59.956Z</time></trkpt><trkpt lat="45.9972367" lon="11.9831983"><ele>236.0</ele><time>2026-04-25T08:19:00.956Z</time></trkpt><trkpt lat="45.997455" lon="11.9831733"><ele>236.0</ele><time>2026-04-25T08:19:01.959Z</time></trkpt><trkpt lat="45.9976733" lon="11.9831517"><ele>236.0</ele><time>2026-04-25T08:19:02.957Z</time></trkpt><trkpt lat="45.9978933" lon="11.983145"><ele>230.5</ele><time>2026-04-25T08:19:03.958Z</time></trkpt><trkpt lat="45.9981167" lon="11.9831267"><ele>225.0</ele><time>2026-04-25T08:19:04.959Z</time></trkpt><trkpt lat="45.99835" lon="11.9831067"><ele>225.0</ele><time>2026-04-25T08:19:05.955Z</time></trkpt><trkpt lat="45.9985867" lon="11.9830867"><ele>225.0</ele><time>2026-04-25T08:19:06.955Z</time></trkpt><trkpt lat="45.998825" lon="11.98307"><ele>225.0</ele><time>2026-04-25T08:19:07.955Z</time></trkpt><trkpt lat="45.9990667" lon="11.983045"><ele>225.0</ele><time>2026-04-25T08:19:08.955Z</time></trkpt><trkpt lat="45.999295" lon="11.9830233"><ele>225.0</ele><time>2026-04-25T08:19:09.955Z</time></trkpt><trkpt lat="45.999515" lon="11.983005"><ele>225.0</ele><time>2026-04-25T08:19:10.956Z</time></trkpt><trkpt lat="45.999735" lon="11.9829883"><ele>225.0</ele><time>2026-04-25T08:19:11.955Z</time></trkpt><trkpt lat="45.999955" lon="11.98297"><ele>225.0</ele><time>2026-04-25T08:19:12.955Z</time></trkpt><trkpt lat="46.000175" lon="11.9829483"><ele>225.0</ele><time>2026-04-25T08:19:13.957Z</time></trkpt><trkpt lat="46.0003933" lon="11.98293"><ele>225.0</ele><time>2026-04-25T08:19:14.955Z</time></trkpt><trkpt lat="46.00061" lon="11.9829083"><ele>225.0</ele><time>2026-04-25T08:19:15.954Z</time></trkpt><trkpt lat="46.000825" lon="11.9828867"><ele>225.0</ele><time>2026-04-25T08:19:16.956Z</time></trkpt><trkpt lat="46.001035" lon="11.9828683"><ele>225.0</ele><time>2026-04-25T08:19:17.954Z</time></trkpt><trkpt lat="46.0012433" lon="11.98285"><ele>228.0</ele><time>2026-04-25T08:19:18.958Z</time></trkpt><trkpt lat="46.0014517" lon="11.9828283"><ele>231.0</ele><time>2026-04-25T08:19:19.956Z</time></trkpt><trkpt lat="46.00166" lon="11.982805"><ele>234.0</ele><time>2026-04-25T08:19:20.956Z</time></trkpt><trkpt lat="46.0018683" lon="11.982785"><ele>236.0</ele><time>2026-04-25T08:19:21.956Z</time></trkpt><trkpt lat="46.00207" lon="11.9827667"><ele>238.0</ele><time>2026-04-25T08:19:22.958Z</time></trkpt><trkpt lat="46.0022633" lon="11.98275"><ele>240.0</ele><time>2026-04-25T08:19:23.955Z</time></trkpt><trkpt lat="46.0024517" lon="11.9827317"><ele>236.0</ele><time>2026-04-25T08:19:24.955Z</time></trkpt><trkpt lat="46.0026433" lon="11.9827133"><ele>232.0</ele><time>2026-04-25T08:19:25.954Z</time></trkpt><trkpt lat="46.00284" lon="11.982695"><ele>228.0</ele><time>2026-04-25T08:19:26.958Z</time></trkpt><trkpt lat="46.0030383" lon="11.9826783"><ele>228.0</ele><time>2026-04-25T08:19:27.955Z</time></trkpt><trkpt lat="46.0032433" lon="11.9826583"><ele>228.0</ele><time>2026-04-25T08:19:28.956Z</time></trkpt><trkpt lat="46.0034517" lon="11.9826383"><ele>228.0</ele><time>2026-04-25T08:19:29.956Z</time></trkpt><trkpt lat="46.003665" lon="11.9826167"><ele>228.0</ele><time>2026-04-25T08:19:30.955Z</time></trkpt><trkpt lat="46.0038817" lon="11.982595"><ele>228.0</ele><time>2026-04-25T08:19:31.957Z</time></trkpt><trkpt lat="46.004105" lon="11.9825717"><ele>228.0</ele><time>2026-04-25T08:19:32.955Z</time></trkpt><trkpt lat="46.0043333" lon="11.9825483"><ele>228.0</ele><time>2026-04-25T08:19:33.955Z</time></trkpt><trkpt lat="46.0045633" lon="11.9825267"><ele>228.0</ele><time>2026-04-25T08:19:34.958Z</time></trkpt><trkpt lat="46.0047883" lon="11.982505"><ele>226.0</ele><time>2026-04-25T08:19:35.956Z</time></trkpt><trkpt lat="46.00501" lon="11.98248"><ele>224.0</ele><time>2026-04-25T08:19:36.955Z</time></trkpt><trkpt lat="46.00523" lon="11.98246"><ele>222.0</ele><time>2026-04-25T08:19:37.956Z</time></trkpt><trkpt lat="46.00545" lon="11.982435"><ele>222.0</ele><time>2026-04-25T08:19:38.956Z</time></trkpt><trkpt lat="46.0056683" lon="11.98241"><ele>222.0</ele><time>2026-04-25T08:19:39.955Z</time></trkpt><trkpt lat="46.0058917" lon="11.982385"><ele>222.0</ele><time>2026-04-25T08:19:40.956Z</time></trkpt><trkpt lat="46.0061167" lon="11.9823617"><ele>222.5</ele><time>2026-04-25T08:19:41.955Z</time></trkpt><trkpt lat="46.0063483" lon="11.9823383"><ele>223.0</ele><time>2026-04-25T08:19:42.956Z</time></trkpt><trkpt lat="46.0065833" lon="11.982315"><ele>222.5</ele><time>2026-04-25T08:19:43.955Z</time></trkpt><trkpt lat="46.00682" lon="11.98229"><ele>222.0</ele><time>2026-04-25T08:19:44.956Z</time></trkpt><trkpt lat="46.0070583" lon="11.982265"><ele>222.0</ele><time>2026-04-25T08:19:45.956Z</time></trkpt><trkpt lat="46.0072983" lon="11.9822333"><ele>222.0</ele><time>2026-04-25T08:19:46.956Z</time></trkpt><trkpt lat="46.00754" lon="11.9822033"><ele>221.0</ele><time>2026-04-25T08:19:47.955Z</time></trkpt><trkpt lat="46.0077833" lon="11.9821717"><ele>220.0</ele><time>2026-04-25T08:19:48.956Z</time></trkpt><trkpt lat="46.0080267" lon="11.982145"><ele>220.0</ele><time>2026-04-25T08:19:49.956Z</time></trkpt><trkpt lat="46.00827" lon="11.98212"><ele>220.0</ele><time>2026-04-25T08:19:50.955Z</time></trkpt><trkpt lat="46.0085117" lon="11.9820917"><ele>226.5</ele><time>2026-04-25T08:19:51.956Z</time></trkpt><trkpt lat="46.0087533" lon="11.9820667"><ele>233.0</ele><time>2026-04-25T08:19:52.956Z</time></trkpt><trkpt lat="46.0089917" lon="11.9820417"><ele>246.0</ele><time>2026-04-25T08:19:53.955Z</time></trkpt><trkpt lat="46.00923" lon="11.9820167"><ele>259.0</ele><time>2026-04-25T08:19:54.956Z</time></trkpt><trkpt lat="46.0094683" lon="11.9819933"><ele>259.0</ele><time>2026-04-25T08:19:55.956Z</time></trkpt><trkpt lat="46.0097" lon="11.9819633"><ele>259.0</ele><time>2026-04-25T08:19:56.956Z</time></trkpt><trkpt lat="46.0099283" lon="11.9819367"><ele>264.3333333333333</ele><time>2026-04-25T08:19:57.955Z</time></trkpt><trkpt lat="46.0101467" lon="11.9819083"><ele>269.6666666666667</ele><time>2026-04-25T08:19:58.956Z</time></trkpt><trkpt lat="46.0103567" lon="11.9818833"><ele>275.0</ele><time>2026-04-25T08:19:59.956Z</time></trkpt><trkpt lat="46.0105617" lon="11.9818617"><ele>275.0</ele><time>2026-04-25T08:20:00.956Z</time></trkpt><trkpt lat="46.0107667" lon="11.9818367"><ele>275.0</ele><time>2026-04-25T08:20:01.956Z</time></trkpt><trkpt lat="46.0109717" lon="11.9818233"><ele>275.0</ele><time>2026-04-25T08:20:02.955Z</time></trkpt><trkpt lat="46.0111767" lon="11.9818067"><ele>277.6666666666667</ele><time>2026-04-25T08:20:03.956Z</time></trkpt><trkpt lat="46.0113817" lon="11.98181"><ele>280.3333333333333</ele><time>2026-04-25T08:20:04.957Z</time></trkpt><trkpt lat="46.0115883" lon="11.9818333"><ele>283.0</ele><time>2026-04-25T08:20:05.955Z</time></trkpt><trkpt lat="46.0117917" lon="11.9818867"><ele>276.66666666666663</ele><time>2026-04-25T08:20:06.956Z</time></trkpt><trkpt lat="46.012" lon="11.9819483"><ele>270.3333333333333</ele><time>2026-04-25T08:20:07.956Z</time></trkpt><trkpt lat="46.01222" lon="11.9820183"><ele>264.0</ele><time>2026-04-25T08:20:08.956Z</time></trkpt><trkpt lat="46.0124517" lon="11.982095"><ele>251.0</ele><time>2026-04-25T08:20:09.956Z</time></trkpt><trkpt lat="46.01269" lon="11.9821733"><ele>238.0</ele><time>2026-04-25T08:20:10.957Z</time></trkpt><trkpt lat="46.01294" lon="11.9822517"><ele>238.0</ele><time>2026-04-25T08:20:11.955Z</time></trkpt><trkpt lat="46.0132083" lon="11.982335"><ele>238.0</ele><time>2026-04-25T08:20:12.957Z</time></trkpt><trkpt lat="46.01349" lon="11.982425"><ele>250.0</ele><time>2026-04-25T08:20:13.955Z</time></trkpt><trkpt lat="46.0137633" lon="11.9825167"><ele>262.0</ele><time>2026-04-25T08:20:14.955Z</time></trkpt><trkpt lat="46.0140083" lon="11.98261"><ele>260.0</ele><time>2026-04-25T08:20:15.957Z</time></trkpt><trkpt lat="46.0142317" lon="11.9827133"><ele>258.0</ele><time>2026-04-25T08:20:16.955Z</time></trkpt><trkpt lat="46.01444" lon="11.9828233"><ele>258.0</ele><time>2026-04-25T08:20:17.954Z</time></trkpt><trkpt lat="46.0146317" lon="11.9829433"><ele>258.0</ele><time>2026-04-25T08:20:18.955Z</time></trkpt><trkpt lat="46.0148067" lon="11.9830817"><ele>258.0</ele><time>2026-04-25T08:20:19.955Z</time></trkpt><trkpt lat="46.0149667" lon="11.9832417"><ele>262.3333333333333</ele><time>2026-04-25T08:20:20.955Z</time></trkpt><trkpt lat="46.0151117" lon="11.98342"><ele>266.66666666666663</ele><time>2026-04-25T08:20:21.955Z</time></trkpt><trkpt lat="46.0152383" lon="11.983615"><ele>271.0</ele><time>2026-04-25T08:20:22.956Z</time></trkpt><trkpt lat="46.0153367" lon="11.983845"><ele>271.0</ele><time>2026-04-25T08:20:23.956Z</time></trkpt><trkpt lat="46.0154267" lon="11.984075"><ele>271.0</ele><time>2026-04-25T08:20:24.955Z</time></trkpt><trkpt lat="46.0154983" lon="11.9843217"><ele>271.0</ele><time>2026-04-25T08:20:25.955Z</time></trkpt><trkpt lat="46.0155567" lon="11.9845817"><ele>275.0</ele><time>2026-04-25T08:20:26.956Z</time></trkpt><trkpt lat="46.01561" lon="11.9848383"><ele>279.0</ele><time>2026-04-25T08:20:27.955Z</time></trkpt><trkpt lat="46.0156667" lon="11.9850817"><ele>283.0</ele><time>2026-04-25T08:20:28.956Z</time></trkpt><trkpt lat="46.015735" lon="11.9853133"><ele>286.0</ele><time>2026-04-25T08:20:29.955Z</time></trkpt><trkpt lat="46.01581" lon="11.9855367"><ele>289.0</ele><time>2026-04-25T08:20:30.957Z</time></trkpt><trkpt lat="46.0158983" lon="11.9857467"><ele>292.0</ele><time>2026-04-25T08:20:31.956Z</time></trkpt><trkpt lat="46.0160033" lon="11.9859533"><ele>283.0</ele><time>2026-04-25T08:20:32.955Z</time></trkpt><trkpt lat="46.0161117" lon="11.9861633"><ele>274.0</ele><time>2026-04-25T08:20:33.955Z</time></trkpt><trkpt lat="46.0162217" lon="11.9863817"><ele>265.0</ele><time>2026-04-25T08:20:34.956Z</time></trkpt><trkpt lat="46.0163283" lon="11.9866017"><ele>262.66666666666663</ele><time>2026-04-25T08:20:35.956Z</time></trkpt><trkpt lat="46.01643" lon="11.9868183"><ele>260.3333333333333</ele><time>2026-04-25T08:20:36.956Z</time></trkpt><trkpt lat="46.0165467" lon="11.9870317"><ele>258.0</ele><time>2026-04-25T08:20:37.955Z</time></trkpt><trkpt lat="46.0166583" lon="11.9872433"><ele>258.0</ele><time>2026-04-25T08:20:38.956Z</time></trkpt><trkpt lat="46.0167833" lon="11.987445"><ele>258.0</ele><time>2026-04-25T08:20:39.954Z</time></trkpt><trkpt lat="46.0169183" lon="11.9876317"><ele>258.0</ele><time>2026-04-25T08:20:40.956Z</time></trkpt><trkpt lat="46.017065" lon="11.9878017"><ele>256.6666666666667</ele><time>2026-04-25T08:20:41.954Z</time></trkpt><trkpt lat="46.0172167" lon="11.9879517"><ele>255.33333333333334</ele><time>2026-04-25T08:20:42.957Z</time></trkpt><trkpt lat="46.0173683" lon="11.9880833"><ele>254.0</ele><time>2026-04-25T08:20:43.956Z</time></trkpt><trkpt lat="46.0175167" lon="11.988195"><ele>254.0</ele><time>2026-04-25T08:20:44.957Z</time></trkpt><trkpt lat="46.0176633" lon="11.9882983"><ele>254.0</ele><time>2026-04-25T08:20:45.956Z</time></trkpt><trkpt lat="46.0178067" lon="11.9883967"><ele>254.0</ele><time>2026-04-25T08:20:46.957Z</time></trkpt><trkpt lat="46.0179467" lon="11.9884983"><ele>254.33333333333334</ele><time>2026-04-25T08:20:47.956Z</time></trkpt><trkpt lat="46.0180833" lon="11.988615"><ele>254.66666666666669</ele><time>2026-04-25T08:20:48.955Z</time></trkpt><trkpt lat="46.0182183" lon="11.9887433"><ele>255.0</ele><time>2026-04-25T08:20:49.955Z</time></trkpt><trkpt lat="46.0183517" lon="11.988885"><ele>255.0</ele><time>2026-04-25T08:20:50.955Z</time></trkpt><trkpt lat="46.018485" lon="11.9890367"><ele>255.0</ele><time>2026-04-25T08:20:51.955Z</time></trkpt><trkpt lat="46.0186167" lon="11.989205"><ele>255.0</ele><time>2026-04-25T08:20:52.955Z</time></trkpt><trkpt lat="46.0187533" lon="11.98938"><ele>251.0</ele><time>2026-04-25T08:20:53.955Z</time></trkpt><trkpt lat="46.0189" lon="11.9895617"><ele>247.0</ele><time>2026-04-25T08:20:54.956Z</time></trkpt><trkpt lat="46.0190583" lon="11.9897583"><ele>243.0</ele><time>2026-04-25T08:20:55.956Z</time></trkpt><trkpt lat="46.01924" lon="11.98997"><ele>253.5</ele><time>2026-04-25T08:20:56.954Z</time></trkpt><trkpt lat="46.0194417" lon="11.9902067"><ele>264.0</ele><time>2026-04-25T08:20:57.956Z</time></trkpt><trkpt lat="46.0196583" lon="11.9904733"><ele>264.0</ele><time>2026-04-25T08:20:58.957Z</time></trkpt><trkpt lat="46.0198867" lon="11.9907583"><ele>264.0</ele><time>2026-04-25T08:20:59.955Z</time></trkpt><trkpt lat="46.0201167" lon="11.9910417"><ele>258.0</ele><time>2026-04-25T08:21:00.956Z</time></trkpt><trkpt lat="46.0203283" lon="11.991315"><ele>252.0</ele><time>2026-04-25T08:21:01.956Z</time></trkpt><trkpt lat="46.0205233" lon="11.9915767"><ele>252.5</ele><time>2026-04-25T08:21:02.956Z</time></trkpt><trkpt lat="46.0207133" lon="11.9918267"><ele>253.0</ele><time>2026-04-25T08:21:03.956Z</time></trkpt><trkpt lat="46.0209017" lon="11.992065"><ele>253.0</ele><time>2026-04-25T08:21:04.955Z</time></trkpt><trkpt lat="46.0210867" lon="11.9922967"><ele>253.0</ele><time>2026-04-25T08:21:05.955Z</time></trkpt><trkpt lat="46.0212867" lon="11.9925183"><ele>261.5</ele><time>2026-04-25T08:21:06.956Z</time></trkpt><trkpt lat="46.0215017" lon="11.9927233"><ele>270.0</ele><time>2026-04-25T08:21:07.956Z</time></trkpt><trkpt lat="46.0217317" lon="11.992905"><ele>270.0</ele><time>2026-04-25T08:21:08.955Z</time></trkpt><trkpt lat="46.021975" lon="11.9930633"><ele>270.0</ele><time>2026-04-25T08:21:09.956Z</time></trkpt><trkpt lat="46.0222183" lon="11.993205"><ele>274.0</ele><time>2026-04-25T08:21:10.955Z</time></trkpt><trkpt lat="46.02246" lon="11.9933417"><ele>278.0</ele><time>2026-04-25T08:21:11.955Z</time></trkpt><trkpt lat="46.0226917" lon="11.9934817"><ele>278.0</ele><time>2026-04-25T08:21:12.955Z</time></trkpt><trkpt lat="46.02292" lon="11.9936133"><ele>278.0</ele><time>2026-04-25T08:21:13.956Z</time></trkpt><trkpt lat="46.023145" lon="11.9937383"><ele>269.0</ele><time>2026-04-25T08:21:14.956Z</time></trkpt><trkpt lat="46.0233667" lon="11.9938633"><ele>260.0</ele><time>2026-04-25T08:21:15.956Z</time></trkpt><trkpt lat="46.0235883" lon="11.993985"><ele>260.0</ele><time>2026-04-25T08:21:16.955Z</time></trkpt><trkpt lat="46.023805" lon="11.99411"><ele>260.0</ele><time>2026-04-25T08:21:17.956Z</time></trkpt><trkpt lat="46.0240183" lon="11.9942283"><ele>266.5</ele><time>2026-04-25T08:21:18.955Z</time></trkpt><trkpt lat="46.0242283" lon="11.9943517"><ele>273.0</ele><time>2026-04-25T08:21:19.956Z</time></trkpt><trkpt lat="46.0244333" lon="11.99448"><ele>273.0</ele><time>2026-04-25T08:21:20.956Z</time></trkpt><trkpt lat="46.0246283" lon="11.99461"><ele>273.0</ele><time>2026-04-25T08:21:21.955Z</time></trkpt><trkpt lat="46.0248217" lon="11.9947483"><ele>273.0</ele><time>2026-04-25T08:21:22.956Z</time></trkpt><trkpt lat="46.0250067" lon="11.994905"><ele>272.3333333333333</ele><time>2026-04-25T08:21:23.955Z</time></trkpt><trkpt lat="46.02519" lon="11.9950783"><ele>271.66666666666663</ele><time>2026-04-25T08:21:24.956Z</time></trkpt><trkpt lat="46.0253733" lon="11.995265"><ele>271.0</ele><time>2026-04-25T08:21:25.956Z</time></trkpt><trkpt lat="46.025555" lon="11.9954617"><ele>271.0</ele><time>2026-04-25T08:21:26.955Z</time></trkpt><trkpt lat="46.0257417" lon="11.9956667"><ele>271.0</ele><time>2026-04-25T08:21:27.956Z</time></trkpt><trkpt lat="46.0259283" lon="11.99587"><ele>259.0</ele><time>2026-04-25T08:21:28.955Z</time></trkpt><trkpt lat="46.026115" lon="11.9960767"><ele>247.0</ele><time>2026-04-25T08:21:29.956Z</time></trkpt><trkpt lat="46.0263017" lon="11.99628"><ele>247.0</ele><time>2026-04-25T08:21:30.957Z</time></trkpt><trkpt lat="46.0264833" lon="11.9964767"><ele>247.0</ele><time>2026-04-25T08:21:31.955Z</time></trkpt><trkpt lat="46.0266633" lon="11.9966683"><ele>244.66666666666666</ele><time>2026-04-25T08:21:32.955Z</time></trkpt><trkpt lat="46.0268467" lon="11.9968533"><ele>242.33333333333331</ele><time>2026-04-25T08:21:33.955Z</time></trkpt><trkpt lat="46.0270333" lon="11.9970267"><ele>240.0</ele><time>2026-04-25T08:21:34.957Z</time></trkpt><trkpt lat="46.0272233" lon="11.9971833"><ele>240.0</ele><time>2026-04-25T08:21:35.956Z</time></trkpt><trkpt lat="46.0274167" lon="11.9973217"><ele>240.0</ele><time>2026-04-25T08:21:36.956Z</time></trkpt><trkpt lat="46.02761" lon="11.9974417"><ele>240.0</ele><time>2026-04-25T08:21:37.955Z</time></trkpt><trkpt lat="46.02781" lon="11.9975417"><ele>240.33333333333331</ele><time>2026-04-25T08:21:38.956Z</time></trkpt><trkpt lat="46.0280067" lon="11.9976217"><ele>240.66666666666666</ele><time>2026-04-25T08:21:39.956Z</time></trkpt><trkpt lat="46.0281883" lon="11.997675"><ele>241.0</ele><time>2026-04-25T08:21:40.957Z</time></trkpt><trkpt lat="46.0283583" lon="11.9977117"><ele>241.33333333333331</ele><time>2026-04-25T08:21:41.954Z</time></trkpt><trkpt lat="46.0285167" lon="11.9977383"><ele>241.66666666666669</ele><time>2026-04-25T08:21:42.956Z</time></trkpt><trkpt lat="46.0286783" lon="11.9977483"><ele>242.0</ele><time>2026-04-25T08:21:43.956Z</time></trkpt><trkpt lat="46.02885" lon="11.997755"><ele>242.0</ele><time>2026-04-25T08:21:44.956Z</time></trkpt><trkpt lat="46.0290317" lon="11.997755"><ele>242.0</ele><time>2026-04-25T08:21:45.956Z</time></trkpt><trkpt lat="46.0292333" lon="11.997755"><ele>242.0</ele><time>2026-04-25T08:21:46.956Z</time></trkpt><trkpt lat="46.0294483" lon="11.9977533"><ele>240.66666666666669</ele><time>2026-04-25T08:21:47.955Z</time></trkpt><trkpt lat="46.02967" lon="11.9977467"><ele>239.33333333333331</ele><time>2026-04-25T08:21:48.956Z</time></trkpt><trkpt lat="46.0298933" lon="11.9977417"><ele>238.0</ele><time>2026-04-25T08:21:49.956Z</time></trkpt><trkpt lat="46.0301217" lon="11.997735"><ele>237.0</ele><time>2026-04-25T08:21:50.955Z</time></trkpt><trkpt lat="46.0303533" lon="11.99773"><ele>236.0</ele><time>2026-04-25T08:21:51.956Z</time></trkpt><trkpt lat="46.030585" lon="11.9977217"><ele>237.0</ele><time>2026-04-25T08:21:52.956Z</time></trkpt><trkpt lat="46.030815" lon="11.9977133"><ele>238.0</ele><time>2026-04-25T08:21:53.955Z</time></trkpt><trkpt lat="46.0310433" lon="11.99771"><ele>238.0</ele><time>2026-04-25T08:21:54.956Z</time></trkpt><trkpt lat="46.0312683" lon="11.997705"><ele>238.0</ele><time>2026-04-25T08:21:55.956Z</time></trkpt><trkpt lat="46.0314933" lon="11.9976983"><ele>237.33333333333331</ele><time>2026-04-25T08:21:56.955Z</time></trkpt><trkpt lat="46.0317167" lon="11.9976917"><ele>236.66666666666669</ele><time>2026-04-25T08:21:57.956Z</time></trkpt><trkpt lat="46.0319383" lon="11.9976867"><ele>236.0</ele><time>2026-04-25T08:21:58.956Z</time></trkpt><trkpt lat="46.03216" lon="11.9976833"><ele>236.0</ele><time>2026-04-25T08:21:59.955Z</time></trkpt><trkpt lat="46.0323783" lon="11.99768"><ele>236.0</ele><time>2026-04-25T08:22:00.956Z</time></trkpt><trkpt lat="46.0325983" lon="11.997675"><ele>236.0</ele><time>2026-04-25T08:22:01.958Z</time></trkpt><trkpt lat="46.0328183" lon="11.9976717"><ele>236.66666666666669</ele><time>2026-04-25T08:22:02.957Z</time></trkpt><trkpt lat="46.0330383" lon="11.99767"><ele>237.33333333333331</ele><time>2026-04-25T08:22:03.959Z</time></trkpt><trkpt lat="46.0332517" lon="11.997665"><ele>238.0</ele><time>2026-04-25T08:22:04.959Z</time></trkpt><trkpt lat="46.0334517" lon="11.99766"><ele>238.33333333333331</ele><time>2026-04-25T08:22:05.957Z</time></trkpt><trkpt lat="46.03364" lon="11.9976533"><ele>238.66666666666669</ele><time>2026-04-25T08:22:06.958Z</time></trkpt><trkpt lat="46.0338183" lon="11.9976483"><ele>239.0</ele><time>2026-04-25T08:22:07.956Z</time></trkpt><trkpt lat="46.0339867" lon="11.9976433"><ele>239.66666666666669</ele><time>2026-04-25T08:22:08.955Z</time></trkpt><trkpt lat="46.0341517" lon="11.9976383"><ele>240.33333333333331</ele><time>2026-04-25T08:22:09.955Z</time></trkpt><trkpt lat="46.034315" lon="11.9976333"><ele>241.0</ele><time>2026-04-25T08:22:10.956Z</time></trkpt><trkpt lat="46.0344767" lon="11.99763"><ele>241.0</ele><time>2026-04-25T08:22:11.954Z</time></trkpt><trkpt lat="46.034635" lon="11.997625"><ele>241.0</ele><time>2026-04-25T08:22:12.956Z</time></trkpt><trkpt lat="46.034785" lon="11.9976233"><ele>241.0</ele><time>2026-04-25T08:22:13.955Z</time></trkpt><trkpt lat="46.0349267" lon="11.997625"><ele>240.5</ele><time>2026-04-25T08:22:14.955Z</time></trkpt><trkpt lat="46.0350567" lon="11.9976267"><ele>240.0</ele><time>2026-04-25T08:22:15.955Z</time></trkpt><trkpt lat="46.0351767" lon="11.9976367"><ele>239.5</ele><time>2026-04-25T08:22:16.956Z</time></trkpt><trkpt lat="46.035295" lon="11.9976633"><ele>239.0</ele><time>2026-04-25T08:22:17.956Z</time></trkpt><trkpt lat="46.035415" lon="11.99771"><ele>239.0</ele><time>2026-04-25T08:22:18.956Z</time></trkpt><trkpt lat="46.0355483" lon="11.99777"><ele>239.0</ele><time>2026-04-25T08:22:19.956Z</time></trkpt><trkpt lat="46.0356917" lon="11.9978433"><ele>239.0</ele><time>2026-04-25T08:22:20.955Z</time></trkpt><trkpt lat="46.0358433" lon="11.99793"><ele>239.0</ele><time>2026-04-25T08:22:21.955Z</time></trkpt><trkpt lat="46.0360017" lon="11.9980333"><ele>239.0</ele><time>2026-04-25T08:22:22.957Z</time></trkpt><trkpt lat="46.036165" lon="11.9981533"><ele>239.0</ele><time>2026-04-25T08:22:23.955Z</time></trkpt><trkpt lat="46.0363267" lon="11.9982867"><ele>239.33333333333334</ele><time>2026-04-25T08:22:24.955Z</time></trkpt><trkpt lat="46.036485" lon="11.9984383"><ele>239.66666666666669</ele><time>2026-04-25T08:22:25.955Z</time></trkpt><trkpt lat="46.0366333" lon="11.9986067"><ele>240.0</ele><time>2026-04-25T08:22:26.955Z</time></trkpt><trkpt lat="46.03677" lon="11.9987783"><ele>240.0</ele><time>2026-04-25T08:22:27.955Z</time></trkpt><trkpt lat="46.036895" lon="11.9989483"><ele>240.0</ele><time>2026-04-25T08:22:28.955Z</time></trkpt><trkpt lat="46.0370033" lon="11.99912"><ele>240.0</ele><time>2026-04-25T08:22:29.955Z</time></trkpt><trkpt lat="46.0371033" lon="11.99928"><ele>240.0</ele><time>2026-04-25T08:22:30.955Z</time></trkpt><trkpt lat="46.0372" lon="11.9994367"><ele>240.0</ele><time>2026-04-25T08:22:31.954Z</time></trkpt><trkpt lat="46.0372967" lon="11.9995917"><ele>240.0</ele><time>2026-04-25T08:22:32.957Z</time></trkpt><trkpt lat="46.0373917" lon="11.9997517"><ele>240.0</ele><time>2026-04-25T08:22:33.955Z</time></trkpt><trkpt lat="46.03749" lon="11.9999217"><ele>240.33333333333331</ele><time>2026-04-25T08:22:34.956Z</time></trkpt><trkpt lat="46.0375983" lon="12.000105"><ele>240.66666666666666</ele><time>2026-04-25T08:22:35.954Z</time></trkpt><trkpt lat="46.0377117" lon="12.0002933"><ele>241.0</ele><time>2026-04-25T08:22:36.956Z</time></trkpt><trkpt lat="46.0378267" lon="12.0004833"><ele>241.0</ele><time>2026-04-25T08:22:37.956Z</time></trkpt><trkpt lat="46.0379417" lon="12.0006717"><ele>241.0</ele><time>2026-04-25T08:22:38.955Z</time></trkpt><trkpt lat="46.0380517" lon="12.0008517"><ele>241.0</ele><time>2026-04-25T08:22:39.955Z</time></trkpt><trkpt lat="46.0381633" lon="12.0010283"><ele>241.0</ele><time>2026-04-25T08:22:40.956Z</time></trkpt><trkpt lat="46.03827" lon="12.0011933"><ele>241.0</ele><time>2026-04-25T08:22:41.955Z</time></trkpt><trkpt lat="46.0383717" lon="12.0013617"><ele>241.0</ele><time>2026-04-25T08:22:42.954Z</time></trkpt><trkpt lat="46.03848" lon="12.00154"><ele>241.66666666666666</ele><time>2026-04-25T08:22:43.955Z</time></trkpt><trkpt lat="46.0385867" lon="12.00172"><ele>242.33333333333331</ele><time>2026-04-25T08:22:44.955Z</time></trkpt><trkpt lat="46.0387" lon="12.0019033"><ele>243.0</ele><time>2026-04-25T08:22:45.954Z</time></trkpt><trkpt lat="46.0388117" lon="12.002085"><ele>243.0</ele><time>2026-04-25T08:22:46.956Z</time></trkpt><trkpt lat="46.0389267" lon="12.0022667"><ele>243.0</ele><time>2026-04-25T08:22:47.955Z</time></trkpt><trkpt lat="46.0390417" lon="12.0024517"><ele>243.0</ele><time>2026-04-25T08:22:48.956Z</time></trkpt><trkpt lat="46.039155" lon="12.0026367"><ele>243.0</ele><time>2026-04-25T08:22:49.955Z</time></trkpt><trkpt lat="46.0392667" lon="12.0028167"><ele>243.0</ele><time>2026-04-25T08:22:50.956Z</time></trkpt><trkpt lat="46.039375" lon="12.0029917"><ele>243.0</ele><time>2026-04-25T08:22:51.955Z</time></trkpt><trkpt lat="46.0394833" lon="12.0031683"><ele>243.0</ele><time>2026-04-25T08:22:52.956Z</time></trkpt><trkpt lat="46.0395883" lon="12.0033467"><ele>243.0</ele><time>2026-04-25T08:22:53.956Z</time></trkpt><trkpt lat="46.0396917" lon="12.0035283"><ele>243.0</ele><time>2026-04-25T08:22:54.956Z</time></trkpt><trkpt lat="46.0397933" lon="12.0037183"><ele>243.0</ele><time>2026-04-25T08:22:55.955Z</time></trkpt><trkpt lat="46.0398917" lon="12.0039117"><ele>243.0</ele><time>2026-04-25T08:22:56.957Z</time></trkpt><trkpt lat="46.039985" lon="12.0041067"><ele>243.0</ele><time>2026-04-25T08:22:57.955Z</time></trkpt><trkpt lat="46.0400767" lon="12.0043"><ele>243.5</ele><time>2026-04-25T08:22:58.957Z</time></trkpt><trkpt lat="46.0401667" lon="12.00449"><ele>244.0</ele><time>2026-04-25T08:22:59.956Z</time></trkpt><trkpt lat="46.0402517" lon="12.0046683"><ele>244.5</ele><time>2026-04-25T08:23:00.956Z</time></trkpt><trkpt lat="46.0403267" lon="12.00483"><ele>245.0</ele><time>2026-04-25T08:23:01.955Z</time></trkpt><trkpt lat="46.0403917" lon="12.0049783"><ele>245.2</ele><time>2026-04-25T08:23:02.956Z</time></trkpt><trkpt lat="46.0404483" lon="12.0051117"><ele>245.4</ele><time>2026-04-25T08:23:03.955Z</time></trkpt><trkpt lat="46.0405033" lon="12.0052183"><ele>245.60000000000002</ele><time>2026-04-25T08:23:04.955Z</time></trkpt><trkpt lat="46.0405533" lon="12.0053"><ele>245.8</ele><time>2026-04-25T08:23:05.954Z</time></trkpt><trkpt lat="46.040655" lon="12.0053467"><ele>246.0</ele><time>2026-04-25T08:23:07.956Z</time></trkpt><trkpt lat="46.04072" lon="12.0053217"><ele>246.0</ele><time>2026-04-25T08:23:09.955Z</time></trkpt><trkpt lat="46.04079" lon="12.0054067"><ele>246.0</ele><time>2026-04-25T08:23:45.954Z</time></trkpt><trkpt lat="46.0408417" lon="12.005535"><ele>246.0</ele><time>2026-04-25T08:23:47.956Z</time></trkpt><trkpt lat="46.0408867" lon="12.0056367"><ele>246.0</ele><time>2026-04-25T08:23:49.957Z</time></trkpt><trkpt lat="46.04086" lon="12.0057383"><ele>246.0</ele><time>2026-04-25T08:31:48.955Z</time></trkpt><trkpt lat="46.0408167" lon="12.005845"><ele>246.0</ele><time>2026-04-25T08:31:57.954Z</time></trkpt><trkpt lat="46.04084" lon="12.006015"><ele>246.0</ele><time>2026-04-25T08:31:59.955Z</time></trkpt><trkpt lat="46.0408817" lon="12.006125"><ele>246.00000000000003</ele><time>2026-04-25T08:32:00.955Z</time></trkpt><trkpt lat="46.0409283" lon="12.0062467"><ele>246.00000000000003</ele><time>2026-04-25T08:32:01.957Z</time></trkpt><trkpt lat="46.040985" lon="12.0063883"><ele>246.0</ele><time>2026-04-25T08:32:02.957Z</time></trkpt><trkpt lat="46.0410483" lon="12.0065333"><ele>246.0</ele><time>2026-04-25T08:32:03.956Z</time></trkpt><trkpt lat="46.041115" lon="12.00668"><ele>246.25</ele><time>2026-04-25T08:32:04.956Z</time></trkpt><trkpt lat="46.0411767" lon="12.0068217"><ele>246.5</ele><time>2026-04-25T08:32:05.955Z</time></trkpt><trkpt lat="46.0412383" lon="12.006965"><ele>246.75</ele><time>2026-04-25T08:32:06.956Z</time></trkpt><trkpt lat="46.0413033" lon="12.00711"><ele>247.0</ele><time>2026-04-25T08:32:07.955Z</time></trkpt><trkpt lat="46.04137" lon="12.0072583"><ele>247.0</ele><time>2026-04-25T08:32:08.955Z</time></trkpt><trkpt lat="46.0414333" lon="12.0074133"><ele>247.0</ele><time>2026-04-25T08:32:09.955Z</time></trkpt><trkpt lat="46.0415033" lon="12.0075667"><ele>247.0</ele><time>2026-04-25T08:32:10.956Z</time></trkpt><trkpt lat="46.041575" lon="12.0077267"><ele>247.0</ele><time>2026-04-25T08:32:11.956Z</time></trkpt><trkpt lat="46.0416467" lon="12.0078883"><ele>247.25</ele><time>2026-04-25T08:32:12.957Z</time></trkpt><trkpt lat="46.0417183" lon="12.00805"><ele>247.5</ele><time>2026-04-25T08:32:13.956Z</time></trkpt><trkpt lat="46.0417917" lon="12.0082167"><ele>247.75</ele><time>2026-04-25T08:32:14.956Z</time></trkpt><trkpt lat="46.04187" lon="12.0083917"><ele>248.0</ele><time>2026-04-25T08:32:15.956Z</time></trkpt><trkpt lat="46.0419483" lon="12.0085633"><ele>248.25</ele><time>2026-04-25T08:32:16.957Z</time></trkpt><trkpt lat="46.0420267" lon="12.008735"><ele>248.5</ele><time>2026-04-25T08:32:17.956Z</time></trkpt><trkpt lat="46.0421067" lon="12.0089133"><ele>248.75</ele><time>2026-04-25T08:32:18.958Z</time></trkpt><trkpt lat="46.0421883" lon="12.0090933"><ele>249.0</ele><time>2026-04-25T08:32:19.956Z</time></trkpt><trkpt lat="46.04227" lon="12.0092783"><ele>249.25</ele><time>2026-04-25T08:32:20.957Z</time></trkpt><trkpt lat="46.0423417" lon="12.00946"><ele>249.5</ele><time>2026-04-25T08:32:21.955Z</time></trkpt><trkpt lat="46.0424083" lon="12.00963"><ele>249.75</ele><time>2026-04-25T08:32:22.956Z</time></trkpt><trkpt lat="46.0424683" lon="12.0097883"><ele>250.0</ele><time>2026-04-25T08:32:23.955Z</time></trkpt><trkpt lat="46.0425283" lon="12.0099317"><ele>249.8</ele><time>2026-04-25T08:32:24.955Z</time></trkpt><trkpt lat="46.0425833" lon="12.0100667"><ele>249.6</ele><time>2026-04-25T08:32:25.955Z</time></trkpt><trkpt lat="46.0426317" lon="12.0101983"><ele>249.39999999999998</ele><time>2026-04-25T08:32:26.955Z</time></trkpt><trkpt lat="46.042675" lon="12.010325"><ele>249.2</ele><time>2026-04-25T08:32:27.956Z</time></trkpt><trkpt lat="46.0427133" lon="12.010445"><ele>249.0</ele><time>2026-04-25T08:32:28.956Z</time></trkpt><trkpt lat="46.042745" lon="12.0105533"><ele>249.0</ele><time>2026-04-25T08:32:29.955Z</time></trkpt><trkpt lat="46.0427717" lon="12.0106583"><ele>249.0</ele><time>2026-04-25T08:32:30.955Z</time></trkpt><trkpt lat="46.0427917" lon="12.0107583"><ele>249.0</ele><time>2026-04-25T08:32:31.956Z</time></trkpt><trkpt lat="46.042805" lon="12.0108567"><ele>249.0</ele><time>2026-04-25T08:32:32.954Z</time></trkpt><trkpt lat="46.042825" lon="12.0109433"><ele>249.0</ele><time>2026-04-25T08:32:33.956Z</time></trkpt><trkpt lat="46.0428983" lon="12.0110433"><ele>249.0</ele><time>2026-04-25T08:32:35.954Z</time></trkpt><trkpt lat="46.0430083" lon="12.010955"><ele>249.0</ele><time>2026-04-25T08:32:37.956Z</time></trkpt><trkpt lat="46.0430567" lon="12.0108483"><ele>248.99999999999997</ele><time>2026-04-25T08:32:38.955Z</time></trkpt><trkpt lat="46.0431167" lon="12.0107333"><ele>248.99999999999997</ele><time>2026-04-25T08:32:39.956Z</time></trkpt><trkpt lat="46.0432" lon="12.0106017"><ele>249.0</ele><time>2026-04-25T08:32:40.956Z</time></trkpt><trkpt lat="46.0433083" lon="12.0104833"><ele>249.0</ele><time>2026-04-25T08:32:41.955Z</time></trkpt><trkpt lat="46.0434317" lon="12.0103683"><ele>248.25</ele><time>2026-04-25T08:32:42.955Z</time></trkpt><trkpt lat="46.0435617" lon="12.010255"><ele>247.5</ele><time>2026-04-25T08:32:43.955Z</time></trkpt><trkpt lat="46.043685" lon="12.010145"><ele>246.75</ele><time>2026-04-25T08:32:44.956Z</time></trkpt><trkpt lat="46.0438083" lon="12.010035"><ele>246.0</ele><time>2026-04-25T08:32:45.955Z</time></trkpt><trkpt lat="46.0439433" lon="12.0099283"><ele>245.0</ele><time>2026-04-25T08:32:46.956Z</time></trkpt><trkpt lat="46.04409" lon="12.009835"><ele>244.0</ele><time>2026-04-25T08:32:47.954Z</time></trkpt><trkpt lat="46.0442517" lon="12.0097583"><ele>243.0</ele><time>2026-04-25T08:32:48.956Z</time></trkpt><trkpt lat="46.0444267" lon="12.0097033"><ele>243.0</ele><time>2026-04-25T08:32:49.956Z</time></trkpt><trkpt lat="46.0446083" lon="12.009675"><ele>243.0</ele><time>2026-04-25T08:32:50.956Z</time></trkpt><trkpt lat="46.0447933" lon="12.0096667"><ele>243.0</ele><time>2026-04-25T08:32:51.956Z</time></trkpt><trkpt lat="46.0449733" lon="12.0096917"><ele>243.0</ele><time>2026-04-25T08:32:52.957Z</time></trkpt><trkpt lat="46.0451483" lon="12.0097433"><ele>243.0</ele><time>2026-04-25T08:32:53.953Z</time></trkpt><trkpt lat="46.0453183" lon="12.0098217"><ele>243.0</ele><time>2026-04-25T08:32:54.956Z</time></trkpt><trkpt lat="46.04548" lon="12.0099167"><ele>242.66666666666669</ele><time>2026-04-25T08:32:55.957Z</time></trkpt><trkpt lat="46.0456317" lon="12.0100317"><ele>242.33333333333334</ele><time>2026-04-25T08:32:56.956Z</time></trkpt><trkpt lat="46.0457783" lon="12.01017"><ele>242.0</ele><time>2026-04-25T08:32:57.956Z</time></trkpt><trkpt lat="46.0459167" lon="12.01033"><ele>241.66666666666669</ele><time>2026-04-25T08:32:58.956Z</time></trkpt><trkpt lat="46.0460483" lon="12.0105133"><ele>241.33333333333331</ele><time>2026-04-25T08:32:59.956Z</time></trkpt><trkpt lat="46.0461667" lon="12.010725"><ele>241.0</ele><time>2026-04-25T08:33:00.958Z</time></trkpt><trkpt lat="46.0462833" lon="12.0109617"><ele>241.66666666666666</ele><time>2026-04-25T08:33:01.958Z</time></trkpt><trkpt lat="46.0463967" lon="12.0112217"><ele>242.33333333333331</ele><time>2026-04-25T08:33:02.958Z</time></trkpt><trkpt lat="46.0465083" lon="12.0114933"><ele>243.0</ele><time>2026-04-25T08:33:03.956Z</time></trkpt><trkpt lat="46.0466217" lon="12.011765"><ele>243.0</ele><time>2026-04-25T08:33:04.956Z</time></trkpt><trkpt lat="46.046735" lon="12.0120367"><ele>243.0</ele><time>2026-04-25T08:33:05.954Z</time></trkpt><trkpt lat="46.0468483" lon="12.01231"><ele>243.0</ele><time>2026-04-25T08:33:06.956Z</time></trkpt><trkpt lat="46.0469617" lon="12.012585"><ele>243.5</ele><time>2026-04-25T08:33:07.955Z</time></trkpt><trkpt lat="46.0470767" lon="12.0128633"><ele>244.0</ele><time>2026-04-25T08:33:08.957Z</time></trkpt><trkpt lat="46.0471917" lon="12.0131433"><ele>246.0</ele><time>2026-04-25T08:33:09.957Z</time></trkpt><trkpt lat="46.0473067" lon="12.0134267"><ele>248.0</ele><time>2026-04-25T08:33:10.958Z</time></trkpt><trkpt lat="46.0474233" lon="12.013715"><ele>247.0</ele><time>2026-04-25T08:33:11.957Z</time></trkpt><trkpt lat="46.0475417" lon="12.014"><ele>246.0</ele><time>2026-04-25T08:33:12.957Z</time></trkpt><trkpt lat="46.0476533" lon="12.014275"><ele>246.0</ele><time>2026-04-25T08:33:13.955Z</time></trkpt><trkpt lat="46.0477617" lon="12.0145367"><ele>246.0</ele><time>2026-04-25T08:33:14.956Z</time></trkpt><trkpt lat="46.0478667" lon="12.01479"><ele>246.0</ele><time>2026-04-25T08:33:15.954Z</time></trkpt><trkpt lat="46.04797" lon="12.0150383"><ele>247.33333333333331</ele><time>2026-04-25T08:33:16.957Z</time></trkpt><trkpt lat="46.0480683" lon="12.01528"><ele>248.66666666666666</ele><time>2026-04-25T08:33:17.955Z</time></trkpt><trkpt lat="46.0481633" lon="12.01551"><ele>250.0</ele><time>2026-04-25T08:33:18.956Z</time></trkpt><trkpt lat="46.0482517" lon="12.0157267"><ele>247.66666666666666</ele><time>2026-04-25T08:33:19.955Z</time></trkpt><trkpt lat="46.0483383" lon="12.0159383"><ele>245.33333333333331</ele><time>2026-04-25T08:33:20.956Z</time></trkpt><trkpt lat="46.0484233" lon="12.016145"><ele>243.0</ele><time>2026-04-25T08:33:21.954Z</time></trkpt><trkpt lat="46.0485067" lon="12.0163467"><ele>243.0</ele><time>2026-04-25T08:33:22.957Z</time></trkpt><trkpt lat="46.0485883" lon="12.01655"><ele>243.0</ele><time>2026-04-25T08:33:23.955Z</time></trkpt><trkpt lat="46.0486767" lon="12.01676"><ele>243.0</ele><time>2026-04-25T08:33:24.956Z</time></trkpt><trkpt lat="46.0487617" lon="12.0169717"><ele>244.66666666666669</ele><time>2026-04-25T08:33:25.954Z</time></trkpt><trkpt lat="46.048845" lon="12.0171833"><ele>246.33333333333334</ele><time>2026-04-25T08:33:26.956Z</time></trkpt><trkpt lat="46.048925" lon="12.0173983"><ele>248.0</ele><time>2026-04-25T08:33:27.956Z</time></trkpt><trkpt lat="46.049" lon="12.0176167"><ele>248.0</ele><time>2026-04-25T08:33:28.957Z</time></trkpt><trkpt lat="46.0490683" lon="12.0178417"><ele>248.0</ele><time>2026-04-25T08:33:29.955Z</time></trkpt><trkpt lat="46.049135" lon="12.018075"><ele>248.0</ele><time>2026-04-25T08:33:30.956Z</time></trkpt><trkpt lat="46.0492" lon="12.0183217"><ele>248.0</ele><time>2026-04-25T08:33:31.956Z</time></trkpt><trkpt lat="46.04926" lon="12.0185783"><ele>248.0</ele><time>2026-04-25T08:33:32.955Z</time></trkpt><trkpt lat="46.0493133" lon="12.0188433"><ele>248.0</ele><time>2026-04-25T08:33:33.955Z</time></trkpt><trkpt lat="46.0493617" lon="12.019115"><ele>247.66666666666669</ele><time>2026-04-25T08:33:34.957Z</time></trkpt><trkpt lat="46.0494033" lon="12.0193917"><ele>247.33333333333331</ele><time>2026-04-25T08:33:35.955Z</time></trkpt><trkpt lat="46.04944" lon="12.0196733"><ele>247.0</ele><time>2026-04-25T08:33:36.956Z</time></trkpt><trkpt lat="46.0494683" lon="12.0199533"><ele>248.33333333333331</ele><time>2026-04-25T08:33:37.956Z</time></trkpt><trkpt lat="46.0494883" lon="12.02023"><ele>249.66666666666669</ele><time>2026-04-25T08:33:38.955Z</time></trkpt><trkpt lat="46.0495017" lon="12.0204967"><ele>251.0</ele><time>2026-04-25T08:33:39.956Z</time></trkpt><trkpt lat="46.04951" lon="12.020765"><ele>251.33333333333334</ele><time>2026-04-25T08:33:40.957Z</time></trkpt><trkpt lat="46.0495167" lon="12.0210333"><ele>251.66666666666669</ele><time>2026-04-25T08:33:41.956Z</time></trkpt><trkpt lat="46.049515" lon="12.0213117"><ele>252.0</ele><time>2026-04-25T08:33:42.957Z</time></trkpt><trkpt lat="46.0495083" lon="12.021595"><ele>253.0</ele><time>2026-04-25T08:33:43.956Z</time></trkpt><trkpt lat="46.0495" lon="12.0218867"><ele>254.0</ele><time>2026-04-25T08:33:44.956Z</time></trkpt><trkpt lat="46.0494867" lon="12.0221867"><ele>255.0</ele><time>2026-04-25T08:33:45.956Z</time></trkpt><trkpt lat="46.04948" lon="12.022495"><ele>255.33333333333331</ele><time>2026-04-25T08:33:46.957Z</time></trkpt><trkpt lat="46.0494717" lon="12.0228067"><ele>255.66666666666666</ele><time>2026-04-25T08:33:47.955Z</time></trkpt><trkpt lat="46.04946" lon="12.0231167"><ele>256.0</ele><time>2026-04-25T08:33:48.956Z</time></trkpt><trkpt lat="46.0494483" lon="12.02342"><ele>256.0</ele><time>2026-04-25T08:33:49.955Z</time></trkpt><trkpt lat="46.049435" lon="12.0237167"><ele>256.0</ele><time>2026-04-25T08:33:50.956Z</time></trkpt><trkpt lat="46.04942" lon="12.0240117"><ele>256.0</ele><time>2026-04-25T08:33:51.955Z</time></trkpt><trkpt lat="46.0494083" lon="12.0243083"><ele>256.0</ele><time>2026-04-25T08:33:52.957Z</time></trkpt><trkpt lat="46.0494" lon="12.0246067"><ele>256.0</ele><time>2026-04-25T08:33:53.955Z</time></trkpt><trkpt lat="46.04939" lon="12.0249067"><ele>256.0</ele><time>2026-04-25T08:33:54.956Z</time></trkpt><trkpt lat="46.049385" lon="12.0252133"><ele>256.0</ele><time>2026-04-25T08:33:55.956Z</time></trkpt><trkpt lat="46.0493783" lon="12.025515"><ele>256.0</ele><time>2026-04-25T08:33:56.956Z</time></trkpt><trkpt lat="46.0493667" lon="12.0258133"><ele>256.0</ele><time>2026-04-25T08:33:57.955Z</time></trkpt><trkpt lat="46.0493533" lon="12.0261167"><ele>255.66666666666666</ele><time>2026-04-25T08:33:58.957Z</time></trkpt><trkpt lat="46.04934" lon="12.02643"><ele>255.33333333333331</ele><time>2026-04-25T08:33:59.955Z</time></trkpt><trkpt lat="46.0493267" lon="12.02675"><ele>255.0</ele><time>2026-04-25T08:34:00.956Z</time></trkpt><trkpt lat="46.049315" lon="12.0270733"><ele>254.5</ele><time>2026-04-25T08:34:01.956Z</time></trkpt><trkpt lat="46.049305" lon="12.02741"><ele>254.0</ele><time>2026-04-25T08:34:02.957Z</time></trkpt><trkpt lat="46.049295" lon="12.0277633"><ele>255.5</ele><time>2026-04-25T08:34:03.956Z</time></trkpt><trkpt lat="46.0492833" lon="12.028115"><ele>257.0</ele><time>2026-04-25T08:34:04.956Z</time></trkpt><trkpt lat="46.0492717" lon="12.0284483"><ele>257.33333333333337</ele><time>2026-04-25T08:34:05.956Z</time></trkpt><trkpt lat="46.0492617" lon="12.0287533"><ele>257.6666666666667</ele><time>2026-04-25T08:34:06.955Z</time></trkpt><trkpt lat="46.0492533" lon="12.0290417"><ele>258.0</ele><time>2026-04-25T08:34:07.956Z</time></trkpt><trkpt lat="46.0492433" lon="12.0293167"><ele>258.3333333333333</ele><time>2026-04-25T08:34:08.956Z</time></trkpt><trkpt lat="46.0492333" lon="12.02959"><ele>258.66666666666663</ele><time>2026-04-25T08:34:09.955Z</time></trkpt><trkpt lat="46.04922" lon="12.0298567"><ele>259.0</ele><time>2026-04-25T08:34:10.956Z</time></trkpt><trkpt lat="46.04921" lon="12.03012"><ele>259.0</ele><time>2026-04-25T08:34:11.956Z</time></trkpt><trkpt lat="46.0492017" lon="12.0303883"><ele>259.0</ele><time>2026-04-25T08:34:12.956Z</time></trkpt><trkpt lat="46.0491967" lon="12.0306633"><ele>259.0</ele><time>2026-04-25T08:34:13.955Z</time></trkpt><trkpt lat="46.0491867" lon="12.0309417"><ele>258.66666666666663</ele><time>2026-04-25T08:34:14.955Z</time></trkpt><trkpt lat="46.049175" lon="12.031225"><ele>258.3333333333333</ele><time>2026-04-25T08:34:15.955Z</time></trkpt><trkpt lat="46.0491633" lon="12.0315117"><ele>258.0</ele><time>2026-04-25T08:34:16.956Z</time></trkpt><trkpt lat="46.04915" lon="12.0318017"><ele>258.6666666666667</ele><time>2026-04-25T08:34:17.956Z</time></trkpt><trkpt lat="46.04914" lon="12.03209"><ele>259.33333333333337</ele><time>2026-04-25T08:34:18.956Z</time></trkpt><trkpt lat="46.0491333" lon="12.03238"><ele>260.0</ele><time>2026-04-25T08:34:19.955Z</time></trkpt><trkpt lat="46.0491217" lon="12.03267"><ele>263.0</ele><time>2026-04-25T08:34:20.956Z</time></trkpt><trkpt lat="46.0491117" lon="12.03296"><ele>266.0</ele><time>2026-04-25T08:34:21.956Z</time></trkpt><trkpt lat="46.0491017" lon="12.03325"><ele>269.0</ele><time>2026-04-25T08:34:22.955Z</time></trkpt><trkpt lat="46.0490917" lon="12.03354"><ele>269.0</ele><time>2026-04-25T08:34:23.954Z</time></trkpt><trkpt lat="46.0490817" lon="12.0338317"><ele>269.0</ele><time>2026-04-25T08:34:24.956Z</time></trkpt><trkpt lat="46.0490683" lon="12.0341283"><ele>269.0</ele><time>2026-04-25T08:34:25.957Z</time></trkpt><trkpt lat="46.049055" lon="12.034425"><ele>270.0</ele><time>2026-04-25T08:34:26.956Z</time></trkpt><trkpt lat="46.0490417" lon="12.0347233"><ele>271.0</ele><time>2026-04-25T08:34:27.955Z</time></trkpt><trkpt lat="46.0490267" lon="12.03502"><ele>272.0</ele><time>2026-04-25T08:34:28.956Z</time></trkpt><trkpt lat="46.0490083" lon="12.0353133"><ele>273.6666666666667</ele><time>2026-04-25T08:34:29.955Z</time></trkpt><trkpt lat="46.0489983" lon="12.0356167"><ele>275.3333333333333</ele><time>2026-04-25T08:34:30.956Z</time></trkpt><trkpt lat="46.048985" lon="12.0359217"><ele>277.0</ele><time>2026-04-25T08:34:31.956Z</time></trkpt><trkpt lat="46.04897" lon="12.0362283"><ele>279.66666666666663</ele><time>2026-04-25T08:34:32.955Z</time></trkpt><trkpt lat="46.0489533" lon="12.0365317"><ele>282.3333333333333</ele><time>2026-04-25T08:34:33.957Z</time></trkpt><trkpt lat="46.0489383" lon="12.0368267"><ele>285.0</ele><time>2026-04-25T08:34:34.956Z</time></trkpt><trkpt lat="46.04893" lon="12.0371083"><ele>284.6666666666667</ele><time>2026-04-25T08:34:35.957Z</time></trkpt><trkpt lat="46.04892" lon="12.03738"><ele>284.33333333333337</ele><time>2026-04-25T08:34:36.956Z</time></trkpt><trkpt lat="46.0489133" lon="12.0376417"><ele>284.0</ele><time>2026-04-25T08:34:37.958Z</time></trkpt><trkpt lat="46.0489067" lon="12.03789"><ele>284.0</ele><time>2026-04-25T08:34:38.956Z</time></trkpt><trkpt lat="46.0489" lon="12.0381217"><ele>284.0</ele><time>2026-04-25T08:34:39.956Z</time></trkpt><trkpt lat="46.048895" lon="12.0383417"><ele>284.0</ele><time>2026-04-25T08:34:40.956Z</time></trkpt><trkpt lat="46.0488833" lon="12.0385417"><ele>283.25</ele><time>2026-04-25T08:34:41.955Z</time></trkpt><trkpt lat="46.048875" lon="12.0387317"><ele>282.5</ele><time>2026-04-25T08:34:42.955Z</time></trkpt><trkpt lat="46.0488633" lon="12.038905"><ele>281.75</ele><time>2026-04-25T08:34:43.955Z</time></trkpt><trkpt lat="46.0488483" lon="12.039055"><ele>281.0</ele><time>2026-04-25T08:34:44.956Z</time></trkpt><trkpt lat="46.04883" lon="12.0391883"><ele>281.0</ele><time>2026-04-25T08:34:45.955Z</time></trkpt><trkpt lat="46.0488" lon="12.0393067"><ele>281.0</ele><time>2026-04-25T08:34:46.955Z</time></trkpt><trkpt lat="46.0487533" lon="12.0394167"><ele>281.0</ele><time>2026-04-25T08:34:47.956Z</time></trkpt><trkpt lat="46.0487133" lon="12.039525"><ele>281.0</ele><time>2026-04-25T08:34:48.955Z</time></trkpt><trkpt lat="46.048695" lon="12.039645"><ele>281.0</ele><time>2026-04-25T08:34:49.956Z</time></trkpt><trkpt lat="46.048705" lon="12.0397567"><ele>281.0</ele><time>2026-04-25T08:34:50.955Z</time></trkpt><trkpt lat="46.0487467" lon="12.039865"><ele>281.0</ele><time>2026-04-25T08:34:51.956Z</time></trkpt><trkpt lat="46.04881" lon="12.0400117"><ele>281.0</ele><time>2026-04-25T08:34:52.955Z</time></trkpt><trkpt lat="46.0488733" lon="12.0402133"><ele>281.0</ele><time>2026-04-25T08:34:53.955Z</time></trkpt><trkpt lat="46.04893" lon="12.0404533"><ele>281.0</ele><time>2026-04-25T08:34:54.954Z</time></trkpt><trkpt lat="46.0489883" lon="12.0407167"><ele>281.0</ele><time>2026-04-25T08:34:55.955Z</time></trkpt><trkpt lat="46.0490517" lon="12.0409917"><ele>281.0</ele><time>2026-04-25T08:34:56.956Z</time></trkpt><trkpt lat="46.0491117" lon="12.0412733"><ele>281.0</ele><time>2026-04-25T08:34:57.956Z</time></trkpt><trkpt lat="46.04918" lon="12.0415633"><ele>282.33333333333337</ele><time>2026-04-25T08:34:58.956Z</time></trkpt><trkpt lat="46.0492517" lon="12.0418567"><ele>283.6666666666667</ele><time>2026-04-25T08:34:59.955Z</time></trkpt><trkpt lat="46.0493183" lon="12.0421483"><ele>285.0</ele><time>2026-04-25T08:35:00.956Z</time></trkpt><trkpt lat="46.04938" lon="12.0424317"><ele>284.3333333333333</ele><time>2026-04-25T08:35:01.956Z</time></trkpt><trkpt lat="46.049435" lon="12.0427117"><ele>283.66666666666663</ele><time>2026-04-25T08:35:02.956Z</time></trkpt><trkpt lat="46.0494817" lon="12.0429883"><ele>283.0</ele><time>2026-04-25T08:35:03.956Z</time></trkpt><trkpt lat="46.0495183" lon="12.0432583"><ele>283.0</ele><time>2026-04-25T08:35:04.956Z</time></trkpt><trkpt lat="46.0495483" lon="12.04353"><ele>283.0</ele><time>2026-04-25T08:35:05.955Z</time></trkpt><trkpt lat="46.0495717" lon="12.0438067"><ele>283.0</ele><time>2026-04-25T08:35:06.957Z</time></trkpt><trkpt lat="46.0495867" lon="12.0440867"><ele>284.3333333333333</ele><time>2026-04-25T08:35:07.957Z</time></trkpt><trkpt lat="46.0495983" lon="12.0443683"><ele>285.6666666666667</ele><time>2026-04-25T08:35:08.956Z</time></trkpt><trkpt lat="46.0496083" lon="12.0446467"><ele>287.0</ele><time>2026-04-25T08:35:09.955Z</time></trkpt><trkpt lat="46.049615" lon="12.0449233"><ele>287.6666666666667</ele><time>2026-04-25T08:35:10.955Z</time></trkpt><trkpt lat="46.0496233" lon="12.045195"><ele>288.3333333333333</ele><time>2026-04-25T08:35:11.956Z</time></trkpt><trkpt lat="46.0496317" lon="12.0454683"><ele>289.0</ele><time>2026-04-25T08:35:12.955Z</time></trkpt><trkpt lat="46.04964" lon="12.0457417"><ele>289.66666666666663</ele><time>2026-04-25T08:35:13.955Z</time></trkpt><trkpt lat="46.0496417" lon="12.0460167"><ele>290.3333333333333</ele><time>2026-04-25T08:35:14.956Z</time></trkpt><trkpt lat="46.0496383" lon="12.0462917"><ele>291.0</ele><time>2026-04-25T08:35:15.955Z</time></trkpt><trkpt lat="46.0496267" lon="12.04657"><ele>291.6666666666667</ele><time>2026-04-25T08:35:16.955Z</time></trkpt><trkpt lat="46.0496" lon="12.0468467"><ele>292.33333333333337</ele><time>2026-04-25T08:35:17.954Z</time></trkpt><trkpt lat="46.04956" lon="12.0471183"><ele>293.0</ele><time>2026-04-25T08:35:18.955Z</time></trkpt><trkpt lat="46.0495083" lon="12.0473833"><ele>293.33333333333337</ele><time>2026-04-25T08:35:19.956Z</time></trkpt><trkpt lat="46.04945" lon="12.0476467"><ele>293.6666666666667</ele><time>2026-04-25T08:35:20.955Z</time></trkpt><trkpt lat="46.04939" lon="12.0479067"><ele>294.0</ele><time>2026-04-25T08:35:21.957Z</time></trkpt><trkpt lat="46.0493333" lon="12.0481583"><ele>295.0</ele><time>2026-04-25T08:35:22.955Z</time></trkpt><trkpt lat="46.0492767" lon="12.048405"><ele>296.0</ele><time>2026-04-25T08:35:23.955Z</time></trkpt><trkpt lat="46.049225" lon="12.0486517"><ele>297.0</ele><time>2026-04-25T08:35:24.954Z</time></trkpt><trkpt lat="46.0491733" lon="12.0488933"><ele>297.6666666666667</ele><time>2026-04-25T08:35:25.956Z</time></trkpt><trkpt lat="46.0491233" lon="12.0491367"><ele>298.33333333333337</ele><time>2026-04-25T08:35:26.955Z</time></trkpt><trkpt lat="46.0490783" lon="12.0493883"><ele>299.0</ele><time>2026-04-25T08:35:27.954Z</time></trkpt><trkpt lat="46.0490367" lon="12.049645"><ele>299.0</ele><time>2026-04-25T08:35:28.955Z</time></trkpt><trkpt lat="46.0490033" lon="12.0499083"><ele>299.0</ele><time>2026-04-25T08:35:29.954Z</time></trkpt><trkpt lat="46.0489767" lon="12.0501817"><ele>299.0</ele><time>2026-04-25T08:35:30.955Z</time></trkpt><trkpt lat="46.0489533" lon="12.0504533"><ele>301.0</ele><time>2026-04-25T08:35:31.954Z</time></trkpt><trkpt lat="46.0489333" lon="12.0507183"><ele>303.0</ele><time>2026-04-25T08:35:32.954Z</time></trkpt><trkpt lat="46.04892" lon="12.050985"><ele>305.0</ele><time>2026-04-25T08:35:33.954Z</time></trkpt><trkpt lat="46.0489033" lon="12.0512417"><ele>305.33333333333337</ele><time>2026-04-25T08:35:34.956Z</time></trkpt><trkpt lat="46.0488883" lon="12.0514917"><ele>305.6666666666667</ele><time>2026-04-25T08:35:35.954Z</time></trkpt><trkpt lat="46.04887" lon="12.0517333"><ele>306.0</ele><time>2026-04-25T08:35:36.955Z</time></trkpt><trkpt lat="46.0488533" lon="12.05197"><ele>306.0</ele><time>2026-04-25T08:35:37.954Z</time></trkpt><trkpt lat="46.0488367" lon="12.0522117"><ele>306.0</ele><time>2026-04-25T08:35:38.956Z</time></trkpt><trkpt lat="46.0488183" lon="12.0524517"><ele>306.0</ele><time>2026-04-25T08:35:39.955Z</time></trkpt><trkpt lat="46.0488" lon="12.0526917"><ele>307.0</ele><time>2026-04-25T08:35:40.955Z</time></trkpt><trkpt lat="46.0487767" lon="12.0529317"><ele>308.0</ele><time>2026-04-25T08:35:41.955Z</time></trkpt><trkpt lat="46.0487467" lon="12.0531717"><ele>309.0</ele><time>2026-04-25T08:35:42.954Z</time></trkpt><trkpt lat="46.0487033" lon="12.0534017"><ele>309.3333333333333</ele><time>2026-04-25T08:35:43.954Z</time></trkpt><trkpt lat="46.0486517" lon="12.0536267"><ele>309.66666666666663</ele><time>2026-04-25T08:35:44.955Z</time></trkpt><trkpt lat="46.048595" lon="12.0538533"><ele>310.0</ele><time>2026-04-25T08:35:45.954Z</time></trkpt><trkpt lat="46.0485333" lon="12.05408"><ele>310.0</ele><time>2026-04-25T08:35:46.956Z</time></trkpt><trkpt lat="46.04847" lon="12.0543083"><ele>310.0</ele><time>2026-04-25T08:35:47.954Z</time></trkpt><trkpt lat="46.0484017" lon="12.0545433"><ele>310.0</ele><time>2026-04-25T08:35:48.954Z</time></trkpt><trkpt lat="46.0483383" lon="12.0547783"><ele>310.3333333333333</ele><time>2026-04-25T08:35:49.956Z</time></trkpt><trkpt lat="46.0482833" lon="12.0550083"><ele>310.6666666666667</ele><time>2026-04-25T08:35:50.955Z</time></trkpt><trkpt lat="46.0482333" lon="12.055245"><ele>311.0</ele><time>2026-04-25T08:35:51.956Z</time></trkpt><trkpt lat="46.0481917" lon="12.0554883"><ele>311.0</ele><time>2026-04-25T08:35:52.956Z</time></trkpt><trkpt lat="46.0481567" lon="12.0557367"><ele>311.0</ele><time>2026-04-25T08:35:53.955Z</time></trkpt><trkpt lat="46.048125" lon="12.0559883"><ele>311.0</ele><time>2026-04-25T08:35:54.955Z</time></trkpt><trkpt lat="46.0481033" lon="12.0562417"><ele>310.6666666666667</ele><time>2026-04-25T08:35:55.955Z</time></trkpt><trkpt lat="46.0480867" lon="12.0565017"><ele>310.3333333333333</ele><time>2026-04-25T08:35:56.955Z</time></trkpt><trkpt lat="46.0480733" lon="12.0567667"><ele>310.0</ele><time>2026-04-25T08:35:57.955Z</time></trkpt><trkpt lat="46.0480617" lon="12.0570317"><ele>310.0</ele><time>2026-04-25T08:35:58.956Z</time></trkpt><trkpt lat="46.048055" lon="12.0573017"><ele>310.0</ele><time>2026-04-25T08:35:59.954Z</time></trkpt><trkpt lat="46.0480467" lon="12.0575733"><ele>310.0</ele><time>2026-04-25T08:36:00.955Z</time></trkpt><trkpt lat="46.04804" lon="12.05785"><ele>310.66666666666663</ele><time>2026-04-25T08:36:01.955Z</time></trkpt><trkpt lat="46.0480367" lon="12.05813"><ele>311.3333333333333</ele><time>2026-04-25T08:36:02.955Z</time></trkpt><trkpt lat="46.04803" lon="12.058405"><ele>312.0</ele><time>2026-04-25T08:36:03.953Z</time></trkpt><trkpt lat="46.0480283" lon="12.0586783"><ele>312.3333333333333</ele><time>2026-04-25T08:36:04.957Z</time></trkpt><trkpt lat="46.048025" lon="12.0589383"><ele>312.66666666666663</ele><time>2026-04-25T08:36:05.955Z</time></trkpt><trkpt lat="46.04802" lon="12.0591833"><ele>313.0</ele><time>2026-04-25T08:36:06.956Z</time></trkpt><trkpt lat="46.0480133" lon="12.0594133"><ele>313.25</ele><time>2026-04-25T08:36:07.955Z</time></trkpt><trkpt lat="46.0480067" lon="12.05963"><ele>313.5</ele><time>2026-04-25T08:36:08.954Z</time></trkpt><trkpt lat="46.0480033" lon="12.0598333"><ele>313.75</ele><time>2026-04-25T08:36:09.953Z</time></trkpt><trkpt lat="46.0480017" lon="12.0600167"><ele>314.0</ele><time>2026-04-25T08:36:10.955Z</time></trkpt><trkpt lat="46.0479983" lon="12.06018"><ele>314.2</ele><time>2026-04-25T08:36:11.955Z</time></trkpt><trkpt lat="46.0479917" lon="12.0603317"><ele>314.4</ele><time>2026-04-25T08:36:12.955Z</time></trkpt><trkpt lat="46.0479733" lon="12.0604767"><ele>314.6</ele><time>2026-04-25T08:36:13.954Z</time></trkpt><trkpt lat="46.04795" lon="12.06061"><ele>314.8</ele><time>2026-04-25T08:36:14.953Z</time></trkpt><trkpt lat="46.047935" lon="12.0607367"><ele>315.0</ele><time>2026-04-25T08:36:15.955Z</time></trkpt><trkpt lat="46.0479433" lon="12.060875"><ele>315.0</ele><time>2026-04-25T08:36:16.955Z</time></trkpt><trkpt lat="46.0479633" lon="12.061045"><ele>315.0</ele><time>2026-04-25T08:36:17.955Z</time></trkpt><trkpt lat="46.04798" lon="12.061255"><ele>315.0</ele><time>2026-04-25T08:36:18.956Z</time></trkpt><trkpt lat="46.047985" lon="12.06151"><ele>315.0</ele><time>2026-04-25T08:36:19.955Z</time></trkpt><trkpt lat="46.0479817" lon="12.0617883"><ele>314.3333333333333</ele><time>2026-04-25T08:36:20.954Z</time></trkpt><trkpt lat="46.04798" lon="12.06206"><ele>313.66666666666663</ele><time>2026-04-25T08:36:21.954Z</time></trkpt><trkpt lat="46.0479767" lon="12.0623133"><ele>313.0</ele><time>2026-04-25T08:36:22.956Z</time></trkpt><trkpt lat="46.047975" lon="12.06256"><ele>312.3333333333333</ele><time>2026-04-25T08:36:23.954Z</time></trkpt><trkpt lat="46.047975" lon="12.0628067"><ele>311.6666666666667</ele><time>2026-04-25T08:36:24.954Z</time></trkpt><trkpt lat="46.0479783" lon="12.06305"><ele>311.0</ele><time>2026-04-25T08:36:25.955Z</time></trkpt><trkpt lat="46.04798" lon="12.0632917"><ele>311.0</ele><time>2026-04-25T08:36:26.955Z</time></trkpt><trkpt lat="46.047985" lon="12.0635333"><ele>311.0</ele><time>2026-04-25T08:36:27.955Z</time></trkpt><trkpt lat="46.0479833" lon="12.063775"><ele>311.0</ele><time>2026-04-25T08:36:28.954Z</time></trkpt><trkpt lat="46.047985" lon="12.0640233"><ele>311.0</ele><time>2026-04-25T08:36:29.953Z</time></trkpt><trkpt lat="46.0479867" lon="12.0642733"><ele>311.0</ele><time>2026-04-25T08:36:30.955Z</time></trkpt><trkpt lat="46.04799" lon="12.0645217"><ele>311.0</ele><time>2026-04-25T08:36:31.954Z</time></trkpt><trkpt lat="46.048" lon="12.0647667"><ele>312.0</ele><time>2026-04-25T08:36:32.955Z</time></trkpt><trkpt lat="46.0480167" lon="12.06501"><ele>313.0</ele><time>2026-04-25T08:36:33.955Z</time></trkpt><trkpt lat="46.04804" lon="12.0652483"><ele>314.0</ele><time>2026-04-25T08:36:34.955Z</time></trkpt><trkpt lat="46.0480733" lon="12.065485"><ele>314.0</ele><time>2026-04-25T08:36:35.952Z</time></trkpt><trkpt lat="46.04812" lon="12.0657233"><ele>314.0</ele><time>2026-04-25T08:36:36.954Z</time></trkpt><trkpt lat="46.0481733" lon="12.0659617"><ele>314.0</ele><time>2026-04-25T08:36:37.954Z</time></trkpt><trkpt lat="46.0482383" lon="12.0662033"><ele>313.33333333333337</ele><time>2026-04-25T08:36:38.955Z</time></trkpt><trkpt lat="46.04832" lon="12.0664467"><ele>312.6666666666667</ele><time>2026-04-25T08:36:39.955Z</time></trkpt><trkpt lat="46.0484183" lon="12.0666883"><ele>312.0</ele><time>2026-04-25T08:36:40.956Z</time></trkpt><trkpt lat="46.0485217" lon="12.0669183"><ele>312.0</ele><time>2026-04-25T08:36:41.954Z</time></trkpt><trkpt lat="46.0486433" lon="12.0671417"><ele>312.0</ele><time>2026-04-25T08:36:42.954Z</time></trkpt><trkpt lat="46.0487783" lon="12.0673567"><ele>312.0</ele><time>2026-04-25T08:36:43.955Z</time></trkpt><trkpt lat="46.0489233" lon="12.0675567"><ele>311.0</ele><time>2026-04-25T08:36:44.955Z</time></trkpt><trkpt lat="46.0490833" lon="12.0677433"><ele>310.0</ele><time>2026-04-25T08:36:45.953Z</time></trkpt><trkpt lat="46.0492483" lon="12.0679217"><ele>309.0</ele><time>2026-04-25T08:36:46.955Z</time></trkpt><trkpt lat="46.04941" lon="12.0680867"><ele>310.0</ele><time>2026-04-25T08:36:47.953Z</time></trkpt><trkpt lat="46.0495717" lon="12.068245"><ele>311.0</ele><time>2026-04-25T08:36:48.954Z</time></trkpt><trkpt lat="46.049735" lon="12.0684067"><ele>312.0</ele><time>2026-04-25T08:36:49.955Z</time></trkpt><trkpt lat="46.0498983" lon="12.06857"><ele>310.3333333333333</ele><time>2026-04-25T08:36:50.956Z</time></trkpt><trkpt lat="46.0500567" lon="12.06873"><ele>308.66666666666663</ele><time>2026-04-25T08:36:51.955Z</time></trkpt><trkpt lat="46.05021" lon="12.0688867"><ele>307.0</ele><time>2026-04-25T08:36:52.956Z</time></trkpt><trkpt lat="46.05036" lon="12.0690417"><ele>309.3333333333333</ele><time>2026-04-25T08:36:53.955Z</time></trkpt><trkpt lat="46.0505117" lon="12.069195"><ele>311.6666666666667</ele><time>2026-04-25T08:36:54.955Z</time></trkpt><trkpt lat="46.05066" lon="12.0693517"><ele>314.0</ele><time>2026-04-25T08:36:55.956Z</time></trkpt><trkpt lat="46.05081" lon="12.06951"><ele>314.0</ele><time>2026-04-25T08:36:56.955Z</time></trkpt><trkpt lat="46.050955" lon="12.069665"><ele>314.0</ele><time>2026-04-25T08:36:57.955Z</time></trkpt><trkpt lat="46.0511017" lon="12.069815"><ele>314.0</ele><time>2026-04-25T08:36:58.955Z</time></trkpt><trkpt lat="46.05126" lon="12.0699667"><ele>315.0</ele><time>2026-04-25T08:36:59.954Z</time></trkpt><trkpt lat="46.0514367" lon="12.0701333"><ele>316.0</ele><time>2026-04-25T08:37:00.955Z</time></trkpt><trkpt lat="46.051625" lon="12.0703233"><ele>317.0</ele><time>2026-04-25T08:37:01.955Z</time></trkpt><trkpt lat="46.051825" lon="12.070535"><ele>314.5</ele><time>2026-04-25T08:37:02.953Z</time></trkpt><trkpt lat="46.052025" lon="12.070745"><ele>312.0</ele><time>2026-04-25T08:37:03.954Z</time></trkpt><trkpt lat="46.0522117" lon="12.07094"><ele>312.0</ele><time>2026-04-25T08:37:04.954Z</time></trkpt><trkpt lat="46.0523867" lon="12.0711183"><ele>312.0</ele><time>2026-04-25T08:37:05.954Z</time></trkpt><trkpt lat="46.0525533" lon="12.0712933"><ele>312.0</ele><time>2026-04-25T08:37:06.954Z</time></trkpt><trkpt lat="46.0527317" lon="12.0714833"><ele>312.5</ele><time>2026-04-25T08:37:07.954Z</time></trkpt><trkpt lat="46.0529317" lon="12.0716917"><ele>313.0</ele><time>2026-04-25T08:37:08.955Z</time></trkpt><trkpt lat="46.0531467" lon="12.071915"><ele>308.5</ele><time>2026-04-25T08:37:09.954Z</time></trkpt><trkpt lat="46.05337" lon="12.072145"><ele>304.0</ele><time>2026-04-25T08:37:10.956Z</time></trkpt><trkpt lat="46.0535833" lon="12.0723683"><ele>306.5</ele><time>2026-04-25T08:37:11.953Z</time></trkpt><trkpt lat="46.053785" lon="12.0725817"><ele>309.0</ele><time>2026-04-25T08:37:12.954Z</time></trkpt><trkpt lat="46.0539767" lon="12.072785"><ele>306.5</ele><time>2026-04-25T08:37:13.954Z</time></trkpt><trkpt lat="46.0541717" lon="12.0729817"><ele>304.0</ele><time>2026-04-25T08:37:14.955Z</time></trkpt><trkpt lat="46.0543783" lon="12.07317"><ele>306.5</ele><time>2026-04-25T08:37:15.954Z</time></trkpt><trkpt lat="46.0546" lon="12.0733483"><ele>309.0</ele><time>2026-04-25T08:37:16.955Z</time></trkpt><trkpt lat="46.0548317" lon="12.073515"><ele>306.0</ele><time>2026-04-25T08:37:17.953Z</time></trkpt><trkpt lat="46.0550683" lon="12.0736667"><ele>303.0</ele><time>2026-04-25T08:37:18.955Z</time></trkpt><trkpt lat="46.05529" lon="12.0738017"><ele>303.0</ele><time>2026-04-25T08:37:19.955Z</time></trkpt><trkpt lat="46.0555" lon="12.07392"><ele>303.0</ele><time>2026-04-25T08:37:20.956Z</time></trkpt><trkpt lat="46.0557017" lon="12.0740267"><ele>303.0</ele><time>2026-04-25T08:37:21.956Z</time></trkpt><trkpt lat="46.0558983" lon="12.074125"><ele>304.3333333333333</ele><time>2026-04-25T08:37:22.955Z</time></trkpt><trkpt lat="46.056095" lon="12.0742167"><ele>305.66666666666663</ele><time>2026-04-25T08:37:23.956Z</time></trkpt><trkpt lat="46.056295" lon="12.0742933"><ele>307.0</ele><time>2026-04-25T08:37:24.956Z</time></trkpt><trkpt lat="46.0564983" lon="12.0743517"><ele>307.0</ele><time>2026-04-25T08:37:25.956Z</time></trkpt><trkpt lat="46.0567033" lon="12.07439"><ele>307.0</ele><time>2026-04-25T08:37:26.956Z</time></trkpt><trkpt lat="46.0568983" lon="12.0744183"><ele>307.0</ele><time>2026-04-25T08:37:27.954Z</time></trkpt><trkpt lat="46.0570767" lon="12.074445"><ele>307.0</ele><time>2026-04-25T08:37:28.956Z</time></trkpt><trkpt lat="46.057235" lon="12.074475"><ele>307.0</ele><time>2026-04-25T08:37:29.954Z</time></trkpt><trkpt lat="46.0573767" lon="12.074505"><ele>307.0</ele><time>2026-04-25T08:37:30.955Z</time></trkpt><trkpt lat="46.05751" lon="12.0745383"><ele>307.0</ele><time>2026-04-25T08:37:31.952Z</time></trkpt><trkpt lat="46.0576333" lon="12.0745767"><ele>306.75</ele><time>2026-04-25T08:37:32.954Z</time></trkpt><trkpt lat="46.05775" lon="12.0746267"><ele>306.5</ele><time>2026-04-25T08:37:33.955Z</time></trkpt><trkpt lat="46.0578667" lon="12.07469"><ele>306.25</ele><time>2026-04-25T08:37:34.954Z</time></trkpt><trkpt lat="46.0579867" lon="12.0747683"><ele>306.0</ele><time>2026-04-25T08:37:35.954Z</time></trkpt><trkpt lat="46.0581017" lon="12.0748683"><ele>307.0</ele><time>2026-04-25T08:37:36.955Z</time></trkpt><trkpt lat="46.0582117" lon="12.074995"><ele>308.0</ele><time>2026-04-25T08:37:37.953Z</time></trkpt><trkpt lat="46.05832" lon="12.0751467"><ele>309.0</ele><time>2026-04-25T08:37:38.955Z</time></trkpt><trkpt lat="46.0584167" lon="12.0753167"><ele>310.0</ele><time>2026-04-25T08:37:39.955Z</time></trkpt><trkpt lat="46.0585133" lon="12.075505"><ele>310.3333333333333</ele><time>2026-04-25T08:37:40.956Z</time></trkpt><trkpt lat="46.0586067" lon="12.0757167"><ele>310.6666666666667</ele><time>2026-04-25T08:37:41.954Z</time></trkpt><trkpt lat="46.0586967" lon="12.0759483"><ele>311.0</ele><time>2026-04-25T08:37:42.954Z</time></trkpt><trkpt lat="46.0587767" lon="12.0761867"><ele>311.0</ele><time>2026-04-25T08:37:43.955Z</time></trkpt><trkpt lat="46.05885" lon="12.076425"><ele>311.0</ele><time>2026-04-25T08:37:44.956Z</time></trkpt><trkpt lat="46.0589167" lon="12.0766633"><ele>311.0</ele><time>2026-04-25T08:37:45.956Z</time></trkpt><trkpt lat="46.05898" lon="12.0769017"><ele>312.33333333333337</ele><time>2026-04-25T08:37:46.956Z</time></trkpt><trkpt lat="46.059045" lon="12.0771333"><ele>313.6666666666667</ele><time>2026-04-25T08:37:47.954Z</time></trkpt><trkpt lat="46.0591083" lon="12.0773667"><ele>315.0</ele><time>2026-04-25T08:37:48.955Z</time></trkpt><trkpt lat="46.0591733" lon="12.0776"><ele>312.3333333333333</ele><time>2026-04-25T08:37:49.954Z</time></trkpt><trkpt lat="46.05924" lon="12.0778383"><ele>309.66666666666663</ele><time>2026-04-25T08:37:50.954Z</time></trkpt><trkpt lat="46.05931" lon="12.0780817"><ele>307.0</ele><time>2026-04-25T08:37:51.954Z</time></trkpt><trkpt lat="46.0593783" lon="12.078325"><ele>306.66666666666663</ele><time>2026-04-25T08:37:52.953Z</time></trkpt><trkpt lat="46.059445" lon="12.0785583"><ele>306.3333333333333</ele><time>2026-04-25T08:37:53.953Z</time></trkpt><trkpt lat="46.0595117" lon="12.0787733"><ele>306.0</ele><time>2026-04-25T08:37:54.955Z</time></trkpt><trkpt lat="46.0595717" lon="12.0789683"><ele>305.8</ele><time>2026-04-25T08:37:55.954Z</time></trkpt><trkpt lat="46.0596217" lon="12.0791367"><ele>305.6</ele><time>2026-04-25T08:37:56.954Z</time></trkpt><trkpt lat="46.059655" lon="12.0792767"><ele>305.4</ele><time>2026-04-25T08:37:57.955Z</time></trkpt><trkpt lat="46.059675" lon="12.0793883"><ele>305.2</ele><time>2026-04-25T08:37:58.955Z</time></trkpt><trkpt lat="46.059695" lon="12.07953"><ele>305.0</ele><time>2026-04-25T08:38:00.955Z</time></trkpt><trkpt lat="46.05975" lon="12.07965"><ele>305.0</ele><time>2026-04-25T08:42:58.955Z</time></trkpt><trkpt lat="46.0598133" lon="12.0797983"><ele>305.0</ele><time>2026-04-25T08:43:00.955Z</time></trkpt><trkpt lat="46.0598433" lon="12.079915"><ele>305.0</ele><time>2026-04-25T08:43:01.954Z</time></trkpt><trkpt lat="46.0598733" lon="12.0800517"><ele>305.0</ele><time>2026-04-25T08:43:02.955Z</time></trkpt><trkpt lat="46.0599117" lon="12.0801983"><ele>305.0</ele><time>2026-04-25T08:43:03.955Z</time></trkpt><trkpt lat="46.0599567" lon="12.0803483"><ele>306.25</ele><time>2026-04-25T08:43:04.955Z</time></trkpt><trkpt lat="46.0599983" lon="12.0805"><ele>307.5</ele><time>2026-04-25T08:43:05.955Z</time></trkpt><trkpt lat="46.0600433" lon="12.0806517"><ele>308.75</ele><time>2026-04-25T08:43:06.954Z</time></trkpt><trkpt lat="46.06009" lon="12.080815"><ele>310.0</ele><time>2026-04-25T08:43:07.954Z</time></trkpt><trkpt lat="46.0601383" lon="12.0809867"><ele>310.25</ele><time>2026-04-25T08:43:08.955Z</time></trkpt><trkpt lat="46.0601917" lon="12.081165"><ele>310.5</ele><time>2026-04-25T08:43:09.954Z</time></trkpt><trkpt lat="46.060245" lon="12.0813517"><ele>310.75</ele><time>2026-04-25T08:43:10.955Z</time></trkpt><trkpt lat="46.0603017" lon="12.08155"><ele>311.0</ele><time>2026-04-25T08:43:11.954Z</time></trkpt><trkpt lat="46.0603617" lon="12.08175"><ele>311.6666666666667</ele><time>2026-04-25T08:43:12.956Z</time></trkpt><trkpt lat="46.0604217" lon="12.0819617"><ele>312.3333333333333</ele><time>2026-04-25T08:43:13.955Z</time></trkpt><trkpt lat="46.0604867" lon="12.0821767"><ele>313.0</ele><time>2026-04-25T08:43:14.955Z</time></trkpt><trkpt lat="46.060555" lon="12.0824"><ele>313.3333333333333</ele><time>2026-04-25T08:43:15.955Z</time></trkpt><trkpt lat="46.0606267" lon="12.08263"><ele>313.6666666666667</ele><time>2026-04-25T08:43:16.954Z</time></trkpt><trkpt lat="46.060695" lon="12.0828667"><ele>314.0</ele><time>2026-04-25T08:43:17.953Z</time></trkpt><trkpt lat="46.0607667" lon="12.083105"><ele>314.33333333333337</ele><time>2026-04-25T08:43:18.954Z</time></trkpt><trkpt lat="46.0608383" lon="12.0833483"><ele>314.6666666666667</ele><time>2026-04-25T08:43:19.955Z</time></trkpt><trkpt lat="46.0609167" lon="12.0835933"><ele>315.0</ele><time>2026-04-25T08:43:20.954Z</time></trkpt><trkpt lat="46.0610033" lon="12.0838267"><ele>315.0</ele><time>2026-04-25T08:43:21.955Z</time></trkpt><trkpt lat="46.0610967" lon="12.084055"><ele>315.0</ele><time>2026-04-25T08:43:22.955Z</time></trkpt><trkpt lat="46.0612" lon="12.0842717"><ele>315.0</ele><time>2026-04-25T08:43:23.955Z</time></trkpt><trkpt lat="46.061315" lon="12.0844733"><ele>314.6666666666667</ele><time>2026-04-25T08:43:24.955Z</time></trkpt><trkpt lat="46.06144" lon="12.0846583"><ele>314.33333333333337</ele><time>2026-04-25T08:43:25.956Z</time></trkpt><trkpt lat="46.061575" lon="12.0848233"><ele>314.0</ele><time>2026-04-25T08:43:26.954Z</time></trkpt><trkpt lat="46.0617067" lon="12.0849833"><ele>315.6666666666667</ele><time>2026-04-25T08:43:27.956Z</time></trkpt><trkpt lat="46.061845" lon="12.08512"><ele>317.3333333333333</ele><time>2026-04-25T08:43:28.956Z</time></trkpt><trkpt lat="46.0619767" lon="12.085245"><ele>319.0</ele><time>2026-04-25T08:43:29.956Z</time></trkpt><trkpt lat="46.06211" lon="12.0853567"><ele>319.0</ele><time>2026-04-25T08:43:30.955Z</time></trkpt><trkpt lat="46.0622367" lon="12.0854583"><ele>319.0</ele><time>2026-04-25T08:43:31.956Z</time></trkpt><trkpt lat="46.06237" lon="12.08556"><ele>319.0</ele><time>2026-04-25T08:43:32.954Z</time></trkpt><trkpt lat="46.0624883" lon="12.08567"><ele>319.0</ele><time>2026-04-25T08:43:33.955Z</time></trkpt><trkpt lat="46.0625933" lon="12.0857867"><ele>320.4</ele><time>2026-04-25T08:43:34.955Z</time></trkpt><trkpt lat="46.0626817" lon="12.0859017"><ele>321.79999999999995</ele><time>2026-04-25T08:43:35.955Z</time></trkpt><trkpt lat="46.062765" lon="12.08601"><ele>323.20000000000005</ele><time>2026-04-25T08:43:36.955Z</time></trkpt><trkpt lat="46.0628467" lon="12.08611"><ele>324.6</ele><time>2026-04-25T08:43:37.955Z</time></trkpt><trkpt lat="46.0629267" lon="12.0862067"><ele>326.0</ele><time>2026-04-25T08:43:38.954Z</time></trkpt><trkpt lat="46.0629967" lon="12.0862933"><ele>326.0</ele><time>2026-04-25T08:43:39.956Z</time></trkpt><trkpt lat="46.0630567" lon="12.0863667"><ele>326.0</ele><time>2026-04-25T08:43:40.955Z</time></trkpt><trkpt lat="46.0631067" lon="12.0864283"><ele>326.0</ele><time>2026-04-25T08:43:41.954Z</time></trkpt><trkpt lat="46.0631933" lon="12.086535"><ele>326.0</ele><time>2026-04-25T08:43:43.955Z</time></trkpt><trkpt lat="46.06327" lon="12.0866167"><ele>326.0</ele><time>2026-04-25T08:43:45.956Z</time></trkpt><trkpt lat="46.06333" lon="12.0867"><ele>326.0</ele><time>2026-04-25T08:43:47.955Z</time></trkpt><trkpt lat="46.06339" lon="12.0867967"><ele>326.0</ele><time>2026-04-25T08:43:49.956Z</time></trkpt><trkpt lat="46.0634567" lon="12.0868933"><ele>326.0</ele><time>2026-04-25T08:43:51.955Z</time></trkpt><trkpt lat="46.06351" lon="12.0869933"><ele>326.0</ele><time>2026-04-25T08:43:53.954Z</time></trkpt><trkpt lat="46.063545" lon="12.087095"><ele>326.0</ele><time>2026-04-25T08:43:55.955Z</time></trkpt><trkpt lat="46.0636517" lon="12.0871867"><ele>326.0</ele><time>2026-04-25T08:47:46.956Z</time></trkpt><trkpt lat="46.0635667" lon="12.08728"><ele>326.0</ele><time>2026-04-25T08:53:09.957Z</time></trkpt><trkpt lat="46.0636183" lon="12.0874033"><ele>326.0</ele><time>2026-04-25T08:53:12.955Z</time></trkpt><trkpt lat="46.063675" lon="12.0875067"><ele>326.0</ele><time>2026-04-25T08:53:14.956Z</time></trkpt><trkpt lat="46.0637417" lon="12.087665"><ele>326.0</ele><time>2026-04-25T08:53:16.954Z</time></trkpt><trkpt lat="46.06377" lon="12.0877717"><ele>326.0</ele><time>2026-04-25T08:53:17.955Z</time></trkpt><trkpt lat="46.0638" lon="12.0878933"><ele>326.0</ele><time>2026-04-25T08:53:18.955Z</time></trkpt><trkpt lat="46.0638333" lon="12.0880283"><ele>326.0</ele><time>2026-04-25T08:53:19.955Z</time></trkpt><trkpt lat="46.0638667" lon="12.0881717"><ele>326.0</ele><time>2026-04-25T08:53:20.955Z</time></trkpt><trkpt lat="46.0639017" lon="12.088325"><ele>326.0</ele><time>2026-04-25T08:53:21.955Z</time></trkpt><trkpt lat="46.0639367" lon="12.0884883"><ele>326.0</ele><time>2026-04-25T08:53:22.955Z</time></trkpt><trkpt lat="46.06397" lon="12.0886583"><ele>326.0</ele><time>2026-04-25T08:53:23.955Z</time></trkpt><trkpt lat="46.0640017" lon="12.0888283"><ele>326.0</ele><time>2026-04-25T08:53:24.956Z</time></trkpt><trkpt lat="46.064035" lon="12.0889933"><ele>326.0</ele><time>2026-04-25T08:53:25.956Z</time></trkpt><trkpt lat="46.064065" lon="12.0891583"><ele>326.0</ele><time>2026-04-25T08:53:26.954Z</time></trkpt><trkpt lat="46.0640967" lon="12.0893183"><ele>324.5</ele><time>2026-04-25T08:53:27.954Z</time></trkpt><trkpt lat="46.06413" lon="12.0894783"><ele>323.0</ele><time>2026-04-25T08:53:28.956Z</time></trkpt><trkpt lat="46.06416" lon="12.0896383"><ele>321.5</ele><time>2026-04-25T08:53:29.954Z</time></trkpt><trkpt lat="46.0641917" lon="12.0898017"><ele>320.0</ele><time>2026-04-25T08:53:30.955Z</time></trkpt><trkpt lat="46.0642133" lon="12.0899533"><ele>319.75</ele><time>2026-04-25T08:53:31.956Z</time></trkpt><trkpt lat="46.0642483" lon="12.0901117"><ele>319.5</ele><time>2026-04-25T08:53:32.955Z</time></trkpt><trkpt lat="46.0642833" lon="12.09027"><ele>319.25</ele><time>2026-04-25T08:53:33.955Z</time></trkpt><trkpt lat="46.06432" lon="12.0904233"><ele>319.0</ele><time>2026-04-25T08:53:34.956Z</time></trkpt><trkpt lat="46.064355" lon="12.0905833"><ele>319.0</ele><time>2026-04-25T08:53:35.954Z</time></trkpt><trkpt lat="46.0643967" lon="12.0907467"><ele>319.0</ele><time>2026-04-25T08:53:36.956Z</time></trkpt><trkpt lat="46.0644417" lon="12.0909233"><ele>319.0</ele><time>2026-04-25T08:53:37.955Z</time></trkpt><trkpt lat="46.0644933" lon="12.091115"><ele>319.0</ele><time>2026-04-25T08:53:38.955Z</time></trkpt><trkpt lat="46.06454" lon="12.0913233"><ele>319.0</ele><time>2026-04-25T08:53:39.955Z</time></trkpt><trkpt lat="46.0645733" lon="12.0915533"><ele>319.0</ele><time>2026-04-25T08:53:40.956Z</time></trkpt><trkpt lat="46.064615" lon="12.0917817"><ele>319.0</ele><time>2026-04-25T08:53:41.954Z</time></trkpt><trkpt lat="46.0646583" lon="12.0920083"><ele>319.0</ele><time>2026-04-25T08:53:42.955Z</time></trkpt><trkpt lat="46.0647017" lon="12.092235"><ele>319.0</ele><time>2026-04-25T08:53:43.954Z</time></trkpt><trkpt lat="46.0647433" lon="12.0924617"><ele>319.0</ele><time>2026-04-25T08:53:44.955Z</time></trkpt><trkpt lat="46.0647883" lon="12.09269"><ele>318.3333333333333</ele><time>2026-04-25T08:53:45.955Z</time></trkpt><trkpt lat="46.0648317" lon="12.092925"><ele>317.6666666666667</ele><time>2026-04-25T08:53:46.956Z</time></trkpt><trkpt lat="46.06487" lon="12.0931617"><ele>317.0</ele><time>2026-04-25T08:53:47.955Z</time></trkpt><trkpt lat="46.0649167" lon="12.0934"><ele>318.33333333333337</ele><time>2026-04-25T08:53:48.955Z</time></trkpt><trkpt lat="46.064965" lon="12.0936383"><ele>319.6666666666667</ele><time>2026-04-25T08:53:49.954Z</time></trkpt><trkpt lat="46.0650133" lon="12.0938717"><ele>321.0</ele><time>2026-04-25T08:53:50.955Z</time></trkpt><trkpt lat="46.0650617" lon="12.0941167"><ele>321.0</ele><time>2026-04-25T08:53:51.955Z</time></trkpt><trkpt lat="46.06511" lon="12.0943583"><ele>321.0</ele><time>2026-04-25T08:53:52.955Z</time></trkpt><trkpt lat="46.0651533" lon="12.0946017"><ele>321.0</ele><time>2026-04-25T08:53:53.953Z</time></trkpt><trkpt lat="46.065205" lon="12.09484"><ele>321.3333333333333</ele><time>2026-04-25T08:53:54.955Z</time></trkpt><trkpt lat="46.0652533" lon="12.09507"><ele>321.66666666666663</ele><time>2026-04-25T08:53:55.955Z</time></trkpt><trkpt lat="46.0652983" lon="12.0953017"><ele>322.0</ele><time>2026-04-25T08:53:56.955Z</time></trkpt><trkpt lat="46.06535" lon="12.0955383"><ele>322.66666666666663</ele><time>2026-04-25T08:53:57.955Z</time></trkpt><trkpt lat="46.0654017" lon="12.0957783"><ele>323.3333333333333</ele><time>2026-04-25T08:53:58.955Z</time></trkpt><trkpt lat="46.0654517" lon="12.09602"><ele>324.0</ele><time>2026-04-25T08:53:59.955Z</time></trkpt><trkpt lat="46.065505" lon="12.09626"><ele>324.0</ele><time>2026-04-25T08:54:00.956Z</time></trkpt><trkpt lat="46.0655517" lon="12.0965033"><ele>324.0</ele><time>2026-04-25T08:54:01.955Z</time></trkpt><trkpt lat="46.0656017" lon="12.0967583"><ele>324.0</ele><time>2026-04-25T08:54:02.956Z</time></trkpt><trkpt lat="46.065655" lon="12.09701"><ele>324.0</ele><time>2026-04-25T08:54:03.955Z</time></trkpt><trkpt lat="46.0657067" lon="12.0972617"><ele>324.0</ele><time>2026-04-25T08:54:04.955Z</time></trkpt><trkpt lat="46.0657583" lon="12.0975133"><ele>324.0</ele><time>2026-04-25T08:54:05.954Z</time></trkpt><trkpt lat="46.06581" lon="12.09777"><ele>323.6666666666667</ele><time>2026-04-25T08:54:06.956Z</time></trkpt><trkpt lat="46.0658633" lon="12.0980333"><ele>323.33333333333337</ele><time>2026-04-25T08:54:07.955Z</time></trkpt><trkpt lat="46.0659183" lon="12.0982983"><ele>323.0</ele><time>2026-04-25T08:54:08.954Z</time></trkpt><trkpt lat="46.0659717" lon="12.0985617"><ele>322.6666666666667</ele><time>2026-04-25T08:54:09.956Z</time></trkpt><trkpt lat="46.0660283" lon="12.098825"><ele>322.3333333333333</ele><time>2026-04-25T08:54:10.955Z</time></trkpt><trkpt lat="46.066085" lon="12.0990867"><ele>322.0</ele><time>2026-04-25T08:54:11.955Z</time></trkpt><trkpt lat="46.0661417" lon="12.0993517"><ele>323.0</ele><time>2026-04-25T08:54:12.956Z</time></trkpt><trkpt lat="46.0662017" lon="12.0996167"><ele>324.0</ele><time>2026-04-25T08:54:13.955Z</time></trkpt><trkpt lat="46.0662633" lon="12.0998783"><ele>325.0</ele><time>2026-04-25T08:54:14.955Z</time></trkpt><trkpt lat="46.066325" lon="12.1001467"><ele>325.66666666666663</ele><time>2026-04-25T08:54:15.955Z</time></trkpt><trkpt lat="46.0663883" lon="12.1004133"><ele>326.3333333333333</ele><time>2026-04-25T08:54:16.956Z</time></trkpt><trkpt lat="46.06645" lon="12.10068"><ele>327.0</ele><time>2026-04-25T08:54:17.954Z</time></trkpt><trkpt lat="46.0665117" lon="12.1009467"><ele>327.0</ele><time>2026-04-25T08:54:18.955Z</time></trkpt><trkpt lat="46.0665733" lon="12.10121"><ele>327.0</ele><time>2026-04-25T08:54:19.955Z</time></trkpt><trkpt lat="46.0666367" lon="12.10147"><ele>327.0</ele><time>2026-04-25T08:54:20.955Z</time></trkpt><trkpt lat="46.0666983" lon="12.1017317"><ele>327.3333333333333</ele><time>2026-04-25T08:54:21.956Z</time></trkpt><trkpt lat="46.0667617" lon="12.10199"><ele>327.66666666666663</ele><time>2026-04-25T08:54:22.956Z</time></trkpt><trkpt lat="46.0668267" lon="12.10225"><ele>328.0</ele><time>2026-04-25T08:54:23.954Z</time></trkpt><trkpt lat="46.0668867" lon="12.1025067"><ele>328.3333333333333</ele><time>2026-04-25T08:54:24.956Z</time></trkpt><trkpt lat="46.0669517" lon="12.1027683"><ele>328.6666666666667</ele><time>2026-04-25T08:54:25.956Z</time></trkpt><trkpt lat="46.0670133" lon="12.1030267"><ele>329.0</ele><time>2026-04-25T08:54:26.956Z</time></trkpt><trkpt lat="46.06708" lon="12.1032817"><ele>329.33333333333337</ele><time>2026-04-25T08:54:27.955Z</time></trkpt><trkpt lat="46.0671433" lon="12.1035333"><ele>329.6666666666667</ele><time>2026-04-25T08:54:28.956Z</time></trkpt><trkpt lat="46.067205" lon="12.1037817"><ele>330.0</ele><time>2026-04-25T08:54:29.956Z</time></trkpt><trkpt lat="46.0672667" lon="12.1040267"><ele>330.6666666666667</ele><time>2026-04-25T08:54:30.955Z</time></trkpt><trkpt lat="46.0673317" lon="12.10427"><ele>331.33333333333337</ele><time>2026-04-25T08:54:31.956Z</time></trkpt><trkpt lat="46.0673933" lon="12.1045117"><ele>332.0</ele><time>2026-04-25T08:54:32.956Z</time></trkpt><trkpt lat="46.067455" lon="12.1047567"><ele>332.0</ele><time>2026-04-25T08:54:33.956Z</time></trkpt><trkpt lat="46.0675183" lon="12.105005"><ele>332.0</ele><time>2026-04-25T08:54:34.955Z</time></trkpt><trkpt lat="46.0675783" lon="12.1052567"><ele>332.0</ele><time>2026-04-25T08:54:35.956Z</time></trkpt><trkpt lat="46.0676417" lon="12.1055033"><ele>332.6666666666667</ele><time>2026-04-25T08:54:36.956Z</time></trkpt><trkpt lat="46.0677067" lon="12.1057517"><ele>333.3333333333333</ele><time>2026-04-25T08:54:37.955Z</time></trkpt><trkpt lat="46.0677717" lon="12.106"><ele>334.0</ele><time>2026-04-25T08:54:38.956Z</time></trkpt><trkpt lat="46.067835" lon="12.1062533"><ele>334.0</ele><time>2026-04-25T08:54:39.955Z</time></trkpt><trkpt lat="46.067895" lon="12.1065067"><ele>334.0</ele><time>2026-04-25T08:54:40.957Z</time></trkpt><trkpt lat="46.0679583" lon="12.10676"><ele>334.0</ele><time>2026-04-25T08:54:41.956Z</time></trkpt><trkpt lat="46.0680217" lon="12.1070133"><ele>334.3333333333333</ele><time>2026-04-25T08:54:42.956Z</time></trkpt><trkpt lat="46.068085" lon="12.10727"><ele>334.6666666666667</ele><time>2026-04-25T08:54:43.956Z</time></trkpt><trkpt lat="46.0681517" lon="12.1075283"><ele>335.0</ele><time>2026-04-25T08:54:44.956Z</time></trkpt><trkpt lat="46.0682183" lon="12.1077883"><ele>334.6666666666667</ele><time>2026-04-25T08:54:45.956Z</time></trkpt><trkpt lat="46.0682867" lon="12.1080533"><ele>334.3333333333333</ele><time>2026-04-25T08:54:46.956Z</time></trkpt><trkpt lat="46.0683517" lon="12.108315"><ele>334.0</ele><time>2026-04-25T08:54:47.956Z</time></trkpt><trkpt lat="46.0684167" lon="12.10858"><ele>334.66666666666663</ele><time>2026-04-25T08:54:48.956Z</time></trkpt><trkpt lat="46.0684817" lon="12.1088433"><ele>335.3333333333333</ele><time>2026-04-25T08:54:49.956Z</time></trkpt><trkpt lat="46.0685517" lon="12.109105"><ele>336.0</ele><time>2026-04-25T08:54:50.957Z</time></trkpt><trkpt lat="46.0686117" lon="12.1093683"><ele>336.3333333333333</ele><time>2026-04-25T08:54:51.955Z</time></trkpt><trkpt lat="46.0686617" lon="12.1096417"><ele>336.66666666666663</ele><time>2026-04-25T08:54:52.955Z</time></trkpt><trkpt lat="46.0687083" lon="12.1099117"><ele>337.0</ele><time>2026-04-25T08:54:53.956Z</time></trkpt><trkpt lat="46.068745" lon="12.1101817"><ele>337.0</ele><time>2026-04-25T08:54:54.956Z</time></trkpt><trkpt lat="46.0687717" lon="12.110455"><ele>337.0</ele><time>2026-04-25T08:54:55.955Z</time></trkpt><trkpt lat="46.0687933" lon="12.11073"><ele>337.0</ele><time>2026-04-25T08:54:56.956Z</time></trkpt><trkpt lat="46.0688117" lon="12.1110067"><ele>338.0</ele><time>2026-04-25T08:54:57.956Z</time></trkpt><trkpt lat="46.0688333" lon="12.111285"><ele>339.0</ele><time>2026-04-25T08:54:58.955Z</time></trkpt><trkpt lat="46.0688517" lon="12.1115683"><ele>340.0</ele><time>2026-04-25T08:54:59.956Z</time></trkpt><trkpt lat="46.06887" lon="12.1118533"><ele>342.0</ele><time>2026-04-25T08:55:00.956Z</time></trkpt><trkpt lat="46.0688917" lon="12.1121417"><ele>344.0</ele><time>2026-04-25T08:55:01.956Z</time></trkpt><trkpt lat="46.0689133" lon="12.112435"><ele>346.0</ele><time>2026-04-25T08:55:02.957Z</time></trkpt><trkpt lat="46.068935" lon="12.11273"><ele>347.3333333333333</ele><time>2026-04-25T08:55:03.956Z</time></trkpt><trkpt lat="46.0689617" lon="12.1130267"><ele>348.6666666666667</ele><time>2026-04-25T08:55:04.957Z</time></trkpt><trkpt lat="46.0689783" lon="12.113325"><ele>350.0</ele><time>2026-04-25T08:55:05.956Z</time></trkpt><trkpt lat="46.0689983" lon="12.11363"><ele>349.6666666666667</ele><time>2026-04-25T08:55:06.955Z</time></trkpt><trkpt lat="46.0690183" lon="12.11394"><ele>349.3333333333333</ele><time>2026-04-25T08:55:07.956Z</time></trkpt><trkpt lat="46.0690383" lon="12.11425"><ele>349.0</ele><time>2026-04-25T08:55:08.956Z</time></trkpt><trkpt lat="46.069065" lon="12.11456"><ele>349.0</ele><time>2026-04-25T08:55:09.956Z</time></trkpt><trkpt lat="46.069085" lon="12.1148683"><ele>349.0</ele><time>2026-04-25T08:55:10.957Z</time></trkpt><trkpt lat="46.06911" lon="12.1151733"><ele>349.0</ele><time>2026-04-25T08:55:11.956Z</time></trkpt><trkpt lat="46.0691117" lon="12.1154867"><ele>343.66666666666663</ele><time>2026-04-25T08:55:12.955Z</time></trkpt><trkpt lat="46.0691317" lon="12.11579"><ele>338.3333333333333</ele><time>2026-04-25T08:55:13.956Z</time></trkpt><trkpt lat="46.0691567" lon="12.1160883"><ele>333.0</ele><time>2026-04-25T08:55:14.956Z</time></trkpt><trkpt lat="46.0691883" lon="12.1163817"><ele>332.6666666666667</ele><time>2026-04-25T08:55:15.956Z</time></trkpt><trkpt lat="46.0692317" lon="12.11667"><ele>332.33333333333337</ele><time>2026-04-25T08:55:16.957Z</time></trkpt><trkpt lat="46.0692883" lon="12.11696"><ele>332.0</ele><time>2026-04-25T08:55:17.956Z</time></trkpt><trkpt lat="46.0693517" lon="12.117245"><ele>334.6666666666667</ele><time>2026-04-25T08:55:18.956Z</time></trkpt><trkpt lat="46.0694217" lon="12.117525"><ele>337.3333333333333</ele><time>2026-04-25T08:55:19.956Z</time></trkpt><trkpt lat="46.0694967" lon="12.1178017"><ele>340.0</ele><time>2026-04-25T08:55:20.955Z</time></trkpt><trkpt lat="46.0695767" lon="12.1180717"><ele>342.0</ele><time>2026-04-25T08:55:21.956Z</time></trkpt><trkpt lat="46.06967" lon="12.11833"><ele>344.0</ele><time>2026-04-25T08:55:22.955Z</time></trkpt><trkpt lat="46.069765" lon="12.1185817"><ele>346.0</ele><time>2026-04-25T08:55:23.955Z</time></trkpt><trkpt lat="46.0698617" lon="12.1188283"><ele>345.0</ele><time>2026-04-25T08:55:24.955Z</time></trkpt><trkpt lat="46.0699633" lon="12.11907"><ele>344.0</ele><time>2026-04-25T08:55:25.956Z</time></trkpt><trkpt lat="46.070065" lon="12.1193117"><ele>343.0</ele><time>2026-04-25T08:55:26.955Z</time></trkpt><trkpt lat="46.0701633" lon="12.119555"><ele>343.0</ele><time>2026-04-25T08:55:27.955Z</time></trkpt><trkpt lat="46.0702617" lon="12.1198"><ele>343.0</ele><time>2026-04-25T08:55:28.957Z</time></trkpt><trkpt lat="46.0703567" lon="12.120035"><ele>343.0</ele><time>2026-04-25T08:55:29.954Z</time></trkpt><trkpt lat="46.0704517" lon="12.1202617"><ele>343.0</ele><time>2026-04-25T08:55:30.954Z</time></trkpt><trkpt lat="46.0705467" lon="12.1204767"><ele>343.0</ele><time>2026-04-25T08:55:31.957Z</time></trkpt><trkpt lat="46.0706433" lon="12.120695"><ele>343.0</ele><time>2026-04-25T08:55:32.955Z</time></trkpt><trkpt lat="46.0707383" lon="12.120915"><ele>342.66666666666663</ele><time>2026-04-25T08:55:33.955Z</time></trkpt><trkpt lat="46.0708383" lon="12.12114"><ele>342.3333333333333</ele><time>2026-04-25T08:55:34.957Z</time></trkpt><trkpt lat="46.0709383" lon="12.12137"><ele>342.0</ele><time>2026-04-25T08:55:35.955Z</time></trkpt><trkpt lat="46.071035" lon="12.1216033"><ele>342.0</ele><time>2026-04-25T08:55:36.956Z</time></trkpt><trkpt lat="46.071135" lon="12.1218317"><ele>342.0</ele><time>2026-04-25T08:55:37.955Z</time></trkpt><trkpt lat="46.0712417" lon="12.1220633"><ele>342.0</ele><time>2026-04-25T08:55:38.958Z</time></trkpt><trkpt lat="46.0713533" lon="12.1222917"><ele>342.0</ele><time>2026-04-25T08:55:39.956Z</time></trkpt><trkpt lat="46.0714633" lon="12.1225167"><ele>342.0</ele><time>2026-04-25T08:55:40.958Z</time></trkpt><trkpt lat="46.0715833" lon="12.1227383"><ele>342.0</ele><time>2026-04-25T08:55:41.955Z</time></trkpt><trkpt lat="46.07171" lon="12.1229617"><ele>340.6666666666667</ele><time>2026-04-25T08:55:42.954Z</time></trkpt><trkpt lat="46.07184" lon="12.12318"><ele>339.33333333333337</ele><time>2026-04-25T08:55:43.956Z</time></trkpt><trkpt lat="46.0719767" lon="12.1233933"><ele>338.0</ele><time>2026-04-25T08:55:44.955Z</time></trkpt><trkpt lat="46.07212" lon="12.1236033"><ele>338.0</ele><time>2026-04-25T08:55:45.954Z</time></trkpt><trkpt lat="46.0722667" lon="12.1238083"><ele>338.0</ele><time>2026-04-25T08:55:46.956Z</time></trkpt><trkpt lat="46.0724167" lon="12.1240067"><ele>338.0</ele><time>2026-04-25T08:55:47.955Z</time></trkpt><trkpt lat="46.0725733" lon="12.1241967"><ele>338.0</ele><time>2026-04-25T08:55:48.956Z</time></trkpt><trkpt lat="46.0727317" lon="12.124375"><ele>338.0</ele><time>2026-04-25T08:55:49.955Z</time></trkpt><trkpt lat="46.072895" lon="12.124555"><ele>338.0</ele><time>2026-04-25T08:55:50.955Z</time></trkpt><trkpt lat="46.07306" lon="12.1247317"><ele>338.0</ele><time>2026-04-25T08:55:51.956Z</time></trkpt><trkpt lat="46.0732217" lon="12.124905"><ele>338.0</ele><time>2026-04-25T08:55:52.956Z</time></trkpt><trkpt lat="46.0733867" lon="12.12507"><ele>338.0</ele><time>2026-04-25T08:55:53.955Z</time></trkpt><trkpt lat="46.073545" lon="12.1252417"><ele>337.6666666666667</ele><time>2026-04-25T08:55:54.956Z</time></trkpt><trkpt lat="46.0737067" lon="12.1254167"><ele>337.3333333333333</ele><time>2026-04-25T08:55:55.955Z</time></trkpt><trkpt lat="46.073865" lon="12.1255867"><ele>337.0</ele><time>2026-04-25T08:55:56.955Z</time></trkpt><trkpt lat="46.0740267" lon="12.1257567"><ele>336.66666666666663</ele><time>2026-04-25T08:55:57.955Z</time></trkpt><trkpt lat="46.0741867" lon="12.1259233"><ele>336.3333333333333</ele><time>2026-04-25T08:55:58.956Z</time></trkpt><trkpt lat="46.0743417" lon="12.126095"><ele>336.0</ele><time>2026-04-25T08:55:59.955Z</time></trkpt><trkpt lat="46.0745" lon="12.1262667"><ele>336.0</ele><time>2026-04-25T08:56:00.956Z</time></trkpt><trkpt lat="46.07466" lon="12.1264383"><ele>336.0</ele><time>2026-04-25T08:56:01.956Z</time></trkpt><trkpt lat="46.07482" lon="12.1266083"><ele>336.0</ele><time>2026-04-25T08:56:02.956Z</time></trkpt><trkpt lat="46.0749833" lon="12.1267783"><ele>334.3333333333333</ele><time>2026-04-25T08:56:03.955Z</time></trkpt><trkpt lat="46.0751467" lon="12.1269467"><ele>332.66666666666663</ele><time>2026-04-25T08:56:04.955Z</time></trkpt><trkpt lat="46.0753117" lon="12.1271183"><ele>331.0</ele><time>2026-04-25T08:56:05.955Z</time></trkpt><trkpt lat="46.0754733" lon="12.1272933"><ele>330.3333333333333</ele><time>2026-04-25T08:56:06.955Z</time></trkpt><trkpt lat="46.0756317" lon="12.1274633"><ele>329.6666666666667</ele><time>2026-04-25T08:56:07.956Z</time></trkpt><trkpt lat="46.0757883" lon="12.1276367"><ele>329.0</ele><time>2026-04-25T08:56:08.955Z</time></trkpt><trkpt lat="46.0759483" lon="12.12781"><ele>329.0</ele><time>2026-04-25T08:56:09.955Z</time></trkpt><trkpt lat="46.0761117" lon="12.1279817"><ele>329.0</ele><time>2026-04-25T08:56:10.956Z</time></trkpt><trkpt lat="46.076275" lon="12.1281567"><ele>329.0</ele><time>2026-04-25T08:56:11.955Z</time></trkpt><trkpt lat="46.076435" lon="12.1283317"><ele>328.6666666666667</ele><time>2026-04-25T08:56:12.954Z</time></trkpt><trkpt lat="46.0765967" lon="12.12851"><ele>328.3333333333333</ele><time>2026-04-25T08:56:13.956Z</time></trkpt><trkpt lat="46.07676" lon="12.1286883"><ele>328.0</ele><time>2026-04-25T08:56:14.955Z</time></trkpt><trkpt lat="46.0769217" lon="12.128865"><ele>328.0</ele><time>2026-04-25T08:56:15.955Z</time></trkpt><trkpt lat="46.0770867" lon="12.1290417"><ele>328.0</ele><time>2026-04-25T08:56:16.957Z</time></trkpt><trkpt lat="46.0772483" lon="12.1292167"><ele>328.0</ele><time>2026-04-25T08:56:17.955Z</time></trkpt><trkpt lat="46.077405" lon="12.1293917"><ele>327.0</ele><time>2026-04-25T08:56:18.956Z</time></trkpt><trkpt lat="46.0775633" lon="12.1295617"><ele>326.0</ele><time>2026-04-25T08:56:19.955Z</time></trkpt><trkpt lat="46.077725" lon="12.1297283"><ele>325.0</ele><time>2026-04-25T08:56:20.956Z</time></trkpt><trkpt lat="46.0778867" lon="12.1298983"><ele>325.0</ele><time>2026-04-25T08:56:21.955Z</time></trkpt><trkpt lat="46.0780483" lon="12.1300683"><ele>325.0</ele><time>2026-04-25T08:56:22.956Z</time></trkpt><trkpt lat="46.07821" lon="12.13024"><ele>325.0</ele><time>2026-04-25T08:56:23.954Z</time></trkpt><trkpt lat="46.078375" lon="12.1304117"><ele>324.66666666666663</ele><time>2026-04-25T08:56:24.956Z</time></trkpt><trkpt lat="46.07854" lon="12.1305933"><ele>324.3333333333333</ele><time>2026-04-25T08:56:25.956Z</time></trkpt><trkpt lat="46.0787083" lon="12.130775"><ele>324.0</ele><time>2026-04-25T08:56:26.955Z</time></trkpt><trkpt lat="46.0788783" lon="12.13096"><ele>324.0</ele><time>2026-04-25T08:56:27.955Z</time></trkpt><trkpt lat="46.0790517" lon="12.1311467"><ele>324.0</ele><time>2026-04-25T08:56:28.956Z</time></trkpt><trkpt lat="46.0792267" lon="12.13133"><ele>324.0</ele><time>2026-04-25T08:56:29.955Z</time></trkpt><trkpt lat="46.0794033" lon="12.131515"><ele>324.3333333333333</ele><time>2026-04-25T08:56:30.956Z</time></trkpt><trkpt lat="46.0795783" lon="12.1317033"><ele>324.66666666666663</ele><time>2026-04-25T08:56:31.955Z</time></trkpt><trkpt lat="46.079755" lon="12.1318883"><ele>325.0</ele><time>2026-04-25T08:56:32.954Z</time></trkpt><trkpt lat="46.0799317" lon="12.1320733"><ele>323.66666666666663</ele><time>2026-04-25T08:56:33.956Z</time></trkpt><trkpt lat="46.0801033" lon="12.1322617"><ele>322.3333333333333</ele><time>2026-04-25T08:56:34.956Z</time></trkpt><trkpt lat="46.0802767" lon="12.1324467"><ele>321.0</ele><time>2026-04-25T08:56:35.955Z</time></trkpt><trkpt lat="46.0804467" lon="12.1326333"><ele>321.0</ele><time>2026-04-25T08:56:36.955Z</time></trkpt><trkpt lat="46.080615" lon="12.1328183"><ele>321.0</ele><time>2026-04-25T08:56:37.956Z</time></trkpt><trkpt lat="46.0807867" lon="12.1330017"><ele>321.0</ele><time>2026-04-25T08:56:38.955Z</time></trkpt><trkpt lat="46.0809583" lon="12.1331867"><ele>320.0</ele><time>2026-04-25T08:56:39.956Z</time></trkpt><trkpt lat="46.0811283" lon="12.1333767"><ele>319.0</ele><time>2026-04-25T08:56:40.956Z</time></trkpt><trkpt lat="46.0813033" lon="12.1335667"><ele>318.0</ele><time>2026-04-25T08:56:41.954Z</time></trkpt><trkpt lat="46.0814733" lon="12.133765"><ele>318.0</ele><time>2026-04-25T08:56:42.955Z</time></trkpt><trkpt lat="46.0816383" lon="12.1339783"><ele>318.0</ele><time>2026-04-25T08:56:43.955Z</time></trkpt><trkpt lat="46.08179" lon="12.13421"><ele>318.0</ele><time>2026-04-25T08:56:44.958Z</time></trkpt><trkpt lat="46.0819367" lon="12.1344517"><ele>318.3333333333333</ele><time>2026-04-25T08:56:45.957Z</time></trkpt><trkpt lat="46.082075" lon="12.1347083"><ele>318.66666666666663</ele><time>2026-04-25T08:56:46.955Z</time></trkpt><trkpt lat="46.0822" lon="12.1349733"><ele>319.0</ele><time>2026-04-25T08:56:47.957Z</time></trkpt><trkpt lat="46.08232" lon="12.1352433"><ele>319.0</ele><time>2026-04-25T08:56:48.955Z</time></trkpt><trkpt lat="46.0824317" lon="12.1355233"><ele>319.0</ele><time>2026-04-25T08:56:49.957Z</time></trkpt><trkpt lat="46.082535" lon="12.13581"><ele>319.0</ele><time>2026-04-25T08:56:50.957Z</time></trkpt><trkpt lat="46.08263" lon="12.1361033"><ele>320.3333333333333</ele><time>2026-04-25T08:56:51.957Z</time></trkpt><trkpt lat="46.0827133" lon="12.136405"><ele>321.6666666666667</ele><time>2026-04-25T08:56:52.956Z</time></trkpt><trkpt lat="46.082785" lon="12.1367083"><ele>323.0</ele><time>2026-04-25T08:56:53.956Z</time></trkpt><trkpt lat="46.0828467" lon="12.1370183"><ele>323.0</ele><time>2026-04-25T08:56:54.955Z</time></trkpt><trkpt lat="46.0829033" lon="12.1373333"><ele>323.0</ele><time>2026-04-25T08:56:55.957Z</time></trkpt><trkpt lat="46.082955" lon="12.1376483"><ele>323.6666666666667</ele><time>2026-04-25T08:56:56.957Z</time></trkpt><trkpt lat="46.0830017" lon="12.1379617"><ele>324.3333333333333</ele><time>2026-04-25T08:56:57.955Z</time></trkpt><trkpt lat="46.0830467" lon="12.1382767"><ele>325.0</ele><time>2026-04-25T08:56:58.956Z</time></trkpt><trkpt lat="46.0830967" lon="12.1385883"><ele>325.66666666666663</ele><time>2026-04-25T08:56:59.957Z</time></trkpt><trkpt lat="46.0831517" lon="12.1388983"><ele>326.3333333333333</ele><time>2026-04-25T08:57:00.956Z</time></trkpt><trkpt lat="46.083205" lon="12.13921"><ele>327.0</ele><time>2026-04-25T08:57:01.957Z</time></trkpt><trkpt lat="46.0832617" lon="12.13952"><ele>326.6666666666667</ele><time>2026-04-25T08:57:02.956Z</time></trkpt><trkpt lat="46.0833133" lon="12.1398283"><ele>326.33333333333337</ele><time>2026-04-25T08:57:03.957Z</time></trkpt><trkpt lat="46.0833667" lon="12.14014"><ele>326.0</ele><time>2026-04-25T08:57:04.957Z</time></trkpt><trkpt lat="46.0834167" lon="12.1404533"><ele>327.0</ele><time>2026-04-25T08:57:05.955Z</time></trkpt><trkpt lat="46.08347" lon="12.1407667"><ele>328.0</ele><time>2026-04-25T08:57:06.955Z</time></trkpt><trkpt lat="46.08352" lon="12.1410783"><ele>329.0</ele><time>2026-04-25T08:57:07.955Z</time></trkpt><trkpt lat="46.0835733" lon="12.1413883"><ele>329.33333333333337</ele><time>2026-04-25T08:57:08.957Z</time></trkpt><trkpt lat="46.08362" lon="12.141705"><ele>329.6666666666667</ele><time>2026-04-25T08:57:09.956Z</time></trkpt><trkpt lat="46.0836767" lon="12.1420133"><ele>330.0</ele><time>2026-04-25T08:57:10.956Z</time></trkpt><trkpt lat="46.0837333" lon="12.1423217"><ele>329.6666666666667</ele><time>2026-04-25T08:57:11.955Z</time></trkpt><trkpt lat="46.083785" lon="12.14263"><ele>329.33333333333337</ele><time>2026-04-25T08:57:12.956Z</time></trkpt><trkpt lat="46.08384" lon="12.14294"><ele>329.0</ele><time>2026-04-25T08:57:13.956Z</time></trkpt><trkpt lat="46.0838967" lon="12.1432483"><ele>329.6666666666667</ele><time>2026-04-25T08:57:14.956Z</time></trkpt><trkpt lat="46.0839517" lon="12.1435583"><ele>330.3333333333333</ele><time>2026-04-25T08:57:15.956Z</time></trkpt><trkpt lat="46.0840067" lon="12.143865"><ele>331.0</ele><time>2026-04-25T08:57:16.957Z</time></trkpt><trkpt lat="46.08406" lon="12.144175"><ele>330.3333333333333</ele><time>2026-04-25T08:57:17.957Z</time></trkpt><trkpt lat="46.084115" lon="12.14448"><ele>329.6666666666667</ele><time>2026-04-25T08:57:18.956Z</time></trkpt><trkpt lat="46.0841717" lon="12.14478"><ele>329.0</ele><time>2026-04-25T08:57:19.956Z</time></trkpt><trkpt lat="46.084225" lon="12.1450883"><ele>329.0</ele><time>2026-04-25T08:57:20.956Z</time></trkpt><trkpt lat="46.0842867" lon="12.1453917"><ele>329.0</ele><time>2026-04-25T08:57:21.955Z</time></trkpt><trkpt lat="46.0843583" lon="12.145695"><ele>329.0</ele><time>2026-04-25T08:57:22.956Z</time></trkpt><trkpt lat="46.0844383" lon="12.145995"><ele>329.6666666666667</ele><time>2026-04-25T08:57:23.955Z</time></trkpt><trkpt lat="46.0845217" lon="12.1462933"><ele>330.3333333333333</ele><time>2026-04-25T08:57:24.956Z</time></trkpt><trkpt lat="46.0846133" lon="12.1465867"><ele>331.0</ele><time>2026-04-25T08:57:25.957Z</time></trkpt><trkpt lat="46.0847033" lon="12.146885"><ele>331.3333333333333</ele><time>2026-04-25T08:57:26.957Z</time></trkpt><trkpt lat="46.084795" lon="12.14718"><ele>331.6666666666667</ele><time>2026-04-25T08:57:27.956Z</time></trkpt><trkpt lat="46.0848833" lon="12.147475"><ele>332.0</ele><time>2026-04-25T08:57:28.957Z</time></trkpt><trkpt lat="46.084975" lon="12.1477767"><ele>329.33333333333337</ele><time>2026-04-25T08:57:29.957Z</time></trkpt><trkpt lat="46.0850667" lon="12.14807"><ele>326.6666666666667</ele><time>2026-04-25T08:57:30.956Z</time></trkpt><trkpt lat="46.08516" lon="12.1483617"><ele>324.0</ele><time>2026-04-25T08:57:31.956Z</time></trkpt><trkpt lat="46.085255" lon="12.14865"><ele>323.6666666666667</ele><time>2026-04-25T08:57:32.957Z</time></trkpt><trkpt lat="46.0853533" lon="12.1489383"><ele>323.33333333333337</ele><time>2026-04-25T08:57:33.956Z</time></trkpt><trkpt lat="46.0854483" lon="12.1492267"><ele>323.0</ele><time>2026-04-25T08:57:34.958Z</time></trkpt><trkpt lat="46.0855383" lon="12.1495167"><ele>323.0</ele><time>2026-04-25T08:57:35.956Z</time></trkpt><trkpt lat="46.0856333" lon="12.1498083"><ele>323.0</ele><time>2026-04-25T08:57:36.955Z</time></trkpt><trkpt lat="46.08573" lon="12.1500983"><ele>323.0</ele><time>2026-04-25T08:57:37.956Z</time></trkpt><trkpt lat="46.0858267" lon="12.1503883"><ele>326.6666666666667</ele><time>2026-04-25T08:57:38.956Z</time></trkpt><trkpt lat="46.0859233" lon="12.15068"><ele>330.3333333333333</ele><time>2026-04-25T08:57:39.956Z</time></trkpt><trkpt lat="46.0860183" lon="12.150965"><ele>334.0</ele><time>2026-04-25T08:57:40.956Z</time></trkpt><trkpt lat="46.0861183" lon="12.1512517"><ele>335.3333333333333</ele><time>2026-04-25T08:57:41.955Z</time></trkpt><trkpt lat="46.0862167" lon="12.15154"><ele>336.6666666666667</ele><time>2026-04-25T08:57:42.956Z</time></trkpt><trkpt lat="46.0863133" lon="12.15183"><ele>338.0</ele><time>2026-04-25T08:57:43.956Z</time></trkpt><trkpt lat="46.0864067" lon="12.15212"><ele>338.33333333333337</ele><time>2026-04-25T08:57:44.957Z</time></trkpt><trkpt lat="46.0864967" lon="12.15241"><ele>338.6666666666667</ele><time>2026-04-25T08:57:45.956Z</time></trkpt><trkpt lat="46.0865833" lon="12.1527"><ele>339.0</ele><time>2026-04-25T08:57:46.956Z</time></trkpt><trkpt lat="46.0866683" lon="12.152985"><ele>338.0</ele><time>2026-04-25T08:57:47.955Z</time></trkpt><trkpt lat="46.0867583" lon="12.153275"><ele>337.0</ele><time>2026-04-25T08:57:48.957Z</time></trkpt><trkpt lat="46.0868517" lon="12.153565"><ele>336.0</ele><time>2026-04-25T08:57:49.956Z</time></trkpt><trkpt lat="46.0869433" lon="12.1538517"><ele>336.6666666666667</ele><time>2026-04-25T08:57:50.956Z</time></trkpt><trkpt lat="46.0870317" lon="12.1541417"><ele>337.33333333333337</ele><time>2026-04-25T08:57:51.956Z</time></trkpt><trkpt lat="46.0871217" lon="12.15443"><ele>338.0</ele><time>2026-04-25T08:57:52.956Z</time></trkpt><trkpt lat="46.087215" lon="12.15472"><ele>337.0</ele><time>2026-04-25T08:57:53.955Z</time></trkpt><trkpt lat="46.087315" lon="12.1550033"><ele>336.0</ele><time>2026-04-25T08:57:54.955Z</time></trkpt><trkpt lat="46.08741" lon="12.15529"><ele>335.0</ele><time>2026-04-25T08:57:55.956Z</time></trkpt><trkpt lat="46.0875033" lon="12.1555783"><ele>331.33333333333337</ele><time>2026-04-25T08:57:56.956Z</time></trkpt><trkpt lat="46.0875983" lon="12.1558683"><ele>327.6666666666667</ele><time>2026-04-25T08:57:57.955Z</time></trkpt><trkpt lat="46.0876917" lon="12.1561583"><ele>324.0</ele><time>2026-04-25T08:57:58.956Z</time></trkpt><trkpt lat="46.087785" lon="12.1564467"><ele>324.3333333333333</ele><time>2026-04-25T08:57:59.954Z</time></trkpt><trkpt lat="46.08788" lon="12.1567367"><ele>324.66666666666663</ele><time>2026-04-25T08:58:00.955Z</time></trkpt><trkpt lat="46.0879767" lon="12.1570267"><ele>325.0</ele><time>2026-04-25T08:58:01.955Z</time></trkpt><trkpt lat="46.08807" lon="12.157315"><ele>325.3333333333333</ele><time>2026-04-25T08:58:02.955Z</time></trkpt><trkpt lat="46.088165" lon="12.1576033"><ele>325.6666666666667</ele><time>2026-04-25T08:58:03.956Z</time></trkpt><trkpt lat="46.0882583" lon="12.157895"><ele>326.0</ele><time>2026-04-25T08:58:04.956Z</time></trkpt><trkpt lat="46.0883533" lon="12.158185"><ele>327.0</ele><time>2026-04-25T08:58:05.954Z</time></trkpt><trkpt lat="46.088445" lon="12.1584783"><ele>328.0</ele><time>2026-04-25T08:58:06.956Z</time></trkpt><trkpt lat="46.0885417" lon="12.1587717"><ele>329.0</ele><time>2026-04-25T08:58:07.956Z</time></trkpt><trkpt lat="46.0886367" lon="12.1590617"><ele>329.6666666666667</ele><time>2026-04-25T08:58:08.955Z</time></trkpt><trkpt lat="46.0887283" lon="12.1593533"><ele>330.3333333333333</ele><time>2026-04-25T08:58:09.956Z</time></trkpt><trkpt lat="46.0888233" lon="12.15964"><ele>331.0</ele><time>2026-04-25T08:58:10.956Z</time></trkpt><trkpt lat="46.0889233" lon="12.1599267"><ele>331.66666666666663</ele><time>2026-04-25T08:58:11.956Z</time></trkpt><trkpt lat="46.089025" lon="12.1602067"><ele>332.3333333333333</ele><time>2026-04-25T08:58:12.956Z</time></trkpt><trkpt lat="46.0891283" lon="12.1604867"><ele>333.0</ele><time>2026-04-25T08:58:13.955Z</time></trkpt><trkpt lat="46.089235" lon="12.1607667"><ele>334.3333333333333</ele><time>2026-04-25T08:58:14.955Z</time></trkpt><trkpt lat="46.089345" lon="12.161045"><ele>335.66666666666663</ele><time>2026-04-25T08:58:15.957Z</time></trkpt><trkpt lat="46.0894583" lon="12.16132"><ele>337.0</ele><time>2026-04-25T08:58:16.956Z</time></trkpt><trkpt lat="46.0895733" lon="12.1615983"><ele>337.0</ele><time>2026-04-25T08:58:17.954Z</time></trkpt><trkpt lat="46.0896867" lon="12.161875"><ele>337.0</ele><time>2026-04-25T08:58:18.956Z</time></trkpt><trkpt lat="46.0897983" lon="12.1621533"><ele>337.0</ele><time>2026-04-25T08:58:19.956Z</time></trkpt><trkpt lat="46.0899083" lon="12.1624317"><ele>338.0</ele><time>2026-04-25T08:58:20.956Z</time></trkpt><trkpt lat="46.0900217" lon="12.1627067"><ele>339.0</ele><time>2026-04-25T08:58:21.956Z</time></trkpt><trkpt lat="46.0901333" lon="12.162985"><ele>340.0</ele><time>2026-04-25T08:58:22.955Z</time></trkpt><trkpt lat="46.0902483" lon="12.16326"><ele>340.0</ele><time>2026-04-25T08:58:23.955Z</time></trkpt><trkpt lat="46.09036" lon="12.163535"><ele>340.0</ele><time>2026-04-25T08:58:24.956Z</time></trkpt><trkpt lat="46.090475" lon="12.1638133"><ele>340.0</ele><time>2026-04-25T08:58:25.956Z</time></trkpt><trkpt lat="46.0905917" lon="12.1640867"><ele>339.5</ele><time>2026-04-25T08:58:26.955Z</time></trkpt><trkpt lat="46.09071" lon="12.164365"><ele>339.0</ele><time>2026-04-25T08:58:27.955Z</time></trkpt><trkpt lat="46.0908367" lon="12.1646333"><ele>342.0</ele><time>2026-04-25T08:58:28.956Z</time></trkpt><trkpt lat="46.0909683" lon="12.1648967"><ele>345.0</ele><time>2026-04-25T08:58:29.955Z</time></trkpt><trkpt lat="46.091105" lon="12.165155"><ele>345.0</ele><time>2026-04-25T08:58:30.955Z</time></trkpt><trkpt lat="46.091245" lon="12.16541"><ele>345.0</ele><time>2026-04-25T08:58:31.956Z</time></trkpt><trkpt lat="46.0913917" lon="12.1656617"><ele>344.0</ele><time>2026-04-25T08:58:32.954Z</time></trkpt><trkpt lat="46.0915417" lon="12.1659067"><ele>343.0</ele><time>2026-04-25T08:58:33.954Z</time></trkpt><trkpt lat="46.0916933" lon="12.16615"><ele>344.3333333333333</ele><time>2026-04-25T08:58:34.957Z</time></trkpt><trkpt lat="46.0918467" lon="12.1663883"><ele>345.6666666666667</ele><time>2026-04-25T08:58:35.955Z</time></trkpt><trkpt lat="46.091995" lon="12.1666283"><ele>347.0</ele><time>2026-04-25T08:58:36.955Z</time></trkpt><trkpt lat="46.092145" lon="12.1668717"><ele>347.0</ele><time>2026-04-25T08:58:37.956Z</time></trkpt><trkpt lat="46.0922917" lon="12.1671133"><ele>347.0</ele><time>2026-04-25T08:58:38.955Z</time></trkpt><trkpt lat="46.0924367" lon="12.1673567"><ele>347.0</ele><time>2026-04-25T08:58:39.955Z</time></trkpt><trkpt lat="46.092585" lon="12.167595"><ele>347.33333333333337</ele><time>2026-04-25T08:58:40.956Z</time></trkpt><trkpt lat="46.0927333" lon="12.167835"><ele>347.6666666666667</ele><time>2026-04-25T08:58:41.954Z</time></trkpt><trkpt lat="46.0928817" lon="12.1680767"><ele>348.0</ele><time>2026-04-25T08:58:42.956Z</time></trkpt><trkpt lat="46.0930333" lon="12.1683183"><ele>348.0</ele><time>2026-04-25T08:58:43.955Z</time></trkpt><trkpt lat="46.0931833" lon="12.1685617"><ele>348.0</ele><time>2026-04-25T08:58:44.955Z</time></trkpt><trkpt lat="46.0933333" lon="12.1688033"><ele>350.0</ele><time>2026-04-25T08:58:45.956Z</time></trkpt><trkpt lat="46.0934833" lon="12.1690467"><ele>352.0</ele><time>2026-04-25T08:58:46.957Z</time></trkpt><trkpt lat="46.093635" lon="12.1692867"><ele>352.0</ele><time>2026-04-25T08:58:47.954Z</time></trkpt><trkpt lat="46.093785" lon="12.1695267"><ele>352.0</ele><time>2026-04-25T08:58:48.956Z</time></trkpt><trkpt lat="46.0939317" lon="12.169775"><ele>352.0</ele><time>2026-04-25T08:58:49.956Z</time></trkpt><trkpt lat="46.0940833" lon="12.1700217"><ele>352.0</ele><time>2026-04-25T08:58:50.956Z</time></trkpt><trkpt lat="46.0942267" lon="12.170265"><ele>352.0</ele><time>2026-04-25T08:58:51.956Z</time></trkpt><trkpt lat="46.0943733" lon="12.1705033"><ele>352.0</ele><time>2026-04-25T08:58:52.956Z</time></trkpt><trkpt lat="46.0945167" lon="12.17073"><ele>352.0</ele><time>2026-04-25T08:58:53.955Z</time></trkpt><trkpt lat="46.094645" lon="12.1709333"><ele>351.66666666666663</ele><time>2026-04-25T08:58:54.957Z</time></trkpt><trkpt lat="46.094775" lon="12.1711333"><ele>351.3333333333333</ele><time>2026-04-25T08:58:55.956Z</time></trkpt><trkpt lat="46.0949083" lon="12.1713283"><ele>351.0</ele><time>2026-04-25T08:58:56.955Z</time></trkpt><trkpt lat="46.09505" lon="12.1715167"><ele>349.0</ele><time>2026-04-25T08:58:57.956Z</time></trkpt><trkpt lat="46.0951917" lon="12.1716917"><ele>347.0</ele><time>2026-04-25T08:58:58.955Z</time></trkpt><trkpt lat="46.095325" lon="12.1718433"><ele>345.0</ele><time>2026-04-25T08:58:59.955Z</time></trkpt><trkpt lat="46.09546" lon="12.1719767"><ele>345.0</ele><time>2026-04-25T08:59:00.954Z</time></trkpt><trkpt lat="46.0955917" lon="12.172095"><ele>345.0</ele><time>2026-04-25T08:59:01.955Z</time></trkpt><trkpt lat="46.09572" lon="12.1722033"><ele>345.0</ele><time>2026-04-25T08:59:02.957Z</time></trkpt><trkpt lat="46.09584" lon="12.1722983"><ele>345.0</ele><time>2026-04-25T08:59:03.956Z</time></trkpt><trkpt lat="46.0959483" lon="12.1723883"><ele>345.0</ele><time>2026-04-25T08:59:04.956Z</time></trkpt><trkpt lat="46.096065" lon="12.172475"><ele>345.0</ele><time>2026-04-25T08:59:05.955Z</time></trkpt><trkpt lat="46.0961717" lon="12.17253"><ele>345.0</ele><time>2026-04-25T08:59:06.956Z</time></trkpt><trkpt lat="46.096265" lon="12.17258"><ele>345.0</ele><time>2026-04-25T08:59:07.958Z</time></trkpt><trkpt lat="46.0963467" lon="12.1726317"><ele>345.0</ele><time>2026-04-25T08:59:08.954Z</time></trkpt><trkpt lat="46.09643" lon="12.1726833"><ele>345.0</ele><time>2026-04-25T08:59:09.956Z</time></trkpt><trkpt lat="46.0965167" lon="12.17273"><ele>345.0</ele><time>2026-04-25T08:59:10.956Z</time></trkpt><trkpt lat="46.096595" lon="12.1727533"><ele>345.0</ele><time>2026-04-25T08:59:11.957Z</time></trkpt><trkpt lat="46.0966617" lon="12.1728083"><ele>345.0</ele><time>2026-04-25T08:59:12.956Z</time></trkpt><trkpt lat="46.09672" lon="12.1728617"><ele>345.0</ele><time>2026-04-25T08:59:13.955Z</time></trkpt><trkpt lat="46.0967883" lon="12.172925"><ele>345.0</ele><time>2026-04-25T08:59:14.956Z</time></trkpt><trkpt lat="46.09687" lon="12.1729467"><ele>346.25</ele><time>2026-04-25T08:59:15.955Z</time></trkpt><trkpt lat="46.0969783" lon="12.172965"><ele>347.5</ele><time>2026-04-25T08:59:16.956Z</time></trkpt><trkpt lat="46.097095" lon="12.172995"><ele>348.75</ele><time>2026-04-25T08:59:17.955Z</time></trkpt><trkpt lat="46.0972217" lon="12.1730317"><ele>350.0</ele><time>2026-04-25T08:59:18.955Z</time></trkpt><trkpt lat="46.0973683" lon="12.1730983"><ele>350.33333333333337</ele><time>2026-04-25T08:59:19.956Z</time></trkpt><trkpt lat="46.0975267" lon="12.1731683"><ele>350.6666666666667</ele><time>2026-04-25T08:59:20.954Z</time></trkpt><trkpt lat="46.0976983" lon="12.1732433"><ele>351.0</ele><time>2026-04-25T08:59:21.955Z</time></trkpt><trkpt lat="46.0978683" lon="12.1733233"><ele>351.0</ele><time>2026-04-25T08:59:22.957Z</time></trkpt><trkpt lat="46.0980383" lon="12.1734117"><ele>351.0</ele><time>2026-04-25T08:59:23.956Z</time></trkpt><trkpt lat="46.0982183" lon="12.1734983"><ele>351.0</ele><time>2026-04-25T08:59:24.956Z</time></trkpt><trkpt lat="46.0984233" lon="12.1735733"><ele>350.3333333333333</ele><time>2026-04-25T08:59:25.956Z</time></trkpt><trkpt lat="46.0986183" lon="12.1736583"><ele>349.66666666666663</ele><time>2026-04-25T08:59:26.954Z</time></trkpt><trkpt lat="46.09881" lon="12.173755"><ele>349.0</ele><time>2026-04-25T08:59:27.955Z</time></trkpt><trkpt lat="46.0990083" lon="12.1738567"><ele>348.3333333333333</ele><time>2026-04-25T08:59:28.956Z</time></trkpt><trkpt lat="46.09921" lon="12.17396"><ele>347.6666666666667</ele><time>2026-04-25T08:59:29.955Z</time></trkpt><trkpt lat="46.0994217" lon="12.1740867"><ele>347.0</ele><time>2026-04-25T08:59:30.956Z</time></trkpt><trkpt lat="46.0996183" lon="12.174235"><ele>347.0</ele><time>2026-04-25T08:59:31.956Z</time></trkpt><trkpt lat="46.0998183" lon="12.17439"><ele>347.0</ele><time>2026-04-25T08:59:32.955Z</time></trkpt><trkpt lat="46.1000117" lon="12.174565"><ele>347.0</ele><time>2026-04-25T08:59:33.956Z</time></trkpt><trkpt lat="46.1002" lon="12.17475"><ele>347.0</ele><time>2026-04-25T08:59:34.956Z</time></trkpt><trkpt lat="46.10037" lon="12.1749517"><ele>347.0</ele><time>2026-04-25T08:59:35.955Z</time></trkpt><trkpt lat="46.1005283" lon="12.1751717"><ele>347.0</ele><time>2026-04-25T08:59:36.955Z</time></trkpt><trkpt lat="46.1006783" lon="12.17541"><ele>347.0</ele><time>2026-04-25T08:59:37.956Z</time></trkpt><trkpt lat="46.1008167" lon="12.175665"><ele>347.0</ele><time>2026-04-25T08:59:38.956Z</time></trkpt><trkpt lat="46.10094" lon="12.1759383"><ele>344.5</ele><time>2026-04-25T08:59:39.956Z</time></trkpt><trkpt lat="46.101055" lon="12.1762183"><ele>342.0</ele><time>2026-04-25T08:59:40.956Z</time></trkpt><trkpt lat="46.1011633" lon="12.176505"><ele>342.5</ele><time>2026-04-25T08:59:41.955Z</time></trkpt><trkpt lat="46.10127" lon="12.1767933"><ele>343.0</ele><time>2026-04-25T08:59:42.955Z</time></trkpt><trkpt lat="46.1013767" lon="12.17708"><ele>343.0</ele><time>2026-04-25T08:59:43.955Z</time></trkpt><trkpt lat="46.101485" lon="12.177365"><ele>343.0</ele><time>2026-04-25T08:59:44.955Z</time></trkpt><trkpt lat="46.1015967" lon="12.17765"><ele>343.0</ele><time>2026-04-25T08:59:45.957Z</time></trkpt><trkpt lat="46.1017117" lon="12.177935"><ele>343.0</ele><time>2026-04-25T08:59:46.954Z</time></trkpt><trkpt lat="46.1018217" lon="12.1782217"><ele>343.5</ele><time>2026-04-25T08:59:47.955Z</time></trkpt><trkpt lat="46.1019283" lon="12.178505"><ele>344.0</ele><time>2026-04-25T08:59:48.956Z</time></trkpt><trkpt lat="46.1020433" lon="12.17879"><ele>343.5</ele><time>2026-04-25T08:59:49.956Z</time></trkpt><trkpt lat="46.1021583" lon="12.1790717"><ele>343.0</ele><time>2026-04-25T08:59:50.955Z</time></trkpt><trkpt lat="46.1022733" lon="12.17935"><ele>343.0</ele><time>2026-04-25T08:59:51.956Z</time></trkpt><trkpt lat="46.1023867" lon="12.17963"><ele>343.0</ele><time>2026-04-25T08:59:52.955Z</time></trkpt><trkpt lat="46.1025" lon="12.1799117"><ele>343.0</ele><time>2026-04-25T08:59:53.955Z</time></trkpt><trkpt lat="46.1026117" lon="12.1801867"><ele>343.0</ele><time>2026-04-25T08:59:54.956Z</time></trkpt><trkpt lat="46.10272" lon="12.18046"><ele>343.0</ele><time>2026-04-25T08:59:55.955Z</time></trkpt><trkpt lat="46.1028283" lon="12.1807367"><ele>343.0</ele><time>2026-04-25T08:59:56.955Z</time></trkpt><trkpt lat="46.1029383" lon="12.181015"><ele>343.0</ele><time>2026-04-25T08:59:57.955Z</time></trkpt><trkpt lat="46.1030467" lon="12.18129"><ele>343.0</ele><time>2026-04-25T08:59:58.956Z</time></trkpt><trkpt lat="46.1031583" lon="12.1815617"><ele>343.66666666666663</ele><time>2026-04-25T08:59:59.956Z</time></trkpt><trkpt lat="46.1032667" lon="12.1818367"><ele>344.3333333333333</ele><time>2026-04-25T09:00:00.957Z</time></trkpt><trkpt lat="46.1033783" lon="12.182115"><ele>345.0</ele><time>2026-04-25T09:00:01.957Z</time></trkpt><trkpt lat="46.1034833" lon="12.1823967"><ele>345.5</ele><time>2026-04-25T09:00:02.958Z</time></trkpt><trkpt lat="46.1035933" lon="12.1826817"><ele>346.0</ele><time>2026-04-25T09:00:03.957Z</time></trkpt><trkpt lat="46.1037033" lon="12.182965"><ele>347.0</ele><time>2026-04-25T09:00:04.957Z</time></trkpt><trkpt lat="46.103815" lon="12.183245"><ele>348.0</ele><time>2026-04-25T09:00:05.954Z</time></trkpt><trkpt lat="46.1039267" lon="12.1835267"><ele>349.0</ele><time>2026-04-25T09:00:06.954Z</time></trkpt><trkpt lat="46.1040367" lon="12.18381"><ele>349.3333333333333</ele><time>2026-04-25T09:00:07.957Z</time></trkpt><trkpt lat="46.1041467" lon="12.1840933"><ele>349.6666666666667</ele><time>2026-04-25T09:00:08.956Z</time></trkpt><trkpt lat="46.1042533" lon="12.184375"><ele>350.0</ele><time>2026-04-25T09:00:09.956Z</time></trkpt><trkpt lat="46.10436" lon="12.18465"><ele>351.0</ele><time>2026-04-25T09:00:10.956Z</time></trkpt><trkpt lat="46.1044667" lon="12.1849217"><ele>352.0</ele><time>2026-04-25T09:00:11.955Z</time></trkpt><trkpt lat="46.1045733" lon="12.18519"><ele>353.0</ele><time>2026-04-25T09:00:12.955Z</time></trkpt><trkpt lat="46.10468" lon="12.185455"><ele>352.6666666666667</ele><time>2026-04-25T09:00:13.956Z</time></trkpt><trkpt lat="46.1047833" lon="12.1857167"><ele>352.3333333333333</ele><time>2026-04-25T09:00:14.956Z</time></trkpt><trkpt lat="46.1048883" lon="12.1859717"><ele>352.0</ele><time>2026-04-25T09:00:15.956Z</time></trkpt><trkpt lat="46.10499" lon="12.1862183"><ele>352.0</ele><time>2026-04-25T09:00:16.956Z</time></trkpt><trkpt lat="46.105075" lon="12.1864433"><ele>352.0</ele><time>2026-04-25T09:00:17.958Z</time></trkpt><trkpt lat="46.105155" lon="12.1866583"><ele>352.0</ele><time>2026-04-25T09:00:18.956Z</time></trkpt><trkpt lat="46.10523" lon="12.186855"><ele>352.5</ele><time>2026-04-25T09:00:19.956Z</time></trkpt><trkpt lat="46.1053017" lon="12.1870283"><ele>353.0</ele><time>2026-04-25T09:00:20.956Z</time></trkpt><trkpt lat="46.1053633" lon="12.1871867"><ele>353.5</ele><time>2026-04-25T09:00:21.955Z</time></trkpt><trkpt lat="46.10542" lon="12.187335"><ele>354.0</ele><time>2026-04-25T09:00:22.957Z</time></trkpt><trkpt lat="46.105475" lon="12.1874783"><ele>354.4</ele><time>2026-04-25T09:00:23.955Z</time></trkpt><trkpt lat="46.1055267" lon="12.18761"><ele>354.79999999999995</ele><time>2026-04-25T09:00:24.956Z</time></trkpt><trkpt lat="46.1055767" lon="12.187735"><ele>355.20000000000005</ele><time>2026-04-25T09:00:25.956Z</time></trkpt><trkpt lat="46.1056267" lon="12.1878483"><ele>355.6</ele><time>2026-04-25T09:00:26.956Z</time></trkpt><trkpt lat="46.10567" lon="12.1879567"><ele>356.0</ele><time>2026-04-25T09:00:27.956Z</time></trkpt><trkpt lat="46.105715" lon="12.1880633"><ele>355.8</ele><time>2026-04-25T09:00:28.956Z</time></trkpt><trkpt lat="46.1057633" lon="12.1881867"><ele>355.6</ele><time>2026-04-25T09:00:29.955Z</time></trkpt><trkpt lat="46.105825" lon="12.1883267"><ele>355.4</ele><time>2026-04-25T09:00:30.955Z</time></trkpt><trkpt lat="46.105885" lon="12.1884717"><ele>355.2</ele><time>2026-04-25T09:00:31.956Z</time></trkpt><trkpt lat="46.1059417" lon="12.1886167"><ele>355.0</ele><time>2026-04-25T09:00:32.955Z</time></trkpt><trkpt lat="46.106005" lon="12.18876"><ele>355.0</ele><time>2026-04-25T09:00:33.956Z</time></trkpt><trkpt lat="46.10606" lon="12.1888983"><ele>355.0</ele><time>2026-04-25T09:00:34.956Z</time></trkpt><trkpt lat="46.106115" lon="12.1890367"><ele>355.0</ele><time>2026-04-25T09:00:35.954Z</time></trkpt><trkpt lat="46.1061717" lon="12.1891817"><ele>355.0</ele><time>2026-04-25T09:00:36.956Z</time></trkpt><trkpt lat="46.1062267" lon="12.18933"><ele>354.75</ele><time>2026-04-25T09:00:37.956Z</time></trkpt><trkpt lat="46.1062867" lon="12.1894983"><ele>354.5</ele><time>2026-04-25T09:00:38.957Z</time></trkpt><trkpt lat="46.1063467" lon="12.189675"><ele>354.25</ele><time>2026-04-25T09:00:39.957Z</time></trkpt><trkpt lat="46.1064183" lon="12.189845"><ele>354.0</ele><time>2026-04-25T09:00:40.957Z</time></trkpt><trkpt lat="46.10648" lon="12.1900433"><ele>355.0</ele><time>2026-04-25T09:00:41.955Z</time></trkpt><trkpt lat="46.10654" lon="12.1902467"><ele>356.0</ele><time>2026-04-25T09:00:42.955Z</time></trkpt><trkpt lat="46.1065983" lon="12.1904567"><ele>357.0</ele><time>2026-04-25T09:00:43.956Z</time></trkpt><trkpt lat="46.106655" lon="12.1906767"><ele>357.6666666666667</ele><time>2026-04-25T09:00:44.955Z</time></trkpt><trkpt lat="46.106715" lon="12.1908883"><ele>358.33333333333337</ele><time>2026-04-25T09:00:45.955Z</time></trkpt><trkpt lat="46.10677" lon="12.1910983"><ele>359.0</ele><time>2026-04-25T09:00:46.956Z</time></trkpt><trkpt lat="46.10682" lon="12.1912933"><ele>359.0</ele><time>2026-04-25T09:00:47.955Z</time></trkpt><trkpt lat="46.1068667" lon="12.19148"><ele>359.0</ele><time>2026-04-25T09:00:48.955Z</time></trkpt><trkpt lat="46.106905" lon="12.1916617"><ele>359.0</ele><time>2026-04-25T09:00:49.956Z</time></trkpt><trkpt lat="46.1069383" lon="12.1918333"><ele>359.0</ele><time>2026-04-25T09:00:50.955Z</time></trkpt><trkpt lat="46.1069683" lon="12.1919933"><ele>359.0</ele><time>2026-04-25T09:00:51.956Z</time></trkpt><trkpt lat="46.106995" lon="12.1921333"><ele>359.0</ele><time>2026-04-25T09:00:52.956Z</time></trkpt><trkpt lat="46.1070133" lon="12.1922717"><ele>359.0</ele><time>2026-04-25T09:00:53.955Z</time></trkpt><trkpt lat="46.1070283" lon="12.1924017"><ele>359.0</ele><time>2026-04-25T09:00:54.956Z</time></trkpt><trkpt lat="46.1070467" lon="12.1925367"><ele>359.0</ele><time>2026-04-25T09:00:55.957Z</time></trkpt><trkpt lat="46.1070383" lon="12.1926667"><ele>359.2</ele><time>2026-04-25T09:00:56.955Z</time></trkpt><trkpt lat="46.1070433" lon="12.1928033"><ele>359.4</ele><time>2026-04-25T09:00:57.956Z</time></trkpt><trkpt lat="46.107095" lon="12.1929383"><ele>359.6</ele><time>2026-04-25T09:00:58.956Z</time></trkpt><trkpt lat="46.1071367" lon="12.193085"><ele>359.8</ele><time>2026-04-25T09:00:59.956Z</time></trkpt><trkpt lat="46.1071783" lon="12.1932567"><ele>360.0</ele><time>2026-04-25T09:01:00.955Z</time></trkpt><trkpt lat="46.1071867" lon="12.1934517"><ele>360.25</ele><time>2026-04-25T09:01:01.956Z</time></trkpt><trkpt lat="46.1072067" lon="12.1936483"><ele>360.5</ele><time>2026-04-25T09:01:02.954Z</time></trkpt><trkpt lat="46.1072233" lon="12.1938483"><ele>360.75</ele><time>2026-04-25T09:01:03.956Z</time></trkpt><trkpt lat="46.1072433" lon="12.1940617"><ele>361.0</ele><time>2026-04-25T09:01:04.957Z</time></trkpt><trkpt lat="46.1072583" lon="12.1942767"><ele>361.0</ele><time>2026-04-25T09:01:05.955Z</time></trkpt><trkpt lat="46.107275" lon="12.1944917"><ele>361.0</ele><time>2026-04-25T09:01:06.956Z</time></trkpt><trkpt lat="46.1072883" lon="12.1947083"><ele>361.0</ele><time>2026-04-25T09:01:07.956Z</time></trkpt><trkpt lat="46.1073017" lon="12.1949283"><ele>361.3333333333333</ele><time>2026-04-25T09:01:08.954Z</time></trkpt><trkpt lat="46.107315" lon="12.1951533"><ele>361.6666666666667</ele><time>2026-04-25T09:01:09.956Z</time></trkpt><trkpt lat="46.1073317" lon="12.1953717"><ele>362.0</ele><time>2026-04-25T09:01:10.955Z</time></trkpt><trkpt lat="46.1073417" lon="12.19558"><ele>361.25</ele><time>2026-04-25T09:01:11.955Z</time></trkpt><trkpt lat="46.1073483" lon="12.195785"><ele>360.5</ele><time>2026-04-25T09:01:12.955Z</time></trkpt><trkpt lat="46.107355" lon="12.1959917"><ele>359.75</ele><time>2026-04-25T09:01:13.955Z</time></trkpt><trkpt lat="46.1073583" lon="12.19619"><ele>359.0</ele><time>2026-04-25T09:01:14.955Z</time></trkpt><trkpt lat="46.10737" lon="12.196385"><ele>358.25</ele><time>2026-04-25T09:01:15.957Z</time></trkpt><trkpt lat="46.1074" lon="12.19658"><ele>357.5</ele><time>2026-04-25T09:01:16.956Z</time></trkpt><trkpt lat="46.10744" lon="12.19678"><ele>356.75</ele><time>2026-04-25T09:01:17.954Z</time></trkpt><trkpt lat="46.1074967" lon="12.1969833"><ele>356.0</ele><time>2026-04-25T09:01:18.956Z</time></trkpt><trkpt lat="46.1075617" lon="12.1971983"><ele>353.6666666666667</ele><time>2026-04-25T09:01:19.956Z</time></trkpt><trkpt lat="46.1076383" lon="12.1974017"><ele>351.3333333333333</ele><time>2026-04-25T09:01:20.956Z</time></trkpt><trkpt lat="46.1077333" lon="12.1976"><ele>349.0</ele><time>2026-04-25T09:01:21.957Z</time></trkpt><trkpt lat="46.1078367" lon="12.19779"><ele>349.0</ele><time>2026-04-25T09:01:22.955Z</time></trkpt><trkpt lat="46.1079567" lon="12.19797"><ele>349.0</ele><time>2026-04-25T09:01:23.955Z</time></trkpt><trkpt lat="46.10809" lon="12.198145"><ele>349.0</ele><time>2026-04-25T09:01:24.956Z</time></trkpt><trkpt lat="46.1082317" lon="12.19831"><ele>350.0</ele><time>2026-04-25T09:01:25.956Z</time></trkpt><trkpt lat="46.10838" lon="12.198465"><ele>351.0</ele><time>2026-04-25T09:01:26.955Z</time></trkpt><trkpt lat="46.108535" lon="12.1986133"><ele>352.0</ele><time>2026-04-25T09:01:27.956Z</time></trkpt><trkpt lat="46.1086917" lon="12.1987617"><ele>352.0</ele><time>2026-04-25T09:01:28.958Z</time></trkpt><trkpt lat="46.1088517" lon="12.19891"><ele>352.0</ele><time>2026-04-25T09:01:29.955Z</time></trkpt><trkpt lat="46.1090083" lon="12.1990617"><ele>352.0</ele><time>2026-04-25T09:01:30.956Z</time></trkpt><trkpt lat="46.1091667" lon="12.1992183"><ele>352.66666666666663</ele><time>2026-04-25T09:01:31.955Z</time></trkpt><trkpt lat="46.1093367" lon="12.19937"><ele>353.3333333333333</ele><time>2026-04-25T09:01:32.956Z</time></trkpt><trkpt lat="46.1095083" lon="12.1995217"><ele>354.0</ele><time>2026-04-25T09:01:33.956Z</time></trkpt><trkpt lat="46.1096783" lon="12.1996767"><ele>354.3333333333333</ele><time>2026-04-25T09:01:34.955Z</time></trkpt><trkpt lat="46.1098467" lon="12.1998383"><ele>354.66666666666663</ele><time>2026-04-25T09:01:35.955Z</time></trkpt><trkpt lat="46.1100133" lon="12.2"><ele>355.0</ele><time>2026-04-25T09:01:36.956Z</time></trkpt><trkpt lat="46.1101867" lon="12.20016"><ele>355.66666666666663</ele><time>2026-04-25T09:01:37.957Z</time></trkpt><trkpt lat="46.1103633" lon="12.20032"><ele>356.3333333333333</ele><time>2026-04-25T09:01:38.955Z</time></trkpt><trkpt lat="46.110545" lon="12.2004867"><ele>357.0</ele><time>2026-04-25T09:01:39.956Z</time></trkpt><trkpt lat="46.1107267" lon="12.2006567"><ele>360.6666666666667</ele><time>2026-04-25T09:01:40.957Z</time></trkpt><trkpt lat="46.1109033" lon="12.2008217"><ele>364.33333333333337</ele><time>2026-04-25T09:01:41.956Z</time></trkpt><trkpt lat="46.1110717" lon="12.2009833"><ele>368.0</ele><time>2026-04-25T09:01:42.956Z</time></trkpt><trkpt lat="46.111235" lon="12.2011383"><ele>368.0</ele><time>2026-04-25T09:01:43.956Z</time></trkpt><trkpt lat="46.11139" lon="12.201285"><ele>368.0</ele><time>2026-04-25T09:01:44.956Z</time></trkpt><trkpt lat="46.1115317" lon="12.20142"><ele>368.0</ele><time>2026-04-25T09:01:45.957Z</time></trkpt><trkpt lat="46.1116683" lon="12.2015483"><ele>368.0</ele><time>2026-04-25T09:01:46.955Z</time></trkpt><trkpt lat="46.1118033" lon="12.2016717"><ele>368.0</ele><time>2026-04-25T09:01:47.956Z</time></trkpt><trkpt lat="46.1119417" lon="12.2018"><ele>368.0</ele><time>2026-04-25T09:01:48.955Z</time></trkpt><trkpt lat="46.1120817" lon="12.2019283"><ele>368.0</ele><time>2026-04-25T09:01:49.957Z</time></trkpt><trkpt lat="46.1122217" lon="12.20206"><ele>368.0</ele><time>2026-04-25T09:01:50.957Z</time></trkpt><trkpt lat="46.112375" lon="12.2021867"><ele>368.0</ele><time>2026-04-25T09:01:51.957Z</time></trkpt><trkpt lat="46.1125167" lon="12.2023267"><ele>367.0</ele><time>2026-04-25T09:01:52.958Z</time></trkpt><trkpt lat="46.1126833" lon="12.2024683"><ele>366.0</ele><time>2026-04-25T09:01:53.957Z</time></trkpt><trkpt lat="46.112845" lon="12.2026167"><ele>365.0</ele><time>2026-04-25T09:01:54.958Z</time></trkpt><trkpt lat="46.1129983" lon="12.2027667"><ele>365.0</ele><time>2026-04-25T09:01:55.957Z</time></trkpt><trkpt lat="46.1131583" lon="12.2029183"><ele>365.0</ele><time>2026-04-25T09:01:56.956Z</time></trkpt><trkpt lat="46.1133217" lon="12.2030683"><ele>365.0</ele><time>2026-04-25T09:01:57.957Z</time></trkpt><trkpt lat="46.113485" lon="12.2032217"><ele>363.6666666666667</ele><time>2026-04-25T09:01:58.957Z</time></trkpt><trkpt lat="46.1136483" lon="12.203375"><ele>362.3333333333333</ele><time>2026-04-25T09:01:59.957Z</time></trkpt><trkpt lat="46.1138117" lon="12.203525"><ele>361.0</ele><time>2026-04-25T09:02:00.957Z</time></trkpt><trkpt lat="46.1139767" lon="12.203675"><ele>358.0</ele><time>2026-04-25T09:02:01.957Z</time></trkpt><trkpt lat="46.1141417" lon="12.2038283"><ele>355.0</ele><time>2026-04-25T09:02:02.957Z</time></trkpt><trkpt lat="46.114305" lon="12.2039817"><ele>352.0</ele><time>2026-04-25T09:02:03.957Z</time></trkpt><trkpt lat="46.1144683" lon="12.204135"><ele>352.0</ele><time>2026-04-25T09:02:04.958Z</time></trkpt><trkpt lat="46.1146267" lon="12.2042883"><ele>352.0</ele><time>2026-04-25T09:02:05.957Z</time></trkpt><trkpt lat="46.114785" lon="12.2044417"><ele>352.0</ele><time>2026-04-25T09:02:06.957Z</time></trkpt><trkpt lat="46.1149483" lon="12.204595"><ele>350.0</ele><time>2026-04-25T09:02:07.958Z</time></trkpt><trkpt lat="46.1151133" lon="12.2047467"><ele>348.0</ele><time>2026-04-25T09:02:08.957Z</time></trkpt><trkpt lat="46.1152783" lon="12.2049017"><ele>346.0</ele><time>2026-04-25T09:02:09.957Z</time></trkpt><trkpt lat="46.11544" lon="12.2050517"><ele>346.0</ele><time>2026-04-25T09:02:10.958Z</time></trkpt><trkpt lat="46.1156033" lon="12.2052033"><ele>346.0</ele><time>2026-04-25T09:02:11.957Z</time></trkpt><trkpt lat="46.1157683" lon="12.2053567"><ele>346.0</ele><time>2026-04-25T09:02:12.957Z</time></trkpt><trkpt lat="46.1159283" lon="12.2055117"><ele>346.66666666666663</ele><time>2026-04-25T09:02:13.957Z</time></trkpt><trkpt lat="46.116085" lon="12.2056667"><ele>347.3333333333333</ele><time>2026-04-25T09:02:14.957Z</time></trkpt><trkpt lat="46.1162433" lon="12.2058083"><ele>348.0</ele><time>2026-04-25T09:02:15.957Z</time></trkpt><trkpt lat="46.1163917" lon="12.2059467"><ele>348.0</ele><time>2026-04-25T09:02:16.958Z</time></trkpt><trkpt lat="46.1165333" lon="12.2060833"><ele>348.0</ele><time>2026-04-25T09:02:17.956Z</time></trkpt><trkpt lat="46.1166767" lon="12.2062217"><ele>348.0</ele><time>2026-04-25T09:02:18.957Z</time></trkpt><trkpt lat="46.1168217" lon="12.2063517"><ele>347.3333333333333</ele><time>2026-04-25T09:02:19.957Z</time></trkpt><trkpt lat="46.1169633" lon="12.2064783"><ele>346.66666666666663</ele><time>2026-04-25T09:02:20.957Z</time></trkpt><trkpt lat="46.1171017" lon="12.2066"><ele>346.0</ele><time>2026-04-25T09:02:21.956Z</time></trkpt><trkpt lat="46.1172467" lon="12.2067167"><ele>346.0</ele><time>2026-04-25T09:02:22.958Z</time></trkpt><trkpt lat="46.1173933" lon="12.2068217"><ele>346.0</ele><time>2026-04-25T09:02:23.957Z</time></trkpt><trkpt lat="46.1175417" lon="12.2069167"><ele>346.0</ele><time>2026-04-25T09:02:24.957Z</time></trkpt><trkpt lat="46.11769" lon="12.2069933"><ele>346.25</ele><time>2026-04-25T09:02:25.957Z</time></trkpt><trkpt lat="46.1178417" lon="12.2070517"><ele>346.5</ele><time>2026-04-25T09:02:26.957Z</time></trkpt><trkpt lat="46.1179783" lon="12.2070817"><ele>346.75</ele><time>2026-04-25T09:02:27.957Z</time></trkpt><trkpt lat="46.1180967" lon="12.2070933"><ele>347.0</ele><time>2026-04-25T09:02:28.957Z</time></trkpt><trkpt lat="46.1182083" lon="12.2071017"><ele>346.6666666666667</ele><time>2026-04-25T09:02:29.957Z</time></trkpt><trkpt lat="46.11832" lon="12.2070933"><ele>346.33333333333337</ele><time>2026-04-25T09:02:30.957Z</time></trkpt><trkpt lat="46.1184083" lon="12.2070783"><ele>346.0</ele><time>2026-04-25T09:02:31.957Z</time></trkpt><trkpt lat="46.1184883" lon="12.2070767"><ele>345.6666666666667</ele><time>2026-04-25T09:02:32.958Z</time></trkpt><trkpt lat="46.11857" lon="12.2070633"><ele>345.3333333333333</ele><time>2026-04-25T09:02:33.957Z</time></trkpt><trkpt lat="46.118655" lon="12.2070583"><ele>345.0</ele><time>2026-04-25T09:02:34.956Z</time></trkpt><trkpt lat="46.1187417" lon="12.2070667"><ele>345.0</ele><time>2026-04-25T09:02:35.957Z</time></trkpt><trkpt lat="46.1188267" lon="12.2070883"><ele>345.0</ele><time>2026-04-25T09:02:36.957Z</time></trkpt><trkpt lat="46.1189133" lon="12.2071033"><ele>345.0</ele><time>2026-04-25T09:02:37.956Z</time></trkpt><trkpt lat="46.1190033" lon="12.2070967"><ele>345.0</ele><time>2026-04-25T09:02:38.958Z</time></trkpt><trkpt lat="46.119065" lon="12.207025"><ele>345.0</ele><time>2026-04-25T09:02:39.957Z</time></trkpt><trkpt lat="46.1191267" lon="12.2069467"><ele>345.0</ele><time>2026-04-25T09:02:40.957Z</time></trkpt><trkpt lat="46.1191783" lon="12.2068433"><ele>345.0</ele><time>2026-04-25T09:02:41.954Z</time></trkpt><trkpt lat="46.1192433" lon="12.206715"><ele>345.0</ele><time>2026-04-25T09:02:42.957Z</time></trkpt><trkpt lat="46.119315" lon="12.2065883"><ele>345.0</ele><time>2026-04-25T09:02:43.956Z</time></trkpt><trkpt lat="46.1193967" lon="12.2064733"><ele>345.0</ele><time>2026-04-25T09:02:44.954Z</time></trkpt><trkpt lat="46.1194783" lon="12.2063417"><ele>345.0</ele><time>2026-04-25T09:02:45.956Z</time></trkpt><trkpt lat="46.1195567" lon="12.20619"><ele>345.0</ele><time>2026-04-25T09:02:46.955Z</time></trkpt><trkpt lat="46.1196333" lon="12.2060367"><ele>345.0</ele><time>2026-04-25T09:02:47.954Z</time></trkpt><trkpt lat="46.1197117" lon="12.2058833"><ele>345.0</ele><time>2026-04-25T09:02:48.955Z</time></trkpt><trkpt lat="46.1197767" lon="12.20572"><ele>345.25</ele><time>2026-04-25T09:02:49.956Z</time></trkpt><trkpt lat="46.1198283" lon="12.2055417"><ele>345.5</ele><time>2026-04-25T09:02:50.955Z</time></trkpt><trkpt lat="46.1198833" lon="12.2053783"><ele>345.75</ele><time>2026-04-25T09:02:51.954Z</time></trkpt><trkpt lat="46.1199417" lon="12.2052283"><ele>346.0</ele><time>2026-04-25T09:02:52.955Z</time></trkpt><trkpt lat="46.1199967" lon="12.205085"><ele>346.0</ele><time>2026-04-25T09:02:53.955Z</time></trkpt><trkpt lat="46.1200633" lon="12.204945"><ele>346.0</ele><time>2026-04-25T09:02:54.955Z</time></trkpt><trkpt lat="46.120145" lon="12.2048333"><ele>346.0</ele><time>2026-04-25T09:02:55.956Z</time></trkpt><trkpt lat="46.1202317" lon="12.2047317"><ele>346.0</ele><time>2026-04-25T09:02:56.955Z</time></trkpt><trkpt lat="46.120325" lon="12.204645"><ele>345.75</ele><time>2026-04-25T09:02:57.96Z</time></trkpt><trkpt lat="46.1204367" lon="12.2045967"><ele>345.5</ele><time>2026-04-25T09:02:58.954Z</time></trkpt><trkpt lat="46.1205617" lon="12.2045833"><ele>345.25</ele><time>2026-04-25T09:02:59.954Z</time></trkpt><trkpt lat="46.1206967" lon="12.2045867"><ele>345.0</ele><time>2026-04-25T09:03:00.955Z</time></trkpt><trkpt lat="46.1208283" lon="12.2045967"><ele>346.5</ele><time>2026-04-25T09:03:01.955Z</time></trkpt><trkpt lat="46.1209633" lon="12.2046167"><ele>348.0</ele><time>2026-04-25T09:03:02.955Z</time></trkpt><trkpt lat="46.1210833" lon="12.2046633"><ele>349.5</ele><time>2026-04-25T09:03:03.955Z</time></trkpt><trkpt lat="46.1212" lon="12.2047117"><ele>351.0</ele><time>2026-04-25T09:03:04.957Z</time></trkpt><trkpt lat="46.12132" lon="12.2047683"><ele>351.0</ele><time>2026-04-25T09:03:05.955Z</time></trkpt><trkpt lat="46.121435" lon="12.20481"><ele>351.0</ele><time>2026-04-25T09:03:06.955Z</time></trkpt><trkpt lat="46.1215417" lon="12.204855"><ele>351.0</ele><time>2026-04-25T09:03:07.956Z</time></trkpt><trkpt lat="46.12163" lon="12.2048983"><ele>351.0</ele><time>2026-04-25T09:03:08.956Z</time></trkpt><trkpt lat="46.1217083" lon="12.204945"><ele>351.0</ele><time>2026-04-25T09:03:09.955Z</time></trkpt><trkpt lat="46.1217817" lon="12.2049817"><ele>351.8333333333333</ele><time>2026-04-25T09:03:10.956Z</time></trkpt><trkpt lat="46.12185" lon="12.2050183"><ele>352.6666666666667</ele><time>2026-04-25T09:03:11.954Z</time></trkpt><trkpt lat="46.1219367" lon="12.2050533"><ele>353.5</ele><time>2026-04-25T09:03:12.954Z</time></trkpt><trkpt lat="46.122025" lon="12.2050917"><ele>354.33333333333337</ele><time>2026-04-25T09:03:13.955Z</time></trkpt><trkpt lat="46.122115" lon="12.205135"><ele>355.1666666666667</ele><time>2026-04-25T09:03:14.954Z</time></trkpt><trkpt lat="46.1222067" lon="12.2051817"><ele>356.0</ele><time>2026-04-25T09:03:15.955Z</time></trkpt><trkpt lat="46.1223" lon="12.20523"><ele>356.0</ele><time>2026-04-25T09:03:16.956Z</time></trkpt><trkpt lat="46.122395" lon="12.205275"><ele>356.0</ele><time>2026-04-25T09:03:17.954Z</time></trkpt><trkpt lat="46.1224833" lon="12.2053133"><ele>356.0</ele><time>2026-04-25T09:03:18.955Z</time></trkpt><trkpt lat="46.1225633" lon="12.205355"><ele>356.0</ele><time>2026-04-25T09:03:19.956Z</time></trkpt><trkpt lat="46.122635" lon="12.2053933"><ele>356.0</ele><time>2026-04-25T09:03:20.954Z</time></trkpt><trkpt lat="46.1227033" lon="12.2054267"><ele>356.0</ele><time>2026-04-25T09:03:21.956Z</time></trkpt><trkpt lat="46.1227733" lon="12.2054583"><ele>356.1666666666667</ele><time>2026-04-25T09:03:22.956Z</time></trkpt><trkpt lat="46.1228433" lon="12.2054917"><ele>356.33333333333337</ele><time>2026-04-25T09:03:23.955Z</time></trkpt><trkpt lat="46.122915" lon="12.2055317"><ele>356.5</ele><time>2026-04-25T09:03:24.955Z</time></trkpt><trkpt lat="46.1229917" lon="12.2055717"><ele>356.6666666666667</ele><time>2026-04-25T09:03:25.955Z</time></trkpt><trkpt lat="46.1230617" lon="12.2056217"><ele>356.8333333333333</ele><time>2026-04-25T09:03:26.955Z</time></trkpt><trkpt lat="46.1231333" lon="12.2056733"><ele>357.0</ele><time>2026-04-25T09:03:27.956Z</time></trkpt><trkpt lat="46.1232117" lon="12.2057217"><ele>357.8333333333333</ele><time>2026-04-25T09:03:28.954Z</time></trkpt><trkpt lat="46.1232883" lon="12.2057667"><ele>358.6666666666667</ele><time>2026-04-25T09:03:29.953Z</time></trkpt><trkpt lat="46.1233633" lon="12.20581"><ele>359.5</ele><time>2026-04-25T09:03:30.955Z</time></trkpt><trkpt lat="46.12344" lon="12.205855"><ele>360.33333333333337</ele><time>2026-04-25T09:03:31.955Z</time></trkpt><trkpt lat="46.12352" lon="12.2059017"><ele>361.1666666666667</ele><time>2026-04-25T09:03:32.955Z</time></trkpt><trkpt lat="46.1235967" lon="12.20595"><ele>362.0</ele><time>2026-04-25T09:03:33.955Z</time></trkpt><trkpt lat="46.1236767" lon="12.2060033"><ele>362.0</ele><time>2026-04-25T09:03:34.956Z</time></trkpt><trkpt lat="46.1237617" lon="12.20606"><ele>362.0</ele><time>2026-04-25T09:03:35.955Z</time></trkpt><trkpt lat="46.12385" lon="12.2061217"><ele>362.0</ele><time>2026-04-25T09:03:36.955Z</time></trkpt><trkpt lat="46.1239417" lon="12.2061883"><ele>362.0</ele><time>2026-04-25T09:03:37.956Z</time></trkpt><trkpt lat="46.12403" lon="12.206255"><ele>362.0</ele><time>2026-04-25T09:03:38.954Z</time></trkpt><trkpt lat="46.124115" lon="12.2063183"><ele>361.0</ele><time>2026-04-25T09:03:39.955Z</time></trkpt><trkpt lat="46.1242" lon="12.2063867"><ele>360.0</ele><time>2026-04-25T09:03:40.956Z</time></trkpt><trkpt lat="46.1242783" lon="12.2064533"><ele>359.0</ele><time>2026-04-25T09:03:41.954Z</time></trkpt><trkpt lat="46.1243583" lon="12.20652"><ele>358.0</ele><time>2026-04-25T09:03:42.955Z</time></trkpt><trkpt lat="46.1244367" lon="12.20659"><ele>357.0</ele><time>2026-04-25T09:03:43.957Z</time></trkpt><trkpt lat="46.1245167" lon="12.2066667"><ele>357.0</ele><time>2026-04-25T09:03:44.956Z</time></trkpt><trkpt lat="46.1246017" lon="12.2067317"><ele>357.0</ele><time>2026-04-25T09:03:45.954Z</time></trkpt><trkpt lat="46.1246867" lon="12.2068067"><ele>357.0</ele><time>2026-04-25T09:03:46.955Z</time></trkpt><trkpt lat="46.1247767" lon="12.20688"><ele>357.0</ele><time>2026-04-25T09:03:47.956Z</time></trkpt><trkpt lat="46.1248583" lon="12.20696"><ele>357.0</ele><time>2026-04-25T09:03:48.955Z</time></trkpt><trkpt lat="46.1249317" lon="12.2070333"><ele>357.0</ele><time>2026-04-25T09:03:49.954Z</time></trkpt><trkpt lat="46.1249967" lon="12.2071033"><ele>357.0</ele><time>2026-04-25T09:03:50.954Z</time></trkpt><trkpt lat="46.125065" lon="12.2071733"><ele>357.0</ele><time>2026-04-25T09:03:51.956Z</time></trkpt><trkpt lat="46.1251317" lon="12.2072467"><ele>357.0</ele><time>2026-04-25T09:03:52.957Z</time></trkpt><trkpt lat="46.1252017" lon="12.20732"><ele>357.0</ele><time>2026-04-25T09:03:53.953Z</time></trkpt><trkpt lat="46.1252767" lon="12.2074"><ele>357.0</ele><time>2026-04-25T09:03:54.955Z</time></trkpt><trkpt lat="46.1253483" lon="12.2074833"><ele>357.0</ele><time>2026-04-25T09:03:55.955Z</time></trkpt><trkpt lat="46.1254117" lon="12.2075733"><ele>357.0</ele><time>2026-04-25T09:03:56.954Z</time></trkpt><trkpt lat="46.125475" lon="12.20766"><ele>357.0</ele><time>2026-04-25T09:03:57.957Z</time></trkpt><trkpt lat="46.1255383" lon="12.2077383"><ele>357.0</ele><time>2026-04-25T09:03:58.954Z</time></trkpt><trkpt lat="46.1255983" lon="12.2078217"><ele>357.0</ele><time>2026-04-25T09:03:59.956Z</time></trkpt><trkpt lat="46.1256617" lon="12.207905"><ele>357.0</ele><time>2026-04-25T09:04:00.955Z</time></trkpt><trkpt lat="46.1257183" lon="12.20799"><ele>357.3333333333333</ele><time>2026-04-25T09:04:01.954Z</time></trkpt><trkpt lat="46.125775" lon="12.208075"><ele>357.6666666666667</ele><time>2026-04-25T09:04:02.954Z</time></trkpt><trkpt lat="46.1258333" lon="12.208155"><ele>358.0</ele><time>2026-04-25T09:04:03.954Z</time></trkpt><trkpt lat="46.12589" lon="12.208235"><ele>358.33333333333337</ele><time>2026-04-25T09:04:04.955Z</time></trkpt><trkpt lat="46.1259467" lon="12.20832"><ele>358.6666666666667</ele><time>2026-04-25T09:04:05.953Z</time></trkpt><trkpt lat="46.1260033" lon="12.2084067"><ele>359.0</ele><time>2026-04-25T09:04:06.955Z</time></trkpt><trkpt lat="46.126065" lon="12.2084967"><ele>359.2</ele><time>2026-04-25T09:04:07.955Z</time></trkpt><trkpt lat="46.1261283" lon="12.2085883"><ele>359.4</ele><time>2026-04-25T09:04:08.954Z</time></trkpt><trkpt lat="46.126195" lon="12.2086883"><ele>359.6</ele><time>2026-04-25T09:04:09.954Z</time></trkpt><trkpt lat="46.12626" lon="12.208795"><ele>359.8</ele><time>2026-04-25T09:04:10.955Z</time></trkpt><trkpt lat="46.12633" lon="12.2089083"><ele>360.0</ele><time>2026-04-25T09:04:11.955Z</time></trkpt><trkpt lat="46.1263983" lon="12.2090233"><ele>359.6</ele><time>2026-04-25T09:04:12.955Z</time></trkpt><trkpt lat="46.1264717" lon="12.2091417"><ele>359.2</ele><time>2026-04-25T09:04:13.954Z</time></trkpt><trkpt lat="46.12654" lon="12.20926"><ele>358.79999999999995</ele><time>2026-04-25T09:04:14.957Z</time></trkpt><trkpt lat="46.1266083" lon="12.2093783"><ele>358.4</ele><time>2026-04-25T09:04:15.955Z</time></trkpt><trkpt lat="46.126675" lon="12.2094983"><ele>358.0</ele><time>2026-04-25T09:04:16.956Z</time></trkpt><trkpt lat="46.1267417" lon="12.20962"><ele>357.59999999999997</ele><time>2026-04-25T09:04:17.955Z</time></trkpt><trkpt lat="46.1268083" lon="12.2097433"><ele>357.2</ele><time>2026-04-25T09:04:18.955Z</time></trkpt><trkpt lat="46.1268767" lon="12.2098617"><ele>356.8</ele><time>2026-04-25T09:04:19.956Z</time></trkpt><trkpt lat="46.1269383" lon="12.2099767"><ele>356.4</ele><time>2026-04-25T09:04:20.955Z</time></trkpt><trkpt lat="46.1269983" lon="12.2100983"><ele>356.0</ele><time>2026-04-25T09:04:21.954Z</time></trkpt><trkpt lat="46.1270667" lon="12.2102217"><ele>356.0</ele><time>2026-04-25T09:04:22.956Z</time></trkpt><trkpt lat="46.1271383" lon="12.2103633"><ele>356.0</ele><time>2026-04-25T09:04:23.954Z</time></trkpt><trkpt lat="46.1272133" lon="12.2105267"><ele>356.0</ele><time>2026-04-25T09:04:24.956Z</time></trkpt><trkpt lat="46.1272917" lon="12.2106933"><ele>356.0</ele><time>2026-04-25T09:04:25.955Z</time></trkpt><trkpt lat="46.127365" lon="12.21088"><ele>354.75</ele><time>2026-04-25T09:04:26.955Z</time></trkpt><trkpt lat="46.1274217" lon="12.2110783"><ele>353.5</ele><time>2026-04-25T09:04:27.955Z</time></trkpt><trkpt lat="46.1274767" lon="12.2112767"><ele>352.25</ele><time>2026-04-25T09:04:28.955Z</time></trkpt><trkpt lat="46.1275383" lon="12.2114633"><ele>351.0</ele><time>2026-04-25T09:04:29.953Z</time></trkpt><trkpt lat="46.1275983" lon="12.2116483"><ele>351.0</ele><time>2026-04-25T09:04:30.956Z</time></trkpt><trkpt lat="46.1276617" lon="12.2118283"><ele>351.0</ele><time>2026-04-25T09:04:31.954Z</time></trkpt><trkpt lat="46.1277267" lon="12.212005"><ele>351.0</ele><time>2026-04-25T09:04:32.955Z</time></trkpt><trkpt lat="46.1278017" lon="12.2121767"><ele>351.0</ele><time>2026-04-25T09:04:33.955Z</time></trkpt><trkpt lat="46.12789" lon="12.2123317"><ele>351.5</ele><time>2026-04-25T09:04:34.955Z</time></trkpt><trkpt lat="46.1279783" lon="12.21247"><ele>352.0</ele><time>2026-04-25T09:04:35.955Z</time></trkpt><trkpt lat="46.1280683" lon="12.2126017"><ele>352.5</ele><time>2026-04-25T09:04:36.955Z</time></trkpt><trkpt lat="46.1281667" lon="12.2127217"><ele>353.0</ele><time>2026-04-25T09:04:37.955Z</time></trkpt><trkpt lat="46.1282767" lon="12.212825"><ele>351.5</ele><time>2026-04-25T09:04:38.956Z</time></trkpt><trkpt lat="46.12839" lon="12.21291"><ele>350.0</ele><time>2026-04-25T09:04:39.956Z</time></trkpt><trkpt lat="46.1285117" lon="12.2129917"><ele>348.5</ele><time>2026-04-25T09:04:40.954Z</time></trkpt><trkpt lat="46.1286483" lon="12.2130217"><ele>347.0</ele><time>2026-04-25T09:04:41.953Z</time></trkpt><trkpt lat="46.1287883" lon="12.2130367"><ele>347.0</ele><time>2026-04-25T09:04:42.955Z</time></trkpt><trkpt lat="46.12892" lon="12.2130517"><ele>347.0</ele><time>2026-04-25T09:04:43.955Z</time></trkpt><trkpt lat="46.12906" lon="12.21307"><ele>347.0</ele><time>2026-04-25T09:04:44.954Z</time></trkpt><trkpt lat="46.1292033" lon="12.213085"><ele>347.0</ele><time>2026-04-25T09:04:45.955Z</time></trkpt><trkpt lat="46.1293533" lon="12.2130967"><ele>347.5</ele><time>2026-04-25T09:04:46.955Z</time></trkpt><trkpt lat="46.129495" lon="12.2131017"><ele>348.0</ele><time>2026-04-25T09:04:47.954Z</time></trkpt><trkpt lat="46.129635" lon="12.2131117"><ele>348.5</ele><time>2026-04-25T09:04:48.955Z</time></trkpt><trkpt lat="46.1297633" lon="12.213125"><ele>349.0</ele><time>2026-04-25T09:04:49.955Z</time></trkpt><trkpt lat="46.1298933" lon="12.2131417"><ele>348.5</ele><time>2026-04-25T09:04:50.954Z</time></trkpt><trkpt lat="46.1300167" lon="12.2131667"><ele>348.0</ele><time>2026-04-25T09:04:51.955Z</time></trkpt><trkpt lat="46.1301367" lon="12.2131933"><ele>347.5</ele><time>2026-04-25T09:04:52.955Z</time></trkpt><trkpt lat="46.1302567" lon="12.21323"><ele>347.0</ele><time>2026-04-25T09:04:53.955Z</time></trkpt><trkpt lat="46.13037" lon="12.2132833"><ele>347.0</ele><time>2026-04-25T09:04:54.955Z</time></trkpt><trkpt lat="46.130485" lon="12.213345"><ele>347.0</ele><time>2026-04-25T09:04:55.956Z</time></trkpt><trkpt lat="46.130595" lon="12.2134067"><ele>347.0</ele><time>2026-04-25T09:04:56.955Z</time></trkpt><trkpt lat="46.1307067" lon="12.2134733"><ele>347.0</ele><time>2026-04-25T09:04:57.955Z</time></trkpt><trkpt lat="46.1308167" lon="12.2135383"><ele>347.5</ele><time>2026-04-25T09:04:58.955Z</time></trkpt><trkpt lat="46.1309233" lon="12.2136033"><ele>348.0</ele><time>2026-04-25T09:04:59.955Z</time></trkpt><trkpt lat="46.1310333" lon="12.2136683"><ele>348.5</ele><time>2026-04-25T09:05:00.955Z</time></trkpt><trkpt lat="46.13114" lon="12.213735"><ele>349.0</ele><time>2026-04-25T09:05:01.956Z</time></trkpt><trkpt lat="46.13124" lon="12.2138133"><ele>349.0</ele><time>2026-04-25T09:05:02.954Z</time></trkpt><trkpt lat="46.1313233" lon="12.213895"><ele>349.0</ele><time>2026-04-25T09:05:03.955Z</time></trkpt><trkpt lat="46.1314" lon="12.2139917"><ele>349.0</ele><time>2026-04-25T09:05:04.955Z</time></trkpt><trkpt lat="46.1314683" lon="12.2140967"><ele>349.0</ele><time>2026-04-25T09:05:05.955Z</time></trkpt><trkpt lat="46.1315283" lon="12.2142083"><ele>349.0</ele><time>2026-04-25T09:05:06.955Z</time></trkpt><trkpt lat="46.1315833" lon="12.2143233"><ele>349.0</ele><time>2026-04-25T09:05:07.955Z</time></trkpt><trkpt lat="46.1316383" lon="12.2144383"><ele>349.0</ele><time>2026-04-25T09:05:08.955Z</time></trkpt><trkpt lat="46.1316967" lon="12.21456"><ele>349.0</ele><time>2026-04-25T09:05:09.955Z</time></trkpt><trkpt lat="46.131755" lon="12.2146833"><ele>349.0</ele><time>2026-04-25T09:05:10.957Z</time></trkpt><trkpt lat="46.1318133" lon="12.21481"><ele>349.0</ele><time>2026-04-25T09:05:11.956Z</time></trkpt><trkpt lat="46.1318717" lon="12.2149383"><ele>349.79999999999995</ele><time>2026-04-25T09:05:12.955Z</time></trkpt><trkpt lat="46.1319317" lon="12.2150683"><ele>350.59999999999997</ele><time>2026-04-25T09:05:13.955Z</time></trkpt><trkpt lat="46.1319933" lon="12.2151867"><ele>351.4</ele><time>2026-04-25T09:05:14.954Z</time></trkpt><trkpt lat="46.1320533" lon="12.2153017"><ele>352.2</ele><time>2026-04-25T09:05:15.955Z</time></trkpt><trkpt lat="46.1321133" lon="12.2154217"><ele>353.0</ele><time>2026-04-25T09:05:16.956Z</time></trkpt><trkpt lat="46.1321717" lon="12.2155533"><ele>352.59999999999997</ele><time>2026-04-25T09:05:17.955Z</time></trkpt><trkpt lat="46.13223" lon="12.21568"><ele>352.2</ele><time>2026-04-25T09:05:18.955Z</time></trkpt><trkpt lat="46.1322833" lon="12.2158017"><ele>351.8</ele><time>2026-04-25T09:05:19.956Z</time></trkpt><trkpt lat="46.1323367" lon="12.2159183"><ele>351.4</ele><time>2026-04-25T09:05:20.955Z</time></trkpt><trkpt lat="46.1323867" lon="12.21603"><ele>351.0</ele><time>2026-04-25T09:05:21.956Z</time></trkpt><trkpt lat="46.13244" lon="12.2161383"><ele>351.0</ele><time>2026-04-25T09:05:22.956Z</time></trkpt><trkpt lat="46.13249" lon="12.21624"><ele>351.0</ele><time>2026-04-25T09:05:23.957Z</time></trkpt><trkpt lat="46.1325383" lon="12.2163317"><ele>351.0</ele><time>2026-04-25T09:05:24.954Z</time></trkpt><trkpt lat="46.1325867" lon="12.2164267"><ele>351.0</ele><time>2026-04-25T09:05:25.955Z</time></trkpt><trkpt lat="46.132635" lon="12.2165133"><ele>351.0</ele><time>2026-04-25T09:05:26.955Z</time></trkpt><trkpt lat="46.1326833" lon="12.2166017"><ele>351.0</ele><time>2026-04-25T09:05:27.955Z</time></trkpt><trkpt lat="46.132735" lon="12.2166767"><ele>351.1666666666667</ele><time>2026-04-25T09:05:28.955Z</time></trkpt><trkpt lat="46.1327833" lon="12.21675"><ele>351.3333333333333</ele><time>2026-04-25T09:05:29.954Z</time></trkpt><trkpt lat="46.1328333" lon="12.2168217"><ele>351.5</ele><time>2026-04-25T09:05:30.955Z</time></trkpt><trkpt lat="46.1329233" lon="12.21692"><ele>351.66666666666663</ele><time>2026-04-25T09:05:32.953Z</time></trkpt><trkpt lat="46.1329667" lon="12.21699"><ele>351.8333333333333</ele><time>2026-04-25T09:05:34.956Z</time></trkpt><trkpt lat="46.1330133" lon="12.2170917"><ele>352.0</ele><time>2026-04-25T09:05:41.955Z</time></trkpt><trkpt lat="46.1330667" lon="12.2171617"><ele>352.0</ele><time>2026-04-25T09:05:43.955Z</time></trkpt><trkpt lat="46.1331283" lon="12.2172133"><ele>352.0</ele><time>2026-04-25T09:05:45.956Z</time></trkpt><trkpt lat="46.1332067" lon="12.2172617"><ele>352.0</ele><time>2026-04-25T09:05:47.955Z</time></trkpt><trkpt lat="46.1333133" lon="12.2172917"><ele>352.0</ele><time>2026-04-25T09:05:49.956Z</time></trkpt><trkpt lat="46.1334083" lon="12.2172733"><ele>352.0</ele><time>2026-04-25T09:05:51.954Z</time></trkpt><trkpt lat="46.1334933" lon="12.217235"><ele>350.6</ele><time>2026-04-25T09:05:53.955Z</time></trkpt><trkpt lat="46.13357" lon="12.21722"><ele>349.20000000000005</ele><time>2026-04-25T09:05:55.955Z</time></trkpt><trkpt lat="46.1336617" lon="12.2172317"><ele>347.8</ele><time>2026-04-25T09:05:58.956Z</time></trkpt><trkpt lat="46.1337433" lon="12.217235"><ele>346.4</ele><time>2026-04-25T09:06:01.954Z</time></trkpt><trkpt lat="46.1338383" lon="12.2172033"><ele>345.0</ele><time>2026-04-25T09:06:04.955Z</time></trkpt><trkpt lat="46.1339433" lon="12.217165"><ele>345.0</ele><time>2026-04-25T09:06:06.955Z</time></trkpt><trkpt lat="46.1340117" lon="12.2171317"><ele>345.0</ele><time>2026-04-25T09:06:07.954Z</time></trkpt><trkpt lat="46.1340817" lon="12.217085"><ele>345.0</ele><time>2026-04-25T09:06:08.955Z</time></trkpt><trkpt lat="46.1341533" lon="12.2170183"><ele>345.0</ele><time>2026-04-25T09:06:09.956Z</time></trkpt><trkpt lat="46.13423" lon="12.2169383"><ele>345.0</ele><time>2026-04-25T09:06:10.956Z</time></trkpt><trkpt lat="46.1343033" lon="12.2168317"><ele>345.0</ele><time>2026-04-25T09:06:11.955Z</time></trkpt><trkpt lat="46.134365" lon="12.2167117"><ele>343.8</ele><time>2026-04-25T09:06:12.955Z</time></trkpt><trkpt lat="46.134415" lon="12.2165867"><ele>342.6</ele><time>2026-04-25T09:06:13.957Z</time></trkpt><trkpt lat="46.134465" lon="12.216465"><ele>341.4</ele><time>2026-04-25T09:06:14.955Z</time></trkpt><trkpt lat="46.13452" lon="12.2163517"><ele>340.2</ele><time>2026-04-25T09:06:15.956Z</time></trkpt><trkpt lat="46.13458" lon="12.2162617"><ele>339.0</ele><time>2026-04-25T09:06:16.956Z</time></trkpt><trkpt lat="46.13465" lon="12.2162"><ele>339.0</ele><time>2026-04-25T09:06:17.955Z</time></trkpt><trkpt lat="46.1347267" lon="12.21617"><ele>339.0</ele><time>2026-04-25T09:06:18.954Z</time></trkpt><trkpt lat="46.1348117" lon="12.2161733"><ele>339.0</ele><time>2026-04-25T09:06:19.956Z</time></trkpt><trkpt lat="46.134895" lon="12.2162033"><ele>339.0</ele><time>2026-04-25T09:06:20.956Z</time></trkpt><trkpt lat="46.1349717" lon="12.2162617"><ele>339.0</ele><time>2026-04-25T09:06:21.957Z</time></trkpt><trkpt lat="46.13504" lon="12.2163367"><ele>339.0</ele><time>2026-04-25T09:06:22.957Z</time></trkpt><trkpt lat="46.1351117" lon="12.2164167"><ele>337.2</ele><time>2026-04-25T09:06:23.955Z</time></trkpt><trkpt lat="46.1351867" lon="12.216495"><ele>335.4</ele><time>2026-04-25T09:06:24.955Z</time></trkpt><trkpt lat="46.135265" lon="12.2165717"><ele>333.6</ele><time>2026-04-25T09:06:25.956Z</time></trkpt><trkpt lat="46.1353417" lon="12.21665"><ele>331.8</ele><time>2026-04-25T09:06:26.955Z</time></trkpt><trkpt lat="46.1354183" lon="12.2167233"><ele>330.0</ele><time>2026-04-25T09:06:27.953Z</time></trkpt><trkpt lat="46.1354867" lon="12.2167917"><ele>330.0</ele><time>2026-04-25T09:06:28.955Z</time></trkpt><trkpt lat="46.1355483" lon="12.2168533"><ele>330.0</ele><time>2026-04-25T09:06:29.956Z</time></trkpt><trkpt lat="46.135605" lon="12.21691"><ele>330.0</ele><time>2026-04-25T09:06:30.956Z</time></trkpt><trkpt lat="46.1356933" lon="12.217"><ele>330.0</ele><time>2026-04-25T09:06:32.954Z</time></trkpt><trkpt lat="46.1357467" lon="12.2170717"><ele>330.0</ele><time>2026-04-25T09:06:35.956Z</time></trkpt><trkpt lat="46.1358" lon="12.2172067"><ele>330.0</ele><time>2026-04-25T09:06:38.955Z</time></trkpt><trkpt lat="46.1358733" lon="12.21732"><ele>329.8</ele><time>2026-04-25T09:06:40.955Z</time></trkpt><trkpt lat="46.13596" lon="12.2173383"><ele>329.6</ele><time>2026-04-25T09:06:42.956Z</time></trkpt><trkpt lat="46.1360417" lon="12.2172683"><ele>329.4</ele><time>2026-04-25T09:06:44.956Z</time></trkpt><trkpt lat="46.13606" lon="12.2171367"><ele>329.2</ele><time>2026-04-25T09:06:46.955Z</time></trkpt><trkpt lat="46.1360717" lon="12.216975"><ele>329.0</ele><time>2026-04-25T09:06:48.956Z</time></trkpt><trkpt lat="46.13608" lon="12.2168817"><ele>329.0</ele><time>2026-04-25T09:06:49.956Z</time></trkpt><trkpt lat="46.136095" lon="12.2167917"><ele>329.0</ele><time>2026-04-25T09:06:50.954Z</time></trkpt><trkpt lat="46.1361167" lon="12.2167017"><ele>329.0</ele><time>2026-04-25T09:06:51.957Z</time></trkpt><trkpt lat="46.1361417" lon="12.2166133"><ele>329.0</ele><time>2026-04-25T09:06:52.956Z</time></trkpt><trkpt lat="46.1361917" lon="12.2164633"><ele>329.0</ele><time>2026-04-25T09:06:54.955Z</time></trkpt><trkpt lat="46.1362333" lon="12.2163283"><ele>329.0</ele><time>2026-04-25T09:06:56.954Z</time></trkpt><trkpt lat="46.1362733" lon="12.2162083"><ele>329.0</ele><time>2026-04-25T09:06:58.956Z</time></trkpt><trkpt lat="46.1363283" lon="12.2160567"><ele>329.0</ele><time>2026-04-25T09:07:00.955Z</time></trkpt><trkpt lat="46.1363583" lon="12.2159683"><ele>329.0</ele><time>2026-04-25T09:07:01.955Z</time></trkpt><trkpt lat="46.1363883" lon="12.215875"><ele>329.0</ele><time>2026-04-25T09:07:02.956Z</time></trkpt><trkpt lat="46.1364167" lon="12.2157783"><ele>329.0</ele><time>2026-04-25T09:07:03.955Z</time></trkpt><trkpt lat="46.136445" lon="12.2156817"><ele>329.0</ele><time>2026-04-25T09:07:04.956Z</time></trkpt><trkpt lat="46.136475" lon="12.2155867"><ele>329.0</ele><time>2026-04-25T09:07:05.956Z</time></trkpt><trkpt lat="46.13651" lon="12.2154867"><ele>329.0</ele><time>2026-04-25T09:07:06.954Z</time></trkpt><trkpt lat="46.1365433" lon="12.2153817"><ele>329.0</ele><time>2026-04-25T09:07:07.954Z</time></trkpt><trkpt lat="46.1365783" lon="12.2152683"><ele>329.0</ele><time>2026-04-25T09:07:08.955Z</time></trkpt><trkpt lat="46.1366167" lon="12.2151583"><ele>329.0</ele><time>2026-04-25T09:07:09.956Z</time></trkpt><trkpt lat="46.1366567" lon="12.21504"><ele>329.0</ele><time>2026-04-25T09:07:10.955Z</time></trkpt><trkpt lat="46.1366967" lon="12.2149167"><ele>329.1666666666667</ele><time>2026-04-25T09:07:11.954Z</time></trkpt><trkpt lat="46.13674" lon="12.2148067"><ele>329.33333333333337</ele><time>2026-04-25T09:07:12.954Z</time></trkpt><trkpt lat="46.13679" lon="12.2146933"><ele>329.5</ele><time>2026-04-25T09:07:13.96Z</time></trkpt><trkpt lat="46.13684" lon="12.2145817"><ele>329.6666666666667</ele><time>2026-04-25T09:07:14.955Z</time></trkpt><trkpt lat="46.136885" lon="12.2144667"><ele>329.8333333333333</ele><time>2026-04-25T09:07:15.955Z</time></trkpt><trkpt lat="46.1369267" lon="12.2143667"><ele>330.0</ele><time>2026-04-25T09:07:16.956Z</time></trkpt><trkpt lat="46.1369617" lon="12.214265"><ele>330.0</ele><time>2026-04-25T09:07:17.956Z</time></trkpt><trkpt lat="46.1369983" lon="12.2141767"><ele>330.0</ele><time>2026-04-25T09:07:18.956Z</time></trkpt><trkpt lat="46.1370667" lon="12.2140183"><ele>330.0</ele><time>2026-04-25T09:07:20.955Z</time></trkpt><trkpt lat="46.1370967" lon="12.2139233"><ele>330.0</ele><time>2026-04-25T09:07:21.955Z</time></trkpt><trkpt lat="46.1371267" lon="12.21382"><ele>330.0</ele><time>2026-04-25T09:07:22.957Z</time></trkpt><trkpt lat="46.1371533" lon="12.2137167"><ele>330.0</ele><time>2026-04-25T09:07:23.955Z</time></trkpt><trkpt lat="46.1371817" lon="12.21361"><ele>330.1666666666667</ele><time>2026-04-25T09:07:24.955Z</time></trkpt><trkpt lat="46.13721" lon="12.2135067"><ele>330.3333333333333</ele><time>2026-04-25T09:07:25.955Z</time></trkpt><trkpt lat="46.1372417" lon="12.2133967"><ele>330.5</ele><time>2026-04-25T09:07:26.954Z</time></trkpt><trkpt lat="46.137265" lon="12.2132817"><ele>330.66666666666663</ele><time>2026-04-25T09:07:27.956Z</time></trkpt><trkpt lat="46.1372867" lon="12.213165"><ele>330.8333333333333</ele><time>2026-04-25T09:07:28.956Z</time></trkpt><trkpt lat="46.1373083" lon="12.2130467"><ele>331.0</ele><time>2026-04-25T09:07:29.955Z</time></trkpt><trkpt lat="46.13733" lon="12.2129267"><ele>331.16666666666663</ele><time>2026-04-25T09:07:30.956Z</time></trkpt><trkpt lat="46.1373533" lon="12.212805"><ele>331.3333333333333</ele><time>2026-04-25T09:07:31.956Z</time></trkpt><trkpt lat="46.1373733" lon="12.2126783"><ele>331.5</ele><time>2026-04-25T09:07:32.954Z</time></trkpt><trkpt lat="46.1373917" lon="12.2125483"><ele>331.6666666666667</ele><time>2026-04-25T09:07:33.955Z</time></trkpt><trkpt lat="46.13741" lon="12.2124233"><ele>331.83333333333337</ele><time>2026-04-25T09:07:34.956Z</time></trkpt><trkpt lat="46.13743" lon="12.2123"><ele>332.0</ele><time>2026-04-25T09:07:35.955Z</time></trkpt><trkpt lat="46.137445" lon="12.2121783"><ele>332.5</ele><time>2026-04-25T09:07:36.955Z</time></trkpt><trkpt lat="46.137465" lon="12.212065"><ele>333.0</ele><time>2026-04-25T09:07:37.956Z</time></trkpt><trkpt lat="46.1374883" lon="12.2119583"><ele>333.5</ele><time>2026-04-25T09:07:38.957Z</time></trkpt><trkpt lat="46.1375133" lon="12.211855"><ele>334.0</ele><time>2026-04-25T09:07:39.955Z</time></trkpt><trkpt lat="46.1375433" lon="12.2117517"><ele>334.5</ele><time>2026-04-25T09:07:40.955Z</time></trkpt><trkpt lat="46.1375733" lon="12.2116533"><ele>335.0</ele><time>2026-04-25T09:07:41.954Z</time></trkpt><trkpt lat="46.1376183" lon="12.2115517"><ele>335.33333333333337</ele><time>2026-04-25T09:07:42.955Z</time></trkpt><trkpt lat="46.137675" lon="12.211455"><ele>335.6666666666667</ele><time>2026-04-25T09:07:43.956Z</time></trkpt><trkpt lat="46.13773" lon="12.2113667"><ele>336.0</ele><time>2026-04-25T09:07:44.956Z</time></trkpt><trkpt lat="46.1377883" lon="12.21128"><ele>336.3333333333333</ele><time>2026-04-25T09:07:45.956Z</time></trkpt><trkpt lat="46.137845" lon="12.2111967"><ele>336.66666666666663</ele><time>2026-04-25T09:07:46.956Z</time></trkpt><trkpt lat="46.1378967" lon="12.2111067"><ele>337.0</ele><time>2026-04-25T09:07:47.955Z</time></trkpt><trkpt lat="46.1379417" lon="12.2110133"><ele>337.0</ele><time>2026-04-25T09:07:48.956Z</time></trkpt><trkpt lat="46.1379767" lon="12.2109083"><ele>337.0</ele><time>2026-04-25T09:07:49.955Z</time></trkpt><trkpt lat="46.1379883" lon="12.21079"><ele>337.0</ele><time>2026-04-25T09:07:50.955Z</time></trkpt><trkpt lat="46.13799" lon="12.2106633"><ele>337.0</ele><time>2026-04-25T09:07:51.955Z</time></trkpt><trkpt lat="46.1379783" lon="12.2105367"><ele>337.0</ele><time>2026-04-25T09:07:52.957Z</time></trkpt><trkpt lat="46.1379433" lon="12.2103967"><ele>337.0</ele><time>2026-04-25T09:07:53.955Z</time></trkpt><trkpt lat="46.1378933" lon="12.2102517"><ele>337.75</ele><time>2026-04-25T09:07:54.955Z</time></trkpt><trkpt lat="46.1378333" lon="12.21011"><ele>338.5</ele><time>2026-04-25T09:07:55.956Z</time></trkpt><trkpt lat="46.1377717" lon="12.209965"><ele>339.25</ele><time>2026-04-25T09:07:56.955Z</time></trkpt><trkpt lat="46.1377067" lon="12.20981"><ele>340.0</ele><time>2026-04-25T09:07:57.956Z</time></trkpt><trkpt lat="46.1376383" lon="12.2096483"><ele>341.0</ele><time>2026-04-25T09:07:58.956Z</time></trkpt><trkpt lat="46.13757" lon="12.20948"><ele>342.0</ele><time>2026-04-25T09:07:59.955Z</time></trkpt><trkpt lat="46.1375" lon="12.2093133"><ele>343.0</ele><time>2026-04-25T09:08:00.956Z</time></trkpt><trkpt lat="46.1374233" lon="12.2091333"><ele>344.0</ele><time>2026-04-25T09:08:01.956Z</time></trkpt><trkpt lat="46.1373483" lon="12.2089533"><ele>344.0</ele><time>2026-04-25T09:08:02.956Z</time></trkpt><trkpt lat="46.1372733" lon="12.20877"><ele>344.0</ele><time>2026-04-25T09:08:03.955Z</time></trkpt><trkpt lat="46.1371967" lon="12.2085833"><ele>344.0</ele><time>2026-04-25T09:08:04.956Z</time></trkpt><trkpt lat="46.13712" lon="12.208395"><ele>344.0</ele><time>2026-04-25T09:08:05.957Z</time></trkpt><trkpt lat="46.137045" lon="12.2082017"><ele>345.33333333333337</ele><time>2026-04-25T09:08:06.956Z</time></trkpt><trkpt lat="46.136965" lon="12.2080067"><ele>346.6666666666667</ele><time>2026-04-25T09:08:07.956Z</time></trkpt><trkpt lat="46.1368883" lon="12.2078117"><ele>348.0</ele><time>2026-04-25T09:08:08.956Z</time></trkpt><trkpt lat="46.13681" lon="12.2076117"><ele>348.0</ele><time>2026-04-25T09:08:09.956Z</time></trkpt><trkpt lat="46.1367267" lon="12.2074167"><ele>348.0</ele><time>2026-04-25T09:08:10.956Z</time></trkpt><trkpt lat="46.136635" lon="12.20723"><ele>348.0</ele><time>2026-04-25T09:08:11.956Z</time></trkpt><trkpt lat="46.1365317" lon="12.2070583"><ele>350.6666666666667</ele><time>2026-04-25T09:08:12.956Z</time></trkpt><trkpt lat="46.1364183" lon="12.206905"><ele>353.33333333333337</ele><time>2026-04-25T09:08:13.955Z</time></trkpt><trkpt lat="46.1362883" lon="12.2067783"><ele>356.0</ele><time>2026-04-25T09:08:14.955Z</time></trkpt><trkpt lat="46.1361467" lon="12.20667"><ele>356.0</ele><time>2026-04-25T09:08:15.957Z</time></trkpt><trkpt lat="46.1359983" lon="12.2065817"><ele>356.0</ele><time>2026-04-25T09:08:16.956Z</time></trkpt><trkpt lat="46.1358383" lon="12.2065167"><ele>356.0</ele><time>2026-04-25T09:08:17.955Z</time></trkpt><trkpt lat="46.1356717" lon="12.2064717"><ele>361.33333333333337</ele><time>2026-04-25T09:08:18.956Z</time></trkpt><trkpt lat="46.1355017" lon="12.2064367"><ele>366.6666666666667</ele><time>2026-04-25T09:08:19.956Z</time></trkpt><trkpt lat="46.1353317" lon="12.2064017"><ele>372.0</ele><time>2026-04-25T09:08:20.957Z</time></trkpt><trkpt lat="46.1351533" lon="12.2063833"><ele>372.0</ele><time>2026-04-25T09:08:21.955Z</time></trkpt><trkpt lat="46.1349867" lon="12.2063467"><ele>372.0</ele><time>2026-04-25T09:08:22.955Z</time></trkpt><trkpt lat="46.1348133" lon="12.2063017"><ele>372.0</ele><time>2026-04-25T09:08:23.955Z</time></trkpt><trkpt lat="46.13464" lon="12.2062383"><ele>369.0</ele><time>2026-04-25T09:08:24.956Z</time></trkpt><trkpt lat="46.1344667" lon="12.206165"><ele>366.0</ele><time>2026-04-25T09:08:25.955Z</time></trkpt><trkpt lat="46.1342983" lon="12.20607"><ele>363.0</ele><time>2026-04-25T09:08:26.957Z</time></trkpt><trkpt lat="46.1341333" lon="12.2059617"><ele>364.0</ele><time>2026-04-25T09:08:27.955Z</time></trkpt><trkpt lat="46.133985" lon="12.2058433"><ele>365.0</ele><time>2026-04-25T09:08:28.956Z</time></trkpt><trkpt lat="46.1338283" lon="12.2057283"><ele>366.0</ele><time>2026-04-25T09:08:29.956Z</time></trkpt><trkpt lat="46.1336833" lon="12.2055967"><ele>366.0</ele><time>2026-04-25T09:08:30.956Z</time></trkpt><trkpt lat="46.1335233" lon="12.2054333"><ele>366.0</ele><time>2026-04-25T09:08:31.956Z</time></trkpt><trkpt lat="46.1333783" lon="12.2052867"><ele>366.0</ele><time>2026-04-25T09:08:32.956Z</time></trkpt><trkpt lat="46.1332317" lon="12.2051467"><ele>368.0</ele><time>2026-04-25T09:08:33.956Z</time></trkpt><trkpt lat="46.13247" lon="12.2030367"><ele>368.0</ele><time>2026-04-25T09:08:42.956Z</time></trkpt><trkpt lat="46.132425" lon="12.2028017"><ele>368.0</ele><time>2026-04-25T09:08:43.957Z</time></trkpt><trkpt lat="46.132475" lon="12.20256"><ele>368.0</ele><time>2026-04-25T09:08:44.955Z</time></trkpt><trkpt lat="46.13249" lon="12.2022667"><ele>370.33333333333337</ele><time>2026-04-25T09:08:45.956Z</time></trkpt><trkpt lat="46.1325217" lon="12.201995"><ele>372.6666666666667</ele><time>2026-04-25T09:08:46.955Z</time></trkpt><trkpt lat="46.1325833" lon="12.2017567"><ele>375.0</ele><time>2026-04-25T09:08:47.956Z</time></trkpt><trkpt lat="46.1327067" lon="12.2015367"><ele>376.3333333333333</ele><time>2026-04-25T09:08:48.955Z</time></trkpt><trkpt lat="46.132805" lon="12.2013317"><ele>377.66666666666663</ele><time>2026-04-25T09:08:49.956Z</time></trkpt><trkpt lat="46.13291" lon="12.2011217"><ele>379.0</ele><time>2026-04-25T09:08:50.956Z</time></trkpt><trkpt lat="46.1330317" lon="12.2009233"><ele>379.0</ele><time>2026-04-25T09:08:51.956Z</time></trkpt><trkpt lat="46.1331667" lon="12.200745"><ele>379.0</ele><time>2026-04-25T09:08:52.956Z</time></trkpt><trkpt lat="46.1333117" lon="12.200575"><ele>379.0</ele><time>2026-04-25T09:08:53.956Z</time></trkpt><trkpt lat="46.1334617" lon="12.2004217"><ele>380.0</ele><time>2026-04-25T09:08:54.955Z</time></trkpt><trkpt lat="46.133605" lon="12.2002733"><ele>381.0</ele><time>2026-04-25T09:08:55.957Z</time></trkpt><trkpt lat="46.13374" lon="12.2001167"><ele>382.0</ele><time>2026-04-25T09:08:56.957Z</time></trkpt><trkpt lat="46.133865" lon="12.19997"><ele>381.75</ele><time>2026-04-25T09:08:57.956Z</time></trkpt><trkpt lat="46.1339833" lon="12.1998233"><ele>381.5</ele><time>2026-04-25T09:08:58.956Z</time></trkpt><trkpt lat="46.1340917" lon="12.199685"><ele>381.25</ele><time>2026-04-25T09:08:59.956Z</time></trkpt><trkpt lat="46.1341917" lon="12.1995533"><ele>381.0</ele><time>2026-04-25T09:09:00.957Z</time></trkpt><trkpt lat="46.1342867" lon="12.1994333"><ele>381.4</ele><time>2026-04-25T09:09:01.956Z</time></trkpt><trkpt lat="46.134375" lon="12.1993167"><ele>381.8</ele><time>2026-04-25T09:09:02.957Z</time></trkpt><trkpt lat="46.1344583" lon="12.1991983"><ele>382.2</ele><time>2026-04-25T09:09:03.957Z</time></trkpt><trkpt lat="46.1345283" lon="12.199095"><ele>382.59999999999997</ele><time>2026-04-25T09:09:04.957Z</time></trkpt><trkpt lat="46.13459" lon="12.1990167"><ele>383.0</ele><time>2026-04-25T09:09:05.955Z</time></trkpt><trkpt lat="46.1346517" lon="12.198965"><ele>383.0</ele><time>2026-04-25T09:09:06.956Z</time></trkpt><trkpt lat="46.1347683" lon="12.198975"><ele>383.0</ele><time>2026-04-25T09:09:08.957Z</time></trkpt><trkpt lat="46.1348283" lon="12.1990583"><ele>383.0</ele><time>2026-04-25T09:09:09.956Z</time></trkpt><trkpt lat="46.1348833" lon="12.19915"><ele>383.0</ele><time>2026-04-25T09:09:10.957Z</time></trkpt><trkpt lat="46.13492" lon="12.19927"><ele>383.0</ele><time>2026-04-25T09:09:11.957Z</time></trkpt><trkpt lat="46.1349683" lon="12.199375"><ele>383.79999999999995</ele><time>2026-04-25T09:09:12.956Z</time></trkpt><trkpt lat="46.135015" lon="12.1994933"><ele>384.6</ele><time>2026-04-25T09:09:13.956Z</time></trkpt><trkpt lat="46.1350617" lon="12.1996183"><ele>385.4</ele><time>2026-04-25T09:09:14.956Z</time></trkpt><trkpt lat="46.1351133" lon="12.19975"><ele>386.20000000000005</ele><time>2026-04-25T09:09:15.957Z</time></trkpt><trkpt lat="46.1351583" lon="12.1998833"><ele>387.0</ele><time>2026-04-25T09:09:16.957Z</time></trkpt><trkpt lat="46.1352083" lon="12.200015"><ele>387.40000000000003</ele><time>2026-04-25T09:09:17.956Z</time></trkpt><trkpt lat="46.1352583" lon="12.200145"><ele>387.8</ele><time>2026-04-25T09:09:18.956Z</time></trkpt><trkpt lat="46.1353067" lon="12.2002717"><ele>388.2</ele><time>2026-04-25T09:09:19.956Z</time></trkpt><trkpt lat="46.1353517" lon="12.2003833"><ele>388.6</ele><time>2026-04-25T09:09:20.957Z</time></trkpt><trkpt lat="46.1353917" lon="12.2004767"><ele>389.0</ele><time>2026-04-25T09:09:21.956Z</time></trkpt><trkpt lat="46.1354567" lon="12.2006133"><ele>388.99999999999994</ele><time>2026-04-25T09:09:23.957Z</time></trkpt><trkpt lat="46.1355233" lon="12.200675"><ele>389.0</ele><time>2026-04-25T09:09:25.956Z</time></trkpt><trkpt lat="46.135635" lon="12.20064"><ele>389.0</ele><time>2026-04-25T09:09:27.956Z</time></trkpt><trkpt lat="46.1356917" lon="12.2005883"><ele>389.0</ele><time>2026-04-25T09:09:28.956Z</time></trkpt><trkpt lat="46.1357667" lon="12.2004817"><ele>388.99999999999994</ele><time>2026-04-25T09:09:30.956Z</time></trkpt><trkpt lat="46.1358067" lon="12.2004033"><ele>389.0</ele><time>2026-04-25T09:09:32.956Z</time></trkpt><trkpt lat="46.135885" lon="12.2002483"><ele>389.2</ele><time>2026-04-25T09:12:04.956Z</time></trkpt><trkpt lat="46.13596" lon="12.2001533"><ele>389.4</ele><time>2026-04-25T09:12:06.957Z</time></trkpt><trkpt lat="46.1360567" lon="12.200045"><ele>389.6</ele><time>2026-04-25T09:12:08.957Z</time></trkpt><trkpt lat="46.13615" lon="12.199955"><ele>389.8</ele><time>2026-04-25T09:12:10.957Z</time></trkpt><trkpt lat="46.1362217" lon="12.1998967"><ele>390.0</ele><time>2026-04-25T09:12:12.956Z</time></trkpt><trkpt lat="46.1363017" lon="12.1999133"><ele>390.0</ele><time>2026-04-25T09:12:15.957Z</time></trkpt><trkpt lat="46.1363867" lon="12.2000117"><ele>390.0</ele><time>2026-04-25T09:12:17.957Z</time></trkpt><trkpt lat="46.1364383" lon="12.20009"><ele>390.0</ele><time>2026-04-25T09:12:18.957Z</time></trkpt><trkpt lat="46.1365033" lon="12.2001767"><ele>390.0</ele><time>2026-04-25T09:12:19.956Z</time></trkpt><trkpt lat="46.1365717" lon="12.2002717"><ele>390.0</ele><time>2026-04-25T09:12:20.957Z</time></trkpt><trkpt lat="46.13664" lon="12.2003733"><ele>390.2</ele><time>2026-04-25T09:12:21.957Z</time></trkpt><trkpt lat="46.1367167" lon="12.20048"><ele>390.4</ele><time>2026-04-25T09:12:22.957Z</time></trkpt><trkpt lat="46.136795" lon="12.2005917"><ele>390.6</ele><time>2026-04-25T09:12:23.956Z</time></trkpt><trkpt lat="46.1368717" lon="12.2007033"><ele>390.8</ele><time>2026-04-25T09:12:24.956Z</time></trkpt><trkpt lat="46.1369467" lon="12.200815"><ele>391.0</ele><time>2026-04-25T09:12:25.956Z</time></trkpt><trkpt lat="46.1370217" lon="12.200925"><ele>391.0</ele><time>2026-04-25T09:12:26.957Z</time></trkpt><trkpt lat="46.1370933" lon="12.2010317"><ele>391.0</ele><time>2026-04-25T09:12:27.956Z</time></trkpt><trkpt lat="46.1371633" lon="12.20113"><ele>391.0</ele><time>2026-04-25T09:12:28.958Z</time></trkpt><trkpt lat="46.1372267" lon="12.201225"><ele>391.0</ele><time>2026-04-25T09:12:29.956Z</time></trkpt><trkpt lat="46.1372867" lon="12.2013217"><ele>391.0</ele><time>2026-04-25T09:12:30.956Z</time></trkpt><trkpt lat="46.1373467" lon="12.201415"><ele>391.1666666666667</ele><time>2026-04-25T09:12:31.957Z</time></trkpt><trkpt lat="46.1373983" lon="12.20151"><ele>391.33333333333337</ele><time>2026-04-25T09:12:32.956Z</time></trkpt><trkpt lat="46.1374433" lon="12.2015817"><ele>391.5</ele><time>2026-04-25T09:12:33.956Z</time></trkpt><trkpt lat="46.1374883" lon="12.2016467"><ele>391.66666666666663</ele><time>2026-04-25T09:12:34.956Z</time></trkpt><trkpt lat="46.13754" lon="12.2017467"><ele>391.8333333333333</ele><time>2026-04-25T09:12:36.956Z</time></trkpt><trkpt lat="46.1374883" lon="12.2018467"><ele>392.0</ele><time>2026-04-25T09:12:39.956Z</time></trkpt><trkpt lat="46.137425" lon="12.2019183"><ele>392.0</ele><time>2026-04-25T09:12:42.956Z</time></trkpt><trkpt lat="46.1373567" lon="12.20198"><ele>392.0</ele><time>2026-04-25T09:12:45.956Z</time></trkpt><trkpt lat="46.13739" lon="12.2020767"><ele>392.0</ele><time>2026-04-25T09:12:57.956Z</time></trkpt><trkpt lat="46.1374519" lon="12.2021065"><ele>392.0</ele><time>2026-04-25T09:15:04.011Z</time></trkpt><trkpt lat="46.137436" lon="12.2022007"><ele>392.0</ele><time>2026-04-25T09:15:10.024Z</time></trkpt><trkpt lat="46.1373872" lon="12.2022847"><ele>392.0</ele><time>2026-04-25T09:15:15.034Z</time></trkpt><trkpt lat="46.1373665" lon="12.2023843"><ele>392.0</ele><time>2026-04-25T09:15:21.046Z</time></trkpt><trkpt lat="46.1378326" lon="12.2022195"><ele>392.0</ele><time>2026-04-25T09:21:00.486Z</time></trkpt><trkpt lat="46.1375373" lon="12.2020799"><ele>392.0</ele><time>2026-04-25T09:30:24.857Z</time></trkpt><trkpt lat="46.1375656" lon="12.2019935"><ele>392.0</ele><time>2026-04-25T09:30:42.994Z</time></trkpt><trkpt lat="46.1375688" lon="12.2018909"><ele>392.0</ele><time>2026-04-25T09:30:47.002Z</time></trkpt><trkpt lat="46.1375301" lon="12.2018156"><ele>392.0</ele><time>2026-04-25T09:30:56.021Z</time></trkpt><trkpt lat="46.1374614" lon="12.2018679"><ele>392.0</ele><time>2026-04-25T09:31:20.971Z</time></trkpt><trkpt lat="46.1374083" lon="12.2019278"><ele>392.0</ele><time>2026-04-25T09:31:23.958Z</time></trkpt><trkpt lat="46.1373719" lon="12.2020035"><ele>392.0</ele><time>2026-04-25T09:42:46.005Z</time></trkpt><trkpt lat="46.1373161" lon="12.2020912"><ele>392.0</ele><time>2026-04-25T09:46:43.022Z</time></trkpt><trkpt lat="46.1372564" lon="12.2020513"><ele>392.0</ele><time>2026-04-25T09:47:13.991Z</time></trkpt><trkpt lat="46.1371899" lon="12.2020528"><ele>392.0</ele><time>2026-04-25T09:47:23.912Z</time></trkpt><trkpt lat="46.1371539" lon="12.201838"><ele>392.16666666666663</ele><time>2026-04-25T09:47:36.957Z</time></trkpt><trkpt lat="46.1371359" lon="12.2017462"><ele>392.3333333333333</ele><time>2026-04-25T09:47:39.046Z</time></trkpt><trkpt lat="46.137055" lon="12.20183"><ele>392.5</ele><time>2026-04-25T09:48:08.956Z</time></trkpt><trkpt lat="46.1370517" lon="12.20168"><ele>392.66666666666663</ele><time>2026-04-25T09:49:12.956Z</time></trkpt><trkpt lat="46.1369883" lon="12.2017583"><ele>392.8333333333333</ele><time>2026-04-25T09:49:56.955Z</time></trkpt><trkpt lat="46.13707" lon="12.20174"><ele>393.0</ele><time>2026-04-25T09:50:09.955Z</time></trkpt><trkpt lat="46.137115" lon="12.2016517"><ele>393.0</ele><time>2026-04-25T09:50:10.955Z</time></trkpt><trkpt lat="46.1371617" lon="12.2015567"><ele>393.0</ele><time>2026-04-25T09:50:19.956Z</time></trkpt><trkpt lat="46.1370817" lon="12.2015417"><ele>393.0</ele><time>2026-04-25T09:50:48.955Z</time></trkpt><trkpt lat="46.13717" lon="12.2015283"><ele>393.0</ele><time>2026-04-25T09:51:10.957Z</time></trkpt><trkpt lat="46.13711" lon="12.2016567"><ele>393.0</ele><time>2026-04-25T09:51:22.956Z</time></trkpt><trkpt lat="46.1370483" lon="12.2018133"><ele>393.0</ele><time>2026-04-25T09:52:03.955Z</time></trkpt><trkpt lat="46.13708" lon="12.201665"><ele>393.0</ele><time>2026-04-25T09:53:30.955Z</time></trkpt><trkpt lat="46.1372083" lon="12.20155"><ele>393.0</ele><time>2026-04-25T09:53:33.955Z</time></trkpt><trkpt lat="46.1372767" lon="12.2014867"><ele>393.0</ele><time>2026-04-25T09:53:34.956Z</time></trkpt><trkpt lat="46.1372533" lon="12.2016167"><ele>393.0</ele><time>2026-04-25T09:53:51.956Z</time></trkpt><trkpt lat="46.1373153" lon="12.201635"><ele>393.0</ele><time>2026-04-25T09:54:05.979Z</time></trkpt><trkpt lat="46.1372789" lon="12.2017173"><ele>393.0</ele><time>2026-04-25T09:54:17.003Z</time></trkpt><trkpt lat="46.1373074" lon="12.2018027"><ele>393.0</ele><time>2026-04-25T09:54:30.934Z</time></trkpt><trkpt lat="46.1372695" lon="12.2015971"><ele>393.0</ele><time>2026-04-25T09:54:44.955Z</time></trkpt><trkpt lat="46.1371902" lon="12.2014255"><ele>393.0</ele><time>2026-04-25T09:54:45.967Z</time></trkpt><trkpt lat="46.1371197" lon="12.2014732"><ele>393.0</ele><time>2026-04-25T09:54:50.036Z</time></trkpt><trkpt lat="46.1370684" lon="12.2015267"><ele>393.0</ele><time>2026-04-25T09:56:02.033Z</time></trkpt><trkpt lat="46.1370513" lon="12.2016221"><ele>393.0</ele><time>2026-04-25T09:56:08.514Z</time></trkpt><trkpt lat="46.1371494" lon="12.2016753"><ele>393.0</ele><time>2026-04-25T09:56:12.957Z</time></trkpt><trkpt lat="46.1372201" lon="12.2016288"><ele>393.0</ele><time>2026-04-25T09:56:13.959Z</time></trkpt><trkpt lat="46.1373789" lon="12.201559"><ele>393.0</ele><time>2026-04-25T09:56:17.967Z</time></trkpt><trkpt lat="46.1374801" lon="12.2015098"><ele>393.0</ele><time>2026-04-25T09:56:18.97Z</time></trkpt><trkpt lat="46.1374761" lon="12.2016057"><ele>393.0</ele><time>2026-04-25T09:56:31.998Z</time></trkpt><trkpt lat="46.137444" lon="12.201686"><ele>393.0</ele><time>2026-04-25T09:56:55.951Z</time></trkpt><trkpt lat="46.1373401" lon="12.2018289"><ele>393.0</ele><time>2026-04-25T09:57:07.955Z</time></trkpt><trkpt lat="46.1372951" lon="12.2019059"><ele>393.0</ele><time>2026-04-25T09:57:11.986Z</time></trkpt><trkpt lat="46.1373167" lon="12.2020283"><ele>393.0</ele><time>2026-04-25T09:57:51.955Z</time></trkpt><trkpt lat="46.1374" lon="12.2020783"><ele>393.0</ele><time>2026-04-25T09:58:55.955Z</time></trkpt><trkpt lat="46.1375833" lon="12.2018283"><ele>393.0</ele><time>2026-04-25T09:59:43.956Z</time></trkpt><trkpt lat="46.13751" lon="12.2019883"><ele>392.79999999999995</ele><time>2026-04-25T09:59:46.955Z</time></trkpt><trkpt lat="46.1373933" lon="12.20211"><ele>392.6</ele><time>2026-04-25T09:59:49.954Z</time></trkpt><trkpt lat="46.1374617" lon="12.2020117"><ele>392.4</ele><time>2026-04-25T10:10:23.955Z</time></trkpt><trkpt lat="46.1374883" lon="12.201915"><ele>392.20000000000005</ele><time>2026-04-25T10:10:27.955Z</time></trkpt><trkpt lat="46.13755" lon="12.2018783"><ele>392.0</ele><time>2026-04-25T10:10:30.956Z</time></trkpt><trkpt lat="46.1376183" lon="12.20184"><ele>392.0</ele><time>2026-04-25T10:10:38.955Z</time></trkpt><trkpt lat="46.1375883" lon="12.2017183"><ele>392.0</ele><time>2026-04-25T10:10:42.954Z</time></trkpt><trkpt lat="46.137515" lon="12.2016367"><ele>392.0</ele><time>2026-04-25T10:10:43.956Z</time></trkpt><trkpt lat="46.1374417" lon="12.201535"><ele>392.0</ele><time>2026-04-25T10:10:44.958Z</time></trkpt><trkpt lat="46.137365" lon="12.2014233"><ele>392.0</ele><time>2026-04-25T10:10:45.955Z</time></trkpt><trkpt lat="46.1372833" lon="12.2013033"><ele>391.75</ele><time>2026-04-25T10:10:46.954Z</time></trkpt><trkpt lat="46.1371983" lon="12.2011767"><ele>391.5</ele><time>2026-04-25T10:10:47.954Z</time></trkpt><trkpt lat="46.1371133" lon="12.2010483"><ele>391.25</ele><time>2026-04-25T10:10:48.955Z</time></trkpt><trkpt lat="46.1370317" lon="12.2009283"><ele>391.0</ele><time>2026-04-25T10:10:49.957Z</time></trkpt><trkpt lat="46.13696" lon="12.200815"><ele>391.0</ele><time>2026-04-25T10:10:50.955Z</time></trkpt><trkpt lat="46.13689" lon="12.2007083"><ele>391.0</ele><time>2026-04-25T10:10:51.955Z</time></trkpt><trkpt lat="46.1368217" lon="12.2006017"><ele>391.0</ele><time>2026-04-25T10:10:52.956Z</time></trkpt><trkpt lat="46.1367567" lon="12.2004967"><ele>391.0</ele><time>2026-04-25T10:10:53.955Z</time></trkpt><trkpt lat="46.13669" lon="12.200395"><ele>391.0</ele><time>2026-04-25T10:10:54.955Z</time></trkpt><trkpt lat="46.1366233" lon="12.2002933"><ele>390.83333333333337</ele><time>2026-04-25T10:10:55.955Z</time></trkpt><trkpt lat="46.1365617" lon="12.2001933"><ele>390.6666666666667</ele><time>2026-04-25T10:10:56.956Z</time></trkpt><trkpt lat="46.1365067" lon="12.2001"><ele>390.5</ele><time>2026-04-25T10:10:57.955Z</time></trkpt><trkpt lat="46.1364567" lon="12.200015"><ele>390.33333333333337</ele><time>2026-04-25T10:10:58.956Z</time></trkpt><trkpt lat="46.1364117" lon="12.1999433"><ele>390.1666666666667</ele><time>2026-04-25T10:10:59.956Z</time></trkpt><trkpt lat="46.136355" lon="12.1998117"><ele>390.0</ele><time>2026-04-25T10:11:01.954Z</time></trkpt><trkpt lat="46.1363483" lon="12.1996817"><ele>389.8333333333333</ele><time>2026-04-25T10:11:03.955Z</time></trkpt><trkpt lat="46.136385" lon="12.1995583"><ele>389.66666666666663</ele><time>2026-04-25T10:11:05.956Z</time></trkpt><trkpt lat="46.1364217" lon="12.1994367"><ele>389.5</ele><time>2026-04-25T10:11:07.954Z</time></trkpt><trkpt lat="46.1364433" lon="12.199325"><ele>389.3333333333333</ele><time>2026-04-25T10:11:09.955Z</time></trkpt><trkpt lat="46.13645" lon="12.1992333"><ele>389.16666666666663</ele><time>2026-04-25T10:11:11.955Z</time></trkpt><trkpt lat="46.136395" lon="12.1992833"><ele>389.0</ele><time>2026-04-25T10:11:15.955Z</time></trkpt><trkpt lat="46.13638" lon="12.19942"><ele>388.99999999999994</ele><time>2026-04-25T10:32:56.954Z</time></trkpt><trkpt lat="46.1363517" lon="12.1995017"><ele>389.0</ele><time>2026-04-25T10:33:00.953Z</time></trkpt><trkpt lat="46.1363167" lon="12.1995867"><ele>389.0</ele><time>2026-04-25T10:33:04.956Z</time></trkpt><trkpt lat="46.1362967" lon="12.1996733"><ele>389.0</ele><time>2026-04-25T10:33:06.956Z</time></trkpt><trkpt lat="46.1363333" lon="12.1998317"><ele>388.99999999999994</ele><time>2026-04-25T10:33:08.955Z</time></trkpt><trkpt lat="46.1363767" lon="12.1999217"><ele>389.0</ele><time>2026-04-25T10:33:09.955Z</time></trkpt><trkpt lat="46.13643" lon="12.200015"><ele>389.2</ele><time>2026-04-25T10:33:10.956Z</time></trkpt><trkpt lat="46.13649" lon="12.2001117"><ele>389.4</ele><time>2026-04-25T10:33:11.955Z</time></trkpt><trkpt lat="46.1365567" lon="12.200215"><ele>389.6</ele><time>2026-04-25T10:33:12.955Z</time></trkpt><trkpt lat="46.1366233" lon="12.2003217"><ele>389.8</ele><time>2026-04-25T10:33:13.955Z</time></trkpt><trkpt lat="46.13669" lon="12.200425"><ele>390.0</ele><time>2026-04-25T10:33:14.955Z</time></trkpt><trkpt lat="46.1367617" lon="12.2005317"><ele>390.2</ele><time>2026-04-25T10:33:15.955Z</time></trkpt><trkpt lat="46.1368333" lon="12.2006433"><ele>390.4</ele><time>2026-04-25T10:33:16.956Z</time></trkpt><trkpt lat="46.1369067" lon="12.2007533"><ele>390.6</ele><time>2026-04-25T10:33:17.955Z</time></trkpt><trkpt lat="46.136975" lon="12.2008633"><ele>390.8</ele><time>2026-04-25T10:33:18.954Z</time></trkpt><trkpt lat="46.1370417" lon="12.2009667"><ele>391.0</ele><time>2026-04-25T10:33:19.955Z</time></trkpt><trkpt lat="46.1371117" lon="12.2010683"><ele>391.0</ele><time>2026-04-25T10:33:20.954Z</time></trkpt><trkpt lat="46.1371833" lon="12.2011733"><ele>391.0</ele><time>2026-04-25T10:33:21.954Z</time></trkpt><trkpt lat="46.137255" lon="12.2012883"><ele>391.0</ele><time>2026-04-25T10:33:22.954Z</time></trkpt><trkpt lat="46.1373317" lon="12.2014083"><ele>391.0</ele><time>2026-04-25T10:33:23.955Z</time></trkpt><trkpt lat="46.137405" lon="12.20154"><ele>391.0</ele><time>2026-04-25T10:33:24.955Z</time></trkpt><trkpt lat="46.137485" lon="12.20167"><ele>391.25</ele><time>2026-04-25T10:33:25.955Z</time></trkpt><trkpt lat="46.13757" lon="12.201795"><ele>391.5</ele><time>2026-04-25T10:33:26.955Z</time></trkpt><trkpt lat="46.1376517" lon="12.2019133"><ele>391.75</ele><time>2026-04-25T10:33:27.955Z</time></trkpt><trkpt lat="46.1377317" lon="12.2020317"><ele>392.0</ele><time>2026-04-25T10:33:28.956Z</time></trkpt><trkpt lat="46.1378133" lon="12.2021517"><ele>392.0</ele><time>2026-04-25T10:33:29.954Z</time></trkpt><trkpt lat="46.1378967" lon="12.2022717"><ele>392.0</ele><time>2026-04-25T10:33:30.956Z</time></trkpt><trkpt lat="46.1379833" lon="12.2023917"><ele>392.0</ele><time>2026-04-25T10:33:31.955Z</time></trkpt><trkpt lat="46.1380683" lon="12.2025167"><ele>392.0</ele><time>2026-04-25T10:33:32.957Z</time></trkpt><trkpt lat="46.13816" lon="12.2026517"><ele>392.5</ele><time>2026-04-25T10:33:33.956Z</time></trkpt><trkpt lat="46.138255" lon="12.2027883"><ele>393.0</ele><time>2026-04-25T10:33:34.957Z</time></trkpt><trkpt lat="46.13835" lon="12.20293"><ele>393.5</ele><time>2026-04-25T10:33:35.956Z</time></trkpt><trkpt lat="46.1384467" lon="12.2030717"><ele>394.0</ele><time>2026-04-25T10:33:36.955Z</time></trkpt><trkpt lat="46.13854" lon="12.2032133"><ele>394.25</ele><time>2026-04-25T10:33:37.955Z</time></trkpt><trkpt lat="46.1386317" lon="12.203355"><ele>394.5</ele><time>2026-04-25T10:33:38.957Z</time></trkpt><trkpt lat="46.13872" lon="12.203495"><ele>394.75</ele><time>2026-04-25T10:33:39.956Z</time></trkpt><trkpt lat="46.1388083" lon="12.203635"><ele>395.0</ele><time>2026-04-25T10:33:40.956Z</time></trkpt><trkpt lat="46.1388917" lon="12.2037717"><ele>395.0</ele><time>2026-04-25T10:33:41.956Z</time></trkpt><trkpt lat="46.1389733" lon="12.2039017"><ele>395.0</ele><time>2026-04-25T10:33:42.956Z</time></trkpt><trkpt lat="46.139055" lon="12.204035"><ele>395.0</ele><time>2026-04-25T10:33:43.955Z</time></trkpt><trkpt lat="46.139135" lon="12.2041633"><ele>395.0</ele><time>2026-04-25T10:33:44.955Z</time></trkpt><trkpt lat="46.1392117" lon="12.2042683"><ele>395.25</ele><time>2026-04-25T10:33:45.955Z</time></trkpt><trkpt lat="46.1392767" lon="12.2043683"><ele>395.5</ele><time>2026-04-25T10:33:46.956Z</time></trkpt><trkpt lat="46.1393417" lon="12.2044867"><ele>395.75</ele><time>2026-04-25T10:33:47.955Z</time></trkpt><trkpt lat="46.1394117" lon="12.204625"><ele>396.0</ele><time>2026-04-25T10:33:48.954Z</time></trkpt><trkpt lat="46.139485" lon="12.2047867"><ele>395.0</ele><time>2026-04-25T10:33:49.955Z</time></trkpt><trkpt lat="46.139565" lon="12.2049533"><ele>394.0</ele><time>2026-04-25T10:33:50.959Z</time></trkpt><trkpt lat="46.1396517" lon="12.2051217"><ele>393.0</ele><time>2026-04-25T10:33:51.955Z</time></trkpt><trkpt lat="46.1397433" lon="12.20529"><ele>392.0</ele><time>2026-04-25T10:33:52.956Z</time></trkpt><trkpt lat="46.139845" lon="12.20548"><ele>392.66666666666663</ele><time>2026-04-25T10:33:53.954Z</time></trkpt><trkpt lat="46.1399517" lon="12.2056767"><ele>393.33333333333337</ele><time>2026-04-25T10:33:54.955Z</time></trkpt><trkpt lat="46.14006" lon="12.2058767"><ele>394.0</ele><time>2026-04-25T10:33:55.955Z</time></trkpt><trkpt lat="46.1401667" lon="12.2060683"><ele>394.0</ele><time>2026-04-25T10:33:56.955Z</time></trkpt><trkpt lat="46.1402617" lon="12.20625"><ele>394.0</ele><time>2026-04-25T10:33:57.955Z</time></trkpt><trkpt lat="46.1403583" lon="12.2064233"><ele>394.0</ele><time>2026-04-25T10:33:58.957Z</time></trkpt><trkpt lat="46.1404533" lon="12.20659"><ele>393.5</ele><time>2026-04-25T10:33:59.956Z</time></trkpt><trkpt lat="46.140545" lon="12.20676"><ele>393.0</ele><time>2026-04-25T10:34:00.956Z</time></trkpt><trkpt lat="46.1406367" lon="12.20693"><ele>392.5</ele><time>2026-04-25T10:34:01.956Z</time></trkpt><trkpt lat="46.1407283" lon="12.2071017"><ele>392.0</ele><time>2026-04-25T10:34:02.955Z</time></trkpt><trkpt lat="46.14082" lon="12.2072683"><ele>392.66666666666663</ele><time>2026-04-25T10:34:03.956Z</time></trkpt><trkpt lat="46.1409117" lon="12.2074417"><ele>393.33333333333337</ele><time>2026-04-25T10:34:04.956Z</time></trkpt><trkpt lat="46.1410067" lon="12.2076183"><ele>394.0</ele><time>2026-04-25T10:34:05.957Z</time></trkpt><trkpt lat="46.141105" lon="12.2078"><ele>394.0</ele><time>2026-04-25T10:34:06.956Z</time></trkpt><trkpt lat="46.141205" lon="12.2079883"><ele>394.0</ele><time>2026-04-25T10:34:07.955Z</time></trkpt><trkpt lat="46.1413133" lon="12.20818"><ele>394.0</ele><time>2026-04-25T10:34:08.955Z</time></trkpt><trkpt lat="46.14142" lon="12.2083817"><ele>394.0</ele><time>2026-04-25T10:34:09.955Z</time></trkpt><trkpt lat="46.14153" lon="12.2085883"><ele>394.0</ele><time>2026-04-25T10:34:10.954Z</time></trkpt><trkpt lat="46.1416417" lon="12.2088"><ele>394.0</ele><time>2026-04-25T10:34:11.954Z</time></trkpt><trkpt lat="46.1417517" lon="12.20901"><ele>394.0</ele><time>2026-04-25T10:34:12.954Z</time></trkpt><trkpt lat="46.14186" lon="12.2092233"><ele>394.0</ele><time>2026-04-25T10:34:13.954Z</time></trkpt><trkpt lat="46.141965" lon="12.2094317"><ele>394.0</ele><time>2026-04-25T10:34:14.956Z</time></trkpt><trkpt lat="46.1420667" lon="12.2096417"><ele>393.33333333333337</ele><time>2026-04-25T10:34:15.955Z</time></trkpt><trkpt lat="46.142165" lon="12.209845"><ele>392.66666666666663</ele><time>2026-04-25T10:34:16.955Z</time></trkpt><trkpt lat="46.1422633" lon="12.2100367"><ele>392.0</ele><time>2026-04-25T10:34:17.955Z</time></trkpt><trkpt lat="46.14236" lon="12.2102233"><ele>394.0</ele><time>2026-04-25T10:34:18.955Z</time></trkpt><trkpt lat="46.1424583" lon="12.2104083"><ele>396.0</ele><time>2026-04-25T10:34:19.954Z</time></trkpt><trkpt lat="46.1425617" lon="12.2105883"><ele>398.0</ele><time>2026-04-25T10:34:20.959Z</time></trkpt><trkpt lat="46.1426683" lon="12.2107583"><ele>398.0</ele><time>2026-04-25T10:34:21.955Z</time></trkpt><trkpt lat="46.1427783" lon="12.2109233"><ele>398.0</ele><time>2026-04-25T10:34:22.956Z</time></trkpt><trkpt lat="46.1428867" lon="12.211085"><ele>398.0</ele><time>2026-04-25T10:34:23.955Z</time></trkpt><trkpt lat="46.1429917" lon="12.2112417"><ele>398.0</ele><time>2026-04-25T10:34:24.956Z</time></trkpt><trkpt lat="46.1430917" lon="12.2113917"><ele>398.0</ele><time>2026-04-25T10:34:25.956Z</time></trkpt><trkpt lat="46.1431883" lon="12.21154"><ele>398.0</ele><time>2026-04-25T10:34:26.956Z</time></trkpt><trkpt lat="46.14328" lon="12.2116833"><ele>398.0</ele><time>2026-04-25T10:34:27.955Z</time></trkpt><trkpt lat="46.14337" lon="12.21182"><ele>398.59999999999997</ele><time>2026-04-25T10:34:28.956Z</time></trkpt><trkpt lat="46.1434517" lon="12.2119483"><ele>399.2</ele><time>2026-04-25T10:34:29.955Z</time></trkpt><trkpt lat="46.1435267" lon="12.2120717"><ele>399.8</ele><time>2026-04-25T10:34:30.955Z</time></trkpt><trkpt lat="46.143595" lon="12.2121917"><ele>400.4</ele><time>2026-04-25T10:34:31.955Z</time></trkpt><trkpt lat="46.14366" lon="12.212305"><ele>401.0</ele><time>2026-04-25T10:34:32.954Z</time></trkpt><trkpt lat="46.1437183" lon="12.2124183"><ele>400.99999999999994</ele><time>2026-04-25T10:34:33.956Z</time></trkpt><trkpt lat="46.1437667" lon="12.212525"><ele>401.0</ele><time>2026-04-25T10:34:34.955Z</time></trkpt><trkpt lat="46.14381" lon="12.2126283"><ele>401.0</ele><time>2026-04-25T10:34:35.955Z</time></trkpt><trkpt lat="46.1438417" lon="12.21273"><ele>401.0</ele><time>2026-04-25T10:34:36.955Z</time></trkpt><trkpt lat="46.1438617" lon="12.21283"><ele>400.99999999999994</ele><time>2026-04-25T10:34:37.956Z</time></trkpt><trkpt lat="46.1438783" lon="12.212935"><ele>401.0</ele><time>2026-04-25T10:34:38.954Z</time></trkpt><trkpt lat="46.143905" lon="12.213035"><ele>400.99999999999994</ele><time>2026-04-25T10:34:39.955Z</time></trkpt><trkpt lat="46.143945" lon="12.21312"><ele>401.0</ele><time>2026-04-25T10:34:40.956Z</time></trkpt><trkpt lat="46.1440033" lon="12.2131883"><ele>401.0</ele><time>2026-04-25T10:34:41.955Z</time></trkpt><trkpt lat="46.14408" lon="12.2132433"><ele>401.0</ele><time>2026-04-25T10:34:42.955Z</time></trkpt><trkpt lat="46.1441567" lon="12.2133267"><ele>400.99999999999994</ele><time>2026-04-25T10:34:43.956Z</time></trkpt><trkpt lat="46.1442433" lon="12.21343"><ele>401.0</ele><time>2026-04-25T10:34:44.955Z</time></trkpt><trkpt lat="46.1443317" lon="12.2135483"><ele>401.0</ele><time>2026-04-25T10:34:45.956Z</time></trkpt><trkpt lat="46.1444267" lon="12.213675"><ele>401.0</ele><time>2026-04-25T10:34:46.957Z</time></trkpt><trkpt lat="46.1445233" lon="12.21382"><ele>401.0</ele><time>2026-04-25T10:34:47.955Z</time></trkpt><trkpt lat="46.144625" lon="12.213975"><ele>401.0</ele><time>2026-04-25T10:34:48.955Z</time></trkpt><trkpt lat="46.1447283" lon="12.2141333"><ele>399.66666666666663</ele><time>2026-04-25T10:34:49.956Z</time></trkpt><trkpt lat="46.1448317" lon="12.214295"><ele>398.33333333333337</ele><time>2026-04-25T10:34:50.955Z</time></trkpt><trkpt lat="46.1449367" lon="12.21446"><ele>397.0</ele><time>2026-04-25T10:34:51.956Z</time></trkpt><trkpt lat="46.14504" lon="12.214625"><ele>394.6666666666667</ele><time>2026-04-25T10:34:52.956Z</time></trkpt><trkpt lat="46.1451417" lon="12.2147867"><ele>392.33333333333337</ele><time>2026-04-25T10:34:53.955Z</time></trkpt><trkpt lat="46.1452417" lon="12.2149483"><ele>390.0</ele><time>2026-04-25T10:34:54.955Z</time></trkpt><trkpt lat="46.145345" lon="12.215105"><ele>388.5</ele><time>2026-04-25T10:34:55.956Z</time></trkpt><trkpt lat="46.145445" lon="12.2152633"><ele>387.0</ele><time>2026-04-25T10:34:56.955Z</time></trkpt><trkpt lat="46.1455467" lon="12.2154217"><ele>385.5</ele><time>2026-04-25T10:34:57.956Z</time></trkpt><trkpt lat="46.1456467" lon="12.215585"><ele>384.0</ele><time>2026-04-25T10:34:58.956Z</time></trkpt><trkpt lat="46.14575" lon="12.2157467"><ele>383.0</ele><time>2026-04-25T10:34:59.955Z</time></trkpt><trkpt lat="46.1458517" lon="12.215905"><ele>382.0</ele><time>2026-04-25T10:35:00.955Z</time></trkpt><trkpt lat="46.14595" lon="12.2160567"><ele>381.0</ele><time>2026-04-25T10:35:01.956Z</time></trkpt><trkpt lat="46.1460433" lon="12.2162033"><ele>380.0</ele><time>2026-04-25T10:35:02.956Z</time></trkpt><trkpt lat="46.1461367" lon="12.21635"><ele>381.5</ele><time>2026-04-25T10:35:03.955Z</time></trkpt><trkpt lat="46.146225" lon="12.2164917"><ele>383.0</ele><time>2026-04-25T10:35:04.956Z</time></trkpt><trkpt lat="46.14631" lon="12.21663"><ele>384.5</ele><time>2026-04-25T10:35:05.955Z</time></trkpt><trkpt lat="46.1463867" lon="12.21676"><ele>386.0</ele><time>2026-04-25T10:35:06.955Z</time></trkpt><trkpt lat="46.1464533" lon="12.21689"><ele>386.0</ele><time>2026-04-25T10:35:07.955Z</time></trkpt><trkpt lat="46.1465117" lon="12.2170317"><ele>386.0</ele><time>2026-04-25T10:35:08.956Z</time></trkpt><trkpt lat="46.1465567" lon="12.217185"><ele>386.0</ele><time>2026-04-25T10:35:09.956Z</time></trkpt><trkpt lat="46.146585" lon="12.2173583"><ele>386.0</ele><time>2026-04-25T10:35:10.956Z</time></trkpt><trkpt lat="46.1466017" lon="12.2175467"><ele>389.0</ele><time>2026-04-25T10:35:11.955Z</time></trkpt><trkpt lat="46.146615" lon="12.217745"><ele>392.0</ele><time>2026-04-25T10:35:12.955Z</time></trkpt><trkpt lat="46.1466267" lon="12.21795"><ele>395.0</ele><time>2026-04-25T10:35:13.955Z</time></trkpt><trkpt lat="46.1466383" lon="12.218165"><ele>398.0</ele><time>2026-04-25T10:35:14.955Z</time></trkpt><trkpt lat="46.1466533" lon="12.2183883"><ele>398.0</ele><time>2026-04-25T10:35:15.955Z</time></trkpt><trkpt lat="46.1466683" lon="12.2186117"><ele>398.0</ele><time>2026-04-25T10:35:16.956Z</time></trkpt><trkpt lat="46.1466817" lon="12.218825"><ele>398.0</ele><time>2026-04-25T10:35:17.955Z</time></trkpt><trkpt lat="46.1466917" lon="12.2190283"><ele>398.0</ele><time>2026-04-25T10:35:18.954Z</time></trkpt><trkpt lat="46.1467" lon="12.219225"><ele>398.0</ele><time>2026-04-25T10:35:19.955Z</time></trkpt><trkpt lat="46.1467067" lon="12.2194183"><ele>398.0</ele><time>2026-04-25T10:35:20.954Z</time></trkpt><trkpt lat="46.1467167" lon="12.2196133"><ele>398.0</ele><time>2026-04-25T10:35:21.955Z</time></trkpt><trkpt lat="46.1467283" lon="12.21981"><ele>398.0</ele><time>2026-04-25T10:35:22.955Z</time></trkpt><trkpt lat="46.1467383" lon="12.22001"><ele>398.0</ele><time>2026-04-25T10:35:23.954Z</time></trkpt><trkpt lat="46.14675" lon="12.220215"><ele>398.0</ele><time>2026-04-25T10:35:24.954Z</time></trkpt><trkpt lat="46.1467633" lon="12.2204233"><ele>398.0</ele><time>2026-04-25T10:35:25.955Z</time></trkpt><trkpt lat="46.1467767" lon="12.2206333"><ele>398.0</ele><time>2026-04-25T10:35:26.955Z</time></trkpt><trkpt lat="46.1467917" lon="12.220845"><ele>398.0</ele><time>2026-04-25T10:35:27.956Z</time></trkpt><trkpt lat="46.1467967" lon="12.2210583"><ele>398.0</ele><time>2026-04-25T10:35:28.956Z</time></trkpt><trkpt lat="46.146805" lon="12.2212667"><ele>398.0</ele><time>2026-04-25T10:35:29.956Z</time></trkpt><trkpt lat="46.146815" lon="12.2214733"><ele>398.0</ele><time>2026-04-25T10:35:30.955Z</time></trkpt><trkpt lat="46.146825" lon="12.22168"><ele>397.75</ele><time>2026-04-25T10:35:31.955Z</time></trkpt><trkpt lat="46.146835" lon="12.2218833"><ele>397.5</ele><time>2026-04-25T10:35:32.955Z</time></trkpt><trkpt lat="46.1468483" lon="12.222075"><ele>397.25</ele><time>2026-04-25T10:35:33.955Z</time></trkpt><trkpt lat="46.1468617" lon="12.2222567"><ele>397.0</ele><time>2026-04-25T10:35:34.957Z</time></trkpt><trkpt lat="46.14687" lon="12.22244"><ele>396.75</ele><time>2026-04-25T10:35:35.955Z</time></trkpt><trkpt lat="46.1468817" lon="12.22262"><ele>396.5</ele><time>2026-04-25T10:35:36.955Z</time></trkpt><trkpt lat="46.146895" lon="12.2227967"><ele>396.25</ele><time>2026-04-25T10:35:37.956Z</time></trkpt><trkpt lat="46.1469167" lon="12.2229717"><ele>396.0</ele><time>2026-04-25T10:35:38.955Z</time></trkpt><trkpt lat="46.1469467" lon="12.2231517"><ele>395.5</ele><time>2026-04-25T10:35:39.956Z</time></trkpt><trkpt lat="46.1469783" lon="12.2233283"><ele>395.0</ele><time>2026-04-25T10:35:40.956Z</time></trkpt><trkpt lat="46.147015" lon="12.2235017"><ele>394.5</ele><time>2026-04-25T10:35:41.955Z</time></trkpt><trkpt lat="46.14706" lon="12.223665"><ele>394.0</ele><time>2026-04-25T10:35:42.955Z</time></trkpt><trkpt lat="46.147105" lon="12.223815"><ele>394.00000000000006</ele><time>2026-04-25T10:35:43.955Z</time></trkpt><trkpt lat="46.147145" lon="12.2239433"><ele>394.0</ele><time>2026-04-25T10:35:44.955Z</time></trkpt><trkpt lat="46.14718" lon="12.2240517"><ele>394.0</ele><time>2026-04-25T10:35:45.956Z</time></trkpt><trkpt lat="46.1472117" lon="12.224135"><ele>394.0</ele><time>2026-04-25T10:35:46.956Z</time></trkpt><trkpt lat="46.1472583" lon="12.2242483"><ele>394.00000000000006</ele><time>2026-04-25T10:35:48.956Z</time></trkpt><trkpt lat="46.147285" lon="12.2243417"><ele>394.0</ele><time>2026-04-25T10:35:50.955Z</time></trkpt><trkpt lat="46.1472767" lon="12.2244617"><ele>393.50000000000006</ele><time>2026-04-25T10:35:56.954Z</time></trkpt><trkpt lat="46.14723" lon="12.2245917"><ele>393.0</ele><time>2026-04-25T10:35:58.956Z</time></trkpt><trkpt lat="46.147225" lon="12.2247483"><ele>392.5</ele><time>2026-04-25T10:36:00.955Z</time></trkpt><trkpt lat="46.147255" lon="12.2248317"><ele>392.0</ele><time>2026-04-25T10:36:01.954Z</time></trkpt><trkpt lat="46.1473183" lon="12.2249067"><ele>391.50000000000006</ele><time>2026-04-25T10:36:02.956Z</time></trkpt><trkpt lat="46.1473917" lon="12.22498"><ele>391.0</ele><time>2026-04-25T10:36:03.954Z</time></trkpt><trkpt lat="46.1474717" lon="12.2250567"><ele>390.6</ele><time>2026-04-25T10:36:04.956Z</time></trkpt><trkpt lat="46.147545" lon="12.225145"><ele>390.20000000000005</ele><time>2026-04-25T10:36:05.955Z</time></trkpt><trkpt lat="46.1476217" lon="12.2252333"><ele>389.79999999999995</ele><time>2026-04-25T10:36:06.954Z</time></trkpt><trkpt lat="46.1477033" lon="12.225325"><ele>389.4</ele><time>2026-04-25T10:36:07.957Z</time></trkpt><trkpt lat="46.1477783" lon="12.225415"><ele>389.0</ele><time>2026-04-25T10:36:08.955Z</time></trkpt><trkpt lat="46.1478533" lon="12.2255"><ele>388.99999999999994</ele><time>2026-04-25T10:36:09.955Z</time></trkpt><trkpt lat="46.147925" lon="12.2255833"><ele>389.0</ele><time>2026-04-25T10:36:10.956Z</time></trkpt><trkpt lat="46.147995" lon="12.2256617"><ele>389.0</ele><time>2026-04-25T10:36:11.954Z</time></trkpt><trkpt lat="46.1480633" lon="12.2257333"><ele>389.0</ele><time>2026-04-25T10:36:12.955Z</time></trkpt><trkpt lat="46.14813" lon="12.2258017"><ele>388.99999999999994</ele><time>2026-04-25T10:36:13.954Z</time></trkpt><trkpt lat="46.1481917" lon="12.2258733"><ele>389.0</ele><time>2026-04-25T10:36:14.956Z</time></trkpt><trkpt lat="46.1482533" lon="12.22594"><ele>388.49999999999994</ele><time>2026-04-25T10:36:15.955Z</time></trkpt><trkpt lat="46.1483083" lon="12.226"><ele>388.0</ele><time>2026-04-25T10:36:16.956Z</time></trkpt><trkpt lat="46.1483833" lon="12.2260817"><ele>387.5</ele><time>2026-04-25T10:36:18.955Z</time></trkpt><trkpt lat="46.148445" lon="12.2261333"><ele>387.0</ele><time>2026-04-25T10:36:21.955Z</time></trkpt><trkpt lat="46.1485067" lon="12.226185"><ele>386.49999999999994</ele><time>2026-04-25T10:36:24.956Z</time></trkpt><trkpt lat="46.1485633" lon="12.2262433"><ele>386.0</ele><time>2026-04-25T10:36:26.955Z</time></trkpt><trkpt lat="46.1486317" lon="12.2263183"><ele>385.99999999999994</ele><time>2026-04-25T10:36:28.957Z</time></trkpt><trkpt lat="46.1487183" lon="12.2264183"><ele>386.0</ele><time>2026-04-25T10:36:30.956Z</time></trkpt><trkpt lat="46.1487717" lon="12.2264767"><ele>386.0</ele><time>2026-04-25T10:36:31.955Z</time></trkpt><trkpt lat="46.1488267" lon="12.2265383"><ele>386.0</ele><time>2026-04-25T10:36:32.955Z</time></trkpt><trkpt lat="46.1488867" lon="12.2265967"><ele>385.99999999999994</ele><time>2026-04-25T10:36:33.956Z</time></trkpt><trkpt lat="46.1489483" lon="12.22666"><ele>386.0</ele><time>2026-04-25T10:36:34.956Z</time></trkpt><trkpt lat="46.1490067" lon="12.2267183"><ele>386.00000000000006</ele><time>2026-04-25T10:36:35.955Z</time></trkpt><trkpt lat="46.149065" lon="12.2267767"><ele>386.0</ele><time>2026-04-25T10:36:36.955Z</time></trkpt><trkpt lat="46.1491167" lon="12.2268333"><ele>386.0</ele><time>2026-04-25T10:36:37.956Z</time></trkpt><trkpt lat="46.1491717" lon="12.2268883"><ele>386.0</ele><time>2026-04-25T10:36:38.955Z</time></trkpt><trkpt lat="46.14923" lon="12.2269417"><ele>386.0</ele><time>2026-04-25T10:36:39.956Z</time></trkpt><trkpt lat="46.149285" lon="12.2269967"><ele>386.00000000000006</ele><time>2026-04-25T10:36:40.958Z</time></trkpt><trkpt lat="46.1493383" lon="12.2270583"><ele>386.0</ele><time>2026-04-25T10:36:41.954Z</time></trkpt><trkpt lat="46.1493917" lon="12.2271217"><ele>386.0</ele><time>2026-04-25T10:36:42.953Z</time></trkpt><trkpt lat="46.1494467" lon="12.227175"><ele>386.0</ele><time>2026-04-25T10:36:43.954Z</time></trkpt><trkpt lat="46.1495383" lon="12.227285"><ele>386.0</ele><time>2026-04-25T10:36:45.955Z</time></trkpt><trkpt lat="46.14962" lon="12.2273817"><ele>386.0</ele><time>2026-04-25T10:36:47.954Z</time></trkpt><trkpt lat="46.1496883" lon="12.22746"><ele>386.0</ele><time>2026-04-25T10:36:49.954Z</time></trkpt><trkpt lat="46.1497617" lon="12.22756"><ele>385.66666666666663</ele><time>2026-04-25T10:36:51.955Z</time></trkpt><trkpt lat="46.14981" lon="12.22763"><ele>385.3333333333333</ele><time>2026-04-25T10:36:52.955Z</time></trkpt><trkpt lat="46.149875" lon="12.2277017"><ele>385.0</ele><time>2026-04-25T10:36:53.954Z</time></trkpt><trkpt lat="46.14995" lon="12.2277667"><ele>384.66666666666663</ele><time>2026-04-25T10:36:54.955Z</time></trkpt><trkpt lat="46.150035" lon="12.227835"><ele>384.3333333333333</ele><time>2026-04-25T10:36:55.955Z</time></trkpt><trkpt lat="46.150115" lon="12.2279083"><ele>384.0</ele><time>2026-04-25T10:36:56.955Z</time></trkpt><trkpt lat="46.1502" lon="12.2279883"><ele>384.0</ele><time>2026-04-25T10:36:57.955Z</time></trkpt><trkpt lat="46.1502833" lon="12.2280733"><ele>384.0</ele><time>2026-04-25T10:36:58.955Z</time></trkpt><trkpt lat="46.150365" lon="12.228165"><ele>384.0</ele><time>2026-04-25T10:36:59.955Z</time></trkpt><trkpt lat="46.1504467" lon="12.2282533"><ele>384.0</ele><time>2026-04-25T10:37:00.955Z</time></trkpt><trkpt lat="46.15053" lon="12.2283383"><ele>384.0</ele><time>2026-04-25T10:37:01.955Z</time></trkpt><trkpt lat="46.1506133" lon="12.2284267"><ele>383.6</ele><time>2026-04-25T10:37:02.954Z</time></trkpt><trkpt lat="46.15069" lon="12.2285167"><ele>383.2</ele><time>2026-04-25T10:37:03.956Z</time></trkpt><trkpt lat="46.150765" lon="12.2286033"><ele>382.8</ele><time>2026-04-25T10:37:04.956Z</time></trkpt><trkpt lat="46.1508417" lon="12.2286867"><ele>382.40000000000003</ele><time>2026-04-25T10:37:05.953Z</time></trkpt><trkpt lat="46.1509217" lon="12.2287717"><ele>382.0</ele><time>2026-04-25T10:37:06.954Z</time></trkpt><trkpt lat="46.1510017" lon="12.22886"><ele>382.0</ele><time>2026-04-25T10:37:07.955Z</time></trkpt><trkpt lat="46.1510867" lon="12.22895"><ele>382.0</ele><time>2026-04-25T10:37:08.954Z</time></trkpt><trkpt lat="46.1511733" lon="12.2290417"><ele>382.0</ele><time>2026-04-25T10:37:09.955Z</time></trkpt><trkpt lat="46.1512567" lon="12.2291367"><ele>382.0</ele><time>2026-04-25T10:37:10.954Z</time></trkpt><trkpt lat="46.1513367" lon="12.22923"><ele>382.0</ele><time>2026-04-25T10:37:11.954Z</time></trkpt><trkpt lat="46.1514167" lon="12.22932"><ele>382.0</ele><time>2026-04-25T10:37:12.954Z</time></trkpt><trkpt lat="46.1514933" lon="12.2294033"><ele>382.0</ele><time>2026-04-25T10:37:13.955Z</time></trkpt><trkpt lat="46.1515683" lon="12.2294817"><ele>382.0</ele><time>2026-04-25T10:37:14.954Z</time></trkpt><trkpt lat="46.15164" lon="12.2295533"><ele>382.0</ele><time>2026-04-25T10:37:15.955Z</time></trkpt><trkpt lat="46.151705" lon="12.229625"><ele>382.0</ele><time>2026-04-25T10:37:16.955Z</time></trkpt><trkpt lat="46.1517683" lon="12.2296967"><ele>382.0</ele><time>2026-04-25T10:37:17.955Z</time></trkpt><trkpt lat="46.15183" lon="12.2297733"><ele>381.8</ele><time>2026-04-25T10:37:18.954Z</time></trkpt><trkpt lat="46.1518883" lon="12.2298617"><ele>381.6</ele><time>2026-04-25T10:37:19.955Z</time></trkpt><trkpt lat="46.15196" lon="12.2299517"><ele>381.40000000000003</ele><time>2026-04-25T10:37:20.955Z</time></trkpt><trkpt lat="46.1520517" lon="12.2300283"><ele>381.20000000000005</ele><time>2026-04-25T10:37:21.955Z</time></trkpt><trkpt lat="46.152155" lon="12.23011"><ele>381.0</ele><time>2026-04-25T10:37:22.955Z</time></trkpt><trkpt lat="46.1522583" lon="12.2302"><ele>381.0</ele><time>2026-04-25T10:37:23.955Z</time></trkpt><trkpt lat="46.152355" lon="12.2302917"><ele>381.0</ele><time>2026-04-25T10:37:24.955Z</time></trkpt><trkpt lat="46.152445" lon="12.230385"><ele>381.0</ele><time>2026-04-25T10:37:25.955Z</time></trkpt><trkpt lat="46.1525317" lon="12.2304783"><ele>381.0</ele><time>2026-04-25T10:37:26.954Z</time></trkpt><trkpt lat="46.15262" lon="12.2305767"><ele>381.0</ele><time>2026-04-25T10:37:27.955Z</time></trkpt><trkpt lat="46.1527067" lon="12.2306783"><ele>380.25</ele><time>2026-04-25T10:37:28.955Z</time></trkpt><trkpt lat="46.1527967" lon="12.230785"><ele>379.5</ele><time>2026-04-25T10:37:29.955Z</time></trkpt><trkpt lat="46.152895" lon="12.2308933"><ele>378.75</ele><time>2026-04-25T10:37:30.955Z</time></trkpt><trkpt lat="46.1529983" lon="12.2310017"><ele>378.0</ele><time>2026-04-25T10:37:31.955Z</time></trkpt><trkpt lat="46.1531033" lon="12.2311117"><ele>377.75</ele><time>2026-04-25T10:37:32.953Z</time></trkpt><trkpt lat="46.1532067" lon="12.231225"><ele>377.5</ele><time>2026-04-25T10:37:33.955Z</time></trkpt><trkpt lat="46.1533117" lon="12.23134"><ele>377.25</ele><time>2026-04-25T10:37:34.955Z</time></trkpt><trkpt lat="46.15342" lon="12.2314517"><ele>377.0</ele><time>2026-04-25T10:37:35.955Z</time></trkpt><trkpt lat="46.1535233" lon="12.23156"><ele>376.75</ele><time>2026-04-25T10:37:36.96Z</time></trkpt><trkpt lat="46.1536283" lon="12.2316667"><ele>376.5</ele><time>2026-04-25T10:37:37.954Z</time></trkpt><trkpt lat="46.153735" lon="12.23178"><ele>376.25</ele><time>2026-04-25T10:37:38.956Z</time></trkpt><trkpt lat="46.15384" lon="12.231895"><ele>376.0</ele><time>2026-04-25T10:37:39.954Z</time></trkpt><trkpt lat="46.153945" lon="12.23201"><ele>375.5</ele><time>2026-04-25T10:37:40.955Z</time></trkpt><trkpt lat="46.1540433" lon="12.2321217"><ele>375.0</ele><time>2026-04-25T10:37:41.955Z</time></trkpt><trkpt lat="46.15414" lon="12.2322317"><ele>374.5</ele><time>2026-04-25T10:37:42.955Z</time></trkpt><trkpt lat="46.1542367" lon="12.2323367"><ele>374.0</ele><time>2026-04-25T10:37:43.955Z</time></trkpt><trkpt lat="46.154335" lon="12.232445"><ele>373.75</ele><time>2026-04-25T10:37:44.955Z</time></trkpt><trkpt lat="46.15444" lon="12.2325633"><ele>373.5</ele><time>2026-04-25T10:37:45.955Z</time></trkpt><trkpt lat="46.1545517" lon="12.2326867"><ele>373.25</ele><time>2026-04-25T10:37:46.956Z</time></trkpt><trkpt lat="46.154665" lon="12.2328083"><ele>373.0</ele><time>2026-04-25T10:37:47.956Z</time></trkpt><trkpt lat="46.154775" lon="12.232925"><ele>373.0</ele><time>2026-04-25T10:37:48.955Z</time></trkpt><trkpt lat="46.1548817" lon="12.233035"><ele>373.0</ele><time>2026-04-25T10:37:49.954Z</time></trkpt><trkpt lat="46.1549867" lon="12.2331383"><ele>373.0</ele><time>2026-04-25T10:37:50.954Z</time></trkpt><trkpt lat="46.15509" lon="12.2332417"><ele>373.0</ele><time>2026-04-25T10:37:51.955Z</time></trkpt><trkpt lat="46.1551933" lon="12.2333433"><ele>373.0</ele><time>2026-04-25T10:37:52.955Z</time></trkpt><trkpt lat="46.1553033" lon="12.2334483"><ele>373.0</ele><time>2026-04-25T10:37:53.954Z</time></trkpt><trkpt lat="46.1554083" lon="12.2335583"><ele>373.0</ele><time>2026-04-25T10:37:54.954Z</time></trkpt><trkpt lat="46.1555133" lon="12.2336683"><ele>373.0</ele><time>2026-04-25T10:37:55.955Z</time></trkpt><trkpt lat="46.1556183" lon="12.233775"><ele>372.5</ele><time>2026-04-25T10:37:56.954Z</time></trkpt><trkpt lat="46.1557217" lon="12.2338783"><ele>372.0</ele><time>2026-04-25T10:37:57.955Z</time></trkpt><trkpt lat="46.15582" lon="12.233985"><ele>371.5</ele><time>2026-04-25T10:37:58.954Z</time></trkpt><trkpt lat="46.1559183" lon="12.23409"><ele>371.0</ele><time>2026-04-25T10:37:59.953Z</time></trkpt><trkpt lat="46.1560133" lon="12.2341983"><ele>371.0</ele><time>2026-04-25T10:38:00.955Z</time></trkpt><trkpt lat="46.15611" lon="12.2343033"><ele>371.0</ele><time>2026-04-25T10:38:01.954Z</time></trkpt><trkpt lat="46.15621" lon="12.2344067"><ele>371.0</ele><time>2026-04-25T10:38:02.954Z</time></trkpt><trkpt lat="46.1563117" lon="12.23451"><ele>371.0</ele><time>2026-04-25T10:38:03.955Z</time></trkpt><trkpt lat="46.1564117" lon="12.234615"><ele>371.0</ele><time>2026-04-25T10:38:04.955Z</time></trkpt><trkpt lat="46.1565133" lon="12.234725"><ele>371.0</ele><time>2026-04-25T10:38:05.957Z</time></trkpt><trkpt lat="46.156615" lon="12.2348383"><ele>371.0</ele><time>2026-04-25T10:38:06.955Z</time></trkpt><trkpt lat="46.1567267" lon="12.2349533"><ele>371.0</ele><time>2026-04-25T10:38:07.956Z</time></trkpt><trkpt lat="46.15684" lon="12.2350733"><ele>371.75</ele><time>2026-04-25T10:38:08.956Z</time></trkpt><trkpt lat="46.15695" lon="12.2352"><ele>372.5</ele><time>2026-04-25T10:38:09.955Z</time></trkpt><trkpt lat="46.15706" lon="12.2353217"><ele>373.25</ele><time>2026-04-25T10:38:10.955Z</time></trkpt><trkpt lat="46.1571683" lon="12.23544"><ele>374.0</ele><time>2026-04-25T10:38:11.955Z</time></trkpt><trkpt lat="46.157275" lon="12.2355583"><ele>373.5</ele><time>2026-04-25T10:38:12.955Z</time></trkpt><trkpt lat="46.15738" lon="12.235675"><ele>373.0</ele><time>2026-04-25T10:38:13.955Z</time></trkpt><trkpt lat="46.1574867" lon="12.2357933"><ele>372.5</ele><time>2026-04-25T10:38:14.954Z</time></trkpt><trkpt lat="46.1575967" lon="12.23591"><ele>372.0</ele><time>2026-04-25T10:38:15.954Z</time></trkpt><trkpt lat="46.1577017" lon="12.2360267"><ele>372.0</ele><time>2026-04-25T10:38:16.956Z</time></trkpt><trkpt lat="46.1578067" lon="12.23614"><ele>372.0</ele><time>2026-04-25T10:38:17.955Z</time></trkpt><trkpt lat="46.1579083" lon="12.2362533"><ele>372.0</ele><time>2026-04-25T10:38:18.954Z</time></trkpt><trkpt lat="46.1580117" lon="12.2363633"><ele>372.0</ele><time>2026-04-25T10:38:19.956Z</time></trkpt><trkpt lat="46.158115" lon="12.2364767"><ele>371.75</ele><time>2026-04-25T10:38:20.956Z</time></trkpt><trkpt lat="46.1582183" lon="12.2365867"><ele>371.5</ele><time>2026-04-25T10:38:21.957Z</time></trkpt><trkpt lat="46.158325" lon="12.2367"><ele>371.25</ele><time>2026-04-25T10:38:22.956Z</time></trkpt><trkpt lat="46.15843" lon="12.2368117"><ele>371.0</ele><time>2026-04-25T10:38:23.954Z</time></trkpt><trkpt lat="46.1585383" lon="12.236925"><ele>371.0</ele><time>2026-04-25T10:38:24.954Z</time></trkpt><trkpt lat="46.1586467" lon="12.2370383"><ele>371.0</ele><time>2026-04-25T10:38:25.956Z</time></trkpt><trkpt lat="46.158755" lon="12.2371533"><ele>371.0</ele><time>2026-04-25T10:38:26.955Z</time></trkpt><trkpt lat="46.1588617" lon="12.2372717"><ele>371.0</ele><time>2026-04-25T10:38:27.955Z</time></trkpt><trkpt lat="46.1589733" lon="12.23739"><ele>371.0</ele><time>2026-04-25T10:38:28.956Z</time></trkpt><trkpt lat="46.1590833" lon="12.237505"><ele>371.0</ele><time>2026-04-25T10:38:29.955Z</time></trkpt><trkpt lat="46.1591933" lon="12.2376233"><ele>371.0</ele><time>2026-04-25T10:38:30.955Z</time></trkpt><trkpt lat="46.1593083" lon="12.23774"><ele>371.0</ele><time>2026-04-25T10:38:31.954Z</time></trkpt><trkpt lat="46.15942" lon="12.2378567"><ele>371.0</ele><time>2026-04-25T10:38:32.955Z</time></trkpt><trkpt lat="46.1595333" lon="12.237975"><ele>371.0</ele><time>2026-04-25T10:38:33.956Z</time></trkpt><trkpt lat="46.1596433" lon="12.2380917"><ele>371.0</ele><time>2026-04-25T10:38:34.955Z</time></trkpt><trkpt lat="46.15975" lon="12.2382067"><ele>371.0</ele><time>2026-04-25T10:38:35.955Z</time></trkpt><trkpt lat="46.1598567" lon="12.2383217"><ele>371.5</ele><time>2026-04-25T10:38:36.956Z</time></trkpt><trkpt lat="46.1599617" lon="12.2384367"><ele>372.0</ele><time>2026-04-25T10:38:37.955Z</time></trkpt><trkpt lat="46.16007" lon="12.2385517"><ele>372.5</ele><time>2026-04-25T10:38:38.955Z</time></trkpt><trkpt lat="46.1601767" lon="12.2386683"><ele>373.0</ele><time>2026-04-25T10:38:39.955Z</time></trkpt><trkpt lat="46.160285" lon="12.2387833"><ele>373.0</ele><time>2026-04-25T10:38:40.957Z</time></trkpt><trkpt lat="46.1603917" lon="12.2389"><ele>373.0</ele><time>2026-04-25T10:38:41.954Z</time></trkpt><trkpt lat="46.1604983" lon="12.239015"><ele>373.0</ele><time>2026-04-25T10:38:42.954Z</time></trkpt><trkpt lat="46.1606083" lon="12.2391333"><ele>373.0</ele><time>2026-04-25T10:38:43.954Z</time></trkpt><trkpt lat="46.16072" lon="12.2392517"><ele>373.5</ele><time>2026-04-25T10:38:44.955Z</time></trkpt><trkpt lat="46.160835" lon="12.2393717"><ele>374.0</ele><time>2026-04-25T10:38:45.956Z</time></trkpt><trkpt lat="46.1609483" lon="12.2394933"><ele>374.5</ele><time>2026-04-25T10:38:46.956Z</time></trkpt><trkpt lat="46.1610633" lon="12.2396117"><ele>375.0</ele><time>2026-04-25T10:38:47.954Z</time></trkpt><trkpt lat="46.161175" lon="12.2397283"><ele>374.75</ele><time>2026-04-25T10:38:48.955Z</time></trkpt><trkpt lat="46.1612833" lon="12.239845"><ele>374.5</ele><time>2026-04-25T10:38:49.956Z</time></trkpt><trkpt lat="46.16139" lon="12.2399617"><ele>374.25</ele><time>2026-04-25T10:38:50.956Z</time></trkpt><trkpt lat="46.1614983" lon="12.2400783"><ele>374.0</ele><time>2026-04-25T10:38:51.957Z</time></trkpt><trkpt lat="46.16161" lon="12.2401967"><ele>374.25</ele><time>2026-04-25T10:38:52.957Z</time></trkpt><trkpt lat="46.1617233" lon="12.2403167"><ele>374.5</ele><time>2026-04-25T10:38:53.957Z</time></trkpt><trkpt lat="46.1618367" lon="12.2404383"><ele>374.75</ele><time>2026-04-25T10:38:54.955Z</time></trkpt><trkpt lat="46.161945" lon="12.2405567"><ele>375.0</ele><time>2026-04-25T10:38:55.956Z</time></trkpt><trkpt lat="46.16205" lon="12.2406667"><ele>375.0</ele><time>2026-04-25T10:38:56.956Z</time></trkpt><trkpt lat="46.1621533" lon="12.2407717"><ele>375.0</ele><time>2026-04-25T10:38:57.957Z</time></trkpt><trkpt lat="46.1622567" lon="12.2408767"><ele>375.0</ele><time>2026-04-25T10:38:58.957Z</time></trkpt><trkpt lat="46.1623567" lon="12.2409883"><ele>375.0</ele><time>2026-04-25T10:38:59.955Z</time></trkpt><trkpt lat="46.1624567" lon="12.2411"><ele>375.0</ele><time>2026-04-25T10:39:00.956Z</time></trkpt><trkpt lat="46.1625533" lon="12.2412133"><ele>375.0</ele><time>2026-04-25T10:39:01.957Z</time></trkpt><trkpt lat="46.16266" lon="12.2413233"><ele>375.0</ele><time>2026-04-25T10:39:02.956Z</time></trkpt><trkpt lat="46.1627667" lon="12.24144"><ele>375.0</ele><time>2026-04-25T10:39:03.957Z</time></trkpt><trkpt lat="46.1628783" lon="12.2415633"><ele>375.0</ele><time>2026-04-25T10:39:04.957Z</time></trkpt><trkpt lat="46.1629933" lon="12.24169"><ele>375.0</ele><time>2026-04-25T10:39:05.956Z</time></trkpt><trkpt lat="46.16311" lon="12.24182"><ele>375.0</ele><time>2026-04-25T10:39:06.955Z</time></trkpt><trkpt lat="46.16323" lon="12.24195"><ele>375.0</ele><time>2026-04-25T10:39:07.956Z</time></trkpt><trkpt lat="46.1633483" lon="12.2420783"><ele>375.0</ele><time>2026-04-25T10:39:08.956Z</time></trkpt><trkpt lat="46.1634633" lon="12.242205"><ele>375.0</ele><time>2026-04-25T10:39:09.956Z</time></trkpt><trkpt lat="46.1635767" lon="12.24233"><ele>375.0</ele><time>2026-04-25T10:39:10.957Z</time></trkpt><trkpt lat="46.1636967" lon="12.2424533"><ele>375.0</ele><time>2026-04-25T10:39:11.956Z</time></trkpt><trkpt lat="46.163815" lon="12.2425817"><ele>375.0</ele><time>2026-04-25T10:39:12.956Z</time></trkpt><trkpt lat="46.1639333" lon="12.2427083"><ele>375.0</ele><time>2026-04-25T10:39:13.955Z</time></trkpt><trkpt lat="46.1640533" lon="12.242835"><ele>375.0</ele><time>2026-04-25T10:39:14.955Z</time></trkpt><trkpt lat="46.1641733" lon="12.2429617"><ele>375.0</ele><time>2026-04-25T10:39:15.955Z</time></trkpt><trkpt lat="46.1642883" lon="12.2430833"><ele>375.5</ele><time>2026-04-25T10:39:16.955Z</time></trkpt><trkpt lat="46.1644083" lon="12.2432067"><ele>376.0</ele><time>2026-04-25T10:39:17.955Z</time></trkpt><trkpt lat="46.1645267" lon="12.2433283"><ele>376.5</ele><time>2026-04-25T10:39:18.955Z</time></trkpt><trkpt lat="46.1646417" lon="12.2434567"><ele>377.0</ele><time>2026-04-25T10:39:19.956Z</time></trkpt><trkpt lat="46.1647533" lon="12.243585"><ele>377.5</ele><time>2026-04-25T10:39:20.955Z</time></trkpt><trkpt lat="46.1648683" lon="12.2437117"><ele>378.0</ele><time>2026-04-25T10:39:21.954Z</time></trkpt><trkpt lat="46.1649833" lon="12.2438367"><ele>378.5</ele><time>2026-04-25T10:39:22.957Z</time></trkpt><trkpt lat="46.1651" lon="12.2439617"><ele>379.0</ele><time>2026-04-25T10:39:23.956Z</time></trkpt><trkpt lat="46.165215" lon="12.2440817"><ele>379.0</ele><time>2026-04-25T10:39:24.955Z</time></trkpt><trkpt lat="46.1653283" lon="12.2442"><ele>379.0</ele><time>2026-04-25T10:39:25.956Z</time></trkpt><trkpt lat="46.1654417" lon="12.24432"><ele>379.0</ele><time>2026-04-25T10:39:26.955Z</time></trkpt><trkpt lat="46.1655533" lon="12.24444"><ele>379.0</ele><time>2026-04-25T10:39:27.956Z</time></trkpt><trkpt lat="46.1656683" lon="12.24456"><ele>379.25</ele><time>2026-04-25T10:39:28.956Z</time></trkpt><trkpt lat="46.1657817" lon="12.2446767"><ele>379.5</ele><time>2026-04-25T10:39:29.955Z</time></trkpt><trkpt lat="46.1658917" lon="12.2447933"><ele>379.75</ele><time>2026-04-25T10:39:30.956Z</time></trkpt><trkpt lat="46.166" lon="12.24491"><ele>380.0</ele><time>2026-04-25T10:39:31.955Z</time></trkpt><trkpt lat="46.1661067" lon="12.2450233"><ele>380.0</ele><time>2026-04-25T10:39:32.955Z</time></trkpt><trkpt lat="46.1662133" lon="12.2451333"><ele>380.0</ele><time>2026-04-25T10:39:33.956Z</time></trkpt><trkpt lat="46.1663167" lon="12.2452417"><ele>380.0</ele><time>2026-04-25T10:39:34.956Z</time></trkpt><trkpt lat="46.1664183" lon="12.24535"><ele>380.0</ele><time>2026-04-25T10:39:35.956Z</time></trkpt><trkpt lat="46.1665183" lon="12.2454583"><ele>380.0</ele><time>2026-04-25T10:39:36.955Z</time></trkpt><trkpt lat="46.1666167" lon="12.2455683"><ele>380.0</ele><time>2026-04-25T10:39:37.957Z</time></trkpt><trkpt lat="46.1667167" lon="12.24568"><ele>380.0</ele><time>2026-04-25T10:39:38.956Z</time></trkpt><trkpt lat="46.166815" lon="12.2457967"><ele>380.0</ele><time>2026-04-25T10:39:39.957Z</time></trkpt><trkpt lat="46.1669117" lon="12.2459217"><ele>380.0</ele><time>2026-04-25T10:39:40.957Z</time></trkpt><trkpt lat="46.1670133" lon="12.246055"><ele>380.0</ele><time>2026-04-25T10:39:41.954Z</time></trkpt><trkpt lat="46.1671167" lon="12.2461983"><ele>380.0</ele><time>2026-04-25T10:39:42.955Z</time></trkpt><trkpt lat="46.167215" lon="12.2463533"><ele>380.0</ele><time>2026-04-25T10:39:43.955Z</time></trkpt><trkpt lat="46.167305" lon="12.2465167"><ele>380.0</ele><time>2026-04-25T10:39:44.956Z</time></trkpt><trkpt lat="46.1673883" lon="12.2466817"><ele>380.0</ele><time>2026-04-25T10:39:45.955Z</time></trkpt><trkpt lat="46.16747" lon="12.2468467"><ele>380.0</ele><time>2026-04-25T10:39:46.956Z</time></trkpt><trkpt lat="46.1675483" lon="12.2470133"><ele>380.0</ele><time>2026-04-25T10:39:47.956Z</time></trkpt><trkpt lat="46.16763" lon="12.24718"><ele>379.5</ele><time>2026-04-25T10:39:48.957Z</time></trkpt><trkpt lat="46.1677083" lon="12.2473433"><ele>379.0</ele><time>2026-04-25T10:39:49.955Z</time></trkpt><trkpt lat="46.1677867" lon="12.247505"><ele>378.5</ele><time>2026-04-25T10:39:50.957Z</time></trkpt><trkpt lat="46.1678633" lon="12.2476617"><ele>378.0</ele><time>2026-04-25T10:39:51.957Z</time></trkpt><trkpt lat="46.1679367" lon="12.2478167"><ele>378.0</ele><time>2026-04-25T10:39:52.957Z</time></trkpt><trkpt lat="46.1680117" lon="12.2479683"><ele>378.0</ele><time>2026-04-25T10:39:53.957Z</time></trkpt><trkpt lat="46.1680867" lon="12.24812"><ele>378.0</ele><time>2026-04-25T10:39:54.957Z</time></trkpt><trkpt lat="46.1681617" lon="12.2482717"><ele>378.0</ele><time>2026-04-25T10:39:55.957Z</time></trkpt><trkpt lat="46.1682333" lon="12.24842"><ele>378.2</ele><time>2026-04-25T10:39:56.956Z</time></trkpt><trkpt lat="46.1683033" lon="12.2485633"><ele>378.4</ele><time>2026-04-25T10:39:57.957Z</time></trkpt><trkpt lat="46.1683667" lon="12.2486967"><ele>378.59999999999997</ele><time>2026-04-25T10:39:58.957Z</time></trkpt><trkpt lat="46.1684283" lon="12.2488217"><ele>378.79999999999995</ele><time>2026-04-25T10:39:59.957Z</time></trkpt><trkpt lat="46.1684833" lon="12.2489367"><ele>379.0</ele><time>2026-04-25T10:40:00.955Z</time></trkpt><trkpt lat="46.1685367" lon="12.24905"><ele>379.0</ele><time>2026-04-25T10:40:01.958Z</time></trkpt><trkpt lat="46.1685883" lon="12.2491583"><ele>379.0</ele><time>2026-04-25T10:40:02.955Z</time></trkpt><trkpt lat="46.1686383" lon="12.2492617"><ele>379.0</ele><time>2026-04-25T10:40:03.954Z</time></trkpt><trkpt lat="46.16869" lon="12.249365"><ele>379.0</ele><time>2026-04-25T10:40:04.956Z</time></trkpt><trkpt lat="46.16874" lon="12.2494633"><ele>379.0</ele><time>2026-04-25T10:40:05.955Z</time></trkpt><trkpt lat="46.1687867" lon="12.249555"><ele>379.0</ele><time>2026-04-25T10:40:06.954Z</time></trkpt><trkpt lat="46.1688233" lon="12.2496333"><ele>379.0</ele><time>2026-04-25T10:40:07.955Z</time></trkpt><trkpt lat="46.16887" lon="12.2497317"><ele>379.0</ele><time>2026-04-25T10:40:09.955Z</time></trkpt><trkpt lat="46.1689117" lon="12.24988"><ele>379.0</ele><time>2026-04-25T10:40:13.955Z</time></trkpt><trkpt lat="46.16897" lon="12.2500267"><ele>379.0</ele><time>2026-04-25T10:40:15.955Z</time></trkpt><trkpt lat="46.16902" lon="12.25009"><ele>379.0</ele><time>2026-04-25T10:40:16.955Z</time></trkpt><trkpt lat="46.1690767" lon="12.2501567"><ele>379.2</ele><time>2026-04-25T10:40:17.956Z</time></trkpt><trkpt lat="46.1691333" lon="12.250245"><ele>379.4</ele><time>2026-04-25T10:40:18.955Z</time></trkpt><trkpt lat="46.1691867" lon="12.2503567"><ele>379.6</ele><time>2026-04-25T10:40:19.956Z</time></trkpt><trkpt lat="46.1692467" lon="12.2504883"><ele>379.8</ele><time>2026-04-25T10:40:20.955Z</time></trkpt><trkpt lat="46.1693167" lon="12.2506433"><ele>380.0</ele><time>2026-04-25T10:40:21.956Z</time></trkpt><trkpt lat="46.1694" lon="12.2508217"><ele>380.33333333333337</ele><time>2026-04-25T10:40:22.956Z</time></trkpt><trkpt lat="46.1694917" lon="12.251015"><ele>380.6666666666667</ele><time>2026-04-25T10:40:23.955Z</time></trkpt><trkpt lat="46.16959" lon="12.2512183"><ele>381.0</ele><time>2026-04-25T10:40:24.956Z</time></trkpt><trkpt lat="46.1696917" lon="12.2514367"><ele>380.6666666666667</ele><time>2026-04-25T10:40:25.957Z</time></trkpt><trkpt lat="46.1697983" lon="12.2516683"><ele>380.33333333333337</ele><time>2026-04-25T10:40:26.956Z</time></trkpt><trkpt lat="46.1699083" lon="12.2519033"><ele>380.0</ele><time>2026-04-25T10:40:27.956Z</time></trkpt><trkpt lat="46.1700217" lon="12.2521417"><ele>381.0</ele><time>2026-04-25T10:40:28.956Z</time></trkpt><trkpt lat="46.1701367" lon="12.2523817"><ele>382.0</ele><time>2026-04-25T10:40:29.956Z</time></trkpt><trkpt lat="46.17026" lon="12.25263"><ele>383.0</ele><time>2026-04-25T10:40:30.958Z</time></trkpt><trkpt lat="46.170395" lon="12.2529017"><ele>383.0</ele><time>2026-04-25T10:40:31.957Z</time></trkpt><trkpt lat="46.1705367" lon="12.2531983"><ele>383.0</ele><time>2026-04-25T10:40:32.956Z</time></trkpt><trkpt lat="46.1706833" lon="12.25352"><ele>383.0</ele><time>2026-04-25T10:40:33.954Z</time></trkpt><trkpt lat="46.1708333" lon="12.2538467"><ele>383.0</ele><time>2026-04-25T10:40:34.955Z</time></trkpt><trkpt lat="46.170985" lon="12.2541617"><ele>383.0</ele><time>2026-04-25T10:40:35.956Z</time></trkpt><trkpt lat="46.1711283" lon="12.2544567"><ele>383.0</ele><time>2026-04-25T10:40:36.956Z</time></trkpt><trkpt lat="46.17126" lon="12.25473"><ele>383.6666666666667</ele><time>2026-04-25T10:40:37.957Z</time></trkpt><trkpt lat="46.1713767" lon="12.25498"><ele>384.33333333333337</ele><time>2026-04-25T10:40:38.955Z</time></trkpt><trkpt lat="46.171485" lon="12.2552033"><ele>385.0</ele><time>2026-04-25T10:40:39.955Z</time></trkpt><trkpt lat="46.1715833" lon="12.2554133"><ele>385.0</ele><time>2026-04-25T10:40:40.956Z</time></trkpt><trkpt lat="46.171675" lon="12.2556117"><ele>385.0</ele><time>2026-04-25T10:40:41.955Z</time></trkpt><trkpt lat="46.1717667" lon="12.2558117"><ele>385.0</ele><time>2026-04-25T10:40:42.956Z</time></trkpt><trkpt lat="46.1718617" lon="12.2560133"><ele>384.0</ele><time>2026-04-25T10:40:43.956Z</time></trkpt><trkpt lat="46.1719617" lon="12.2562167"><ele>383.0</ele><time>2026-04-25T10:40:44.955Z</time></trkpt><trkpt lat="46.1720567" lon="12.2564183"><ele>382.0</ele><time>2026-04-25T10:40:45.956Z</time></trkpt><trkpt lat="46.1721533" lon="12.2566183"><ele>381.3333333333333</ele><time>2026-04-25T10:40:46.957Z</time></trkpt><trkpt lat="46.1722483" lon="12.2568183"><ele>380.6666666666667</ele><time>2026-04-25T10:40:47.955Z</time></trkpt><trkpt lat="46.17235" lon="12.2570217"><ele>380.0</ele><time>2026-04-25T10:40:48.956Z</time></trkpt><trkpt lat="46.1724483" lon="12.2572267"><ele>381.6666666666667</ele><time>2026-04-25T10:40:49.955Z</time></trkpt><trkpt lat="46.1725483" lon="12.2574367"><ele>383.33333333333337</ele><time>2026-04-25T10:40:50.956Z</time></trkpt><trkpt lat="46.1726483" lon="12.2576483"><ele>385.0</ele><time>2026-04-25T10:40:51.956Z</time></trkpt><trkpt lat="46.1727517" lon="12.2578617"><ele>385.0</ele><time>2026-04-25T10:40:52.956Z</time></trkpt><trkpt lat="46.1728567" lon="12.2580783"><ele>385.0</ele><time>2026-04-25T10:40:53.955Z</time></trkpt><trkpt lat="46.172965" lon="12.2582983"><ele>385.0</ele><time>2026-04-25T10:40:54.955Z</time></trkpt><trkpt lat="46.1730717" lon="12.2585233"><ele>385.0</ele><time>2026-04-25T10:40:55.957Z</time></trkpt><trkpt lat="46.1731783" lon="12.2587467"><ele>385.0</ele><time>2026-04-25T10:40:56.955Z</time></trkpt><trkpt lat="46.1732817" lon="12.2589717"><ele>385.0</ele><time>2026-04-25T10:40:57.956Z</time></trkpt><trkpt lat="46.17338" lon="12.2592017"><ele>385.0</ele><time>2026-04-25T10:40:58.957Z</time></trkpt><trkpt lat="46.1734717" lon="12.2594383"><ele>385.0</ele><time>2026-04-25T10:40:59.955Z</time></trkpt><trkpt lat="46.1735533" lon="12.259685"><ele>385.0</ele><time>2026-04-25T10:41:00.956Z</time></trkpt><trkpt lat="46.1736317" lon="12.2599383"><ele>384.33333333333337</ele><time>2026-04-25T10:41:01.956Z</time></trkpt><trkpt lat="46.1737033" lon="12.2601983"><ele>383.6666666666667</ele><time>2026-04-25T10:41:02.956Z</time></trkpt><trkpt lat="46.1737733" lon="12.2604617"><ele>383.0</ele><time>2026-04-25T10:41:03.955Z</time></trkpt><trkpt lat="46.1738417" lon="12.26072"><ele>382.0</ele><time>2026-04-25T10:41:04.956Z</time></trkpt><trkpt lat="46.1739133" lon="12.2609717"><ele>381.0</ele><time>2026-04-25T10:41:05.955Z</time></trkpt><trkpt lat="46.1739833" lon="12.2612183"><ele>380.0</ele><time>2026-04-25T10:41:06.957Z</time></trkpt><trkpt lat="46.1740567" lon="12.2614583"><ele>383.0</ele><time>2026-04-25T10:41:07.956Z</time></trkpt><trkpt lat="46.1741433" lon="12.2616933"><ele>386.0</ele><time>2026-04-25T10:41:08.955Z</time></trkpt><trkpt lat="46.17424" lon="12.26192"><ele>389.0</ele><time>2026-04-25T10:41:09.956Z</time></trkpt><trkpt lat="46.17434" lon="12.262145"><ele>387.0</ele><time>2026-04-25T10:41:10.956Z</time></trkpt><trkpt lat="46.1744417" lon="12.262365"><ele>385.0</ele><time>2026-04-25T10:41:11.955Z</time></trkpt><trkpt lat="46.17454" lon="12.262585"><ele>383.0</ele><time>2026-04-25T10:41:12.956Z</time></trkpt><trkpt lat="46.1746417" lon="12.2628017"><ele>383.0</ele><time>2026-04-25T10:41:13.954Z</time></trkpt><trkpt lat="46.17474" lon="12.2630167"><ele>383.0</ele><time>2026-04-25T10:41:14.955Z</time></trkpt><trkpt lat="46.1748383" lon="12.2632267"><ele>383.0</ele><time>2026-04-25T10:41:15.955Z</time></trkpt><trkpt lat="46.1749417" lon="12.26343"><ele>386.33333333333337</ele><time>2026-04-25T10:41:16.955Z</time></trkpt><trkpt lat="46.175055" lon="12.2636267"><ele>389.6666666666667</ele><time>2026-04-25T10:41:17.956Z</time></trkpt><trkpt lat="46.175175" lon="12.2638217"><ele>393.0</ele><time>2026-04-25T10:41:18.955Z</time></trkpt><trkpt lat="46.1752967" lon="12.2640117"><ele>393.0</ele><time>2026-04-25T10:41:19.957Z</time></trkpt><trkpt lat="46.17543" lon="12.2641933"><ele>393.0</ele><time>2026-04-25T10:41:20.958Z</time></trkpt><trkpt lat="46.1755683" lon="12.2643733"><ele>393.0</ele><time>2026-04-25T10:41:21.955Z</time></trkpt><trkpt lat="46.1757133" lon="12.2645517"><ele>394.33333333333337</ele><time>2026-04-25T10:41:22.956Z</time></trkpt><trkpt lat="46.1758633" lon="12.26473"><ele>395.6666666666667</ele><time>2026-04-25T10:41:23.955Z</time></trkpt><trkpt lat="46.17601" lon="12.2649033"><ele>397.0</ele><time>2026-04-25T10:41:24.956Z</time></trkpt><trkpt lat="46.1761483" lon="12.2650717"><ele>397.0</ele><time>2026-04-25T10:41:25.956Z</time></trkpt><trkpt lat="46.1762883" lon="12.265235"><ele>397.0</ele><time>2026-04-25T10:41:26.955Z</time></trkpt><trkpt lat="46.1764233" lon="12.2654017"><ele>397.0</ele><time>2026-04-25T10:41:27.955Z</time></trkpt><trkpt lat="46.1765617" lon="12.2655717"><ele>396.6666666666667</ele><time>2026-04-25T10:41:28.956Z</time></trkpt><trkpt lat="46.1766983" lon="12.26574"><ele>396.33333333333337</ele><time>2026-04-25T10:41:29.955Z</time></trkpt><trkpt lat="46.1768333" lon="12.2659017"><ele>396.0</ele><time>2026-04-25T10:41:30.955Z</time></trkpt><trkpt lat="46.1769667" lon="12.26606"><ele>396.0</ele><time>2026-04-25T10:41:31.957Z</time></trkpt><trkpt lat="46.1770983" lon="12.26622"><ele>396.0</ele><time>2026-04-25T10:41:32.956Z</time></trkpt><trkpt lat="46.1772317" lon="12.266375"><ele>396.0</ele><time>2026-04-25T10:41:33.955Z</time></trkpt><trkpt lat="46.1773583" lon="12.2665283"><ele>396.0</ele><time>2026-04-25T10:41:34.955Z</time></trkpt><trkpt lat="46.177485" lon="12.26668"><ele>396.0</ele><time>2026-04-25T10:41:35.956Z</time></trkpt><trkpt lat="46.1776083" lon="12.26683"><ele>396.0</ele><time>2026-04-25T10:41:36.956Z</time></trkpt><trkpt lat="46.1777317" lon="12.2669767"><ele>396.0</ele><time>2026-04-25T10:41:37.956Z</time></trkpt><trkpt lat="46.1778583" lon="12.2671233"><ele>396.0</ele><time>2026-04-25T10:41:38.956Z</time></trkpt><trkpt lat="46.17798" lon="12.2672683"><ele>396.0</ele><time>2026-04-25T10:41:39.955Z</time></trkpt><trkpt lat="46.1781" lon="12.2674117"><ele>396.33333333333337</ele><time>2026-04-25T10:41:40.956Z</time></trkpt><trkpt lat="46.1782183" lon="12.267555"><ele>396.6666666666667</ele><time>2026-04-25T10:41:41.956Z</time></trkpt><trkpt lat="46.1783383" lon="12.2677017"><ele>397.0</ele><time>2026-04-25T10:41:42.954Z</time></trkpt><trkpt lat="46.17847" lon="12.26786"><ele>397.0</ele><time>2026-04-25T10:41:43.954Z</time></trkpt><trkpt lat="46.1786133" lon="12.2680267"><ele>397.0</ele><time>2026-04-25T10:41:44.953Z</time></trkpt><trkpt lat="46.1787667" lon="12.268205"><ele>397.0</ele><time>2026-04-25T10:41:45.954Z</time></trkpt><trkpt lat="46.1789383" lon="12.26839"><ele>396.0</ele><time>2026-04-25T10:41:46.954Z</time></trkpt><trkpt lat="46.179115" lon="12.268585"><ele>395.0</ele><time>2026-04-25T10:41:47.954Z</time></trkpt><trkpt lat="46.1792933" lon="12.2687917"><ele>392.3333333333333</ele><time>2026-04-25T10:41:48.955Z</time></trkpt><trkpt lat="46.1794683" lon="12.2690033"><ele>389.66666666666663</ele><time>2026-04-25T10:41:49.955Z</time></trkpt><trkpt lat="46.1796367" lon="12.2692083"><ele>387.0</ele><time>2026-04-25T10:41:50.954Z</time></trkpt><trkpt lat="46.1797967" lon="12.269405"><ele>388.33333333333337</ele><time>2026-04-25T10:41:51.955Z</time></trkpt><trkpt lat="46.1799517" lon="12.2695933"><ele>389.6666666666667</ele><time>2026-04-25T10:41:52.955Z</time></trkpt><trkpt lat="46.1801" lon="12.2697733"><ele>391.0</ele><time>2026-04-25T10:41:53.954Z</time></trkpt><trkpt lat="46.180245" lon="12.2699533"><ele>391.0</ele><time>2026-04-25T10:41:54.955Z</time></trkpt><trkpt lat="46.18038" lon="12.2701433"><ele>391.0</ele><time>2026-04-25T10:41:55.955Z</time></trkpt><trkpt lat="46.1805133" lon="12.2703433"><ele>391.0</ele><time>2026-04-25T10:41:56.954Z</time></trkpt><trkpt lat="46.1806367" lon="12.270555"><ele>391.6666666666667</ele><time>2026-04-25T10:41:57.954Z</time></trkpt><trkpt lat="46.1807483" lon="12.27077"><ele>392.33333333333337</ele><time>2026-04-25T10:41:58.954Z</time></trkpt><trkpt lat="46.1808567" lon="12.27099"><ele>393.0</ele><time>2026-04-25T10:41:59.955Z</time></trkpt><trkpt lat="46.1809567" lon="12.27122"><ele>393.0</ele><time>2026-04-25T10:42:00.954Z</time></trkpt><trkpt lat="46.181045" lon="12.271455"><ele>393.0</ele><time>2026-04-25T10:42:01.955Z</time></trkpt><trkpt lat="46.18112" lon="12.2716933"><ele>393.0</ele><time>2026-04-25T10:42:02.954Z</time></trkpt><trkpt lat="46.1811817" lon="12.27194"><ele>393.0</ele><time>2026-04-25T10:42:03.954Z</time></trkpt><trkpt lat="46.1812333" lon="12.27219"><ele>393.0</ele><time>2026-04-25T10:42:04.954Z</time></trkpt><trkpt lat="46.1812717" lon="12.2724367"><ele>393.0</ele><time>2026-04-25T10:42:05.953Z</time></trkpt><trkpt lat="46.1812983" lon="12.2726733"><ele>394.0</ele><time>2026-04-25T10:42:06.953Z</time></trkpt><trkpt lat="46.1813133" lon="12.2729017"><ele>395.0</ele><time>2026-04-25T10:42:07.955Z</time></trkpt><trkpt lat="46.18132" lon="12.2731267"><ele>396.0</ele><time>2026-04-25T10:42:08.955Z</time></trkpt><trkpt lat="46.1813133" lon="12.27334"><ele>396.0</ele><time>2026-04-25T10:42:09.954Z</time></trkpt><trkpt lat="46.181305" lon="12.2735433"><ele>396.0</ele><time>2026-04-25T10:42:10.955Z</time></trkpt><trkpt lat="46.1812867" lon="12.2737483"><ele>396.0</ele><time>2026-04-25T10:42:11.954Z</time></trkpt><trkpt lat="46.1812617" lon="12.27396"><ele>396.0</ele><time>2026-04-25T10:42:12.955Z</time></trkpt><trkpt lat="46.18123" lon="12.2741767"><ele>396.0</ele><time>2026-04-25T10:42:13.955Z</time></trkpt><trkpt lat="46.181195" lon="12.2743983"><ele>396.0</ele><time>2026-04-25T10:42:14.955Z</time></trkpt><trkpt lat="46.18116" lon="12.27461"><ele>396.0</ele><time>2026-04-25T10:42:15.955Z</time></trkpt><trkpt lat="46.181125" lon="12.274815"><ele>395.8</ele><time>2026-04-25T10:42:16.956Z</time></trkpt><trkpt lat="46.1810917" lon="12.2750017"><ele>395.6</ele><time>2026-04-25T10:42:17.955Z</time></trkpt><trkpt lat="46.1810617" lon="12.2751667"><ele>395.4</ele><time>2026-04-25T10:42:18.955Z</time></trkpt><trkpt lat="46.1810367" lon="12.275305"><ele>395.2</ele><time>2026-04-25T10:42:19.955Z</time></trkpt><trkpt lat="46.1810117" lon="12.2754217"><ele>395.0</ele><time>2026-04-25T10:42:20.954Z</time></trkpt><trkpt lat="46.1809883" lon="12.2755333"><ele>395.25</ele><time>2026-04-25T10:42:21.955Z</time></trkpt><trkpt lat="46.1809583" lon="12.2756567"><ele>395.5</ele><time>2026-04-25T10:42:22.955Z</time></trkpt><trkpt lat="46.18093" lon="12.2758117"><ele>395.75</ele><time>2026-04-25T10:42:23.956Z</time></trkpt><trkpt lat="46.18091" lon="12.27599"><ele>396.0</ele><time>2026-04-25T10:42:24.955Z</time></trkpt><trkpt lat="46.1808883" lon="12.27618"><ele>396.0</ele><time>2026-04-25T10:42:25.954Z</time></trkpt><trkpt lat="46.1808617" lon="12.2763783"><ele>396.0</ele><time>2026-04-25T10:42:26.953Z</time></trkpt><trkpt lat="46.18083" lon="12.276585"><ele>396.0</ele><time>2026-04-25T10:42:27.955Z</time></trkpt><trkpt lat="46.1807967" lon="12.2767967"><ele>396.0</ele><time>2026-04-25T10:42:28.955Z</time></trkpt><trkpt lat="46.180765" lon="12.2770117"><ele>396.5</ele><time>2026-04-25T10:42:29.955Z</time></trkpt><trkpt lat="46.18073" lon="12.2772233"><ele>397.0</ele><time>2026-04-25T10:42:30.955Z</time></trkpt><trkpt lat="46.1807" lon="12.2774283"><ele>397.5</ele><time>2026-04-25T10:42:31.955Z</time></trkpt><trkpt lat="46.1806667" lon="12.2776267"><ele>398.0</ele><time>2026-04-25T10:42:32.954Z</time></trkpt><trkpt lat="46.1806367" lon="12.27783"><ele>398.0</ele><time>2026-04-25T10:42:33.954Z</time></trkpt><trkpt lat="46.1806033" lon="12.2780333"><ele>398.0</ele><time>2026-04-25T10:42:34.955Z</time></trkpt><trkpt lat="46.1805733" lon="12.278225"><ele>398.0</ele><time>2026-04-25T10:42:35.956Z</time></trkpt><trkpt lat="46.1805417" lon="12.2784"><ele>398.0</ele><time>2026-04-25T10:42:36.955Z</time></trkpt><trkpt lat="46.1805133" lon="12.2785633"><ele>398.3333333333333</ele><time>2026-04-25T10:42:37.955Z</time></trkpt><trkpt lat="46.1804917" lon="12.278705"><ele>398.66666666666663</ele><time>2026-04-25T10:42:38.954Z</time></trkpt><trkpt lat="46.1804733" lon="12.2788317"><ele>399.0</ele><time>2026-04-25T10:42:39.953Z</time></trkpt><trkpt lat="46.1804567" lon="12.2789517"><ele>399.33333333333337</ele><time>2026-04-25T10:42:40.955Z</time></trkpt><trkpt lat="46.1804367" lon="12.2790683"><ele>399.6666666666667</ele><time>2026-04-25T10:42:41.954Z</time></trkpt><trkpt lat="46.180415" lon="12.2791833"><ele>400.0</ele><time>2026-04-25T10:42:42.954Z</time></trkpt><trkpt lat="46.180395" lon="12.2792983"><ele>400.0</ele><time>2026-04-25T10:42:43.955Z</time></trkpt><trkpt lat="46.180375" lon="12.2794117"><ele>400.0</ele><time>2026-04-25T10:42:44.955Z</time></trkpt><trkpt lat="46.180355" lon="12.2795317"><ele>400.0</ele><time>2026-04-25T10:42:45.954Z</time></trkpt><trkpt lat="46.1803383" lon="12.27966"><ele>400.0</ele><time>2026-04-25T10:42:46.956Z</time></trkpt><trkpt lat="46.1803183" lon="12.279795"><ele>400.0</ele><time>2026-04-25T10:42:47.955Z</time></trkpt><trkpt lat="46.1803017" lon="12.2799367"><ele>400.0</ele><time>2026-04-25T10:42:48.955Z</time></trkpt><trkpt lat="46.1802817" lon="12.280085"><ele>400.0</ele><time>2026-04-25T10:42:49.955Z</time></trkpt><trkpt lat="46.18026" lon="12.280235"><ele>400.0</ele><time>2026-04-25T10:42:50.954Z</time></trkpt><trkpt lat="46.18024" lon="12.280385"><ele>400.0</ele><time>2026-04-25T10:42:51.955Z</time></trkpt><trkpt lat="46.1802183" lon="12.280525"><ele>400.0</ele><time>2026-04-25T10:42:52.955Z</time></trkpt><trkpt lat="46.1801983" lon="12.2806533"><ele>400.00000000000006</ele><time>2026-04-25T10:42:53.955Z</time></trkpt><trkpt lat="46.1801767" lon="12.28077"><ele>400.0</ele><time>2026-04-25T10:42:54.956Z</time></trkpt><trkpt lat="46.1801567" lon="12.2808833"><ele>400.0</ele><time>2026-04-25T10:42:55.955Z</time></trkpt><trkpt lat="46.1801383" lon="12.280995"><ele>400.0</ele><time>2026-04-25T10:42:56.955Z</time></trkpt><trkpt lat="46.1801217" lon="12.2811067"><ele>400.00000000000006</ele><time>2026-04-25T10:42:57.953Z</time></trkpt><trkpt lat="46.1801033" lon="12.281215"><ele>400.0</ele><time>2026-04-25T10:42:58.955Z</time></trkpt><trkpt lat="46.1800867" lon="12.281325"><ele>400.00000000000006</ele><time>2026-04-25T10:42:59.954Z</time></trkpt><trkpt lat="46.1800717" lon="12.2814283"><ele>400.0</ele><time>2026-04-25T10:43:00.957Z</time></trkpt><trkpt lat="46.1800567" lon="12.2815317"><ele>400.0</ele><time>2026-04-25T10:43:01.955Z</time></trkpt><trkpt lat="46.1800417" lon="12.2816367"><ele>400.0</ele><time>2026-04-25T10:43:02.954Z</time></trkpt><trkpt lat="46.180025" lon="12.28174"><ele>400.0</ele><time>2026-04-25T10:43:03.954Z</time></trkpt><trkpt lat="46.1800067" lon="12.2818417"><ele>400.00000000000006</ele><time>2026-04-25T10:43:04.955Z</time></trkpt><trkpt lat="46.1799867" lon="12.2819467"><ele>400.0</ele><time>2026-04-25T10:43:05.955Z</time></trkpt><trkpt lat="46.1799683" lon="12.2820533"><ele>400.1666666666667</ele><time>2026-04-25T10:43:06.955Z</time></trkpt><trkpt lat="46.1799517" lon="12.2821617"><ele>400.33333333333337</ele><time>2026-04-25T10:43:07.955Z</time></trkpt><trkpt lat="46.179935" lon="12.2822717"><ele>400.5</ele><time>2026-04-25T10:43:08.955Z</time></trkpt><trkpt lat="46.17992" lon="12.2823767"><ele>400.66666666666663</ele><time>2026-04-25T10:43:09.955Z</time></trkpt><trkpt lat="46.179905" lon="12.2824767"><ele>400.8333333333333</ele><time>2026-04-25T10:43:10.955Z</time></trkpt><trkpt lat="46.17989" lon="12.2825717"><ele>401.0</ele><time>2026-04-25T10:43:11.955Z</time></trkpt><trkpt lat="46.1798617" lon="12.282735"><ele>400.99999999999994</ele><time>2026-04-25T10:43:13.954Z</time></trkpt><trkpt lat="46.1798433" lon="12.282835"><ele>401.0</ele><time>2026-04-25T10:43:15.955Z</time></trkpt><trkpt lat="46.1798167" lon="12.28298"><ele>401.0</ele><time>2026-04-25T10:43:22.955Z</time></trkpt><trkpt lat="46.1797883" lon="12.2831017"><ele>401.0</ele><time>2026-04-25T10:43:24.956Z</time></trkpt><trkpt lat="46.1797233" lon="12.2832317"><ele>400.99999999999994</ele><time>2026-04-25T10:43:26.954Z</time></trkpt><trkpt lat="46.1796683" lon="12.28328"><ele>401.0</ele><time>2026-04-25T10:43:27.959Z</time></trkpt><trkpt lat="46.17961" lon="12.2833183"><ele>401.0</ele><time>2026-04-25T10:43:28.956Z</time></trkpt><trkpt lat="46.179515" lon="12.283435"><ele>401.0</ele><time>2026-04-25T10:43:30.955Z</time></trkpt><trkpt lat="46.179485" lon="12.2836"><ele>401.0</ele><time>2026-04-25T10:43:32.953Z</time></trkpt><trkpt lat="46.1795567" lon="12.283745"><ele>401.0</ele><time>2026-04-25T10:43:34.956Z</time></trkpt><trkpt lat="46.1796317" lon="12.2837717"><ele>401.0</ele><time>2026-04-25T10:43:35.954Z</time></trkpt><trkpt lat="46.179725" lon="12.2837767"><ele>401.0</ele><time>2026-04-25T10:43:36.957Z</time></trkpt><trkpt lat="46.1798183" lon="12.2837917"><ele>401.0</ele><time>2026-04-25T10:43:37.955Z</time></trkpt><trkpt lat="46.1799233" lon="12.28382"><ele>401.0</ele><time>2026-04-25T10:43:38.954Z</time></trkpt><trkpt lat="46.1800467" lon="12.2838583"><ele>401.0</ele><time>2026-04-25T10:43:39.954Z</time></trkpt><trkpt lat="46.1801767" lon="12.2838967"><ele>400.75</ele><time>2026-04-25T10:43:40.956Z</time></trkpt><trkpt lat="46.1803017" lon="12.2839333"><ele>400.5</ele><time>2026-04-25T10:43:41.953Z</time></trkpt><trkpt lat="46.1804267" lon="12.2839683"><ele>400.25</ele><time>2026-04-25T10:43:42.955Z</time></trkpt><trkpt lat="46.1805483" lon="12.2840033"><ele>400.0</ele><time>2026-04-25T10:43:43.955Z</time></trkpt><trkpt lat="46.180665" lon="12.2840417"><ele>400.2</ele><time>2026-04-25T10:43:44.955Z</time></trkpt><trkpt lat="46.1807783" lon="12.2840767"><ele>400.4</ele><time>2026-04-25T10:43:45.955Z</time></trkpt><trkpt lat="46.18089" lon="12.2841083"><ele>400.6</ele><time>2026-04-25T10:43:46.956Z</time></trkpt><trkpt lat="46.1809983" lon="12.2841383"><ele>400.8</ele><time>2026-04-25T10:43:47.954Z</time></trkpt><trkpt lat="46.1811" lon="12.284165"><ele>401.0</ele><time>2026-04-25T10:43:48.954Z</time></trkpt><trkpt lat="46.1812017" lon="12.2841917"><ele>401.0</ele><time>2026-04-25T10:43:49.954Z</time></trkpt><trkpt lat="46.1813033" lon="12.2842183"><ele>401.0</ele><time>2026-04-25T10:43:50.955Z</time></trkpt><trkpt lat="46.181405" lon="12.2842517"><ele>401.0</ele><time>2026-04-25T10:43:51.954Z</time></trkpt><trkpt lat="46.18151" lon="12.284285"><ele>401.0</ele><time>2026-04-25T10:43:52.955Z</time></trkpt><trkpt lat="46.18162" lon="12.2843167"><ele>401.0</ele><time>2026-04-25T10:43:53.954Z</time></trkpt><trkpt lat="46.181735" lon="12.2843483"><ele>400.75</ele><time>2026-04-25T10:43:54.956Z</time></trkpt><trkpt lat="46.1818517" lon="12.28438"><ele>400.5</ele><time>2026-04-25T10:43:55.955Z</time></trkpt><trkpt lat="46.1819683" lon="12.2844083"><ele>400.25</ele><time>2026-04-25T10:43:56.955Z</time></trkpt><trkpt lat="46.18209" lon="12.28444"><ele>400.0</ele><time>2026-04-25T10:43:57.953Z</time></trkpt><trkpt lat="46.1822183" lon="12.284475"><ele>400.25</ele><time>2026-04-25T10:43:58.954Z</time></trkpt><trkpt lat="46.1823517" lon="12.2845133"><ele>400.5</ele><time>2026-04-25T10:43:59.954Z</time></trkpt><trkpt lat="46.182495" lon="12.284555"><ele>400.75</ele><time>2026-04-25T10:44:00.956Z</time></trkpt><trkpt lat="46.1826433" lon="12.2846"><ele>401.0</ele><time>2026-04-25T10:44:01.954Z</time></trkpt><trkpt lat="46.1827933" lon="12.2846483"><ele>401.0</ele><time>2026-04-25T10:44:02.953Z</time></trkpt><trkpt lat="46.1829483" lon="12.284695"><ele>401.0</ele><time>2026-04-25T10:44:03.954Z</time></trkpt><trkpt lat="46.1831067" lon="12.2847433"><ele>401.0</ele><time>2026-04-25T10:44:04.956Z</time></trkpt><trkpt lat="46.1832617" lon="12.2847917"><ele>402.0</ele><time>2026-04-25T10:44:05.955Z</time></trkpt><trkpt lat="46.1834167" lon="12.2848383"><ele>403.0</ele><time>2026-04-25T10:44:06.955Z</time></trkpt><trkpt lat="46.1835717" lon="12.284885"><ele>404.0</ele><time>2026-04-25T10:44:07.955Z</time></trkpt><trkpt lat="46.1837283" lon="12.2849333"><ele>404.0</ele><time>2026-04-25T10:44:08.956Z</time></trkpt><trkpt lat="46.1838883" lon="12.2849783"><ele>404.0</ele><time>2026-04-25T10:44:09.954Z</time></trkpt><trkpt lat="46.1840517" lon="12.2850283"><ele>404.0</ele><time>2026-04-25T10:44:10.956Z</time></trkpt><trkpt lat="46.1842217" lon="12.28508"><ele>403.3333333333333</ele><time>2026-04-25T10:44:11.955Z</time></trkpt><trkpt lat="46.1843933" lon="12.285135"><ele>402.66666666666663</ele><time>2026-04-25T10:44:12.955Z</time></trkpt><trkpt lat="46.1845683" lon="12.2851883"><ele>402.0</ele><time>2026-04-25T10:44:13.956Z</time></trkpt><trkpt lat="46.18474" lon="12.28524"><ele>402.0</ele><time>2026-04-25T10:44:14.956Z</time></trkpt><trkpt lat="46.184905" lon="12.28529"><ele>402.0</ele><time>2026-04-25T10:44:15.956Z</time></trkpt><trkpt lat="46.1850633" lon="12.28534"><ele>402.0</ele><time>2026-04-25T10:44:16.957Z</time></trkpt><trkpt lat="46.1852133" lon="12.2853833"><ele>402.0</ele><time>2026-04-25T10:44:17.956Z</time></trkpt><trkpt lat="46.1853633" lon="12.285425"><ele>402.0</ele><time>2026-04-25T10:44:18.956Z</time></trkpt><trkpt lat="46.18551" lon="12.2854683"><ele>402.0</ele><time>2026-04-25T10:44:19.954Z</time></trkpt><trkpt lat="46.1856583" lon="12.2855117"><ele>402.33333333333337</ele><time>2026-04-25T10:44:20.956Z</time></trkpt><trkpt lat="46.1858067" lon="12.285555"><ele>402.6666666666667</ele><time>2026-04-25T10:44:21.956Z</time></trkpt><trkpt lat="46.1859567" lon="12.2855983"><ele>403.0</ele><time>2026-04-25T10:44:22.955Z</time></trkpt><trkpt lat="46.1861" lon="12.2856417"><ele>403.0</ele><time>2026-04-25T10:44:23.955Z</time></trkpt><trkpt lat="46.186245" lon="12.285685"><ele>403.0</ele><time>2026-04-25T10:44:24.956Z</time></trkpt><trkpt lat="46.1863933" lon="12.28573"><ele>403.0</ele><time>2026-04-25T10:44:25.954Z</time></trkpt><trkpt lat="46.1865467" lon="12.2857767"><ele>403.33333333333337</ele><time>2026-04-25T10:44:26.956Z</time></trkpt><trkpt lat="46.186705" lon="12.285825"><ele>403.66666666666663</ele><time>2026-04-25T10:44:27.955Z</time></trkpt><trkpt lat="46.18687" lon="12.285875"><ele>404.0</ele><time>2026-04-25T10:44:28.955Z</time></trkpt><trkpt lat="46.1870417" lon="12.2859267"><ele>404.0</ele><time>2026-04-25T10:44:29.954Z</time></trkpt><trkpt lat="46.1872133" lon="12.2859833"><ele>404.0</ele><time>2026-04-25T10:44:30.956Z</time></trkpt><trkpt lat="46.1873867" lon="12.2860417"><ele>404.0</ele><time>2026-04-25T10:44:31.956Z</time></trkpt><trkpt lat="46.187565" lon="12.2861017"><ele>404.3333333333333</ele><time>2026-04-25T10:44:32.955Z</time></trkpt><trkpt lat="46.187745" lon="12.2861617"><ele>404.66666666666663</ele><time>2026-04-25T10:44:33.955Z</time></trkpt><trkpt lat="46.1879233" lon="12.2862233"><ele>405.0</ele><time>2026-04-25T10:44:34.956Z</time></trkpt><trkpt lat="46.1881033" lon="12.2862833"><ele>405.0</ele><time>2026-04-25T10:44:35.955Z</time></trkpt><trkpt lat="46.1882833" lon="12.2863367"><ele>405.0</ele><time>2026-04-25T10:44:36.955Z</time></trkpt><trkpt lat="46.1884567" lon="12.28639"><ele>405.0</ele><time>2026-04-25T10:44:37.955Z</time></trkpt><trkpt lat="46.1886317" lon="12.2864383"><ele>405.33333333333337</ele><time>2026-04-25T10:44:38.955Z</time></trkpt><trkpt lat="46.188805" lon="12.2864867"><ele>405.6666666666667</ele><time>2026-04-25T10:44:39.955Z</time></trkpt><trkpt lat="46.1889767" lon="12.2865283"><ele>406.0</ele><time>2026-04-25T10:44:40.955Z</time></trkpt><trkpt lat="46.1891433" lon="12.28656"><ele>406.0</ele><time>2026-04-25T10:44:41.955Z</time></trkpt><trkpt lat="46.1893017" lon="12.2865817"><ele>406.0</ele><time>2026-04-25T10:44:42.956Z</time></trkpt><trkpt lat="46.1894533" lon="12.286595"><ele>406.0</ele><time>2026-04-25T10:44:43.955Z</time></trkpt><trkpt lat="46.1896067" lon="12.2866033"><ele>406.0</ele><time>2026-04-25T10:44:44.954Z</time></trkpt><trkpt lat="46.1897683" lon="12.286605"><ele>406.0</ele><time>2026-04-25T10:44:45.955Z</time></trkpt><trkpt lat="46.1899367" lon="12.2866083"><ele>406.0</ele><time>2026-04-25T10:44:46.955Z</time></trkpt><trkpt lat="46.1901133" lon="12.286615"><ele>406.33333333333337</ele><time>2026-04-25T10:44:47.954Z</time></trkpt><trkpt lat="46.1903017" lon="12.2866233"><ele>406.66666666666663</ele><time>2026-04-25T10:44:48.955Z</time></trkpt><trkpt lat="46.1904983" lon="12.2866333"><ele>407.0</ele><time>2026-04-25T10:44:49.955Z</time></trkpt><trkpt lat="46.1906967" lon="12.2866433"><ele>407.3333333333333</ele><time>2026-04-25T10:44:50.955Z</time></trkpt><trkpt lat="46.1908983" lon="12.286655"><ele>407.66666666666663</ele><time>2026-04-25T10:44:51.956Z</time></trkpt><trkpt lat="46.1910933" lon="12.286665"><ele>408.0</ele><time>2026-04-25T10:44:52.954Z</time></trkpt><trkpt lat="46.19128" lon="12.2866733"><ele>408.0</ele><time>2026-04-25T10:44:53.955Z</time></trkpt><trkpt lat="46.1914583" lon="12.2866817"><ele>408.0</ele><time>2026-04-25T10:44:54.955Z</time></trkpt><trkpt lat="46.1916317" lon="12.28669"><ele>408.0</ele><time>2026-04-25T10:44:55.955Z</time></trkpt><trkpt lat="46.1918" lon="12.2867"><ele>408.33333333333337</ele><time>2026-04-25T10:44:56.956Z</time></trkpt><trkpt lat="46.191965" lon="12.28671"><ele>408.6666666666667</ele><time>2026-04-25T10:44:57.954Z</time></trkpt><trkpt lat="46.1921283" lon="12.2867167"><ele>409.0</ele><time>2026-04-25T10:44:58.955Z</time></trkpt><trkpt lat="46.1922933" lon="12.2867217"><ele>409.33333333333337</ele><time>2026-04-25T10:44:59.953Z</time></trkpt><trkpt lat="46.1924583" lon="12.2867283"><ele>409.66666666666663</ele><time>2026-04-25T10:45:00.955Z</time></trkpt><trkpt lat="46.192625" lon="12.2867383"><ele>410.0</ele><time>2026-04-25T10:45:01.955Z</time></trkpt><trkpt lat="46.192795" lon="12.2867483"><ele>410.0</ele><time>2026-04-25T10:45:02.955Z</time></trkpt><trkpt lat="46.19296" lon="12.28676"><ele>410.0</ele><time>2026-04-25T10:45:03.955Z</time></trkpt><trkpt lat="46.193115" lon="12.28677"><ele>410.0</ele><time>2026-04-25T10:45:04.956Z</time></trkpt><trkpt lat="46.1932617" lon="12.28678"><ele>410.75</ele><time>2026-04-25T10:45:05.955Z</time></trkpt><trkpt lat="46.1934" lon="12.2867883"><ele>411.5</ele><time>2026-04-25T10:45:06.955Z</time></trkpt><trkpt lat="46.1935317" lon="12.2867967"><ele>412.25</ele><time>2026-04-25T10:45:07.955Z</time></trkpt><trkpt lat="46.193655" lon="12.2868067"><ele>413.0</ele><time>2026-04-25T10:45:08.955Z</time></trkpt><trkpt lat="46.1937633" lon="12.2868183"><ele>413.0</ele><time>2026-04-25T10:45:09.955Z</time></trkpt><trkpt lat="46.1938683" lon="12.2868333"><ele>413.0</ele><time>2026-04-25T10:45:10.956Z</time></trkpt><trkpt lat="46.1939733" lon="12.2868583"><ele>413.0</ele><time>2026-04-25T10:45:11.955Z</time></trkpt><trkpt lat="46.194085" lon="12.286865"><ele>413.0</ele><time>2026-04-25T10:45:12.955Z</time></trkpt><trkpt lat="46.194205" lon="12.2868533"><ele>413.0</ele><time>2026-04-25T10:45:13.955Z</time></trkpt><trkpt lat="46.194335" lon="12.286835"><ele>412.0</ele><time>2026-04-25T10:45:14.955Z</time></trkpt><trkpt lat="46.19448" lon="12.28683"><ele>411.0</ele><time>2026-04-25T10:45:15.955Z</time></trkpt><trkpt lat="46.194635" lon="12.2868333"><ele>410.0</ele><time>2026-04-25T10:45:16.956Z</time></trkpt><trkpt lat="46.19479" lon="12.28684"><ele>411.0</ele><time>2026-04-25T10:45:17.954Z</time></trkpt><trkpt lat="46.1949433" lon="12.286845"><ele>412.0</ele><time>2026-04-25T10:45:18.955Z</time></trkpt><trkpt lat="46.1951" lon="12.2868467"><ele>413.0</ele><time>2026-04-25T10:45:19.954Z</time></trkpt><trkpt lat="46.1952533" lon="12.2868483"><ele>413.0</ele><time>2026-04-25T10:45:20.954Z</time></trkpt><trkpt lat="46.195415" lon="12.2868517"><ele>413.0</ele><time>2026-04-25T10:45:21.954Z</time></trkpt><trkpt lat="46.1955833" lon="12.2868467"><ele>413.0</ele><time>2026-04-25T10:45:22.956Z</time></trkpt><trkpt lat="46.19576" lon="12.2868383"><ele>413.0</ele><time>2026-04-25T10:45:23.955Z</time></trkpt><trkpt lat="46.19594" lon="12.28683"><ele>413.0</ele><time>2026-04-25T10:45:24.956Z</time></trkpt><trkpt lat="46.1961267" lon="12.2868183"><ele>413.0</ele><time>2026-04-25T10:45:25.955Z</time></trkpt><trkpt lat="46.1963117" lon="12.286805"><ele>413.0</ele><time>2026-04-25T10:45:26.955Z</time></trkpt><trkpt lat="46.1964983" lon="12.2867917"><ele>413.0</ele><time>2026-04-25T10:45:27.955Z</time></trkpt><trkpt lat="46.1966867" lon="12.2867783"><ele>413.0</ele><time>2026-04-25T10:45:28.954Z</time></trkpt><trkpt lat="46.1968767" lon="12.286765"><ele>411.66666666666663</ele><time>2026-04-25T10:45:29.955Z</time></trkpt><trkpt lat="46.1970667" lon="12.2867517"><ele>410.33333333333337</ele><time>2026-04-25T10:45:30.954Z</time></trkpt><trkpt lat="46.197255" lon="12.28674"><ele>409.0</ele><time>2026-04-25T10:45:31.955Z</time></trkpt><trkpt lat="46.1974433" lon="12.2867283"><ele>408.0</ele><time>2026-04-25T10:45:32.955Z</time></trkpt><trkpt lat="46.1976317" lon="12.286715"><ele>407.0</ele><time>2026-04-25T10:45:33.956Z</time></trkpt><trkpt lat="46.19782" lon="12.2867033"><ele>406.0</ele><time>2026-04-25T10:45:34.955Z</time></trkpt><trkpt lat="46.1980117" lon="12.2866883"><ele>406.0</ele><time>2026-04-25T10:45:35.955Z</time></trkpt><trkpt lat="46.1982017" lon="12.2866733"><ele>406.0</ele><time>2026-04-25T10:45:36.955Z</time></trkpt><trkpt lat="46.1983967" lon="12.2866567"><ele>406.0</ele><time>2026-04-25T10:45:37.956Z</time></trkpt><trkpt lat="46.1985933" lon="12.2866417"><ele>406.0</ele><time>2026-04-25T10:45:38.955Z</time></trkpt><trkpt lat="46.1987867" lon="12.2866283"><ele>406.0</ele><time>2026-04-25T10:45:39.954Z</time></trkpt><trkpt lat="46.1989783" lon="12.286615"><ele>406.0</ele><time>2026-04-25T10:45:40.956Z</time></trkpt><trkpt lat="46.19917" lon="12.2866017"><ele>407.6666666666667</ele><time>2026-04-25T10:45:41.956Z</time></trkpt><trkpt lat="46.19936" lon="12.286585"><ele>409.33333333333337</ele><time>2026-04-25T10:45:42.955Z</time></trkpt><trkpt lat="46.199545" lon="12.28657"><ele>411.0</ele><time>2026-04-25T10:45:43.956Z</time></trkpt><trkpt lat="46.19973" lon="12.2865533"><ele>410.66666666666663</ele><time>2026-04-25T10:45:44.956Z</time></trkpt><trkpt lat="46.1999217" lon="12.2865383"><ele>410.3333333333333</ele><time>2026-04-25T10:45:45.956Z</time></trkpt><trkpt lat="46.2001217" lon="12.2865233"><ele>410.0</ele><time>2026-04-25T10:45:46.956Z</time></trkpt><trkpt lat="46.2003267" lon="12.28651"><ele>410.0</ele><time>2026-04-25T10:45:47.957Z</time></trkpt><trkpt lat="46.20054" lon="12.2864983"><ele>410.0</ele><time>2026-04-25T10:45:48.955Z</time></trkpt><trkpt lat="46.2007567" lon="12.2864833"><ele>410.0</ele><time>2026-04-25T10:45:49.956Z</time></trkpt><trkpt lat="46.20098" lon="12.28647"><ele>409.5</ele><time>2026-04-25T10:45:50.955Z</time></trkpt><trkpt lat="46.2012067" lon="12.2864533"><ele>409.0</ele><time>2026-04-25T10:45:51.955Z</time></trkpt><trkpt lat="46.201435" lon="12.28643"><ele>414.5</ele><time>2026-04-25T10:45:52.956Z</time></trkpt><trkpt lat="46.2016667" lon="12.2864"><ele>420.0</ele><time>2026-04-25T10:45:53.955Z</time></trkpt><trkpt lat="46.2018967" lon="12.2863617"><ele>420.0</ele><time>2026-04-25T10:45:54.956Z</time></trkpt><trkpt lat="46.2021233" lon="12.28631"><ele>420.0</ele><time>2026-04-25T10:45:55.956Z</time></trkpt><trkpt lat="46.20235" lon="12.2862517"><ele>419.5</ele><time>2026-04-25T10:45:56.956Z</time></trkpt><trkpt lat="46.2025733" lon="12.2861883"><ele>419.0</ele><time>2026-04-25T10:45:57.956Z</time></trkpt><trkpt lat="46.2028" lon="12.28612"><ele>419.0</ele><time>2026-04-25T10:45:58.956Z</time></trkpt><trkpt lat="46.20303" lon="12.2860617"><ele>419.0</ele><time>2026-04-25T10:45:59.955Z</time></trkpt><trkpt lat="46.2032583" lon="12.2860183"><ele>418.5</ele><time>2026-04-25T10:46:00.954Z</time></trkpt><trkpt lat="46.20349" lon="12.285985"><ele>418.0</ele><time>2026-04-25T10:46:01.956Z</time></trkpt><trkpt lat="46.20372" lon="12.2859533"><ele>418.0</ele><time>2026-04-25T10:46:02.956Z</time></trkpt><trkpt lat="46.203945" lon="12.2859283"><ele>418.0</ele><time>2026-04-25T10:46:03.956Z</time></trkpt><trkpt lat="46.2041617" lon="12.2859033"><ele>418.0</ele><time>2026-04-25T10:46:04.956Z</time></trkpt><trkpt lat="46.2043733" lon="12.2858817"><ele>417.33333333333337</ele><time>2026-04-25T10:46:05.955Z</time></trkpt><trkpt lat="46.204585" lon="12.28586"><ele>416.66666666666663</ele><time>2026-04-25T10:46:06.956Z</time></trkpt><trkpt lat="46.204795" lon="12.2858383"><ele>416.0</ele><time>2026-04-25T10:46:07.954Z</time></trkpt><trkpt lat="46.2050033" lon="12.285815"><ele>416.0</ele><time>2026-04-25T10:46:08.955Z</time></trkpt><trkpt lat="46.205215" lon="12.2857933"><ele>416.0</ele><time>2026-04-25T10:46:09.955Z</time></trkpt><trkpt lat="46.2054317" lon="12.28577"><ele>416.0</ele><time>2026-04-25T10:46:10.956Z</time></trkpt><trkpt lat="46.2056483" lon="12.2857483"><ele>415.0</ele><time>2026-04-25T10:46:11.956Z</time></trkpt><trkpt lat="46.2058633" lon="12.2857267"><ele>414.0</ele><time>2026-04-25T10:46:12.955Z</time></trkpt><trkpt lat="46.206075" lon="12.2857033"><ele>413.0</ele><time>2026-04-25T10:46:13.955Z</time></trkpt><trkpt lat="46.20629" lon="12.2856817"><ele>411.66666666666663</ele><time>2026-04-25T10:46:14.954Z</time></trkpt><trkpt lat="46.20651" lon="12.2856583"><ele>410.33333333333337</ele><time>2026-04-25T10:46:15.955Z</time></trkpt><trkpt lat="46.2067333" lon="12.2856383"><ele>409.0</ele><time>2026-04-25T10:46:16.956Z</time></trkpt><trkpt lat="46.20696" lon="12.285625"><ele>409.0</ele><time>2026-04-25T10:46:17.955Z</time></trkpt><trkpt lat="46.2071917" lon="12.2856133"><ele>409.0</ele><time>2026-04-25T10:46:18.955Z</time></trkpt><trkpt lat="46.2074283" lon="12.2856117"><ele>407.0</ele><time>2026-04-25T10:46:19.956Z</time></trkpt><trkpt lat="46.2076683" lon="12.2856233"><ele>405.0</ele><time>2026-04-25T10:46:20.955Z</time></trkpt><trkpt lat="46.2079117" lon="12.285645"><ele>405.0</ele><time>2026-04-25T10:46:21.959Z</time></trkpt><trkpt lat="46.2081517" lon="12.2856717"><ele>405.0</ele><time>2026-04-25T10:46:22.956Z</time></trkpt><trkpt lat="46.2083883" lon="12.28571"><ele>407.0</ele><time>2026-04-25T10:46:23.956Z</time></trkpt><trkpt lat="46.2086233" lon="12.2857517"><ele>409.0</ele><time>2026-04-25T10:46:24.955Z</time></trkpt><trkpt lat="46.20885" lon="12.2858067"><ele>407.5</ele><time>2026-04-25T10:46:25.955Z</time></trkpt><trkpt lat="46.2090733" lon="12.2858733"><ele>406.0</ele><time>2026-04-25T10:46:26.955Z</time></trkpt><trkpt lat="46.20929" lon="12.285955"><ele>406.0</ele><time>2026-04-25T10:46:27.955Z</time></trkpt><trkpt lat="46.2095067" lon="12.2860433"><ele>406.0</ele><time>2026-04-25T10:46:28.956Z</time></trkpt><trkpt lat="46.2097233" lon="12.286135"><ele>408.33333333333337</ele><time>2026-04-25T10:46:29.955Z</time></trkpt><trkpt lat="46.20994" lon="12.2862267"><ele>410.66666666666663</ele><time>2026-04-25T10:46:30.956Z</time></trkpt><trkpt lat="46.2101533" lon="12.2863167"><ele>413.0</ele><time>2026-04-25T10:46:31.955Z</time></trkpt><trkpt lat="46.2103683" lon="12.286405"><ele>411.66666666666663</ele><time>2026-04-25T10:46:32.955Z</time></trkpt><trkpt lat="46.2105817" lon="12.2864933"><ele>410.33333333333337</ele><time>2026-04-25T10:46:33.955Z</time></trkpt><trkpt lat="46.2107967" lon="12.2865817"><ele>409.0</ele><time>2026-04-25T10:46:34.956Z</time></trkpt><trkpt lat="46.2110133" lon="12.2866717"><ele>409.0</ele><time>2026-04-25T10:46:35.955Z</time></trkpt><trkpt lat="46.2112317" lon="12.28676"><ele>409.0</ele><time>2026-04-25T10:46:36.955Z</time></trkpt><trkpt lat="46.21145" lon="12.2868483"><ele>415.5</ele><time>2026-04-25T10:46:37.955Z</time></trkpt><trkpt lat="46.2116683" lon="12.2869367"><ele>422.0</ele><time>2026-04-25T10:46:38.954Z</time></trkpt><trkpt lat="46.2118867" lon="12.2870267"><ele>422.0</ele><time>2026-04-25T10:46:39.955Z</time></trkpt><trkpt lat="46.2121067" lon="12.2871167"><ele>422.0</ele><time>2026-04-25T10:46:40.956Z</time></trkpt><trkpt lat="46.2123283" lon="12.2872017"><ele>413.5</ele><time>2026-04-25T10:46:41.953Z</time></trkpt><trkpt lat="46.21255" lon="12.2872933"><ele>405.0</ele><time>2026-04-25T10:46:42.954Z</time></trkpt><trkpt lat="46.2127717" lon="12.287385"><ele>405.0</ele><time>2026-04-25T10:46:43.954Z</time></trkpt><trkpt lat="46.212995" lon="12.2874767"><ele>405.0</ele><time>2026-04-25T10:46:44.956Z</time></trkpt><trkpt lat="46.2132167" lon="12.2875667"><ele>410.0</ele><time>2026-04-25T10:46:45.954Z</time></trkpt><trkpt lat="46.2134417" lon="12.2876567"><ele>415.0</ele><time>2026-04-25T10:46:46.956Z</time></trkpt><trkpt lat="46.2136683" lon="12.287745"><ele>415.0</ele><time>2026-04-25T10:46:47.956Z</time></trkpt><trkpt lat="46.2138917" lon="12.2878367"><ele>415.0</ele><time>2026-04-25T10:46:48.954Z</time></trkpt><trkpt lat="46.2141167" lon="12.2879267"><ele>421.0</ele><time>2026-04-25T10:46:49.956Z</time></trkpt><trkpt lat="46.21434" lon="12.288015"><ele>427.0</ele><time>2026-04-25T10:46:50.955Z</time></trkpt><trkpt lat="46.21456" lon="12.288095"><ele>416.5</ele><time>2026-04-25T10:46:51.953Z</time></trkpt><trkpt lat="46.2147817" lon="12.2881633"><ele>406.0</ele><time>2026-04-25T10:46:52.955Z</time></trkpt><trkpt lat="46.2150017" lon="12.2882217"><ele>406.0</ele><time>2026-04-25T10:46:53.954Z</time></trkpt><trkpt lat="46.215225" lon="12.2882583"><ele>406.0</ele><time>2026-04-25T10:46:54.953Z</time></trkpt><trkpt lat="46.2154517" lon="12.288275"><ele>405.0</ele><time>2026-04-25T10:46:55.955Z</time></trkpt><trkpt lat="46.2156783" lon="12.2882733"><ele>404.0</ele><time>2026-04-25T10:46:56.954Z</time></trkpt><trkpt lat="46.2159083" lon="12.2882533"><ele>404.0</ele><time>2026-04-25T10:46:57.954Z</time></trkpt><trkpt lat="46.2161367" lon="12.28821"><ele>404.0</ele><time>2026-04-25T10:46:58.955Z</time></trkpt><trkpt lat="46.2163667" lon="12.2881483"><ele>413.5</ele><time>2026-04-25T10:46:59.955Z</time></trkpt><trkpt lat="46.216595" lon="12.2880683"><ele>423.0</ele><time>2026-04-25T10:47:00.956Z</time></trkpt><trkpt lat="46.21682" lon="12.28797"><ele>423.0</ele><time>2026-04-25T10:47:01.956Z</time></trkpt><trkpt lat="46.2170433" lon="12.287855"><ele>423.0</ele><time>2026-04-25T10:47:02.954Z</time></trkpt><trkpt lat="46.217265" lon="12.2877333"><ele>415.5</ele><time>2026-04-25T10:47:03.955Z</time></trkpt><trkpt lat="46.2174883" lon="12.2876033"><ele>408.0</ele><time>2026-04-25T10:47:04.956Z</time></trkpt><trkpt lat="46.2177067" lon="12.287475"><ele>408.0</ele><time>2026-04-25T10:47:05.955Z</time></trkpt><trkpt lat="46.2179233" lon="12.2873517"><ele>408.0</ele><time>2026-04-25T10:47:06.956Z</time></trkpt><trkpt lat="46.2181367" lon="12.2872333"><ele>412.0</ele><time>2026-04-25T10:47:07.956Z</time></trkpt><trkpt lat="46.2183483" lon="12.28712"><ele>416.0</ele><time>2026-04-25T10:47:08.955Z</time></trkpt><trkpt lat="46.2185583" lon="12.287005"><ele>416.0</ele><time>2026-04-25T10:47:09.956Z</time></trkpt><trkpt lat="46.2187667" lon="12.2868883"><ele>416.0</ele><time>2026-04-25T10:47:10.956Z</time></trkpt><trkpt lat="46.2189767" lon="12.2867717"><ele>416.0</ele><time>2026-04-25T10:47:11.956Z</time></trkpt><trkpt lat="46.2191917" lon="12.286655"><ele>410.5</ele><time>2026-04-25T10:47:12.955Z</time></trkpt><trkpt lat="46.2194083" lon="12.28655"><ele>405.0</ele><time>2026-04-25T10:47:13.957Z</time></trkpt><trkpt lat="46.219625" lon="12.2864483"><ele>415.0</ele><time>2026-04-25T10:47:14.955Z</time></trkpt><trkpt lat="46.219845" lon="12.2863617"><ele>425.0</ele><time>2026-04-25T10:47:15.956Z</time></trkpt><trkpt lat="46.220065" lon="12.2862833"><ele>425.0</ele><time>2026-04-25T10:47:16.957Z</time></trkpt><trkpt lat="46.2202917" lon="12.286215"><ele>425.0</ele><time>2026-04-25T10:47:17.955Z</time></trkpt><trkpt lat="46.2205183" lon="12.2861583"><ele>424.0</ele><time>2026-04-25T10:47:18.955Z</time></trkpt><trkpt lat="46.22075" lon="12.28611"><ele>423.0</ele><time>2026-04-25T10:47:19.955Z</time></trkpt><trkpt lat="46.220985" lon="12.28607"><ele>423.0</ele><time>2026-04-25T10:47:20.954Z</time></trkpt><trkpt lat="46.22122" lon="12.2860417"><ele>423.0</ele><time>2026-04-25T10:47:21.955Z</time></trkpt><trkpt lat="46.22146" lon="12.2860267"><ele>421.5</ele><time>2026-04-25T10:47:22.956Z</time></trkpt><trkpt lat="46.2216933" lon="12.2860217"><ele>420.0</ele><time>2026-04-25T10:47:23.954Z</time></trkpt><trkpt lat="46.22193" lon="12.2860333"><ele>420.0</ele><time>2026-04-25T10:47:24.956Z</time></trkpt><trkpt lat="46.2221667" lon="12.2860533"><ele>420.0</ele><time>2026-04-25T10:47:25.955Z</time></trkpt><trkpt lat="46.222395" lon="12.2860867"><ele>419.0</ele><time>2026-04-25T10:47:26.954Z</time></trkpt><trkpt lat="46.2226167" lon="12.286125"><ele>418.0</ele><time>2026-04-25T10:47:27.954Z</time></trkpt><trkpt lat="46.2228333" lon="12.286175"><ele>417.0</ele><time>2026-04-25T10:47:28.955Z</time></trkpt><trkpt lat="46.2230383" lon="12.2862367"><ele>416.66666666666663</ele><time>2026-04-25T10:47:29.954Z</time></trkpt><trkpt lat="46.2232333" lon="12.286305"><ele>416.3333333333333</ele><time>2026-04-25T10:47:30.955Z</time></trkpt><trkpt lat="46.22342" lon="12.286375"><ele>416.0</ele><time>2026-04-25T10:47:31.954Z</time></trkpt><trkpt lat="46.2235883" lon="12.28645"><ele>414.66666666666663</ele><time>2026-04-25T10:47:32.955Z</time></trkpt><trkpt lat="46.2237467" lon="12.2865217"><ele>413.33333333333337</ele><time>2026-04-25T10:47:33.955Z</time></trkpt><trkpt lat="46.223895" lon="12.2865917"><ele>412.0</ele><time>2026-04-25T10:47:34.955Z</time></trkpt><trkpt lat="46.2240317" lon="12.2866583"><ele>415.0</ele><time>2026-04-25T10:47:35.955Z</time></trkpt><trkpt lat="46.2241583" lon="12.28672"><ele>418.0</ele><time>2026-04-25T10:47:36.954Z</time></trkpt><trkpt lat="46.2242783" lon="12.2867717"><ele>421.0</ele><time>2026-04-25T10:47:37.954Z</time></trkpt><trkpt lat="46.2243933" lon="12.28681"><ele>424.0</ele><time>2026-04-25T10:47:38.954Z</time></trkpt><trkpt lat="46.2245017" lon="12.2868467"><ele>424.0</ele><time>2026-04-25T10:47:39.954Z</time></trkpt><trkpt lat="46.2245983" lon="12.2869033"><ele>424.0</ele><time>2026-04-25T10:47:40.955Z</time></trkpt><trkpt lat="46.2246883" lon="12.2869767"><ele>424.0</ele><time>2026-04-25T10:47:41.953Z</time></trkpt><trkpt lat="46.2247867" lon="12.287035"><ele>424.0</ele><time>2026-04-25T10:47:42.954Z</time></trkpt><trkpt lat="46.2249017" lon="12.2870617"><ele>424.0</ele><time>2026-04-25T10:47:43.955Z</time></trkpt><trkpt lat="46.2250217" lon="12.2870833"><ele>423.0</ele><time>2026-04-25T10:47:44.954Z</time></trkpt><trkpt lat="46.2251417" lon="12.287125"><ele>422.0</ele><time>2026-04-25T10:47:45.956Z</time></trkpt><trkpt lat="46.2252617" lon="12.2871983"><ele>421.0</ele><time>2026-04-25T10:47:46.955Z</time></trkpt><trkpt lat="46.225385" lon="12.287295"><ele>420.0</ele><time>2026-04-25T10:47:47.954Z</time></trkpt><trkpt lat="46.22552" lon="12.2874083"><ele>423.33333333333337</ele><time>2026-04-25T10:47:48.954Z</time></trkpt><trkpt lat="46.2256633" lon="12.2875267"><ele>426.6666666666667</ele><time>2026-04-25T10:47:49.955Z</time></trkpt><trkpt lat="46.22582" lon="12.28764"><ele>430.0</ele><time>2026-04-25T10:47:50.954Z</time></trkpt><trkpt lat="46.2259867" lon="12.2877467"><ele>430.0</ele><time>2026-04-25T10:47:51.955Z</time></trkpt><trkpt lat="46.226155" lon="12.287845"><ele>430.0</ele><time>2026-04-25T10:47:52.955Z</time></trkpt><trkpt lat="46.2263167" lon="12.2879333"><ele>430.0</ele><time>2026-04-25T10:47:53.954Z</time></trkpt><trkpt lat="46.226475" lon="12.2880133"><ele>427.6666666666667</ele><time>2026-04-25T10:47:54.954Z</time></trkpt><trkpt lat="46.22663" lon="12.288095"><ele>425.33333333333337</ele><time>2026-04-25T10:47:55.955Z</time></trkpt><trkpt lat="46.2267883" lon="12.28817"><ele>423.0</ele><time>2026-04-25T10:47:56.954Z</time></trkpt><trkpt lat="46.226945" lon="12.2882417"><ele>423.0</ele><time>2026-04-25T10:47:57.955Z</time></trkpt><trkpt lat="46.2271033" lon="12.2883083"><ele>423.0</ele><time>2026-04-25T10:47:58.955Z</time></trkpt><trkpt lat="46.2272633" lon="12.2883733"><ele>423.0</ele><time>2026-04-25T10:47:59.954Z</time></trkpt><trkpt lat="46.2274233" lon="12.2884367"><ele>426.33333333333337</ele><time>2026-04-25T10:48:00.954Z</time></trkpt><trkpt lat="46.2275933" lon="12.2885017"><ele>429.6666666666667</ele><time>2026-04-25T10:48:01.954Z</time></trkpt><trkpt lat="46.227765" lon="12.2885683"><ele>433.0</ele><time>2026-04-25T10:48:02.954Z</time></trkpt><trkpt lat="46.22794" lon="12.288635"><ele>433.0</ele><time>2026-04-25T10:48:03.953Z</time></trkpt><trkpt lat="46.2281267" lon="12.2887067"><ele>433.0</ele><time>2026-04-25T10:48:04.956Z</time></trkpt><trkpt lat="46.228315" lon="12.288785"><ele>433.0</ele><time>2026-04-25T10:48:05.954Z</time></trkpt><trkpt lat="46.2285033" lon="12.2888667"><ele>433.0</ele><time>2026-04-25T10:48:06.955Z</time></trkpt><trkpt lat="46.22869" lon="12.2889567"><ele>433.0</ele><time>2026-04-25T10:48:07.954Z</time></trkpt><trkpt lat="46.2288717" lon="12.2890483"><ele>433.0</ele><time>2026-04-25T10:48:08.955Z</time></trkpt><trkpt lat="46.2290467" lon="12.2891417"><ele>433.33333333333337</ele><time>2026-04-25T10:48:09.954Z</time></trkpt><trkpt lat="46.229215" lon="12.2892333"><ele>433.66666666666663</ele><time>2026-04-25T10:48:10.955Z</time></trkpt><trkpt lat="46.22938" lon="12.28932"><ele>434.0</ele><time>2026-04-25T10:48:11.954Z</time></trkpt><trkpt lat="46.22955" lon="12.2894033"><ele>434.0</ele><time>2026-04-25T10:48:12.956Z</time></trkpt><trkpt lat="46.2297233" lon="12.2894867"><ele>434.0</ele><time>2026-04-25T10:48:13.954Z</time></trkpt><trkpt lat="46.2298967" lon="12.2895717"><ele>434.0</ele><time>2026-04-25T10:48:14.953Z</time></trkpt><trkpt lat="46.2300667" lon="12.2896583"><ele>434.3333333333333</ele><time>2026-04-25T10:48:15.954Z</time></trkpt><trkpt lat="46.2302383" lon="12.2897467"><ele>434.66666666666663</ele><time>2026-04-25T10:48:16.954Z</time></trkpt><trkpt lat="46.23041" lon="12.289845"><ele>435.0</ele><time>2026-04-25T10:48:17.954Z</time></trkpt><trkpt lat="46.2305817" lon="12.2899583"><ele>435.66666666666663</ele><time>2026-04-25T10:48:18.955Z</time></trkpt><trkpt lat="46.2307517" lon="12.2900883"><ele>436.3333333333333</ele><time>2026-04-25T10:48:19.955Z</time></trkpt><trkpt lat="46.2309217" lon="12.2902317"><ele>437.0</ele><time>2026-04-25T10:48:20.955Z</time></trkpt><trkpt lat="46.23109" lon="12.29038"><ele>437.0</ele><time>2026-04-25T10:48:21.955Z</time></trkpt><trkpt lat="46.2312567" lon="12.2905267"><ele>437.0</ele><time>2026-04-25T10:48:22.956Z</time></trkpt><trkpt lat="46.23141" lon="12.290675"><ele>437.0</ele><time>2026-04-25T10:48:23.955Z</time></trkpt><trkpt lat="46.2315567" lon="12.2908267"><ele>438.0</ele><time>2026-04-25T10:48:24.955Z</time></trkpt><trkpt lat="46.2316967" lon="12.290985"><ele>439.0</ele><time>2026-04-25T10:48:25.956Z</time></trkpt><trkpt lat="46.2318283" lon="12.2911567"><ele>440.0</ele><time>2026-04-25T10:48:26.954Z</time></trkpt><trkpt lat="46.2319567" lon="12.2913417"><ele>441.0</ele><time>2026-04-25T10:48:27.955Z</time></trkpt><trkpt lat="46.23208" lon="12.291535"><ele>442.0</ele><time>2026-04-25T10:48:28.955Z</time></trkpt><trkpt lat="46.2322117" lon="12.2917333"><ele>443.0</ele><time>2026-04-25T10:48:29.954Z</time></trkpt><trkpt lat="46.2323517" lon="12.2919333"><ele>443.0</ele><time>2026-04-25T10:48:30.955Z</time></trkpt><trkpt lat="46.232505" lon="12.29213"><ele>443.0</ele><time>2026-04-25T10:48:31.953Z</time></trkpt><trkpt lat="46.2326667" lon="12.292325"><ele>443.0</ele><time>2026-04-25T10:48:32.955Z</time></trkpt><trkpt lat="46.2328367" lon="12.292515"><ele>444.3333333333333</ele><time>2026-04-25T10:48:33.954Z</time></trkpt><trkpt lat="46.233015" lon="12.2926983"><ele>445.66666666666663</ele><time>2026-04-25T10:48:34.955Z</time></trkpt><trkpt lat="46.233195" lon="12.2928817"><ele>447.0</ele><time>2026-04-25T10:48:35.955Z</time></trkpt><trkpt lat="46.233375" lon="12.2930633"><ele>442.66666666666663</ele><time>2026-04-25T10:48:36.955Z</time></trkpt><trkpt lat="46.2335583" lon="12.2932433"><ele>438.3333333333333</ele><time>2026-04-25T10:48:37.955Z</time></trkpt><trkpt lat="46.2337383" lon="12.2934167"><ele>434.0</ele><time>2026-04-25T10:48:38.956Z</time></trkpt><trkpt lat="46.2339083" lon="12.29358"><ele>433.0</ele><time>2026-04-25T10:48:39.955Z</time></trkpt><trkpt lat="46.2340767" lon="12.2937267"><ele>432.0</ele><time>2026-04-25T10:48:40.956Z</time></trkpt><trkpt lat="46.234245" lon="12.2938567"><ele>431.0</ele><time>2026-04-25T10:48:41.955Z</time></trkpt><trkpt lat="46.2344167" lon="12.29397"><ele>431.0</ele><time>2026-04-25T10:48:42.956Z</time></trkpt><trkpt lat="46.23459" lon="12.2940633"><ele>431.0</ele><time>2026-04-25T10:48:43.956Z</time></trkpt><trkpt lat="46.2347617" lon="12.29415"><ele>431.0</ele><time>2026-04-25T10:48:44.955Z</time></trkpt><trkpt lat="46.2349333" lon="12.2942283"><ele>434.3333333333333</ele><time>2026-04-25T10:48:45.955Z</time></trkpt><trkpt lat="46.235105" lon="12.2943017"><ele>437.66666666666663</ele><time>2026-04-25T10:48:46.955Z</time></trkpt><trkpt lat="46.2352733" lon="12.2943683"><ele>441.0</ele><time>2026-04-25T10:48:47.954Z</time></trkpt><trkpt lat="46.23544" lon="12.29443"><ele>441.0</ele><time>2026-04-25T10:48:48.954Z</time></trkpt><trkpt lat="46.2356017" lon="12.2944883"><ele>441.0</ele><time>2026-04-25T10:48:49.955Z</time></trkpt><trkpt lat="46.2357583" lon="12.2945417"><ele>441.0</ele><time>2026-04-25T10:48:50.956Z</time></trkpt><trkpt lat="46.2359083" lon="12.2945933"><ele>441.0</ele><time>2026-04-25T10:48:51.957Z</time></trkpt><trkpt lat="46.236055" lon="12.294645"><ele>441.0</ele><time>2026-04-25T10:48:52.956Z</time></trkpt><trkpt lat="46.236195" lon="12.2946967"><ele>441.0</ele><time>2026-04-25T10:48:53.955Z</time></trkpt><trkpt lat="46.2363333" lon="12.294745"><ele>441.0</ele><time>2026-04-25T10:48:54.954Z</time></trkpt><trkpt lat="46.2364683" lon="12.2947917"><ele>439.5</ele><time>2026-04-25T10:48:55.955Z</time></trkpt><trkpt lat="46.2365983" lon="12.2948367"><ele>438.0</ele><time>2026-04-25T10:48:56.955Z</time></trkpt><trkpt lat="46.2367267" lon="12.2948833"><ele>436.5</ele><time>2026-04-25T10:48:57.955Z</time></trkpt><trkpt lat="46.236855" lon="12.29493"><ele>435.0</ele><time>2026-04-25T10:48:58.955Z</time></trkpt><trkpt lat="46.2369867" lon="12.2949767"><ele>435.0</ele><time>2026-04-25T10:48:59.954Z</time></trkpt><trkpt lat="46.23712" lon="12.2950267"><ele>435.0</ele><time>2026-04-25T10:49:00.955Z</time></trkpt><trkpt lat="46.237255" lon="12.29508"><ele>435.0</ele><time>2026-04-25T10:49:01.955Z</time></trkpt><trkpt lat="46.2373933" lon="12.29513"><ele>435.0</ele><time>2026-04-25T10:49:02.956Z</time></trkpt><trkpt lat="46.2375317" lon="12.2951833"><ele>436.0</ele><time>2026-04-25T10:49:03.954Z</time></trkpt><trkpt lat="46.237675" lon="12.295235"><ele>437.0</ele><time>2026-04-25T10:49:04.956Z</time></trkpt><trkpt lat="46.23782" lon="12.2952867"><ele>438.0</ele><time>2026-04-25T10:49:05.955Z</time></trkpt><trkpt lat="46.2379683" lon="12.29534"><ele>438.0</ele><time>2026-04-25T10:49:06.955Z</time></trkpt><trkpt lat="46.2381233" lon="12.295395"><ele>438.0</ele><time>2026-04-25T10:49:07.956Z</time></trkpt><trkpt lat="46.2382833" lon="12.2954483"><ele>438.0</ele><time>2026-04-25T10:49:08.955Z</time></trkpt><trkpt lat="46.238445" lon="12.2955017"><ele>436.66666666666663</ele><time>2026-04-25T10:49:09.954Z</time></trkpt><trkpt lat="46.238605" lon="12.29555"><ele>435.3333333333333</ele><time>2026-04-25T10:49:10.955Z</time></trkpt><trkpt lat="46.2387683" lon="12.2955883"><ele>434.0</ele><time>2026-04-25T10:49:11.954Z</time></trkpt><trkpt lat="46.238935" lon="12.2956117"><ele>434.0</ele><time>2026-04-25T10:49:12.954Z</time></trkpt><trkpt lat="46.2391067" lon="12.2956217"><ele>434.0</ele><time>2026-04-25T10:49:13.955Z</time></trkpt><trkpt lat="46.2392833" lon="12.295615"><ele>434.0</ele><time>2026-04-25T10:49:14.955Z</time></trkpt><trkpt lat="46.23946" lon="12.295595"><ele>435.0</ele><time>2026-04-25T10:49:15.955Z</time></trkpt><trkpt lat="46.23964" lon="12.2955567"><ele>436.0</ele><time>2026-04-25T10:49:16.956Z</time></trkpt><trkpt lat="46.239815" lon="12.2955033"><ele>437.0</ele><time>2026-04-25T10:49:17.955Z</time></trkpt><trkpt lat="46.2399833" lon="12.295435"><ele>437.0</ele><time>2026-04-25T10:49:18.956Z</time></trkpt><trkpt lat="46.24015" lon="12.2953517"><ele>437.0</ele><time>2026-04-25T10:49:19.955Z</time></trkpt><trkpt lat="46.2403183" lon="12.295255"><ele>437.0</ele><time>2026-04-25T10:49:20.954Z</time></trkpt><trkpt lat="46.2404817" lon="12.295145"><ele>436.0</ele><time>2026-04-25T10:49:21.954Z</time></trkpt><trkpt lat="46.2406483" lon="12.295025"><ele>435.0</ele><time>2026-04-25T10:49:22.955Z</time></trkpt><trkpt lat="46.2408117" lon="12.294905"><ele>434.0</ele><time>2026-04-25T10:49:23.954Z</time></trkpt><trkpt lat="46.2409767" lon="12.2947933"><ele>438.3333333333333</ele><time>2026-04-25T10:49:24.955Z</time></trkpt><trkpt lat="46.241145" lon="12.2946967"><ele>442.66666666666663</ele><time>2026-04-25T10:49:25.955Z</time></trkpt><trkpt lat="46.2413167" lon="12.2946283"><ele>447.0</ele><time>2026-04-25T10:49:26.954Z</time></trkpt><trkpt lat="46.2414967" lon="12.2945933"><ele>450.66666666666663</ele><time>2026-04-25T10:49:27.955Z</time></trkpt><trkpt lat="46.2416767" lon="12.2946"><ele>454.3333333333333</ele><time>2026-04-25T10:49:28.954Z</time></trkpt><trkpt lat="46.24186" lon="12.294645"><ele>458.0</ele><time>2026-04-25T10:49:29.956Z</time></trkpt><trkpt lat="46.2420417" lon="12.29473"><ele>453.3333333333333</ele><time>2026-04-25T10:49:30.954Z</time></trkpt><trkpt lat="46.24222" lon="12.2948433"><ele>448.66666666666663</ele><time>2026-04-25T10:49:31.955Z</time></trkpt><trkpt lat="46.24239" lon="12.2949717"><ele>444.0</ele><time>2026-04-25T10:49:32.955Z</time></trkpt><trkpt lat="46.242555" lon="12.2951133"><ele>444.0</ele><time>2026-04-25T10:49:33.955Z</time></trkpt><trkpt lat="46.2427067" lon="12.2952617"><ele>444.0</ele><time>2026-04-25T10:49:34.957Z</time></trkpt><trkpt lat="46.2428467" lon="12.2954033"><ele>444.0</ele><time>2026-04-25T10:49:35.955Z</time></trkpt><trkpt lat="46.2429767" lon="12.2955417"><ele>443.0</ele><time>2026-04-25T10:49:36.956Z</time></trkpt><trkpt lat="46.2431067" lon="12.2956733"><ele>442.0</ele><time>2026-04-25T10:49:37.954Z</time></trkpt><trkpt lat="46.243235" lon="12.2958067"><ele>441.0</ele><time>2026-04-25T10:49:38.956Z</time></trkpt><trkpt lat="46.2433633" lon="12.2959383"><ele>441.0</ele><time>2026-04-25T10:49:39.955Z</time></trkpt><trkpt lat="46.24349" lon="12.29607"><ele>441.0</ele><time>2026-04-25T10:49:40.956Z</time></trkpt><trkpt lat="46.2436167" lon="12.2961983"><ele>441.0</ele><time>2026-04-25T10:49:41.955Z</time></trkpt><trkpt lat="46.243745" lon="12.2963217"><ele>440.5</ele><time>2026-04-25T10:49:42.956Z</time></trkpt><trkpt lat="46.2438733" lon="12.296445"><ele>440.0</ele><time>2026-04-25T10:49:43.954Z</time></trkpt><trkpt lat="46.2439967" lon="12.296565"><ele>439.5</ele><time>2026-04-25T10:49:44.955Z</time></trkpt><trkpt lat="46.2441167" lon="12.29668"><ele>439.0</ele><time>2026-04-25T10:49:45.955Z</time></trkpt><trkpt lat="46.2442333" lon="12.2968017"><ele>439.0</ele><time>2026-04-25T10:49:46.956Z</time></trkpt><trkpt lat="46.2443467" lon="12.2969233"><ele>439.0</ele><time>2026-04-25T10:49:47.955Z</time></trkpt><trkpt lat="46.24446" lon="12.29704"><ele>439.0</ele><time>2026-04-25T10:49:48.955Z</time></trkpt><trkpt lat="46.2445733" lon="12.2971583"><ele>439.0</ele><time>2026-04-25T10:49:49.955Z</time></trkpt><trkpt lat="46.2446917" lon="12.2972733"><ele>437.33333333333337</ele><time>2026-04-25T10:49:50.955Z</time></trkpt><trkpt lat="46.244815" lon="12.297395"><ele>435.66666666666663</ele><time>2026-04-25T10:49:51.955Z</time></trkpt><trkpt lat="46.2449417" lon="12.2975267"><ele>434.0</ele><time>2026-04-25T10:49:52.956Z</time></trkpt><trkpt lat="46.2450717" lon="12.2976667"><ele>434.0</ele><time>2026-04-25T10:49:53.955Z</time></trkpt><trkpt lat="46.2451983" lon="12.2978167"><ele>434.0</ele><time>2026-04-25T10:49:54.955Z</time></trkpt><trkpt lat="46.2453283" lon="12.2979733"><ele>434.0</ele><time>2026-04-25T10:49:55.955Z</time></trkpt><trkpt lat="46.2454583" lon="12.2981317"><ele>434.0</ele><time>2026-04-25T10:49:56.956Z</time></trkpt><trkpt lat="46.245585" lon="12.2982867"><ele>434.0</ele><time>2026-04-25T10:49:57.955Z</time></trkpt><trkpt lat="46.2457133" lon="12.2984333"><ele>434.0</ele><time>2026-04-25T10:49:58.955Z</time></trkpt><trkpt lat="46.2458467" lon="12.298565"><ele>434.0</ele><time>2026-04-25T10:49:59.955Z</time></trkpt><trkpt lat="46.245985" lon="12.2986833"><ele>434.0</ele><time>2026-04-25T10:50:00.955Z</time></trkpt><trkpt lat="46.2461267" lon="12.2987933"><ele>434.0</ele><time>2026-04-25T10:50:01.954Z</time></trkpt><trkpt lat="46.2462733" lon="12.2988867"><ele>432.66666666666663</ele><time>2026-04-25T10:50:02.954Z</time></trkpt><trkpt lat="46.2464233" lon="12.2989633"><ele>431.33333333333337</ele><time>2026-04-25T10:50:03.954Z</time></trkpt><trkpt lat="46.2465833" lon="12.299025"><ele>430.0</ele><time>2026-04-25T10:50:04.957Z</time></trkpt><trkpt lat="46.24675" lon="12.2990667"><ele>430.0</ele><time>2026-04-25T10:50:05.957Z</time></trkpt><trkpt lat="46.24691" lon="12.2990933"><ele>430.0</ele><time>2026-04-25T10:50:06.955Z</time></trkpt><trkpt lat="46.2470667" lon="12.2990967"><ele>430.0</ele><time>2026-04-25T10:50:07.956Z</time></trkpt><trkpt lat="46.2472167" lon="12.2990817"><ele>429.5</ele><time>2026-04-25T10:50:08.955Z</time></trkpt><trkpt lat="46.2473617" lon="12.2990533"><ele>429.0</ele><time>2026-04-25T10:50:09.955Z</time></trkpt><trkpt lat="46.247505" lon="12.2990183"><ele>428.5</ele><time>2026-04-25T10:50:10.956Z</time></trkpt><trkpt lat="46.24765" lon="12.29897"><ele>428.0</ele><time>2026-04-25T10:50:11.955Z</time></trkpt><trkpt lat="46.2478" lon="12.298915"><ele>429.66666666666663</ele><time>2026-04-25T10:50:12.954Z</time></trkpt><trkpt lat="46.24795" lon="12.2988567"><ele>431.33333333333337</ele><time>2026-04-25T10:50:13.955Z</time></trkpt><trkpt lat="46.248105" lon="12.2987983"><ele>433.0</ele><time>2026-04-25T10:50:14.955Z</time></trkpt><trkpt lat="46.2482633" lon="12.2987467"><ele>433.0</ele><time>2026-04-25T10:50:15.954Z</time></trkpt><trkpt lat="46.2484233" lon="12.298705"><ele>433.0</ele><time>2026-04-25T10:50:16.956Z</time></trkpt><trkpt lat="46.2485867" lon="12.298665"><ele>433.0</ele><time>2026-04-25T10:50:17.955Z</time></trkpt><trkpt lat="46.248755" lon="12.29863"><ele>433.0</ele><time>2026-04-25T10:50:18.955Z</time></trkpt><trkpt lat="46.2489267" lon="12.2985967"><ele>433.0</ele><time>2026-04-25T10:50:19.955Z</time></trkpt><trkpt lat="46.249095" lon="12.298565"><ele>433.0</ele><time>2026-04-25T10:50:20.954Z</time></trkpt><trkpt lat="46.249265" lon="12.2985317"><ele>433.33333333333337</ele><time>2026-04-25T10:50:21.956Z</time></trkpt><trkpt lat="46.2494317" lon="12.2984983"><ele>433.66666666666663</ele><time>2026-04-25T10:50:22.957Z</time></trkpt><trkpt lat="46.2496" lon="12.2984683"><ele>434.0</ele><time>2026-04-25T10:50:23.955Z</time></trkpt><trkpt lat="46.2497683" lon="12.29844"><ele>435.66666666666663</ele><time>2026-04-25T10:50:24.955Z</time></trkpt><trkpt lat="46.2499333" lon="12.2984117"><ele>437.33333333333337</ele><time>2026-04-25T10:50:25.956Z</time></trkpt><trkpt lat="46.2501" lon="12.2983833"><ele>439.0</ele><time>2026-04-25T10:50:26.955Z</time></trkpt><trkpt lat="46.250265" lon="12.2983567"><ele>439.0</ele><time>2026-04-25T10:50:27.955Z</time></trkpt><trkpt lat="46.25043" lon="12.29834"><ele>439.0</ele><time>2026-04-25T10:50:28.956Z</time></trkpt><trkpt lat="46.2505967" lon="12.2983317"><ele>439.0</ele><time>2026-04-25T10:50:29.955Z</time></trkpt><trkpt lat="46.2507667" lon="12.2983367"><ele>438.33333333333337</ele><time>2026-04-25T10:50:30.956Z</time></trkpt><trkpt lat="46.250935" lon="12.2983567"><ele>437.66666666666663</ele><time>2026-04-25T10:50:31.956Z</time></trkpt><trkpt lat="46.251105" lon="12.2983783"><ele>437.0</ele><time>2026-04-25T10:50:32.956Z</time></trkpt><trkpt lat="46.25128" lon="12.2984067"><ele>437.0</ele><time>2026-04-25T10:50:33.954Z</time></trkpt><trkpt lat="46.2514567" lon="12.2984367"><ele>437.0</ele><time>2026-04-25T10:50:34.957Z</time></trkpt><trkpt lat="46.251635" lon="12.2984667"><ele>437.0</ele><time>2026-04-25T10:50:35.955Z</time></trkpt><trkpt lat="46.2518117" lon="12.2984967"><ele>439.0</ele><time>2026-04-25T10:50:36.956Z</time></trkpt><trkpt lat="46.2519833" lon="12.2985233"><ele>441.0</ele><time>2026-04-25T10:50:37.955Z</time></trkpt><trkpt lat="46.2521467" lon="12.29855"><ele>443.0</ele><time>2026-04-25T10:50:38.955Z</time></trkpt><trkpt lat="46.2523033" lon="12.298575"><ele>446.0</ele><time>2026-04-25T10:50:39.954Z</time></trkpt><trkpt lat="46.2524567" lon="12.2985967"><ele>449.0</ele><time>2026-04-25T10:50:40.956Z</time></trkpt><trkpt lat="46.25261" lon="12.2986117"><ele>452.0</ele><time>2026-04-25T10:50:41.955Z</time></trkpt><trkpt lat="46.2527667" lon="12.298625"><ele>452.0</ele><time>2026-04-25T10:50:42.956Z</time></trkpt><trkpt lat="46.2529183" lon="12.2986333"><ele>452.0</ele><time>2026-04-25T10:50:43.955Z</time></trkpt><trkpt lat="46.2530733" lon="12.2986417"><ele>452.0</ele><time>2026-04-25T10:50:44.954Z</time></trkpt><trkpt lat="46.25323" lon="12.298645"><ele>451.0</ele><time>2026-04-25T10:50:45.954Z</time></trkpt><trkpt lat="46.2533883" lon="12.2986533"><ele>450.0</ele><time>2026-04-25T10:50:46.955Z</time></trkpt><trkpt lat="46.2535433" lon="12.29866"><ele>449.0</ele><time>2026-04-25T10:50:47.954Z</time></trkpt><trkpt lat="46.253705" lon="12.298665"><ele>449.0</ele><time>2026-04-25T10:50:48.955Z</time></trkpt><trkpt lat="46.2538733" lon="12.2986667"><ele>449.0</ele><time>2026-04-25T10:50:49.955Z</time></trkpt><trkpt lat="46.2540367" lon="12.29867"><ele>449.0</ele><time>2026-04-25T10:50:50.954Z</time></trkpt><trkpt lat="46.2542017" lon="12.2986717"><ele>448.0</ele><time>2026-04-25T10:50:51.955Z</time></trkpt><trkpt lat="46.254365" lon="12.2986717"><ele>447.0</ele><time>2026-04-25T10:50:52.956Z</time></trkpt><trkpt lat="46.2545267" lon="12.2986717"><ele>446.0</ele><time>2026-04-25T10:50:53.954Z</time></trkpt><trkpt lat="46.2546867" lon="12.2986733"><ele>447.66666666666663</ele><time>2026-04-25T10:50:54.956Z</time></trkpt><trkpt lat="46.254845" lon="12.2986767"><ele>449.33333333333337</ele><time>2026-04-25T10:50:55.954Z</time></trkpt><trkpt lat="46.2549983" lon="12.2986817"><ele>451.0</ele><time>2026-04-25T10:50:56.955Z</time></trkpt><trkpt lat="46.2551483" lon="12.2986867"><ele>451.0</ele><time>2026-04-25T10:50:57.956Z</time></trkpt><trkpt lat="46.2553" lon="12.2986917"><ele>451.0</ele><time>2026-04-25T10:50:58.957Z</time></trkpt><trkpt lat="46.2554533" lon="12.2987033"><ele>451.0</ele><time>2026-04-25T10:50:59.956Z</time></trkpt><trkpt lat="46.2556033" lon="12.298725"><ele>450.0</ele><time>2026-04-25T10:51:00.956Z</time></trkpt><trkpt lat="46.2557583" lon="12.298755"><ele>449.0</ele><time>2026-04-25T10:51:01.954Z</time></trkpt><trkpt lat="46.255915" lon="12.2987983"><ele>448.0</ele><time>2026-04-25T10:51:02.956Z</time></trkpt><trkpt lat="46.256075" lon="12.2988467"><ele>448.0</ele><time>2026-04-25T10:51:03.955Z</time></trkpt><trkpt lat="46.2562433" lon="12.2989"><ele>448.0</ele><time>2026-04-25T10:51:04.957Z</time></trkpt><trkpt lat="46.2564133" lon="12.298965"><ele>448.0</ele><time>2026-04-25T10:51:05.954Z</time></trkpt><trkpt lat="46.25659" lon="12.2990367"><ele>444.33333333333337</ele><time>2026-04-25T10:51:06.955Z</time></trkpt><trkpt lat="46.2567667" lon="12.2991117"><ele>440.66666666666663</ele><time>2026-04-25T10:51:07.955Z</time></trkpt><trkpt lat="46.256945" lon="12.2991933"><ele>437.0</ele><time>2026-04-25T10:51:08.956Z</time></trkpt><trkpt lat="46.2571267" lon="12.2992783"><ele>441.66666666666663</ele><time>2026-04-25T10:51:09.954Z</time></trkpt><trkpt lat="46.25731" lon="12.2993683"><ele>446.33333333333337</ele><time>2026-04-25T10:51:10.956Z</time></trkpt><trkpt lat="46.2574867" lon="12.2994583"><ele>451.0</ele><time>2026-04-25T10:51:11.956Z</time></trkpt><trkpt lat="46.25766" lon="12.299545"><ele>451.0</ele><time>2026-04-25T10:51:12.956Z</time></trkpt><trkpt lat="46.2578317" lon="12.2996233"><ele>451.0</ele><time>2026-04-25T10:51:13.956Z</time></trkpt><trkpt lat="46.2580033" lon="12.299695"><ele>451.0</ele><time>2026-04-25T10:51:14.957Z</time></trkpt><trkpt lat="46.25818" lon="12.2997567"><ele>445.6666666666667</ele><time>2026-04-25T10:51:15.955Z</time></trkpt><trkpt lat="46.258355" lon="12.2998067"><ele>440.33333333333337</ele><time>2026-04-25T10:51:16.956Z</time></trkpt><trkpt lat="46.2585383" lon="12.2998483"><ele>435.0</ele><time>2026-04-25T10:51:17.955Z</time></trkpt><trkpt lat="46.258725" lon="12.299885"><ele>435.0</ele><time>2026-04-25T10:51:18.954Z</time></trkpt><trkpt lat="46.2589117" lon="12.2999217"><ele>435.0</ele><time>2026-04-25T10:51:19.955Z</time></trkpt><trkpt lat="46.259095" lon="12.2999633"><ele>435.0</ele><time>2026-04-25T10:51:20.955Z</time></trkpt><trkpt lat="46.2592783" lon="12.3000083"><ele>436.66666666666663</ele><time>2026-04-25T10:51:21.956Z</time></trkpt><trkpt lat="46.2594583" lon="12.3000667"><ele>438.3333333333333</ele><time>2026-04-25T10:51:22.956Z</time></trkpt><trkpt lat="46.2596367" lon="12.3001367"><ele>440.0</ele><time>2026-04-25T10:51:23.955Z</time></trkpt><trkpt lat="46.259815" lon="12.3002167"><ele>441.66666666666663</ele><time>2026-04-25T10:51:24.956Z</time></trkpt><trkpt lat="46.259995" lon="12.3003017"><ele>443.33333333333337</ele><time>2026-04-25T10:51:25.955Z</time></trkpt><trkpt lat="46.2601783" lon="12.3003933"><ele>445.0</ele><time>2026-04-25T10:51:26.954Z</time></trkpt><trkpt lat="46.2603583" lon="12.3004917"><ele>447.0</ele><time>2026-04-25T10:51:27.956Z</time></trkpt><trkpt lat="46.2605317" lon="12.3006067"><ele>449.0</ele><time>2026-04-25T10:51:28.957Z</time></trkpt><trkpt lat="46.2606983" lon="12.3007383"><ele>451.0</ele><time>2026-04-25T10:51:29.955Z</time></trkpt><trkpt lat="46.2608617" lon="12.3008783"><ele>451.0</ele><time>2026-04-25T10:51:30.955Z</time></trkpt><trkpt lat="46.2610233" lon="12.3010167"><ele>451.0</ele><time>2026-04-25T10:51:31.954Z</time></trkpt><trkpt lat="46.2611833" lon="12.3011483"><ele>451.0</ele><time>2026-04-25T10:51:32.956Z</time></trkpt><trkpt lat="46.26134" lon="12.30127"><ele>450.33333333333337</ele><time>2026-04-25T10:51:33.955Z</time></trkpt><trkpt lat="46.261495" lon="12.3013833"><ele>449.66666666666663</ele><time>2026-04-25T10:51:34.956Z</time></trkpt><trkpt lat="46.2616467" lon="12.30149"><ele>449.0</ele><time>2026-04-25T10:51:35.956Z</time></trkpt><trkpt lat="46.261795" lon="12.3015933"><ele>449.0</ele><time>2026-04-25T10:51:36.956Z</time></trkpt><trkpt lat="46.2619383" lon="12.30169"><ele>449.0</ele><time>2026-04-25T10:51:37.956Z</time></trkpt><trkpt lat="46.2620733" lon="12.3017867"><ele>449.0</ele><time>2026-04-25T10:51:38.956Z</time></trkpt><trkpt lat="46.262205" lon="12.3018767"><ele>452.5</ele><time>2026-04-25T10:51:39.954Z</time></trkpt><trkpt lat="46.2623317" lon="12.301965"><ele>456.0</ele><time>2026-04-25T10:51:40.956Z</time></trkpt><trkpt lat="46.26246" lon="12.3020483"><ele>459.5</ele><time>2026-04-25T10:51:41.954Z</time></trkpt><trkpt lat="46.2625883" lon="12.302135"><ele>463.0</ele><time>2026-04-25T10:51:42.954Z</time></trkpt><trkpt lat="46.2627183" lon="12.3022233"><ele>463.75</ele><time>2026-04-25T10:51:43.954Z</time></trkpt><trkpt lat="46.2628483" lon="12.30231"><ele>464.5</ele><time>2026-04-25T10:51:44.955Z</time></trkpt><trkpt lat="46.2629717" lon="12.3023967"><ele>465.25</ele><time>2026-04-25T10:51:45.953Z</time></trkpt><trkpt lat="46.263095" lon="12.3024833"><ele>466.0</ele><time>2026-04-25T10:51:46.955Z</time></trkpt><trkpt lat="46.263225" lon="12.3025683"><ele>466.0</ele><time>2026-04-25T10:51:47.954Z</time></trkpt><trkpt lat="46.263355" lon="12.30266"><ele>466.0</ele><time>2026-04-25T10:51:48.954Z</time></trkpt><trkpt lat="46.2634917" lon="12.3027483"><ele>466.0</ele><time>2026-04-25T10:51:49.953Z</time></trkpt><trkpt lat="46.26363" lon="12.3028367"><ele>466.0</ele><time>2026-04-25T10:51:50.953Z</time></trkpt><trkpt lat="46.2637633" lon="12.3029217"><ele>466.0</ele><time>2026-04-25T10:51:51.955Z</time></trkpt><trkpt lat="46.2638883" lon="12.3029967"><ele>466.0</ele><time>2026-04-25T10:51:52.955Z</time></trkpt><trkpt lat="46.2640083" lon="12.3030533"><ele>466.0</ele><time>2026-04-25T10:51:53.953Z</time></trkpt><trkpt lat="46.2641217" lon="12.3030817"><ele>466.0</ele><time>2026-04-25T10:51:54.954Z</time></trkpt><trkpt lat="46.2642233" lon="12.3030917"><ele>464.6</ele><time>2026-04-25T10:51:55.955Z</time></trkpt><trkpt lat="46.2643183" lon="12.30309"><ele>463.20000000000005</ele><time>2026-04-25T10:51:56.954Z</time></trkpt><trkpt lat="46.2644083" lon="12.3030883"><ele>461.79999999999995</ele><time>2026-04-25T10:51:57.955Z</time></trkpt><trkpt lat="46.264505" lon="12.3030867"><ele>460.4</ele><time>2026-04-25T10:51:58.956Z</time></trkpt><trkpt lat="46.2646067" lon="12.3030967"><ele>459.0</ele><time>2026-04-25T10:51:59.954Z</time></trkpt><trkpt lat="46.2647167" lon="12.3031183"><ele>460.75</ele><time>2026-04-25T10:52:00.955Z</time></trkpt><trkpt lat="46.2648333" lon="12.3031383"><ele>462.5</ele><time>2026-04-25T10:52:01.954Z</time></trkpt><trkpt lat="46.2649517" lon="12.303155"><ele>464.25</ele><time>2026-04-25T10:52:02.953Z</time></trkpt><trkpt lat="46.2650633" lon="12.3031633"><ele>466.0</ele><time>2026-04-25T10:52:03.953Z</time></trkpt><trkpt lat="46.26517" lon="12.30316"><ele>466.0</ele><time>2026-04-25T10:52:04.955Z</time></trkpt><trkpt lat="46.2652717" lon="12.3031417"><ele>466.0</ele><time>2026-04-25T10:52:05.955Z</time></trkpt><trkpt lat="46.2653733" lon="12.3031083"><ele>466.0</ele><time>2026-04-25T10:52:06.954Z</time></trkpt><trkpt lat="46.26548" lon="12.3030517"><ele>466.0</ele><time>2026-04-25T10:52:07.954Z</time></trkpt><trkpt lat="46.2655967" lon="12.3029767"><ele>466.0</ele><time>2026-04-25T10:52:08.954Z</time></trkpt><trkpt lat="46.2657183" lon="12.302895"><ele>465.5</ele><time>2026-04-25T10:52:09.955Z</time></trkpt><trkpt lat="46.2658483" lon="12.3028117"><ele>465.0</ele><time>2026-04-25T10:52:10.955Z</time></trkpt><trkpt lat="46.2659833" lon="12.3027217"><ele>464.5</ele><time>2026-04-25T10:52:11.954Z</time></trkpt><trkpt lat="46.2661233" lon="12.3026333"><ele>464.0</ele><time>2026-04-25T10:52:12.954Z</time></trkpt><trkpt lat="46.2662667" lon="12.3025533"><ele>464.0</ele><time>2026-04-25T10:52:13.956Z</time></trkpt><trkpt lat="46.2664117" lon="12.3024917"><ele>464.0</ele><time>2026-04-25T10:52:14.953Z</time></trkpt><trkpt lat="46.266565" lon="12.3024533"><ele>464.0</ele><time>2026-04-25T10:52:15.954Z</time></trkpt><trkpt lat="46.2667217" lon="12.302435"><ele>462.75</ele><time>2026-04-25T10:52:16.954Z</time></trkpt><trkpt lat="46.2668767" lon="12.3024383"><ele>461.5</ele><time>2026-04-25T10:52:17.954Z</time></trkpt><trkpt lat="46.2670217" lon="12.3024617"><ele>460.25</ele><time>2026-04-25T10:52:18.955Z</time></trkpt><trkpt lat="46.2671617" lon="12.3025067"><ele>459.0</ele><time>2026-04-25T10:52:19.955Z</time></trkpt><trkpt lat="46.2672933" lon="12.302575"><ele>458.5</ele><time>2026-04-25T10:52:20.954Z</time></trkpt><trkpt lat="46.2674117" lon="12.30266"><ele>458.0</ele><time>2026-04-25T10:52:21.955Z</time></trkpt><trkpt lat="46.2675183" lon="12.3027483"><ele>457.5</ele><time>2026-04-25T10:52:22.956Z</time></trkpt><trkpt lat="46.26762" lon="12.302835"><ele>457.0</ele><time>2026-04-25T10:52:23.954Z</time></trkpt><trkpt lat="46.26771" lon="12.302935"><ele>457.0</ele><time>2026-04-25T10:52:24.954Z</time></trkpt><trkpt lat="46.26778" lon="12.3030617"><ele>457.0</ele><time>2026-04-25T10:52:25.955Z</time></trkpt><trkpt lat="46.267835" lon="12.3032"><ele>457.0</ele><time>2026-04-25T10:52:26.955Z</time></trkpt><trkpt lat="46.267875" lon="12.3033583"><ele>457.0</ele><time>2026-04-25T10:52:27.955Z</time></trkpt><trkpt lat="46.2679" lon="12.303535"><ele>454.75</ele><time>2026-04-25T10:52:28.955Z</time></trkpt><trkpt lat="46.26791" lon="12.30373"><ele>452.5</ele><time>2026-04-25T10:52:29.953Z</time></trkpt><trkpt lat="46.2678983" lon="12.3039417"><ele>450.25</ele><time>2026-04-25T10:52:30.955Z</time></trkpt><trkpt lat="46.2678667" lon="12.3041583"><ele>448.0</ele><time>2026-04-25T10:52:31.954Z</time></trkpt><trkpt lat="46.2678167" lon="12.3043783"><ele>446.0</ele><time>2026-04-25T10:52:32.955Z</time></trkpt><trkpt lat="46.2677617" lon="12.3046067"><ele>444.0</ele><time>2026-04-25T10:52:33.955Z</time></trkpt><trkpt lat="46.267715" lon="12.3048483"><ele>442.0</ele><time>2026-04-25T10:52:34.954Z</time></trkpt><trkpt lat="46.2676833" lon="12.3051067"><ele>442.0</ele><time>2026-04-25T10:52:35.954Z</time></trkpt><trkpt lat="46.2676617" lon="12.3053817"><ele>442.0</ele><time>2026-04-25T10:52:36.954Z</time></trkpt><trkpt lat="46.267655" lon="12.30567"><ele>442.0</ele><time>2026-04-25T10:52:37.954Z</time></trkpt><trkpt lat="46.2676633" lon="12.305965"><ele>440.6666666666667</ele><time>2026-04-25T10:52:38.955Z</time></trkpt><trkpt lat="46.2676783" lon="12.3062633"><ele>439.33333333333337</ele><time>2026-04-25T10:52:39.954Z</time></trkpt><trkpt lat="46.2676967" lon="12.3065533"><ele>438.0</ele><time>2026-04-25T10:52:40.955Z</time></trkpt><trkpt lat="46.26771" lon="12.3068317"><ele>437.0</ele><time>2026-04-25T10:52:41.954Z</time></trkpt><trkpt lat="46.2677267" lon="12.3071083"><ele>436.0</ele><time>2026-04-25T10:52:42.955Z</time></trkpt><trkpt lat="46.2677433" lon="12.3073767"><ele>435.0</ele><time>2026-04-25T10:52:43.954Z</time></trkpt><trkpt lat="46.26776" lon="12.3076433"><ele>435.0</ele><time>2026-04-25T10:52:44.955Z</time></trkpt><trkpt lat="46.267775" lon="12.307905"><ele>435.0</ele><time>2026-04-25T10:52:45.954Z</time></trkpt><trkpt lat="46.26779" lon="12.308165"><ele>435.0</ele><time>2026-04-25T10:52:46.955Z</time></trkpt><trkpt lat="46.267805" lon="12.30842"><ele>435.0</ele><time>2026-04-25T10:52:47.954Z</time></trkpt><trkpt lat="46.2678183" lon="12.3086633"><ele>435.0</ele><time>2026-04-25T10:52:48.954Z</time></trkpt><trkpt lat="46.2678333" lon="12.3088917"><ele>435.0</ele><time>2026-04-25T10:52:49.956Z</time></trkpt><trkpt lat="46.2678467" lon="12.3091067"><ele>435.5</ele><time>2026-04-25T10:52:50.955Z</time></trkpt><trkpt lat="46.26786" lon="12.3093117"><ele>436.0</ele><time>2026-04-25T10:52:51.955Z</time></trkpt><trkpt lat="46.267875" lon="12.3095133"><ele>436.5</ele><time>2026-04-25T10:52:52.956Z</time></trkpt><trkpt lat="46.2678883" lon="12.3097167"><ele>437.0</ele><time>2026-04-25T10:52:53.955Z</time></trkpt><trkpt lat="46.2679" lon="12.3099167"><ele>437.75</ele><time>2026-04-25T10:52:54.955Z</time></trkpt><trkpt lat="46.2679117" lon="12.3101083"><ele>438.5</ele><time>2026-04-25T10:52:55.956Z</time></trkpt><trkpt lat="46.2679217" lon="12.3102883"><ele>439.25</ele><time>2026-04-25T10:52:56.954Z</time></trkpt><trkpt lat="46.2679267" lon="12.3104517"><ele>440.0</ele><time>2026-04-25T10:52:57.955Z</time></trkpt><trkpt lat="46.2679317" lon="12.310595"><ele>441.3333333333333</ele><time>2026-04-25T10:52:58.956Z</time></trkpt><trkpt lat="46.2679383" lon="12.3107217"><ele>442.66666666666663</ele><time>2026-04-25T10:52:59.954Z</time></trkpt><trkpt lat="46.2679533" lon="12.31084"><ele>444.0</ele><time>2026-04-25T10:53:00.955Z</time></trkpt><trkpt lat="46.2679917" lon="12.3109217"><ele>445.33333333333337</ele><time>2026-04-25T10:53:01.955Z</time></trkpt><trkpt lat="46.26806" lon="12.310955"><ele>446.6666666666667</ele><time>2026-04-25T10:53:02.955Z</time></trkpt><trkpt lat="46.2681583" lon="12.3109367"><ele>448.0</ele><time>2026-04-25T10:53:03.955Z</time></trkpt><trkpt lat="46.2682817" lon="12.3108767"><ele>445.33333333333337</ele><time>2026-04-25T10:53:04.955Z</time></trkpt><trkpt lat="46.268425" lon="12.310775"><ele>442.66666666666663</ele><time>2026-04-25T10:53:05.954Z</time></trkpt><trkpt lat="46.268585" lon="12.3106583"><ele>440.0</ele><time>2026-04-25T10:53:06.955Z</time></trkpt><trkpt lat="46.2687583" lon="12.310545"><ele>440.0</ele><time>2026-04-25T10:53:07.956Z</time></trkpt><trkpt lat="46.2689317" lon="12.31043"><ele>440.0</ele><time>2026-04-25T10:53:08.954Z</time></trkpt><trkpt lat="46.2691" lon="12.31032"><ele>440.0</ele><time>2026-04-25T10:53:09.955Z</time></trkpt><trkpt lat="46.26927" lon="12.3102133"><ele>441.66666666666663</ele><time>2026-04-25T10:53:10.956Z</time></trkpt><trkpt lat="46.2694383" lon="12.3101067"><ele>443.33333333333337</ele><time>2026-04-25T10:53:11.954Z</time></trkpt><trkpt lat="46.26961" lon="12.3099983"><ele>445.0</ele><time>2026-04-25T10:53:12.955Z</time></trkpt><trkpt lat="46.269785" lon="12.3098933"><ele>444.6666666666667</ele><time>2026-04-25T10:53:13.955Z</time></trkpt><trkpt lat="46.26996" lon="12.3097883"><ele>444.33333333333337</ele><time>2026-04-25T10:53:14.954Z</time></trkpt><trkpt lat="46.270135" lon="12.309685"><ele>444.0</ele><time>2026-04-25T10:53:15.955Z</time></trkpt><trkpt lat="46.270305" lon="12.3095867"><ele>444.0</ele><time>2026-04-25T10:53:16.955Z</time></trkpt><trkpt lat="46.2704733" lon="12.3094867"><ele>444.0</ele><time>2026-04-25T10:53:17.953Z</time></trkpt><trkpt lat="46.2706417" lon="12.3093867"><ele>444.0</ele><time>2026-04-25T10:53:18.955Z</time></trkpt><trkpt lat="46.2708067" lon="12.3092833"><ele>445.0</ele><time>2026-04-25T10:53:19.954Z</time></trkpt><trkpt lat="46.27097" lon="12.3091833"><ele>446.0</ele><time>2026-04-25T10:53:20.955Z</time></trkpt><trkpt lat="46.2711283" lon="12.30909"><ele>447.0</ele><time>2026-04-25T10:53:21.955Z</time></trkpt><trkpt lat="46.271285" lon="12.3090167"><ele>447.0</ele><time>2026-04-25T10:53:22.955Z</time></trkpt><trkpt lat="46.27144" lon="12.308975"><ele>447.0</ele><time>2026-04-25T10:53:23.954Z</time></trkpt><trkpt lat="46.2716033" lon="12.30897"><ele>447.0</ele><time>2026-04-25T10:53:24.955Z</time></trkpt><trkpt lat="46.27177" lon="12.3089883"><ele>450.0</ele><time>2026-04-25T10:53:25.955Z</time></trkpt><trkpt lat="46.271935" lon="12.3090117"><ele>453.0</ele><time>2026-04-25T10:53:26.956Z</time></trkpt><trkpt lat="46.2721067" lon="12.30906"><ele>456.0</ele><time>2026-04-25T10:53:27.956Z</time></trkpt><trkpt lat="46.27228" lon="12.3091017"><ele>456.66666666666663</ele><time>2026-04-25T10:53:28.956Z</time></trkpt><trkpt lat="46.272455" lon="12.3091283"><ele>457.3333333333333</ele><time>2026-04-25T10:53:29.954Z</time></trkpt><trkpt lat="46.272635" lon="12.3091517"><ele>458.0</ele><time>2026-04-25T10:53:30.955Z</time></trkpt><trkpt lat="46.272815" lon="12.30917"><ele>458.0</ele><time>2026-04-25T10:53:31.956Z</time></trkpt><trkpt lat="46.2729933" lon="12.3091883"><ele>458.0</ele><time>2026-04-25T10:53:32.955Z</time></trkpt><trkpt lat="46.2731617" lon="12.3092033"><ele>458.0</ele><time>2026-04-25T10:53:33.955Z</time></trkpt><trkpt lat="46.2733217" lon="12.30922"><ele>455.75</ele><time>2026-04-25T10:53:34.956Z</time></trkpt><trkpt lat="46.27347" lon="12.3092317"><ele>453.5</ele><time>2026-04-25T10:53:35.953Z</time></trkpt><trkpt lat="46.2736117" lon="12.309235"><ele>451.25</ele><time>2026-04-25T10:53:36.956Z</time></trkpt><trkpt lat="46.27375" lon="12.309225"><ele>449.0</ele><time>2026-04-25T10:53:37.955Z</time></trkpt><trkpt lat="46.27389" lon="12.3092083"><ele>447.66666666666663</ele><time>2026-04-25T10:53:38.955Z</time></trkpt><trkpt lat="46.2740317" lon="12.3091733"><ele>446.33333333333337</ele><time>2026-04-25T10:53:39.954Z</time></trkpt><trkpt lat="46.2741767" lon="12.3091217"><ele>445.0</ele><time>2026-04-25T10:53:40.957Z</time></trkpt><trkpt lat="46.2743267" lon="12.3090567"><ele>445.0</ele><time>2026-04-25T10:53:41.955Z</time></trkpt><trkpt lat="46.2744783" lon="12.3089783"><ele>445.0</ele><time>2026-04-25T10:53:42.955Z</time></trkpt><trkpt lat="46.2746333" lon="12.308885"><ele>445.0</ele><time>2026-04-25T10:53:43.955Z</time></trkpt><trkpt lat="46.2748" lon="12.3087717"><ele>445.0</ele><time>2026-04-25T10:53:44.954Z</time></trkpt><trkpt lat="46.2749733" lon="12.3086583"><ele>445.0</ele><time>2026-04-25T10:53:45.955Z</time></trkpt><trkpt lat="46.27514" lon="12.3085483"><ele>445.0</ele><time>2026-04-25T10:53:46.955Z</time></trkpt><trkpt lat="46.2752917" lon="12.30845"><ele>445.0</ele><time>2026-04-25T10:53:47.955Z</time></trkpt><trkpt lat="46.275425" lon="12.3083617"><ele>445.0</ele><time>2026-04-25T10:53:48.954Z</time></trkpt><trkpt lat="46.2755517" lon="12.3082817"><ele>445.0</ele><time>2026-04-25T10:53:49.955Z</time></trkpt><trkpt lat="46.2756783" lon="12.30823"><ele>445.0</ele><time>2026-04-25T10:53:50.954Z</time></trkpt><trkpt lat="46.27581" lon="12.3082117"><ele>447.5</ele><time>2026-04-25T10:53:51.955Z</time></trkpt><trkpt lat="46.27595" lon="12.3082317"><ele>450.0</ele><time>2026-04-25T10:53:52.955Z</time></trkpt><trkpt lat="46.2760833" lon="12.308295"><ele>452.5</ele><time>2026-04-25T10:53:53.955Z</time></trkpt><trkpt lat="46.2762033" lon="12.3083833"><ele>455.0</ele><time>2026-04-25T10:53:54.954Z</time></trkpt><trkpt lat="46.2763183" lon="12.3084967"><ele>455.0</ele><time>2026-04-25T10:53:55.956Z</time></trkpt><trkpt lat="46.2764317" lon="12.3086283"><ele>455.0</ele><time>2026-04-25T10:53:56.956Z</time></trkpt><trkpt lat="46.276535" lon="12.3087767"><ele>455.0</ele><time>2026-04-25T10:53:57.955Z</time></trkpt><trkpt lat="46.2766267" lon="12.30892"><ele>455.0</ele><time>2026-04-25T10:53:58.955Z</time></trkpt><trkpt lat="46.2767083" lon="12.3090383"><ele>455.8</ele><time>2026-04-25T10:53:59.955Z</time></trkpt><trkpt lat="46.2767783" lon="12.3091433"><ele>456.6</ele><time>2026-04-25T10:54:00.954Z</time></trkpt><trkpt lat="46.2768483" lon="12.3092483"><ele>457.4</ele><time>2026-04-25T10:54:01.955Z</time></trkpt><trkpt lat="46.276925" lon="12.3093517"><ele>458.2</ele><time>2026-04-25T10:54:02.955Z</time></trkpt><trkpt lat="46.2770083" lon="12.3094567"><ele>459.0</ele><time>2026-04-25T10:54:03.954Z</time></trkpt><trkpt lat="46.2771017" lon="12.3095633"><ele>459.0</ele><time>2026-04-25T10:54:04.956Z</time></trkpt><trkpt lat="46.2772017" lon="12.3096733"><ele>459.0</ele><time>2026-04-25T10:54:05.961Z</time></trkpt><trkpt lat="46.27731" lon="12.3097867"><ele>459.0</ele><time>2026-04-25T10:54:06.955Z</time></trkpt><trkpt lat="46.27742" lon="12.3099067"><ele>459.0</ele><time>2026-04-25T10:54:07.955Z</time></trkpt><trkpt lat="46.277535" lon="12.3100233"><ele>460.25</ele><time>2026-04-25T10:54:08.955Z</time></trkpt><trkpt lat="46.2776533" lon="12.31014"><ele>461.5</ele><time>2026-04-25T10:54:09.957Z</time></trkpt><trkpt lat="46.2777717" lon="12.31025"><ele>462.75</ele><time>2026-04-25T10:54:10.956Z</time></trkpt><trkpt lat="46.27789" lon="12.3103533"><ele>464.0</ele><time>2026-04-25T10:54:11.955Z</time></trkpt><trkpt lat="46.2780133" lon="12.3104517"><ele>463.5</ele><time>2026-04-25T10:54:12.955Z</time></trkpt><trkpt lat="46.2781417" lon="12.3105417"><ele>463.0</ele><time>2026-04-25T10:54:13.955Z</time></trkpt><trkpt lat="46.2782717" lon="12.310625"><ele>462.5</ele><time>2026-04-25T10:54:14.955Z</time></trkpt><trkpt lat="46.2784067" lon="12.3107017"><ele>462.0</ele><time>2026-04-25T10:54:15.954Z</time></trkpt><trkpt lat="46.2785467" lon="12.3107717"><ele>465.33333333333337</ele><time>2026-04-25T10:54:16.954Z</time></trkpt><trkpt lat="46.278695" lon="12.3108417"><ele>468.6666666666667</ele><time>2026-04-25T10:54:17.955Z</time></trkpt><trkpt lat="46.2788533" lon="12.3109117"><ele>472.0</ele><time>2026-04-25T10:54:18.954Z</time></trkpt><trkpt lat="46.2790183" lon="12.310985"><ele>473.0</ele><time>2026-04-25T10:54:19.954Z</time></trkpt><trkpt lat="46.27918" lon="12.3110667"><ele>474.0</ele><time>2026-04-25T10:54:20.955Z</time></trkpt><trkpt lat="46.2793267" lon="12.3111467"><ele>475.0</ele><time>2026-04-25T10:54:21.955Z</time></trkpt><trkpt lat="46.2794533" lon="12.3112267"><ele>475.0</ele><time>2026-04-25T10:54:22.954Z</time></trkpt><trkpt lat="46.27956" lon="12.3113033"><ele>475.0</ele><time>2026-04-25T10:54:23.955Z</time></trkpt><trkpt lat="46.2796333" lon="12.3113833"><ele>475.0</ele><time>2026-04-25T10:54:24.954Z</time></trkpt><trkpt lat="46.27967" lon="12.31149"><ele>475.0</ele><time>2026-04-25T10:54:25.955Z</time></trkpt><trkpt lat="46.27966" lon="12.3115983"><ele>475.0</ele><time>2026-04-25T10:54:26.955Z</time></trkpt><trkpt lat="46.2796083" lon="12.3116883"><ele>478.25</ele><time>2026-04-25T10:54:27.955Z</time></trkpt><trkpt lat="46.2795333" lon="12.3117633"><ele>481.5</ele><time>2026-04-25T10:54:28.956Z</time></trkpt><trkpt lat="46.2794233" lon="12.3117917"><ele>484.75</ele><time>2026-04-25T10:54:29.954Z</time></trkpt><trkpt lat="46.279295" lon="12.31181"><ele>488.0</ele><time>2026-04-25T10:54:30.956Z</time></trkpt><trkpt lat="46.27916" lon="12.311815"><ele>488.0</ele><time>2026-04-25T10:54:31.956Z</time></trkpt><trkpt lat="46.2790267" lon="12.3118183"><ele>488.0</ele><time>2026-04-25T10:54:32.955Z</time></trkpt><trkpt lat="46.27889" lon="12.3118"><ele>488.0</ele><time>2026-04-25T10:54:33.955Z</time></trkpt><trkpt lat="46.2787533" lon="12.31175"><ele>488.0</ele><time>2026-04-25T10:54:34.956Z</time></trkpt><trkpt lat="46.278625" lon="12.3116767"><ele>489.0</ele><time>2026-04-25T10:54:35.955Z</time></trkpt><trkpt lat="46.2785133" lon="12.3115983"><ele>489.99999999999994</ele><time>2026-04-25T10:54:36.955Z</time></trkpt><trkpt lat="46.2784117" lon="12.3115483"><ele>490.99999999999994</ele><time>2026-04-25T10:54:37.955Z</time></trkpt><trkpt lat="46.2783133" lon="12.3115517"><ele>492.0</ele><time>2026-04-25T10:54:38.954Z</time></trkpt><trkpt lat="46.2782283" lon="12.31161"><ele>493.0</ele><time>2026-04-25T10:54:39.955Z</time></trkpt><trkpt lat="46.2781883" lon="12.311725"><ele>493.0</ele><time>2026-04-25T10:54:40.955Z</time></trkpt><trkpt lat="46.2782017" lon="12.3118583"><ele>493.0</ele><time>2026-04-25T10:54:41.956Z</time></trkpt><trkpt lat="46.2782783" lon="12.3119733"><ele>493.0</ele><time>2026-04-25T10:54:42.954Z</time></trkpt><trkpt lat="46.2783983" lon="12.3120517"><ele>493.0</ele><time>2026-04-25T10:54:43.954Z</time></trkpt><trkpt lat="46.2785367" lon="12.3121183"><ele>493.0</ele><time>2026-04-25T10:54:44.955Z</time></trkpt><trkpt lat="46.2786967" lon="12.3121717"><ele>493.0</ele><time>2026-04-25T10:54:45.955Z</time></trkpt><trkpt lat="46.278885" lon="12.3121967"><ele>493.0</ele><time>2026-04-25T10:54:46.956Z</time></trkpt><trkpt lat="46.27909" lon="12.3121967"><ele>491.33333333333337</ele><time>2026-04-25T10:54:47.955Z</time></trkpt><trkpt lat="46.27931" lon="12.3121783"><ele>489.66666666666663</ele><time>2026-04-25T10:54:48.956Z</time></trkpt><trkpt lat="46.2795283" lon="12.3121733"><ele>488.0</ele><time>2026-04-25T10:54:49.955Z</time></trkpt><trkpt lat="46.279745" lon="12.3121833"><ele>487.66666666666663</ele><time>2026-04-25T10:54:50.955Z</time></trkpt><trkpt lat="46.2799483" lon="12.3122217"><ele>487.33333333333337</ele><time>2026-04-25T10:54:51.955Z</time></trkpt><trkpt lat="46.2801367" lon="12.3122583"><ele>487.0</ele><time>2026-04-25T10:54:52.956Z</time></trkpt><trkpt lat="46.2803033" lon="12.31228"><ele>491.0</ele><time>2026-04-25T10:54:53.955Z</time></trkpt><trkpt lat="46.2804433" lon="12.312295"><ele>495.0</ele><time>2026-04-25T10:54:54.955Z</time></trkpt><trkpt lat="46.28057" lon="12.312315"><ele>499.0</ele><time>2026-04-25T10:54:55.954Z</time></trkpt><trkpt lat="46.2806817" lon="12.3123633"><ele>503.0</ele><time>2026-04-25T10:54:56.955Z</time></trkpt><trkpt lat="46.28077" lon="12.3124567"><ele>503.0</ele><time>2026-04-25T10:54:57.955Z</time></trkpt><trkpt lat="46.28083" lon="12.312585"><ele>502.99999999999994</ele><time>2026-04-25T10:54:58.955Z</time></trkpt><trkpt lat="46.2808517" lon="12.31274"><ele>502.99999999999994</ele><time>2026-04-25T10:54:59.956Z</time></trkpt><trkpt lat="46.2808133" lon="12.3128917"><ele>503.0</ele><time>2026-04-25T10:55:00.955Z</time></trkpt><trkpt lat="46.28074" lon="12.3130217"><ele>503.0</ele><time>2026-04-25T10:55:01.955Z</time></trkpt><trkpt lat="46.280595" lon="12.3130917"><ele>512.0</ele><time>2026-04-25T10:55:02.955Z</time></trkpt><trkpt lat="46.28044" lon="12.31314"><ele>521.0</ele><time>2026-04-25T10:55:03.956Z</time></trkpt><trkpt lat="46.280265" lon="12.313175"><ele>530.0</ele><time>2026-04-25T10:55:04.956Z</time></trkpt><trkpt lat="46.2800717" lon="12.3132083"><ele>530.0</ele><time>2026-04-25T10:55:05.955Z</time></trkpt><trkpt lat="46.2798583" lon="12.3132433"><ele>530.0</ele><time>2026-04-25T10:55:06.955Z</time></trkpt><trkpt lat="46.2796317" lon="12.31328"><ele>530.0</ele><time>2026-04-25T10:55:07.956Z</time></trkpt><trkpt lat="46.2794" lon="12.3133283"><ele>531.5</ele><time>2026-04-25T10:55:08.955Z</time></trkpt><trkpt lat="46.279165" lon="12.31337"><ele>533.0</ele><time>2026-04-25T10:55:09.954Z</time></trkpt><trkpt lat="46.27894" lon="12.3134117"><ele>536.0</ele><time>2026-04-25T10:55:10.956Z</time></trkpt><trkpt lat="46.2787367" lon="12.3134583"><ele>539.0</ele><time>2026-04-25T10:55:11.954Z</time></trkpt><trkpt lat="46.2785567" lon="12.313525"><ele>542.0</ele><time>2026-04-25T10:55:12.955Z</time></trkpt><trkpt lat="46.2784" lon="12.3136217"><ele>542.0</ele><time>2026-04-25T10:55:13.956Z</time></trkpt><trkpt lat="46.278255" lon="12.313755"><ele>542.0</ele><time>2026-04-25T10:55:14.955Z</time></trkpt><trkpt lat="46.278125" lon="12.3139233"><ele>542.0</ele><time>2026-04-25T10:55:15.955Z</time></trkpt><trkpt lat="46.2779967" lon="12.314105"><ele>541.3333333333333</ele><time>2026-04-25T10:55:16.956Z</time></trkpt><trkpt lat="46.2778567" lon="12.3142767"><ele>540.6666666666666</ele><time>2026-04-25T10:55:17.955Z</time></trkpt><trkpt lat="46.2777067" lon="12.3144317"><ele>540.0</ele><time>2026-04-25T10:55:18.955Z</time></trkpt><trkpt lat="46.2775433" lon="12.3145667"><ele>540.0</ele><time>2026-04-25T10:55:19.954Z</time></trkpt><trkpt lat="46.2773667" lon="12.3146883"><ele>540.0</ele><time>2026-04-25T10:55:20.955Z</time></trkpt><trkpt lat="46.2771783" lon="12.3147917"><ele>540.0</ele><time>2026-04-25T10:55:21.954Z</time></trkpt><trkpt lat="46.27698" lon="12.3148733"><ele>548.3333333333334</ele><time>2026-04-25T10:55:22.956Z</time></trkpt><trkpt lat="46.27678" lon="12.3149433"><ele>556.6666666666667</ele><time>2026-04-25T10:55:23.955Z</time></trkpt><trkpt lat="46.2765683" lon="12.3149917"><ele>565.0</ele><time>2026-04-25T10:55:24.955Z</time></trkpt><trkpt lat="46.2763517" lon="12.3150167"><ele>565.0</ele><time>2026-04-25T10:55:25.954Z</time></trkpt><trkpt lat="46.2761283" lon="12.31503"><ele>565.0</ele><time>2026-04-25T10:55:26.955Z</time></trkpt><trkpt lat="46.2759033" lon="12.3150417"><ele>565.0</ele><time>2026-04-25T10:55:27.955Z</time></trkpt><trkpt lat="46.2756767" lon="12.3150583"><ele>567.0</ele><time>2026-04-25T10:55:28.956Z</time></trkpt><trkpt lat="46.27544" lon="12.3150767"><ele>569.0</ele><time>2026-04-25T10:55:29.955Z</time></trkpt><trkpt lat="46.2752267" lon="12.3151083"><ele>569.0</ele><time>2026-04-25T10:55:30.955Z</time></trkpt><trkpt lat="46.27501" lon="12.3151117"><ele>569.0</ele><time>2026-04-25T10:55:31.96Z</time></trkpt><trkpt lat="46.274795" lon="12.3150817"><ele>569.0</ele><time>2026-04-25T10:55:32.955Z</time></trkpt><trkpt lat="46.2745883" lon="12.315"><ele>569.0</ele><time>2026-04-25T10:55:33.955Z</time></trkpt><trkpt lat="46.2743917" lon="12.3148717"><ele>569.0</ele><time>2026-04-25T10:55:34.955Z</time></trkpt><trkpt lat="46.2742133" lon="12.314715"><ele>569.0</ele><time>2026-04-25T10:55:35.955Z</time></trkpt><trkpt lat="46.27406" lon="12.3145517"><ele>571.25</ele><time>2026-04-25T10:55:36.955Z</time></trkpt><trkpt lat="46.2739283" lon="12.314405"><ele>573.5</ele><time>2026-04-25T10:55:37.955Z</time></trkpt><trkpt lat="46.2738117" lon="12.314285"><ele>575.75</ele><time>2026-04-25T10:55:38.955Z</time></trkpt><trkpt lat="46.2737067" lon="12.3141833"><ele>578.0</ele><time>2026-04-25T10:55:39.955Z</time></trkpt><trkpt lat="46.2736083" lon="12.314115"><ele>578.0</ele><time>2026-04-25T10:55:40.955Z</time></trkpt><trkpt lat="46.2735" lon="12.3141083"><ele>578.0</ele><time>2026-04-25T10:55:41.955Z</time></trkpt><trkpt lat="46.2733983" lon="12.3141667"><ele>578.0</ele><time>2026-04-25T10:55:42.955Z</time></trkpt><trkpt lat="46.2733217" lon="12.3142817"><ele>578.0</ele><time>2026-04-25T10:55:43.955Z</time></trkpt><trkpt lat="46.2732667" lon="12.3144083"><ele>578.0</ele><time>2026-04-25T10:55:44.955Z</time></trkpt><trkpt lat="46.2733317" lon="12.3145567"><ele>578.0</ele><time>2026-04-25T10:55:45.955Z</time></trkpt><trkpt lat="46.273435" lon="12.3146867"><ele>578.0</ele><time>2026-04-25T10:55:46.955Z</time></trkpt><trkpt lat="46.273575" lon="12.3148017"><ele>578.0</ele><time>2026-04-25T10:55:47.955Z</time></trkpt><trkpt lat="46.273745" lon="12.3149017"><ele>580.0</ele><time>2026-04-25T10:55:48.955Z</time></trkpt><trkpt lat="46.2738983" lon="12.3149917"><ele>582.0</ele><time>2026-04-25T10:55:49.956Z</time></trkpt><trkpt lat="46.274045" lon="12.3150733"><ele>584.0</ele><time>2026-04-25T10:55:50.955Z</time></trkpt><trkpt lat="46.2741733" lon="12.31516"><ele>584.0</ele><time>2026-04-25T10:55:51.955Z</time></trkpt><trkpt lat="46.2742633" lon="12.3152617"><ele>584.0</ele><time>2026-04-25T10:55:52.956Z</time></trkpt><trkpt lat="46.2743067" lon="12.3153983"><ele>584.0</ele><time>2026-04-25T10:55:53.955Z</time></trkpt><trkpt lat="46.2743233" lon="12.31554"><ele>584.0</ele><time>2026-04-25T10:55:54.955Z</time></trkpt><trkpt lat="46.274275" lon="12.3156517"><ele>584.0</ele><time>2026-04-25T10:55:55.955Z</time></trkpt><trkpt lat="46.27421" lon="12.31574"><ele>591.6666666666666</ele><time>2026-04-25T10:55:56.955Z</time></trkpt><trkpt lat="46.2741317" lon="12.3158033"><ele>599.3333333333334</ele><time>2026-04-25T10:55:57.954Z</time></trkpt><trkpt lat="46.2739467" lon="12.3157367"><ele>607.0</ele><time>2026-04-25T10:55:58.956Z</time></trkpt><trkpt lat="46.2737533" lon="12.3156617"><ele>608.0</ele><time>2026-04-25T10:55:59.955Z</time></trkpt><trkpt lat="46.2735583" lon="12.3156"><ele>609.0</ele><time>2026-04-25T10:56:00.956Z</time></trkpt><trkpt lat="46.2733467" lon="12.31556"><ele>610.0</ele><time>2026-04-25T10:56:01.955Z</time></trkpt><trkpt lat="46.273125" lon="12.3155217"><ele>607.6666666666667</ele><time>2026-04-25T10:56:02.955Z</time></trkpt><trkpt lat="46.2729" lon="12.315495"><ele>605.3333333333334</ele><time>2026-04-25T10:56:03.957Z</time></trkpt><trkpt lat="46.27268" lon="12.3154817"><ele>603.0</ele><time>2026-04-25T10:56:04.954Z</time></trkpt><trkpt lat="46.27247" lon="12.3154617"><ele>603.6666666666666</ele><time>2026-04-25T10:56:05.954Z</time></trkpt><trkpt lat="46.27227" lon="12.3154117"><ele>604.3333333333333</ele><time>2026-04-25T10:56:06.955Z</time></trkpt><trkpt lat="46.2720783" lon="12.3153283"><ele>605.0</ele><time>2026-04-25T10:56:07.956Z</time></trkpt><trkpt lat="46.2718967" lon="12.3152233"><ele>605.0</ele><time>2026-04-25T10:56:08.955Z</time></trkpt><trkpt lat="46.2717233" lon="12.315125"><ele>605.0</ele><time>2026-04-25T10:56:09.96Z</time></trkpt><trkpt lat="46.271565" lon="12.3150333"><ele>605.0</ele><time>2026-04-25T10:56:10.955Z</time></trkpt><trkpt lat="46.271425" lon="12.3149517"><ele>606.0</ele><time>2026-04-25T10:56:11.955Z</time></trkpt><trkpt lat="46.2713" lon="12.3148983"><ele>607.0</ele><time>2026-04-25T10:56:12.955Z</time></trkpt><trkpt lat="46.2711833" lon="12.3148783"><ele>608.0</ele><time>2026-04-25T10:56:13.956Z</time></trkpt><trkpt lat="46.27108" lon="12.3149267"><ele>609.0</ele><time>2026-04-25T10:56:14.955Z</time></trkpt><trkpt lat="46.27101" lon="12.3150417"><ele>609.0</ele><time>2026-04-25T10:56:15.955Z</time></trkpt><trkpt lat="46.27098" lon="12.315195"><ele>609.0</ele><time>2026-04-25T10:56:16.955Z</time></trkpt><trkpt lat="46.2710017" lon="12.31536"><ele>609.0</ele><time>2026-04-25T10:56:17.955Z</time></trkpt><trkpt lat="46.271075" lon="12.31552"><ele>609.0</ele><time>2026-04-25T10:56:18.955Z</time></trkpt><trkpt lat="46.2711983" lon="12.3156467"><ele>613.6666666666666</ele><time>2026-04-25T10:56:19.957Z</time></trkpt><trkpt lat="46.271355" lon="12.31574"><ele>618.3333333333333</ele><time>2026-04-25T10:56:20.955Z</time></trkpt><trkpt lat="46.2715067" lon="12.3158217"><ele>623.0</ele><time>2026-04-25T10:56:21.954Z</time></trkpt><trkpt lat="46.2716567" lon="12.3158817"><ele>623.0</ele><time>2026-04-25T10:56:22.955Z</time></trkpt><trkpt lat="46.2717933" lon="12.31593"><ele>623.0</ele><time>2026-04-25T10:56:23.954Z</time></trkpt><trkpt lat="46.2719317" lon="12.3159583"><ele>623.0</ele><time>2026-04-25T10:56:24.955Z</time></trkpt><trkpt lat="46.2720583" lon="12.3159883"><ele>623.0</ele><time>2026-04-25T10:56:25.954Z</time></trkpt><trkpt lat="46.27219" lon="12.3160117"><ele>622.5</ele><time>2026-04-25T10:56:26.955Z</time></trkpt><trkpt lat="46.2723217" lon="12.3160517"><ele>622.0</ele><time>2026-04-25T10:56:27.954Z</time></trkpt><trkpt lat="46.2724567" lon="12.3160867"><ele>621.5</ele><time>2026-04-25T10:56:28.954Z</time></trkpt><trkpt lat="46.272595" lon="12.31612"><ele>621.0</ele><time>2026-04-25T10:56:29.954Z</time></trkpt><trkpt lat="46.2727433" lon="12.31616"><ele>621.0</ele><time>2026-04-25T10:56:30.955Z</time></trkpt><trkpt lat="46.2729" lon="12.3162033"><ele>621.0</ele><time>2026-04-25T10:56:31.955Z</time></trkpt><trkpt lat="46.2730617" lon="12.31625"><ele>621.0</ele><time>2026-04-25T10:56:32.954Z</time></trkpt><trkpt lat="46.2732283" lon="12.316295"><ele>623.3333333333334</ele><time>2026-04-25T10:56:33.955Z</time></trkpt><trkpt lat="46.2734033" lon="12.3163417"><ele>625.6666666666667</ele><time>2026-04-25T10:56:34.956Z</time></trkpt><trkpt lat="46.27359" lon="12.3163883"><ele>628.0</ele><time>2026-04-25T10:56:35.953Z</time></trkpt><trkpt lat="46.2737733" lon="12.3164367"><ele>629.6666666666667</ele><time>2026-04-25T10:56:36.956Z</time></trkpt><trkpt lat="46.2739567" lon="12.3164867"><ele>631.3333333333334</ele><time>2026-04-25T10:56:37.953Z</time></trkpt><trkpt lat="46.2741383" lon="12.3165417"><ele>633.0</ele><time>2026-04-25T10:56:38.955Z</time></trkpt><trkpt lat="46.2743233" lon="12.3166283"><ele>633.0</ele><time>2026-04-25T10:56:39.955Z</time></trkpt><trkpt lat="46.27451" lon="12.316725"><ele>633.0</ele><time>2026-04-25T10:56:40.956Z</time></trkpt><trkpt lat="46.2746983" lon="12.316835"><ele>633.0</ele><time>2026-04-25T10:56:41.953Z</time></trkpt><trkpt lat="46.2748883" lon="12.3169317"><ele>633.0</ele><time>2026-04-25T10:56:42.955Z</time></trkpt><trkpt lat="46.2750817" lon="12.3170067"><ele>633.0</ele><time>2026-04-25T10:56:43.955Z</time></trkpt><trkpt lat="46.2752817" lon="12.3170483"><ele>633.0</ele><time>2026-04-25T10:56:44.955Z</time></trkpt><trkpt lat="46.27549" lon="12.31708"><ele>632.6666666666666</ele><time>2026-04-25T10:56:45.956Z</time></trkpt><trkpt lat="46.2757017" lon="12.3171083"><ele>632.3333333333333</ele><time>2026-04-25T10:56:46.955Z</time></trkpt><trkpt lat="46.2759117" lon="12.3171283"><ele>632.0</ele><time>2026-04-25T10:56:47.954Z</time></trkpt><trkpt lat="46.27612" lon="12.31713"><ele>632.0</ele><time>2026-04-25T10:56:48.955Z</time></trkpt><trkpt lat="46.2763183" lon="12.3171267"><ele>632.0</ele><time>2026-04-25T10:56:49.954Z</time></trkpt><trkpt lat="46.2765033" lon="12.3171183"><ele>632.0</ele><time>2026-04-25T10:56:50.954Z</time></trkpt><trkpt lat="46.2766717" lon="12.3171067"><ele>632.25</ele><time>2026-04-25T10:56:51.953Z</time></trkpt><trkpt lat="46.276835" lon="12.3170917"><ele>632.5</ele><time>2026-04-25T10:56:52.955Z</time></trkpt><trkpt lat="46.2769783" lon="12.3170833"><ele>632.75</ele><time>2026-04-25T10:56:53.953Z</time></trkpt><trkpt lat="46.2771" lon="12.3170717"><ele>633.0</ele><time>2026-04-25T10:56:54.954Z</time></trkpt><trkpt lat="46.277205" lon="12.3170583"><ele>633.1999999999999</ele><time>2026-04-25T10:56:55.954Z</time></trkpt><trkpt lat="46.2772917" lon="12.3170483"><ele>633.4</ele><time>2026-04-25T10:56:56.955Z</time></trkpt><trkpt lat="46.2773683" lon="12.3170817"><ele>633.5999999999999</ele><time>2026-04-25T10:56:57.955Z</time></trkpt><trkpt lat="46.2774467" lon="12.317195"><ele>633.8</ele><time>2026-04-25T10:56:59.954Z</time></trkpt><trkpt lat="46.277345" lon="12.3172583"><ele>634.0</ele><time>2026-04-25T10:57:00.955Z</time></trkpt><trkpt lat="46.2772517" lon="12.31728"><ele>643.6666666666667</ele><time>2026-04-25T10:57:01.955Z</time></trkpt><trkpt lat="46.2771183" lon="12.317285"><ele>653.3333333333334</ele><time>2026-04-25T10:57:02.954Z</time></trkpt><trkpt lat="46.276955" lon="12.3172983"><ele>663.0</ele><time>2026-04-25T10:57:03.954Z</time></trkpt><trkpt lat="46.2767633" lon="12.31733"><ele>663.0</ele><time>2026-04-25T10:57:04.956Z</time></trkpt><trkpt lat="46.2765533" lon="12.3173717"><ele>663.0</ele><time>2026-04-25T10:57:05.954Z</time></trkpt><trkpt lat="46.2763433" lon="12.3174267"><ele>663.0</ele><time>2026-04-25T10:57:06.955Z</time></trkpt><trkpt lat="46.2761367" lon="12.31747"><ele>660.3333333333334</ele><time>2026-04-25T10:57:07.954Z</time></trkpt><trkpt lat="46.2759317" lon="12.3174967"><ele>657.6666666666667</ele><time>2026-04-25T10:57:08.955Z</time></trkpt><trkpt lat="46.2757267" lon="12.3174967"><ele>655.0</ele><time>2026-04-25T10:57:09.954Z</time></trkpt><trkpt lat="46.2755233" lon="12.3174833"><ele>652.3333333333334</ele><time>2026-04-25T10:57:10.955Z</time></trkpt><trkpt lat="46.27532" lon="12.3174667"><ele>649.6666666666666</ele><time>2026-04-25T10:57:11.954Z</time></trkpt><trkpt lat="46.2751233" lon="12.3174517"><ele>647.0</ele><time>2026-04-25T10:57:12.955Z</time></trkpt><trkpt lat="46.274925" lon="12.317445"><ele>647.0</ele><time>2026-04-25T10:57:13.954Z</time></trkpt><trkpt lat="46.2747333" lon="12.31745"><ele>647.0</ele><time>2026-04-25T10:57:14.955Z</time></trkpt><trkpt lat="46.2745417" lon="12.31745"><ele>647.0</ele><time>2026-04-25T10:57:15.955Z</time></trkpt><trkpt lat="46.2743533" lon="12.3174483"><ele>647.0</ele><time>2026-04-25T10:57:16.955Z</time></trkpt><trkpt lat="46.2741667" lon="12.3174317"><ele>647.0</ele><time>2026-04-25T10:57:17.954Z</time></trkpt><trkpt lat="46.273975" lon="12.3174017"><ele>647.0</ele><time>2026-04-25T10:57:18.954Z</time></trkpt><trkpt lat="46.2737783" lon="12.3173733"><ele>647.0</ele><time>2026-04-25T10:57:19.954Z</time></trkpt><trkpt lat="46.273575" lon="12.3173433"><ele>647.0</ele><time>2026-04-25T10:57:20.954Z</time></trkpt><trkpt lat="46.2733633" lon="12.3173133"><ele>647.0</ele><time>2026-04-25T10:57:21.954Z</time></trkpt><trkpt lat="46.2731383" lon="12.3172833"><ele>650.0</ele><time>2026-04-25T10:57:22.954Z</time></trkpt><trkpt lat="46.2729133" lon="12.3172283"><ele>653.0</ele><time>2026-04-25T10:57:23.954Z</time></trkpt><trkpt lat="46.2727033" lon="12.31717"><ele>656.0</ele><time>2026-04-25T10:57:24.955Z</time></trkpt><trkpt lat="46.272505" lon="12.317105"><ele>656.0</ele><time>2026-04-25T10:57:25.955Z</time></trkpt><trkpt lat="46.2723217" lon="12.3170483"><ele>656.0</ele><time>2026-04-25T10:57:26.956Z</time></trkpt><trkpt lat="46.2721483" lon="12.3169983"><ele>656.0</ele><time>2026-04-25T10:57:27.954Z</time></trkpt><trkpt lat="46.2719717" lon="12.3169567"><ele>660.6666666666666</ele><time>2026-04-25T10:57:28.955Z</time></trkpt><trkpt lat="46.2718" lon="12.3169567"><ele>665.3333333333334</ele><time>2026-04-25T10:57:29.954Z</time></trkpt><trkpt lat="46.2716417" lon="12.3169883"><ele>670.0</ele><time>2026-04-25T10:57:30.955Z</time></trkpt><trkpt lat="46.2714983" lon="12.31704"><ele>667.5</ele><time>2026-04-25T10:57:31.955Z</time></trkpt><trkpt lat="46.27136" lon="12.3170867"><ele>665.0</ele><time>2026-04-25T10:57:32.954Z</time></trkpt><trkpt lat="46.2712267" lon="12.3171283"><ele>662.5</ele><time>2026-04-25T10:57:33.955Z</time></trkpt><trkpt lat="46.2711017" lon="12.3171667"><ele>660.0</ele><time>2026-04-25T10:57:34.956Z</time></trkpt><trkpt lat="46.270985" lon="12.3172"><ele>660.0</ele><time>2026-04-25T10:57:35.955Z</time></trkpt><trkpt lat="46.2708767" lon="12.3172317"><ele>660.0</ele><time>2026-04-25T10:57:36.953Z</time></trkpt><trkpt lat="46.2707783" lon="12.3172533"><ele>660.0</ele><time>2026-04-25T10:57:37.954Z</time></trkpt><trkpt lat="46.2706933" lon="12.317275"><ele>660.0</ele><time>2026-04-25T10:57:38.954Z</time></trkpt><trkpt lat="46.2706183" lon="12.317295"><ele>660.0</ele><time>2026-04-25T10:57:39.955Z</time></trkpt><trkpt lat="46.2705033" lon="12.3173233"><ele>667.6666666666666</ele><time>2026-04-25T10:57:41.954Z</time></trkpt><trkpt lat="46.2704333" lon="12.317345"><ele>675.3333333333334</ele><time>2026-04-25T10:57:43.954Z</time></trkpt><trkpt lat="46.27037" lon="12.3174"><ele>683.0</ele><time>2026-04-25T11:01:16.954Z</time></trkpt><trkpt lat="46.2702867" lon="12.317435"><ele>690.6666666666667</ele><time>2026-04-25T11:01:18.955Z</time></trkpt><trkpt lat="46.270165" lon="12.317465"><ele>698.3333333333334</ele><time>2026-04-25T11:01:20.955Z</time></trkpt><trkpt lat="46.270095" lon="12.3174833"><ele>706.0</ele><time>2026-04-25T11:01:21.955Z</time></trkpt><trkpt lat="46.2700133" lon="12.3174967"><ele>706.0</ele><time>2026-04-25T11:01:22.957Z</time></trkpt><trkpt lat="46.26993" lon="12.3174983"><ele>706.0</ele><time>2026-04-25T11:01:23.956Z</time></trkpt><trkpt lat="46.26986" lon="12.3175233"><ele>706.0</ele><time>2026-04-25T11:01:24.957Z</time></trkpt><trkpt lat="46.2697933" lon="12.3175617"><ele>706.0</ele><time>2026-04-25T11:01:25.956Z</time></trkpt><trkpt lat="46.2697267" lon="12.3176"><ele>706.0</ele><time>2026-04-25T11:01:26.956Z</time></trkpt><trkpt lat="46.26966" lon="12.3176417"><ele>706.0</ele><time>2026-04-25T11:01:27.956Z</time></trkpt><trkpt lat="46.2695917" lon="12.3176867"><ele>706.0</ele><time>2026-04-25T11:01:28.957Z</time></trkpt><trkpt lat="46.2695217" lon="12.317735"><ele>697.8571428571428</ele><time>2026-04-25T11:01:29.956Z</time></trkpt><trkpt lat="46.269465" lon="12.3177867"><ele>689.7142857142858</ele><time>2026-04-25T11:01:30.956Z</time></trkpt><trkpt lat="46.2693967" lon="12.3178367"><ele>681.5714285714286</ele><time>2026-04-25T11:01:31.956Z</time></trkpt><trkpt lat="46.2693383" lon="12.3178883"><ele>673.4285714285713</ele><time>2026-04-25T11:01:32.956Z</time></trkpt><trkpt lat="46.2692667" lon="12.31792"><ele>665.2857142857142</ele><time>2026-04-25T11:01:33.955Z</time></trkpt><trkpt lat="46.2692117" lon="12.317985"><ele>657.1428571428571</ele><time>2026-04-25T11:01:34.957Z</time></trkpt><trkpt lat="46.2691517" lon="12.318035"><ele>649.0</ele><time>2026-04-25T11:01:35.955Z</time></trkpt><trkpt lat="46.2674367" lon="12.324765"><ele>649.0</ele><time>2026-04-25T11:02:13.957Z</time></trkpt><trkpt lat="46.267485" lon="12.3248983"><ele>649.0</ele><time>2026-04-25T11:02:14.954Z</time></trkpt><trkpt lat="46.2675567" lon="12.325005"><ele>649.0</ele><time>2026-04-25T11:02:15.955Z</time></trkpt><trkpt lat="46.26761" lon="12.3251067"><ele>649.0</ele><time>2026-04-25T11:02:16.955Z</time></trkpt><trkpt lat="46.2676917" lon="12.32515"><ele>649.0</ele><time>2026-04-25T11:02:17.955Z</time></trkpt><trkpt lat="46.2677533" lon="12.3252183"><ele>648.9999999999999</ele><time>2026-04-25T11:02:18.954Z</time></trkpt><trkpt lat="46.26782" lon="12.32527"><ele>649.0</ele><time>2026-04-25T11:02:19.955Z</time></trkpt><trkpt lat="46.2678717" lon="12.3253333"><ele>649.0</ele><time>2026-04-25T11:02:20.954Z</time></trkpt><trkpt lat="46.2679283" lon="12.3253967"><ele>649.0</ele><time>2026-04-25T11:02:21.955Z</time></trkpt><trkpt lat="46.267985" lon="12.3254583"><ele>649.0</ele><time>2026-04-25T11:02:22.954Z</time></trkpt><trkpt lat="46.2680433" lon="12.32552"><ele>648.9999999999999</ele><time>2026-04-25T11:02:23.955Z</time></trkpt><trkpt lat="46.2681" lon="12.3255817"><ele>649.0</ele><time>2026-04-25T11:02:24.955Z</time></trkpt><trkpt lat="46.26805" lon="12.3274433"><ele>668.0</ele><time>2026-04-25T11:02:33.954Z</time></trkpt><trkpt lat="46.268085" lon="12.3275333"><ele>687.0</ele><time>2026-04-25T11:02:34.956Z</time></trkpt><trkpt lat="46.2681067" lon="12.32765"><ele>706.0</ele><time>2026-04-25T11:02:35.956Z</time></trkpt><trkpt lat="46.2681267" lon="12.3277867"><ele>725.0</ele><time>2026-04-25T11:02:36.956Z</time></trkpt><trkpt lat="46.2681467" lon="12.3279333"><ele>744.0</ele><time>2026-04-25T11:02:37.956Z</time></trkpt><trkpt lat="46.268165" lon="12.328095"><ele>744.0</ele><time>2026-04-25T11:02:38.955Z</time></trkpt><trkpt lat="46.2681833" lon="12.3282517"><ele>744.0</ele><time>2026-04-25T11:02:39.956Z</time></trkpt><trkpt lat="46.2682" lon="12.3284167"><ele>744.0</ele><time>2026-04-25T11:02:40.956Z</time></trkpt><trkpt lat="46.268335" lon="12.32924"><ele>742.6666666666666</ele><time>2026-04-25T11:02:45.956Z</time></trkpt><trkpt lat="46.2684433" lon="12.3294533"><ele>741.3333333333333</ele><time>2026-04-25T11:02:46.955Z</time></trkpt><trkpt lat="46.268445" lon="12.3297083"><ele>740.0</ele><time>2026-04-25T11:02:47.954Z</time></trkpt><trkpt lat="46.26844" lon="12.3298517"><ele>737.0</ele><time>2026-04-25T11:02:48.955Z</time></trkpt><trkpt lat="46.268455" lon="12.3299883"><ele>734.0</ele><time>2026-04-25T11:02:49.955Z</time></trkpt><trkpt lat="46.2684983" lon="12.3300933"><ele>731.0</ele><time>2026-04-25T11:02:50.955Z</time></trkpt><trkpt lat="46.2685667" lon="12.3302017"><ele>728.0</ele><time>2026-04-25T11:02:51.955Z</time></trkpt><trkpt lat="46.2686517" lon="12.330295"><ele>725.0</ele><time>2026-04-25T11:02:52.955Z</time></trkpt><trkpt lat="46.268735" lon="12.330405"><ele>725.0</ele><time>2026-04-25T11:02:53.955Z</time></trkpt><trkpt lat="46.26882" lon="12.3305233"><ele>725.0</ele><time>2026-04-25T11:02:54.954Z</time></trkpt><trkpt lat="46.2688967" lon="12.3306567"><ele>725.0</ele><time>2026-04-25T11:02:55.956Z</time></trkpt><trkpt lat="46.2689667" lon="12.3308033"><ele>725.0</ele><time>2026-04-25T11:02:56.954Z</time></trkpt><trkpt lat="46.269035" lon="12.3309617"><ele>729.25</ele><time>2026-04-25T11:02:57.955Z</time></trkpt><trkpt lat="46.2690967" lon="12.33112"><ele>733.5</ele><time>2026-04-25T11:02:58.955Z</time></trkpt><trkpt lat="46.2691533" lon="12.3312783"><ele>737.75</ele><time>2026-04-25T11:02:59.955Z</time></trkpt><trkpt lat="46.2692067" lon="12.3314267"><ele>742.0</ele><time>2026-04-25T11:03:00.954Z</time></trkpt><trkpt lat="46.269255" lon="12.3315583"><ele>742.0</ele><time>2026-04-25T11:03:01.954Z</time></trkpt><trkpt lat="46.269295" lon="12.331665"><ele>742.0</ele><time>2026-04-25T11:03:02.955Z</time></trkpt><trkpt lat="46.2693333" lon="12.3317517"><ele>742.0</ele><time>2026-04-25T11:03:03.957Z</time></trkpt><trkpt lat="46.269365" lon="12.3318333"><ele>742.0</ele><time>2026-04-25T11:03:04.955Z</time></trkpt><trkpt lat="46.269395" lon="12.3319217"><ele>742.0</ele><time>2026-04-25T11:03:05.954Z</time></trkpt><trkpt lat="46.2694283" lon="12.3320333"><ele>742.0</ele><time>2026-04-25T11:03:06.955Z</time></trkpt><trkpt lat="46.2694617" lon="12.3321717"><ele>741.0</ele><time>2026-04-25T11:03:07.956Z</time></trkpt><trkpt lat="46.269485" lon="12.332335"><ele>740.0</ele><time>2026-04-25T11:03:08.954Z</time></trkpt><trkpt lat="46.2695" lon="12.3325083"><ele>739.0</ele><time>2026-04-25T11:03:09.956Z</time></trkpt><trkpt lat="46.2695" lon="12.33269"><ele>738.0</ele><time>2026-04-25T11:03:10.956Z</time></trkpt><trkpt lat="46.26949" lon="12.332865"><ele>738.0</ele><time>2026-04-25T11:03:11.955Z</time></trkpt><trkpt lat="46.2694733" lon="12.333025"><ele>738.0</ele><time>2026-04-25T11:03:12.955Z</time></trkpt><trkpt lat="46.2694633" lon="12.3331767"><ele>738.0</ele><time>2026-04-25T11:03:13.955Z</time></trkpt><trkpt lat="46.2694733" lon="12.3333183"><ele>738.0</ele><time>2026-04-25T11:03:14.955Z</time></trkpt><trkpt lat="46.2695067" lon="12.333455"><ele>738.0</ele><time>2026-04-25T11:03:15.955Z</time></trkpt><trkpt lat="46.26956" lon="12.33358"><ele>738.0</ele><time>2026-04-25T11:03:16.956Z</time></trkpt><trkpt lat="46.269635" lon="12.33366"><ele>738.0</ele><time>2026-04-25T11:03:17.953Z</time></trkpt><trkpt lat="46.2697383" lon="12.3336767"><ele>738.0</ele><time>2026-04-25T11:03:18.955Z</time></trkpt><trkpt lat="46.26984" lon="12.3336933"><ele>738.0</ele><time>2026-04-25T11:03:19.954Z</time></trkpt><trkpt lat="46.2699333" lon="12.33372"><ele>738.0</ele><time>2026-04-25T11:03:20.954Z</time></trkpt><trkpt lat="46.27002" lon="12.333765"><ele>747.2</ele><time>2026-04-25T11:03:21.954Z</time></trkpt><trkpt lat="46.2700833" lon="12.3338567"><ele>756.4</ele><time>2026-04-25T11:03:22.955Z</time></trkpt><trkpt lat="46.2701367" lon="12.333955"><ele>765.6</ele><time>2026-04-25T11:03:23.954Z</time></trkpt><trkpt lat="46.27016" lon="12.33406"><ele>774.8000000000001</ele><time>2026-04-25T11:03:24.956Z</time></trkpt><trkpt lat="46.270125" lon="12.33419"><ele>784.0</ele><time>2026-04-25T11:03:25.954Z</time></trkpt><trkpt lat="46.2700883" lon="12.3343267"><ele>784.8000000000001</ele><time>2026-04-25T11:03:26.955Z</time></trkpt><trkpt lat="46.2700483" lon="12.334455"><ele>785.6</ele><time>2026-04-25T11:03:27.955Z</time></trkpt><trkpt lat="46.2700117" lon="12.3345817"><ele>786.4</ele><time>2026-04-25T11:03:28.955Z</time></trkpt><trkpt lat="46.269975" lon="12.3347033"><ele>787.2</ele><time>2026-04-25T11:03:29.954Z</time></trkpt><trkpt lat="46.2699367" lon="12.3348167"><ele>788.0</ele><time>2026-04-25T11:03:30.955Z</time></trkpt><trkpt lat="46.2698967" lon="12.3349183"><ele>790.3333333333334</ele><time>2026-04-25T11:03:31.955Z</time></trkpt><trkpt lat="46.2698483" lon="12.33502"><ele>792.6666666666667</ele><time>2026-04-25T11:03:32.954Z</time></trkpt><trkpt lat="46.2697967" lon="12.335105"><ele>795.0</ele><time>2026-04-25T11:03:33.955Z</time></trkpt><trkpt lat="46.2697417" lon="12.3351833"><ele>797.3333333333333</ele><time>2026-04-25T11:03:34.955Z</time></trkpt><trkpt lat="46.26968" lon="12.3352533"><ele>799.6666666666666</ele><time>2026-04-25T11:03:35.954Z</time></trkpt><trkpt lat="46.269605" lon="12.3353083"><ele>802.0</ele><time>2026-04-25T11:03:36.955Z</time></trkpt><trkpt lat="46.269525" lon="12.3353567"><ele>794.1666666666666</ele><time>2026-04-25T11:03:37.955Z</time></trkpt><trkpt lat="46.26946" lon="12.335405"><ele>786.3333333333333</ele><time>2026-04-25T11:03:38.955Z</time></trkpt><trkpt lat="46.2693683" lon="12.3354367"><ele>778.5</ele><time>2026-04-25T11:03:39.955Z</time></trkpt><trkpt lat="46.2692817" lon="12.3354567"><ele>770.6666666666666</ele><time>2026-04-25T11:03:40.956Z</time></trkpt><trkpt lat="46.2691983" lon="12.3354817"><ele>762.8333333333333</ele><time>2026-04-25T11:03:41.954Z</time></trkpt><trkpt lat="46.269125" lon="12.3355133"><ele>755.0</ele><time>2026-04-25T11:03:42.955Z</time></trkpt><trkpt lat="46.2690667" lon="12.3355483"><ele>757.0</ele><time>2026-04-25T11:03:43.954Z</time></trkpt><trkpt lat="46.2689717" lon="12.3356217"><ele>759.0</ele><time>2026-04-25T11:03:45.955Z</time></trkpt><trkpt lat="46.268905" lon="12.3356783"><ele>761.0</ele><time>2026-04-25T11:03:48.955Z</time></trkpt><trkpt lat="46.26882" lon="12.3356833"><ele>763.0</ele><time>2026-04-25T11:04:21.955Z</time></trkpt><trkpt lat="46.2687583" lon="12.3356417"><ele>765.0</ele><time>2026-04-25T11:04:23.955Z</time></trkpt><trkpt lat="46.2688333" lon="12.335655"><ele>767.0</ele><time>2026-04-25T11:05:12.955Z</time></trkpt><trkpt lat="46.268885" lon="12.335735"><ele>767.0</ele><time>2026-04-25T11:05:17.955Z</time></trkpt><trkpt lat="46.2688417" lon="12.3358417"><ele>767.0</ele><time>2026-04-25T11:05:20.955Z</time></trkpt><trkpt lat="46.2687783" lon="12.3359433"><ele>767.0</ele><time>2026-04-25T11:05:22.955Z</time></trkpt><trkpt lat="46.2687067" lon="12.33609"><ele>767.0</ele><time>2026-04-25T11:05:24.956Z</time></trkpt><trkpt lat="46.26868" lon="12.3361767"><ele>767.0</ele><time>2026-04-25T11:05:25.956Z</time></trkpt><trkpt lat="46.2686583" lon="12.33627"><ele>767.0</ele><time>2026-04-25T11:05:26.956Z</time></trkpt><trkpt lat="46.2686433" lon="12.3363783"><ele>769.8</ele><time>2026-04-25T11:05:27.954Z</time></trkpt><trkpt lat="46.268635" lon="12.3364917"><ele>772.6</ele><time>2026-04-25T11:05:28.956Z</time></trkpt><trkpt lat="46.2686333" lon="12.3366133"><ele>775.4</ele><time>2026-04-25T11:05:29.954Z</time></trkpt><trkpt lat="46.2686417" lon="12.3367483"><ele>778.1999999999999</ele><time>2026-04-25T11:05:30.955Z</time></trkpt><trkpt lat="46.2686617" lon="12.3368867"><ele>781.0</ele><time>2026-04-25T11:05:31.955Z</time></trkpt><trkpt lat="46.268695" lon="12.3370217"><ele>781.0</ele><time>2026-04-25T11:05:32.955Z</time></trkpt><trkpt lat="46.2687417" lon="12.3371517"><ele>781.0</ele><time>2026-04-25T11:05:33.955Z</time></trkpt><trkpt lat="46.268805" lon="12.3372783"><ele>781.0</ele><time>2026-04-25T11:05:34.955Z</time></trkpt><trkpt lat="46.2688767" lon="12.3374083"><ele>781.0</ele><time>2026-04-25T11:05:35.956Z</time></trkpt><trkpt lat="46.2689583" lon="12.3375467"><ele>784.25</ele><time>2026-04-25T11:05:36.956Z</time></trkpt><trkpt lat="46.2690417" lon="12.3376983"><ele>787.5</ele><time>2026-04-25T11:05:37.955Z</time></trkpt><trkpt lat="46.269125" lon="12.3378533"><ele>790.75</ele><time>2026-04-25T11:05:38.955Z</time></trkpt><trkpt lat="46.2692133" lon="12.3380067"><ele>794.0</ele><time>2026-04-25T11:05:39.957Z</time></trkpt><trkpt lat="46.2693017" lon="12.33816"><ele>794.0</ele><time>2026-04-25T11:05:40.956Z</time></trkpt><trkpt lat="46.2693933" lon="12.3383167"><ele>794.0</ele><time>2026-04-25T11:05:41.956Z</time></trkpt><trkpt lat="46.2694817" lon="12.3384733"><ele>794.0</ele><time>2026-04-25T11:05:42.956Z</time></trkpt><trkpt lat="46.2695733" lon="12.3386317"><ele>794.0</ele><time>2026-04-25T11:05:43.954Z</time></trkpt><trkpt lat="46.269665" lon="12.3387883"><ele>794.5</ele><time>2026-04-25T11:05:44.955Z</time></trkpt><trkpt lat="46.2697567" lon="12.3389467"><ele>795.0</ele><time>2026-04-25T11:05:45.954Z</time></trkpt><trkpt lat="46.2698483" lon="12.339105"><ele>795.5</ele><time>2026-04-25T11:05:46.954Z</time></trkpt><trkpt lat="46.2699367" lon="12.33927"><ele>796.0</ele><time>2026-04-25T11:05:47.955Z</time></trkpt><trkpt lat="46.2700167" lon="12.3394467"><ele>796.3333333333333</ele><time>2026-04-25T11:05:48.954Z</time></trkpt><trkpt lat="46.2700817" lon="12.3396467"><ele>796.6666666666667</ele><time>2026-04-25T11:05:49.955Z</time></trkpt><trkpt lat="46.270125" lon="12.33987"><ele>797.0</ele><time>2026-04-25T11:05:50.955Z</time></trkpt><trkpt lat="46.2701483" lon="12.34011"><ele>797.0</ele><time>2026-04-25T11:05:51.956Z</time></trkpt><trkpt lat="46.270145" lon="12.34036"><ele>797.0</ele><time>2026-04-25T11:05:52.956Z</time></trkpt><trkpt lat="46.27013" lon="12.3406217"><ele>797.0</ele><time>2026-04-25T11:05:53.955Z</time></trkpt><trkpt lat="46.2701083" lon="12.3408867"><ele>799.6666666666667</ele><time>2026-04-25T11:05:54.955Z</time></trkpt><trkpt lat="46.2700867" lon="12.341155"><ele>802.3333333333333</ele><time>2026-04-25T11:05:55.955Z</time></trkpt><trkpt lat="46.2700667" lon="12.3414283"><ele>805.0</ele><time>2026-04-25T11:05:56.955Z</time></trkpt><trkpt lat="46.2700433" lon="12.3417033"><ele>807.0</ele><time>2026-04-25T11:05:57.955Z</time></trkpt><trkpt lat="46.2700283" lon="12.3419833"><ele>809.0</ele><time>2026-04-25T11:05:58.956Z</time></trkpt><trkpt lat="46.2700067" lon="12.3422567"><ele>811.0</ele><time>2026-04-25T11:05:59.954Z</time></trkpt><trkpt lat="46.269975" lon="12.3425317"><ele>812.0</ele><time>2026-04-25T11:06:00.956Z</time></trkpt><trkpt lat="46.2699367" lon="12.3428033"><ele>813.0</ele><time>2026-04-25T11:06:01.955Z</time></trkpt><trkpt lat="46.2698917" lon="12.3430717"><ele>814.0</ele><time>2026-04-25T11:06:02.955Z</time></trkpt><trkpt lat="46.2698467" lon="12.343335"><ele>814.0</ele><time>2026-04-25T11:06:03.957Z</time></trkpt><trkpt lat="46.2698" lon="12.3435933"><ele>814.0</ele><time>2026-04-25T11:06:04.956Z</time></trkpt><trkpt lat="46.2697567" lon="12.3438583"><ele>814.0</ele><time>2026-04-25T11:06:05.955Z</time></trkpt><trkpt lat="46.2697083" lon="12.3441283"><ele>811.6666666666666</ele><time>2026-04-25T11:06:06.956Z</time></trkpt><trkpt lat="46.2696583" lon="12.3444067"><ele>809.3333333333333</ele><time>2026-04-25T11:06:07.955Z</time></trkpt><trkpt lat="46.2696117" lon="12.3446917"><ele>807.0</ele><time>2026-04-25T11:06:08.956Z</time></trkpt><trkpt lat="46.2695667" lon="12.3449817"><ele>804.6666666666667</ele><time>2026-04-25T11:06:09.954Z</time></trkpt><trkpt lat="46.2695233" lon="12.3452717"><ele>802.3333333333334</ele><time>2026-04-25T11:06:10.956Z</time></trkpt><trkpt lat="46.2694783" lon="12.3455567"><ele>800.0</ele><time>2026-04-25T11:06:11.955Z</time></trkpt><trkpt lat="46.2694217" lon="12.3458317"><ele>800.0</ele><time>2026-04-25T11:06:12.956Z</time></trkpt><trkpt lat="46.26936" lon="12.346105"><ele>800.0</ele><time>2026-04-25T11:06:13.954Z</time></trkpt><trkpt lat="46.2692883" lon="12.3463733"><ele>800.0</ele><time>2026-04-25T11:06:14.954Z</time></trkpt><trkpt lat="46.26921" lon="12.34664"><ele>803.6666666666667</ele><time>2026-04-25T11:06:15.955Z</time></trkpt><trkpt lat="46.2691283" lon="12.3468967"><ele>807.3333333333333</ele><time>2026-04-25T11:06:16.957Z</time></trkpt><trkpt lat="46.269045" lon="12.3471383"><ele>811.0</ele><time>2026-04-25T11:06:17.954Z</time></trkpt><trkpt lat="46.2689633" lon="12.3473617"><ele>813.0</ele><time>2026-04-25T11:06:18.956Z</time></trkpt><trkpt lat="46.2688817" lon="12.3475633"><ele>815.0</ele><time>2026-04-25T11:06:19.955Z</time></trkpt><trkpt lat="46.2688033" lon="12.3477483"><ele>817.0</ele><time>2026-04-25T11:06:20.956Z</time></trkpt><trkpt lat="46.2687367" lon="12.3479233"><ele>810.5</ele><time>2026-04-25T11:06:21.955Z</time></trkpt><trkpt lat="46.268695" lon="12.3481033"><ele>804.0</ele><time>2026-04-25T11:06:22.955Z</time></trkpt><trkpt lat="46.2686917" lon="12.3482983"><ele>797.5</ele><time>2026-04-25T11:06:23.955Z</time></trkpt><trkpt lat="46.2687317" lon="12.3484917"><ele>791.0</ele><time>2026-04-25T11:06:24.955Z</time></trkpt><trkpt lat="46.2688083" lon="12.3486783"><ele>791.0</ele><time>2026-04-25T11:06:25.955Z</time></trkpt><trkpt lat="46.2689033" lon="12.3488733"><ele>791.0</ele><time>2026-04-25T11:06:26.954Z</time></trkpt><trkpt lat="46.26899" lon="12.3490933"><ele>791.0</ele><time>2026-04-25T11:06:27.955Z</time></trkpt><trkpt lat="46.2690633" lon="12.3493417"><ele>796.3333333333334</ele><time>2026-04-25T11:06:28.956Z</time></trkpt><trkpt lat="46.2691233" lon="12.3496083"><ele>801.6666666666667</ele><time>2026-04-25T11:06:29.955Z</time></trkpt><trkpt lat="46.2691767" lon="12.3498833"><ele>807.0</ele><time>2026-04-25T11:06:30.956Z</time></trkpt><trkpt lat="46.2692283" lon="12.3501633"><ele>807.0</ele><time>2026-04-25T11:06:31.955Z</time></trkpt><trkpt lat="46.2692817" lon="12.3504383"><ele>807.0</ele><time>2026-04-25T11:06:32.954Z</time></trkpt><trkpt lat="46.2693333" lon="12.3507033"><ele>807.0</ele><time>2026-04-25T11:06:33.956Z</time></trkpt><trkpt lat="46.2693767" lon="12.3509617"><ele>804.0</ele><time>2026-04-25T11:06:34.957Z</time></trkpt><trkpt lat="46.2694067" lon="12.351225"><ele>801.0</ele><time>2026-04-25T11:06:35.956Z</time></trkpt><trkpt lat="46.2694133" lon="12.3514967"><ele>798.0</ele><time>2026-04-25T11:06:36.956Z</time></trkpt><trkpt lat="46.2694017" lon="12.3517633"><ele>798.3333333333333</ele><time>2026-04-25T11:06:37.956Z</time></trkpt><trkpt lat="46.2693733" lon="12.352015"><ele>798.6666666666666</ele><time>2026-04-25T11:06:38.955Z</time></trkpt><trkpt lat="46.26934" lon="12.352245"><ele>799.0</ele><time>2026-04-25T11:06:39.956Z</time></trkpt><trkpt lat="46.2693083" lon="12.3524567"><ele>799.0</ele><time>2026-04-25T11:06:40.956Z</time></trkpt><trkpt lat="46.2692817" lon="12.3526533"><ele>799.0</ele><time>2026-04-25T11:06:41.955Z</time></trkpt><trkpt lat="46.269265" lon="12.3528433"><ele>799.0</ele><time>2026-04-25T11:06:42.956Z</time></trkpt><trkpt lat="46.2692783" lon="12.3530233"><ele>799.0</ele><time>2026-04-25T11:06:43.955Z</time></trkpt><trkpt lat="46.2693317" lon="12.353195"><ele>795.75</ele><time>2026-04-25T11:06:44.956Z</time></trkpt><trkpt lat="46.269425" lon="12.3533383"><ele>792.5</ele><time>2026-04-25T11:06:45.956Z</time></trkpt><trkpt lat="46.26955" lon="12.3534517"><ele>789.25</ele><time>2026-04-25T11:06:46.956Z</time></trkpt><trkpt lat="46.26969" lon="12.3535367"><ele>786.0</ele><time>2026-04-25T11:06:47.955Z</time></trkpt><trkpt lat="46.2698317" lon="12.353605"><ele>789.0</ele><time>2026-04-25T11:06:48.956Z</time></trkpt><trkpt lat="46.2699717" lon="12.35368"><ele>792.0</ele><time>2026-04-25T11:06:49.955Z</time></trkpt><trkpt lat="46.2701" lon="12.3537983"><ele>795.0</ele><time>2026-04-25T11:06:50.954Z</time></trkpt><trkpt lat="46.2701933" lon="12.35398"><ele>795.0</ele><time>2026-04-25T11:06:51.954Z</time></trkpt><trkpt lat="46.27025" lon="12.3542"><ele>795.0</ele><time>2026-04-25T11:06:52.956Z</time></trkpt><trkpt lat="46.2702967" lon="12.3544333"><ele>795.0</ele><time>2026-04-25T11:06:53.955Z</time></trkpt><trkpt lat="46.27035" lon="12.354655"><ele>788.3333333333333</ele><time>2026-04-25T11:06:54.956Z</time></trkpt><trkpt lat="46.27041" lon="12.3548733"><ele>781.6666666666666</ele><time>2026-04-25T11:06:55.956Z</time></trkpt><trkpt lat="46.270475" lon="12.3550967"><ele>775.0</ele><time>2026-04-25T11:06:56.957Z</time></trkpt><trkpt lat="46.2705467" lon="12.3553117"><ele>785.0</ele><time>2026-04-25T11:06:57.956Z</time></trkpt><trkpt lat="46.2706333" lon="12.3555317"><ele>795.0</ele><time>2026-04-25T11:06:58.957Z</time></trkpt><trkpt lat="46.2707133" lon="12.355745"><ele>805.0</ele><time>2026-04-25T11:06:59.955Z</time></trkpt><trkpt lat="46.2707817" lon="12.3559567"><ele>805.0</ele><time>2026-04-25T11:07:00.956Z</time></trkpt><trkpt lat="46.2708417" lon="12.356165"><ele>805.0</ele><time>2026-04-25T11:07:01.956Z</time></trkpt><trkpt lat="46.270915" lon="12.3563683"><ele>805.0</ele><time>2026-04-25T11:07:02.955Z</time></trkpt><trkpt lat="46.27097" lon="12.3565717"><ele>802.3333333333333</ele><time>2026-04-25T11:07:03.955Z</time></trkpt><trkpt lat="46.27101" lon="12.356815"><ele>799.6666666666667</ele><time>2026-04-25T11:07:04.957Z</time></trkpt><trkpt lat="46.2710067" lon="12.3570567"><ele>797.0</ele><time>2026-04-25T11:07:05.956Z</time></trkpt><trkpt lat="46.2709933" lon="12.3573"><ele>795.0</ele><time>2026-04-25T11:07:06.955Z</time></trkpt><trkpt lat="46.2709983" lon="12.3575383"><ele>793.0</ele><time>2026-04-25T11:07:07.956Z</time></trkpt><trkpt lat="46.2710167" lon="12.3577833"><ele>791.0</ele><time>2026-04-25T11:07:08.954Z</time></trkpt><trkpt lat="46.27104" lon="12.35802"><ele>788.3333333333334</ele><time>2026-04-25T11:07:09.955Z</time></trkpt><trkpt lat="46.2710833" lon="12.3582567"><ele>785.6666666666667</ele><time>2026-04-25T11:07:10.956Z</time></trkpt><trkpt lat="46.271125" lon="12.3584733"><ele>783.0</ele><time>2026-04-25T11:07:11.955Z</time></trkpt><trkpt lat="46.2711583" lon="12.3586717"><ele>783.0</ele><time>2026-04-25T11:07:12.955Z</time></trkpt><trkpt lat="46.2711883" lon="12.3588617"><ele>783.0</ele><time>2026-04-25T11:07:13.956Z</time></trkpt><trkpt lat="46.27124" lon="12.3590483"><ele>783.0</ele><time>2026-04-25T11:07:14.957Z</time></trkpt><trkpt lat="46.2712683" lon="12.3591617"><ele>783.0</ele><time>2026-04-25T11:07:15.957Z</time></trkpt><trkpt lat="46.2712917" lon="12.35935"><ele>780.5</ele><time>2026-04-25T11:07:16.957Z</time></trkpt><trkpt lat="46.271295" lon="12.359565"><ele>778.0</ele><time>2026-04-25T11:07:17.956Z</time></trkpt><trkpt lat="46.271295" lon="12.3597633"><ele>775.5</ele><time>2026-04-25T11:07:18.956Z</time></trkpt><trkpt lat="46.2712867" lon="12.359975"><ele>773.0</ele><time>2026-04-25T11:07:19.955Z</time></trkpt><trkpt lat="46.271275" lon="12.3601783"><ele>771.5</ele><time>2026-04-25T11:07:20.957Z</time></trkpt><trkpt lat="46.2712617" lon="12.360375"><ele>770.0</ele><time>2026-04-25T11:07:21.956Z</time></trkpt><trkpt lat="46.2712417" lon="12.360565"><ele>768.5</ele><time>2026-04-25T11:07:22.956Z</time></trkpt><trkpt lat="46.2712117" lon="12.3607483"><ele>767.0</ele><time>2026-04-25T11:07:23.955Z</time></trkpt><trkpt lat="46.2711683" lon="12.3609067"><ele>767.0</ele><time>2026-04-25T11:07:24.956Z</time></trkpt><trkpt lat="46.27112" lon="12.3610283"><ele>767.0</ele><time>2026-04-25T11:07:25.955Z</time></trkpt><trkpt lat="46.2710717" lon="12.361135"><ele>767.0</ele><time>2026-04-25T11:07:26.955Z</time></trkpt><trkpt lat="46.2710217" lon="12.3612383"><ele>767.0</ele><time>2026-04-25T11:07:27.955Z</time></trkpt><trkpt lat="46.2709783" lon="12.3613417"><ele>767.0</ele><time>2026-04-25T11:07:28.956Z</time></trkpt><trkpt lat="46.2709467" lon="12.3614567"><ele>767.0</ele><time>2026-04-25T11:07:29.955Z</time></trkpt><trkpt lat="46.27092" lon="12.3615833"><ele>766.6</ele><time>2026-04-25T11:07:30.956Z</time></trkpt><trkpt lat="46.2709" lon="12.361715"><ele>766.2</ele><time>2026-04-25T11:07:31.956Z</time></trkpt><trkpt lat="46.2708867" lon="12.3618517"><ele>765.8</ele><time>2026-04-25T11:07:32.956Z</time></trkpt><trkpt lat="46.270875" lon="12.361995"><ele>765.4</ele><time>2026-04-25T11:07:33.956Z</time></trkpt><trkpt lat="46.2708733" lon="12.3621367"><ele>765.0</ele><time>2026-04-25T11:07:34.956Z</time></trkpt><trkpt lat="46.270885" lon="12.3622783"><ele>765.0</ele><time>2026-04-25T11:07:35.955Z</time></trkpt><trkpt lat="46.2709083" lon="12.3624083"><ele>765.0</ele><time>2026-04-25T11:07:36.956Z</time></trkpt><trkpt lat="46.2709467" lon="12.3625267"><ele>765.0</ele><time>2026-04-25T11:07:37.956Z</time></trkpt><trkpt lat="46.2710017" lon="12.362625"><ele>765.0</ele><time>2026-04-25T11:07:38.954Z</time></trkpt><trkpt lat="46.2710767" lon="12.3626967"><ele>765.0</ele><time>2026-04-25T11:07:39.956Z</time></trkpt><trkpt lat="46.2711817" lon="12.3627417"><ele>765.0</ele><time>2026-04-25T11:07:40.957Z</time></trkpt><trkpt lat="46.2712983" lon="12.3627817"><ele>765.0</ele><time>2026-04-25T11:07:41.956Z</time></trkpt><trkpt lat="46.271435" lon="12.3628367"><ele>765.0</ele><time>2026-04-25T11:07:42.956Z</time></trkpt><trkpt lat="46.2715717" lon="12.3629167"><ele>765.0</ele><time>2026-04-25T11:07:43.955Z</time></trkpt><trkpt lat="46.2717033" lon="12.3630033"><ele>765.75</ele><time>2026-04-25T11:07:44.955Z</time></trkpt><trkpt lat="46.2718267" lon="12.3630867"><ele>766.5</ele><time>2026-04-25T11:07:45.957Z</time></trkpt><trkpt lat="46.2719367" lon="12.3631683"><ele>767.25</ele><time>2026-04-25T11:07:46.955Z</time></trkpt><trkpt lat="46.2720433" lon="12.36324"><ele>768.0</ele><time>2026-04-25T11:07:47.955Z</time></trkpt><trkpt lat="46.27213" lon="12.3633183"><ele>768.0</ele><time>2026-04-25T11:07:48.956Z</time></trkpt><trkpt lat="46.2721983" lon="12.36342"><ele>768.0</ele><time>2026-04-25T11:07:49.954Z</time></trkpt><trkpt lat="46.2722433" lon="12.3635567"><ele>768.0</ele><time>2026-04-25T11:07:50.955Z</time></trkpt><trkpt lat="46.2722717" lon="12.3637317"><ele>768.0</ele><time>2026-04-25T11:07:51.954Z</time></trkpt><trkpt lat="46.2722867" lon="12.3639483"><ele>774.3333333333333</ele><time>2026-04-25T11:07:52.954Z</time></trkpt><trkpt lat="46.272295" lon="12.3642117"><ele>780.6666666666666</ele><time>2026-04-25T11:07:53.955Z</time></trkpt><trkpt lat="46.2723017" lon="12.3644933"><ele>787.0</ele><time>2026-04-25T11:07:54.955Z</time></trkpt><trkpt lat="46.2723117" lon="12.3647717"><ele>787.0</ele><time>2026-04-25T11:07:55.954Z</time></trkpt><trkpt lat="46.2723217" lon="12.36504"><ele>787.0</ele><time>2026-04-25T11:07:56.954Z</time></trkpt><trkpt lat="46.2723417" lon="12.3653067"><ele>787.0</ele><time>2026-04-25T11:07:57.955Z</time></trkpt><trkpt lat="46.2723667" lon="12.36557"><ele>785.0</ele><time>2026-04-25T11:07:58.955Z</time></trkpt><trkpt lat="46.2724083" lon="12.3658317"><ele>783.0</ele><time>2026-04-25T11:07:59.954Z</time></trkpt><trkpt lat="46.2724617" lon="12.36609"><ele>781.0</ele><time>2026-04-25T11:08:00.955Z</time></trkpt><trkpt lat="46.27252" lon="12.3663483"><ele>779.3333333333333</ele><time>2026-04-25T11:08:01.955Z</time></trkpt><trkpt lat="46.2725767" lon="12.3665983"><ele>777.6666666666667</ele><time>2026-04-25T11:08:02.954Z</time></trkpt><trkpt lat="46.272635" lon="12.366845"><ele>776.0</ele><time>2026-04-25T11:08:03.955Z</time></trkpt><trkpt lat="46.2727033" lon="12.367085"><ele>775.6666666666667</ele><time>2026-04-25T11:08:04.956Z</time></trkpt><trkpt lat="46.272785" lon="12.3673117"><ele>775.3333333333333</ele><time>2026-04-25T11:08:05.954Z</time></trkpt><trkpt lat="46.2728783" lon="12.367505"><ele>775.0</ele><time>2026-04-25T11:08:06.954Z</time></trkpt><trkpt lat="46.2729817" lon="12.36766"><ele>775.0</ele><time>2026-04-25T11:08:07.954Z</time></trkpt><trkpt lat="46.273095" lon="12.367765"><ele>775.0</ele><time>2026-04-25T11:08:08.956Z</time></trkpt><trkpt lat="46.27323" lon="12.367805"><ele>775.0</ele><time>2026-04-25T11:08:09.954Z</time></trkpt><trkpt lat="46.2733767" lon="12.367805"><ele>775.0</ele><time>2026-04-25T11:08:10.956Z</time></trkpt><trkpt lat="46.27352" lon="12.3677883"><ele>776.25</ele><time>2026-04-25T11:08:11.954Z</time></trkpt><trkpt lat="46.273645" lon="12.36779"><ele>777.5</ele><time>2026-04-25T11:08:12.955Z</time></trkpt><trkpt lat="46.2737567" lon="12.3678433"><ele>778.75</ele><time>2026-04-25T11:08:13.956Z</time></trkpt><trkpt lat="46.2738467" lon="12.3679533"><ele>780.0</ele><time>2026-04-25T11:08:14.956Z</time></trkpt><trkpt lat="46.2738917" lon="12.36811"><ele>780.0</ele><time>2026-04-25T11:08:15.955Z</time></trkpt><trkpt lat="46.273885" lon="12.3682883"><ele>780.0</ele><time>2026-04-25T11:08:16.956Z</time></trkpt><trkpt lat="46.2738317" lon="12.3684817"><ele>780.0</ele><time>2026-04-25T11:08:17.955Z</time></trkpt><trkpt lat="46.273765" lon="12.3686817"><ele>780.0</ele><time>2026-04-25T11:08:18.954Z</time></trkpt><trkpt lat="46.27371" lon="12.36887"><ele>778.75</ele><time>2026-04-25T11:08:19.954Z</time></trkpt><trkpt lat="46.27367" lon="12.3690583"><ele>777.5</ele><time>2026-04-25T11:08:20.955Z</time></trkpt><trkpt lat="46.2736617" lon="12.369255"><ele>776.25</ele><time>2026-04-25T11:08:21.953Z</time></trkpt><trkpt lat="46.2736833" lon="12.3694583"><ele>775.0</ele><time>2026-04-25T11:08:22.956Z</time></trkpt><trkpt lat="46.2737233" lon="12.369675"><ele>776.3333333333333</ele><time>2026-04-25T11:08:23.955Z</time></trkpt><trkpt lat="46.2737767" lon="12.369895"><ele>777.6666666666667</ele><time>2026-04-25T11:08:24.955Z</time></trkpt><trkpt lat="46.2738417" lon="12.3701133"><ele>779.0</ele><time>2026-04-25T11:08:25.955Z</time></trkpt><trkpt lat="46.2739267" lon="12.3703133"><ele>783.6666666666667</ele><time>2026-04-25T11:08:26.953Z</time></trkpt><trkpt lat="46.274025" lon="12.37049"><ele>788.3333333333333</ele><time>2026-04-25T11:08:27.955Z</time></trkpt><trkpt lat="46.2741283" lon="12.370655"><ele>793.0</ele><time>2026-04-25T11:08:28.956Z</time></trkpt><trkpt lat="46.2742317" lon="12.37082"><ele>793.0</ele><time>2026-04-25T11:08:29.954Z</time></trkpt><trkpt lat="46.2743333" lon="12.3709817"><ele>793.0</ele><time>2026-04-25T11:08:30.955Z</time></trkpt><trkpt lat="46.274435" lon="12.3711433"><ele>793.0</ele><time>2026-04-25T11:08:31.954Z</time></trkpt><trkpt lat="46.2745383" lon="12.3713117"><ele>790.0</ele><time>2026-04-25T11:08:32.953Z</time></trkpt><trkpt lat="46.2746417" lon="12.3714817"><ele>787.0</ele><time>2026-04-25T11:08:33.955Z</time></trkpt><trkpt lat="46.2747533" lon="12.3716483"><ele>784.0</ele><time>2026-04-25T11:08:34.956Z</time></trkpt><trkpt lat="46.2748767" lon="12.3718"><ele>790.0</ele><time>2026-04-25T11:08:35.954Z</time></trkpt><trkpt lat="46.2750117" lon="12.371935"><ele>796.0</ele><time>2026-04-25T11:08:36.955Z</time></trkpt><trkpt lat="46.2751517" lon="12.372055"><ele>802.0</ele><time>2026-04-25T11:08:37.955Z</time></trkpt><trkpt lat="46.275305" lon="12.372155"><ele>799.6666666666666</ele><time>2026-04-25T11:08:38.954Z</time></trkpt><trkpt lat="46.2754667" lon="12.3722383"><ele>797.3333333333333</ele><time>2026-04-25T11:08:39.956Z</time></trkpt><trkpt lat="46.2756333" lon="12.372305"><ele>795.0</ele><time>2026-04-25T11:08:40.957Z</time></trkpt><trkpt lat="46.2758083" lon="12.3723683"><ele>795.0</ele><time>2026-04-25T11:08:41.955Z</time></trkpt><trkpt lat="46.27598" lon="12.3724283"><ele>795.0</ele><time>2026-04-25T11:08:42.955Z</time></trkpt><trkpt lat="46.276145" lon="12.3724817"><ele>795.0</ele><time>2026-04-25T11:08:43.954Z</time></trkpt><trkpt lat="46.2763" lon="12.3725333"><ele>796.75</ele><time>2026-04-25T11:08:44.954Z</time></trkpt><trkpt lat="46.27645" lon="12.3725833"><ele>798.5</ele><time>2026-04-25T11:08:45.954Z</time></trkpt><trkpt lat="46.27659" lon="12.3726467"><ele>800.25</ele><time>2026-04-25T11:08:46.955Z</time></trkpt><trkpt lat="46.2767167" lon="12.3727383"><ele>802.0</ele><time>2026-04-25T11:08:47.954Z</time></trkpt><trkpt lat="46.2768167" lon="12.3728733"><ele>799.5</ele><time>2026-04-25T11:08:48.955Z</time></trkpt><trkpt lat="46.2768917" lon="12.3730367"><ele>797.0</ele><time>2026-04-25T11:08:49.955Z</time></trkpt><trkpt lat="46.27695" lon="12.3732083"><ele>794.5</ele><time>2026-04-25T11:08:50.955Z</time></trkpt><trkpt lat="46.277015" lon="12.37338"><ele>792.0</ele><time>2026-04-25T11:08:51.956Z</time></trkpt><trkpt lat="46.2770833" lon="12.3735483"><ele>792.0</ele><time>2026-04-25T11:08:52.954Z</time></trkpt><trkpt lat="46.2771667" lon="12.3737017"><ele>792.0</ele><time>2026-04-25T11:08:53.955Z</time></trkpt><trkpt lat="46.2772733" lon="12.3738367"><ele>792.0</ele><time>2026-04-25T11:08:54.955Z</time></trkpt><trkpt lat="46.2773933" lon="12.3739467"><ele>792.0</ele><time>2026-04-25T11:08:55.955Z</time></trkpt><trkpt lat="46.2775233" lon="12.3740183"><ele>791.5</ele><time>2026-04-25T11:08:56.954Z</time></trkpt><trkpt lat="46.2776583" lon="12.3740367"><ele>791.0</ele><time>2026-04-25T11:08:57.955Z</time></trkpt><trkpt lat="46.2777967" lon="12.3739967"><ele>790.5</ele><time>2026-04-25T11:08:58.954Z</time></trkpt><trkpt lat="46.2779183" lon="12.37391"><ele>790.0</ele><time>2026-04-25T11:08:59.953Z</time></trkpt><trkpt lat="46.278035" lon="12.3738067"><ele>793.25</ele><time>2026-04-25T11:09:00.954Z</time></trkpt><trkpt lat="46.278155" lon="12.3737133"><ele>796.5</ele><time>2026-04-25T11:09:01.955Z</time></trkpt><trkpt lat="46.2782767" lon="12.3736533"><ele>799.75</ele><time>2026-04-25T11:09:02.955Z</time></trkpt><trkpt lat="46.2783967" lon="12.37365"><ele>803.0</ele><time>2026-04-25T11:09:03.954Z</time></trkpt><trkpt lat="46.2785117" lon="12.3737133"><ele>803.0</ele><time>2026-04-25T11:09:04.956Z</time></trkpt><trkpt lat="46.27861" lon="12.3738317"><ele>803.0</ele><time>2026-04-25T11:09:05.956Z</time></trkpt><trkpt lat="46.2786767" lon="12.3739967"><ele>803.0</ele><time>2026-04-25T11:09:06.955Z</time></trkpt><trkpt lat="46.2787317" lon="12.3741767"><ele>803.0</ele><time>2026-04-25T11:09:07.954Z</time></trkpt><trkpt lat="46.2787933" lon="12.3743483"><ele>804.75</ele><time>2026-04-25T11:09:08.955Z</time></trkpt><trkpt lat="46.2788633" lon="12.3745083"><ele>806.5</ele><time>2026-04-25T11:09:09.955Z</time></trkpt><trkpt lat="46.2789383" lon="12.37466"><ele>808.25</ele><time>2026-04-25T11:09:10.956Z</time></trkpt><trkpt lat="46.2790333" lon="12.3748083"><ele>810.0</ele><time>2026-04-25T11:09:11.955Z</time></trkpt><trkpt lat="46.2791483" lon="12.3749533"><ele>804.6666666666667</ele><time>2026-04-25T11:09:12.955Z</time></trkpt><trkpt lat="46.2792867" lon="12.3750767"><ele>799.3333333333334</ele><time>2026-04-25T11:09:13.955Z</time></trkpt><trkpt lat="46.2794383" lon="12.375185"><ele>794.0</ele><time>2026-04-25T11:09:14.954Z</time></trkpt><trkpt lat="46.2796017" lon="12.3752867"><ele>789.0</ele><time>2026-04-25T11:09:15.955Z</time></trkpt><trkpt lat="46.279775" lon="12.3753817"><ele>784.0</ele><time>2026-04-25T11:09:16.956Z</time></trkpt><trkpt lat="46.2799433" lon="12.3754683"><ele>779.0</ele><time>2026-04-25T11:09:17.954Z</time></trkpt><trkpt lat="46.2801067" lon="12.37555"><ele>779.0</ele><time>2026-04-25T11:09:18.955Z</time></trkpt><trkpt lat="46.2802667" lon="12.37562"><ele>779.0</ele><time>2026-04-25T11:09:19.954Z</time></trkpt><trkpt lat="46.280425" lon="12.37566"><ele>779.0</ele><time>2026-04-25T11:09:20.954Z</time></trkpt><trkpt lat="46.2805667" lon="12.3756867"><ele>779.6</ele><time>2026-04-25T11:09:21.955Z</time></trkpt><trkpt lat="46.2806917" lon="12.37571"><ele>780.2</ele><time>2026-04-25T11:09:22.956Z</time></trkpt><trkpt lat="46.2807933" lon="12.37573"><ele>780.8000000000001</ele><time>2026-04-25T11:09:23.955Z</time></trkpt><trkpt lat="46.280885" lon="12.3757433"><ele>781.4000000000001</ele><time>2026-04-25T11:09:24.955Z</time></trkpt><trkpt lat="46.280975" lon="12.3757217"><ele>782.0</ele><time>2026-04-25T11:09:25.955Z</time></trkpt><trkpt lat="46.2810667" lon="12.3756617"><ele>782.0</ele><time>2026-04-25T11:09:26.955Z</time></trkpt><trkpt lat="46.2811617" lon="12.3755567"><ele>782.0</ele><time>2026-04-25T11:09:27.954Z</time></trkpt><trkpt lat="46.2812517" lon="12.375455"><ele>782.0</ele><time>2026-04-25T11:09:28.956Z</time></trkpt><trkpt lat="46.28134" lon="12.3753717"><ele>782.0</ele><time>2026-04-25T11:09:29.955Z</time></trkpt><trkpt lat="46.2814233" lon="12.375325"><ele>782.0</ele><time>2026-04-25T11:09:30.955Z</time></trkpt><trkpt lat="46.2815133" lon="12.3753383"><ele>782.0</ele><time>2026-04-25T11:09:31.955Z</time></trkpt><trkpt lat="46.2816" lon="12.37541"><ele>782.0</ele><time>2026-04-25T11:09:32.955Z</time></trkpt><trkpt lat="46.2816883" lon="12.375525"><ele>782.0</ele><time>2026-04-25T11:09:33.955Z</time></trkpt><trkpt lat="46.2817767" lon="12.3756617"><ele>782.0</ele><time>2026-04-25T11:09:34.956Z</time></trkpt><trkpt lat="46.2818567" lon="12.37581"><ele>782.0</ele><time>2026-04-25T11:09:35.955Z</time></trkpt><trkpt lat="46.281925" lon="12.37596"><ele>782.0</ele><time>2026-04-25T11:09:36.955Z</time></trkpt><trkpt lat="46.281965" lon="12.3761217"><ele>782.0</ele><time>2026-04-25T11:09:37.955Z</time></trkpt><trkpt lat="46.28196" lon="12.37629"><ele>782.0</ele><time>2026-04-25T11:09:38.954Z</time></trkpt><trkpt lat="46.2819283" lon="12.3764633"><ele>778.6666666666667</ele><time>2026-04-25T11:09:39.956Z</time></trkpt><trkpt lat="46.2818683" lon="12.3766517"><ele>775.3333333333333</ele><time>2026-04-25T11:09:40.957Z</time></trkpt><trkpt lat="46.2818117" lon="12.3768633"><ele>772.0</ele><time>2026-04-25T11:09:41.955Z</time></trkpt><trkpt lat="46.2817633" lon="12.3770883"><ele>774.6666666666666</ele><time>2026-04-25T11:09:42.955Z</time></trkpt><trkpt lat="46.28173" lon="12.3773217"><ele>777.3333333333333</ele><time>2026-04-25T11:09:43.954Z</time></trkpt><trkpt lat="46.2817" lon="12.3775533"><ele>780.0</ele><time>2026-04-25T11:09:44.955Z</time></trkpt><trkpt lat="46.281675" lon="12.3777833"><ele>780.0</ele><time>2026-04-25T11:09:45.956Z</time></trkpt><trkpt lat="46.2816433" lon="12.378005"><ele>780.0</ele><time>2026-04-25T11:09:46.955Z</time></trkpt><trkpt lat="46.2815933" lon="12.3782233"><ele>780.0</ele><time>2026-04-25T11:09:47.954Z</time></trkpt><trkpt lat="46.2815233" lon="12.378445"><ele>784.0</ele><time>2026-04-25T11:09:48.956Z</time></trkpt><trkpt lat="46.2814467" lon="12.3786633"><ele>788.0</ele><time>2026-04-25T11:09:49.955Z</time></trkpt><trkpt lat="46.2813617" lon="12.3788917"><ele>792.0</ele><time>2026-04-25T11:09:50.954Z</time></trkpt><trkpt lat="46.2812667" lon="12.3791183"><ele>787.6666666666667</ele><time>2026-04-25T11:09:51.955Z</time></trkpt><trkpt lat="46.2811683" lon="12.379355"><ele>783.3333333333334</ele><time>2026-04-25T11:09:52.956Z</time></trkpt><trkpt lat="46.2810833" lon="12.3795817"><ele>779.0</ele><time>2026-04-25T11:09:53.955Z</time></trkpt><trkpt lat="46.2809967" lon="12.3797367"><ele>779.0</ele><time>2026-04-25T11:09:54.956Z</time></trkpt><trkpt lat="46.2809183" lon="12.3799417"><ele>779.0</ele><time>2026-04-25T11:09:55.955Z</time></trkpt><trkpt lat="46.2808533" lon="12.3801833"><ele>779.0</ele><time>2026-04-25T11:09:56.954Z</time></trkpt><trkpt lat="46.2807233" lon="12.3803267"><ele>777.0</ele><time>2026-04-25T11:09:57.954Z</time></trkpt><trkpt lat="46.280595" lon="12.38047"><ele>775.0</ele><time>2026-04-25T11:09:58.956Z</time></trkpt><trkpt lat="46.2804317" lon="12.380575"><ele>773.0</ele><time>2026-04-25T11:09:59.956Z</time></trkpt><trkpt lat="46.2802883" lon="12.3806933"><ele>773.0</ele><time>2026-04-25T11:10:00.955Z</time></trkpt><trkpt lat="46.2801483" lon="12.3808633"><ele>773.0</ele><time>2026-04-25T11:10:01.954Z</time></trkpt><trkpt lat="46.28002" lon="12.381"><ele>773.0</ele><time>2026-04-25T11:10:02.955Z</time></trkpt><trkpt lat="46.27988" lon="12.3811"><ele>773.75</ele><time>2026-04-25T11:10:03.955Z</time></trkpt><trkpt lat="46.279755" lon="12.3811717"><ele>774.5</ele><time>2026-04-25T11:10:04.954Z</time></trkpt><trkpt lat="46.279635" lon="12.3812033"><ele>775.25</ele><time>2026-04-25T11:10:05.954Z</time></trkpt><trkpt lat="46.2795183" lon="12.38117"><ele>776.0</ele><time>2026-04-25T11:10:06.955Z</time></trkpt><trkpt lat="46.2794083" lon="12.3810533"><ele>776.0</ele><time>2026-04-25T11:10:07.955Z</time></trkpt><trkpt lat="46.2793167" lon="12.3808967"><ele>776.0</ele><time>2026-04-25T11:10:08.956Z</time></trkpt><trkpt lat="46.2792167" lon="12.3807367"><ele>776.0</ele><time>2026-04-25T11:10:09.954Z</time></trkpt><trkpt lat="46.279115" lon="12.3805817"><ele>776.0</ele><time>2026-04-25T11:10:10.955Z</time></trkpt><trkpt lat="46.2790167" lon="12.3804383"><ele>767.75</ele><time>2026-04-25T11:10:11.954Z</time></trkpt><trkpt lat="46.2789117" lon="12.3803217"><ele>759.5</ele><time>2026-04-25T11:10:12.955Z</time></trkpt><trkpt lat="46.2787983" lon="12.3802583"><ele>751.25</ele><time>2026-04-25T11:10:13.954Z</time></trkpt><trkpt lat="46.27868" lon="12.380265"><ele>743.0</ele><time>2026-04-25T11:10:14.955Z</time></trkpt><trkpt lat="46.2785483" lon="12.3803533"><ele>743.0</ele><time>2026-04-25T11:10:15.955Z</time></trkpt><trkpt lat="46.2784067" lon="12.380475"><ele>743.0</ele><time>2026-04-25T11:10:16.955Z</time></trkpt><trkpt lat="46.278245" lon="12.3805733"><ele>743.0</ele><time>2026-04-25T11:10:17.953Z</time></trkpt><trkpt lat="46.27809" lon="12.3806517"><ele>743.0</ele><time>2026-04-25T11:10:18.955Z</time></trkpt><trkpt lat="46.2779467" lon="12.380725"><ele>743.0</ele><time>2026-04-25T11:10:19.954Z</time></trkpt><trkpt lat="46.27782" lon="12.38081"><ele>743.0</ele><time>2026-04-25T11:10:20.96Z</time></trkpt><trkpt lat="46.2777133" lon="12.3809167"><ele>743.0</ele><time>2026-04-25T11:10:21.955Z</time></trkpt><trkpt lat="46.2776217" lon="12.381055"><ele>743.0</ele><time>2026-04-25T11:10:22.956Z</time></trkpt><trkpt lat="46.2775467" lon="12.3812283"><ele>743.0</ele><time>2026-04-25T11:10:23.954Z</time></trkpt><trkpt lat="46.27747" lon="12.3814317"><ele>743.0</ele><time>2026-04-25T11:10:24.955Z</time></trkpt><trkpt lat="46.2773917" lon="12.3816333"><ele>740.0</ele><time>2026-04-25T11:10:25.955Z</time></trkpt><trkpt lat="46.2773233" lon="12.3818283"><ele>737.0</ele><time>2026-04-25T11:10:26.955Z</time></trkpt><trkpt lat="46.27727" lon="12.3820267"><ele>734.0</ele><time>2026-04-25T11:10:27.955Z</time></trkpt><trkpt lat="46.2772483" lon="12.3822417"><ele>731.0</ele><time>2026-04-25T11:10:28.956Z</time></trkpt><trkpt lat="46.277255" lon="12.38246"><ele>731.0</ele><time>2026-04-25T11:10:29.956Z</time></trkpt><trkpt lat="46.2772633" lon="12.3826733"><ele>731.0</ele><time>2026-04-25T11:10:30.955Z</time></trkpt><trkpt lat="46.2772583" lon="12.382875"><ele>731.0</ele><time>2026-04-25T11:10:31.955Z</time></trkpt><trkpt lat="46.2772333" lon="12.3830683"><ele>731.0</ele><time>2026-04-25T11:10:32.955Z</time></trkpt><trkpt lat="46.27718" lon="12.3832583"><ele>732.6666666666666</ele><time>2026-04-25T11:10:33.955Z</time></trkpt><trkpt lat="46.2770983" lon="12.3834467"><ele>734.3333333333334</ele><time>2026-04-25T11:10:34.956Z</time></trkpt><trkpt lat="46.27701" lon="12.383635"><ele>736.0</ele><time>2026-04-25T11:10:35.955Z</time></trkpt><trkpt lat="46.276925" lon="12.3838083"><ele>739.0</ele><time>2026-04-25T11:10:36.955Z</time></trkpt><trkpt lat="46.2768517" lon="12.3839667"><ele>742.0</ele><time>2026-04-25T11:10:37.955Z</time></trkpt><trkpt lat="46.2767883" lon="12.384125"><ele>745.0</ele><time>2026-04-25T11:10:38.955Z</time></trkpt><trkpt lat="46.2767367" lon="12.384285"><ele>748.0</ele><time>2026-04-25T11:10:39.955Z</time></trkpt><trkpt lat="46.27672" lon="12.3844567"><ele>748.0</ele><time>2026-04-25T11:10:40.955Z</time></trkpt><trkpt lat="46.2767483" lon="12.3846433"><ele>748.0</ele><time>2026-04-25T11:10:41.955Z</time></trkpt><trkpt lat="46.2768017" lon="12.384845"><ele>748.0</ele><time>2026-04-25T11:10:42.954Z</time></trkpt><trkpt lat="46.27687" lon="12.38507"><ele>746.6666666666667</ele><time>2026-04-25T11:10:43.954Z</time></trkpt><trkpt lat="46.2769233" lon="12.3853067"><ele>745.3333333333334</ele><time>2026-04-25T11:10:44.956Z</time></trkpt><trkpt lat="46.27696" lon="12.3855383"><ele>744.0</ele><time>2026-04-25T11:10:45.955Z</time></trkpt><trkpt lat="46.27699" lon="12.3857633"><ele>741.3333333333334</ele><time>2026-04-25T11:10:46.956Z</time></trkpt><trkpt lat="46.27704" lon="12.38598"><ele>738.6666666666667</ele><time>2026-04-25T11:10:47.955Z</time></trkpt><trkpt lat="46.277115" lon="12.38619"><ele>736.0</ele><time>2026-04-25T11:10:48.955Z</time></trkpt><trkpt lat="46.2772017" lon="12.3863817"><ele>748.6666666666667</ele><time>2026-04-25T11:10:49.954Z</time></trkpt><trkpt lat="46.2772783" lon="12.3865667"><ele>761.3333333333334</ele><time>2026-04-25T11:10:50.955Z</time></trkpt><trkpt lat="46.2773417" lon="12.3867633"><ele>774.0</ele><time>2026-04-25T11:10:51.956Z</time></trkpt><trkpt lat="46.2773833" lon="12.3869933"><ele>772.6666666666667</ele><time>2026-04-25T11:10:52.957Z</time></trkpt><trkpt lat="46.2773933" lon="12.387245"><ele>771.3333333333334</ele><time>2026-04-25T11:10:53.956Z</time></trkpt><trkpt lat="46.2773833" lon="12.3875"><ele>770.0</ele><time>2026-04-25T11:10:54.956Z</time></trkpt><trkpt lat="46.277385" lon="12.38775"><ele>770.0</ele><time>2026-04-25T11:10:55.956Z</time></trkpt><trkpt lat="46.2773983" lon="12.3879917"><ele>770.0</ele><time>2026-04-25T11:10:56.955Z</time></trkpt><trkpt lat="46.2774233" lon="12.3882217"><ele>770.0</ele><time>2026-04-25T11:10:57.955Z</time></trkpt><trkpt lat="46.2774333" lon="12.3884483"><ele>769.3333333333334</ele><time>2026-04-25T11:10:58.955Z</time></trkpt><trkpt lat="46.2774367" lon="12.3886817"><ele>768.6666666666667</ele><time>2026-04-25T11:10:59.955Z</time></trkpt><trkpt lat="46.27746" lon="12.3889133"><ele>768.0</ele><time>2026-04-25T11:11:00.955Z</time></trkpt><trkpt lat="46.27751" lon="12.389125"><ele>766.25</ele><time>2026-04-25T11:11:01.955Z</time></trkpt><trkpt lat="46.27758" lon="12.389305"><ele>764.5</ele><time>2026-04-25T11:11:02.954Z</time></trkpt><trkpt lat="46.2776417" lon="12.3894767"><ele>762.75</ele><time>2026-04-25T11:11:03.954Z</time></trkpt><trkpt lat="46.27767" lon="12.3896533"><ele>761.0</ele><time>2026-04-25T11:11:04.955Z</time></trkpt><trkpt lat="46.2776817" lon="12.3898333"><ele>756.25</ele><time>2026-04-25T11:11:05.955Z</time></trkpt><trkpt lat="46.277715" lon="12.3899967"><ele>751.5</ele><time>2026-04-25T11:11:06.955Z</time></trkpt><trkpt lat="46.2777883" lon="12.39013"><ele>746.75</ele><time>2026-04-25T11:11:07.955Z</time></trkpt><trkpt lat="46.2779083" lon="12.3902283"><ele>742.0</ele><time>2026-04-25T11:11:08.955Z</time></trkpt><trkpt lat="46.27805" lon="12.3903183"><ele>747.3333333333334</ele><time>2026-04-25T11:11:09.955Z</time></trkpt><trkpt lat="46.27821" lon="12.390425"><ele>752.6666666666666</ele><time>2026-04-25T11:11:10.956Z</time></trkpt><trkpt lat="46.278365" lon="12.3905617"><ele>758.0</ele><time>2026-04-25T11:11:11.956Z</time></trkpt><trkpt lat="46.278515" lon="12.390735"><ele>758.0</ele><time>2026-04-25T11:11:12.954Z</time></trkpt><trkpt lat="46.2786533" lon="12.39094"><ele>758.0</ele><time>2026-04-25T11:11:13.955Z</time></trkpt><trkpt lat="46.2787817" lon="12.3911667"><ele>758.0</ele><time>2026-04-25T11:11:14.955Z</time></trkpt><trkpt lat="46.2789167" lon="12.3914033"><ele>764.3333333333333</ele><time>2026-04-25T11:11:15.954Z</time></trkpt><trkpt lat="46.2790517" lon="12.3916333"><ele>770.6666666666666</ele><time>2026-04-25T11:11:16.956Z</time></trkpt><trkpt lat="46.2791733" lon="12.3918583"><ele>777.0</ele><time>2026-04-25T11:11:17.955Z</time></trkpt><trkpt lat="46.2792667" lon="12.3921017"><ele>773.0</ele><time>2026-04-25T11:11:18.956Z</time></trkpt><trkpt lat="46.2793383" lon="12.3923667"><ele>769.0</ele><time>2026-04-25T11:11:19.956Z</time></trkpt><trkpt lat="46.2794017" lon="12.3926383"><ele>765.0</ele><time>2026-04-25T11:11:20.956Z</time></trkpt><trkpt lat="46.2794767" lon="12.3929017"><ele>762.0</ele><time>2026-04-25T11:11:21.956Z</time></trkpt><trkpt lat="46.2795733" lon="12.39315"><ele>759.0</ele><time>2026-04-25T11:11:22.957Z</time></trkpt><trkpt lat="46.2796933" lon="12.393375"><ele>756.0</ele><time>2026-04-25T11:11:23.955Z</time></trkpt><trkpt lat="46.2798383" lon="12.39359"><ele>761.6666666666667</ele><time>2026-04-25T11:11:24.956Z</time></trkpt><trkpt lat="46.279995" lon="12.3938033"><ele>767.3333333333334</ele><time>2026-04-25T11:11:25.957Z</time></trkpt><trkpt lat="46.2801533" lon="12.3940183"><ele>773.0</ele><time>2026-04-25T11:11:26.956Z</time></trkpt><trkpt lat="46.2803083" lon="12.39423"><ele>773.0</ele><time>2026-04-25T11:11:27.956Z</time></trkpt><trkpt lat="46.2804583" lon="12.394445"><ele>773.0</ele><time>2026-04-25T11:11:28.956Z</time></trkpt><trkpt lat="46.2805983" lon="12.3946783"><ele>773.0</ele><time>2026-04-25T11:11:29.955Z</time></trkpt><trkpt lat="46.2807283" lon="12.3949217"><ele>773.3333333333334</ele><time>2026-04-25T11:11:30.956Z</time></trkpt><trkpt lat="46.2808533" lon="12.395175"><ele>773.6666666666667</ele><time>2026-04-25T11:11:31.955Z</time></trkpt><trkpt lat="46.2809683" lon="12.3954383"><ele>774.0</ele><time>2026-04-25T11:11:32.955Z</time></trkpt><trkpt lat="46.2810767" lon="12.3957167"><ele>774.0</ele><time>2026-04-25T11:11:33.955Z</time></trkpt><trkpt lat="46.2811767" lon="12.3959983"><ele>774.0</ele><time>2026-04-25T11:11:34.956Z</time></trkpt><trkpt lat="46.2812733" lon="12.3962817"><ele>774.0</ele><time>2026-04-25T11:11:35.954Z</time></trkpt><trkpt lat="46.2813667" lon="12.39657"><ele>777.3333333333333</ele><time>2026-04-25T11:11:36.956Z</time></trkpt><trkpt lat="46.2814533" lon="12.3968417"><ele>780.6666666666666</ele><time>2026-04-25T11:11:37.955Z</time></trkpt><trkpt lat="46.2815333" lon="12.3970933"><ele>784.0</ele><time>2026-04-25T11:11:38.955Z</time></trkpt><trkpt lat="46.28162" lon="12.39732"><ele>785.3333333333333</ele><time>2026-04-25T11:11:39.954Z</time></trkpt><trkpt lat="46.28171" lon="12.39753"><ele>786.6666666666667</ele><time>2026-04-25T11:11:40.956Z</time></trkpt><trkpt lat="46.2818367" lon="12.397715"><ele>788.0</ele><time>2026-04-25T11:11:41.955Z</time></trkpt><trkpt lat="46.2819767" lon="12.3978967"><ele>788.6666666666667</ele><time>2026-04-25T11:11:42.956Z</time></trkpt><trkpt lat="46.282125" lon="12.398085"><ele>789.3333333333333</ele><time>2026-04-25T11:11:43.955Z</time></trkpt><trkpt lat="46.2822767" lon="12.398275"><ele>790.0</ele><time>2026-04-25T11:11:44.956Z</time></trkpt><trkpt lat="46.2824333" lon="12.3984633"><ele>790.0</ele><time>2026-04-25T11:11:45.955Z</time></trkpt><trkpt lat="46.2825933" lon="12.3986583"><ele>790.0</ele><time>2026-04-25T11:11:46.956Z</time></trkpt><trkpt lat="46.282755" lon="12.3988583"><ele>790.0</ele><time>2026-04-25T11:11:47.955Z</time></trkpt><trkpt lat="46.2829167" lon="12.3990617"><ele>792.6666666666666</ele><time>2026-04-25T11:11:48.956Z</time></trkpt><trkpt lat="46.28308" lon="12.399265"><ele>795.3333333333333</ele><time>2026-04-25T11:11:49.956Z</time></trkpt><trkpt lat="46.28324" lon="12.399475"><ele>798.0</ele><time>2026-04-25T11:11:50.956Z</time></trkpt><trkpt lat="46.2833967" lon="12.39969"><ele>800.6666666666667</ele><time>2026-04-25T11:11:51.958Z</time></trkpt><trkpt lat="46.283545" lon="12.3999083"><ele>803.3333333333334</ele><time>2026-04-25T11:11:52.958Z</time></trkpt><trkpt lat="46.2836783" lon="12.4001183"><ele>806.0</ele><time>2026-04-25T11:11:53.957Z</time></trkpt><trkpt lat="46.2838117" lon="12.4003133"><ele>807.3333333333334</ele><time>2026-04-25T11:11:54.957Z</time></trkpt><trkpt lat="46.2839467" lon="12.4004883"><ele>808.6666666666667</ele><time>2026-04-25T11:11:55.956Z</time></trkpt><trkpt lat="46.2840817" lon="12.4006417"><ele>810.0</ele><time>2026-04-25T11:11:56.956Z</time></trkpt><trkpt lat="46.284205" lon="12.4007883"><ele>810.0</ele><time>2026-04-25T11:11:57.955Z</time></trkpt><trkpt lat="46.2843167" lon="12.400945"><ele>810.0</ele><time>2026-04-25T11:11:58.956Z</time></trkpt><trkpt lat="46.28441" lon="12.401125"><ele>810.0</ele><time>2026-04-25T11:11:59.955Z</time></trkpt><trkpt lat="46.2844767" lon="12.401325"><ele>812.0</ele><time>2026-04-25T11:12:00.956Z</time></trkpt><trkpt lat="46.2845183" lon="12.4015383"><ele>814.0</ele><time>2026-04-25T11:12:01.956Z</time></trkpt><trkpt lat="46.2845417" lon="12.40176"><ele>816.0</ele><time>2026-04-25T11:12:02.957Z</time></trkpt><trkpt lat="46.28456" lon="12.4019717"><ele>819.0</ele><time>2026-04-25T11:12:03.956Z</time></trkpt><trkpt lat="46.2845767" lon="12.4021667"><ele>822.0</ele><time>2026-04-25T11:12:04.956Z</time></trkpt><trkpt lat="46.2845967" lon="12.4023417"><ele>825.0</ele><time>2026-04-25T11:12:05.956Z</time></trkpt><trkpt lat="46.2846267" lon="12.4025033"><ele>828.0</ele><time>2026-04-25T11:12:06.955Z</time></trkpt><trkpt lat="46.28466" lon="12.4026667"><ele>828.0</ele><time>2026-04-25T11:12:07.956Z</time></trkpt><trkpt lat="46.2847067" lon="12.40284"><ele>828.0</ele><time>2026-04-25T11:12:08.955Z</time></trkpt><trkpt lat="46.2847567" lon="12.4030267"><ele>828.0</ele><time>2026-04-25T11:12:09.955Z</time></trkpt><trkpt lat="46.28481" lon="12.4032233"><ele>828.0</ele><time>2026-04-25T11:12:10.957Z</time></trkpt><trkpt lat="46.28486" lon="12.40343"><ele>822.6666666666667</ele><time>2026-04-25T11:12:11.955Z</time></trkpt><trkpt lat="46.2849117" lon="12.403645"><ele>817.3333333333334</ele><time>2026-04-25T11:12:12.956Z</time></trkpt><trkpt lat="46.284965" lon="12.4038667"><ele>812.0</ele><time>2026-04-25T11:12:13.956Z</time></trkpt><trkpt lat="46.2850233" lon="12.40409"><ele>811.6666666666667</ele><time>2026-04-25T11:12:14.957Z</time></trkpt><trkpt lat="46.2850933" lon="12.404315"><ele>811.3333333333333</ele><time>2026-04-25T11:12:15.956Z</time></trkpt><trkpt lat="46.2851767" lon="12.4045367"><ele>811.0</ele><time>2026-04-25T11:12:16.955Z</time></trkpt><trkpt lat="46.2852733" lon="12.404755"><ele>811.0</ele><time>2026-04-25T11:12:17.955Z</time></trkpt><trkpt lat="46.2853783" lon="12.40497"><ele>811.0</ele><time>2026-04-25T11:12:18.957Z</time></trkpt><trkpt lat="46.2854833" lon="12.40518"><ele>811.0</ele><time>2026-04-25T11:12:19.956Z</time></trkpt><trkpt lat="46.2855917" lon="12.4053867"><ele>812.3333333333333</ele><time>2026-04-25T11:12:20.956Z</time></trkpt><trkpt lat="46.2857033" lon="12.40558"><ele>813.6666666666667</ele><time>2026-04-25T11:12:21.956Z</time></trkpt><trkpt lat="46.2858217" lon="12.4057517"><ele>815.0</ele><time>2026-04-25T11:12:22.957Z</time></trkpt><trkpt lat="46.2859433" lon="12.4059"><ele>815.0</ele><time>2026-04-25T11:12:23.956Z</time></trkpt><trkpt lat="46.2860633" lon="12.4060317"><ele>815.0</ele><time>2026-04-25T11:12:24.956Z</time></trkpt><trkpt lat="46.2861817" lon="12.40615"><ele>815.0</ele><time>2026-04-25T11:12:25.956Z</time></trkpt><trkpt lat="46.2862983" lon="12.4062533"><ele>815.0</ele><time>2026-04-25T11:12:26.956Z</time></trkpt><trkpt lat="46.2864167" lon="12.406345"><ele>815.0</ele><time>2026-04-25T11:12:27.956Z</time></trkpt><trkpt lat="46.2865333" lon="12.406425"><ele>815.0</ele><time>2026-04-25T11:12:28.957Z</time></trkpt><trkpt lat="46.2866467" lon="12.4064967"><ele>815.0</ele><time>2026-04-25T11:12:29.956Z</time></trkpt><trkpt lat="46.28675" lon="12.40656"><ele>815.0</ele><time>2026-04-25T11:12:30.956Z</time></trkpt><trkpt lat="46.286845" lon="12.406625"><ele>815.0000000000001</ele><time>2026-04-25T11:12:31.956Z</time></trkpt><trkpt lat="46.2869283" lon="12.4066933"><ele>815.0</ele><time>2026-04-25T11:12:32.956Z</time></trkpt><trkpt lat="46.286995" lon="12.406775"><ele>815.0</ele><time>2026-04-25T11:12:33.955Z</time></trkpt><trkpt lat="46.2870433" lon="12.4068683"><ele>815.0</ele><time>2026-04-25T11:12:34.956Z</time></trkpt><trkpt lat="46.2870667" lon="12.4069733"><ele>815.0000000000001</ele><time>2026-04-25T11:12:35.955Z</time></trkpt><trkpt lat="46.2870367" lon="12.40707"><ele>815.0</ele><time>2026-04-25T11:12:36.955Z</time></trkpt><trkpt lat="46.2869917" lon="12.4071517"><ele>815.0</ele><time>2026-04-25T11:12:37.956Z</time></trkpt><trkpt lat="46.28693" lon="12.407205"><ele>815.0</ele><time>2026-04-25T11:12:38.956Z</time></trkpt><trkpt lat="46.28684" lon="12.4071933"><ele>815.0</ele><time>2026-04-25T11:12:39.955Z</time></trkpt><trkpt lat="46.2867517" lon="12.4071633"><ele>815.0</ele><time>2026-04-25T11:12:40.956Z</time></trkpt><trkpt lat="46.2866517" lon="12.40712"><ele>815.0</ele><time>2026-04-25T11:12:41.956Z</time></trkpt><trkpt lat="46.2865417" lon="12.4070883"><ele>814.25</ele><time>2026-04-25T11:12:42.955Z</time></trkpt><trkpt lat="46.2864183" lon="12.4070783"><ele>813.5</ele><time>2026-04-25T11:12:43.955Z</time></trkpt><trkpt lat="46.2862933" lon="12.4070867"><ele>812.75</ele><time>2026-04-25T11:12:44.955Z</time></trkpt><trkpt lat="46.2861733" lon="12.4071183"><ele>812.0</ele><time>2026-04-25T11:12:45.955Z</time></trkpt><trkpt lat="46.2860667" lon="12.4071917"><ele>814.5</ele><time>2026-04-25T11:12:46.957Z</time></trkpt><trkpt lat="46.2859783" lon="12.4072983"><ele>817.0</ele><time>2026-04-25T11:12:47.955Z</time></trkpt><trkpt lat="46.2859033" lon="12.4074217"><ele>819.5</ele><time>2026-04-25T11:12:48.956Z</time></trkpt><trkpt lat="46.285835" lon="12.407555"><ele>822.0</ele><time>2026-04-25T11:12:49.955Z</time></trkpt><trkpt lat="46.2857683" lon="12.4076783"><ele>822.0</ele><time>2026-04-25T11:12:50.955Z</time></trkpt><trkpt lat="46.2857033" lon="12.4077917"><ele>822.0</ele><time>2026-04-25T11:12:51.956Z</time></trkpt><trkpt lat="46.2856433" lon="12.4078967"><ele>822.0</ele><time>2026-04-25T11:12:52.955Z</time></trkpt><trkpt lat="46.285585" lon="12.4080033"><ele>822.0</ele><time>2026-04-25T11:12:53.955Z</time></trkpt><trkpt lat="46.2855367" lon="12.4081183"><ele>822.0</ele><time>2026-04-25T11:12:54.955Z</time></trkpt><trkpt lat="46.285495" lon="12.408235"><ele>827.2</ele><time>2026-04-25T11:12:55.954Z</time></trkpt><trkpt lat="46.2854617" lon="12.4083483"><ele>832.4000000000001</ele><time>2026-04-25T11:12:56.956Z</time></trkpt><trkpt lat="46.2854417" lon="12.4084717"><ele>837.5999999999999</ele><time>2026-04-25T11:12:57.955Z</time></trkpt><trkpt lat="46.285435" lon="12.4086017"><ele>842.8</ele><time>2026-04-25T11:12:58.956Z</time></trkpt><trkpt lat="46.2854217" lon="12.4087433"><ele>848.0</ele><time>2026-04-25T11:12:59.954Z</time></trkpt><trkpt lat="46.2854133" lon="12.4089"><ele>851.25</ele><time>2026-04-25T11:13:00.956Z</time></trkpt><trkpt lat="46.2854133" lon="12.40907"><ele>854.5</ele><time>2026-04-25T11:13:01.955Z</time></trkpt><trkpt lat="46.2854117" lon="12.409245"><ele>857.75</ele><time>2026-04-25T11:13:02.956Z</time></trkpt><trkpt lat="46.2854167" lon="12.4094233"><ele>861.0</ele><time>2026-04-25T11:13:03.956Z</time></trkpt><trkpt lat="46.2854283" lon="12.409615"><ele>857.25</ele><time>2026-04-25T11:13:04.958Z</time></trkpt><trkpt lat="46.2854533" lon="12.409815"><ele>853.5</ele><time>2026-04-25T11:13:05.955Z</time></trkpt><trkpt lat="46.28549" lon="12.4100183"><ele>849.75</ele><time>2026-04-25T11:13:06.956Z</time></trkpt><trkpt lat="46.2855317" lon="12.41022"><ele>846.0</ele><time>2026-04-25T11:13:07.955Z</time></trkpt><trkpt lat="46.2855817" lon="12.410415"><ele>840.0</ele><time>2026-04-25T11:13:08.956Z</time></trkpt><trkpt lat="46.2856333" lon="12.4106067"><ele>834.0</ele><time>2026-04-25T11:13:09.954Z</time></trkpt><trkpt lat="46.2856817" lon="12.4107983"><ele>828.0</ele><time>2026-04-25T11:13:10.957Z</time></trkpt><trkpt lat="46.2857267" lon="12.4109967"><ele>822.0</ele><time>2026-04-25T11:13:11.955Z</time></trkpt><trkpt lat="46.2857733" lon="12.4111883"><ele>821.0</ele><time>2026-04-25T11:13:12.955Z</time></trkpt><trkpt lat="46.28582" lon="12.41138"><ele>820.0</ele><time>2026-04-25T11:13:13.955Z</time></trkpt><trkpt lat="46.285865" lon="12.411565"><ele>819.0</ele><time>2026-04-25T11:13:14.954Z</time></trkpt><trkpt lat="46.2859067" lon="12.411745"><ele>818.0</ele><time>2026-04-25T11:13:15.954Z</time></trkpt><trkpt lat="46.2859583" lon="12.4119117"><ele>818.0</ele><time>2026-04-25T11:13:16.956Z</time></trkpt><trkpt lat="46.2860117" lon="12.4120767"><ele>818.0</ele><time>2026-04-25T11:13:17.955Z</time></trkpt><trkpt lat="46.2860633" lon="12.41224"><ele>818.0</ele><time>2026-04-25T11:13:18.956Z</time></trkpt><trkpt lat="46.2861117" lon="12.4124133"><ele>818.0</ele><time>2026-04-25T11:13:19.955Z</time></trkpt><trkpt lat="46.2861533" lon="12.4126033"><ele>814.3333333333334</ele><time>2026-04-25T11:13:20.955Z</time></trkpt><trkpt lat="46.2861833" lon="12.41281"><ele>810.6666666666667</ele><time>2026-04-25T11:13:21.956Z</time></trkpt><trkpt lat="46.2862033" lon="12.41303"><ele>807.0</ele><time>2026-04-25T11:13:22.956Z</time></trkpt><trkpt lat="46.2862133" lon="12.41325"><ele>805.25</ele><time>2026-04-25T11:13:23.956Z</time></trkpt><trkpt lat="46.286215" lon="12.4134683"><ele>803.5</ele><time>2026-04-25T11:13:24.956Z</time></trkpt><trkpt lat="46.2862167" lon="12.413685"><ele>801.75</ele><time>2026-04-25T11:13:25.956Z</time></trkpt><trkpt lat="46.2862217" lon="12.4138983"><ele>800.0</ele><time>2026-04-25T11:13:26.956Z</time></trkpt><trkpt lat="46.2862433" lon="12.4141033"><ele>800.0</ele><time>2026-04-25T11:13:27.955Z</time></trkpt><trkpt lat="46.2862633" lon="12.4142917"><ele>800.0</ele><time>2026-04-25T11:13:28.955Z</time></trkpt><trkpt lat="46.286295" lon="12.414485"><ele>800.0</ele><time>2026-04-25T11:13:29.955Z</time></trkpt><trkpt lat="46.2863317" lon="12.4146833"><ele>800.0</ele><time>2026-04-25T11:13:30.956Z</time></trkpt><trkpt lat="46.2863667" lon="12.4148817"><ele>799.0</ele><time>2026-04-25T11:13:31.955Z</time></trkpt><trkpt lat="46.2863967" lon="12.4150933"><ele>798.0</ele><time>2026-04-25T11:13:32.956Z</time></trkpt><trkpt lat="46.286425" lon="12.4153083"><ele>797.0</ele><time>2026-04-25T11:13:33.954Z</time></trkpt><trkpt lat="46.2864483" lon="12.415525"><ele>798.5</ele><time>2026-04-25T11:13:34.956Z</time></trkpt><trkpt lat="46.286465" lon="12.4157383"><ele>800.0</ele><time>2026-04-25T11:13:35.955Z</time></trkpt><trkpt lat="46.2864733" lon="12.415945"><ele>801.5</ele><time>2026-04-25T11:13:36.956Z</time></trkpt><trkpt lat="46.28647" lon="12.4161533"><ele>803.0</ele><time>2026-04-25T11:13:37.954Z</time></trkpt><trkpt lat="46.2864633" lon="12.4163567"><ele>803.25</ele><time>2026-04-25T11:13:38.956Z</time></trkpt><trkpt lat="46.2864567" lon="12.41656"><ele>803.5</ele><time>2026-04-25T11:13:39.956Z</time></trkpt><trkpt lat="46.286465" lon="12.4167617"><ele>803.75</ele><time>2026-04-25T11:13:40.955Z</time></trkpt><trkpt lat="46.2864833" lon="12.4169583"><ele>804.0</ele><time>2026-04-25T11:13:41.955Z</time></trkpt><trkpt lat="46.286495" lon="12.4171567"><ele>803.25</ele><time>2026-04-25T11:13:42.955Z</time></trkpt><trkpt lat="46.286475" lon="12.4173583"><ele>802.5</ele><time>2026-04-25T11:13:43.954Z</time></trkpt><trkpt lat="46.28644" lon="12.4175683"><ele>801.75</ele><time>2026-04-25T11:13:44.955Z</time></trkpt><trkpt lat="46.286395" lon="12.4177733"><ele>801.0</ele><time>2026-04-25T11:13:45.953Z</time></trkpt><trkpt lat="46.2863433" lon="12.4179717"><ele>799.5</ele><time>2026-04-25T11:13:46.955Z</time></trkpt><trkpt lat="46.2863033" lon="12.4181667"><ele>798.0</ele><time>2026-04-25T11:13:47.954Z</time></trkpt><trkpt lat="46.2862633" lon="12.41835"><ele>796.5</ele><time>2026-04-25T11:13:48.955Z</time></trkpt><trkpt lat="46.2862217" lon="12.4185217"><ele>795.0</ele><time>2026-04-25T11:13:49.954Z</time></trkpt><trkpt lat="46.2861883" lon="12.4186817"><ele>793.6</ele><time>2026-04-25T11:13:50.958Z</time></trkpt><trkpt lat="46.286175" lon="12.4188367"><ele>792.2</ele><time>2026-04-25T11:13:51.954Z</time></trkpt><trkpt lat="46.2861833" lon="12.4189867"><ele>790.8</ele><time>2026-04-25T11:13:52.955Z</time></trkpt><trkpt lat="46.2862133" lon="12.419125"><ele>789.4</ele><time>2026-04-25T11:13:53.954Z</time></trkpt><trkpt lat="46.286265" lon="12.4192467"><ele>788.0</ele><time>2026-04-25T11:13:54.954Z</time></trkpt><trkpt lat="46.2863367" lon="12.4193517"><ele>788.0</ele><time>2026-04-25T11:13:55.953Z</time></trkpt><trkpt lat="46.2864117" lon="12.4194483"><ele>788.0</ele><time>2026-04-25T11:13:56.955Z</time></trkpt><trkpt lat="46.286485" lon="12.4195517"><ele>788.0</ele><time>2026-04-25T11:13:57.955Z</time></trkpt><trkpt lat="46.286545" lon="12.4196717"><ele>788.0</ele><time>2026-04-25T11:13:58.955Z</time></trkpt><trkpt lat="46.286585" lon="12.419815"><ele>788.0</ele><time>2026-04-25T11:13:59.953Z</time></trkpt><trkpt lat="46.2866183" lon="12.4199633"><ele>787.75</ele><time>2026-04-25T11:14:00.955Z</time></trkpt><trkpt lat="46.286645" lon="12.4201233"><ele>787.5</ele><time>2026-04-25T11:14:01.953Z</time></trkpt><trkpt lat="46.286685" lon="12.42028"><ele>787.25</ele><time>2026-04-25T11:14:02.954Z</time></trkpt><trkpt lat="46.2867333" lon="12.420435"><ele>787.0</ele><time>2026-04-25T11:14:03.954Z</time></trkpt><trkpt lat="46.28679" lon="12.4205883"><ele>784.0</ele><time>2026-04-25T11:14:04.955Z</time></trkpt><trkpt lat="46.2868433" lon="12.4207433"><ele>781.0</ele><time>2026-04-25T11:14:05.954Z</time></trkpt><trkpt lat="46.2868867" lon="12.4209083"><ele>778.0</ele><time>2026-04-25T11:14:06.955Z</time></trkpt><trkpt lat="46.2869167" lon="12.4210933"><ele>775.0</ele><time>2026-04-25T11:14:07.954Z</time></trkpt><trkpt lat="46.2869317" lon="12.4212917"><ele>773.0</ele><time>2026-04-25T11:14:08.955Z</time></trkpt><trkpt lat="46.2869333" lon="12.421505"><ele>771.0</ele><time>2026-04-25T11:14:09.954Z</time></trkpt><trkpt lat="46.2869333" lon="12.4217183"><ele>769.0</ele><time>2026-04-25T11:14:10.955Z</time></trkpt><trkpt lat="46.286935" lon="12.42193"><ele>767.0</ele><time>2026-04-25T11:14:11.954Z</time></trkpt><trkpt lat="46.2869333" lon="12.4221383"><ele>764.5</ele><time>2026-04-25T11:14:12.954Z</time></trkpt><trkpt lat="46.28694" lon="12.42234"><ele>762.0</ele><time>2026-04-25T11:14:13.954Z</time></trkpt><trkpt lat="46.286965" lon="12.4225383"><ele>759.5</ele><time>2026-04-25T11:14:14.955Z</time></trkpt><trkpt lat="46.2869983" lon="12.4227267"><ele>757.0</ele><time>2026-04-25T11:14:15.957Z</time></trkpt><trkpt lat="46.2870333" lon="12.4229033"><ele>755.0</ele><time>2026-04-25T11:14:16.956Z</time></trkpt><trkpt lat="46.28707" lon="12.42308"><ele>753.0</ele><time>2026-04-25T11:14:17.955Z</time></trkpt><trkpt lat="46.2871067" lon="12.4232433"><ele>751.0</ele><time>2026-04-25T11:14:18.954Z</time></trkpt><trkpt lat="46.287145" lon="12.4234033"><ele>749.0</ele><time>2026-04-25T11:14:19.955Z</time></trkpt><trkpt lat="46.2871867" lon="12.4235517"><ele>749.0</ele><time>2026-04-25T11:14:20.955Z</time></trkpt><trkpt lat="46.2872367" lon="12.4236917"><ele>749.0</ele><time>2026-04-25T11:14:21.954Z</time></trkpt><trkpt lat="46.2873033" lon="12.4238217"><ele>749.0</ele><time>2026-04-25T11:14:22.955Z</time></trkpt><trkpt lat="46.2873717" lon="12.4239483"><ele>749.0</ele><time>2026-04-25T11:14:23.955Z</time></trkpt><trkpt lat="46.2874383" lon="12.4240683"><ele>749.0</ele><time>2026-04-25T11:14:24.954Z</time></trkpt><trkpt lat="46.2874983" lon="12.4241783"><ele>748.8000000000001</ele><time>2026-04-25T11:14:25.953Z</time></trkpt><trkpt lat="46.2875467" lon="12.4242767"><ele>748.6</ele><time>2026-04-25T11:14:26.955Z</time></trkpt><trkpt lat="46.28758" lon="12.424365"><ele>748.4</ele><time>2026-04-25T11:14:27.955Z</time></trkpt><trkpt lat="46.287615" lon="12.4245133"><ele>748.2</ele><time>2026-04-25T11:14:29.955Z</time></trkpt><trkpt lat="46.28761" lon="12.424645"><ele>748.0</ele><time>2026-04-25T11:14:31.955Z</time></trkpt><trkpt lat="46.2875483" lon="12.4247567"><ele>748.0</ele><time>2026-04-25T11:14:33.955Z</time></trkpt><trkpt lat="46.28744" lon="12.4246967"><ele>748.0</ele><time>2026-04-25T11:14:35.954Z</time></trkpt><trkpt lat="46.2873967" lon="12.4245983"><ele>748.0</ele><time>2026-04-25T11:14:36.954Z</time></trkpt><trkpt lat="46.2873617" lon="12.4244917"><ele>748.0</ele><time>2026-04-25T11:14:37.954Z</time></trkpt><trkpt lat="46.2873417" lon="12.4243683"><ele>748.0</ele><time>2026-04-25T11:14:38.954Z</time></trkpt><trkpt lat="46.287315" lon="12.4242583"><ele>748.0</ele><time>2026-04-25T11:14:39.954Z</time></trkpt><trkpt lat="46.2872817" lon="12.42416"><ele>748.5999999999999</ele><time>2026-04-25T11:14:40.954Z</time></trkpt><trkpt lat="46.28723" lon="12.42409"><ele>749.1999999999999</ele><time>2026-04-25T11:14:41.954Z</time></trkpt><trkpt lat="46.2871633" lon="12.4240633"><ele>749.8</ele><time>2026-04-25T11:14:42.955Z</time></trkpt><trkpt lat="46.2870417" lon="12.4241033"><ele>750.4</ele><time>2026-04-25T11:14:44.955Z</time></trkpt><trkpt lat="46.286995" lon="12.42422"><ele>751.0</ele><time>2026-04-25T11:14:45.954Z</time></trkpt><trkpt lat="46.2869633" lon="12.4243633"><ele>751.0</ele><time>2026-04-25T11:14:46.955Z</time></trkpt><trkpt lat="46.2869633" lon="12.4245083"><ele>751.0</ele><time>2026-04-25T11:14:47.954Z</time></trkpt><trkpt lat="46.2869667" lon="12.4246617"><ele>751.0</ele><time>2026-04-25T11:14:48.954Z</time></trkpt><trkpt lat="46.28698" lon="12.42482"><ele>751.0</ele><time>2026-04-25T11:14:49.954Z</time></trkpt><trkpt lat="46.2869917" lon="12.4249833"><ele>751.0</ele><time>2026-04-25T11:14:50.954Z</time></trkpt><trkpt lat="46.2869967" lon="12.4251517"><ele>750.0</ele><time>2026-04-25T11:14:51.954Z</time></trkpt><trkpt lat="46.2869867" lon="12.4253283"><ele>749.0</ele><time>2026-04-25T11:14:52.955Z</time></trkpt><trkpt lat="46.2869717" lon="12.425505"><ele>748.0</ele><time>2026-04-25T11:14:53.955Z</time></trkpt><trkpt lat="46.2869417" lon="12.4256733"><ele>747.0</ele><time>2026-04-25T11:14:54.954Z</time></trkpt><trkpt lat="46.2869133" lon="12.4258433"><ele>745.5</ele><time>2026-04-25T11:14:55.956Z</time></trkpt><trkpt lat="46.28689" lon="12.4260133"><ele>744.0</ele><time>2026-04-25T11:14:56.954Z</time></trkpt><trkpt lat="46.2868883" lon="12.426185"><ele>742.5</ele><time>2026-04-25T11:14:57.955Z</time></trkpt><trkpt lat="46.2869133" lon="12.4263467"><ele>741.0</ele><time>2026-04-25T11:14:58.956Z</time></trkpt><trkpt lat="46.286955" lon="12.4265033"><ele>741.0</ele><time>2026-04-25T11:14:59.954Z</time></trkpt><trkpt lat="46.2870133" lon="12.4266583"><ele>741.0</ele><time>2026-04-25T11:15:00.954Z</time></trkpt><trkpt lat="46.2870583" lon="12.4268083"><ele>741.0</ele><time>2026-04-25T11:15:01.954Z</time></trkpt><trkpt lat="46.2871067" lon="12.42696"><ele>741.0</ele><time>2026-04-25T11:15:02.955Z</time></trkpt><trkpt lat="46.2871467" lon="12.4271133"><ele>741.5</ele><time>2026-04-25T11:15:03.954Z</time></trkpt><trkpt lat="46.28718" lon="12.4272733"><ele>742.0</ele><time>2026-04-25T11:15:04.954Z</time></trkpt><trkpt lat="46.287205" lon="12.4274433"><ele>742.5</ele><time>2026-04-25T11:15:05.958Z</time></trkpt><trkpt lat="46.28722" lon="12.4276233"><ele>743.0</ele><time>2026-04-25T11:15:06.954Z</time></trkpt><trkpt lat="46.2872217" lon="12.4278067"><ele>742.75</ele><time>2026-04-25T11:15:07.954Z</time></trkpt><trkpt lat="46.28721" lon="12.42799"><ele>742.5</ele><time>2026-04-25T11:15:08.954Z</time></trkpt><trkpt lat="46.2871917" lon="12.4281683"><ele>742.25</ele><time>2026-04-25T11:15:09.955Z</time></trkpt><trkpt lat="46.2871683" lon="12.4283317"><ele>742.0</ele><time>2026-04-25T11:15:10.955Z</time></trkpt><trkpt lat="46.2871317" lon="12.4284767"><ele>742.0</ele><time>2026-04-25T11:15:11.955Z</time></trkpt><trkpt lat="46.2870867" lon="12.4286033"><ele>742.0</ele><time>2026-04-25T11:15:12.955Z</time></trkpt><trkpt lat="46.287045" lon="12.4287117"><ele>742.0</ele><time>2026-04-25T11:15:13.955Z</time></trkpt><trkpt lat="46.2870017" lon="12.428805"><ele>742.0</ele><time>2026-04-25T11:15:14.955Z</time></trkpt><trkpt lat="46.2869717" lon="12.4288983"><ele>742.0</ele><time>2026-04-25T11:15:15.955Z</time></trkpt><trkpt lat="46.28696" lon="12.42899"><ele>742.0</ele><time>2026-04-25T11:15:16.955Z</time></trkpt><trkpt lat="46.2870117" lon="12.4291"><ele>742.0</ele><time>2026-04-25T11:15:18.954Z</time></trkpt><trkpt lat="46.2871167" lon="12.4290483"><ele>742.0</ele><time>2026-04-25T11:15:20.954Z</time></trkpt><trkpt lat="46.287155" lon="12.428965"><ele>742.0</ele><time>2026-04-25T11:15:21.955Z</time></trkpt><trkpt lat="46.2871883" lon="12.4288517"><ele>742.0</ele><time>2026-04-25T11:15:22.955Z</time></trkpt><trkpt lat="46.2872183" lon="12.42872"><ele>742.0</ele><time>2026-04-25T11:15:23.954Z</time></trkpt><trkpt lat="46.2872467" lon="12.4285917"><ele>735.3333333333334</ele><time>2026-04-25T11:15:24.955Z</time></trkpt><trkpt lat="46.2872817" lon="12.4284617"><ele>728.6666666666667</ele><time>2026-04-25T11:15:25.955Z</time></trkpt><trkpt lat="46.2873233" lon="12.428335"><ele>722.0</ele><time>2026-04-25T11:15:26.955Z</time></trkpt><trkpt lat="46.2873667" lon="12.4282217"><ele>715.3333333333334</ele><time>2026-04-25T11:15:27.955Z</time></trkpt><trkpt lat="46.2874117" lon="12.42812"><ele>708.6666666666666</ele><time>2026-04-25T11:15:28.954Z</time></trkpt><trkpt lat="46.2874533" lon="12.4280283"><ele>702.0</ele><time>2026-04-25T11:15:29.956Z</time></trkpt><trkpt lat="46.2875167" lon="12.4279917"><ele>702.0</ele><time>2026-04-25T11:15:30.955Z</time></trkpt><trkpt lat="46.2875917" lon="12.4280183"><ele>702.0</ele><time>2026-04-25T11:15:31.955Z</time></trkpt><trkpt lat="46.2876517" lon="12.42811"><ele>702.0</ele><time>2026-04-25T11:15:32.955Z</time></trkpt><trkpt lat="46.2877033" lon="12.4282367"><ele>702.0</ele><time>2026-04-25T11:15:33.955Z</time></trkpt><trkpt lat="46.2877567" lon="12.4284167"><ele>702.0</ele><time>2026-04-25T11:15:34.954Z</time></trkpt><trkpt lat="46.2878133" lon="12.42861"><ele>698.75</ele><time>2026-04-25T11:15:35.957Z</time></trkpt><trkpt lat="46.2878567" lon="12.42882"><ele>695.5</ele><time>2026-04-25T11:15:36.954Z</time></trkpt><trkpt lat="46.287895" lon="12.4290267"><ele>692.25</ele><time>2026-04-25T11:15:37.957Z</time></trkpt><trkpt lat="46.2879167" lon="12.4292383"><ele>689.0</ele><time>2026-04-25T11:15:38.956Z</time></trkpt><trkpt lat="46.28792" lon="12.429445"><ele>685.0</ele><time>2026-04-25T11:15:39.957Z</time></trkpt><trkpt lat="46.2879083" lon="12.4296467"><ele>681.0</ele><time>2026-04-25T11:15:40.957Z</time></trkpt><trkpt lat="46.2878817" lon="12.42984"><ele>677.0</ele><time>2026-04-25T11:15:41.955Z</time></trkpt><trkpt lat="46.2878383" lon="12.430025"><ele>673.0</ele><time>2026-04-25T11:15:42.956Z</time></trkpt><trkpt lat="46.28778" lon="12.4301983"><ele>673.0</ele><time>2026-04-25T11:15:43.956Z</time></trkpt><trkpt lat="46.2877017" lon="12.4303583"><ele>673.0</ele><time>2026-04-25T11:15:44.956Z</time></trkpt><trkpt lat="46.2876167" lon="12.4305017"><ele>673.0</ele><time>2026-04-25T11:15:45.957Z</time></trkpt><trkpt lat="46.28752" lon="12.43063"><ele>673.0</ele><time>2026-04-25T11:15:46.957Z</time></trkpt><trkpt lat="46.287425" lon="12.4307517"><ele>671.75</ele><time>2026-04-25T11:15:47.954Z</time></trkpt><trkpt lat="46.28734" lon="12.4308833"><ele>670.5</ele><time>2026-04-25T11:15:48.955Z</time></trkpt><trkpt lat="46.2872717" lon="12.4310333"><ele>669.25</ele><time>2026-04-25T11:15:49.955Z</time></trkpt><trkpt lat="46.2872167" lon="12.431205"><ele>668.0</ele><time>2026-04-25T11:15:50.955Z</time></trkpt><trkpt lat="46.2871733" lon="12.4313883"><ele>664.75</ele><time>2026-04-25T11:15:51.954Z</time></trkpt><trkpt lat="46.2871367" lon="12.431575"><ele>661.5</ele><time>2026-04-25T11:15:52.956Z</time></trkpt><trkpt lat="46.287105" lon="12.4317617"><ele>658.25</ele><time>2026-04-25T11:15:53.954Z</time></trkpt><trkpt lat="46.28708" lon="12.4319517"><ele>655.0</ele><time>2026-04-25T11:15:54.956Z</time></trkpt><trkpt lat="46.28706" lon="12.4321467"><ele>653.25</ele><time>2026-04-25T11:15:55.955Z</time></trkpt><trkpt lat="46.2870433" lon="12.4323367"><ele>651.5</ele><time>2026-04-25T11:15:56.954Z</time></trkpt><trkpt lat="46.2870283" lon="12.432515"><ele>649.75</ele><time>2026-04-25T11:15:57.956Z</time></trkpt><trkpt lat="46.2870117" lon="12.4326883"><ele>648.0</ele><time>2026-04-25T11:15:58.956Z</time></trkpt><trkpt lat="46.2869933" lon="12.4328567"><ele>647.5</ele><time>2026-04-25T11:15:59.954Z</time></trkpt><trkpt lat="46.28698" lon="12.433025"><ele>647.0</ele><time>2026-04-25T11:16:00.956Z</time></trkpt><trkpt lat="46.2869667" lon="12.43319"><ele>646.5</ele><time>2026-04-25T11:16:01.954Z</time></trkpt><trkpt lat="46.286955" lon="12.4333567"><ele>646.0</ele><time>2026-04-25T11:16:02.954Z</time></trkpt><trkpt lat="46.2869383" lon="12.4335233"><ele>646.0</ele><time>2026-04-25T11:16:03.954Z</time></trkpt><trkpt lat="46.2869217" lon="12.4336867"><ele>646.0</ele><time>2026-04-25T11:16:04.955Z</time></trkpt><trkpt lat="46.2869083" lon="12.4338483"><ele>646.0</ele><time>2026-04-25T11:16:05.954Z</time></trkpt><trkpt lat="46.2868917" lon="12.4340083"><ele>646.0</ele><time>2026-04-25T11:16:06.955Z</time></trkpt><trkpt lat="46.2868767" lon="12.4341683"><ele>646.0</ele><time>2026-04-25T11:16:07.956Z</time></trkpt><trkpt lat="46.2868633" lon="12.4343233"><ele>646.0</ele><time>2026-04-25T11:16:08.955Z</time></trkpt><trkpt lat="46.28685" lon="12.4344733"><ele>646.0</ele><time>2026-04-25T11:16:09.955Z</time></trkpt><trkpt lat="46.2868367" lon="12.4346183"><ele>646.0</ele><time>2026-04-25T11:16:10.957Z</time></trkpt><trkpt lat="46.286825" lon="12.43476"><ele>646.0</ele><time>2026-04-25T11:16:11.955Z</time></trkpt><trkpt lat="46.28681" lon="12.4349017"><ele>646.0</ele><time>2026-04-25T11:16:12.955Z</time></trkpt><trkpt lat="46.286795" lon="12.4350433"><ele>646.0</ele><time>2026-04-25T11:16:13.955Z</time></trkpt><trkpt lat="46.28678" lon="12.4351833"><ele>646.0</ele><time>2026-04-25T11:16:14.954Z</time></trkpt><trkpt lat="46.2867667" lon="12.4353167"><ele>646.0</ele><time>2026-04-25T11:16:15.954Z</time></trkpt><trkpt lat="46.286755" lon="12.43545"><ele>646.0</ele><time>2026-04-25T11:16:16.956Z</time></trkpt><trkpt lat="46.28674" lon="12.4355833"><ele>646.0</ele><time>2026-04-25T11:16:17.955Z</time></trkpt><trkpt lat="46.286725" lon="12.43572"><ele>646.0</ele><time>2026-04-25T11:16:18.954Z</time></trkpt><trkpt lat="46.2867133" lon="12.4358617"><ele>646.0</ele><time>2026-04-25T11:16:19.954Z</time></trkpt><trkpt lat="46.2867033" lon="12.4360067"><ele>646.0</ele><time>2026-04-25T11:16:20.955Z</time></trkpt><trkpt lat="46.2866983" lon="12.43615"><ele>646.0</ele><time>2026-04-25T11:16:21.956Z</time></trkpt><trkpt lat="46.286695" lon="12.43629"><ele>646.0</ele><time>2026-04-25T11:16:22.956Z</time></trkpt><trkpt lat="46.2866933" lon="12.43643"><ele>646.0</ele><time>2026-04-25T11:16:23.955Z</time></trkpt><trkpt lat="46.286695" lon="12.4365717"><ele>646.0</ele><time>2026-04-25T11:16:24.955Z</time></trkpt><trkpt lat="46.2866933" lon="12.4367117"><ele>646.0</ele><time>2026-04-25T11:16:25.956Z</time></trkpt><trkpt lat="46.2866967" lon="12.43685"><ele>646.0</ele><time>2026-04-25T11:16:26.956Z</time></trkpt><trkpt lat="46.2867" lon="12.4369867"><ele>646.0</ele><time>2026-04-25T11:16:27.955Z</time></trkpt><trkpt lat="46.2867" lon="12.4371183"><ele>646.0</ele><time>2026-04-25T11:16:28.956Z</time></trkpt><trkpt lat="46.2866983" lon="12.4372367"><ele>646.0</ele><time>2026-04-25T11:16:29.955Z</time></trkpt><trkpt lat="46.2866967" lon="12.4373417"><ele>646.0</ele><time>2026-04-25T11:16:30.954Z</time></trkpt><trkpt lat="46.2866933" lon="12.4374383"><ele>646.0</ele><time>2026-04-25T11:16:31.956Z</time></trkpt><trkpt lat="46.286685" lon="12.4375383"><ele>646.0</ele><time>2026-04-25T11:16:32.955Z</time></trkpt><trkpt lat="46.2866767" lon="12.4376533"><ele>646.25</ele><time>2026-04-25T11:16:33.955Z</time></trkpt><trkpt lat="46.28666" lon="12.43779"><ele>646.5</ele><time>2026-04-25T11:16:34.956Z</time></trkpt><trkpt lat="46.2866367" lon="12.43796"><ele>646.75</ele><time>2026-04-25T11:16:35.955Z</time></trkpt><trkpt lat="46.286605" lon="12.4381583"><ele>647.0</ele><time>2026-04-25T11:16:36.955Z</time></trkpt><trkpt lat="46.286565" lon="12.4383783"><ele>647.3333333333333</ele><time>2026-04-25T11:16:37.955Z</time></trkpt><trkpt lat="46.2865183" lon="12.4386117"><ele>647.6666666666666</ele><time>2026-04-25T11:16:38.955Z</time></trkpt><trkpt lat="46.2864667" lon="12.4388583"><ele>648.0</ele><time>2026-04-25T11:16:39.954Z</time></trkpt><trkpt lat="46.2864133" lon="12.439125"><ele>646.6666666666666</ele><time>2026-04-25T11:16:40.956Z</time></trkpt><trkpt lat="46.2863583" lon="12.43941"><ele>645.3333333333333</ele><time>2026-04-25T11:16:41.954Z</time></trkpt><trkpt lat="46.2863" lon="12.4397133"><ele>644.0</ele><time>2026-04-25T11:16:42.955Z</time></trkpt><trkpt lat="46.2862367" lon="12.440025"><ele>642.5</ele><time>2026-04-25T11:16:43.957Z</time></trkpt><trkpt lat="46.286175" lon="12.4403483"><ele>641.0</ele><time>2026-04-25T11:16:44.954Z</time></trkpt><trkpt lat="46.2861117" lon="12.440675"><ele>640.5</ele><time>2026-04-25T11:16:45.956Z</time></trkpt><trkpt lat="46.2860517" lon="12.4409933"><ele>640.0</ele><time>2026-04-25T11:16:46.962Z</time></trkpt><trkpt lat="46.28599" lon="12.4413083"><ele>638.0</ele><time>2026-04-25T11:16:47.955Z</time></trkpt><trkpt lat="46.2859317" lon="12.4416233"><ele>636.0</ele><time>2026-04-25T11:16:48.955Z</time></trkpt><trkpt lat="46.28587" lon="12.44194"><ele>637.0</ele><time>2026-04-25T11:16:49.956Z</time></trkpt><trkpt lat="46.2858067" lon="12.442255"><ele>638.0</ele><time>2026-04-25T11:16:50.956Z</time></trkpt><trkpt lat="46.2857417" lon="12.44257"><ele>638.0</ele><time>2026-04-25T11:16:51.956Z</time></trkpt><trkpt lat="46.2856783" lon="12.4428833"><ele>638.0</ele><time>2026-04-25T11:16:52.957Z</time></trkpt><trkpt lat="46.2856133" lon="12.4431983"><ele>637.6666666666666</ele><time>2026-04-25T11:16:53.956Z</time></trkpt><trkpt lat="46.2855517" lon="12.44351"><ele>637.3333333333334</ele><time>2026-04-25T11:16:54.957Z</time></trkpt><trkpt lat="46.2854883" lon="12.4438133"><ele>637.0</ele><time>2026-04-25T11:16:55.956Z</time></trkpt><trkpt lat="46.285425" lon="12.44411"><ele>637.0</ele><time>2026-04-25T11:16:56.956Z</time></trkpt><trkpt lat="46.285365" lon="12.444395"><ele>637.0</ele><time>2026-04-25T11:16:57.957Z</time></trkpt><trkpt lat="46.285305" lon="12.4446583"><ele>637.0</ele><time>2026-04-25T11:16:58.957Z</time></trkpt><trkpt lat="46.2852433" lon="12.4448967"><ele>638.0</ele><time>2026-04-25T11:16:59.956Z</time></trkpt><trkpt lat="46.2851733" lon="12.4451117"><ele>639.0</ele><time>2026-04-25T11:17:00.955Z</time></trkpt><trkpt lat="46.285095" lon="12.4453033"><ele>640.0</ele><time>2026-04-25T11:17:01.955Z</time></trkpt><trkpt lat="46.2850033" lon="12.4454733"><ele>641.0</ele><time>2026-04-25T11:17:02.955Z</time></trkpt><trkpt lat="46.2849017" lon="12.4456417"><ele>642.0</ele><time>2026-04-25T11:17:03.955Z</time></trkpt><trkpt lat="46.2847833" lon="12.4458017"><ele>643.0</ele><time>2026-04-25T11:17:04.957Z</time></trkpt><trkpt lat="46.284655" lon="12.4459583"><ele>643.0</ele><time>2026-04-25T11:17:05.956Z</time></trkpt><trkpt lat="46.284525" lon="12.44612"><ele>643.0</ele><time>2026-04-25T11:17:06.956Z</time></trkpt><trkpt lat="46.28439" lon="12.44629"><ele>643.0</ele><time>2026-04-25T11:17:07.956Z</time></trkpt><trkpt lat="46.2842567" lon="12.446455"><ele>643.0</ele><time>2026-04-25T11:17:08.954Z</time></trkpt><trkpt lat="46.2841233" lon="12.4466183"><ele>643.0</ele><time>2026-04-25T11:17:09.955Z</time></trkpt><trkpt lat="46.2839933" lon="12.4467783"><ele>643.0</ele><time>2026-04-25T11:17:10.957Z</time></trkpt><trkpt lat="46.2838667" lon="12.4469333"><ele>643.0</ele><time>2026-04-25T11:17:11.954Z</time></trkpt><trkpt lat="46.2837467" lon="12.4470817"><ele>643.0</ele><time>2026-04-25T11:17:12.956Z</time></trkpt><trkpt lat="46.283625" lon="12.447225"><ele>643.0</ele><time>2026-04-25T11:17:13.955Z</time></trkpt><trkpt lat="46.283495" lon="12.4473583"><ele>642.3333333333334</ele><time>2026-04-25T11:17:14.955Z</time></trkpt><trkpt lat="46.2833533" lon="12.4474817"><ele>641.6666666666666</ele><time>2026-04-25T11:17:15.955Z</time></trkpt><trkpt lat="46.2831983" lon="12.4475917"><ele>641.0</ele><time>2026-04-25T11:17:16.956Z</time></trkpt><trkpt lat="46.2830317" lon="12.447695"><ele>640.0</ele><time>2026-04-25T11:17:17.954Z</time></trkpt><trkpt lat="46.2828533" lon="12.4477883"><ele>639.0</ele><time>2026-04-25T11:17:18.954Z</time></trkpt><trkpt lat="46.282665" lon="12.4478717"><ele>638.0</ele><time>2026-04-25T11:17:19.955Z</time></trkpt><trkpt lat="46.2824667" lon="12.4479517"><ele>637.6666666666666</ele><time>2026-04-25T11:17:20.954Z</time></trkpt><trkpt lat="46.2822633" lon="12.4480333"><ele>637.3333333333334</ele><time>2026-04-25T11:17:21.956Z</time></trkpt><trkpt lat="46.2820567" lon="12.44812"><ele>637.0</ele><time>2026-04-25T11:17:22.956Z</time></trkpt><trkpt lat="46.281845" lon="12.4482133"><ele>637.0</ele><time>2026-04-25T11:17:23.954Z</time></trkpt><trkpt lat="46.2816317" lon="12.4483183"><ele>637.0</ele><time>2026-04-25T11:17:24.956Z</time></trkpt><trkpt lat="46.2814217" lon="12.448445"><ele>635.5</ele><time>2026-04-25T11:17:25.956Z</time></trkpt><trkpt lat="46.28121" lon="12.448595"><ele>634.0</ele><time>2026-04-25T11:17:26.955Z</time></trkpt><trkpt lat="46.281" lon="12.448755"><ele>633.5</ele><time>2026-04-25T11:17:27.956Z</time></trkpt><trkpt lat="46.2807833" lon="12.448925"><ele>633.0</ele><time>2026-04-25T11:17:28.957Z</time></trkpt><trkpt lat="46.2805667" lon="12.4490983"><ele>632.0</ele><time>2026-04-25T11:17:29.954Z</time></trkpt><trkpt lat="46.280355" lon="12.44927"><ele>631.0</ele><time>2026-04-25T11:17:30.956Z</time></trkpt><trkpt lat="46.2801533" lon="12.4494367"><ele>631.0</ele><time>2026-04-25T11:17:31.956Z</time></trkpt><trkpt lat="46.2799567" lon="12.4496017"><ele>631.0</ele><time>2026-04-25T11:17:32.956Z</time></trkpt><trkpt lat="46.27977" lon="12.44977"><ele>631.0</ele><time>2026-04-25T11:17:33.96Z</time></trkpt><trkpt lat="46.2795933" lon="12.4499583"><ele>630.0</ele><time>2026-04-25T11:17:34.957Z</time></trkpt><trkpt lat="46.2794233" lon="12.450175"><ele>629.0</ele><time>2026-04-25T11:17:35.956Z</time></trkpt><trkpt lat="46.2792667" lon="12.4504233"><ele>628.5</ele><time>2026-04-25T11:17:36.957Z</time></trkpt><trkpt lat="46.2791217" lon="12.4507"><ele>628.0</ele><time>2026-04-25T11:17:37.956Z</time></trkpt><trkpt lat="46.278995" lon="12.4509967"><ele>625.5</ele><time>2026-04-25T11:17:38.955Z</time></trkpt><trkpt lat="46.278875" lon="12.4513117"><ele>623.0</ele><time>2026-04-25T11:17:39.956Z</time></trkpt><trkpt lat="46.2787583" lon="12.4516317"><ele>623.0</ele><time>2026-04-25T11:17:40.957Z</time></trkpt><trkpt lat="46.2786417" lon="12.4519533"><ele>623.0</ele><time>2026-04-25T11:17:41.955Z</time></trkpt><trkpt lat="46.2785267" lon="12.4522733"><ele>622.0</ele><time>2026-04-25T11:17:42.957Z</time></trkpt><trkpt lat="46.2784133" lon="12.452595"><ele>621.0</ele><time>2026-04-25T11:17:43.954Z</time></trkpt><trkpt lat="46.2782983" lon="12.4529067"><ele>620.5</ele><time>2026-04-25T11:17:44.956Z</time></trkpt><trkpt lat="46.278185" lon="12.4532033"><ele>620.0</ele><time>2026-04-25T11:17:45.954Z</time></trkpt><trkpt lat="46.2780583" lon="12.4534867"><ele>619.0</ele><time>2026-04-25T11:17:46.956Z</time></trkpt><trkpt lat="46.277915" lon="12.4537567"><ele>618.0</ele><time>2026-04-25T11:17:47.955Z</time></trkpt><trkpt lat="46.2777533" lon="12.4540067"><ele>617.0</ele><time>2026-04-25T11:17:48.956Z</time></trkpt><trkpt lat="46.2775783" lon="12.45424"><ele>616.0</ele><time>2026-04-25T11:17:49.956Z</time></trkpt><trkpt lat="46.2773917" lon="12.454465"><ele>615.0</ele><time>2026-04-25T11:17:50.956Z</time></trkpt><trkpt lat="46.2771967" lon="12.4546833"><ele>614.0</ele><time>2026-04-25T11:17:51.955Z</time></trkpt><trkpt lat="46.2769967" lon="12.4549"><ele>614.0</ele><time>2026-04-25T11:17:52.957Z</time></trkpt><trkpt lat="46.276795" lon="12.4551183"><ele>614.0</ele><time>2026-04-25T11:17:53.955Z</time></trkpt><trkpt lat="46.2765933" lon="12.4553417"><ele>611.5</ele><time>2026-04-25T11:17:54.957Z</time></trkpt><trkpt lat="46.27639" lon="12.455565"><ele>609.0</ele><time>2026-04-25T11:17:55.957Z</time></trkpt><trkpt lat="46.2761867" lon="12.45579"><ele>609.0</ele><time>2026-04-25T11:17:56.956Z</time></trkpt><trkpt lat="46.2759833" lon="12.4560117"><ele>609.0</ele><time>2026-04-25T11:17:57.955Z</time></trkpt><trkpt lat="46.2757817" lon="12.4562383"><ele>607.0</ele><time>2026-04-25T11:17:58.956Z</time></trkpt><trkpt lat="46.2755767" lon="12.4564617"><ele>605.0</ele><time>2026-04-25T11:17:59.955Z</time></trkpt><trkpt lat="46.2753783" lon="12.4566767"><ele>605.0</ele><time>2026-04-25T11:18:00.955Z</time></trkpt><trkpt lat="46.2751833" lon="12.45689"><ele>605.0</ele><time>2026-04-25T11:18:01.956Z</time></trkpt><trkpt lat="46.2749933" lon="12.4571"><ele>604.5</ele><time>2026-04-25T11:18:02.955Z</time></trkpt><trkpt lat="46.274805" lon="12.457305"><ele>604.0</ele><time>2026-04-25T11:18:03.956Z</time></trkpt><trkpt lat="46.27462" lon="12.457495"><ele>603.0</ele><time>2026-04-25T11:18:04.956Z</time></trkpt><trkpt lat="46.2744267" lon="12.4576783"><ele>602.0</ele><time>2026-04-25T11:18:05.955Z</time></trkpt><trkpt lat="46.2742233" lon="12.4578417"><ele>601.0</ele><time>2026-04-25T11:18:06.956Z</time></trkpt><trkpt lat="46.27401" lon="12.4579917"><ele>600.0</ele><time>2026-04-25T11:18:07.956Z</time></trkpt><trkpt lat="46.273795" lon="12.458135"><ele>598.5</ele><time>2026-04-25T11:18:08.956Z</time></trkpt><trkpt lat="46.2735767" lon="12.45828"><ele>597.0</ele><time>2026-04-25T11:18:09.955Z</time></trkpt><trkpt lat="46.273355" lon="12.4584233"><ele>597.0</ele><time>2026-04-25T11:18:10.956Z</time></trkpt><trkpt lat="46.2731333" lon="12.45857"><ele>597.0</ele><time>2026-04-25T11:18:11.954Z</time></trkpt><trkpt lat="46.27291" lon="12.4587167"><ele>595.5</ele><time>2026-04-25T11:18:12.956Z</time></trkpt><trkpt lat="46.2726867" lon="12.4588633"><ele>594.0</ele><time>2026-04-25T11:18:13.954Z</time></trkpt><trkpt lat="46.2724617" lon="12.459015"><ele>591.5</ele><time>2026-04-25T11:18:14.956Z</time></trkpt><trkpt lat="46.2722367" lon="12.4591667"><ele>589.0</ele><time>2026-04-25T11:18:15.955Z</time></trkpt><trkpt lat="46.2720117" lon="12.4593183"><ele>589.0</ele><time>2026-04-25T11:18:16.956Z</time></trkpt><trkpt lat="46.2717867" lon="12.4594683"><ele>589.0</ele><time>2026-04-25T11:18:17.955Z</time></trkpt><trkpt lat="46.2715667" lon="12.459615"><ele>589.0</ele><time>2026-04-25T11:18:18.956Z</time></trkpt><trkpt lat="46.2713533" lon="12.45976"><ele>589.0</ele><time>2026-04-25T11:18:19.955Z</time></trkpt><trkpt lat="46.2711433" lon="12.4599"><ele>589.0</ele><time>2026-04-25T11:18:20.956Z</time></trkpt><trkpt lat="46.270935" lon="12.4600367"><ele>589.0</ele><time>2026-04-25T11:18:21.955Z</time></trkpt><trkpt lat="46.2707333" lon="12.4601683"><ele>587.6666666666667</ele><time>2026-04-25T11:18:22.957Z</time></trkpt><trkpt lat="46.2705367" lon="12.460295"><ele>586.3333333333334</ele><time>2026-04-25T11:18:23.955Z</time></trkpt><trkpt lat="46.2703467" lon="12.4604317"><ele>585.0</ele><time>2026-04-25T11:18:24.956Z</time></trkpt><trkpt lat="46.270165" lon="12.4605983"><ele>585.0</ele><time>2026-04-25T11:18:25.956Z</time></trkpt><trkpt lat="46.2699883" lon="12.4607883"><ele>585.0</ele><time>2026-04-25T11:18:26.955Z</time></trkpt><trkpt lat="46.2698117" lon="12.4609933"><ele>585.0</ele><time>2026-04-25T11:18:27.954Z</time></trkpt><trkpt lat="46.2696317" lon="12.4612083"><ele>581.5</ele><time>2026-04-25T11:18:28.956Z</time></trkpt><trkpt lat="46.2694517" lon="12.4614233"><ele>578.0</ele><time>2026-04-25T11:18:29.955Z</time></trkpt><trkpt lat="46.2692683" lon="12.46164"><ele>578.0</ele><time>2026-04-25T11:18:30.955Z</time></trkpt><trkpt lat="46.2690833" lon="12.4618617"><ele>578.0</ele><time>2026-04-25T11:18:31.956Z</time></trkpt><trkpt lat="46.2688983" lon="12.46208"><ele>576.5</ele><time>2026-04-25T11:18:32.954Z</time></trkpt><trkpt lat="46.2687133" lon="12.4623017"><ele>575.0</ele><time>2026-04-25T11:18:33.955Z</time></trkpt><trkpt lat="46.2685267" lon="12.462525"><ele>575.0</ele><time>2026-04-25T11:18:34.956Z</time></trkpt><trkpt lat="46.26834" lon="12.46275"><ele>575.0</ele><time>2026-04-25T11:18:35.955Z</time></trkpt><trkpt lat="46.268155" lon="12.4629717"><ele>572.5</ele><time>2026-04-25T11:18:36.956Z</time></trkpt><trkpt lat="46.2679733" lon="12.4631883"><ele>570.0</ele><time>2026-04-25T11:18:37.956Z</time></trkpt><trkpt lat="46.2677933" lon="12.4634033"><ele>570.0</ele><time>2026-04-25T11:18:38.955Z</time></trkpt><trkpt lat="46.2676117" lon="12.4636167"><ele>570.0</ele><time>2026-04-25T11:18:39.956Z</time></trkpt><trkpt lat="46.2674317" lon="12.46383"><ele>566.0</ele><time>2026-04-25T11:18:40.956Z</time></trkpt><trkpt lat="46.26725" lon="12.4640417"><ele>562.0</ele><time>2026-04-25T11:18:41.955Z</time></trkpt><trkpt lat="46.26707" lon="12.4642567"><ele>562.0</ele><time>2026-04-25T11:18:42.955Z</time></trkpt><trkpt lat="46.26689" lon="12.4644717"><ele>562.0</ele><time>2026-04-25T11:18:43.956Z</time></trkpt><trkpt lat="46.26671" lon="12.46469"><ele>563.5</ele><time>2026-04-25T11:18:44.955Z</time></trkpt><trkpt lat="46.26653" lon="12.464905"><ele>565.0</ele><time>2026-04-25T11:18:45.956Z</time></trkpt><trkpt lat="46.2663483" lon="12.46512"><ele>563.0</ele><time>2026-04-25T11:18:46.956Z</time></trkpt><trkpt lat="46.2661667" lon="12.465335"><ele>561.0</ele><time>2026-04-25T11:18:47.955Z</time></trkpt><trkpt lat="46.2659783" lon="12.4655467"><ele>561.0</ele><time>2026-04-25T11:18:48.955Z</time></trkpt><trkpt lat="46.2657783" lon="12.4657483"><ele>561.0</ele><time>2026-04-25T11:18:49.956Z</time></trkpt><trkpt lat="46.265565" lon="12.4659233"><ele>556.5</ele><time>2026-04-25T11:18:50.954Z</time></trkpt><trkpt lat="46.265345" lon="12.4660867"><ele>552.0</ele><time>2026-04-25T11:18:51.956Z</time></trkpt><trkpt lat="46.2651233" lon="12.466245"><ele>552.5</ele><time>2026-04-25T11:18:52.956Z</time></trkpt><trkpt lat="46.2648983" lon="12.4664067"><ele>553.0</ele><time>2026-04-25T11:18:53.955Z</time></trkpt><trkpt lat="46.2646683" lon="12.4665717"><ele>553.0</ele><time>2026-04-25T11:18:54.955Z</time></trkpt><trkpt lat="46.2644383" lon="12.4667383"><ele>553.0</ele><time>2026-04-25T11:18:55.956Z</time></trkpt><trkpt lat="46.2642067" lon="12.4669017"><ele>553.0</ele><time>2026-04-25T11:18:56.957Z</time></trkpt><trkpt lat="46.263975" lon="12.4670667"><ele>553.0</ele><time>2026-04-25T11:18:57.957Z</time></trkpt><trkpt lat="46.2637433" lon="12.4672283"><ele>552.0</ele><time>2026-04-25T11:18:58.957Z</time></trkpt><trkpt lat="46.26351" lon="12.467385"><ele>551.0</ele><time>2026-04-25T11:18:59.955Z</time></trkpt><trkpt lat="46.2632783" lon="12.4675333"><ele>548.0</ele><time>2026-04-25T11:19:00.956Z</time></trkpt><trkpt lat="46.263045" lon="12.4676783"><ele>545.0</ele><time>2026-04-25T11:19:01.956Z</time></trkpt><trkpt lat="46.2628117" lon="12.4678167"><ele>549.5</ele><time>2026-04-25T11:19:02.956Z</time></trkpt><trkpt lat="46.26258" lon="12.4679483"><ele>554.0</ele><time>2026-04-25T11:19:03.955Z</time></trkpt><trkpt lat="46.2623583" lon="12.4680767"><ele>551.6666666666666</ele><time>2026-04-25T11:19:04.956Z</time></trkpt><trkpt lat="46.2621483" lon="12.4681967"><ele>549.3333333333334</ele><time>2026-04-25T11:19:05.956Z</time></trkpt><trkpt lat="46.261945" lon="12.4683167"><ele>547.0</ele><time>2026-04-25T11:19:06.955Z</time></trkpt><trkpt lat="46.2617467" lon="12.468435"><ele>547.0</ele><time>2026-04-25T11:19:07.956Z</time></trkpt><trkpt lat="46.2615533" lon="12.46856"><ele>547.0</ele><time>2026-04-25T11:19:08.956Z</time></trkpt><trkpt lat="46.261365" lon="12.4686767"><ele>547.0</ele><time>2026-04-25T11:19:09.956Z</time></trkpt><trkpt lat="46.2611867" lon="12.46879"><ele>546.6666666666667</ele><time>2026-04-25T11:19:10.957Z</time></trkpt><trkpt lat="46.2610183" lon="12.468895"><ele>546.3333333333334</ele><time>2026-04-25T11:19:11.954Z</time></trkpt><trkpt lat="46.2608583" lon="12.4689967"><ele>546.0</ele><time>2026-04-25T11:19:12.955Z</time></trkpt><trkpt lat="46.260715" lon="12.4690817"><ele>544.0</ele><time>2026-04-25T11:19:13.955Z</time></trkpt><trkpt lat="46.2605833" lon="12.4691583"><ele>542.0</ele><time>2026-04-25T11:19:14.954Z</time></trkpt><trkpt lat="46.2604583" lon="12.4692283"><ele>540.0</ele><time>2026-04-25T11:19:15.956Z</time></trkpt><trkpt lat="46.2603317" lon="12.4692717"><ele>538.0</ele><time>2026-04-25T11:19:16.956Z</time></trkpt><trkpt lat="46.2602" lon="12.469275"><ele>538.0</ele><time>2026-04-25T11:19:17.956Z</time></trkpt><trkpt lat="46.26007" lon="12.46923"><ele>538.0</ele><time>2026-04-25T11:19:18.956Z</time></trkpt><trkpt lat="46.2599483" lon="12.4691267"><ele>538.0</ele><time>2026-04-25T11:19:19.955Z</time></trkpt><trkpt lat="46.259845" lon="12.4689733"><ele>538.0</ele><time>2026-04-25T11:19:20.955Z</time></trkpt><trkpt lat="46.25975" lon="12.4688"><ele>538.3333333333334</ele><time>2026-04-25T11:19:21.958Z</time></trkpt><trkpt lat="46.2596633" lon="12.4686233"><ele>538.6666666666666</ele><time>2026-04-25T11:19:22.956Z</time></trkpt><trkpt lat="46.2595983" lon="12.4684217"><ele>539.0</ele><time>2026-04-25T11:19:23.956Z</time></trkpt><trkpt lat="46.2595483" lon="12.468185"><ele>536.3333333333333</ele><time>2026-04-25T11:19:24.956Z</time></trkpt><trkpt lat="46.2595067" lon="12.4679267"><ele>533.6666666666666</ele><time>2026-04-25T11:19:25.956Z</time></trkpt><trkpt lat="46.2594733" lon="12.4676667"><ele>531.0</ele><time>2026-04-25T11:19:26.956Z</time></trkpt><trkpt lat="46.259445" lon="12.4674183"><ele>531.0</ele><time>2026-04-25T11:19:27.957Z</time></trkpt><trkpt lat="46.259415" lon="12.4671817"><ele>531.0</ele><time>2026-04-25T11:19:28.957Z</time></trkpt><trkpt lat="46.2593867" lon="12.4669633"><ele>531.0</ele><time>2026-04-25T11:19:29.955Z</time></trkpt><trkpt lat="46.25936" lon="12.4667617"><ele>531.0</ele><time>2026-04-25T11:19:30.956Z</time></trkpt><trkpt lat="46.259335" lon="12.4665867"><ele>531.0</ele><time>2026-04-25T11:19:31.956Z</time></trkpt><trkpt lat="46.259295" lon="12.4664367"><ele>531.0</ele><time>2026-04-25T11:19:32.955Z</time></trkpt><trkpt lat="46.2592233" lon="12.4663183"><ele>531.0</ele><time>2026-04-25T11:19:33.955Z</time></trkpt><trkpt lat="46.259115" lon="12.4662367"><ele>530.75</ele><time>2026-04-25T11:19:34.957Z</time></trkpt><trkpt lat="46.2589883" lon="12.4662"><ele>530.5</ele><time>2026-04-25T11:19:35.954Z</time></trkpt><trkpt lat="46.2588417" lon="12.4662267"><ele>530.25</ele><time>2026-04-25T11:19:36.956Z</time></trkpt><trkpt lat="46.2586833" lon="12.4663017"><ele>530.0</ele><time>2026-04-25T11:19:37.954Z</time></trkpt><trkpt lat="46.2585283" lon="12.4663883"><ele>530.0</ele><time>2026-04-25T11:19:38.955Z</time></trkpt><trkpt lat="46.2583717" lon="12.4664733"><ele>530.0</ele><time>2026-04-25T11:19:39.954Z</time></trkpt><trkpt lat="46.2582167" lon="12.4665217"><ele>530.0</ele><time>2026-04-25T11:19:40.955Z</time></trkpt><trkpt lat="46.2580467" lon="12.46653"><ele>528.6666666666666</ele><time>2026-04-25T11:19:41.954Z</time></trkpt><trkpt lat="46.2578733" lon="12.466525"><ele>527.3333333333334</ele><time>2026-04-25T11:19:42.955Z</time></trkpt><trkpt lat="46.2576967" lon="12.4665233"><ele>526.0</ele><time>2026-04-25T11:19:43.956Z</time></trkpt><trkpt lat="46.2575167" lon="12.46653"><ele>526.0</ele><time>2026-04-25T11:19:44.954Z</time></trkpt><trkpt lat="46.25734" lon="12.4665333"><ele>526.0</ele><time>2026-04-25T11:19:45.955Z</time></trkpt><trkpt lat="46.2571767" lon="12.4665117"><ele>526.0</ele><time>2026-04-25T11:19:46.955Z</time></trkpt><trkpt lat="46.257025" lon="12.4664617"><ele>526.3333333333334</ele><time>2026-04-25T11:19:47.955Z</time></trkpt><trkpt lat="46.25688" lon="12.46637"><ele>526.6666666666666</ele><time>2026-04-25T11:19:48.955Z</time></trkpt><trkpt lat="46.2567283" lon="12.4662467"><ele>527.0</ele><time>2026-04-25T11:19:49.953Z</time></trkpt><trkpt lat="46.2565717" lon="12.466115"><ele>524.3333333333333</ele><time>2026-04-25T11:19:50.954Z</time></trkpt><trkpt lat="46.25642" lon="12.4659933"><ele>521.6666666666666</ele><time>2026-04-25T11:19:51.955Z</time></trkpt><trkpt lat="46.256275" lon="12.4658833"><ele>519.0</ele><time>2026-04-25T11:19:52.956Z</time></trkpt><trkpt lat="46.2561367" lon="12.465775"><ele>519.0</ele><time>2026-04-25T11:19:53.955Z</time></trkpt><trkpt lat="46.2560067" lon="12.465645"><ele>519.0</ele><time>2026-04-25T11:19:54.955Z</time></trkpt><trkpt lat="46.255895" lon="12.4654717"><ele>519.0</ele><time>2026-04-25T11:19:55.955Z</time></trkpt><trkpt lat="46.2558083" lon="12.4652567"><ele>520.3333333333334</ele><time>2026-04-25T11:19:56.954Z</time></trkpt><trkpt lat="46.2557383" lon="12.465025"><ele>521.6666666666667</ele><time>2026-04-25T11:19:57.954Z</time></trkpt><trkpt lat="46.2556633" lon="12.4647917"><ele>523.0</ele><time>2026-04-25T11:19:58.955Z</time></trkpt><trkpt lat="46.25557" lon="12.4645683"><ele>523.0</ele><time>2026-04-25T11:19:59.955Z</time></trkpt><trkpt lat="46.2554667" lon="12.464365"><ele>523.0</ele><time>2026-04-25T11:20:00.958Z</time></trkpt><trkpt lat="46.2553533" lon="12.46418"><ele>523.0</ele><time>2026-04-25T11:20:01.955Z</time></trkpt><trkpt lat="46.25522" lon="12.4640217"><ele>523.0</ele><time>2026-04-25T11:20:02.954Z</time></trkpt><trkpt lat="46.2550633" lon="12.4638983"><ele>523.0</ele><time>2026-04-25T11:20:03.954Z</time></trkpt><trkpt lat="46.2548933" lon="12.4638217"><ele>523.0</ele><time>2026-04-25T11:20:04.955Z</time></trkpt><trkpt lat="46.254715" lon="12.4638067"><ele>522.3333333333334</ele><time>2026-04-25T11:20:05.955Z</time></trkpt><trkpt lat="46.25454" lon="12.463835"><ele>521.6666666666666</ele><time>2026-04-25T11:20:06.955Z</time></trkpt><trkpt lat="46.25438" lon="12.4638967"><ele>521.0</ele><time>2026-04-25T11:20:07.955Z</time></trkpt><trkpt lat="46.2542267" lon="12.46396"><ele>521.0</ele><time>2026-04-25T11:20:08.953Z</time></trkpt><trkpt lat="46.2540733" lon="12.4639867"><ele>521.0</ele><time>2026-04-25T11:20:09.955Z</time></trkpt><trkpt lat="46.25391" lon="12.4639767"><ele>521.0</ele><time>2026-04-25T11:20:10.955Z</time></trkpt><trkpt lat="46.25374" lon="12.4639317"><ele>518.3333333333333</ele><time>2026-04-25T11:20:11.955Z</time></trkpt><trkpt lat="46.253565" lon="12.4638583"><ele>515.6666666666666</ele><time>2026-04-25T11:20:12.955Z</time></trkpt><trkpt lat="46.253385" lon="12.4637667"><ele>513.0</ele><time>2026-04-25T11:20:13.955Z</time></trkpt><trkpt lat="46.2531983" lon="12.4636717"><ele>517.3333333333334</ele><time>2026-04-25T11:20:14.955Z</time></trkpt><trkpt lat="46.2530033" lon="12.4635733"><ele>521.6666666666667</ele><time>2026-04-25T11:20:15.956Z</time></trkpt><trkpt lat="46.2528083" lon="12.4634683"><ele>526.0</ele><time>2026-04-25T11:20:16.955Z</time></trkpt><trkpt lat="46.2526167" lon="12.4633567"><ele>526.0</ele><time>2026-04-25T11:20:17.955Z</time></trkpt><trkpt lat="46.2524167" lon="12.4632567"><ele>526.0</ele><time>2026-04-25T11:20:18.954Z</time></trkpt><trkpt lat="46.2522033" lon="12.4631717"><ele>526.0</ele><time>2026-04-25T11:20:19.955Z</time></trkpt><trkpt lat="46.2519783" lon="12.4631083"><ele>522.3333333333334</ele><time>2026-04-25T11:20:20.955Z</time></trkpt><trkpt lat="46.25177" lon="12.463055"><ele>518.6666666666666</ele><time>2026-04-25T11:20:21.954Z</time></trkpt><trkpt lat="46.2515917" lon="12.4630117"><ele>515.0</ele><time>2026-04-25T11:20:22.955Z</time></trkpt><trkpt lat="46.2514317" lon="12.46296"><ele>516.3333333333333</ele><time>2026-04-25T11:20:23.953Z</time></trkpt><trkpt lat="46.2512783" lon="12.46288"><ele>517.6666666666666</ele><time>2026-04-25T11:20:24.955Z</time></trkpt><trkpt lat="46.2511283" lon="12.4627783"><ele>519.0</ele><time>2026-04-25T11:20:25.955Z</time></trkpt><trkpt lat="46.2509833" lon="12.4626867"><ele>519.0</ele><time>2026-04-25T11:20:26.954Z</time></trkpt><trkpt lat="46.2508367" lon="12.4626333"><ele>519.0</ele><time>2026-04-25T11:20:27.956Z</time></trkpt><trkpt lat="46.25068" lon="12.4626317"><ele>519.0</ele><time>2026-04-25T11:20:28.956Z</time></trkpt><trkpt lat="46.250535" lon="12.4626683"><ele>524.5</ele><time>2026-04-25T11:20:29.954Z</time></trkpt><trkpt lat="46.2504083" lon="12.4627333"><ele>530.0</ele><time>2026-04-25T11:20:30.955Z</time></trkpt><trkpt lat="46.25031" lon="12.462835"><ele>535.5</ele><time>2026-04-25T11:20:31.955Z</time></trkpt><trkpt lat="46.2502417" lon="12.4629883"><ele>541.0</ele><time>2026-04-25T11:20:32.956Z</time></trkpt><trkpt lat="46.25019" lon="12.46318"><ele>541.0</ele><time>2026-04-25T11:20:33.955Z</time></trkpt><trkpt lat="46.25013" lon="12.4633867"><ele>541.0</ele><time>2026-04-25T11:20:34.955Z</time></trkpt><trkpt lat="46.250035" lon="12.46358"><ele>541.0</ele><time>2026-04-25T11:20:35.954Z</time></trkpt><trkpt lat="46.2499067" lon="12.463765"><ele>558.0</ele><time>2026-04-25T11:20:36.955Z</time></trkpt><trkpt lat="46.249775" lon="12.4639617"><ele>575.0</ele><time>2026-04-25T11:20:37.955Z</time></trkpt><trkpt lat="46.2496583" lon="12.4641933"><ele>592.0</ele><time>2026-04-25T11:20:38.953Z</time></trkpt><trkpt lat="46.2495567" lon="12.4644483"><ele>589.3333333333334</ele><time>2026-04-25T11:20:39.955Z</time></trkpt><trkpt lat="46.2494633" lon="12.4646883"><ele>586.6666666666666</ele><time>2026-04-25T11:20:40.955Z</time></trkpt><trkpt lat="46.2493967" lon="12.4649217"><ele>584.0</ele><time>2026-04-25T11:20:41.953Z</time></trkpt><trkpt lat="46.2493733" lon="12.4651667"><ele>584.0</ele><time>2026-04-25T11:20:42.955Z</time></trkpt><trkpt lat="46.24937" lon="12.4654383"><ele>584.0</ele><time>2026-04-25T11:20:43.956Z</time></trkpt><trkpt lat="46.2493833" lon="12.4657133"><ele>584.0</ele><time>2026-04-25T11:20:44.953Z</time></trkpt><trkpt lat="46.2493833" lon="12.4659917"><ele>578.0</ele><time>2026-04-25T11:20:45.955Z</time></trkpt><trkpt lat="46.2493717" lon="12.4662717"><ele>572.0</ele><time>2026-04-25T11:20:46.955Z</time></trkpt><trkpt lat="46.24936" lon="12.466555"><ele>566.0</ele><time>2026-04-25T11:20:47.955Z</time></trkpt><trkpt lat="46.2493483" lon="12.466845"><ele>560.6666666666666</ele><time>2026-04-25T11:20:48.955Z</time></trkpt><trkpt lat="46.2493617" lon="12.467145"><ele>555.3333333333334</ele><time>2026-04-25T11:20:49.954Z</time></trkpt><trkpt lat="46.2493733" lon="12.46745"><ele>550.0</ele><time>2026-04-25T11:20:50.954Z</time></trkpt><trkpt lat="46.2494183" lon="12.4677567"><ele>544.6666666666667</ele><time>2026-04-25T11:20:51.955Z</time></trkpt><trkpt lat="46.2494583" lon="12.4680567"><ele>539.3333333333334</ele><time>2026-04-25T11:20:52.956Z</time></trkpt><trkpt lat="46.2494633" lon="12.4683467"><ele>534.0</ele><time>2026-04-25T11:20:53.954Z</time></trkpt><trkpt lat="46.2494367" lon="12.46862"><ele>529.6666666666666</ele><time>2026-04-25T11:20:54.954Z</time></trkpt><trkpt lat="46.24938" lon="12.468875"><ele>525.3333333333333</ele><time>2026-04-25T11:20:55.956Z</time></trkpt><trkpt lat="46.2493167" lon="12.46911"><ele>521.0</ele><time>2026-04-25T11:20:56.954Z</time></trkpt><trkpt lat="46.2492783" lon="12.469345"><ele>521.0</ele><time>2026-04-25T11:20:57.954Z</time></trkpt><trkpt lat="46.2492083" lon="12.4695667"><ele>521.0</ele><time>2026-04-25T11:20:58.955Z</time></trkpt><trkpt lat="46.24912" lon="12.4697633"><ele>521.0</ele><time>2026-04-25T11:20:59.954Z</time></trkpt><trkpt lat="46.2490083" lon="12.4699383"><ele>519.0</ele><time>2026-04-25T11:21:00.955Z</time></trkpt><trkpt lat="46.2488883" lon="12.4701117"><ele>517.0</ele><time>2026-04-25T11:21:01.954Z</time></trkpt><trkpt lat="46.2487583" lon="12.4702817"><ele>515.0</ele><time>2026-04-25T11:21:02.955Z</time></trkpt><trkpt lat="46.2486267" lon="12.47045"><ele>512.6666666666666</ele><time>2026-04-25T11:21:03.955Z</time></trkpt><trkpt lat="46.24849" lon="12.4706117"><ele>510.33333333333337</ele><time>2026-04-25T11:21:04.955Z</time></trkpt><trkpt lat="46.24835" lon="12.4707683"><ele>508.0</ele><time>2026-04-25T11:21:05.954Z</time></trkpt><trkpt lat="46.24821" lon="12.4709167"><ele>508.6666666666667</ele><time>2026-04-25T11:21:06.955Z</time></trkpt><trkpt lat="46.248075" lon="12.47105"><ele>509.33333333333337</ele><time>2026-04-25T11:21:07.955Z</time></trkpt><trkpt lat="46.2479433" lon="12.47117"><ele>510.0</ele><time>2026-04-25T11:21:08.954Z</time></trkpt><trkpt lat="46.247795" lon="12.471275"><ele>508.0</ele><time>2026-04-25T11:21:09.954Z</time></trkpt><trkpt lat="46.2476383" lon="12.471365"><ele>506.0</ele><time>2026-04-25T11:21:10.955Z</time></trkpt><trkpt lat="46.2474683" lon="12.4714383"><ele>504.0</ele><time>2026-04-25T11:21:11.954Z</time></trkpt><trkpt lat="46.2473017" lon="12.47151"><ele>504.66666666666663</ele><time>2026-04-25T11:21:12.955Z</time></trkpt><trkpt lat="46.247135" lon="12.4715967"><ele>505.3333333333333</ele><time>2026-04-25T11:21:13.954Z</time></trkpt><trkpt lat="46.2469733" lon="12.47171"><ele>506.0</ele><time>2026-04-25T11:21:14.954Z</time></trkpt><trkpt lat="46.24682" lon="12.4718567"><ele>506.0</ele><time>2026-04-25T11:21:15.956Z</time></trkpt><trkpt lat="46.2466817" lon="12.472035"><ele>506.0</ele><time>2026-04-25T11:21:16.955Z</time></trkpt><trkpt lat="46.2465517" lon="12.4722433"><ele>506.0</ele><time>2026-04-25T11:21:17.955Z</time></trkpt><trkpt lat="46.2464267" lon="12.4724717"><ele>505.3333333333333</ele><time>2026-04-25T11:21:18.955Z</time></trkpt><trkpt lat="46.2463067" lon="12.4727117"><ele>504.66666666666663</ele><time>2026-04-25T11:21:19.955Z</time></trkpt><trkpt lat="46.2461883" lon="12.4729617"><ele>504.0</ele><time>2026-04-25T11:21:20.954Z</time></trkpt><trkpt lat="46.2460683" lon="12.4732117"><ele>504.66666666666663</ele><time>2026-04-25T11:21:21.955Z</time></trkpt><trkpt lat="46.2459467" lon="12.4734633"><ele>505.3333333333333</ele><time>2026-04-25T11:21:22.955Z</time></trkpt><trkpt lat="46.2458233" lon="12.4737133"><ele>506.0</ele><time>2026-04-25T11:21:23.954Z</time></trkpt><trkpt lat="46.2457" lon="12.4739583"><ele>508.66666666666663</ele><time>2026-04-25T11:21:24.955Z</time></trkpt><trkpt lat="46.2455817" lon="12.474195"><ele>511.33333333333337</ele><time>2026-04-25T11:21:25.955Z</time></trkpt><trkpt lat="46.2454683" lon="12.4744267"><ele>514.0</ele><time>2026-04-25T11:21:26.955Z</time></trkpt><trkpt lat="46.2453683" lon="12.4746533"><ele>514.0</ele><time>2026-04-25T11:21:27.954Z</time></trkpt><trkpt lat="46.2452817" lon="12.4748817"><ele>514.0</ele><time>2026-04-25T11:21:28.957Z</time></trkpt><trkpt lat="46.2452017" lon="12.475105"><ele>514.0</ele><time>2026-04-25T11:21:29.954Z</time></trkpt><trkpt lat="46.24513" lon="12.4753317"><ele>512.0</ele><time>2026-04-25T11:21:30.956Z</time></trkpt><trkpt lat="46.2450583" lon="12.47556"><ele>510.0</ele><time>2026-04-25T11:21:31.955Z</time></trkpt><trkpt lat="46.2449883" lon="12.475795"><ele>508.0</ele><time>2026-04-25T11:21:32.955Z</time></trkpt><trkpt lat="46.2449183" lon="12.4760333"><ele>506.33333333333337</ele><time>2026-04-25T11:21:33.955Z</time></trkpt><trkpt lat="46.2448483" lon="12.47627"><ele>504.66666666666663</ele><time>2026-04-25T11:21:34.956Z</time></trkpt><trkpt lat="46.2447733" lon="12.47651"><ele>503.0</ele><time>2026-04-25T11:21:35.954Z</time></trkpt><trkpt lat="46.2446967" lon="12.4767483"><ele>508.3333333333333</ele><time>2026-04-25T11:21:36.955Z</time></trkpt><trkpt lat="46.2446267" lon="12.4769917"><ele>513.6666666666666</ele><time>2026-04-25T11:21:37.955Z</time></trkpt><trkpt lat="46.2445583" lon="12.4772383"><ele>519.0</ele><time>2026-04-25T11:21:38.955Z</time></trkpt><trkpt lat="46.244495" lon="12.4774867"><ele>520.0</ele><time>2026-04-25T11:21:39.955Z</time></trkpt><trkpt lat="46.2444383" lon="12.4777417"><ele>521.0</ele><time>2026-04-25T11:21:40.956Z</time></trkpt><trkpt lat="46.2443867" lon="12.4780033"><ele>522.0</ele><time>2026-04-25T11:21:41.954Z</time></trkpt><trkpt lat="46.2443383" lon="12.4782717"><ele>522.6666666666666</ele><time>2026-04-25T11:21:42.955Z</time></trkpt><trkpt lat="46.244285" lon="12.4785483"><ele>523.3333333333333</ele><time>2026-04-25T11:21:43.955Z</time></trkpt><trkpt lat="46.2442417" lon="12.4788283"><ele>524.0</ele><time>2026-04-25T11:21:44.956Z</time></trkpt><trkpt lat="46.2441917" lon="12.47911"><ele>522.0</ele><time>2026-04-25T11:21:45.954Z</time></trkpt><trkpt lat="46.24414" lon="12.4793917"><ele>520.0</ele><time>2026-04-25T11:21:46.956Z</time></trkpt><trkpt lat="46.2440867" lon="12.4796733"><ele>518.0</ele><time>2026-04-25T11:21:47.954Z</time></trkpt><trkpt lat="46.244035" lon="12.479955"><ele>515.3333333333333</ele><time>2026-04-25T11:21:48.954Z</time></trkpt><trkpt lat="46.2439917" lon="12.4802433"><ele>512.6666666666666</ele><time>2026-04-25T11:21:49.955Z</time></trkpt><trkpt lat="46.2439533" lon="12.4805367"><ele>510.0</ele><time>2026-04-25T11:21:50.955Z</time></trkpt><trkpt lat="46.243925" lon="12.4808367"><ele>521.6666666666666</ele><time>2026-04-25T11:21:51.955Z</time></trkpt><trkpt lat="46.2438983" lon="12.4811417"><ele>533.3333333333333</ele><time>2026-04-25T11:21:52.956Z</time></trkpt><trkpt lat="46.2438733" lon="12.4814483"><ele>545.0</ele><time>2026-04-25T11:21:53.955Z</time></trkpt><trkpt lat="46.2438467" lon="12.4817567"><ele>545.0</ele><time>2026-04-25T11:21:54.956Z</time></trkpt><trkpt lat="46.243825" lon="12.4820517"><ele>545.0</ele><time>2026-04-25T11:21:55.956Z</time></trkpt><trkpt lat="46.2438067" lon="12.48234"><ele>545.0</ele><time>2026-04-25T11:21:56.956Z</time></trkpt><trkpt lat="46.24379" lon="12.4826183"><ele>549.3333333333333</ele><time>2026-04-25T11:21:57.955Z</time></trkpt><trkpt lat="46.2437733" lon="12.4828817"><ele>553.6666666666666</ele><time>2026-04-25T11:21:58.955Z</time></trkpt><trkpt lat="46.243765" lon="12.4831217"><ele>558.0</ele><time>2026-04-25T11:21:59.954Z</time></trkpt><trkpt lat="46.24375" lon="12.4833483"><ele>558.0</ele><time>2026-04-25T11:22:00.955Z</time></trkpt><trkpt lat="46.2437217" lon="12.4835667"><ele>558.0</ele><time>2026-04-25T11:22:01.955Z</time></trkpt><trkpt lat="46.24367" lon="12.48378"><ele>558.0</ele><time>2026-04-25T11:22:02.955Z</time></trkpt><trkpt lat="46.2436067" lon="12.4839933"><ele>549.3333333333334</ele><time>2026-04-25T11:22:03.955Z</time></trkpt><trkpt lat="46.243535" lon="12.4842067"><ele>540.6666666666667</ele><time>2026-04-25T11:22:04.956Z</time></trkpt><trkpt lat="46.2434483" lon="12.484415"><ele>532.0</ele><time>2026-04-25T11:22:05.956Z</time></trkpt><trkpt lat="46.2433517" lon="12.4846217"><ele>528.0</ele><time>2026-04-25T11:22:06.955Z</time></trkpt><trkpt lat="46.2432417" lon="12.4848233"><ele>524.0</ele><time>2026-04-25T11:22:07.957Z</time></trkpt><trkpt lat="46.2431283" lon="12.485005"><ele>520.0</ele><time>2026-04-25T11:22:08.955Z</time></trkpt><trkpt lat="46.2430167" lon="12.485175"><ele>520.0</ele><time>2026-04-25T11:22:09.955Z</time></trkpt><trkpt lat="46.2429033" lon="12.4853283"><ele>520.0</ele><time>2026-04-25T11:22:10.956Z</time></trkpt><trkpt lat="46.2427783" lon="12.4854567"><ele>520.0</ele><time>2026-04-25T11:22:11.954Z</time></trkpt><trkpt lat="46.242635" lon="12.48557"><ele>514.6666666666667</ele><time>2026-04-25T11:22:12.955Z</time></trkpt><trkpt lat="46.24247" lon="12.4856817"><ele>509.33333333333337</ele><time>2026-04-25T11:22:13.955Z</time></trkpt><trkpt lat="46.2422917" lon="12.4857867"><ele>504.0</ele><time>2026-04-25T11:22:14.955Z</time></trkpt><trkpt lat="46.24211" lon="12.4858933"><ele>504.0</ele><time>2026-04-25T11:22:15.955Z</time></trkpt><trkpt lat="46.24193" lon="12.485995"><ele>504.0</ele><time>2026-04-25T11:22:16.956Z</time></trkpt><trkpt lat="46.2417467" lon="12.486085"><ele>504.0</ele><time>2026-04-25T11:22:17.955Z</time></trkpt><trkpt lat="46.24156" lon="12.4861583"><ele>510.0</ele><time>2026-04-25T11:22:18.955Z</time></trkpt><trkpt lat="46.24137" lon="12.4862117"><ele>516.0</ele><time>2026-04-25T11:22:19.955Z</time></trkpt><trkpt lat="46.24117" lon="12.4862467"><ele>522.0</ele><time>2026-04-25T11:22:20.956Z</time></trkpt><trkpt lat="46.2409683" lon="12.486265"><ele>510.0</ele><time>2026-04-25T11:22:21.955Z</time></trkpt><trkpt lat="46.2407683" lon="12.4862883"><ele>498.0</ele><time>2026-04-25T11:22:22.955Z</time></trkpt><trkpt lat="46.2405667" lon="12.48632"><ele>486.0</ele><time>2026-04-25T11:22:23.955Z</time></trkpt><trkpt lat="46.2403733" lon="12.4863517"><ele>486.0</ele><time>2026-04-25T11:22:24.955Z</time></trkpt><trkpt lat="46.2401883" lon="12.4863883"><ele>486.0</ele><time>2026-04-25T11:22:25.956Z</time></trkpt><trkpt lat="46.2400133" lon="12.48642"><ele>486.0</ele><time>2026-04-25T11:22:26.955Z</time></trkpt><trkpt lat="46.23985" lon="12.4864667"><ele>493.66666666666663</ele><time>2026-04-25T11:22:27.956Z</time></trkpt><trkpt lat="46.2396967" lon="12.48653"><ele>501.3333333333333</ele><time>2026-04-25T11:22:28.956Z</time></trkpt><trkpt lat="46.2395583" lon="12.4866233"><ele>509.0</ele><time>2026-04-25T11:22:29.955Z</time></trkpt><trkpt lat="46.2394367" lon="12.4867583"><ele>509.0</ele><time>2026-04-25T11:22:30.955Z</time></trkpt><trkpt lat="46.23932" lon="12.4869167"><ele>509.0</ele><time>2026-04-25T11:22:31.956Z</time></trkpt><trkpt lat="46.2392017" lon="12.4870833"><ele>509.0</ele><time>2026-04-25T11:22:32.954Z</time></trkpt><trkpt lat="46.23908" lon="12.487255"><ele>512.0</ele><time>2026-04-25T11:22:33.956Z</time></trkpt><trkpt lat="46.23896" lon="12.4874283"><ele>515.0</ele><time>2026-04-25T11:22:34.956Z</time></trkpt><trkpt lat="46.2388417" lon="12.4875917"><ele>518.0</ele><time>2026-04-25T11:22:35.954Z</time></trkpt><trkpt lat="46.2387317" lon="12.4877467"><ele>518.0</ele><time>2026-04-25T11:22:36.955Z</time></trkpt><trkpt lat="46.2386117" lon="12.4878717"><ele>518.0</ele><time>2026-04-25T11:22:37.957Z</time></trkpt><trkpt lat="46.2384783" lon="12.48797"><ele>518.0</ele><time>2026-04-25T11:22:38.955Z</time></trkpt><trkpt lat="46.2383233" lon="12.4880467"><ele>509.0</ele><time>2026-04-25T11:22:39.955Z</time></trkpt><trkpt lat="46.2381633" lon="12.4881033"><ele>500.0</ele><time>2026-04-25T11:22:40.957Z</time></trkpt><trkpt lat="46.2379967" lon="12.48818"><ele>491.0</ele><time>2026-04-25T11:22:41.954Z</time></trkpt><trkpt lat="46.2378433" lon="12.4882833"><ele>491.0</ele><time>2026-04-25T11:22:42.956Z</time></trkpt><trkpt lat="46.237695" lon="12.4884"><ele>491.0</ele><time>2026-04-25T11:22:43.955Z</time></trkpt><trkpt lat="46.2375433" lon="12.4885017"><ele>491.0</ele><time>2026-04-25T11:22:44.955Z</time></trkpt><trkpt lat="46.2373833" lon="12.4885767"><ele>492.3333333333333</ele><time>2026-04-25T11:22:45.955Z</time></trkpt><trkpt lat="46.2372133" lon="12.4886333"><ele>493.66666666666663</ele><time>2026-04-25T11:22:46.955Z</time></trkpt><trkpt lat="46.2370267" lon="12.488675"><ele>495.0</ele><time>2026-04-25T11:22:47.955Z</time></trkpt><trkpt lat="46.2368317" lon="12.488685"><ele>495.0</ele><time>2026-04-25T11:22:48.956Z</time></trkpt><trkpt lat="46.236635" lon="12.488655"><ele>495.0</ele><time>2026-04-25T11:22:49.956Z</time></trkpt><trkpt lat="46.2364367" lon="12.4886017"><ele>495.0</ele><time>2026-04-25T11:22:50.957Z</time></trkpt><trkpt lat="46.2362433" lon="12.4885533"><ele>491.66666666666663</ele><time>2026-04-25T11:22:51.957Z</time></trkpt><trkpt lat="46.2360617" lon="12.48852"><ele>488.3333333333333</ele><time>2026-04-25T11:22:52.958Z</time></trkpt><trkpt lat="46.2358867" lon="12.4884817"><ele>485.0</ele><time>2026-04-25T11:22:53.957Z</time></trkpt><trkpt lat="46.23571" lon="12.488455"><ele>483.0</ele><time>2026-04-25T11:22:54.956Z</time></trkpt><trkpt lat="46.2355283" lon="12.4884283"><ele>481.0</ele><time>2026-04-25T11:22:55.956Z</time></trkpt><trkpt lat="46.235345" lon="12.488415"><ele>479.0</ele><time>2026-04-25T11:22:56.956Z</time></trkpt><trkpt lat="46.2351567" lon="12.4884267"><ele>479.0</ele><time>2026-04-25T11:22:57.956Z</time></trkpt><trkpt lat="46.2349733" lon="12.4884617"><ele>479.0</ele><time>2026-04-25T11:22:58.954Z</time></trkpt><trkpt lat="46.2348" lon="12.4885167"><ele>479.0</ele><time>2026-04-25T11:22:59.955Z</time></trkpt><trkpt lat="46.2346383" lon="12.488575"><ele>479.3333333333333</ele><time>2026-04-25T11:23:00.955Z</time></trkpt><trkpt lat="46.2344783" lon="12.4886167"><ele>479.66666666666663</ele><time>2026-04-25T11:23:01.955Z</time></trkpt><trkpt lat="46.234315" lon="12.4886267"><ele>480.0</ele><time>2026-04-25T11:23:02.956Z</time></trkpt><trkpt lat="46.234155" lon="12.4885817"><ele>480.0</ele><time>2026-04-25T11:23:03.955Z</time></trkpt><trkpt lat="46.2339933" lon="12.4885"><ele>480.0</ele><time>2026-04-25T11:23:04.957Z</time></trkpt><trkpt lat="46.2338317" lon="12.4883867"><ele>480.0</ele><time>2026-04-25T11:23:05.956Z</time></trkpt><trkpt lat="46.2336683" lon="12.48826"><ele>477.66666666666663</ele><time>2026-04-25T11:23:06.956Z</time></trkpt><trkpt lat="46.2335017" lon="12.48814"><ele>475.3333333333333</ele><time>2026-04-25T11:23:07.955Z</time></trkpt><trkpt lat="46.2333367" lon="12.4880167"><ele>473.0</ele><time>2026-04-25T11:23:08.955Z</time></trkpt><trkpt lat="46.2331683" lon="12.4878933"><ele>474.0</ele><time>2026-04-25T11:23:09.954Z</time></trkpt><trkpt lat="46.233" lon="12.4877683"><ele>475.0</ele><time>2026-04-25T11:23:10.957Z</time></trkpt><trkpt lat="46.23283" lon="12.4876283"><ele>476.0</ele><time>2026-04-25T11:23:11.955Z</time></trkpt><trkpt lat="46.2326617" lon="12.4874783"><ele>476.0</ele><time>2026-04-25T11:23:12.955Z</time></trkpt><trkpt lat="46.232495" lon="12.4873067"><ele>476.0</ele><time>2026-04-25T11:23:13.955Z</time></trkpt><trkpt lat="46.232325" lon="12.48714"><ele>476.0</ele><time>2026-04-25T11:23:14.955Z</time></trkpt><trkpt lat="46.2321533" lon="12.48698"><ele>474.66666666666663</ele><time>2026-04-25T11:23:15.955Z</time></trkpt><trkpt lat="46.2319817" lon="12.4868167"><ele>473.33333333333337</ele><time>2026-04-25T11:23:16.955Z</time></trkpt><trkpt lat="46.23181" lon="12.4866517"><ele>472.0</ele><time>2026-04-25T11:23:17.956Z</time></trkpt><trkpt lat="46.2316383" lon="12.48648"><ele>473.33333333333337</ele><time>2026-04-25T11:23:18.956Z</time></trkpt><trkpt lat="46.231465" lon="12.4863033"><ele>474.66666666666663</ele><time>2026-04-25T11:23:19.955Z</time></trkpt><trkpt lat="46.2312933" lon="12.48613"><ele>476.0</ele><time>2026-04-25T11:23:20.955Z</time></trkpt><trkpt lat="46.23112" lon="12.48598"><ele>476.0</ele><time>2026-04-25T11:23:21.955Z</time></trkpt><trkpt lat="46.2309583" lon="12.4858383"><ele>476.0</ele><time>2026-04-25T11:23:22.957Z</time></trkpt><trkpt lat="46.23079" lon="12.4857167"><ele>476.0</ele><time>2026-04-25T11:23:23.955Z</time></trkpt><trkpt lat="46.2306133" lon="12.4856417"><ele>475.3333333333333</ele><time>2026-04-25T11:23:24.955Z</time></trkpt><trkpt lat="46.230425" lon="12.4856117"><ele>474.66666666666663</ele><time>2026-04-25T11:23:25.955Z</time></trkpt><trkpt lat="46.2302267" lon="12.485605"><ele>474.0</ele><time>2026-04-25T11:23:26.955Z</time></trkpt><trkpt lat="46.23002" lon="12.48564"><ele>474.0</ele><time>2026-04-25T11:23:27.955Z</time></trkpt><trkpt lat="46.2298167" lon="12.4857283"><ele>474.0</ele><time>2026-04-25T11:23:28.957Z</time></trkpt><trkpt lat="46.22962" lon="12.4858567"><ele>474.0</ele><time>2026-04-25T11:23:29.956Z</time></trkpt><trkpt lat="46.2294217" lon="12.4859867"><ele>476.5</ele><time>2026-04-25T11:23:30.955Z</time></trkpt><trkpt lat="46.2292183" lon="12.4861283"><ele>479.0</ele><time>2026-04-25T11:23:31.955Z</time></trkpt><trkpt lat="46.2290083" lon="12.4862533"><ele>472.0</ele><time>2026-04-25T11:23:32.955Z</time></trkpt><trkpt lat="46.2287933" lon="12.4863567"><ele>465.0</ele><time>2026-04-25T11:23:33.956Z</time></trkpt><trkpt lat="46.2285767" lon="12.48644"><ele>465.0</ele><time>2026-04-25T11:23:34.956Z</time></trkpt><trkpt lat="46.2283717" lon="12.4865033"><ele>465.0</ele><time>2026-04-25T11:23:35.955Z</time></trkpt><trkpt lat="46.2281767" lon="12.486555"><ele>465.0</ele><time>2026-04-25T11:23:36.956Z</time></trkpt><trkpt lat="46.2279883" lon="12.4865917"><ele>468.33333333333337</ele><time>2026-04-25T11:23:37.955Z</time></trkpt><trkpt lat="46.22781" lon="12.4865917"><ele>471.6666666666667</ele><time>2026-04-25T11:23:38.958Z</time></trkpt><trkpt lat="46.2276383" lon="12.4865917"><ele>475.0</ele><time>2026-04-25T11:23:39.955Z</time></trkpt><trkpt lat="46.2274617" lon="12.4866383"><ele>488.6666666666667</ele><time>2026-04-25T11:23:40.956Z</time></trkpt><trkpt lat="46.2272833" lon="12.486745"><ele>502.33333333333337</ele><time>2026-04-25T11:23:41.955Z</time></trkpt><trkpt lat="46.22711" lon="12.48688"><ele>516.0</ele><time>2026-04-25T11:23:42.955Z</time></trkpt><trkpt lat="46.2269267" lon="12.487035"><ele>514.3333333333334</ele><time>2026-04-25T11:23:43.955Z</time></trkpt><trkpt lat="46.2267417" lon="12.4871933"><ele>512.6666666666667</ele><time>2026-04-25T11:23:44.955Z</time></trkpt><trkpt lat="46.2265633" lon="12.4873667"><ele>511.0</ele><time>2026-04-25T11:23:45.955Z</time></trkpt><trkpt lat="46.226395" lon="12.487555"><ele>511.0</ele><time>2026-04-25T11:23:46.956Z</time></trkpt><trkpt lat="46.2262333" lon="12.48776"><ele>511.0</ele><time>2026-04-25T11:23:47.955Z</time></trkpt><trkpt lat="46.2260783" lon="12.487975"><ele>511.0</ele><time>2026-04-25T11:23:48.956Z</time></trkpt><trkpt lat="46.225925" lon="12.4882"><ele>519.0</ele><time>2026-04-25T11:23:49.955Z</time></trkpt><trkpt lat="46.2257717" lon="12.4884267"><ele>527.0</ele><time>2026-04-25T11:23:50.955Z</time></trkpt><trkpt lat="46.2256133" lon="12.4886683"><ele>511.3333333333333</ele><time>2026-04-25T11:23:51.956Z</time></trkpt><trkpt lat="46.2254683" lon="12.48891"><ele>495.66666666666663</ele><time>2026-04-25T11:23:52.957Z</time></trkpt><trkpt lat="46.2253067" lon="12.4891317"><ele>480.0</ele><time>2026-04-25T11:23:53.955Z</time></trkpt><trkpt lat="46.2251417" lon="12.4893467"><ele>480.0</ele><time>2026-04-25T11:23:54.955Z</time></trkpt><trkpt lat="46.224985" lon="12.4895683"><ele>480.0</ele><time>2026-04-25T11:23:55.955Z</time></trkpt><trkpt lat="46.2248167" lon="12.489775"><ele>480.0</ele><time>2026-04-25T11:23:56.956Z</time></trkpt><trkpt lat="46.2246233" lon="12.48994"><ele>481.0</ele><time>2026-04-25T11:23:57.956Z</time></trkpt><trkpt lat="46.2244517" lon="12.49015"><ele>482.0</ele><time>2026-04-25T11:23:58.956Z</time></trkpt><trkpt lat="46.2242567" lon="12.490295"><ele>483.0</ele><time>2026-04-25T11:23:59.955Z</time></trkpt><trkpt lat="46.22408" lon="12.4904917"><ele>487.66666666666663</ele><time>2026-04-25T11:24:00.956Z</time></trkpt><trkpt lat="46.2239083" lon="12.4906783"><ele>492.3333333333333</ele><time>2026-04-25T11:24:01.956Z</time></trkpt><trkpt lat="46.2237417" lon="12.49086"><ele>497.0</ele><time>2026-04-25T11:24:02.956Z</time></trkpt><trkpt lat="46.2235567" lon="12.4910267"><ele>497.0</ele><time>2026-04-25T11:24:03.954Z</time></trkpt><trkpt lat="46.2233617" lon="12.4911983"><ele>497.0</ele><time>2026-04-25T11:24:04.956Z</time></trkpt><trkpt lat="46.2231583" lon="12.491375"><ele>490.0</ele><time>2026-04-25T11:24:05.955Z</time></trkpt><trkpt lat="46.222965" lon="12.4915633"><ele>483.0</ele><time>2026-04-25T11:24:06.958Z</time></trkpt><trkpt lat="46.22275" lon="12.49174"><ele>483.0</ele><time>2026-04-25T11:24:07.956Z</time></trkpt><trkpt lat="46.2225383" lon="12.4919033"><ele>483.0</ele><time>2026-04-25T11:24:08.955Z</time></trkpt><trkpt lat="46.2223233" lon="12.4920417"><ele>476.0</ele><time>2026-04-25T11:24:09.957Z</time></trkpt><trkpt lat="46.2220983" lon="12.4923833"><ele>469.0</ele><time>2026-04-25T11:24:10.957Z</time></trkpt><trkpt lat="46.2218967" lon="12.49254"><ele>469.0</ele><time>2026-04-25T11:24:11.956Z</time></trkpt><trkpt lat="46.2216917" lon="12.492685"><ele>469.0</ele><time>2026-04-25T11:24:12.955Z</time></trkpt><trkpt lat="46.2214833" lon="12.4928233"><ele>463.0</ele><time>2026-04-25T11:24:13.955Z</time></trkpt><trkpt lat="46.2212733" lon="12.4929483"><ele>457.0</ele><time>2026-04-25T11:24:14.956Z</time></trkpt><trkpt lat="46.2210617" lon="12.49308"><ele>457.0</ele><time>2026-04-25T11:24:15.956Z</time></trkpt><trkpt lat="46.2208617" lon="12.4932267"><ele>457.0</ele><time>2026-04-25T11:24:16.957Z</time></trkpt><trkpt lat="46.2206717" lon="12.4934067"><ele>456.0</ele><time>2026-04-25T11:24:17.956Z</time></trkpt><trkpt lat="46.2204917" lon="12.4936117"><ele>455.0</ele><time>2026-04-25T11:24:18.957Z</time></trkpt><trkpt lat="46.220315" lon="12.4938217"><ele>455.0</ele><time>2026-04-25T11:24:19.957Z</time></trkpt><trkpt lat="46.22014" lon="12.4940383"><ele>455.0</ele><time>2026-04-25T11:24:20.956Z</time></trkpt><trkpt lat="46.2199667" lon="12.4942417"><ele>456.66666666666663</ele><time>2026-04-25T11:24:21.955Z</time></trkpt><trkpt lat="46.2197933" lon="12.4944333"><ele>458.33333333333337</ele><time>2026-04-25T11:24:22.956Z</time></trkpt><trkpt lat="46.2196233" lon="12.4946067"><ele>460.0</ele><time>2026-04-25T11:24:23.956Z</time></trkpt><trkpt lat="46.2194617" lon="12.4948033"><ele>460.0</ele><time>2026-04-25T11:24:24.956Z</time></trkpt><trkpt lat="46.2193167" lon="12.49503"><ele>460.0</ele><time>2026-04-25T11:24:25.956Z</time></trkpt><trkpt lat="46.21918" lon="12.49527"><ele>460.0</ele><time>2026-04-25T11:24:26.955Z</time></trkpt><trkpt lat="46.2190433" lon="12.4955083"><ele>463.33333333333337</ele><time>2026-04-25T11:24:27.956Z</time></trkpt><trkpt lat="46.218905" lon="12.4957483"><ele>466.66666666666663</ele><time>2026-04-25T11:24:28.955Z</time></trkpt><trkpt lat="46.2187633" lon="12.495975"><ele>470.0</ele><time>2026-04-25T11:24:29.955Z</time></trkpt><trkpt lat="46.2186183" lon="12.4961817"><ele>463.66666666666663</ele><time>2026-04-25T11:24:30.956Z</time></trkpt><trkpt lat="46.2184733" lon="12.496375"><ele>457.33333333333337</ele><time>2026-04-25T11:24:31.955Z</time></trkpt><trkpt lat="46.2183383" lon="12.4965667"><ele>451.0</ele><time>2026-04-25T11:24:32.955Z</time></trkpt><trkpt lat="46.2182167" lon="12.496765"><ele>461.6666666666667</ele><time>2026-04-25T11:24:33.955Z</time></trkpt><trkpt lat="46.2181117" lon="12.4969733"><ele>472.33333333333337</ele><time>2026-04-25T11:24:34.956Z</time></trkpt><trkpt lat="46.218025" lon="12.4971917"><ele>483.0</ele><time>2026-04-25T11:24:35.955Z</time></trkpt><trkpt lat="46.2179467" lon="12.4974217"><ele>483.0</ele><time>2026-04-25T11:24:36.955Z</time></trkpt><trkpt lat="46.2178867" lon="12.4976717"><ele>483.0</ele><time>2026-04-25T11:24:37.955Z</time></trkpt><trkpt lat="46.2178367" lon="12.4979283"><ele>483.0</ele><time>2026-04-25T11:24:38.955Z</time></trkpt><trkpt lat="46.2177833" lon="12.4981933"><ele>478.66666666666663</ele><time>2026-04-25T11:24:39.955Z</time></trkpt><trkpt lat="46.21772" lon="12.4984633"><ele>474.3333333333333</ele><time>2026-04-25T11:24:40.956Z</time></trkpt><trkpt lat="46.2176467" lon="12.4987267"><ele>470.0</ele><time>2026-04-25T11:24:41.954Z</time></trkpt><trkpt lat="46.21756" lon="12.4989883"><ele>473.3333333333333</ele><time>2026-04-25T11:24:42.956Z</time></trkpt><trkpt lat="46.217465" lon="12.4992533"><ele>476.66666666666663</ele><time>2026-04-25T11:24:43.955Z</time></trkpt><trkpt lat="46.21736" lon="12.4995133"><ele>480.0</ele><time>2026-04-25T11:24:44.956Z</time></trkpt><trkpt lat="46.2172467" lon="12.4997733"><ele>480.0</ele><time>2026-04-25T11:24:45.956Z</time></trkpt><trkpt lat="46.2171233" lon="12.5000267"><ele>480.0</ele><time>2026-04-25T11:24:46.957Z</time></trkpt><trkpt lat="46.21699" lon="12.5002767"><ele>480.0</ele><time>2026-04-25T11:24:47.955Z</time></trkpt><trkpt lat="46.2168517" lon="12.5005233"><ele>480.33333333333337</ele><time>2026-04-25T11:24:48.956Z</time></trkpt><trkpt lat="46.2167117" lon="12.5007667"><ele>480.6666666666667</ele><time>2026-04-25T11:24:49.955Z</time></trkpt><trkpt lat="46.2165717" lon="12.5010117"><ele>481.0</ele><time>2026-04-25T11:24:50.955Z</time></trkpt><trkpt lat="46.216435" lon="12.501255"><ele>481.0</ele><time>2026-04-25T11:24:51.956Z</time></trkpt><trkpt lat="46.2163033" lon="12.5015033"><ele>481.0</ele><time>2026-04-25T11:24:52.957Z</time></trkpt><trkpt lat="46.21618" lon="12.5017667"><ele>481.0</ele><time>2026-04-25T11:24:53.956Z</time></trkpt><trkpt lat="46.2160617" lon="12.5020367"><ele>475.0</ele><time>2026-04-25T11:24:54.955Z</time></trkpt><trkpt lat="46.21595" lon="12.5023183"><ele>469.0</ele><time>2026-04-25T11:24:55.955Z</time></trkpt><trkpt lat="46.2158583" lon="12.50261"><ele>463.0</ele><time>2026-04-25T11:24:56.954Z</time></trkpt><trkpt lat="46.21578" lon="12.5029033"><ele>459.6666666666667</ele><time>2026-04-25T11:24:57.955Z</time></trkpt><trkpt lat="46.2157" lon="12.5031983"><ele>456.33333333333337</ele><time>2026-04-25T11:24:58.955Z</time></trkpt><trkpt lat="46.2156217" lon="12.5034933"><ele>453.0</ele><time>2026-04-25T11:24:59.955Z</time></trkpt><trkpt lat="46.2155517" lon="12.5037983"><ele>464.0</ele><time>2026-04-25T11:25:00.956Z</time></trkpt><trkpt lat="46.2154917" lon="12.50411"><ele>475.0</ele><time>2026-04-25T11:25:01.955Z</time></trkpt><trkpt lat="46.2154383" lon="12.5044217"><ele>486.0</ele><time>2026-04-25T11:25:02.955Z</time></trkpt><trkpt lat="46.2153883" lon="12.5047333"><ele>486.0</ele><time>2026-04-25T11:25:03.956Z</time></trkpt><trkpt lat="46.2153333" lon="12.5050467"><ele>486.0</ele><time>2026-04-25T11:25:04.957Z</time></trkpt><trkpt lat="46.2152717" lon="12.5053467"><ele>486.0</ele><time>2026-04-25T11:25:05.955Z</time></trkpt><trkpt lat="46.2152117" lon="12.5056283"><ele>480.33333333333337</ele><time>2026-04-25T11:25:06.956Z</time></trkpt><trkpt lat="46.2151533" lon="12.505905"><ele>474.6666666666667</ele><time>2026-04-25T11:25:07.956Z</time></trkpt><trkpt lat="46.21509" lon="12.5061767"><ele>469.0</ele><time>2026-04-25T11:25:08.954Z</time></trkpt><trkpt lat="46.21501" lon="12.5064433"><ele>463.33333333333337</ele><time>2026-04-25T11:25:09.955Z</time></trkpt><trkpt lat="46.2149283" lon="12.5067133"><ele>457.66666666666663</ele><time>2026-04-25T11:25:10.956Z</time></trkpt><trkpt lat="46.214835" lon="12.5069833"><ele>452.0</ele><time>2026-04-25T11:25:11.954Z</time></trkpt><trkpt lat="46.21473" lon="12.5072567"><ele>453.66666666666663</ele><time>2026-04-25T11:25:12.956Z</time></trkpt><trkpt lat="46.2146217" lon="12.50753"><ele>455.33333333333337</ele><time>2026-04-25T11:25:13.955Z</time></trkpt><trkpt lat="46.2145" lon="12.50779"><ele>457.0</ele><time>2026-04-25T11:25:14.955Z</time></trkpt><trkpt lat="46.2143767" lon="12.5080467"><ele>457.0</ele><time>2026-04-25T11:25:15.956Z</time></trkpt><trkpt lat="46.2142383" lon="12.5082967"><ele>457.0</ele><time>2026-04-25T11:25:16.956Z</time></trkpt><trkpt lat="46.2141017" lon="12.5085517"><ele>457.0</ele><time>2026-04-25T11:25:17.955Z</time></trkpt><trkpt lat="46.2139633" lon="12.5087967"><ele>460.33333333333337</ele><time>2026-04-25T11:25:18.956Z</time></trkpt><trkpt lat="46.21383" lon="12.509035"><ele>463.66666666666663</ele><time>2026-04-25T11:25:19.956Z</time></trkpt><trkpt lat="46.2137083" lon="12.5092667"><ele>467.0</ele><time>2026-04-25T11:25:20.955Z</time></trkpt><trkpt lat="46.2135933" lon="12.50949"><ele>460.0</ele><time>2026-04-25T11:25:21.956Z</time></trkpt><trkpt lat="46.2134883" lon="12.5097067"><ele>453.0</ele><time>2026-04-25T11:25:22.955Z</time></trkpt><trkpt lat="46.213385" lon="12.50991"><ele>446.0</ele><time>2026-04-25T11:25:23.955Z</time></trkpt><trkpt lat="46.2132717" lon="12.5100967"><ele>445.3333333333333</ele><time>2026-04-25T11:25:24.955Z</time></trkpt><trkpt lat="46.213135" lon="12.51027"><ele>444.66666666666663</ele><time>2026-04-25T11:25:25.957Z</time></trkpt><trkpt lat="46.21299" lon="12.5104383"><ele>444.0</ele><time>2026-04-25T11:25:26.96Z</time></trkpt><trkpt lat="46.212845" lon="12.5106"><ele>441.0</ele><time>2026-04-25T11:25:27.956Z</time></trkpt><trkpt lat="46.2127033" lon="12.5107467"><ele>438.0</ele><time>2026-04-25T11:25:28.956Z</time></trkpt><trkpt lat="46.2125767" lon="12.5108833"><ele>435.0</ele><time>2026-04-25T11:25:29.954Z</time></trkpt><trkpt lat="46.21246" lon="12.5109967"><ele>435.0</ele><time>2026-04-25T11:25:30.955Z</time></trkpt><trkpt lat="46.2123367" lon="12.5110867"><ele>435.0</ele><time>2026-04-25T11:25:31.955Z</time></trkpt><trkpt lat="46.2122117" lon="12.5111433"><ele>435.0</ele><time>2026-04-25T11:25:32.955Z</time></trkpt><trkpt lat="46.2120733" lon="12.5111467"><ele>435.0</ele><time>2026-04-25T11:25:33.956Z</time></trkpt><trkpt lat="46.2119267" lon="12.5110933"><ele>438.33333333333337</ele><time>2026-04-25T11:25:34.956Z</time></trkpt><trkpt lat="46.2117983" lon="12.5109483"><ele>441.6666666666667</ele><time>2026-04-25T11:25:35.957Z</time></trkpt><trkpt lat="46.211685" lon="12.5107383"><ele>445.0</ele><time>2026-04-25T11:25:36.955Z</time></trkpt><trkpt lat="46.211555" lon="12.5105183"><ele>448.6666666666667</ele><time>2026-04-25T11:25:37.956Z</time></trkpt><trkpt lat="46.2114083" lon="12.5103067"><ele>452.33333333333337</ele><time>2026-04-25T11:25:38.955Z</time></trkpt><trkpt lat="46.21125" lon="12.5100967"><ele>456.0</ele><time>2026-04-25T11:25:39.956Z</time></trkpt><trkpt lat="46.2110883" lon="12.5098917"><ele>456.0</ele><time>2026-04-25T11:25:40.955Z</time></trkpt><trkpt lat="46.21093" lon="12.5096967"><ele>456.0</ele><time>2026-04-25T11:25:41.955Z</time></trkpt><trkpt lat="46.210785" lon="12.5095117"><ele>456.0</ele><time>2026-04-25T11:25:42.955Z</time></trkpt><trkpt lat="46.210645" lon="12.50934"><ele>449.66666666666663</ele><time>2026-04-25T11:25:43.955Z</time></trkpt><trkpt lat="46.2105083" lon="12.5091917"><ele>443.3333333333333</ele><time>2026-04-25T11:25:44.955Z</time></trkpt><trkpt lat="46.2103667" lon="12.5090767"><ele>437.0</ele><time>2026-04-25T11:25:45.956Z</time></trkpt><trkpt lat="46.21021" lon="12.5090233"><ele>437.0</ele><time>2026-04-25T11:25:46.956Z</time></trkpt><trkpt lat="46.2100517" lon="12.50903"><ele>437.0</ele><time>2026-04-25T11:25:47.956Z</time></trkpt><trkpt lat="46.2099033" lon="12.509095"><ele>437.0</ele><time>2026-04-25T11:25:48.955Z</time></trkpt><trkpt lat="46.20977" lon="12.5092367"><ele>436.0</ele><time>2026-04-25T11:25:49.956Z</time></trkpt><trkpt lat="46.2096533" lon="12.5094333"><ele>435.0</ele><time>2026-04-25T11:25:50.955Z</time></trkpt><trkpt lat="46.2095233" lon="12.509625"><ele>434.0</ele><time>2026-04-25T11:25:51.956Z</time></trkpt><trkpt lat="46.2093833" lon="12.5097917"><ele>437.3333333333333</ele><time>2026-04-25T11:25:52.956Z</time></trkpt><trkpt lat="46.2092283" lon="12.5099517"><ele>440.66666666666663</ele><time>2026-04-25T11:25:53.956Z</time></trkpt><trkpt lat="46.2090717" lon="12.51012"><ele>444.0</ele><time>2026-04-25T11:25:54.954Z</time></trkpt><trkpt lat="46.208925" lon="12.5102983"><ele>442.33333333333337</ele><time>2026-04-25T11:25:55.955Z</time></trkpt><trkpt lat="46.2087883" lon="12.5104917"><ele>440.6666666666667</ele><time>2026-04-25T11:25:56.955Z</time></trkpt><trkpt lat="46.2086567" lon="12.5106917"><ele>439.0</ele><time>2026-04-25T11:25:57.955Z</time></trkpt><trkpt lat="46.20854" lon="12.5109067"><ele>439.0</ele><time>2026-04-25T11:25:58.958Z</time></trkpt><trkpt lat="46.2084267" lon="12.5111383"><ele>439.0</ele><time>2026-04-25T11:25:59.956Z</time></trkpt><trkpt lat="46.2083" lon="12.51136"><ele>439.0</ele><time>2026-04-25T11:26:00.955Z</time></trkpt><trkpt lat="46.2081583" lon="12.5115667"><ele>438.33333333333337</ele><time>2026-04-25T11:26:01.956Z</time></trkpt><trkpt lat="46.207995" lon="12.5117617"><ele>437.66666666666663</ele><time>2026-04-25T11:26:02.955Z</time></trkpt><trkpt lat="46.2078233" lon="12.5119483"><ele>437.0</ele><time>2026-04-25T11:26:03.956Z</time></trkpt><trkpt lat="46.207645" lon="12.5121283"><ele>436.0</ele><time>2026-04-25T11:26:04.956Z</time></trkpt><trkpt lat="46.207455" lon="12.512295"><ele>435.0</ele><time>2026-04-25T11:26:05.956Z</time></trkpt><trkpt lat="46.2072567" lon="12.51245"><ele>434.0</ele><time>2026-04-25T11:26:06.955Z</time></trkpt><trkpt lat="46.2070567" lon="12.5125983"><ele>434.0</ele><time>2026-04-25T11:26:07.956Z</time></trkpt><trkpt lat="46.2068533" lon="12.512735"><ele>434.0</ele><time>2026-04-25T11:26:08.955Z</time></trkpt><trkpt lat="46.2066417" lon="12.5128583"><ele>442.5</ele><time>2026-04-25T11:26:09.956Z</time></trkpt><trkpt lat="46.2064217" lon="12.512965"><ele>451.0</ele><time>2026-04-25T11:26:10.956Z</time></trkpt><trkpt lat="46.2061967" lon="12.5130667"><ele>451.0</ele><time>2026-04-25T11:26:11.954Z</time></trkpt><trkpt lat="46.2059633" lon="12.5131533"><ele>451.0</ele><time>2026-04-25T11:26:12.956Z</time></trkpt><trkpt lat="46.205745" lon="12.5132567"><ele>450.33333333333337</ele><time>2026-04-25T11:26:13.956Z</time></trkpt><trkpt lat="46.205535" lon="12.5133767"><ele>449.66666666666663</ele><time>2026-04-25T11:26:14.956Z</time></trkpt><trkpt lat="46.205345" lon="12.5135033"><ele>449.0</ele><time>2026-04-25T11:26:15.957Z</time></trkpt><trkpt lat="46.2051683" lon="12.5136217"><ele>455.66666666666663</ele><time>2026-04-25T11:26:16.956Z</time></trkpt><trkpt lat="46.2049917" lon="12.5137483"><ele>462.33333333333337</ele><time>2026-04-25T11:26:17.955Z</time></trkpt><trkpt lat="46.204815" lon="12.5138883"><ele>469.0</ele><time>2026-04-25T11:26:18.956Z</time></trkpt><trkpt lat="46.20464" lon="12.5140467"><ele>455.6666666666667</ele><time>2026-04-25T11:26:19.956Z</time></trkpt><trkpt lat="46.2044683" lon="12.5142"><ele>442.33333333333337</ele><time>2026-04-25T11:26:20.955Z</time></trkpt><trkpt lat="46.204305" lon="12.5143583"><ele>429.0</ele><time>2026-04-25T11:26:21.957Z</time></trkpt><trkpt lat="46.20414" lon="12.5145283"><ele>429.33333333333337</ele><time>2026-04-25T11:26:22.956Z</time></trkpt><trkpt lat="46.2039817" lon="12.5147267"><ele>429.6666666666667</ele><time>2026-04-25T11:26:23.956Z</time></trkpt><trkpt lat="46.2038367" lon="12.5149533"><ele>430.0</ele><time>2026-04-25T11:26:24.955Z</time></trkpt><trkpt lat="46.2036883" lon="12.5151883"><ele>430.0</ele><time>2026-04-25T11:26:25.955Z</time></trkpt><trkpt lat="46.20353" lon="12.5154017"><ele>430.0</ele><time>2026-04-25T11:26:26.957Z</time></trkpt><trkpt lat="46.2033717" lon="12.515585"><ele>430.0</ele><time>2026-04-25T11:26:27.956Z</time></trkpt><trkpt lat="46.203215" lon="12.5157417"><ele>427.0</ele><time>2026-04-25T11:26:28.956Z</time></trkpt><trkpt lat="46.20306" lon="12.5158783"><ele>424.0</ele><time>2026-04-25T11:26:29.957Z</time></trkpt><trkpt lat="46.20292" lon="12.5160283"><ele>421.0</ele><time>2026-04-25T11:26:30.955Z</time></trkpt><trkpt lat="46.2027933" lon="12.5162217"><ele>427.6666666666667</ele><time>2026-04-25T11:26:31.956Z</time></trkpt><trkpt lat="46.2026767" lon="12.5164467"><ele>434.33333333333337</ele><time>2026-04-25T11:26:32.954Z</time></trkpt><trkpt lat="46.2025433" lon="12.5166783"><ele>441.0</ele><time>2026-04-25T11:26:33.955Z</time></trkpt><trkpt lat="46.2023933" lon="12.51689"><ele>437.0</ele><time>2026-04-25T11:26:34.956Z</time></trkpt><trkpt lat="46.20223" lon="12.5171017"><ele>433.0</ele><time>2026-04-25T11:26:35.956Z</time></trkpt><trkpt lat="46.2020833" lon="12.5173383"><ele>429.0</ele><time>2026-04-25T11:26:36.955Z</time></trkpt><trkpt lat="46.2019483" lon="12.5175967"><ele>429.0</ele><time>2026-04-25T11:26:37.955Z</time></trkpt><trkpt lat="46.2018233" lon="12.517875"><ele>429.0</ele><time>2026-04-25T11:26:38.956Z</time></trkpt><trkpt lat="46.2016983" lon="12.5181483"><ele>427.33333333333337</ele><time>2026-04-25T11:26:39.956Z</time></trkpt><trkpt lat="46.201575" lon="12.5184083"><ele>425.6666666666667</ele><time>2026-04-25T11:26:40.957Z</time></trkpt><trkpt lat="46.20146" lon="12.5186633"><ele>424.0</ele><time>2026-04-25T11:26:41.956Z</time></trkpt><trkpt lat="46.201335" lon="12.518905"><ele>424.0</ele><time>2026-04-25T11:26:42.955Z</time></trkpt><trkpt lat="46.2012133" lon="12.5191417"><ele>424.0</ele><time>2026-04-25T11:26:43.958Z</time></trkpt><trkpt lat="46.2010967" lon="12.5193683"><ele>424.0</ele><time>2026-04-25T11:26:44.954Z</time></trkpt><trkpt lat="46.2009867" lon="12.5195917"><ele>427.0</ele><time>2026-04-25T11:26:45.955Z</time></trkpt><trkpt lat="46.200905" lon="12.5198267"><ele>430.0</ele><time>2026-04-25T11:26:46.956Z</time></trkpt><trkpt lat="46.200845" lon="12.5200633"><ele>433.0</ele><time>2026-04-25T11:26:47.954Z</time></trkpt><trkpt lat="46.200795" lon="12.5203017"><ele>435.6666666666667</ele><time>2026-04-25T11:26:48.956Z</time></trkpt><trkpt lat="46.200745" lon="12.520535"><ele>438.33333333333337</ele><time>2026-04-25T11:26:49.957Z</time></trkpt><trkpt lat="46.2006967" lon="12.5207717"><ele>441.0</ele><time>2026-04-25T11:26:50.956Z</time></trkpt><trkpt lat="46.2006467" lon="12.5210033"><ele>434.33333333333337</ele><time>2026-04-25T11:26:51.956Z</time></trkpt><trkpt lat="46.200595" lon="12.5212267"><ele>427.6666666666667</ele><time>2026-04-25T11:26:52.955Z</time></trkpt><trkpt lat="46.2005417" lon="12.5214483"><ele>421.0</ele><time>2026-04-25T11:26:53.956Z</time></trkpt><trkpt lat="46.20049" lon="12.5216733"><ele>421.0</ele><time>2026-04-25T11:26:54.956Z</time></trkpt><trkpt lat="46.20044" lon="12.5219067"><ele>421.0</ele><time>2026-04-25T11:26:55.956Z</time></trkpt><trkpt lat="46.2003917" lon="12.5221417"><ele>421.0</ele><time>2026-04-25T11:26:56.956Z</time></trkpt><trkpt lat="46.200345" lon="12.5223767"><ele>423.0</ele><time>2026-04-25T11:26:57.956Z</time></trkpt><trkpt lat="46.200305" lon="12.5226067"><ele>425.0</ele><time>2026-04-25T11:26:58.956Z</time></trkpt><trkpt lat="46.2002767" lon="12.5228317"><ele>427.0</ele><time>2026-04-25T11:26:59.955Z</time></trkpt><trkpt lat="46.2002517" lon="12.5230617"><ele>427.6666666666667</ele><time>2026-04-25T11:27:00.954Z</time></trkpt><trkpt lat="46.2002283" lon="12.5233"><ele>428.33333333333337</ele><time>2026-04-25T11:27:01.955Z</time></trkpt><trkpt lat="46.2002033" lon="12.5235383"><ele>429.0</ele><time>2026-04-25T11:27:02.956Z</time></trkpt><trkpt lat="46.200175" lon="12.5237717"><ele>429.0</ele><time>2026-04-25T11:27:03.955Z</time></trkpt><trkpt lat="46.2001433" lon="12.5239967"><ele>429.0</ele><time>2026-04-25T11:27:04.956Z</time></trkpt><trkpt lat="46.2001067" lon="12.5242117"><ele>429.0</ele><time>2026-04-25T11:27:05.959Z</time></trkpt><trkpt lat="46.200065" lon="12.52442"><ele>430.33333333333337</ele><time>2026-04-25T11:27:06.956Z</time></trkpt><trkpt lat="46.2000117" lon="12.52463"><ele>431.6666666666667</ele><time>2026-04-25T11:27:07.955Z</time></trkpt><trkpt lat="46.1999583" lon="12.524845"><ele>433.0</ele><time>2026-04-25T11:27:08.954Z</time></trkpt><trkpt lat="46.1998883" lon="12.5250433"><ele>429.6666666666667</ele><time>2026-04-25T11:27:09.955Z</time></trkpt><trkpt lat="46.1997833" lon="12.525225"><ele>426.33333333333337</ele><time>2026-04-25T11:27:10.956Z</time></trkpt><trkpt lat="46.1996533" lon="12.5253767"><ele>423.0</ele><time>2026-04-25T11:27:11.956Z</time></trkpt><trkpt lat="46.19952" lon="12.5255117"><ele>423.0</ele><time>2026-04-25T11:27:12.956Z</time></trkpt><trkpt lat="46.1994033" lon="12.52565"><ele>423.0</ele><time>2026-04-25T11:27:13.956Z</time></trkpt><trkpt lat="46.1993083" lon="12.5258133"><ele>423.0</ele><time>2026-04-25T11:27:14.955Z</time></trkpt><trkpt lat="46.1992517" lon="12.5260133"><ele>423.0</ele><time>2026-04-25T11:27:15.956Z</time></trkpt><trkpt lat="46.1992317" lon="12.5262383"><ele>421.66666666666663</ele><time>2026-04-25T11:27:16.956Z</time></trkpt><trkpt lat="46.19925" lon="12.526475"><ele>420.3333333333333</ele><time>2026-04-25T11:27:17.954Z</time></trkpt><trkpt lat="46.1992917" lon="12.5267317"><ele>419.0</ele><time>2026-04-25T11:27:18.955Z</time></trkpt><trkpt lat="46.1993467" lon="12.5270017"><ele>418.3333333333333</ele><time>2026-04-25T11:27:19.956Z</time></trkpt><trkpt lat="46.19938" lon="12.52729"><ele>417.66666666666663</ele><time>2026-04-25T11:27:20.955Z</time></trkpt><trkpt lat="46.1993917" lon="12.52759"><ele>417.0</ele><time>2026-04-25T11:27:21.956Z</time></trkpt><trkpt lat="46.1993833" lon="12.5278917"><ele>418.66666666666663</ele><time>2026-04-25T11:27:22.956Z</time></trkpt><trkpt lat="46.1993733" lon="12.52819"><ele>420.3333333333333</ele><time>2026-04-25T11:27:23.955Z</time></trkpt><trkpt lat="46.1993617" lon="12.5284883"><ele>422.0</ele><time>2026-04-25T11:27:24.956Z</time></trkpt><trkpt lat="46.1993567" lon="12.5287783"><ele>422.0</ele><time>2026-04-25T11:27:25.955Z</time></trkpt><trkpt lat="46.1993533" lon="12.5290567"><ele>422.0</ele><time>2026-04-25T11:27:26.955Z</time></trkpt><trkpt lat="46.1993517" lon="12.529325"><ele>422.0</ele><time>2026-04-25T11:27:27.954Z</time></trkpt><trkpt lat="46.1993417" lon="12.5295917"><ele>422.0</ele><time>2026-04-25T11:27:28.956Z</time></trkpt><trkpt lat="46.1993183" lon="12.529855"><ele>422.0</ele><time>2026-04-25T11:27:29.954Z</time></trkpt><trkpt lat="46.1992867" lon="12.5301167"><ele>422.0</ele><time>2026-04-25T11:27:30.955Z</time></trkpt><trkpt lat="46.19925" lon="12.5303717"><ele>421.3333333333333</ele><time>2026-04-25T11:27:31.955Z</time></trkpt><trkpt lat="46.1992017" lon="12.53062"><ele>420.66666666666663</ele><time>2026-04-25T11:27:32.954Z</time></trkpt><trkpt lat="46.1991383" lon="12.53086"><ele>420.0</ele><time>2026-04-25T11:27:33.955Z</time></trkpt><trkpt lat="46.1990567" lon="12.53108"><ele>420.0</ele><time>2026-04-25T11:27:34.955Z</time></trkpt><trkpt lat="46.1989533" lon="12.5312833"><ele>420.0</ele><time>2026-04-25T11:27:35.954Z</time></trkpt><trkpt lat="46.19883" lon="12.5314667"><ele>420.0</ele><time>2026-04-25T11:27:36.954Z</time></trkpt><trkpt lat="46.1986983" lon="12.5316367"><ele>420.0</ele><time>2026-04-25T11:27:37.955Z</time></trkpt><trkpt lat="46.1985567" lon="12.5318"><ele>420.0</ele><time>2026-04-25T11:27:38.955Z</time></trkpt><trkpt lat="46.19841" lon="12.5319617"><ele>420.0</ele><time>2026-04-25T11:27:39.955Z</time></trkpt><trkpt lat="46.19826" lon="12.532115"><ele>416.0</ele><time>2026-04-25T11:27:40.955Z</time></trkpt><trkpt lat="46.1981017" lon="12.5322517"><ele>412.0</ele><time>2026-04-25T11:27:41.954Z</time></trkpt><trkpt lat="46.19794" lon="12.5323783"><ele>408.0</ele><time>2026-04-25T11:27:42.954Z</time></trkpt><trkpt lat="46.1977733" lon="12.5324967"><ele>408.0</ele><time>2026-04-25T11:27:43.955Z</time></trkpt><trkpt lat="46.1976067" lon="12.532615"><ele>408.0</ele><time>2026-04-25T11:27:44.955Z</time></trkpt><trkpt lat="46.1974367" lon="12.5327383"><ele>408.0</ele><time>2026-04-25T11:27:45.955Z</time></trkpt><trkpt lat="46.1972683" lon="12.5328667"><ele>410.33333333333337</ele><time>2026-04-25T11:27:46.955Z</time></trkpt><trkpt lat="46.1971" lon="12.5330083"><ele>412.6666666666667</ele><time>2026-04-25T11:27:47.955Z</time></trkpt><trkpt lat="46.1969383" lon="12.5331733"><ele>415.0</ele><time>2026-04-25T11:27:48.954Z</time></trkpt><trkpt lat="46.1967833" lon="12.5333567"><ele>415.0</ele><time>2026-04-25T11:27:49.955Z</time></trkpt><trkpt lat="46.1966433" lon="12.5335683"><ele>415.0</ele><time>2026-04-25T11:27:50.954Z</time></trkpt><trkpt lat="46.1965283" lon="12.53381"><ele>415.0</ele><time>2026-04-25T11:27:51.955Z</time></trkpt><trkpt lat="46.1964383" lon="12.5340917"><ele>415.6666666666667</ele><time>2026-04-25T11:27:52.955Z</time></trkpt><trkpt lat="46.1963617" lon="12.5343883"><ele>416.33333333333337</ele><time>2026-04-25T11:27:53.954Z</time></trkpt><trkpt lat="46.19629" lon="12.5346983"><ele>417.0</ele><time>2026-04-25T11:27:54.954Z</time></trkpt><trkpt lat="46.1962267" lon="12.5350167"><ele>417.0</ele><time>2026-04-25T11:27:55.954Z</time></trkpt><trkpt lat="46.1961683" lon="12.5353317"><ele>417.0</ele><time>2026-04-25T11:27:56.954Z</time></trkpt><trkpt lat="46.1961167" lon="12.535635"><ele>417.0</ele><time>2026-04-25T11:27:57.955Z</time></trkpt><trkpt lat="46.1960667" lon="12.5359183"><ele>416.66666666666663</ele><time>2026-04-25T11:27:58.955Z</time></trkpt><trkpt lat="46.1960167" lon="12.5361933"><ele>416.3333333333333</ele><time>2026-04-25T11:27:59.955Z</time></trkpt><trkpt lat="46.1959633" lon="12.5364467"><ele>416.0</ele><time>2026-04-25T11:28:00.955Z</time></trkpt><trkpt lat="46.1959033" lon="12.536685"><ele>416.0</ele><time>2026-04-25T11:28:01.955Z</time></trkpt><trkpt lat="46.1958217" lon="12.5369"><ele>416.0</ele><time>2026-04-25T11:28:02.954Z</time></trkpt><trkpt lat="46.1957217" lon="12.5371033"><ele>416.0</ele><time>2026-04-25T11:28:03.955Z</time></trkpt><trkpt lat="46.1956133" lon="12.5373083"><ele>414.66666666666663</ele><time>2026-04-25T11:28:04.955Z</time></trkpt><trkpt lat="46.1955167" lon="12.537535"><ele>413.33333333333337</ele><time>2026-04-25T11:28:05.954Z</time></trkpt><trkpt lat="46.195435" lon="12.5377817"><ele>412.0</ele><time>2026-04-25T11:28:06.954Z</time></trkpt><trkpt lat="46.19536" lon="12.538045"><ele>411.6666666666667</ele><time>2026-04-25T11:28:07.955Z</time></trkpt><trkpt lat="46.1952883" lon="12.53831"><ele>411.33333333333337</ele><time>2026-04-25T11:28:08.955Z</time></trkpt><trkpt lat="46.1952233" lon="12.538575"><ele>411.0</ele><time>2026-04-25T11:28:09.955Z</time></trkpt><trkpt lat="46.1951617" lon="12.5388517"><ele>411.66666666666663</ele><time>2026-04-25T11:28:10.956Z</time></trkpt><trkpt lat="46.195105" lon="12.5391367"><ele>412.3333333333333</ele><time>2026-04-25T11:28:11.953Z</time></trkpt><trkpt lat="46.1950517" lon="12.539425"><ele>413.0</ele><time>2026-04-25T11:28:12.954Z</time></trkpt><trkpt lat="46.1949983" lon="12.539725"><ele>413.3333333333333</ele><time>2026-04-25T11:28:13.954Z</time></trkpt><trkpt lat="46.19495" lon="12.54003"><ele>413.66666666666663</ele><time>2026-04-25T11:28:14.955Z</time></trkpt><trkpt lat="46.19491" lon="12.5403367"><ele>414.0</ele><time>2026-04-25T11:28:15.955Z</time></trkpt><trkpt lat="46.1948683" lon="12.5406333"><ele>414.33333333333337</ele><time>2026-04-25T11:28:16.955Z</time></trkpt><trkpt lat="46.1948167" lon="12.5409183"><ele>414.6666666666667</ele><time>2026-04-25T11:28:17.955Z</time></trkpt><trkpt lat="46.1947533" lon="12.541195"><ele>415.0</ele><time>2026-04-25T11:28:18.954Z</time></trkpt><trkpt lat="46.1946867" lon="12.541455"><ele>415.0</ele><time>2026-04-25T11:28:19.954Z</time></trkpt><trkpt lat="46.19462" lon="12.5417033"><ele>415.0</ele><time>2026-04-25T11:28:20.956Z</time></trkpt><trkpt lat="46.1945517" lon="12.5419383"><ele>415.0</ele><time>2026-04-25T11:28:21.955Z</time></trkpt><trkpt lat="46.1944867" lon="12.5421517"><ele>413.5</ele><time>2026-04-25T11:28:22.955Z</time></trkpt><trkpt lat="46.1944233" lon="12.5423267"><ele>412.0</ele><time>2026-04-25T11:28:23.954Z</time></trkpt><trkpt lat="46.19435" lon="12.5424767"><ele>410.5</ele><time>2026-04-25T11:28:24.955Z</time></trkpt><trkpt lat="46.1942667" lon="12.5426133"><ele>409.0</ele><time>2026-04-25T11:28:25.955Z</time></trkpt><trkpt lat="46.1941683" lon="12.5427383"><ele>409.0</ele><time>2026-04-25T11:28:26.955Z</time></trkpt><trkpt lat="46.1940767" lon="12.54288"><ele>409.0</ele><time>2026-04-25T11:28:27.955Z</time></trkpt><trkpt lat="46.194" lon="12.5430533"><ele>409.0</ele><time>2026-04-25T11:28:28.955Z</time></trkpt><trkpt lat="46.193935" lon="12.5432467"><ele>409.0</ele><time>2026-04-25T11:28:29.955Z</time></trkpt><trkpt lat="46.19387" lon="12.5434483"><ele>409.33333333333337</ele><time>2026-04-25T11:28:30.956Z</time></trkpt><trkpt lat="46.1938067" lon="12.5436533"><ele>409.66666666666663</ele><time>2026-04-25T11:28:31.953Z</time></trkpt><trkpt lat="46.193745" lon="12.5438567"><ele>410.0</ele><time>2026-04-25T11:28:32.955Z</time></trkpt><trkpt lat="46.1936883" lon="12.5440583"><ele>410.0</ele><time>2026-04-25T11:28:33.955Z</time></trkpt><trkpt lat="46.1936233" lon="12.5442517"><ele>410.0</ele><time>2026-04-25T11:28:34.955Z</time></trkpt><trkpt lat="46.19355" lon="12.5444383"><ele>410.0</ele><time>2026-04-25T11:28:35.955Z</time></trkpt><trkpt lat="46.19346" lon="12.5446183"><ele>407.3333333333333</ele><time>2026-04-25T11:28:36.956Z</time></trkpt><trkpt lat="46.193355" lon="12.5447933"><ele>404.66666666666663</ele><time>2026-04-25T11:28:37.954Z</time></trkpt><trkpt lat="46.1932383" lon="12.5449567"><ele>402.0</ele><time>2026-04-25T11:28:38.955Z</time></trkpt><trkpt lat="46.1931183" lon="12.5451167"><ele>402.0</ele><time>2026-04-25T11:28:39.954Z</time></trkpt><trkpt lat="46.1929983" lon="12.54527"><ele>402.0</ele><time>2026-04-25T11:28:40.955Z</time></trkpt><trkpt lat="46.1928867" lon="12.5454067"><ele>402.0</ele><time>2026-04-25T11:28:41.955Z</time></trkpt><trkpt lat="46.1927783" lon="12.54552"><ele>402.0</ele><time>2026-04-25T11:28:42.955Z</time></trkpt><trkpt lat="46.1926617" lon="12.5456217"><ele>405.0</ele><time>2026-04-25T11:28:43.954Z</time></trkpt><trkpt lat="46.1921983" lon="12.54603"><ele>405.0</ele><time>2026-04-25T11:28:47.955Z</time></trkpt><trkpt lat="46.1920633" lon="12.5461017"><ele>405.0</ele><time>2026-04-25T11:28:48.955Z</time></trkpt><trkpt lat="46.1919067" lon="12.546095"><ele>405.0</ele><time>2026-04-25T11:28:49.954Z</time></trkpt><trkpt lat="46.1917567" lon="12.5461333"><ele>405.0</ele><time>2026-04-25T11:28:50.953Z</time></trkpt><trkpt lat="46.19162" lon="12.5461683"><ele>405.0</ele><time>2026-04-25T11:28:51.956Z</time></trkpt><trkpt lat="46.1914817" lon="12.54623"><ele>405.0</ele><time>2026-04-25T11:28:52.955Z</time></trkpt><trkpt lat="46.1913383" lon="12.54631"><ele>405.0</ele><time>2026-04-25T11:28:53.958Z</time></trkpt><trkpt lat="46.191205" lon="12.5464133"><ele>405.5</ele><time>2026-04-25T11:28:54.954Z</time></trkpt><trkpt lat="46.1910733" lon="12.5465083"><ele>406.0</ele><time>2026-04-25T11:28:55.955Z</time></trkpt><trkpt lat="46.1909583" lon="12.546635"><ele>406.5</ele><time>2026-04-25T11:28:56.955Z</time></trkpt><trkpt lat="46.190865" lon="12.5468"><ele>407.0</ele><time>2026-04-25T11:28:57.956Z</time></trkpt><trkpt lat="46.1907867" lon="12.5469967"><ele>404.0</ele><time>2026-04-25T11:28:58.955Z</time></trkpt><trkpt lat="46.1907183" lon="12.5472017"><ele>401.0</ele><time>2026-04-25T11:28:59.954Z</time></trkpt><trkpt lat="46.19065" lon="12.5473933"><ele>398.0</ele><time>2026-04-25T11:29:00.955Z</time></trkpt><trkpt lat="46.19057" lon="12.5475733"><ele>398.0</ele><time>2026-04-25T11:29:01.955Z</time></trkpt><trkpt lat="46.190485" lon="12.54774"><ele>398.0</ele><time>2026-04-25T11:29:02.954Z</time></trkpt><trkpt lat="46.1904067" lon="12.54791"><ele>398.0</ele><time>2026-04-25T11:29:03.955Z</time></trkpt><trkpt lat="46.1903367" lon="12.54809"><ele>398.0</ele><time>2026-04-25T11:29:04.955Z</time></trkpt><trkpt lat="46.1902867" lon="12.5482833"><ele>399.5</ele><time>2026-04-25T11:29:05.954Z</time></trkpt><trkpt lat="46.1902533" lon="12.5484833"><ele>401.0</ele><time>2026-04-25T11:29:06.954Z</time></trkpt><trkpt lat="46.19022" lon="12.5486683"><ele>402.5</ele><time>2026-04-25T11:29:07.955Z</time></trkpt><trkpt lat="46.19019" lon="12.5488483"><ele>404.0</ele><time>2026-04-25T11:29:08.954Z</time></trkpt><trkpt lat="46.1901633" lon="12.5490117"><ele>404.2</ele><time>2026-04-25T11:29:09.955Z</time></trkpt><trkpt lat="46.19014" lon="12.5491683"><ele>404.4</ele><time>2026-04-25T11:29:10.954Z</time></trkpt><trkpt lat="46.1901283" lon="12.5493317"><ele>404.6</ele><time>2026-04-25T11:29:11.954Z</time></trkpt><trkpt lat="46.1901283" lon="12.5494933"><ele>404.8</ele><time>2026-04-25T11:29:12.956Z</time></trkpt><trkpt lat="46.1901383" lon="12.5496533"><ele>405.0</ele><time>2026-04-25T11:29:13.954Z</time></trkpt><trkpt lat="46.19015" lon="12.5498233"><ele>405.25</ele><time>2026-04-25T11:29:14.955Z</time></trkpt><trkpt lat="46.1901567" lon="12.5499917"><ele>405.5</ele><time>2026-04-25T11:29:15.955Z</time></trkpt><trkpt lat="46.19015" lon="12.5501583"><ele>405.75</ele><time>2026-04-25T11:29:16.955Z</time></trkpt><trkpt lat="46.190135" lon="12.550325"><ele>406.0</ele><time>2026-04-25T11:29:17.955Z</time></trkpt><trkpt lat="46.1901033" lon="12.550485"><ele>406.8</ele><time>2026-04-25T11:29:18.954Z</time></trkpt><trkpt lat="46.1900667" lon="12.55064"><ele>407.6</ele><time>2026-04-25T11:29:19.955Z</time></trkpt><trkpt lat="46.1900367" lon="12.5507967"><ele>408.4</ele><time>2026-04-25T11:29:20.954Z</time></trkpt><trkpt lat="46.1900167" lon="12.550955"><ele>409.2</ele><time>2026-04-25T11:29:21.955Z</time></trkpt><trkpt lat="46.1900033" lon="12.5511133"><ele>410.0</ele><time>2026-04-25T11:29:22.955Z</time></trkpt><trkpt lat="46.1900017" lon="12.5512633"><ele>409.99999999999994</ele><time>2026-04-25T11:29:23.954Z</time></trkpt><trkpt lat="46.1900067" lon="12.5514017"><ele>410.0</ele><time>2026-04-25T11:29:24.954Z</time></trkpt><trkpt lat="46.19002" lon="12.5515317"><ele>410.0</ele><time>2026-04-25T11:29:25.956Z</time></trkpt><trkpt lat="46.1900333" lon="12.5516533"><ele>410.0</ele><time>2026-04-25T11:29:26.956Z</time></trkpt><trkpt lat="46.19005" lon="12.5517683"><ele>409.99999999999994</ele><time>2026-04-25T11:29:27.955Z</time></trkpt><trkpt lat="46.1900683" lon="12.5518867"><ele>410.0</ele><time>2026-04-25T11:29:28.955Z</time></trkpt><trkpt lat="46.1900817" lon="12.552"><ele>409.3333333333333</ele><time>2026-04-25T11:29:29.955Z</time></trkpt><trkpt lat="46.1900967" lon="12.5521167"><ele>408.66666666666663</ele><time>2026-04-25T11:29:30.955Z</time></trkpt><trkpt lat="46.1901083" lon="12.55223"><ele>408.0</ele><time>2026-04-25T11:29:31.955Z</time></trkpt><trkpt lat="46.19012" lon="12.5523417"><ele>407.33333333333337</ele><time>2026-04-25T11:29:32.954Z</time></trkpt><trkpt lat="46.19013" lon="12.55245"><ele>406.6666666666667</ele><time>2026-04-25T11:29:33.955Z</time></trkpt><trkpt lat="46.190145" lon="12.5525567"><ele>406.0</ele><time>2026-04-25T11:29:34.956Z</time></trkpt><trkpt lat="46.1901567" lon="12.5526633"><ele>406.0</ele><time>2026-04-25T11:29:35.953Z</time></trkpt><trkpt lat="46.1901683" lon="12.5527717"><ele>406.0</ele><time>2026-04-25T11:29:36.955Z</time></trkpt><trkpt lat="46.19018" lon="12.552875"><ele>406.0</ele><time>2026-04-25T11:29:37.955Z</time></trkpt><trkpt lat="46.1901883" lon="12.5529733"><ele>406.0</ele><time>2026-04-25T11:29:38.954Z</time></trkpt><trkpt lat="46.190205" lon="12.5531483"><ele>406.0</ele><time>2026-04-25T11:29:40.956Z</time></trkpt><trkpt lat="46.1902183" lon="12.5533133"><ele>405.6</ele><time>2026-04-25T11:29:42.954Z</time></trkpt><trkpt lat="46.1902317" lon="12.5534833"><ele>405.20000000000005</ele><time>2026-04-25T11:29:44.954Z</time></trkpt><trkpt lat="46.1902417" lon="12.5535867"><ele>404.79999999999995</ele><time>2026-04-25T11:29:45.956Z</time></trkpt><trkpt lat="46.1902533" lon="12.55372"><ele>404.4</ele><time>2026-04-25T11:29:46.955Z</time></trkpt><trkpt lat="46.1902683" lon="12.55386"><ele>404.0</ele><time>2026-04-25T11:29:47.955Z</time></trkpt><trkpt lat="46.1902817" lon="12.5539933"><ele>403.3333333333333</ele><time>2026-04-25T11:29:48.955Z</time></trkpt><trkpt lat="46.190295" lon="12.5541267"><ele>402.66666666666663</ele><time>2026-04-25T11:29:49.954Z</time></trkpt><trkpt lat="46.1903083" lon="12.55426"><ele>402.0</ele><time>2026-04-25T11:29:50.954Z</time></trkpt><trkpt lat="46.19032" lon="12.55439"><ele>401.33333333333337</ele><time>2026-04-25T11:29:51.955Z</time></trkpt><trkpt lat="46.19033" lon="12.5545167"><ele>400.6666666666667</ele><time>2026-04-25T11:29:52.956Z</time></trkpt><trkpt lat="46.19034" lon="12.5546367"><ele>400.0</ele><time>2026-04-25T11:29:53.955Z</time></trkpt><trkpt lat="46.19035" lon="12.5547467"><ele>399.83333333333337</ele><time>2026-04-25T11:29:54.955Z</time></trkpt><trkpt lat="46.190355" lon="12.5548467"><ele>399.6666666666667</ele><time>2026-04-25T11:29:55.954Z</time></trkpt><trkpt lat="46.1903433" lon="12.5550017"><ele>399.5</ele><time>2026-04-25T11:29:57.955Z</time></trkpt><trkpt lat="46.1903117" lon="12.5551033"><ele>399.33333333333337</ele><time>2026-04-25T11:29:59.955Z</time></trkpt><trkpt lat="46.19029" lon="12.555205"><ele>399.1666666666667</ele><time>2026-04-25T11:30:01.956Z</time></trkpt><trkpt lat="46.1903033" lon="12.555335"><ele>399.0</ele><time>2026-04-25T11:30:04.955Z</time></trkpt><trkpt lat="46.1903367" lon="12.5555033"><ele>399.0</ele><time>2026-04-25T11:30:39.956Z</time></trkpt><trkpt lat="46.1903567" lon="12.5556717"><ele>399.0</ele><time>2026-04-25T11:30:41.955Z</time></trkpt><trkpt lat="46.1903633" lon="12.5557633"><ele>399.0</ele><time>2026-04-25T11:30:42.955Z</time></trkpt><trkpt lat="46.1903717" lon="12.5558583"><ele>399.0</ele><time>2026-04-25T11:30:43.955Z</time></trkpt><trkpt lat="46.1903817" lon="12.555955"><ele>399.0</ele><time>2026-04-25T11:30:44.955Z</time></trkpt><trkpt lat="46.1903917" lon="12.5560467"><ele>399.0</ele><time>2026-04-25T11:30:45.955Z</time></trkpt><trkpt lat="46.1904017" lon="12.55614"><ele>399.0</ele><time>2026-04-25T11:30:46.956Z</time></trkpt><trkpt lat="46.19041" lon="12.5562333"><ele>399.0</ele><time>2026-04-25T11:30:47.953Z</time></trkpt><trkpt lat="46.1904167" lon="12.556325"><ele>399.0</ele><time>2026-04-25T11:30:48.955Z</time></trkpt><trkpt lat="46.1904183" lon="12.5564167"><ele>399.0</ele><time>2026-04-25T11:30:49.955Z</time></trkpt><trkpt lat="46.1904167" lon="12.55651"><ele>399.0</ele><time>2026-04-25T11:30:50.955Z</time></trkpt><trkpt lat="46.1904117" lon="12.5566033"><ele>399.0</ele><time>2026-04-25T11:30:51.955Z</time></trkpt><trkpt lat="46.1904033" lon="12.5567"><ele>399.0</ele><time>2026-04-25T11:30:52.955Z</time></trkpt><trkpt lat="46.1903933" lon="12.5568"><ele>399.0</ele><time>2026-04-25T11:30:53.954Z</time></trkpt><trkpt lat="46.1903833" lon="12.5569017"><ele>399.0</ele><time>2026-04-25T11:30:54.956Z</time></trkpt><trkpt lat="46.19037" lon="12.5570083"><ele>399.0</ele><time>2026-04-25T11:30:55.955Z</time></trkpt><trkpt lat="46.1903517" lon="12.5571133"><ele>399.0</ele><time>2026-04-25T11:30:56.955Z</time></trkpt><trkpt lat="46.1903317" lon="12.557215"><ele>399.0</ele><time>2026-04-25T11:30:57.955Z</time></trkpt><trkpt lat="46.1903117" lon="12.5573117"><ele>399.0</ele><time>2026-04-25T11:30:58.955Z</time></trkpt><trkpt lat="46.19029" lon="12.5574083"><ele>399.0</ele><time>2026-04-25T11:30:59.955Z</time></trkpt><trkpt lat="46.1902567" lon="12.5574983"><ele>399.0</ele><time>2026-04-25T11:31:00.955Z</time></trkpt><trkpt lat="46.19022" lon="12.5575833"><ele>399.0</ele><time>2026-04-25T11:31:01.956Z</time></trkpt><trkpt lat="46.1901783" lon="12.5576583"><ele>399.0</ele><time>2026-04-25T11:31:02.955Z</time></trkpt><trkpt lat="46.19011" lon="12.5578017"><ele>399.0</ele><time>2026-04-25T11:31:04.955Z</time></trkpt><trkpt lat="46.1900783" lon="12.5579567"><ele>399.0</ele><time>2026-04-25T11:31:06.954Z</time></trkpt><trkpt lat="46.1901033" lon="12.5581167"><ele>399.0</ele><time>2026-04-25T11:31:08.955Z</time></trkpt><trkpt lat="46.1901517" lon="12.5582617"><ele>399.0</ele><time>2026-04-25T11:31:10.956Z</time></trkpt><trkpt lat="46.19017" lon="12.5584"><ele>399.0</ele><time>2026-04-25T11:31:12.955Z</time></trkpt><trkpt lat="46.1901317" lon="12.5585233"><ele>399.0</ele><time>2026-04-25T11:31:14.954Z</time></trkpt><trkpt lat="46.1900567" lon="12.5586"><ele>399.0</ele><time>2026-04-25T11:31:16.955Z</time></trkpt><trkpt lat="46.189975" lon="12.55867"><ele>399.0</ele><time>2026-04-25T11:31:18.954Z</time></trkpt><trkpt lat="46.1899067" lon="12.5587317"><ele>399.8333333333333</ele><time>2026-04-25T11:31:20.955Z</time></trkpt><trkpt lat="46.18986" lon="12.5588567"><ele>400.66666666666663</ele><time>2026-04-25T11:31:23.955Z</time></trkpt><trkpt lat="46.1898317" lon="12.55897"><ele>401.5</ele><time>2026-04-25T11:31:25.955Z</time></trkpt><trkpt lat="46.18981" lon="12.5591033"><ele>402.3333333333333</ele><time>2026-04-25T11:31:27.955Z</time></trkpt><trkpt lat="46.1898033" lon="12.5592333"><ele>403.16666666666663</ele><time>2026-04-25T11:31:29.955Z</time></trkpt><trkpt lat="46.1897933" lon="12.559335"><ele>404.0</ele><time>2026-04-25T11:31:31.955Z</time></trkpt><trkpt lat="46.1897533" lon="12.5594467"><ele>402.85714285714283</ele><time>2026-04-25T11:31:34.955Z</time></trkpt><trkpt lat="46.189725" lon="12.5595317"><ele>401.71428571428567</ele><time>2026-04-25T11:31:36.955Z</time></trkpt><trkpt lat="46.1896967" lon="12.5596217"><ele>400.57142857142856</ele><time>2026-04-25T11:31:38.956Z</time></trkpt><trkpt lat="46.1896717" lon="12.5597333"><ele>399.42857142857144</ele><time>2026-04-25T11:31:42.954Z</time></trkpt><trkpt lat="46.189645" lon="12.5598683"><ele>398.2857142857143</ele><time>2026-04-25T11:31:45.956Z</time></trkpt><trkpt lat="46.1896317" lon="12.5599667"><ele>397.14285714285717</ele><time>2026-04-25T11:31:47.954Z</time></trkpt><trkpt lat="46.1896283" lon="12.5600583"><ele>396.0</ele><time>2026-04-25T11:31:49.955Z</time></trkpt><trkpt lat="46.1896317" lon="12.56016"><ele>396.0</ele><time>2026-04-25T11:31:52.956Z</time></trkpt></trkseg><trkseg><trkpt lat="46.189648" lon="12.5601435"><ele>396.0</ele><time>2026-04-25T12:25:35.039Z</time></trkpt><trkpt lat="46.1896583" lon="12.5602867"><ele>396.0</ele><time>2026-04-25T12:27:17.958Z</time></trkpt><trkpt lat="46.1896733" lon="12.5604017"><ele>396.0</ele><time>2026-04-25T12:27:20.958Z</time></trkpt><trkpt lat="46.1897" lon="12.5604917"><ele>396.0</ele><time>2026-04-25T12:27:24.958Z</time></trkpt><trkpt lat="46.189745" lon="12.5606267"><ele>396.0</ele><time>2026-04-25T12:27:33.958Z</time></trkpt><trkpt lat="46.18976" lon="12.5607467"><ele>396.0</ele><time>2026-04-25T12:27:35.959Z</time></trkpt><trkpt lat="46.1897783" lon="12.5608717"><ele>395.3333333333333</ele><time>2026-04-25T12:27:37.959Z</time></trkpt><trkpt lat="46.1898033" lon="12.561"><ele>394.66666666666663</ele><time>2026-04-25T12:27:39.959Z</time></trkpt><trkpt lat="46.18983" lon="12.5611283"><ele>394.0</ele><time>2026-04-25T12:27:41.959Z</time></trkpt><trkpt lat="46.1898517" lon="12.5612483"><ele>393.3333333333333</ele><time>2026-04-25T12:27:43.958Z</time></trkpt><trkpt lat="46.1898767" lon="12.561355"><ele>392.66666666666663</ele><time>2026-04-25T12:27:45.958Z</time></trkpt><trkpt lat="46.18992" lon="12.5614717"><ele>392.0</ele><time>2026-04-25T12:27:47.959Z</time></trkpt><trkpt lat="46.1900033" lon="12.5616"><ele>393.20000000000005</ele><time>2026-04-25T12:27:49.959Z</time></trkpt><trkpt lat="46.1900833" lon="12.5617383"><ele>394.4</ele><time>2026-04-25T12:27:51.959Z</time></trkpt><trkpt lat="46.1901183" lon="12.5619"><ele>395.6</ele><time>2026-04-25T12:27:53.959Z</time></trkpt><trkpt lat="46.1901333" lon="12.562045"><ele>396.79999999999995</ele><time>2026-04-25T12:27:55.959Z</time></trkpt><trkpt lat="46.1901483" lon="12.5621783"><ele>398.0</ele><time>2026-04-25T12:27:57.959Z</time></trkpt><trkpt lat="46.190165" lon="12.5622867"><ele>397.99999999999994</ele><time>2026-04-25T12:27:59.959Z</time></trkpt><trkpt lat="46.190185" lon="12.5623933"><ele>398.0</ele><time>2026-04-25T12:28:01.959Z</time></trkpt><trkpt lat="46.1902083" lon="12.5624933"><ele>398.0</ele><time>2026-04-25T12:28:03.96Z</time></trkpt><trkpt lat="46.1902633" lon="12.5626117"><ele>398.0</ele><time>2026-04-25T12:28:05.959Z</time></trkpt><trkpt lat="46.1903067" lon="12.5626867"><ele>397.99999999999994</ele><time>2026-04-25T12:28:06.959Z</time></trkpt><trkpt lat="46.1903567" lon="12.56276"><ele>398.0</ele><time>2026-04-25T12:28:07.958Z</time></trkpt><trkpt lat="46.1904083" lon="12.5628383"><ele>397.3333333333333</ele><time>2026-04-25T12:28:08.958Z</time></trkpt><trkpt lat="46.1904667" lon="12.562905"><ele>396.66666666666663</ele><time>2026-04-25T12:28:09.957Z</time></trkpt><trkpt lat="46.1905317" lon="12.5629383"><ele>396.0</ele><time>2026-04-25T12:28:10.957Z</time></trkpt><trkpt lat="46.190595" lon="12.5629467"><ele>395.33333333333337</ele><time>2026-04-25T12:28:11.957Z</time></trkpt><trkpt lat="46.1907183" lon="12.5629567"><ele>394.6666666666667</ele><time>2026-04-25T12:28:13.958Z</time></trkpt><trkpt lat="46.1908283" lon="12.5629817"><ele>394.0</ele><time>2026-04-25T12:28:15.958Z</time></trkpt><trkpt lat="46.1909117" lon="12.563025"><ele>396.2</ele><time>2026-04-25T12:28:17.957Z</time></trkpt><trkpt lat="46.1909733" lon="12.5630817"><ele>398.4</ele><time>2026-04-25T12:28:19.957Z</time></trkpt><trkpt lat="46.1910233" lon="12.5631867"><ele>400.6</ele><time>2026-04-25T12:28:21.957Z</time></trkpt><trkpt lat="46.1910567" lon="12.56338"><ele>402.8</ele><time>2026-04-25T12:28:23.957Z</time></trkpt><trkpt lat="46.1910767" lon="12.5635067"><ele>405.0</ele><time>2026-04-25T12:28:24.956Z</time></trkpt><trkpt lat="46.1911" lon="12.5636433"><ele>405.2</ele><time>2026-04-25T12:28:25.956Z</time></trkpt><trkpt lat="46.191125" lon="12.563785"><ele>405.4</ele><time>2026-04-25T12:28:26.956Z</time></trkpt><trkpt lat="46.1911533" lon="12.5639283"><ele>405.6</ele><time>2026-04-25T12:28:27.957Z</time></trkpt><trkpt lat="46.1911833" lon="12.564075"><ele>405.8</ele><time>2026-04-25T12:28:28.956Z</time></trkpt><trkpt lat="46.1912133" lon="12.5642267"><ele>406.0</ele><time>2026-04-25T12:28:29.957Z</time></trkpt><trkpt lat="46.19124" lon="12.56438"><ele>405.6</ele><time>2026-04-25T12:28:30.955Z</time></trkpt><trkpt lat="46.1912633" lon="12.5645333"><ele>405.20000000000005</ele><time>2026-04-25T12:28:31.957Z</time></trkpt><trkpt lat="46.19129" lon="12.5646867"><ele>404.79999999999995</ele><time>2026-04-25T12:28:32.956Z</time></trkpt><trkpt lat="46.19132" lon="12.56484"><ele>404.4</ele><time>2026-04-25T12:28:33.957Z</time></trkpt><trkpt lat="46.19135" lon="12.5649917"><ele>404.0</ele><time>2026-04-25T12:28:34.957Z</time></trkpt><trkpt lat="46.1913767" lon="12.5651517"><ele>404.0</ele><time>2026-04-25T12:28:35.956Z</time></trkpt><trkpt lat="46.1914" lon="12.5653117"><ele>404.0</ele><time>2026-04-25T12:28:36.956Z</time></trkpt><trkpt lat="46.1914117" lon="12.5654783"><ele>404.0</ele><time>2026-04-25T12:28:37.956Z</time></trkpt><trkpt lat="46.1914033" lon="12.56565"><ele>404.0</ele><time>2026-04-25T12:28:38.955Z</time></trkpt><trkpt lat="46.1913867" lon="12.565825"><ele>402.5</ele><time>2026-04-25T12:28:39.956Z</time></trkpt><trkpt lat="46.1913633" lon="12.5660033"><ele>401.0</ele><time>2026-04-25T12:28:40.956Z</time></trkpt><trkpt lat="46.1913317" lon="12.5661867"><ele>399.5</ele><time>2026-04-25T12:28:41.956Z</time></trkpt><trkpt lat="46.191295" lon="12.5663783"><ele>398.0</ele><time>2026-04-25T12:28:42.957Z</time></trkpt><trkpt lat="46.1912717" lon="12.566565"><ele>397.25</ele><time>2026-04-25T12:28:43.957Z</time></trkpt><trkpt lat="46.191255" lon="12.566745"><ele>396.5</ele><time>2026-04-25T12:28:44.956Z</time></trkpt><trkpt lat="46.19125" lon="12.56692"><ele>395.75</ele><time>2026-04-25T12:28:45.956Z</time></trkpt><trkpt lat="46.1912683" lon="12.5670833"><ele>395.0</ele><time>2026-04-25T12:28:46.957Z</time></trkpt><trkpt lat="46.1913317" lon="12.5672267"><ele>394.5</ele><time>2026-04-25T12:28:47.955Z</time></trkpt><trkpt lat="46.1914217" lon="12.5673533"><ele>394.0</ele><time>2026-04-25T12:28:48.957Z</time></trkpt><trkpt lat="46.1915067" lon="12.567485"><ele>393.5</ele><time>2026-04-25T12:28:49.957Z</time></trkpt><trkpt lat="46.1915683" lon="12.5676483"><ele>393.0</ele><time>2026-04-25T12:28:50.957Z</time></trkpt><trkpt lat="46.1916017" lon="12.5678267"><ele>393.75</ele><time>2026-04-25T12:28:51.957Z</time></trkpt><trkpt lat="46.1916183" lon="12.5680117"><ele>394.5</ele><time>2026-04-25T12:28:52.956Z</time></trkpt><trkpt lat="46.1916133" lon="12.5681983"><ele>395.25</ele><time>2026-04-25T12:28:53.957Z</time></trkpt><trkpt lat="46.1915783" lon="12.568365"><ele>396.0</ele><time>2026-04-25T12:28:54.957Z</time></trkpt><trkpt lat="46.1915067" lon="12.5684983"><ele>396.0</ele><time>2026-04-25T12:28:55.956Z</time></trkpt><trkpt lat="46.19141" lon="12.568595"><ele>396.0</ele><time>2026-04-25T12:28:56.956Z</time></trkpt><trkpt lat="46.1913033" lon="12.5686717"><ele>396.0</ele><time>2026-04-25T12:28:57.956Z</time></trkpt><trkpt lat="46.1912" lon="12.5687633"><ele>396.0</ele><time>2026-04-25T12:28:58.958Z</time></trkpt><trkpt lat="46.1911267" lon="12.5688917"><ele>398.75</ele><time>2026-04-25T12:28:59.955Z</time></trkpt><trkpt lat="46.1910867" lon="12.5690533"><ele>401.5</ele><time>2026-04-25T12:29:00.956Z</time></trkpt><trkpt lat="46.1910617" lon="12.5692367"><ele>404.25</ele><time>2026-04-25T12:29:01.958Z</time></trkpt><trkpt lat="46.1910417" lon="12.5694283"><ele>407.0</ele><time>2026-04-25T12:29:02.956Z</time></trkpt><trkpt lat="46.1910217" lon="12.56962"><ele>407.25</ele><time>2026-04-25T12:29:03.957Z</time></trkpt><trkpt lat="46.1909917" lon="12.569815"><ele>407.5</ele><time>2026-04-25T12:29:04.957Z</time></trkpt><trkpt lat="46.1909567" lon="12.5700017"><ele>407.75</ele><time>2026-04-25T12:29:05.957Z</time></trkpt><trkpt lat="46.190925" lon="12.570185"><ele>408.0</ele><time>2026-04-25T12:29:06.956Z</time></trkpt><trkpt lat="46.1909067" lon="12.57037"><ele>408.25</ele><time>2026-04-25T12:29:07.957Z</time></trkpt><trkpt lat="46.190895" lon="12.5705517"><ele>408.5</ele><time>2026-04-25T12:29:08.956Z</time></trkpt><trkpt lat="46.1909017" lon="12.5707367"><ele>408.75</ele><time>2026-04-25T12:29:09.957Z</time></trkpt><trkpt lat="46.190915" lon="12.5709167"><ele>409.0</ele><time>2026-04-25T12:29:10.957Z</time></trkpt><trkpt lat="46.190925" lon="12.5710967"><ele>409.25</ele><time>2026-04-25T12:29:11.956Z</time></trkpt><trkpt lat="46.1909167" lon="12.571275"><ele>409.5</ele><time>2026-04-25T12:29:12.956Z</time></trkpt><trkpt lat="46.1908933" lon="12.5714567"><ele>409.75</ele><time>2026-04-25T12:29:13.957Z</time></trkpt><trkpt lat="46.1908567" lon="12.5716333"><ele>410.0</ele><time>2026-04-25T12:29:14.957Z</time></trkpt><trkpt lat="46.190825" lon="12.5718133"><ele>410.0</ele><time>2026-04-25T12:29:15.958Z</time></trkpt><trkpt lat="46.1908133" lon="12.5720017"><ele>410.0</ele><time>2026-04-25T12:29:16.955Z</time></trkpt><trkpt lat="46.1908283" lon="12.5721867"><ele>410.0</ele><time>2026-04-25T12:29:17.957Z</time></trkpt><trkpt lat="46.190875" lon="12.5723667"><ele>410.0</ele><time>2026-04-25T12:29:18.957Z</time></trkpt><trkpt lat="46.190935" lon="12.5725317"><ele>409.5</ele><time>2026-04-25T12:29:19.958Z</time></trkpt><trkpt lat="46.191015" lon="12.5726767"><ele>409.0</ele><time>2026-04-25T12:29:20.958Z</time></trkpt><trkpt lat="46.19112" lon="12.5727933"><ele>408.5</ele><time>2026-04-25T12:29:21.956Z</time></trkpt><trkpt lat="46.1912317" lon="12.5728883"><ele>408.0</ele><time>2026-04-25T12:29:22.957Z</time></trkpt><trkpt lat="46.191345" lon="12.572975"><ele>406.25</ele><time>2026-04-25T12:29:23.956Z</time></trkpt><trkpt lat="46.191455" lon="12.5730567"><ele>404.5</ele><time>2026-04-25T12:29:24.956Z</time></trkpt><trkpt lat="46.1915633" lon="12.5731383"><ele>402.75</ele><time>2026-04-25T12:29:25.956Z</time></trkpt><trkpt lat="46.1916667" lon="12.573225"><ele>401.0</ele><time>2026-04-25T12:29:26.957Z</time></trkpt><trkpt lat="46.1917517" lon="12.5733283"><ele>404.0</ele><time>2026-04-25T12:29:27.957Z</time></trkpt><trkpt lat="46.19181" lon="12.5734617"><ele>407.0</ele><time>2026-04-25T12:29:28.957Z</time></trkpt><trkpt lat="46.1918333" lon="12.5736017"><ele>410.0</ele><time>2026-04-25T12:29:29.957Z</time></trkpt><trkpt lat="46.1918267" lon="12.573745"><ele>413.0</ele><time>2026-04-25T12:29:30.956Z</time></trkpt><trkpt lat="46.1918" lon="12.5738783"><ele>416.0</ele><time>2026-04-25T12:29:31.957Z</time></trkpt><trkpt lat="46.1917533" lon="12.573995"><ele>415.99999999999994</ele><time>2026-04-25T12:29:32.956Z</time></trkpt><trkpt lat="46.191695" lon="12.5740933"><ele>416.0</ele><time>2026-04-25T12:29:33.957Z</time></trkpt><trkpt lat="46.191625" lon="12.5741733"><ele>416.0</ele><time>2026-04-25T12:29:34.956Z</time></trkpt><trkpt lat="46.191545" lon="12.5742283"><ele>416.0</ele><time>2026-04-25T12:29:35.956Z</time></trkpt><trkpt lat="46.19146" lon="12.574265"><ele>415.99999999999994</ele><time>2026-04-25T12:29:36.956Z</time></trkpt><trkpt lat="46.1913767" lon="12.5742783"><ele>416.0</ele><time>2026-04-25T12:29:37.957Z</time></trkpt><trkpt lat="46.1912967" lon="12.5742767"><ele>415.3333333333333</ele><time>2026-04-25T12:29:38.957Z</time></trkpt><trkpt lat="46.1912117" lon="12.5742833"><ele>414.66666666666663</ele><time>2026-04-25T12:29:39.956Z</time></trkpt><trkpt lat="46.19113" lon="12.5743"><ele>414.0</ele><time>2026-04-25T12:29:40.956Z</time></trkpt><trkpt lat="46.1910483" lon="12.5743333"><ele>413.33333333333337</ele><time>2026-04-25T12:29:41.956Z</time></trkpt><trkpt lat="46.1909733" lon="12.5743883"><ele>412.6666666666667</ele><time>2026-04-25T12:29:42.956Z</time></trkpt><trkpt lat="46.19091" lon="12.5744583"><ele>412.0</ele><time>2026-04-25T12:29:43.957Z</time></trkpt><trkpt lat="46.1908533" lon="12.57455"><ele>412.0</ele><time>2026-04-25T12:29:44.957Z</time></trkpt><trkpt lat="46.1908067" lon="12.5746567"><ele>412.0</ele><time>2026-04-25T12:29:45.956Z</time></trkpt><trkpt lat="46.190765" lon="12.57477"><ele>412.0</ele><time>2026-04-25T12:29:46.957Z</time></trkpt><trkpt lat="46.190725" lon="12.5748917"><ele>412.0</ele><time>2026-04-25T12:29:47.956Z</time></trkpt><trkpt lat="46.190685" lon="12.5750167"><ele>412.0</ele><time>2026-04-25T12:29:48.956Z</time></trkpt><trkpt lat="46.190645" lon="12.575145"><ele>408.0</ele><time>2026-04-25T12:29:49.96Z</time></trkpt><trkpt lat="46.190605" lon="12.575275"><ele>404.0</ele><time>2026-04-25T12:29:50.956Z</time></trkpt><trkpt lat="46.1905683" lon="12.5754083"><ele>400.0</ele><time>2026-04-25T12:29:51.957Z</time></trkpt><trkpt lat="46.19053" lon="12.57554"><ele>396.0</ele><time>2026-04-25T12:29:52.956Z</time></trkpt><trkpt lat="46.1904967" lon="12.5756683"><ele>392.0</ele><time>2026-04-25T12:29:53.958Z</time></trkpt><trkpt lat="46.1904667" lon="12.5758033"><ele>392.0</ele><time>2026-04-25T12:29:54.956Z</time></trkpt><trkpt lat="46.1904433" lon="12.5759367"><ele>392.0</ele><time>2026-04-25T12:29:55.957Z</time></trkpt><trkpt lat="46.1904367" lon="12.5760733"><ele>392.0</ele><time>2026-04-25T12:29:56.956Z</time></trkpt><trkpt lat="46.1904433" lon="12.576205"><ele>392.0</ele><time>2026-04-25T12:29:57.957Z</time></trkpt><trkpt lat="46.190465" lon="12.576335"><ele>392.0</ele><time>2026-04-25T12:29:58.956Z</time></trkpt><trkpt lat="46.1905" lon="12.5764567"><ele>391.99999999999994</ele><time>2026-04-25T12:29:59.957Z</time></trkpt><trkpt lat="46.19054" lon="12.5765767"><ele>392.0</ele><time>2026-04-25T12:30:00.961Z</time></trkpt><trkpt lat="46.19058" lon="12.5766933"><ele>392.0</ele><time>2026-04-25T12:30:01.959Z</time></trkpt><trkpt lat="46.1906217" lon="12.57681"><ele>392.0</ele><time>2026-04-25T12:30:02.959Z</time></trkpt><trkpt lat="46.1906617" lon="12.57692"><ele>391.99999999999994</ele><time>2026-04-25T12:30:03.959Z</time></trkpt><trkpt lat="46.1907" lon="12.57703"><ele>392.0</ele><time>2026-04-25T12:30:04.958Z</time></trkpt><trkpt lat="46.1907383" lon="12.5771333"><ele>393.8333333333333</ele><time>2026-04-25T12:30:05.957Z</time></trkpt><trkpt lat="46.19078" lon="12.57723"><ele>395.66666666666663</ele><time>2026-04-25T12:30:06.958Z</time></trkpt><trkpt lat="46.1908217" lon="12.5773217"><ele>397.5</ele><time>2026-04-25T12:30:07.957Z</time></trkpt><trkpt lat="46.1908617" lon="12.5774133"><ele>399.33333333333337</ele><time>2026-04-25T12:30:08.959Z</time></trkpt><trkpt lat="46.190905" lon="12.5775117"><ele>401.1666666666667</ele><time>2026-04-25T12:30:09.959Z</time></trkpt><trkpt lat="46.1909533" lon="12.57762"><ele>403.0</ele><time>2026-04-25T12:30:10.958Z</time></trkpt><trkpt lat="46.191005" lon="12.57774"><ele>402.5</ele><time>2026-04-25T12:30:11.959Z</time></trkpt><trkpt lat="46.1910617" lon="12.5778767"><ele>402.0</ele><time>2026-04-25T12:30:12.958Z</time></trkpt><trkpt lat="46.1911267" lon="12.578025"><ele>401.5</ele><time>2026-04-25T12:30:13.955Z</time></trkpt><trkpt lat="46.1911967" lon="12.57819"><ele>401.0</ele><time>2026-04-25T12:30:14.957Z</time></trkpt><trkpt lat="46.1912683" lon="12.5783683"><ele>401.0</ele><time>2026-04-25T12:30:15.957Z</time></trkpt><trkpt lat="46.1913433" lon="12.578555"><ele>401.0</ele><time>2026-04-25T12:30:16.958Z</time></trkpt><trkpt lat="46.191415" lon="12.5787483"><ele>401.0</ele><time>2026-04-25T12:30:17.957Z</time></trkpt><trkpt lat="46.1914817" lon="12.57895"><ele>403.3333333333333</ele><time>2026-04-25T12:30:18.956Z</time></trkpt><trkpt lat="46.1915483" lon="12.5791567"><ele>405.66666666666663</ele><time>2026-04-25T12:30:19.956Z</time></trkpt><trkpt lat="46.1916133" lon="12.579365"><ele>408.0</ele><time>2026-04-25T12:30:20.957Z</time></trkpt><trkpt lat="46.1916667" lon="12.5795783"><ele>408.0</ele><time>2026-04-25T12:30:21.957Z</time></trkpt><trkpt lat="46.1917183" lon="12.57979"><ele>408.0</ele><time>2026-04-25T12:30:22.957Z</time></trkpt><trkpt lat="46.1917617" lon="12.579995"><ele>408.0</ele><time>2026-04-25T12:30:23.956Z</time></trkpt><trkpt lat="46.1917967" lon="12.5801967"><ele>408.0</ele><time>2026-04-25T12:30:24.957Z</time></trkpt><trkpt lat="46.1918283" lon="12.580405"><ele>408.0</ele><time>2026-04-25T12:30:25.956Z</time></trkpt><trkpt lat="46.1918617" lon="12.5806133"><ele>408.0</ele><time>2026-04-25T12:30:26.957Z</time></trkpt><trkpt lat="46.1918867" lon="12.5808183"><ele>408.0</ele><time>2026-04-25T12:30:27.957Z</time></trkpt><trkpt lat="46.19191" lon="12.581025"><ele>408.0</ele><time>2026-04-25T12:30:28.958Z</time></trkpt><trkpt lat="46.19193" lon="12.5812283"><ele>408.25</ele><time>2026-04-25T12:30:29.957Z</time></trkpt><trkpt lat="46.1919433" lon="12.581435"><ele>408.5</ele><time>2026-04-25T12:30:30.957Z</time></trkpt><trkpt lat="46.191955" lon="12.5816417"><ele>408.75</ele><time>2026-04-25T12:30:31.959Z</time></trkpt><trkpt lat="46.1919683" lon="12.5818533"><ele>409.0</ele><time>2026-04-25T12:30:32.958Z</time></trkpt><trkpt lat="46.1919733" lon="12.5820733"><ele>410.33333333333337</ele><time>2026-04-25T12:30:33.959Z</time></trkpt><trkpt lat="46.1919817" lon="12.5823"><ele>411.66666666666663</ele><time>2026-04-25T12:30:34.959Z</time></trkpt><trkpt lat="46.1919883" lon="12.5825183"><ele>413.0</ele><time>2026-04-25T12:30:35.956Z</time></trkpt><trkpt lat="46.1919883" lon="12.5827467"><ele>417.66666666666663</ele><time>2026-04-25T12:30:36.958Z</time></trkpt><trkpt lat="46.1919967" lon="12.5829717"><ele>422.33333333333337</ele><time>2026-04-25T12:30:37.958Z</time></trkpt><trkpt lat="46.192" lon="12.5832067"><ele>427.0</ele><time>2026-04-25T12:30:38.958Z</time></trkpt><trkpt lat="46.192005" lon="12.5834433"><ele>429.6666666666667</ele><time>2026-04-25T12:30:39.958Z</time></trkpt><trkpt lat="46.19201" lon="12.5836833"><ele>432.33333333333337</ele><time>2026-04-25T12:30:40.958Z</time></trkpt><trkpt lat="46.1920167" lon="12.58393"><ele>435.0</ele><time>2026-04-25T12:30:41.959Z</time></trkpt><trkpt lat="46.1941583" lon="12.5955183"><ele>424.66666666666663</ele><time>2026-04-25T12:31:19.958Z</time></trkpt><trkpt lat="46.19424" lon="12.5957767"><ele>414.3333333333333</ele><time>2026-04-25T12:31:20.955Z</time></trkpt><trkpt lat="46.194335" lon="12.5960517"><ele>404.0</ele><time>2026-04-25T12:31:21.956Z</time></trkpt><trkpt lat="46.1944283" lon="12.5963317"><ele>404.0</ele><time>2026-04-25T12:31:22.957Z</time></trkpt><trkpt lat="46.19452" lon="12.59661"><ele>404.0</ele><time>2026-04-25T12:31:23.957Z</time></trkpt><trkpt lat="46.1946133" lon="12.596885"><ele>404.0</ele><time>2026-04-25T12:31:24.957Z</time></trkpt><trkpt lat="46.19471" lon="12.5971617"><ele>404.0</ele><time>2026-04-25T12:31:25.958Z</time></trkpt><trkpt lat="46.1947983" lon="12.5974417"><ele>404.0</ele><time>2026-04-25T12:31:26.957Z</time></trkpt><trkpt lat="46.1948867" lon="12.5977183"><ele>404.0</ele><time>2026-04-25T12:31:27.958Z</time></trkpt><trkpt lat="46.194975" lon="12.5979967"><ele>401.3333333333333</ele><time>2026-04-25T12:31:28.958Z</time></trkpt><trkpt lat="46.1950617" lon="12.5982767"><ele>398.66666666666663</ele><time>2026-04-25T12:31:29.958Z</time></trkpt><trkpt lat="46.19515" lon="12.598555"><ele>396.0</ele><time>2026-04-25T12:31:30.958Z</time></trkpt><trkpt lat="46.195235" lon="12.598835"><ele>395.66666666666663</ele><time>2026-04-25T12:31:31.961Z</time></trkpt><trkpt lat="46.195315" lon="12.5991167"><ele>395.3333333333333</ele><time>2026-04-25T12:31:32.958Z</time></trkpt><trkpt lat="46.19539" lon="12.5993983"><ele>395.0</ele><time>2026-04-25T12:31:33.957Z</time></trkpt><trkpt lat="46.1954533" lon="12.599685"><ele>395.0</ele><time>2026-04-25T12:31:34.957Z</time></trkpt><trkpt lat="46.1955083" lon="12.5999767"><ele>395.0</ele><time>2026-04-25T12:31:35.956Z</time></trkpt><trkpt lat="46.1955517" lon="12.6002717"><ele>395.0</ele><time>2026-04-25T12:31:36.957Z</time></trkpt><trkpt lat="46.1955867" lon="12.6005683"><ele>396.0</ele><time>2026-04-25T12:31:37.958Z</time></trkpt><trkpt lat="46.195615" lon="12.600875"><ele>397.0</ele><time>2026-04-25T12:31:38.958Z</time></trkpt><trkpt lat="46.1956433" lon="12.6011833"><ele>398.0</ele><time>2026-04-25T12:31:39.959Z</time></trkpt><trkpt lat="46.19567" lon="12.60149"><ele>402.66666666666663</ele><time>2026-04-25T12:31:40.959Z</time></trkpt><trkpt lat="46.1956933" lon="12.6017983"><ele>407.33333333333337</ele><time>2026-04-25T12:31:41.959Z</time></trkpt><trkpt lat="46.1957167" lon="12.60211"><ele>412.0</ele><time>2026-04-25T12:31:42.956Z</time></trkpt><trkpt lat="46.1957417" lon="12.602415"><ele>412.0</ele><time>2026-04-25T12:31:43.959Z</time></trkpt><trkpt lat="46.1957667" lon="12.602725"><ele>412.0</ele><time>2026-04-25T12:31:44.957Z</time></trkpt><trkpt lat="46.195785" lon="12.603035"><ele>412.0</ele><time>2026-04-25T12:31:45.958Z</time></trkpt><trkpt lat="46.1957717" lon="12.60334"><ele>411.6666666666667</ele><time>2026-04-25T12:31:46.957Z</time></trkpt><trkpt lat="46.1956917" lon="12.6035733"><ele>411.33333333333337</ele><time>2026-04-25T12:31:47.957Z</time></trkpt><trkpt lat="46.1956483" lon="12.60383"><ele>411.0</ele><time>2026-04-25T12:31:48.957Z</time></trkpt><trkpt lat="46.1956217" lon="12.6041017"><ele>412.66666666666663</ele><time>2026-04-25T12:31:49.958Z</time></trkpt><trkpt lat="46.195585" lon="12.60438"><ele>414.3333333333333</ele><time>2026-04-25T12:31:50.956Z</time></trkpt><trkpt lat="46.1955433" lon="12.6046567"><ele>416.0</ele><time>2026-04-25T12:31:51.957Z</time></trkpt><trkpt lat="46.1954983" lon="12.6049383"><ele>419.0</ele><time>2026-04-25T12:31:52.957Z</time></trkpt><trkpt lat="46.1954483" lon="12.6052233"><ele>422.0</ele><time>2026-04-25T12:31:53.956Z</time></trkpt><trkpt lat="46.1953967" lon="12.60551"><ele>425.0</ele><time>2026-04-25T12:31:54.957Z</time></trkpt><trkpt lat="46.1953367" lon="12.6057933"><ele>425.66666666666663</ele><time>2026-04-25T12:31:55.958Z</time></trkpt><trkpt lat="46.1952667" lon="12.6060733"><ele>426.33333333333337</ele><time>2026-04-25T12:31:56.957Z</time></trkpt><trkpt lat="46.1951933" lon="12.6063517"><ele>427.0</ele><time>2026-04-25T12:31:57.957Z</time></trkpt><trkpt lat="46.1951183" lon="12.6066283"><ele>428.6666666666667</ele><time>2026-04-25T12:31:58.957Z</time></trkpt><trkpt lat="46.1950433" lon="12.606905"><ele>430.33333333333337</ele><time>2026-04-25T12:31:59.957Z</time></trkpt><trkpt lat="46.1949717" lon="12.607185"><ele>432.0</ele><time>2026-04-25T12:32:00.957Z</time></trkpt><trkpt lat="46.1949" lon="12.6074567"><ele>316.0</ele><time>2026-04-25T12:32:01.957Z</time></trkpt><trkpt lat="46.1652667" lon="12.63374"><ele>316.0</ele><time>2026-04-25T12:34:26.957Z</time></trkpt><trkpt lat="46.165195" lon="12.63407"><ele>316.0</ele><time>2026-04-25T12:34:27.957Z</time></trkpt><trkpt lat="46.165135" lon="12.6344017"><ele>325.5</ele><time>2026-04-25T12:34:28.957Z</time></trkpt><trkpt lat="46.1650767" lon="12.6347383"><ele>335.0</ele><time>2026-04-25T12:34:29.955Z</time></trkpt><trkpt lat="46.1650267" lon="12.6350783"><ele>336.5</ele><time>2026-04-25T12:34:30.956Z</time></trkpt><trkpt lat="46.1649833" lon="12.6354217"><ele>338.0</ele><time>2026-04-25T12:34:31.957Z</time></trkpt><trkpt lat="46.1649417" lon="12.6357617"><ele>338.0</ele><time>2026-04-25T12:34:32.957Z</time></trkpt><trkpt lat="46.1649083" lon="12.636105"><ele>338.0</ele><time>2026-04-25T12:34:33.957Z</time></trkpt><trkpt lat="46.1648833" lon="12.6364467"><ele>333.0</ele><time>2026-04-25T12:34:34.957Z</time></trkpt><trkpt lat="46.1648683" lon="12.6367883"><ele>328.0</ele><time>2026-04-25T12:34:35.955Z</time></trkpt><trkpt lat="46.16486" lon="12.63713"><ele>326.5</ele><time>2026-04-25T12:34:36.957Z</time></trkpt><trkpt lat="46.16486" lon="12.6374733"><ele>325.0</ele><time>2026-04-25T12:34:37.956Z</time></trkpt><trkpt lat="46.164865" lon="12.6378217"><ele>325.0</ele><time>2026-04-25T12:34:38.955Z</time></trkpt><trkpt lat="46.1648767" lon="12.6381583"><ele>325.0</ele><time>2026-04-25T12:34:39.956Z</time></trkpt><trkpt lat="46.16489" lon="12.6384917"><ele>326.5</ele><time>2026-04-25T12:34:40.957Z</time></trkpt><trkpt lat="46.1649033" lon="12.6388217"><ele>328.0</ele><time>2026-04-25T12:34:41.956Z</time></trkpt><trkpt lat="46.1649133" lon="12.63915"><ele>335.0</ele><time>2026-04-25T12:34:42.957Z</time></trkpt><trkpt lat="46.1649217" lon="12.6394767"><ele>342.0</ele><time>2026-04-25T12:34:43.957Z</time></trkpt><trkpt lat="46.1649317" lon="12.6398067"><ele>342.0</ele><time>2026-04-25T12:34:44.956Z</time></trkpt><trkpt lat="46.16494" lon="12.6401367"><ele>342.0</ele><time>2026-04-25T12:34:45.959Z</time></trkpt><trkpt lat="46.1649467" lon="12.640465"><ele>344.0</ele><time>2026-04-25T12:34:46.957Z</time></trkpt><trkpt lat="46.1649533" lon="12.6407933"><ele>346.0</ele><time>2026-04-25T12:34:47.956Z</time></trkpt><trkpt lat="46.1649617" lon="12.6411217"><ele>347.0</ele><time>2026-04-25T12:34:48.956Z</time></trkpt><trkpt lat="46.16497" lon="12.6414533"><ele>348.0</ele><time>2026-04-25T12:34:49.956Z</time></trkpt><trkpt lat="46.16498" lon="12.6417883"><ele>350.0</ele><time>2026-04-25T12:34:50.957Z</time></trkpt><trkpt lat="46.1649867" lon="12.6421217"><ele>352.0</ele><time>2026-04-25T12:34:51.957Z</time></trkpt><trkpt lat="46.1649983" lon="12.6424583"><ele>352.0</ele><time>2026-04-25T12:34:52.957Z</time></trkpt><trkpt lat="46.16501" lon="12.6427933"><ele>352.0</ele><time>2026-04-25T12:34:53.957Z</time></trkpt><trkpt lat="46.1650183" lon="12.6431267"><ele>351.0</ele><time>2026-04-25T12:34:54.957Z</time></trkpt><trkpt lat="46.1650267" lon="12.6434617"><ele>350.0</ele><time>2026-04-25T12:34:55.956Z</time></trkpt><trkpt lat="46.1650367" lon="12.64379"><ele>350.0</ele><time>2026-04-25T12:34:56.955Z</time></trkpt><trkpt lat="46.1650467" lon="12.6441167"><ele>350.0</ele><time>2026-04-25T12:34:57.956Z</time></trkpt><trkpt lat="46.1650533" lon="12.6444417"><ele>351.33333333333337</ele><time>2026-04-25T12:34:58.956Z</time></trkpt><trkpt lat="46.16506" lon="12.644765"><ele>352.6666666666667</ele><time>2026-04-25T12:34:59.957Z</time></trkpt><trkpt lat="46.165065" lon="12.6450833"><ele>354.0</ele><time>2026-04-25T12:35:00.956Z</time></trkpt><trkpt lat="46.1650717" lon="12.6454033"><ele>354.0</ele><time>2026-04-25T12:35:01.958Z</time></trkpt><trkpt lat="46.1650783" lon="12.6457183"><ele>354.0</ele><time>2026-04-25T12:35:02.957Z</time></trkpt><trkpt lat="46.1650833" lon="12.646035"><ele>354.0</ele><time>2026-04-25T12:35:03.958Z</time></trkpt><trkpt lat="46.1650833" lon="12.6463467"><ele>352.3333333333333</ele><time>2026-04-25T12:35:04.957Z</time></trkpt><trkpt lat="46.1650783" lon="12.6466467"><ele>350.66666666666663</ele><time>2026-04-25T12:35:05.957Z</time></trkpt><trkpt lat="46.1650633" lon="12.6469317"><ele>349.0</ele><time>2026-04-25T12:35:06.957Z</time></trkpt><trkpt lat="46.1650383" lon="12.6472"><ele>349.0</ele><time>2026-04-25T12:35:07.957Z</time></trkpt><trkpt lat="46.1650083" lon="12.6474583"><ele>349.0</ele><time>2026-04-25T12:35:08.957Z</time></trkpt><trkpt lat="46.1649733" lon="12.6477183"><ele>349.0</ele><time>2026-04-25T12:35:09.957Z</time></trkpt><trkpt lat="46.1649367" lon="12.647985"><ele>348.66666666666663</ele><time>2026-04-25T12:35:10.957Z</time></trkpt><trkpt lat="46.1648967" lon="12.6482567"><ele>348.3333333333333</ele><time>2026-04-25T12:35:11.955Z</time></trkpt><trkpt lat="46.1648583" lon="12.648535"><ele>348.0</ele><time>2026-04-25T12:35:12.957Z</time></trkpt><trkpt lat="46.16482" lon="12.6488217"><ele>370.66666666666663</ele><time>2026-04-25T12:35:13.956Z</time></trkpt><trkpt lat="46.1647833" lon="12.6491083"><ele>393.3333333333333</ele><time>2026-04-25T12:35:14.957Z</time></trkpt><trkpt lat="46.1647483" lon="12.6493983"><ele>416.0</ele><time>2026-04-25T12:35:15.957Z</time></trkpt><trkpt lat="46.1647183" lon="12.64969"><ele>416.0</ele><time>2026-04-25T12:35:16.957Z</time></trkpt><trkpt lat="46.1646967" lon="12.6499867"><ele>416.0</ele><time>2026-04-25T12:35:17.956Z</time></trkpt><trkpt lat="46.1646833" lon="12.6502783"><ele>416.0</ele><time>2026-04-25T12:35:18.956Z</time></trkpt><trkpt lat="46.1646767" lon="12.6505683"><ele>419.66666666666663</ele><time>2026-04-25T12:35:19.957Z</time></trkpt><trkpt lat="46.1646783" lon="12.6508483"><ele>423.33333333333337</ele><time>2026-04-25T12:35:20.956Z</time></trkpt><trkpt lat="46.164695" lon="12.65112"><ele>427.0</ele><time>2026-04-25T12:35:21.957Z</time></trkpt><trkpt lat="46.16472" lon="12.6513733"><ele>427.0</ele><time>2026-04-25T12:35:22.957Z</time></trkpt><trkpt lat="46.164755" lon="12.651605"><ele>427.0</ele><time>2026-04-25T12:35:23.956Z</time></trkpt><trkpt lat="46.1647867" lon="12.651815"><ele>427.0</ele><time>2026-04-25T12:35:24.956Z</time></trkpt><trkpt lat="46.1648167" lon="12.652015"><ele>427.0</ele><time>2026-04-25T12:35:25.957Z</time></trkpt><trkpt lat="46.1648383" lon="12.6522083"><ele>427.0</ele><time>2026-04-25T12:35:26.955Z</time></trkpt><trkpt lat="46.1648467" lon="12.6523967"><ele>427.0</ele><time>2026-04-25T12:35:27.956Z</time></trkpt><trkpt lat="46.16483" lon="12.6525783"><ele>427.0</ele><time>2026-04-25T12:35:28.957Z</time></trkpt><trkpt lat="46.1647967" lon="12.652765"><ele>424.75</ele><time>2026-04-25T12:35:29.957Z</time></trkpt><trkpt lat="46.1647617" lon="12.65296"><ele>422.5</ele><time>2026-04-25T12:35:30.956Z</time></trkpt><trkpt lat="46.1647217" lon="12.6531617"><ele>420.25</ele><time>2026-04-25T12:35:31.958Z</time></trkpt><trkpt lat="46.164685" lon="12.6533683"><ele>418.0</ele><time>2026-04-25T12:35:32.956Z</time></trkpt><trkpt lat="46.1633983" lon="12.6562133"><ele>403.75</ele><time>2026-04-25T12:35:46.957Z</time></trkpt><trkpt lat="46.1633117" lon="12.6563783"><ele>389.5</ele><time>2026-04-25T12:35:47.955Z</time></trkpt><trkpt lat="46.163185" lon="12.6564817"><ele>375.25</ele><time>2026-04-25T12:35:48.955Z</time></trkpt><trkpt lat="46.16306" lon="12.65651"><ele>361.0</ele><time>2026-04-25T12:35:49.957Z</time></trkpt><trkpt lat="46.1629167" lon="12.6564933"><ele>357.6</ele><time>2026-04-25T12:35:50.956Z</time></trkpt><trkpt lat="46.1627933" lon="12.656465"><ele>354.20000000000005</ele><time>2026-04-25T12:35:51.956Z</time></trkpt><trkpt lat="46.1626867" lon="12.6564683"><ele>350.79999999999995</ele><time>2026-04-25T12:35:52.957Z</time></trkpt><trkpt lat="46.1626033" lon="12.65652"><ele>347.4</ele><time>2026-04-25T12:35:53.956Z</time></trkpt><trkpt lat="46.1625617" lon="12.6566083"><ele>344.0</ele><time>2026-04-25T12:35:54.956Z</time></trkpt><trkpt lat="46.1625667" lon="12.6567117"><ele>344.0</ele><time>2026-04-25T12:35:55.957Z</time></trkpt><trkpt lat="46.162605" lon="12.6568233"><ele>344.0</ele><time>2026-04-25T12:35:56.956Z</time></trkpt><trkpt lat="46.162705" lon="12.6569417"><ele>344.0</ele><time>2026-04-25T12:35:57.956Z</time></trkpt><trkpt lat="46.1628183" lon="12.65705"><ele>344.0</ele><time>2026-04-25T12:35:58.956Z</time></trkpt><trkpt lat="46.162945" lon="12.6571633"><ele>344.25</ele><time>2026-04-25T12:35:59.956Z</time></trkpt><trkpt lat="46.1630633" lon="12.6572733"><ele>344.5</ele><time>2026-04-25T12:36:00.957Z</time></trkpt><trkpt lat="46.163175" lon="12.657385"><ele>344.75</ele><time>2026-04-25T12:36:01.957Z</time></trkpt><trkpt lat="46.1632733" lon="12.6575117"><ele>345.0</ele><time>2026-04-25T12:36:02.957Z</time></trkpt><trkpt lat="46.1633567" lon="12.65765"><ele>342.75</ele><time>2026-04-25T12:36:03.957Z</time></trkpt><trkpt lat="46.163415" lon="12.6578117"><ele>340.5</ele><time>2026-04-25T12:36:04.956Z</time></trkpt><trkpt lat="46.1634417" lon="12.6579833"><ele>338.25</ele><time>2026-04-25T12:36:05.956Z</time></trkpt><trkpt lat="46.16345" lon="12.6581667"><ele>336.0</ele><time>2026-04-25T12:36:06.955Z</time></trkpt><trkpt lat="46.1634417" lon="12.6583517"><ele>336.0</ele><time>2026-04-25T12:36:07.957Z</time></trkpt><trkpt lat="46.1634283" lon="12.65855"><ele>336.0</ele><time>2026-04-25T12:36:08.955Z</time></trkpt><trkpt lat="46.1634067" lon="12.658755"><ele>336.0</ele><time>2026-04-25T12:36:09.956Z</time></trkpt><trkpt lat="46.1633783" lon="12.658955"><ele>336.0</ele><time>2026-04-25T12:36:10.957Z</time></trkpt><trkpt lat="46.1633483" lon="12.6591483"><ele>334.25</ele><time>2026-04-25T12:36:11.955Z</time></trkpt><trkpt lat="46.16332" lon="12.65934"><ele>332.5</ele><time>2026-04-25T12:36:12.956Z</time></trkpt><trkpt lat="46.1632917" lon="12.6595233"><ele>330.75</ele><time>2026-04-25T12:36:13.965Z</time></trkpt><trkpt lat="46.163265" lon="12.6597033"><ele>329.0</ele><time>2026-04-25T12:36:14.956Z</time></trkpt><trkpt lat="46.1632383" lon="12.65988"><ele>327.5</ele><time>2026-04-25T12:36:15.956Z</time></trkpt><trkpt lat="46.1632133" lon="12.6600467"><ele>326.0</ele><time>2026-04-25T12:36:16.957Z</time></trkpt><trkpt lat="46.1631883" lon="12.6602117"><ele>324.5</ele><time>2026-04-25T12:36:17.956Z</time></trkpt><trkpt lat="46.16316" lon="12.660375"><ele>323.0</ele><time>2026-04-25T12:36:18.956Z</time></trkpt><trkpt lat="46.1631317" lon="12.6605317"><ele>322.5</ele><time>2026-04-25T12:36:19.957Z</time></trkpt><trkpt lat="46.1631083" lon="12.660675"><ele>322.0</ele><time>2026-04-25T12:36:20.956Z</time></trkpt><trkpt lat="46.1630867" lon="12.6607983"><ele>321.5</ele><time>2026-04-25T12:36:21.957Z</time></trkpt><trkpt lat="46.16307" lon="12.6609033"><ele>321.0</ele><time>2026-04-25T12:36:22.957Z</time></trkpt><trkpt lat="46.1630467" lon="12.661045"><ele>320.5</ele><time>2026-04-25T12:36:24.957Z</time></trkpt><trkpt lat="46.1630217" lon="12.6611533"><ele>320.0</ele><time>2026-04-25T12:36:27.957Z</time></trkpt><trkpt lat="46.1630617" lon="12.6612617"><ele>319.8</ele><time>2026-04-25T12:36:30.957Z</time></trkpt><trkpt lat="46.1631867" lon="12.6612733"><ele>319.6</ele><time>2026-04-25T12:36:32.957Z</time></trkpt><trkpt lat="46.16326" lon="12.6612733"><ele>319.4</ele><time>2026-04-25T12:36:33.957Z</time></trkpt><trkpt lat="46.16335" lon="12.66128"><ele>319.2</ele><time>2026-04-25T12:36:34.957Z</time></trkpt><trkpt lat="46.163445" lon="12.66129"><ele>319.0</ele><time>2026-04-25T12:36:35.956Z</time></trkpt><trkpt lat="46.1635567" lon="12.6612883"><ele>319.5</ele><time>2026-04-25T12:36:36.957Z</time></trkpt><trkpt lat="46.163685" lon="12.6613083"><ele>320.0</ele><time>2026-04-25T12:36:37.957Z</time></trkpt><trkpt lat="46.163805" lon="12.6613083"><ele>320.5</ele><time>2026-04-25T12:36:38.956Z</time></trkpt><trkpt lat="46.1639367" lon="12.661305"><ele>321.0</ele><time>2026-04-25T12:36:39.957Z</time></trkpt><trkpt lat="46.1640667" lon="12.6612933"><ele>321.25</ele><time>2026-04-25T12:36:40.957Z</time></trkpt><trkpt lat="46.1642017" lon="12.661275"><ele>321.5</ele><time>2026-04-25T12:36:41.956Z</time></trkpt><trkpt lat="46.1643367" lon="12.6612567"><ele>321.75</ele><time>2026-04-25T12:36:42.957Z</time></trkpt><trkpt lat="46.16447" lon="12.6612367"><ele>322.0</ele><time>2026-04-25T12:36:43.955Z</time></trkpt><trkpt lat="46.1646017" lon="12.6612267"><ele>322.0</ele><time>2026-04-25T12:36:44.956Z</time></trkpt><trkpt lat="46.164735" lon="12.6612417"><ele>322.0</ele><time>2026-04-25T12:36:45.956Z</time></trkpt><trkpt lat="46.16487" lon="12.6612467"><ele>322.0</ele><time>2026-04-25T12:36:46.959Z</time></trkpt><trkpt lat="46.1650083" lon="12.6612483"><ele>322.0</ele><time>2026-04-25T12:36:47.956Z</time></trkpt><trkpt lat="46.1651433" lon="12.6612283"><ele>321.5</ele><time>2026-04-25T12:36:48.956Z</time></trkpt><trkpt lat="46.1652833" lon="12.66119"><ele>321.0</ele><time>2026-04-25T12:36:49.957Z</time></trkpt><trkpt lat="46.1654233" lon="12.66113"><ele>320.5</ele><time>2026-04-25T12:36:50.957Z</time></trkpt><trkpt lat="46.1655583" lon="12.6610683"><ele>320.0</ele><time>2026-04-25T12:36:51.957Z</time></trkpt><trkpt lat="46.1656917" lon="12.6610083"><ele>322.25</ele><time>2026-04-25T12:36:52.956Z</time></trkpt><trkpt lat="46.1658217" lon="12.660955"><ele>324.5</ele><time>2026-04-25T12:36:53.955Z</time></trkpt><trkpt lat="46.16595" lon="12.6609"><ele>326.75</ele><time>2026-04-25T12:36:54.957Z</time></trkpt><trkpt lat="46.166075" lon="12.66085"><ele>329.0</ele><time>2026-04-25T12:36:55.958Z</time></trkpt><trkpt lat="46.1662083" lon="12.66081"><ele>329.0</ele><time>2026-04-25T12:36:56.957Z</time></trkpt><trkpt lat="46.166345" lon="12.6607867"><ele>329.0</ele><time>2026-04-25T12:36:57.957Z</time></trkpt><trkpt lat="46.166485" lon="12.6607833"><ele>329.0</ele><time>2026-04-25T12:36:58.956Z</time></trkpt><trkpt lat="46.1666317" lon="12.6608"><ele>329.0</ele><time>2026-04-25T12:36:59.957Z</time></trkpt><trkpt lat="46.1667833" lon="12.6608283"><ele>330.0</ele><time>2026-04-25T12:37:00.957Z</time></trkpt><trkpt lat="46.1669467" lon="12.6608667"><ele>331.0</ele><time>2026-04-25T12:37:01.957Z</time></trkpt><trkpt lat="46.16711" lon="12.6609133"><ele>332.0</ele><time>2026-04-25T12:37:02.957Z</time></trkpt><trkpt lat="46.1672783" lon="12.6609617"><ele>333.6666666666667</ele><time>2026-04-25T12:37:03.957Z</time></trkpt><trkpt lat="46.167455" lon="12.66101"><ele>335.3333333333333</ele><time>2026-04-25T12:37:04.958Z</time></trkpt><trkpt lat="46.1676367" lon="12.6610583"><ele>337.0</ele><time>2026-04-25T12:37:05.955Z</time></trkpt><trkpt lat="46.1678233" lon="12.6611117"><ele>329.0</ele><time>2026-04-25T12:37:06.956Z</time></trkpt><trkpt lat="46.16801" lon="12.6611683"><ele>321.0</ele><time>2026-04-25T12:37:07.957Z</time></trkpt><trkpt lat="46.1681967" lon="12.6612183"><ele>313.0</ele><time>2026-04-25T12:37:08.956Z</time></trkpt><trkpt lat="46.1683833" lon="12.6612683"><ele>312.3333333333333</ele><time>2026-04-25T12:37:09.956Z</time></trkpt><trkpt lat="46.1685683" lon="12.6613133"><ele>311.6666666666667</ele><time>2026-04-25T12:37:10.957Z</time></trkpt><trkpt lat="46.1687533" lon="12.6613567"><ele>311.0</ele><time>2026-04-25T12:37:11.956Z</time></trkpt><trkpt lat="46.168935" lon="12.6613983"><ele>314.33333333333337</ele><time>2026-04-25T12:37:12.955Z</time></trkpt><trkpt lat="46.1691183" lon="12.6614383"><ele>317.6666666666667</ele><time>2026-04-25T12:37:13.956Z</time></trkpt><trkpt lat="46.1693017" lon="12.6614883"><ele>321.0</ele><time>2026-04-25T12:37:14.956Z</time></trkpt><trkpt lat="46.16948" lon="12.6615433"><ele>321.0</ele><time>2026-04-25T12:37:15.957Z</time></trkpt><trkpt lat="46.1696533" lon="12.6615967"><ele>321.0</ele><time>2026-04-25T12:37:16.957Z</time></trkpt><trkpt lat="46.1698183" lon="12.6616483"><ele>321.0</ele><time>2026-04-25T12:37:17.957Z</time></trkpt><trkpt lat="46.1699783" lon="12.661705"><ele>323.6666666666667</ele><time>2026-04-25T12:37:18.958Z</time></trkpt><trkpt lat="46.17013" lon="12.6617883"><ele>326.33333333333337</ele><time>2026-04-25T12:37:19.957Z</time></trkpt><trkpt lat="46.1702817" lon="12.6618917"><ele>329.0</ele><time>2026-04-25T12:37:20.956Z</time></trkpt><trkpt lat="46.1704283" lon="12.6620117"><ele>323.33333333333337</ele><time>2026-04-25T12:37:21.957Z</time></trkpt><trkpt lat="46.1705717" lon="12.6621333"><ele>317.6666666666667</ele><time>2026-04-25T12:37:22.957Z</time></trkpt><trkpt lat="46.170715" lon="12.6622433"><ele>312.0</ele><time>2026-04-25T12:37:23.957Z</time></trkpt><trkpt lat="46.1708583" lon="12.6623433"><ele>312.0</ele><time>2026-04-25T12:37:24.957Z</time></trkpt><trkpt lat="46.171" lon="12.6624117"><ele>312.0</ele><time>2026-04-25T12:37:25.957Z</time></trkpt><trkpt lat="46.1711367" lon="12.6624667"><ele>312.0</ele><time>2026-04-25T12:37:26.956Z</time></trkpt><trkpt lat="46.1712583" lon="12.6625283"><ele>312.0</ele><time>2026-04-25T12:37:27.957Z</time></trkpt><trkpt lat="46.1713717" lon="12.6625883"><ele>312.0</ele><time>2026-04-25T12:37:28.957Z</time></trkpt><trkpt lat="46.1714883" lon="12.6626167"><ele>312.0</ele><time>2026-04-25T12:37:29.956Z</time></trkpt><trkpt lat="46.1716133" lon="12.6626"><ele>312.0</ele><time>2026-04-25T12:37:30.956Z</time></trkpt><trkpt lat="46.17174" lon="12.6625533"><ele>312.0</ele><time>2026-04-25T12:37:31.958Z</time></trkpt><trkpt lat="46.1718633" lon="12.6624917"><ele>312.0</ele><time>2026-04-25T12:37:32.957Z</time></trkpt><trkpt lat="46.1719817" lon="12.6624333"><ele>312.0</ele><time>2026-04-25T12:37:33.957Z</time></trkpt><trkpt lat="46.1720917" lon="12.6623717"><ele>312.0</ele><time>2026-04-25T12:37:34.956Z</time></trkpt><trkpt lat="46.1721933" lon="12.6622783"><ele>312.0</ele><time>2026-04-25T12:37:35.957Z</time></trkpt><trkpt lat="46.17228" lon="12.66214"><ele>312.0</ele><time>2026-04-25T12:37:36.956Z</time></trkpt><trkpt lat="46.172355" lon="12.66197"><ele>312.0</ele><time>2026-04-25T12:37:37.956Z</time></trkpt><trkpt lat="46.17242" lon="12.6617917"><ele>312.0</ele><time>2026-04-25T12:37:38.957Z</time></trkpt><trkpt lat="46.1725033" lon="12.6616367"><ele>312.0</ele><time>2026-04-25T12:37:39.956Z</time></trkpt><trkpt lat="46.17259" lon="12.6615033"><ele>311.2</ele><time>2026-04-25T12:37:40.956Z</time></trkpt><trkpt lat="46.1726833" lon="12.6613783"><ele>310.4</ele><time>2026-04-25T12:37:41.957Z</time></trkpt><trkpt lat="46.17277" lon="12.6612617"><ele>309.6</ele><time>2026-04-25T12:37:42.957Z</time></trkpt><trkpt lat="46.1728533" lon="12.6611683"><ele>308.8</ele><time>2026-04-25T12:37:43.957Z</time></trkpt><trkpt lat="46.17294" lon="12.6611183"><ele>308.0</ele><time>2026-04-25T12:37:44.956Z</time></trkpt><trkpt lat="46.1730383" lon="12.66112"><ele>308.0</ele><time>2026-04-25T12:37:45.957Z</time></trkpt><trkpt lat="46.1731483" lon="12.661155"><ele>308.0</ele><time>2026-04-25T12:37:46.956Z</time></trkpt><trkpt lat="46.1732567" lon="12.6612033"><ele>308.0</ele><time>2026-04-25T12:37:47.956Z</time></trkpt><trkpt lat="46.1733617" lon="12.6612467"><ele>308.0</ele><time>2026-04-25T12:37:48.956Z</time></trkpt><trkpt lat="46.1734617" lon="12.6612867"><ele>308.0</ele><time>2026-04-25T12:37:49.957Z</time></trkpt><trkpt lat="46.1735533" lon="12.66133"><ele>305.5</ele><time>2026-04-25T12:37:50.956Z</time></trkpt><trkpt lat="46.1736417" lon="12.6613717"><ele>303.0</ele><time>2026-04-25T12:37:51.956Z</time></trkpt><trkpt lat="46.173725" lon="12.66141"><ele>300.5</ele><time>2026-04-25T12:37:52.957Z</time></trkpt><trkpt lat="46.173795" lon="12.6614467"><ele>298.0</ele><time>2026-04-25T12:37:53.956Z</time></trkpt><trkpt lat="46.17386" lon="12.6615"><ele>295.5</ele><time>2026-04-25T12:37:54.957Z</time></trkpt><trkpt lat="46.1738633" lon="12.66164"><ele>293.0</ele><time>2026-04-25T12:37:56.956Z</time></trkpt><trkpt lat="46.173835" lon="12.6617233"><ele>293.0</ele><time>2026-04-25T12:37:57.956Z</time></trkpt><trkpt lat="46.1738133" lon="12.6618183"><ele>293.0</ele><time>2026-04-25T12:37:58.957Z</time></trkpt><trkpt lat="46.173795" lon="12.6619183"><ele>293.0</ele><time>2026-04-25T12:37:59.956Z</time></trkpt><trkpt lat="46.17378" lon="12.66203"><ele>293.0</ele><time>2026-04-25T12:38:00.957Z</time></trkpt><trkpt lat="46.1737617" lon="12.66215"><ele>293.0</ele><time>2026-04-25T12:38:01.957Z</time></trkpt><trkpt lat="46.1737433" lon="12.6622733"><ele>293.0</ele><time>2026-04-25T12:38:02.957Z</time></trkpt><trkpt lat="46.1737217" lon="12.6624017"><ele>294.4</ele><time>2026-04-25T12:38:03.957Z</time></trkpt><trkpt lat="46.1736917" lon="12.6625333"><ele>295.8</ele><time>2026-04-25T12:38:04.958Z</time></trkpt><trkpt lat="46.1736467" lon="12.662655"><ele>297.2</ele><time>2026-04-25T12:38:05.957Z</time></trkpt><trkpt lat="46.17359" lon="12.6627633"><ele>298.6</ele><time>2026-04-25T12:38:06.958Z</time></trkpt><trkpt lat="46.1735183" lon="12.6628567"><ele>300.0</ele><time>2026-04-25T12:38:07.958Z</time></trkpt><trkpt lat="46.1734483" lon="12.6629567"><ele>303.5</ele><time>2026-04-25T12:38:08.955Z</time></trkpt><trkpt lat="46.173385" lon="12.6630767"><ele>307.0</ele><time>2026-04-25T12:38:09.958Z</time></trkpt><trkpt lat="46.1733267" lon="12.6632117"><ele>310.5</ele><time>2026-04-25T12:38:10.958Z</time></trkpt><trkpt lat="46.17327" lon="12.66336"><ele>314.0</ele><time>2026-04-25T12:38:11.956Z</time></trkpt><trkpt lat="46.173225" lon="12.6635183"><ele>307.0</ele><time>2026-04-25T12:38:12.956Z</time></trkpt><trkpt lat="46.1731833" lon="12.6636867"><ele>300.0</ele><time>2026-04-25T12:38:13.956Z</time></trkpt><trkpt lat="46.1731483" lon="12.66386"><ele>293.0</ele><time>2026-04-25T12:38:14.955Z</time></trkpt><trkpt lat="46.1731117" lon="12.6640367"><ele>286.0</ele><time>2026-04-25T12:38:15.956Z</time></trkpt><trkpt lat="46.1730683" lon="12.664215"><ele>286.0</ele><time>2026-04-25T12:38:16.956Z</time></trkpt><trkpt lat="46.1730217" lon="12.6643967"><ele>286.0</ele><time>2026-04-25T12:38:17.957Z</time></trkpt><trkpt lat="46.172965" lon="12.6645783"><ele>286.0</ele><time>2026-04-25T12:38:18.957Z</time></trkpt><trkpt lat="46.1729" lon="12.6647617"><ele>286.0</ele><time>2026-04-25T12:38:19.957Z</time></trkpt><trkpt lat="46.1728267" lon="12.664945"><ele>290.0</ele><time>2026-04-25T12:38:20.955Z</time></trkpt><trkpt lat="46.1727467" lon="12.6651267"><ele>294.0</ele><time>2026-04-25T12:38:21.957Z</time></trkpt><trkpt lat="46.1726567" lon="12.665315"><ele>298.0</ele><time>2026-04-25T12:38:22.957Z</time></trkpt><trkpt lat="46.1725633" lon="12.6655"><ele>293.66666666666663</ele><time>2026-04-25T12:38:23.957Z</time></trkpt><trkpt lat="46.1724633" lon="12.6656833"><ele>289.3333333333333</ele><time>2026-04-25T12:38:24.957Z</time></trkpt><trkpt lat="46.17236" lon="12.665865"><ele>285.0</ele><time>2026-04-25T12:38:25.957Z</time></trkpt><trkpt lat="46.1722633" lon="12.6660483"><ele>291.0</ele><time>2026-04-25T12:38:26.956Z</time></trkpt><trkpt lat="46.172175" lon="12.666245"><ele>297.0</ele><time>2026-04-25T12:38:27.956Z</time></trkpt><trkpt lat="46.1720783" lon="12.6664367"><ele>303.0</ele><time>2026-04-25T12:38:28.957Z</time></trkpt><trkpt lat="46.1719683" lon="12.6666117"><ele>303.0</ele><time>2026-04-25T12:38:29.957Z</time></trkpt><trkpt lat="46.17185" lon="12.66678"><ele>303.0</ele><time>2026-04-25T12:38:30.957Z</time></trkpt><trkpt lat="46.171735" lon="12.6669633"><ele>303.0</ele><time>2026-04-25T12:38:31.959Z</time></trkpt><trkpt lat="46.17162" lon="12.6671483"><ele>299.0</ele><time>2026-04-25T12:38:32.959Z</time></trkpt><trkpt lat="46.1714917" lon="12.66732"><ele>295.0</ele><time>2026-04-25T12:38:33.959Z</time></trkpt><trkpt lat="46.1713567" lon="12.6674883"><ele>291.0</ele><time>2026-04-25T12:38:34.958Z</time></trkpt><trkpt lat="46.1712217" lon="12.667665"><ele>301.3333333333333</ele><time>2026-04-25T12:38:35.958Z</time></trkpt><trkpt lat="46.171085" lon="12.6678433"><ele>311.66666666666663</ele><time>2026-04-25T12:38:36.958Z</time></trkpt><trkpt lat="46.1709467" lon="12.6680183"><ele>322.0</ele><time>2026-04-25T12:38:37.958Z</time></trkpt><trkpt lat="46.17081" lon="12.668185"><ele>319.66666666666663</ele><time>2026-04-25T12:38:38.957Z</time></trkpt><trkpt lat="46.1706733" lon="12.6683433"><ele>317.3333333333333</ele><time>2026-04-25T12:38:39.957Z</time></trkpt><trkpt lat="46.17053" lon="12.668495"><ele>315.0</ele><time>2026-04-25T12:38:40.958Z</time></trkpt><trkpt lat="46.1703783" lon="12.66864"><ele>315.0</ele><time>2026-04-25T12:38:41.958Z</time></trkpt><trkpt lat="46.1702267" lon="12.66879"><ele>315.0</ele><time>2026-04-25T12:38:42.957Z</time></trkpt><trkpt lat="46.170075" lon="12.6689533"><ele>315.0</ele><time>2026-04-25T12:38:43.957Z</time></trkpt><trkpt lat="46.16992" lon="12.6691233"><ele>313.6666666666667</ele><time>2026-04-25T12:38:44.956Z</time></trkpt><trkpt lat="46.1697717" lon="12.6693"><ele>312.33333333333337</ele><time>2026-04-25T12:38:45.956Z</time></trkpt><trkpt lat="46.1696267" lon="12.669485"><ele>311.0</ele><time>2026-04-25T12:38:46.956Z</time></trkpt><trkpt lat="46.1694917" lon="12.6696767"><ele>311.0</ele><time>2026-04-25T12:38:47.956Z</time></trkpt><trkpt lat="46.16935" lon="12.6698683"><ele>311.0</ele><time>2026-04-25T12:38:48.956Z</time></trkpt><trkpt lat="46.1692017" lon="12.670035"><ele>311.0</ele><time>2026-04-25T12:38:49.957Z</time></trkpt><trkpt lat="46.1690483" lon="12.6701967"><ele>310.33333333333337</ele><time>2026-04-25T12:38:50.957Z</time></trkpt><trkpt lat="46.1689033" lon="12.67038"><ele>309.6666666666667</ele><time>2026-04-25T12:38:51.958Z</time></trkpt><trkpt lat="46.168765" lon="12.6705867"><ele>309.0</ele><time>2026-04-25T12:38:52.957Z</time></trkpt><trkpt lat="46.1686167" lon="12.6707933"><ele>309.0</ele><time>2026-04-25T12:38:53.957Z</time></trkpt><trkpt lat="46.16846" lon="12.670985"><ele>309.0</ele><time>2026-04-25T12:38:54.957Z</time></trkpt><trkpt lat="46.1682867" lon="12.671165"><ele>309.0</ele><time>2026-04-25T12:38:55.957Z</time></trkpt><trkpt lat="46.1681117" lon="12.6713367"><ele>309.6666666666667</ele><time>2026-04-25T12:38:56.957Z</time></trkpt><trkpt lat="46.16793" lon="12.6715083"><ele>310.33333333333337</ele><time>2026-04-25T12:38:57.956Z</time></trkpt><trkpt lat="46.1677517" lon="12.6716783"><ele>311.0</ele><time>2026-04-25T12:38:58.956Z</time></trkpt><trkpt lat="46.1675767" lon="12.6718417"><ele>312.33333333333337</ele><time>2026-04-25T12:38:59.957Z</time></trkpt><trkpt lat="46.1674033" lon="12.671995"><ele>313.6666666666667</ele><time>2026-04-25T12:39:00.957Z</time></trkpt><trkpt lat="46.1672317" lon="12.6721267"><ele>315.0</ele><time>2026-04-25T12:39:01.959Z</time></trkpt><trkpt lat="46.16706" lon="12.6722333"><ele>315.0</ele><time>2026-04-25T12:39:02.957Z</time></trkpt><trkpt lat="46.166885" lon="12.67232"><ele>315.0</ele><time>2026-04-25T12:39:03.958Z</time></trkpt><trkpt lat="46.16671" lon="12.672405"><ele>315.0</ele><time>2026-04-25T12:39:04.959Z</time></trkpt><trkpt lat="46.16654" lon="12.672485"><ele>317.3333333333333</ele><time>2026-04-25T12:39:05.958Z</time></trkpt><trkpt lat="46.1663717" lon="12.6725617"><ele>319.66666666666663</ele><time>2026-04-25T12:39:06.958Z</time></trkpt><trkpt lat="46.1662067" lon="12.672665"><ele>322.0</ele><time>2026-04-25T12:39:07.957Z</time></trkpt><trkpt lat="46.16606" lon="12.6727933"><ele>322.0</ele><time>2026-04-25T12:39:08.957Z</time></trkpt><trkpt lat="46.1659233" lon="12.6729217"><ele>322.0</ele><time>2026-04-25T12:39:09.957Z</time></trkpt><trkpt lat="46.1657917" lon="12.6730417"><ele>322.0</ele><time>2026-04-25T12:39:10.957Z</time></trkpt><trkpt lat="46.1656617" lon="12.67315"><ele>321.0</ele><time>2026-04-25T12:39:11.957Z</time></trkpt><trkpt lat="46.16553" lon="12.6732417"><ele>320.0</ele><time>2026-04-25T12:39:12.957Z</time></trkpt><trkpt lat="46.1653883" lon="12.6732933"><ele>319.0</ele><time>2026-04-25T12:39:13.957Z</time></trkpt><trkpt lat="46.1652417" lon="12.67331"><ele>318.0</ele><time>2026-04-25T12:39:14.956Z</time></trkpt><trkpt lat="46.1650967" lon="12.6733033"><ele>318.0</ele><time>2026-04-25T12:39:15.957Z</time></trkpt><trkpt lat="46.1649567" lon="12.6733017"><ele>318.0</ele><time>2026-04-25T12:39:16.957Z</time></trkpt><trkpt lat="46.1648167" lon="12.6733233"><ele>318.0</ele><time>2026-04-25T12:39:17.958Z</time></trkpt><trkpt lat="46.16468" lon="12.6733817"><ele>318.0</ele><time>2026-04-25T12:39:18.956Z</time></trkpt><trkpt lat="46.1645483" lon="12.673475"><ele>317.3333333333333</ele><time>2026-04-25T12:39:19.957Z</time></trkpt><trkpt lat="46.164425" lon="12.673605"><ele>316.66666666666663</ele><time>2026-04-25T12:39:20.957Z</time></trkpt><trkpt lat="46.164315" lon="12.6737567"><ele>316.0</ele><time>2026-04-25T12:39:21.959Z</time></trkpt><trkpt lat="46.1642167" lon="12.67393"><ele>316.0</ele><time>2026-04-25T12:39:22.959Z</time></trkpt><trkpt lat="46.164125" lon="12.6741117"><ele>316.0</ele><time>2026-04-25T12:39:23.959Z</time></trkpt><trkpt lat="46.1640467" lon="12.6743067"><ele>316.0</ele><time>2026-04-25T12:39:24.959Z</time></trkpt><trkpt lat="46.163985" lon="12.67451"><ele>312.25</ele><time>2026-04-25T12:39:25.959Z</time></trkpt><trkpt lat="46.16394" lon="12.67471"><ele>308.5</ele><time>2026-04-25T12:39:26.958Z</time></trkpt><trkpt lat="46.1639033" lon="12.6749"><ele>304.75</ele><time>2026-04-25T12:39:27.96Z</time></trkpt><trkpt lat="46.1638583" lon="12.675085"><ele>301.0</ele><time>2026-04-25T12:39:28.959Z</time></trkpt><trkpt lat="46.1637867" lon="12.6752617"><ele>304.3333333333333</ele><time>2026-04-25T12:39:29.959Z</time></trkpt><trkpt lat="46.1636983" lon="12.6754383"><ele>307.6666666666667</ele><time>2026-04-25T12:39:30.958Z</time></trkpt><trkpt lat="46.1636017" lon="12.6756217"><ele>311.0</ele><time>2026-04-25T12:39:31.96Z</time></trkpt><trkpt lat="46.1634983" lon="12.675815"><ele>311.0</ele><time>2026-04-25T12:39:32.959Z</time></trkpt><trkpt lat="46.1633967" lon="12.6760117"><ele>311.0</ele><time>2026-04-25T12:39:33.959Z</time></trkpt><trkpt lat="46.1632917" lon="12.6762117"><ele>311.0</ele><time>2026-04-25T12:39:34.959Z</time></trkpt><trkpt lat="46.1631867" lon="12.676415"><ele>310.33333333333337</ele><time>2026-04-25T12:39:35.959Z</time></trkpt><trkpt lat="46.16308" lon="12.676625"><ele>309.6666666666667</ele><time>2026-04-25T12:39:36.959Z</time></trkpt><trkpt lat="46.162975" lon="12.6768317"><ele>309.0</ele><time>2026-04-25T12:39:37.96Z</time></trkpt><trkpt lat="46.16287" lon="12.6770367"><ele>309.0</ele><time>2026-04-25T12:39:38.959Z</time></trkpt><trkpt lat="46.162765" lon="12.677245"><ele>309.0</ele><time>2026-04-25T12:39:39.96Z</time></trkpt><trkpt lat="46.1626567" lon="12.6774533"><ele>309.0</ele><time>2026-04-25T12:39:40.96Z</time></trkpt><trkpt lat="46.1625517" lon="12.67766"><ele>309.3333333333333</ele><time>2026-04-25T12:39:41.958Z</time></trkpt><trkpt lat="46.162445" lon="12.6778667"><ele>309.66666666666663</ele><time>2026-04-25T12:39:42.958Z</time></trkpt><trkpt lat="46.162335" lon="12.67808"><ele>310.0</ele><time>2026-04-25T12:39:43.959Z</time></trkpt><trkpt lat="46.1622217" lon="12.6782983"><ele>309.3333333333333</ele><time>2026-04-25T12:39:44.959Z</time></trkpt><trkpt lat="46.1621083" lon="12.67852"><ele>308.6666666666667</ele><time>2026-04-25T12:39:45.959Z</time></trkpt><trkpt lat="46.1619917" lon="12.678745"><ele>308.0</ele><time>2026-04-25T12:39:46.959Z</time></trkpt><trkpt lat="46.161875" lon="12.6789667"><ele>308.0</ele><time>2026-04-25T12:39:47.956Z</time></trkpt><trkpt lat="46.1617583" lon="12.6791917"><ele>308.0</ele><time>2026-04-25T12:39:48.957Z</time></trkpt><trkpt lat="46.1616433" lon="12.679415"><ele>308.0</ele><time>2026-04-25T12:39:49.956Z</time></trkpt><trkpt lat="46.1615317" lon="12.6796383"><ele>308.0</ele><time>2026-04-25T12:39:50.957Z</time></trkpt><trkpt lat="46.1614233" lon="12.6798583"><ele>308.0</ele><time>2026-04-25T12:39:51.959Z</time></trkpt><trkpt lat="46.161315" lon="12.6800817"><ele>308.0</ele><time>2026-04-25T12:39:52.959Z</time></trkpt><trkpt lat="46.1612133" lon="12.6803167"><ele>308.0</ele><time>2026-04-25T12:39:53.959Z</time></trkpt><trkpt lat="46.1611183" lon="12.68056"><ele>308.0</ele><time>2026-04-25T12:39:54.959Z</time></trkpt><trkpt lat="46.1610283" lon="12.6808133"><ele>308.0</ele><time>2026-04-25T12:39:55.959Z</time></trkpt><trkpt lat="46.1609467" lon="12.68107"><ele>308.33333333333337</ele><time>2026-04-25T12:39:56.959Z</time></trkpt><trkpt lat="46.1608717" lon="12.6813333"><ele>308.6666666666667</ele><time>2026-04-25T12:39:57.959Z</time></trkpt><trkpt lat="46.1607983" lon="12.6816017"><ele>309.0</ele><time>2026-04-25T12:39:58.96Z</time></trkpt><trkpt lat="46.1607333" lon="12.6818717"><ele>307.6666666666667</ele><time>2026-04-25T12:39:59.959Z</time></trkpt><trkpt lat="46.16068" lon="12.6821383"><ele>306.33333333333337</ele><time>2026-04-25T12:40:00.959Z</time></trkpt><trkpt lat="46.1606367" lon="12.6823967"><ele>305.0</ele><time>2026-04-25T12:40:01.96Z</time></trkpt><trkpt lat="46.1606017" lon="12.6826467"><ele>305.33333333333337</ele><time>2026-04-25T12:40:02.959Z</time></trkpt><trkpt lat="46.1605767" lon="12.682895"><ele>305.6666666666667</ele><time>2026-04-25T12:40:03.96Z</time></trkpt><trkpt lat="46.1605533" lon="12.6831417"><ele>306.0</ele><time>2026-04-25T12:40:04.96Z</time></trkpt><trkpt lat="46.1605317" lon="12.6833917"><ele>306.0</ele><time>2026-04-25T12:40:05.959Z</time></trkpt><trkpt lat="46.16051" lon="12.6836483"><ele>306.0</ele><time>2026-04-25T12:40:06.959Z</time></trkpt><trkpt lat="46.1604917" lon="12.6839083"><ele>306.0</ele><time>2026-04-25T12:40:07.959Z</time></trkpt><trkpt lat="46.1604717" lon="12.6841717"><ele>306.0</ele><time>2026-04-25T12:40:08.959Z</time></trkpt><trkpt lat="46.1604533" lon="12.6844367"><ele>306.0</ele><time>2026-04-25T12:40:09.958Z</time></trkpt><trkpt lat="46.1604367" lon="12.6847017"><ele>306.0</ele><time>2026-04-25T12:40:10.96Z</time></trkpt><trkpt lat="46.1604233" lon="12.6849633"><ele>306.0</ele><time>2026-04-25T12:40:11.958Z</time></trkpt><trkpt lat="46.1604167" lon="12.6852267"><ele>306.0</ele><time>2026-04-25T12:40:12.959Z</time></trkpt><trkpt lat="46.1604183" lon="12.6854883"><ele>306.0</ele><time>2026-04-25T12:40:13.959Z</time></trkpt><trkpt lat="46.1604267" lon="12.6857533"><ele>306.3333333333333</ele><time>2026-04-25T12:40:14.958Z</time></trkpt><trkpt lat="46.1604417" lon="12.6860133"><ele>306.66666666666663</ele><time>2026-04-25T12:40:15.96Z</time></trkpt><trkpt lat="46.1604617" lon="12.686265"><ele>307.0</ele><time>2026-04-25T12:40:16.958Z</time></trkpt><trkpt lat="46.160485" lon="12.686505"><ele>306.3333333333333</ele><time>2026-04-25T12:40:17.957Z</time></trkpt><trkpt lat="46.1605117" lon="12.6867383"><ele>305.6666666666667</ele><time>2026-04-25T12:40:18.957Z</time></trkpt><trkpt lat="46.160545" lon="12.6869733"><ele>305.0</ele><time>2026-04-25T12:40:19.958Z</time></trkpt><trkpt lat="46.1605817" lon="12.6872117"><ele>304.6666666666667</ele><time>2026-04-25T12:40:20.957Z</time></trkpt><trkpt lat="46.1606217" lon="12.6874567"><ele>304.3333333333333</ele><time>2026-04-25T12:40:21.958Z</time></trkpt><trkpt lat="46.1606633" lon="12.6877033"><ele>304.0</ele><time>2026-04-25T12:40:22.957Z</time></trkpt><trkpt lat="46.160705" lon="12.6879483"><ele>304.0</ele><time>2026-04-25T12:40:23.956Z</time></trkpt><trkpt lat="46.1607467" lon="12.6881917"><ele>304.0</ele><time>2026-04-25T12:40:24.958Z</time></trkpt><trkpt lat="46.160785" lon="12.6884283"><ele>304.0</ele><time>2026-04-25T12:40:25.958Z</time></trkpt><trkpt lat="46.1608267" lon="12.6886683"><ele>303.3333333333333</ele><time>2026-04-25T12:40:26.957Z</time></trkpt><trkpt lat="46.1608667" lon="12.6889033"><ele>302.6666666666667</ele><time>2026-04-25T12:40:27.958Z</time></trkpt><trkpt lat="46.1609067" lon="12.6891383"><ele>302.0</ele><time>2026-04-25T12:40:28.958Z</time></trkpt><trkpt lat="46.160945" lon="12.6893767"><ele>301.33333333333337</ele><time>2026-04-25T12:40:29.958Z</time></trkpt><trkpt lat="46.160985" lon="12.689615"><ele>300.6666666666667</ele><time>2026-04-25T12:40:30.957Z</time></trkpt><trkpt lat="46.161025" lon="12.6898567"><ele>300.0</ele><time>2026-04-25T12:40:31.958Z</time></trkpt><trkpt lat="46.16107" lon="12.6900983"><ele>300.3333333333333</ele><time>2026-04-25T12:40:32.957Z</time></trkpt><trkpt lat="46.161115" lon="12.6903483"><ele>300.66666666666663</ele><time>2026-04-25T12:40:33.958Z</time></trkpt><trkpt lat="46.16116" lon="12.6905983"><ele>301.0</ele><time>2026-04-25T12:40:34.958Z</time></trkpt><trkpt lat="46.161205" lon="12.69085"><ele>301.0</ele><time>2026-04-25T12:40:35.957Z</time></trkpt><trkpt lat="46.1612467" lon="12.6910983"><ele>301.0</ele><time>2026-04-25T12:40:36.957Z</time></trkpt><trkpt lat="46.1612867" lon="12.69134"><ele>301.0</ele><time>2026-04-25T12:40:37.958Z</time></trkpt><trkpt lat="46.1613283" lon="12.69158"><ele>301.0</ele><time>2026-04-25T12:40:38.957Z</time></trkpt><trkpt lat="46.1613717" lon="12.6918217"><ele>301.0</ele><time>2026-04-25T12:40:39.963Z</time></trkpt><trkpt lat="46.1614117" lon="12.69206"><ele>301.0</ele><time>2026-04-25T12:40:40.958Z</time></trkpt><trkpt lat="46.1614567" lon="12.692295"><ele>300.66666666666663</ele><time>2026-04-25T12:40:41.957Z</time></trkpt><trkpt lat="46.1614983" lon="12.6925283"><ele>300.3333333333333</ele><time>2026-04-25T12:40:42.958Z</time></trkpt><trkpt lat="46.1615367" lon="12.6927617"><ele>300.0</ele><time>2026-04-25T12:40:43.958Z</time></trkpt><trkpt lat="46.1615767" lon="12.692995"><ele>300.0</ele><time>2026-04-25T12:40:44.957Z</time></trkpt><trkpt lat="46.1616183" lon="12.6932317"><ele>300.0</ele><time>2026-04-25T12:40:45.957Z</time></trkpt><trkpt lat="46.16166" lon="12.69347"><ele>300.0</ele><time>2026-04-25T12:40:46.958Z</time></trkpt><trkpt lat="46.1617" lon="12.69371"><ele>299.6666666666667</ele><time>2026-04-25T12:40:47.958Z</time></trkpt><trkpt lat="46.1617383" lon="12.6939517"><ele>299.33333333333337</ele><time>2026-04-25T12:40:48.956Z</time></trkpt><trkpt lat="46.16178" lon="12.6941967"><ele>299.0</ele><time>2026-04-25T12:40:49.957Z</time></trkpt><trkpt lat="46.1618233" lon="12.6944433"><ele>299.0</ele><time>2026-04-25T12:40:50.957Z</time></trkpt><trkpt lat="46.1618667" lon="12.6946933"><ele>299.0</ele><time>2026-04-25T12:40:51.958Z</time></trkpt><trkpt lat="46.1619117" lon="12.69494"><ele>299.0</ele><time>2026-04-25T12:40:52.958Z</time></trkpt><trkpt lat="46.1619567" lon="12.695185"><ele>299.33333333333337</ele><time>2026-04-25T12:40:53.957Z</time></trkpt><trkpt lat="46.1620017" lon="12.695435"><ele>299.6666666666667</ele><time>2026-04-25T12:40:54.958Z</time></trkpt><trkpt lat="46.162045" lon="12.695685"><ele>300.0</ele><time>2026-04-25T12:40:55.957Z</time></trkpt><trkpt lat="46.16209" lon="12.6959383"><ele>300.0</ele><time>2026-04-25T12:40:56.957Z</time></trkpt><trkpt lat="46.1621333" lon="12.696195"><ele>300.0</ele><time>2026-04-25T12:40:57.958Z</time></trkpt><trkpt lat="46.162175" lon="12.696445"><ele>300.0</ele><time>2026-04-25T12:40:58.957Z</time></trkpt><trkpt lat="46.1622133" lon="12.6966883"><ele>298.6666666666667</ele><time>2026-04-25T12:40:59.956Z</time></trkpt><trkpt lat="46.1622567" lon="12.6969317"><ele>297.33333333333337</ele><time>2026-04-25T12:41:00.956Z</time></trkpt><trkpt lat="46.1623017" lon="12.69718"><ele>296.0</ele><time>2026-04-25T12:41:01.958Z</time></trkpt><trkpt lat="46.162345" lon="12.6974267"><ele>296.0</ele><time>2026-04-25T12:41:02.956Z</time></trkpt><trkpt lat="46.162385" lon="12.6976767"><ele>296.0</ele><time>2026-04-25T12:41:03.958Z</time></trkpt><trkpt lat="46.1624283" lon="12.69793"><ele>296.0</ele><time>2026-04-25T12:41:04.958Z</time></trkpt><trkpt lat="46.16247" lon="12.6981833"><ele>295.0</ele><time>2026-04-25T12:41:05.957Z</time></trkpt><trkpt lat="46.1625117" lon="12.698435"><ele>294.0</ele><time>2026-04-25T12:41:06.958Z</time></trkpt><trkpt lat="46.162555" lon="12.698685"><ele>293.0</ele><time>2026-04-25T12:41:07.958Z</time></trkpt><trkpt lat="46.1625983" lon="12.6989383"><ele>292.6666666666667</ele><time>2026-04-25T12:41:08.956Z</time></trkpt><trkpt lat="46.1626417" lon="12.6991933"><ele>292.3333333333333</ele><time>2026-04-25T12:41:09.958Z</time></trkpt><trkpt lat="46.1626883" lon="12.6994517"><ele>292.0</ele><time>2026-04-25T12:41:10.958Z</time></trkpt><trkpt lat="46.162735" lon="12.69971"><ele>291.66666666666663</ele><time>2026-04-25T12:41:11.957Z</time></trkpt><trkpt lat="46.1627767" lon="12.6999667"><ele>291.3333333333333</ele><time>2026-04-25T12:41:12.957Z</time></trkpt><trkpt lat="46.1628183" lon="12.70022"><ele>291.0</ele><time>2026-04-25T12:41:13.958Z</time></trkpt><trkpt lat="46.16286" lon="12.7004683"><ele>291.0</ele><time>2026-04-25T12:41:14.956Z</time></trkpt><trkpt lat="46.1629033" lon="12.7007133"><ele>291.0</ele><time>2026-04-25T12:41:15.958Z</time></trkpt><trkpt lat="46.1629467" lon="12.70096"><ele>291.0</ele><time>2026-04-25T12:41:16.958Z</time></trkpt><trkpt lat="46.1629917" lon="12.7012067"><ele>290.6666666666667</ele><time>2026-04-25T12:41:17.956Z</time></trkpt><trkpt lat="46.1630367" lon="12.70146"><ele>290.33333333333337</ele><time>2026-04-25T12:41:18.956Z</time></trkpt><trkpt lat="46.163085" lon="12.70172"><ele>290.0</ele><time>2026-04-25T12:41:19.958Z</time></trkpt><trkpt lat="46.1631317" lon="12.7019817"><ele>290.0</ele><time>2026-04-25T12:41:20.957Z</time></trkpt><trkpt lat="46.1631833" lon="12.7022433"><ele>290.0</ele><time>2026-04-25T12:41:21.958Z</time></trkpt><trkpt lat="46.16324" lon="12.7025017"><ele>290.0</ele><time>2026-04-25T12:41:22.958Z</time></trkpt><trkpt lat="46.1633017" lon="12.7027533"><ele>289.33333333333337</ele><time>2026-04-25T12:41:23.957Z</time></trkpt><trkpt lat="46.1633683" lon="12.7030017"><ele>288.6666666666667</ele><time>2026-04-25T12:41:24.958Z</time></trkpt><trkpt lat="46.163445" lon="12.7032417"><ele>288.0</ele><time>2026-04-25T12:41:25.958Z</time></trkpt><trkpt lat="46.1635217" lon="12.7034767"><ele>287.3333333333333</ele><time>2026-04-25T12:41:26.957Z</time></trkpt><trkpt lat="46.1636017" lon="12.7037067"><ele>286.66666666666663</ele><time>2026-04-25T12:41:27.957Z</time></trkpt><trkpt lat="46.163675" lon="12.70393"><ele>286.0</ele><time>2026-04-25T12:41:28.959Z</time></trkpt><trkpt lat="46.1637467" lon="12.7041483"><ele>286.0</ele><time>2026-04-25T12:41:29.958Z</time></trkpt><trkpt lat="46.1638183" lon="12.7043567"><ele>286.0</ele><time>2026-04-25T12:41:30.959Z</time></trkpt><trkpt lat="46.16389" lon="12.704555"><ele>286.0</ele><time>2026-04-25T12:41:31.96Z</time></trkpt><trkpt lat="46.16396" lon="12.704745"><ele>285.75</ele><time>2026-04-25T12:41:32.958Z</time></trkpt><trkpt lat="46.1640333" lon="12.704915"><ele>285.5</ele><time>2026-04-25T12:41:33.959Z</time></trkpt><trkpt lat="46.1641083" lon="12.7050733"><ele>285.25</ele><time>2026-04-25T12:41:34.959Z</time></trkpt><trkpt lat="46.1641833" lon="12.70523"><ele>285.0</ele><time>2026-04-25T12:41:35.958Z</time></trkpt><trkpt lat="46.164255" lon="12.7053767"><ele>285.0</ele><time>2026-04-25T12:41:36.959Z</time></trkpt><trkpt lat="46.1643217" lon="12.7055183"><ele>285.0</ele><time>2026-04-25T12:41:37.958Z</time></trkpt><trkpt lat="46.1643867" lon="12.7056483"><ele>285.0</ele><time>2026-04-25T12:41:38.957Z</time></trkpt><trkpt lat="46.1644467" lon="12.7057717"><ele>285.0</ele><time>2026-04-25T12:41:39.957Z</time></trkpt><trkpt lat="46.1644983" lon="12.7058883"><ele>285.0</ele><time>2026-04-25T12:41:40.958Z</time></trkpt><trkpt lat="46.1645467" lon="12.7059933"><ele>285.1428571428571</ele><time>2026-04-25T12:41:41.958Z</time></trkpt><trkpt lat="46.164595" lon="12.7060917"><ele>285.2857142857143</ele><time>2026-04-25T12:41:42.957Z</time></trkpt><trkpt lat="46.1646417" lon="12.7061883"><ele>285.42857142857144</ele><time>2026-04-25T12:41:43.959Z</time></trkpt><trkpt lat="46.1646833" lon="12.7062783"><ele>285.57142857142856</ele><time>2026-04-25T12:41:44.958Z</time></trkpt><trkpt lat="46.164725" lon="12.7063633"><ele>285.7142857142857</ele><time>2026-04-25T12:41:45.957Z</time></trkpt><trkpt lat="46.164765" lon="12.7064383"><ele>285.85714285714283</ele><time>2026-04-25T12:41:46.958Z</time></trkpt><trkpt lat="46.1648133" lon="12.7065083"><ele>286.0</ele><time>2026-04-25T12:41:48.96Z</time></trkpt><trkpt lat="46.1648533" lon="12.7065867"><ele>285.8</ele><time>2026-04-25T12:42:17.956Z</time></trkpt><trkpt lat="46.1649033" lon="12.7066933"><ele>285.6</ele><time>2026-04-25T12:42:18.957Z</time></trkpt><trkpt lat="46.1649533" lon="12.7067967"><ele>285.4</ele><time>2026-04-25T12:42:19.957Z</time></trkpt><trkpt lat="46.165005" lon="12.706905"><ele>285.2</ele><time>2026-04-25T12:42:20.956Z</time></trkpt><trkpt lat="46.1650617" lon="12.70702"><ele>285.0</ele><time>2026-04-25T12:42:21.957Z</time></trkpt><trkpt lat="46.1651167" lon="12.7071367"><ele>284.6</ele><time>2026-04-25T12:42:22.956Z</time></trkpt><trkpt lat="46.1651733" lon="12.70726"><ele>284.2</ele><time>2026-04-25T12:42:23.957Z</time></trkpt><trkpt lat="46.16523" lon="12.707385"><ele>283.8</ele><time>2026-04-25T12:42:24.956Z</time></trkpt><trkpt lat="46.1652917" lon="12.707515"><ele>283.4</ele><time>2026-04-25T12:42:25.956Z</time></trkpt><trkpt lat="46.1653583" lon="12.7076467"><ele>283.0</ele><time>2026-04-25T12:42:26.956Z</time></trkpt><trkpt lat="46.165425" lon="12.70778"><ele>282.75</ele><time>2026-04-25T12:42:27.956Z</time></trkpt><trkpt lat="46.1654883" lon="12.7079183"><ele>282.5</ele><time>2026-04-25T12:42:28.957Z</time></trkpt><trkpt lat="46.165555" lon="12.7080583"><ele>282.25</ele><time>2026-04-25T12:42:29.957Z</time></trkpt><trkpt lat="46.16562" lon="12.7081967"><ele>282.0</ele><time>2026-04-25T12:42:30.957Z</time></trkpt><trkpt lat="46.165685" lon="12.708335"><ele>282.2</ele><time>2026-04-25T12:42:31.956Z</time></trkpt><trkpt lat="46.1657517" lon="12.70847"><ele>282.4</ele><time>2026-04-25T12:42:32.956Z</time></trkpt><trkpt lat="46.165815" lon="12.7086033"><ele>282.6</ele><time>2026-04-25T12:42:33.957Z</time></trkpt><trkpt lat="46.16588" lon="12.7087333"><ele>282.8</ele><time>2026-04-25T12:42:34.957Z</time></trkpt><trkpt lat="46.165945" lon="12.7088617"><ele>283.0</ele><time>2026-04-25T12:42:35.956Z</time></trkpt><trkpt lat="46.16601" lon="12.7089883"><ele>282.6</ele><time>2026-04-25T12:42:36.957Z</time></trkpt><trkpt lat="46.1660717" lon="12.7091217"><ele>282.20000000000005</ele><time>2026-04-25T12:42:37.957Z</time></trkpt><trkpt lat="46.16613" lon="12.7092567"><ele>281.8</ele><time>2026-04-25T12:42:38.957Z</time></trkpt><trkpt lat="46.1661883" lon="12.709395"><ele>281.40000000000003</ele><time>2026-04-25T12:42:39.957Z</time></trkpt><trkpt lat="46.1662517" lon="12.709535"><ele>281.0</ele><time>2026-04-25T12:42:40.958Z</time></trkpt><trkpt lat="46.1663183" lon="12.7096783"><ele>280.75</ele><time>2026-04-25T12:42:41.957Z</time></trkpt><trkpt lat="46.1663933" lon="12.7098217"><ele>280.5</ele><time>2026-04-25T12:42:42.956Z</time></trkpt><trkpt lat="46.166475" lon="12.7099617"><ele>280.25</ele><time>2026-04-25T12:42:43.957Z</time></trkpt><trkpt lat="46.1665617" lon="12.7100983"><ele>280.0</ele><time>2026-04-25T12:42:44.956Z</time></trkpt><trkpt lat="46.1666517" lon="12.71023"><ele>279.75</ele><time>2026-04-25T12:42:45.957Z</time></trkpt><trkpt lat="46.1667433" lon="12.7103533"><ele>279.5</ele><time>2026-04-25T12:42:46.958Z</time></trkpt><trkpt lat="46.1668367" lon="12.7104633"><ele>279.25</ele><time>2026-04-25T12:42:47.957Z</time></trkpt><trkpt lat="46.1669317" lon="12.7105633"><ele>279.0</ele><time>2026-04-25T12:42:48.956Z</time></trkpt><trkpt lat="46.167025" lon="12.710655"><ele>279.0</ele><time>2026-04-25T12:42:49.956Z</time></trkpt><trkpt lat="46.1671183" lon="12.710735"><ele>279.0</ele><time>2026-04-25T12:42:50.956Z</time></trkpt><trkpt lat="46.1672117" lon="12.7108133"><ele>279.0</ele><time>2026-04-25T12:42:51.956Z</time></trkpt><trkpt lat="46.1673" lon="12.7108867"><ele>279.0</ele><time>2026-04-25T12:42:52.957Z</time></trkpt><trkpt lat="46.1673817" lon="12.7109567"><ele>279.0</ele><time>2026-04-25T12:42:53.957Z</time></trkpt><trkpt lat="46.167455" lon="12.7110183"><ele>278.8</ele><time>2026-04-25T12:42:54.956Z</time></trkpt><trkpt lat="46.167535" lon="12.71108"><ele>278.59999999999997</ele><time>2026-04-25T12:42:55.958Z</time></trkpt><trkpt lat="46.16762" lon="12.7111483"><ele>278.4</ele><time>2026-04-25T12:42:56.957Z</time></trkpt><trkpt lat="46.1677083" lon="12.71122"><ele>278.2</ele><time>2026-04-25T12:42:57.957Z</time></trkpt><trkpt lat="46.1678017" lon="12.711285"><ele>278.0</ele><time>2026-04-25T12:42:58.957Z</time></trkpt><trkpt lat="46.1678933" lon="12.7113433"><ele>278.0</ele><time>2026-04-25T12:42:59.957Z</time></trkpt><trkpt lat="46.1679817" lon="12.7113883"><ele>278.0</ele><time>2026-04-25T12:43:00.956Z</time></trkpt><trkpt lat="46.16807" lon="12.7114233"><ele>278.0</ele><time>2026-04-25T12:43:01.957Z</time></trkpt><trkpt lat="46.168155" lon="12.7114467"><ele>278.0</ele><time>2026-04-25T12:43:02.955Z</time></trkpt><trkpt lat="46.1682317" lon="12.7114617"><ele>278.0</ele><time>2026-04-25T12:43:03.957Z</time></trkpt><trkpt lat="46.1682983" lon="12.711465"><ele>278.0</ele><time>2026-04-25T12:43:04.957Z</time></trkpt><trkpt lat="46.168405" lon="12.7114617"><ele>278.1666666666667</ele><time>2026-04-25T12:43:06.956Z</time></trkpt><trkpt lat="46.1684783" lon="12.711455"><ele>278.33333333333337</ele><time>2026-04-25T12:43:09.956Z</time></trkpt><trkpt lat="46.168585" lon="12.7114317"><ele>278.5</ele><time>2026-04-25T12:43:26.957Z</time></trkpt><trkpt lat="46.1686483" lon="12.711415"><ele>278.6666666666667</ele><time>2026-04-25T12:43:27.958Z</time></trkpt><trkpt lat="46.16877" lon="12.711375"><ele>278.8333333333333</ele><time>2026-04-25T12:43:29.957Z</time></trkpt><trkpt lat="46.1688383" lon="12.711345"><ele>279.0</ele><time>2026-04-25T12:43:30.957Z</time></trkpt><trkpt lat="46.1689133" lon="12.7113167"><ele>279.0</ele><time>2026-04-25T12:43:31.956Z</time></trkpt><trkpt lat="46.1689867" lon="12.711295"><ele>279.0</ele><time>2026-04-25T12:43:32.958Z</time></trkpt><trkpt lat="46.16906" lon="12.7112667"><ele>279.0</ele><time>2026-04-25T12:43:33.957Z</time></trkpt><trkpt lat="46.16913" lon="12.7112417"><ele>279.0</ele><time>2026-04-25T12:43:34.957Z</time></trkpt><trkpt lat="46.1692" lon="12.71121"><ele>279.0</ele><time>2026-04-25T12:43:35.957Z</time></trkpt><trkpt lat="46.1692617" lon="12.7111817"><ele>279.0</ele><time>2026-04-25T12:43:36.956Z</time></trkpt><trkpt lat="46.1693833" lon="12.7111267"><ele>279.4</ele><time>2026-04-25T12:43:38.959Z</time></trkpt><trkpt lat="46.1695017" lon="12.7110717"><ele>279.79999999999995</ele><time>2026-04-25T12:43:40.959Z</time></trkpt><trkpt lat="46.1696033" lon="12.7110283"><ele>280.20000000000005</ele><time>2026-04-25T12:43:42.957Z</time></trkpt><trkpt lat="46.1697067" lon="12.7109883"><ele>280.6</ele><time>2026-04-25T12:43:44.956Z</time></trkpt><trkpt lat="46.1698017" lon="12.7109517"><ele>281.0</ele><time>2026-04-25T12:43:46.958Z</time></trkpt><trkpt lat="46.1698833" lon="12.710925"><ele>281.0</ele><time>2026-04-25T12:43:48.958Z</time></trkpt><trkpt lat="46.1699667" lon="12.7108883"><ele>281.0</ele><time>2026-04-25T12:43:51.958Z</time></trkpt><trkpt lat="46.1700333" lon="12.7108667"><ele>281.0</ele><time>2026-04-25T12:43:54.958Z</time></trkpt><trkpt lat="46.1701033" lon="12.71085"><ele>281.0</ele><time>2026-04-25T12:44:03.957Z</time></trkpt><trkpt lat="46.1701917" lon="12.710815"><ele>281.0</ele><time>2026-04-25T12:44:06.956Z</time></trkpt><trkpt lat="46.1702733" lon="12.71077"><ele>281.0</ele><time>2026-04-25T12:44:08.956Z</time></trkpt><trkpt lat="46.1703667" lon="12.7107233"><ele>281.0</ele><time>2026-04-25T12:44:10.956Z</time></trkpt><trkpt lat="46.1704667" lon="12.7106883"><ele>281.0</ele><time>2026-04-25T12:44:12.957Z</time></trkpt><trkpt lat="46.1705533" lon="12.7106467"><ele>281.0</ele><time>2026-04-25T12:44:14.957Z</time></trkpt><trkpt lat="46.1706367" lon="12.71062"><ele>281.0</ele><time>2026-04-25T12:44:16.956Z</time></trkpt><trkpt lat="46.1707117" lon="12.710595"><ele>281.0</ele><time>2026-04-25T12:44:18.957Z</time></trkpt><trkpt lat="46.1707783" lon="12.71062"><ele>281.0</ele><time>2026-04-25T12:44:20.955Z</time></trkpt><trkpt lat="46.170845" lon="12.7107267"><ele>281.1666666666667</ele><time>2026-04-25T12:44:22.958Z</time></trkpt><trkpt lat="46.1708533" lon="12.71082"><ele>281.33333333333337</ele><time>2026-04-25T12:44:23.957Z</time></trkpt><trkpt lat="46.17085" lon="12.71094"><ele>281.5</ele><time>2026-04-25T12:44:24.957Z</time></trkpt><trkpt lat="46.170845" lon="12.7110783"><ele>281.6666666666667</ele><time>2026-04-25T12:44:25.957Z</time></trkpt><trkpt lat="46.1708333" lon="12.7112167"><ele>281.8333333333333</ele><time>2026-04-25T12:44:26.957Z</time></trkpt><trkpt lat="46.1708217" lon="12.7113617"><ele>282.0</ele><time>2026-04-25T12:44:27.957Z</time></trkpt><trkpt lat="46.1708133" lon="12.71151"><ele>281.6</ele><time>2026-04-25T12:44:28.957Z</time></trkpt><trkpt lat="46.1708133" lon="12.71167"><ele>281.2</ele><time>2026-04-25T12:44:29.957Z</time></trkpt><trkpt lat="46.1708233" lon="12.711825"><ele>280.8</ele><time>2026-04-25T12:44:30.957Z</time></trkpt><trkpt lat="46.170845" lon="12.71198"><ele>280.4</ele><time>2026-04-25T12:44:31.956Z</time></trkpt><trkpt lat="46.1708833" lon="12.7121383"><ele>280.0</ele><time>2026-04-25T12:44:32.957Z</time></trkpt><trkpt lat="46.17093" lon="12.712295"><ele>279.4</ele><time>2026-04-25T12:44:33.957Z</time></trkpt><trkpt lat="46.17098" lon="12.7124467"><ele>278.8</ele><time>2026-04-25T12:44:34.957Z</time></trkpt><trkpt lat="46.1710333" lon="12.7125933"><ele>278.2</ele><time>2026-04-25T12:44:35.956Z</time></trkpt><trkpt lat="46.1710883" lon="12.712735"><ele>277.6</ele><time>2026-04-25T12:44:36.957Z</time></trkpt><trkpt lat="46.17114" lon="12.7128683"><ele>277.0</ele><time>2026-04-25T12:44:37.957Z</time></trkpt><trkpt lat="46.1711883" lon="12.713"><ele>277.0</ele><time>2026-04-25T12:44:38.957Z</time></trkpt><trkpt lat="46.1712333" lon="12.7131233"><ele>277.0</ele><time>2026-04-25T12:44:39.958Z</time></trkpt><trkpt lat="46.1712767" lon="12.7132533"><ele>277.0</ele><time>2026-04-25T12:44:40.957Z</time></trkpt><trkpt lat="46.1713233" lon="12.7133967"><ele>277.0</ele><time>2026-04-25T12:44:41.957Z</time></trkpt><trkpt lat="46.171375" lon="12.7135517"><ele>277.0</ele><time>2026-04-25T12:44:42.957Z</time></trkpt><trkpt lat="46.17143" lon="12.7137167"><ele>277.0</ele><time>2026-04-25T12:44:43.957Z</time></trkpt><trkpt lat="46.171495" lon="12.713895"><ele>277.0</ele><time>2026-04-25T12:44:44.956Z</time></trkpt><trkpt lat="46.1715633" lon="12.7140833"><ele>277.0</ele><time>2026-04-25T12:44:45.957Z</time></trkpt><trkpt lat="46.1716317" lon="12.7142717"><ele>277.0</ele><time>2026-04-25T12:44:46.958Z</time></trkpt><trkpt lat="46.1717" lon="12.7144583"><ele>275.5</ele><time>2026-04-25T12:44:47.956Z</time></trkpt><trkpt lat="46.1717667" lon="12.714645"><ele>274.0</ele><time>2026-04-25T12:44:48.956Z</time></trkpt><trkpt lat="46.171835" lon="12.7148333"><ele>272.5</ele><time>2026-04-25T12:44:49.957Z</time></trkpt><trkpt lat="46.1719017" lon="12.7150183"><ele>271.0</ele><time>2026-04-25T12:44:50.958Z</time></trkpt><trkpt lat="46.1719733" lon="12.7152083"><ele>270.5</ele><time>2026-04-25T12:44:51.959Z</time></trkpt><trkpt lat="46.1720433" lon="12.715405"><ele>270.0</ele><time>2026-04-25T12:44:52.957Z</time></trkpt><trkpt lat="46.1721083" lon="12.715595"><ele>269.5</ele><time>2026-04-25T12:44:53.957Z</time></trkpt><trkpt lat="46.1721717" lon="12.7157817"><ele>269.0</ele><time>2026-04-25T12:44:54.958Z</time></trkpt><trkpt lat="46.17223" lon="12.7159617"><ele>268.75</ele><time>2026-04-25T12:44:55.956Z</time></trkpt><trkpt lat="46.1722867" lon="12.716135"><ele>268.5</ele><time>2026-04-25T12:44:56.958Z</time></trkpt><trkpt lat="46.1723433" lon="12.7163033"><ele>268.25</ele><time>2026-04-25T12:44:57.957Z</time></trkpt><trkpt lat="46.1723983" lon="12.7164617"><ele>268.0</ele><time>2026-04-25T12:44:58.958Z</time></trkpt><trkpt lat="46.17245" lon="12.716615"><ele>267.25</ele><time>2026-04-25T12:44:59.959Z</time></trkpt><trkpt lat="46.1725" lon="12.7167633"><ele>266.5</ele><time>2026-04-25T12:45:00.958Z</time></trkpt><trkpt lat="46.1725517" lon="12.71691"><ele>265.75</ele><time>2026-04-25T12:45:01.957Z</time></trkpt><trkpt lat="46.1726033" lon="12.717055"><ele>265.0</ele><time>2026-04-25T12:45:02.957Z</time></trkpt><trkpt lat="46.1726517" lon="12.7171983"><ele>265.0</ele><time>2026-04-25T12:45:03.956Z</time></trkpt><trkpt lat="46.1727017" lon="12.71734"><ele>265.0</ele><time>2026-04-25T12:45:04.958Z</time></trkpt><trkpt lat="46.1727517" lon="12.71748"><ele>265.0</ele><time>2026-04-25T12:45:05.957Z</time></trkpt><trkpt lat="46.1728" lon="12.71762"><ele>265.0</ele><time>2026-04-25T12:45:06.957Z</time></trkpt><trkpt lat="46.1728517" lon="12.7177567"><ele>265.0</ele><time>2026-04-25T12:45:07.957Z</time></trkpt><trkpt lat="46.1729033" lon="12.7178917"><ele>264.6</ele><time>2026-04-25T12:45:08.957Z</time></trkpt><trkpt lat="46.1729517" lon="12.7180267"><ele>264.2</ele><time>2026-04-25T12:45:09.956Z</time></trkpt><trkpt lat="46.1729983" lon="12.7181617"><ele>263.8</ele><time>2026-04-25T12:45:10.958Z</time></trkpt><trkpt lat="46.1730467" lon="12.7182967"><ele>263.4</ele><time>2026-04-25T12:45:11.956Z</time></trkpt><trkpt lat="46.173095" lon="12.7184283"><ele>263.0</ele><time>2026-04-25T12:45:12.957Z</time></trkpt><trkpt lat="46.1731417" lon="12.71856"><ele>262.6666666666667</ele><time>2026-04-25T12:45:13.957Z</time></trkpt><trkpt lat="46.1731867" lon="12.7186867"><ele>262.33333333333337</ele><time>2026-04-25T12:45:14.956Z</time></trkpt><trkpt lat="46.1732317" lon="12.7188117"><ele>262.0</ele><time>2026-04-25T12:45:15.957Z</time></trkpt><trkpt lat="46.1732767" lon="12.7189317"><ele>261.6666666666667</ele><time>2026-04-25T12:45:16.957Z</time></trkpt><trkpt lat="46.173315" lon="12.7190383"><ele>261.3333333333333</ele><time>2026-04-25T12:45:17.957Z</time></trkpt><trkpt lat="46.17335" lon="12.7191283"><ele>261.0</ele><time>2026-04-25T12:45:18.956Z</time></trkpt><trkpt lat="46.1733983" lon="12.7192617"><ele>260.8</ele><time>2026-04-25T12:45:20.957Z</time></trkpt><trkpt lat="46.1734417" lon="12.7194017"><ele>260.6</ele><time>2026-04-25T12:45:22.957Z</time></trkpt><trkpt lat="46.1734967" lon="12.719575"><ele>260.4</ele><time>2026-04-25T12:45:24.957Z</time></trkpt><trkpt lat="46.1735317" lon="12.71968"><ele>260.2</ele><time>2026-04-25T12:45:25.957Z</time></trkpt><trkpt lat="46.173575" lon="12.7197967"><ele>260.0</ele><time>2026-04-25T12:45:26.957Z</time></trkpt><trkpt lat="46.17362" lon="12.7199233"><ele>260.0</ele><time>2026-04-25T12:45:27.957Z</time></trkpt><trkpt lat="46.173665" lon="12.7200517"><ele>260.0</ele><time>2026-04-25T12:45:28.959Z</time></trkpt><trkpt lat="46.1737133" lon="12.7201833"><ele>260.0</ele><time>2026-04-25T12:45:29.958Z</time></trkpt><trkpt lat="46.1737633" lon="12.7203183"><ele>260.0</ele><time>2026-04-25T12:45:30.957Z</time></trkpt><trkpt lat="46.17381" lon="12.7204483"><ele>260.0</ele><time>2026-04-25T12:45:31.957Z</time></trkpt><trkpt lat="46.1738583" lon="12.7205767"><ele>260.0</ele><time>2026-04-25T12:45:32.958Z</time></trkpt><trkpt lat="46.1739017" lon="12.720695"><ele>260.0</ele><time>2026-04-25T12:45:33.956Z</time></trkpt><trkpt lat="46.1739417" lon="12.7208067"><ele>260.0</ele><time>2026-04-25T12:45:34.957Z</time></trkpt><trkpt lat="46.17399" lon="12.7208983"><ele>260.0</ele><time>2026-04-25T12:45:35.957Z</time></trkpt><trkpt lat="46.174045" lon="12.7209767"><ele>260.0</ele><time>2026-04-25T12:45:36.957Z</time></trkpt><trkpt lat="46.174095" lon="12.7210433"><ele>260.0</ele><time>2026-04-25T12:45:37.957Z</time></trkpt><trkpt lat="46.1741417" lon="12.7211167"><ele>260.83333333333337</ele><time>2026-04-25T12:45:38.957Z</time></trkpt><trkpt lat="46.1741733" lon="12.7212"><ele>261.6666666666667</ele><time>2026-04-25T12:45:39.957Z</time></trkpt><trkpt lat="46.1741867" lon="12.7213067"><ele>262.5</ele><time>2026-04-25T12:45:40.958Z</time></trkpt><trkpt lat="46.174195" lon="12.721435"><ele>263.3333333333333</ele><time>2026-04-25T12:45:41.957Z</time></trkpt><trkpt lat="46.17421" lon="12.7215783"><ele>264.16666666666663</ele><time>2026-04-25T12:45:42.956Z</time></trkpt><trkpt lat="46.1742433" lon="12.72173"><ele>265.0</ele><time>2026-04-25T12:45:43.957Z</time></trkpt><trkpt lat="46.1742917" lon="12.7218983"><ele>265.3333333333333</ele><time>2026-04-25T12:45:44.957Z</time></trkpt><trkpt lat="46.1743483" lon="12.7220883"><ele>265.6666666666667</ele><time>2026-04-25T12:45:45.957Z</time></trkpt><trkpt lat="46.174415" lon="12.7223067"><ele>266.0</ele><time>2026-04-25T12:45:46.958Z</time></trkpt><trkpt lat="46.1744833" lon="12.7225483"><ele>265.6666666666667</ele><time>2026-04-25T12:45:47.957Z</time></trkpt><trkpt lat="46.1745583" lon="12.72282"><ele>265.3333333333333</ele><time>2026-04-25T12:45:48.958Z</time></trkpt><trkpt lat="46.1746367" lon="12.723125"><ele>265.0</ele><time>2026-04-25T12:45:49.957Z</time></trkpt><trkpt lat="46.174705" lon="12.7234517"><ele>265.0</ele><time>2026-04-25T12:45:50.957Z</time></trkpt><trkpt lat="46.1747783" lon="12.72378"><ele>265.0</ele><time>2026-04-25T12:45:51.958Z</time></trkpt><trkpt lat="46.1748517" lon="12.7240933"><ele>265.0</ele><time>2026-04-25T12:45:52.958Z</time></trkpt><trkpt lat="46.174925" lon="12.7243867"><ele>265.0</ele><time>2026-04-25T12:45:53.958Z</time></trkpt><trkpt lat="46.1749967" lon="12.724665"><ele>265.0</ele><time>2026-04-25T12:45:54.959Z</time></trkpt><trkpt lat="46.1750667" lon="12.7249333"><ele>265.0</ele><time>2026-04-25T12:45:55.96Z</time></trkpt><trkpt lat="46.1751283" lon="12.7252017"><ele>265.0</ele><time>2026-04-25T12:45:56.958Z</time></trkpt><trkpt lat="46.17517" lon="12.7254767"><ele>265.0</ele><time>2026-04-25T12:45:57.958Z</time></trkpt><trkpt lat="46.1751817" lon="12.7257533"><ele>265.0</ele><time>2026-04-25T12:45:58.958Z</time></trkpt><trkpt lat="46.1751567" lon="12.72602"><ele>265.0</ele><time>2026-04-25T12:45:59.957Z</time></trkpt><trkpt lat="46.1750983" lon="12.7262617"><ele>265.0</ele><time>2026-04-25T12:46:00.957Z</time></trkpt><trkpt lat="46.1750133" lon="12.72648"><ele>264.66666666666663</ele><time>2026-04-25T12:46:01.957Z</time></trkpt><trkpt lat="46.1749033" lon="12.7266767"><ele>264.3333333333333</ele><time>2026-04-25T12:46:02.958Z</time></trkpt><trkpt lat="46.174775" lon="12.7268633"><ele>264.0</ele><time>2026-04-25T12:46:03.958Z</time></trkpt><trkpt lat="46.174645" lon="12.7270533"><ele>264.0</ele><time>2026-04-25T12:46:04.958Z</time></trkpt><trkpt lat="46.1745217" lon="12.7272567"><ele>264.0</ele><time>2026-04-25T12:46:05.957Z</time></trkpt><trkpt lat="46.1744083" lon="12.7274833"><ele>264.0</ele><time>2026-04-25T12:46:06.957Z</time></trkpt><trkpt lat="46.1743117" lon="12.7277333"><ele>263.3333333333333</ele><time>2026-04-25T12:46:07.96Z</time></trkpt><trkpt lat="46.17423" lon="12.7280083"><ele>262.66666666666663</ele><time>2026-04-25T12:46:08.959Z</time></trkpt><trkpt lat="46.1741617" lon="12.7282983"><ele>262.0</ele><time>2026-04-25T12:46:09.96Z</time></trkpt><trkpt lat="46.1741083" lon="12.7286017"><ele>261.66666666666663</ele><time>2026-04-25T12:46:10.961Z</time></trkpt><trkpt lat="46.1740583" lon="12.72891"><ele>261.3333333333333</ele><time>2026-04-25T12:46:11.959Z</time></trkpt><trkpt lat="46.1740067" lon="12.7292233"><ele>261.0</ele><time>2026-04-25T12:46:12.959Z</time></trkpt><trkpt lat="46.173955" lon="12.7295383"><ele>260.0</ele><time>2026-04-25T12:46:13.959Z</time></trkpt><trkpt lat="46.1739033" lon="12.7298583"><ele>259.0</ele><time>2026-04-25T12:46:14.959Z</time></trkpt><trkpt lat="46.1738517" lon="12.7301817"><ele>258.5</ele><time>2026-04-25T12:46:15.958Z</time></trkpt><trkpt lat="46.1737983" lon="12.73051"><ele>258.0</ele><time>2026-04-25T12:46:16.958Z</time></trkpt><trkpt lat="46.173745" lon="12.7308467"><ele>257.0</ele><time>2026-04-25T12:46:17.959Z</time></trkpt><trkpt lat="46.1736917" lon="12.7311833"><ele>256.0</ele><time>2026-04-25T12:46:18.959Z</time></trkpt><trkpt lat="46.1736383" lon="12.731525"><ele>256.0</ele><time>2026-04-25T12:46:19.957Z</time></trkpt><trkpt lat="46.1735833" lon="12.7318617"><ele>256.0</ele><time>2026-04-25T12:46:20.957Z</time></trkpt><trkpt lat="46.17353" lon="12.7322"><ele>255.5</ele><time>2026-04-25T12:46:21.956Z</time></trkpt><trkpt lat="46.173475" lon="12.7325417"><ele>255.0</ele><time>2026-04-25T12:46:22.958Z</time></trkpt><trkpt lat="46.1734183" lon="12.7328833"><ele>255.0</ele><time>2026-04-25T12:46:23.956Z</time></trkpt><trkpt lat="46.1733633" lon="12.733225"><ele>255.0</ele><time>2026-04-25T12:46:24.957Z</time></trkpt><trkpt lat="46.1733067" lon="12.733565"><ele>254.5</ele><time>2026-04-25T12:46:25.956Z</time></trkpt><trkpt lat="46.1732517" lon="12.7339033"><ele>254.0</ele><time>2026-04-25T12:46:26.956Z</time></trkpt><trkpt lat="46.1731967" lon="12.7342417"><ele>254.0</ele><time>2026-04-25T12:46:27.957Z</time></trkpt><trkpt lat="46.1731417" lon="12.734575"><ele>254.0</ele><time>2026-04-25T12:46:28.958Z</time></trkpt><trkpt lat="46.1730883" lon="12.7349067"><ele>253.5</ele><time>2026-04-25T12:46:29.957Z</time></trkpt><trkpt lat="46.173035" lon="12.7352383"><ele>253.0</ele><time>2026-04-25T12:46:30.957Z</time></trkpt><trkpt lat="46.1729783" lon="12.7355767"><ele>253.0</ele><time>2026-04-25T12:46:31.958Z</time></trkpt><trkpt lat="46.1729217" lon="12.7359183"><ele>253.0</ele><time>2026-04-25T12:46:32.957Z</time></trkpt><trkpt lat="46.172865" lon="12.7362667"><ele>252.0</ele><time>2026-04-25T12:46:33.957Z</time></trkpt><trkpt lat="46.1728117" lon="12.7366233"><ele>251.0</ele><time>2026-04-25T12:46:34.959Z</time></trkpt><trkpt lat="46.1727583" lon="12.7369817"><ele>251.0</ele><time>2026-04-25T12:46:35.958Z</time></trkpt><trkpt lat="46.1727033" lon="12.7373417"><ele>251.0</ele><time>2026-04-25T12:46:36.957Z</time></trkpt><trkpt lat="46.1726467" lon="12.737705"><ele>250.5</ele><time>2026-04-25T12:46:37.957Z</time></trkpt><trkpt lat="46.1725883" lon="12.7380717"><ele>250.0</ele><time>2026-04-25T12:46:38.958Z</time></trkpt><trkpt lat="46.1725267" lon="12.73844"><ele>249.0</ele><time>2026-04-25T12:46:39.957Z</time></trkpt><trkpt lat="46.1724667" lon="12.7388083"><ele>248.0</ele><time>2026-04-25T12:46:40.957Z</time></trkpt><trkpt lat="46.1724067" lon="12.73918"><ele>247.0</ele><time>2026-04-25T12:46:41.957Z</time></trkpt><trkpt lat="46.172345" lon="12.7395483"><ele>246.0</ele><time>2026-04-25T12:46:42.957Z</time></trkpt><trkpt lat="46.172285" lon="12.7399167"><ele>246.5</ele><time>2026-04-25T12:46:43.958Z</time></trkpt><trkpt lat="46.1722267" lon="12.74028"><ele>247.0</ele><time>2026-04-25T12:46:44.957Z</time></trkpt><trkpt lat="46.1721667" lon="12.7406433"><ele>247.0</ele><time>2026-04-25T12:46:45.957Z</time></trkpt><trkpt lat="46.1721067" lon="12.7410067"><ele>247.0</ele><time>2026-04-25T12:46:46.958Z</time></trkpt><trkpt lat="46.172045" lon="12.7413733"><ele>247.0</ele><time>2026-04-25T12:46:47.957Z</time></trkpt><trkpt lat="46.171985" lon="12.74174"><ele>247.0</ele><time>2026-04-25T12:46:48.956Z</time></trkpt><trkpt lat="46.1719233" lon="12.7421083"><ele>246.5</ele><time>2026-04-25T12:46:49.959Z</time></trkpt><trkpt lat="46.171865" lon="12.7424783"><ele>246.0</ele><time>2026-04-25T12:46:50.96Z</time></trkpt><trkpt lat="46.171805" lon="12.7428483"><ele>246.0</ele><time>2026-04-25T12:46:51.96Z</time></trkpt><trkpt lat="46.171745" lon="12.7432217"><ele>246.0</ele><time>2026-04-25T12:46:52.959Z</time></trkpt><trkpt lat="46.1716833" lon="12.7435967"><ele>244.5</ele><time>2026-04-25T12:46:53.958Z</time></trkpt><trkpt lat="46.1716233" lon="12.743975"><ele>243.0</ele><time>2026-04-25T12:46:54.959Z</time></trkpt><trkpt lat="46.1715617" lon="12.7443533"><ele>243.0</ele><time>2026-04-25T12:46:55.96Z</time></trkpt><trkpt lat="46.1715" lon="12.7447333"><ele>243.0</ele><time>2026-04-25T12:46:56.957Z</time></trkpt><trkpt lat="46.1714383" lon="12.745115"><ele>243.0</ele><time>2026-04-25T12:46:57.956Z</time></trkpt><trkpt lat="46.1713783" lon="12.745495"><ele>243.0</ele><time>2026-04-25T12:46:58.958Z</time></trkpt><trkpt lat="46.171315" lon="12.7458767"><ele>242.5</ele><time>2026-04-25T12:46:59.958Z</time></trkpt><trkpt lat="46.1712517" lon="12.7462583"><ele>242.0</ele><time>2026-04-25T12:47:00.958Z</time></trkpt><trkpt lat="46.1711917" lon="12.7466383"><ele>241.0</ele><time>2026-04-25T12:47:01.958Z</time></trkpt><trkpt lat="46.171135" lon="12.7470167"><ele>240.0</ele><time>2026-04-25T12:47:02.957Z</time></trkpt><trkpt lat="46.171075" lon="12.74739"><ele>239.0</ele><time>2026-04-25T12:47:03.958Z</time></trkpt><trkpt lat="46.1710167" lon="12.7477617"><ele>238.0</ele><time>2026-04-25T12:47:04.959Z</time></trkpt><trkpt lat="46.1709533" lon="12.7481333"><ele>238.0</ele><time>2026-04-25T12:47:05.958Z</time></trkpt><trkpt lat="46.1708933" lon="12.7485083"><ele>238.0</ele><time>2026-04-25T12:47:06.956Z</time></trkpt><trkpt lat="46.1708333" lon="12.7488817"><ele>238.0</ele><time>2026-04-25T12:47:07.957Z</time></trkpt><trkpt lat="46.1707733" lon="12.7492533"><ele>238.0</ele><time>2026-04-25T12:47:08.956Z</time></trkpt><trkpt lat="46.1707117" lon="12.7496267"><ele>236.5</ele><time>2026-04-25T12:47:09.956Z</time></trkpt><trkpt lat="46.1706533" lon="12.7500017"><ele>235.0</ele><time>2026-04-25T12:47:10.957Z</time></trkpt><trkpt lat="46.1705967" lon="12.750375"><ele>235.0</ele><time>2026-04-25T12:47:11.955Z</time></trkpt><trkpt lat="46.170535" lon="12.7507483"><ele>235.0</ele><time>2026-04-25T12:47:12.956Z</time></trkpt><trkpt lat="46.170475" lon="12.75112"><ele>235.0</ele><time>2026-04-25T12:47:13.958Z</time></trkpt><trkpt lat="46.1704133" lon="12.7514933"><ele>235.0</ele><time>2026-04-25T12:47:14.956Z</time></trkpt><trkpt lat="46.1703533" lon="12.7518667"><ele>235.0</ele><time>2026-04-25T12:47:15.957Z</time></trkpt><trkpt lat="46.170295" lon="12.7522383"><ele>235.0</ele><time>2026-04-25T12:47:16.956Z</time></trkpt><trkpt lat="46.170235" lon="12.75261"><ele>234.5</ele><time>2026-04-25T12:47:17.956Z</time></trkpt><trkpt lat="46.1701767" lon="12.7529783"><ele>234.0</ele><time>2026-04-25T12:47:18.957Z</time></trkpt><trkpt lat="46.17012" lon="12.7533483"><ele>234.0</ele><time>2026-04-25T12:47:19.956Z</time></trkpt><trkpt lat="46.17006" lon="12.7537167"><ele>234.0</ele><time>2026-04-25T12:47:20.957Z</time></trkpt><trkpt lat="46.1700017" lon="12.7540817"><ele>233.0</ele><time>2026-04-25T12:47:21.957Z</time></trkpt><trkpt lat="46.169945" lon="12.7544417"><ele>232.0</ele><time>2026-04-25T12:47:22.957Z</time></trkpt><trkpt lat="46.16989" lon="12.7548033"><ele>230.5</ele><time>2026-04-25T12:47:23.956Z</time></trkpt><trkpt lat="46.1698333" lon="12.7551617"><ele>229.0</ele><time>2026-04-25T12:47:24.957Z</time></trkpt><trkpt lat="46.1697767" lon="12.7555217"><ele>229.0</ele><time>2026-04-25T12:47:25.957Z</time></trkpt><trkpt lat="46.1697183" lon="12.75588"><ele>229.0</ele><time>2026-04-25T12:47:26.956Z</time></trkpt><trkpt lat="46.16966" lon="12.7562367"><ele>228.5</ele><time>2026-04-25T12:47:27.956Z</time></trkpt><trkpt lat="46.1696067" lon="12.7566017"><ele>228.0</ele><time>2026-04-25T12:47:28.957Z</time></trkpt><trkpt lat="46.16955" lon="12.7569667"><ele>227.5</ele><time>2026-04-25T12:47:29.956Z</time></trkpt><trkpt lat="46.1694933" lon="12.75733"><ele>227.0</ele><time>2026-04-25T12:47:30.958Z</time></trkpt><trkpt lat="46.1694417" lon="12.7576967"><ele>228.5</ele><time>2026-04-25T12:47:31.956Z</time></trkpt><trkpt lat="46.1693883" lon="12.7580667"><ele>230.0</ele><time>2026-04-25T12:47:32.956Z</time></trkpt><trkpt lat="46.16933" lon="12.75843"><ele>230.5</ele><time>2026-04-25T12:47:33.957Z</time></trkpt><trkpt lat="46.1692733" lon="12.7587917"><ele>231.0</ele><time>2026-04-25T12:47:34.956Z</time></trkpt><trkpt lat="46.16921" lon="12.7591467"><ele>231.0</ele><time>2026-04-25T12:47:35.955Z</time></trkpt><trkpt lat="46.1691367" lon="12.7594933"><ele>231.0</ele><time>2026-04-25T12:47:36.957Z</time></trkpt><trkpt lat="46.16906" lon="12.759835"><ele>228.5</ele><time>2026-04-25T12:47:37.957Z</time></trkpt><trkpt lat="46.1689817" lon="12.7601733"><ele>226.0</ele><time>2026-04-25T12:47:38.956Z</time></trkpt><trkpt lat="46.1688967" lon="12.7605067"><ele>226.0</ele><time>2026-04-25T12:47:39.956Z</time></trkpt><trkpt lat="46.16881" lon="12.760835"><ele>226.0</ele><time>2026-04-25T12:47:40.957Z</time></trkpt><trkpt lat="46.16872" lon="12.7611667"><ele>227.5</ele><time>2026-04-25T12:47:41.957Z</time></trkpt><trkpt lat="46.1686283" lon="12.761495"><ele>229.0</ele><time>2026-04-25T12:47:42.956Z</time></trkpt><trkpt lat="46.1685383" lon="12.7618267"><ele>230.0</ele><time>2026-04-25T12:47:43.957Z</time></trkpt><trkpt lat="46.16845" lon="12.7621617"><ele>231.0</ele><time>2026-04-25T12:47:44.956Z</time></trkpt><trkpt lat="46.1683617" lon="12.7624983"><ele>231.0</ele><time>2026-04-25T12:47:45.957Z</time></trkpt><trkpt lat="46.168275" lon="12.7628383"><ele>231.0</ele><time>2026-04-25T12:47:46.956Z</time></trkpt><trkpt lat="46.16819" lon="12.7631767"><ele>231.5</ele><time>2026-04-25T12:47:47.957Z</time></trkpt><trkpt lat="46.1681" lon="12.7635167"><ele>232.0</ele><time>2026-04-25T12:47:48.957Z</time></trkpt><trkpt lat="46.16801" lon="12.76386"><ele>232.0</ele><time>2026-04-25T12:47:49.957Z</time></trkpt><trkpt lat="46.1679183" lon="12.7642033"><ele>232.0</ele><time>2026-04-25T12:47:50.956Z</time></trkpt><trkpt lat="46.1678267" lon="12.7645483"><ele>232.0</ele><time>2026-04-25T12:47:51.957Z</time></trkpt><trkpt lat="46.167735" lon="12.7648883"><ele>232.0</ele><time>2026-04-25T12:47:52.957Z</time></trkpt><trkpt lat="46.167645" lon="12.7652367"><ele>232.5</ele><time>2026-04-25T12:47:53.957Z</time></trkpt><trkpt lat="46.1675567" lon="12.765585"><ele>233.0</ele><time>2026-04-25T12:47:54.957Z</time></trkpt><trkpt lat="46.1674667" lon="12.765935"><ele>233.0</ele><time>2026-04-25T12:47:55.957Z</time></trkpt><trkpt lat="46.1673767" lon="12.7662867"><ele>233.0</ele><time>2026-04-25T12:47:56.957Z</time></trkpt><trkpt lat="46.1672883" lon="12.7666367"><ele>232.5</ele><time>2026-04-25T12:47:57.957Z</time></trkpt><trkpt lat="46.167195" lon="12.7669783"><ele>232.0</ele><time>2026-04-25T12:47:58.957Z</time></trkpt><trkpt lat="46.1671033" lon="12.76732"><ele>232.0</ele><time>2026-04-25T12:47:59.956Z</time></trkpt><trkpt lat="46.1670133" lon="12.7676617"><ele>232.0</ele><time>2026-04-25T12:48:00.955Z</time></trkpt><trkpt lat="46.1669233" lon="12.768005"><ele>232.0</ele><time>2026-04-25T12:48:01.957Z</time></trkpt><trkpt lat="46.1668333" lon="12.7683483"><ele>232.0</ele><time>2026-04-25T12:48:02.957Z</time></trkpt><trkpt lat="46.1667417" lon="12.7686917"><ele>232.0</ele><time>2026-04-25T12:48:03.957Z</time></trkpt><trkpt lat="46.1666533" lon="12.7690333"><ele>232.0</ele><time>2026-04-25T12:48:04.958Z</time></trkpt><trkpt lat="46.166565" lon="12.7693733"><ele>231.5</ele><time>2026-04-25T12:48:05.956Z</time></trkpt><trkpt lat="46.1664767" lon="12.7697167"><ele>231.0</ele><time>2026-04-25T12:48:06.957Z</time></trkpt><trkpt lat="46.1663867" lon="12.7700583"><ele>231.5</ele><time>2026-04-25T12:48:07.956Z</time></trkpt><trkpt lat="46.1663" lon="12.7704017"><ele>232.0</ele><time>2026-04-25T12:48:08.956Z</time></trkpt><trkpt lat="46.16622" lon="12.770745"><ele>232.5</ele><time>2026-04-25T12:48:09.959Z</time></trkpt><trkpt lat="46.1661433" lon="12.7710933"><ele>233.0</ele><time>2026-04-25T12:48:10.957Z</time></trkpt><trkpt lat="46.1660717" lon="12.771445"><ele>233.0</ele><time>2026-04-25T12:48:11.957Z</time></trkpt><trkpt lat="46.1660033" lon="12.7717933"><ele>233.0</ele><time>2026-04-25T12:48:12.956Z</time></trkpt><trkpt lat="46.1659417" lon="12.772145"><ele>233.5</ele><time>2026-04-25T12:48:13.957Z</time></trkpt><trkpt lat="46.1658883" lon="12.7725"><ele>234.0</ele><time>2026-04-25T12:48:14.956Z</time></trkpt><trkpt lat="46.1658417" lon="12.7728533"><ele>233.0</ele><time>2026-04-25T12:48:15.957Z</time></trkpt><trkpt lat="46.1657983" lon="12.7732083"><ele>232.0</ele><time>2026-04-25T12:48:16.957Z</time></trkpt><trkpt lat="46.1657567" lon="12.77356"><ele>232.0</ele><time>2026-04-25T12:48:17.956Z</time></trkpt><trkpt lat="46.165715" lon="12.7739117"><ele>232.0</ele><time>2026-04-25T12:48:18.956Z</time></trkpt><trkpt lat="46.1656767" lon="12.7742633"><ele>232.0</ele><time>2026-04-25T12:48:19.958Z</time></trkpt><trkpt lat="46.1656433" lon="12.77462"><ele>232.0</ele><time>2026-04-25T12:48:20.958Z</time></trkpt><trkpt lat="46.1656083" lon="12.7749733"><ele>232.0</ele><time>2026-04-25T12:48:21.957Z</time></trkpt><trkpt lat="46.1655717" lon="12.7753267"><ele>232.0</ele><time>2026-04-25T12:48:22.956Z</time></trkpt><trkpt lat="46.1655333" lon="12.7756833"><ele>231.5</ele><time>2026-04-25T12:48:23.957Z</time></trkpt><trkpt lat="46.165495" lon="12.7760383"><ele>231.0</ele><time>2026-04-25T12:48:24.956Z</time></trkpt><trkpt lat="46.1654567" lon="12.7763967"><ele>231.0</ele><time>2026-04-25T12:48:25.956Z</time></trkpt><trkpt lat="46.1654183" lon="12.776755"><ele>231.0</ele><time>2026-04-25T12:48:26.957Z</time></trkpt><trkpt lat="46.16538" lon="12.7771133"><ele>231.0</ele><time>2026-04-25T12:48:27.957Z</time></trkpt><trkpt lat="46.1653433" lon="12.777475"><ele>231.0</ele><time>2026-04-25T12:48:28.957Z</time></trkpt><trkpt lat="46.1653067" lon="12.777835"><ele>231.0</ele><time>2026-04-25T12:48:29.956Z</time></trkpt><trkpt lat="46.1652683" lon="12.7781967"><ele>231.0</ele><time>2026-04-25T12:48:30.957Z</time></trkpt><trkpt lat="46.16523" lon="12.77856"><ele>230.0</ele><time>2026-04-25T12:48:31.957Z</time></trkpt><trkpt lat="46.1651917" lon="12.778925"><ele>229.0</ele><time>2026-04-25T12:48:32.957Z</time></trkpt><trkpt lat="46.1651517" lon="12.7792933"><ele>230.0</ele><time>2026-04-25T12:48:33.955Z</time></trkpt><trkpt lat="46.1651133" lon="12.7796567"><ele>231.0</ele><time>2026-04-25T12:48:34.957Z</time></trkpt><trkpt lat="46.1650783" lon="12.7800167"><ele>231.5</ele><time>2026-04-25T12:48:35.957Z</time></trkpt><trkpt lat="46.165045" lon="12.780375"><ele>232.0</ele><time>2026-04-25T12:48:36.957Z</time></trkpt><trkpt lat="46.16501" lon="12.780735"><ele>232.5</ele><time>2026-04-25T12:48:37.957Z</time></trkpt><trkpt lat="46.1649717" lon="12.781095"><ele>233.0</ele><time>2026-04-25T12:48:38.956Z</time></trkpt><trkpt lat="46.1649333" lon="12.7814567"><ele>233.0</ele><time>2026-04-25T12:48:39.957Z</time></trkpt><trkpt lat="46.1648967" lon="12.78182"><ele>233.0</ele><time>2026-04-25T12:48:40.958Z</time></trkpt><trkpt lat="46.16486" lon="12.782185"><ele>232.5</ele><time>2026-04-25T12:48:41.957Z</time></trkpt><trkpt lat="46.164825" lon="12.7825517"><ele>232.0</ele><time>2026-04-25T12:48:42.958Z</time></trkpt><trkpt lat="46.1647867" lon="12.7829183"><ele>232.0</ele><time>2026-04-25T12:48:43.957Z</time></trkpt><trkpt lat="46.1647483" lon="12.7832867"><ele>232.0</ele><time>2026-04-25T12:48:44.957Z</time></trkpt><trkpt lat="46.16471" lon="12.7836533"><ele>232.0</ele><time>2026-04-25T12:48:45.957Z</time></trkpt><trkpt lat="46.1646717" lon="12.7840083"><ele>232.0</ele><time>2026-04-25T12:48:46.958Z</time></trkpt><trkpt lat="46.1646333" lon="12.7843517"><ele>231.5</ele><time>2026-04-25T12:48:47.957Z</time></trkpt><trkpt lat="46.1645967" lon="12.7846917"><ele>231.0</ele><time>2026-04-25T12:48:48.959Z</time></trkpt><trkpt lat="46.1645633" lon="12.785025"><ele>231.0</ele><time>2026-04-25T12:48:49.957Z</time></trkpt><trkpt lat="46.16453" lon="12.7853583"><ele>231.0</ele><time>2026-04-25T12:48:50.958Z</time></trkpt><trkpt lat="46.1644967" lon="12.78569"><ele>230.5</ele><time>2026-04-25T12:48:51.957Z</time></trkpt><trkpt lat="46.1644633" lon="12.7860233"><ele>230.0</ele><time>2026-04-25T12:48:52.958Z</time></trkpt><trkpt lat="46.16443" lon="12.7863533"><ele>230.0</ele><time>2026-04-25T12:48:53.958Z</time></trkpt><trkpt lat="46.1643967" lon="12.7866783"><ele>230.0</ele><time>2026-04-25T12:48:54.958Z</time></trkpt><trkpt lat="46.1643667" lon="12.7870017"><ele>230.0</ele><time>2026-04-25T12:48:55.958Z</time></trkpt><trkpt lat="46.164335" lon="12.78732"><ele>230.0</ele><time>2026-04-25T12:48:56.957Z</time></trkpt><trkpt lat="46.1643067" lon="12.7876283"><ele>230.0</ele><time>2026-04-25T12:48:57.957Z</time></trkpt><trkpt lat="46.164275" lon="12.78792"><ele>230.0</ele><time>2026-04-25T12:48:58.958Z</time></trkpt><trkpt lat="46.164245" lon="12.7881933"><ele>230.0</ele><time>2026-04-25T12:48:59.957Z</time></trkpt><trkpt lat="46.1642167" lon="12.7884483"><ele>230.0</ele><time>2026-04-25T12:49:00.957Z</time></trkpt><trkpt lat="46.1641917" lon="12.788685"><ele>230.33333333333334</ele><time>2026-04-25T12:49:01.957Z</time></trkpt><trkpt lat="46.1641683" lon="12.7889167"><ele>230.66666666666669</ele><time>2026-04-25T12:49:02.956Z</time></trkpt><trkpt lat="46.164145" lon="12.789145"><ele>231.0</ele><time>2026-04-25T12:49:03.956Z</time></trkpt><trkpt lat="46.1641217" lon="12.7893683"><ele>231.0</ele><time>2026-04-25T12:49:04.957Z</time></trkpt><trkpt lat="46.1640983" lon="12.7895917"><ele>231.0</ele><time>2026-04-25T12:49:05.956Z</time></trkpt><trkpt lat="46.164075" lon="12.7898183"><ele>231.0</ele><time>2026-04-25T12:49:06.956Z</time></trkpt><trkpt lat="46.1640517" lon="12.7900483"><ele>231.0</ele><time>2026-04-25T12:49:07.957Z</time></trkpt><trkpt lat="46.164025" lon="12.790285"><ele>231.0</ele><time>2026-04-25T12:49:08.957Z</time></trkpt><trkpt lat="46.163995" lon="12.790525"><ele>231.0</ele><time>2026-04-25T12:49:09.957Z</time></trkpt><trkpt lat="46.1639567" lon="12.79077"><ele>230.66666666666669</ele><time>2026-04-25T12:49:10.957Z</time></trkpt><trkpt lat="46.1639167" lon="12.791025"><ele>230.33333333333334</ele><time>2026-04-25T12:49:11.957Z</time></trkpt><trkpt lat="46.1638733" lon="12.7912867"><ele>230.0</ele><time>2026-04-25T12:49:12.957Z</time></trkpt><trkpt lat="46.163825" lon="12.79155"><ele>230.0</ele><time>2026-04-25T12:49:13.957Z</time></trkpt><trkpt lat="46.163775" lon="12.7918083"><ele>230.0</ele><time>2026-04-25T12:49:14.956Z</time></trkpt><trkpt lat="46.1637267" lon="12.79206"><ele>230.0</ele><time>2026-04-25T12:49:15.957Z</time></trkpt><trkpt lat="46.1636767" lon="12.7923083"><ele>230.33333333333334</ele><time>2026-04-25T12:49:16.958Z</time></trkpt><trkpt lat="46.163625" lon="12.7925517"><ele>230.66666666666669</ele><time>2026-04-25T12:49:17.958Z</time></trkpt><trkpt lat="46.1635733" lon="12.7927933"><ele>231.0</ele><time>2026-04-25T12:49:18.956Z</time></trkpt><trkpt lat="46.1635233" lon="12.7930383"><ele>231.0</ele><time>2026-04-25T12:49:19.958Z</time></trkpt><trkpt lat="46.1634733" lon="12.79329"><ele>231.0</ele><time>2026-04-25T12:49:20.957Z</time></trkpt><trkpt lat="46.1634233" lon="12.793545"><ele>231.0</ele><time>2026-04-25T12:49:21.958Z</time></trkpt><trkpt lat="46.16337" lon="12.7938117"><ele>230.66666666666669</ele><time>2026-04-25T12:49:22.959Z</time></trkpt><trkpt lat="46.1633133" lon="12.79409"><ele>230.33333333333334</ele><time>2026-04-25T12:49:23.957Z</time></trkpt><trkpt lat="46.16326" lon="12.7943783"><ele>230.0</ele><time>2026-04-25T12:49:24.959Z</time></trkpt><trkpt lat="46.1631983" lon="12.7946717"><ele>230.0</ele><time>2026-04-25T12:49:25.957Z</time></trkpt><trkpt lat="46.163135" lon="12.7949767"><ele>230.0</ele><time>2026-04-25T12:49:26.957Z</time></trkpt><trkpt lat="46.1630683" lon="12.7952883"><ele>230.0</ele><time>2026-04-25T12:49:27.956Z</time></trkpt><trkpt lat="46.1629983" lon="12.7956083"><ele>230.0</ele><time>2026-04-25T12:49:28.956Z</time></trkpt><trkpt lat="46.1629317" lon="12.7959367"><ele>230.0</ele><time>2026-04-25T12:49:29.957Z</time></trkpt><trkpt lat="46.1628683" lon="12.7962767"><ele>230.0</ele><time>2026-04-25T12:49:30.957Z</time></trkpt><trkpt lat="46.1628" lon="12.7966217"><ele>230.0</ele><time>2026-04-25T12:49:31.957Z</time></trkpt><trkpt lat="46.1627267" lon="12.7969717"><ele>229.0</ele><time>2026-04-25T12:49:32.957Z</time></trkpt><trkpt lat="46.16265" lon="12.797325"><ele>228.0</ele><time>2026-04-25T12:49:33.957Z</time></trkpt><trkpt lat="46.162575" lon="12.7976783"><ele>227.5</ele><time>2026-04-25T12:49:34.958Z</time></trkpt><trkpt lat="46.16251" lon="12.79804"><ele>227.0</ele><time>2026-04-25T12:49:35.957Z</time></trkpt><trkpt lat="46.1624567" lon="12.7984067"><ele>226.5</ele><time>2026-04-25T12:49:36.957Z</time></trkpt><trkpt lat="46.1624183" lon="12.7987733"><ele>226.0</ele><time>2026-04-25T12:49:37.957Z</time></trkpt><trkpt lat="46.1623867" lon="12.7991433"><ele>226.0</ele><time>2026-04-25T12:49:38.957Z</time></trkpt><trkpt lat="46.1623617" lon="12.799515"><ele>226.0</ele><time>2026-04-25T12:49:39.957Z</time></trkpt><trkpt lat="46.1623467" lon="12.7998867"><ele>227.0</ele><time>2026-04-25T12:49:40.958Z</time></trkpt><trkpt lat="46.1623333" lon="12.800255"><ele>228.0</ele><time>2026-04-25T12:49:41.956Z</time></trkpt><trkpt lat="46.1623217" lon="12.800625"><ele>228.0</ele><time>2026-04-25T12:49:42.956Z</time></trkpt><trkpt lat="46.1623133" lon="12.8009933"><ele>228.0</ele><time>2026-04-25T12:49:43.957Z</time></trkpt><trkpt lat="46.1623033" lon="12.8013633"><ele>227.5</ele><time>2026-04-25T12:49:44.956Z</time></trkpt><trkpt lat="46.162295" lon="12.8017333"><ele>227.0</ele><time>2026-04-25T12:49:45.956Z</time></trkpt><trkpt lat="46.162285" lon="12.8021017"><ele>227.0</ele><time>2026-04-25T12:49:46.957Z</time></trkpt><trkpt lat="46.162275" lon="12.8024733"><ele>227.0</ele><time>2026-04-25T12:49:47.957Z</time></trkpt><trkpt lat="46.1622633" lon="12.8028467"><ele>226.5</ele><time>2026-04-25T12:49:48.957Z</time></trkpt><trkpt lat="46.1622533" lon="12.8032083"><ele>226.0</ele><time>2026-04-25T12:49:49.957Z</time></trkpt><trkpt lat="46.1622417" lon="12.80356"><ele>225.5</ele><time>2026-04-25T12:49:50.956Z</time></trkpt><trkpt lat="46.1622317" lon="12.8039117"><ele>225.0</ele><time>2026-04-25T12:49:51.957Z</time></trkpt><trkpt lat="46.16222" lon="12.8042567"><ele>225.5</ele><time>2026-04-25T12:49:52.957Z</time></trkpt><trkpt lat="46.1622083" lon="12.8046017"><ele>226.0</ele><time>2026-04-25T12:49:53.957Z</time></trkpt><trkpt lat="46.162195" lon="12.804945"><ele>226.0</ele><time>2026-04-25T12:49:54.958Z</time></trkpt><trkpt lat="46.1621833" lon="12.80528"><ele>226.0</ele><time>2026-04-25T12:49:55.956Z</time></trkpt><trkpt lat="46.16217" lon="12.8056067"><ele>226.0</ele><time>2026-04-25T12:49:56.957Z</time></trkpt><trkpt lat="46.1621567" lon="12.8059283"><ele>226.0</ele><time>2026-04-25T12:49:57.957Z</time></trkpt><trkpt lat="46.16214" lon="12.8062433"><ele>226.0</ele><time>2026-04-25T12:49:58.957Z</time></trkpt><trkpt lat="46.1621167" lon="12.806555"><ele>225.33333333333331</ele><time>2026-04-25T12:49:59.957Z</time></trkpt><trkpt lat="46.1620867" lon="12.806865"><ele>224.66666666666669</ele><time>2026-04-25T12:50:00.957Z</time></trkpt><trkpt lat="46.16205" lon="12.8071733"><ele>224.0</ele><time>2026-04-25T12:50:01.957Z</time></trkpt><trkpt lat="46.1620133" lon="12.80748"><ele>224.66666666666669</ele><time>2026-04-25T12:50:02.957Z</time></trkpt><trkpt lat="46.161975" lon="12.8077867"><ele>225.33333333333331</ele><time>2026-04-25T12:50:03.956Z</time></trkpt><trkpt lat="46.1619367" lon="12.80809"><ele>226.0</ele><time>2026-04-25T12:50:04.956Z</time></trkpt><trkpt lat="46.1619" lon="12.8083933"><ele>226.0</ele><time>2026-04-25T12:50:05.957Z</time></trkpt><trkpt lat="46.161865" lon="12.8086967"><ele>226.0</ele><time>2026-04-25T12:50:06.957Z</time></trkpt><trkpt lat="46.16183" lon="12.8089867"><ele>226.0</ele><time>2026-04-25T12:50:07.957Z</time></trkpt><trkpt lat="46.1617933" lon="12.80926"><ele>226.0</ele><time>2026-04-25T12:50:08.957Z</time></trkpt><trkpt lat="46.1617567" lon="12.8095117"><ele>226.0</ele><time>2026-04-25T12:50:09.957Z</time></trkpt><trkpt lat="46.161715" lon="12.8097483"><ele>226.0</ele><time>2026-04-25T12:50:10.958Z</time></trkpt><trkpt lat="46.1616667" lon="12.809985"><ele>225.66666666666666</ele><time>2026-04-25T12:50:11.956Z</time></trkpt><trkpt lat="46.1616067" lon="12.8102183"><ele>225.33333333333331</ele><time>2026-04-25T12:50:12.957Z</time></trkpt><trkpt lat="46.1615467" lon="12.8104567"><ele>225.0</ele><time>2026-04-25T12:50:13.957Z</time></trkpt><trkpt lat="46.1615083" lon="12.8107067"><ele>224.33333333333331</ele><time>2026-04-25T12:50:14.957Z</time></trkpt><trkpt lat="46.1614967" lon="12.8109633"><ele>223.66666666666666</ele><time>2026-04-25T12:50:15.957Z</time></trkpt><trkpt lat="46.1615183" lon="12.811205"><ele>223.0</ele><time>2026-04-25T12:50:16.958Z</time></trkpt><trkpt lat="46.1615667" lon="12.8114483"><ele>223.0</ele><time>2026-04-25T12:50:17.957Z</time></trkpt><trkpt lat="46.1616367" lon="12.8116867"><ele>223.0</ele><time>2026-04-25T12:50:18.958Z</time></trkpt><trkpt lat="46.1617267" lon="12.81193"><ele>223.0</ele><time>2026-04-25T12:50:19.958Z</time></trkpt><trkpt lat="46.1618233" lon="12.8121767"><ele>221.0</ele><time>2026-04-25T12:50:20.958Z</time></trkpt><trkpt lat="46.1619167" lon="12.81243"><ele>219.0</ele><time>2026-04-25T12:50:21.958Z</time></trkpt><trkpt lat="46.1620133" lon="12.812675"><ele>217.0</ele><time>2026-04-25T12:50:22.958Z</time></trkpt><trkpt lat="46.1621083" lon="12.812915"><ele>215.66666666666666</ele><time>2026-04-25T12:50:23.958Z</time></trkpt><trkpt lat="46.1622017" lon="12.8131483"><ele>214.33333333333331</ele><time>2026-04-25T12:50:24.958Z</time></trkpt><trkpt lat="46.1622917" lon="12.8133783"><ele>213.0</ele><time>2026-04-25T12:50:25.958Z</time></trkpt><trkpt lat="46.1623783" lon="12.813595"><ele>213.0</ele><time>2026-04-25T12:50:26.958Z</time></trkpt><trkpt lat="46.1624717" lon="12.8137933"><ele>213.0</ele><time>2026-04-25T12:50:27.957Z</time></trkpt><trkpt lat="46.1625883" lon="12.8139617"><ele>213.0</ele><time>2026-04-25T12:50:28.957Z</time></trkpt><trkpt lat="46.162725" lon="12.814095"><ele>213.0</ele><time>2026-04-25T12:50:29.957Z</time></trkpt><trkpt lat="46.162875" lon="12.8141767"><ele>213.0</ele><time>2026-04-25T12:50:30.957Z</time></trkpt><trkpt lat="46.1630217" lon="12.8142067"><ele>213.0</ele><time>2026-04-25T12:50:31.956Z</time></trkpt><trkpt lat="46.1631467" lon="12.81421"><ele>213.0</ele><time>2026-04-25T12:50:32.957Z</time></trkpt><trkpt lat="46.163255" lon="12.8142117"><ele>213.4</ele><time>2026-04-25T12:50:33.957Z</time></trkpt><trkpt lat="46.16335" lon="12.8142467"><ele>213.8</ele><time>2026-04-25T12:50:34.958Z</time></trkpt><trkpt lat="46.163425" lon="12.814315"><ele>214.2</ele><time>2026-04-25T12:50:35.958Z</time></trkpt><trkpt lat="46.163475" lon="12.8144283"><ele>214.6</ele><time>2026-04-25T12:50:36.957Z</time></trkpt><trkpt lat="46.1635083" lon="12.8145767"><ele>215.0</ele><time>2026-04-25T12:50:37.958Z</time></trkpt><trkpt lat="46.1635317" lon="12.81474"><ele>212.0</ele><time>2026-04-25T12:50:38.958Z</time></trkpt><trkpt lat="46.163555" lon="12.8149233"><ele>209.0</ele><time>2026-04-25T12:50:39.957Z</time></trkpt><trkpt lat="46.1635833" lon="12.8151167"><ele>206.0</ele><time>2026-04-25T12:50:40.956Z</time></trkpt><trkpt lat="46.1636217" lon="12.8153183"><ele>203.0</ele><time>2026-04-25T12:50:41.957Z</time></trkpt><trkpt lat="46.163655" lon="12.8155333"><ele>202.66666666666669</ele><time>2026-04-25T12:50:42.957Z</time></trkpt><trkpt lat="46.163685" lon="12.815755"><ele>202.33333333333331</ele><time>2026-04-25T12:50:43.957Z</time></trkpt><trkpt lat="46.1637133" lon="12.8159683"><ele>202.0</ele><time>2026-04-25T12:50:44.956Z</time></trkpt><trkpt lat="46.1637433" lon="12.81618"><ele>202.0</ele><time>2026-04-25T12:50:45.957Z</time></trkpt><trkpt lat="46.1637733" lon="12.8163933"><ele>202.0</ele><time>2026-04-25T12:50:46.957Z</time></trkpt><trkpt lat="46.1638017" lon="12.8166017"><ele>202.0</ele><time>2026-04-25T12:50:47.956Z</time></trkpt><trkpt lat="46.16383" lon="12.8168"><ele>202.0</ele><time>2026-04-25T12:50:48.956Z</time></trkpt><trkpt lat="46.1638467" lon="12.816995"><ele>202.5</ele><time>2026-04-25T12:50:49.957Z</time></trkpt><trkpt lat="46.163845" lon="12.8171817"><ele>203.0</ele><time>2026-04-25T12:50:50.956Z</time></trkpt><trkpt lat="46.1638183" lon="12.8173567"><ele>203.5</ele><time>2026-04-25T12:50:51.958Z</time></trkpt><trkpt lat="46.1637717" lon="12.8175133"><ele>204.0</ele><time>2026-04-25T12:50:52.957Z</time></trkpt><trkpt lat="46.163705" lon="12.8176633"><ele>205.75</ele><time>2026-04-25T12:50:53.957Z</time></trkpt><trkpt lat="46.163615" lon="12.8177983"><ele>207.5</ele><time>2026-04-25T12:50:54.957Z</time></trkpt><trkpt lat="46.1635017" lon="12.81793"><ele>209.25</ele><time>2026-04-25T12:50:55.958Z</time></trkpt><trkpt lat="46.1633683" lon="12.8180667"><ele>211.0</ele><time>2026-04-25T12:50:56.958Z</time></trkpt><trkpt lat="46.1632167" lon="12.81822"><ele>211.66666666666666</ele><time>2026-04-25T12:50:57.957Z</time></trkpt><trkpt lat="46.163055" lon="12.81838"><ele>212.33333333333331</ele><time>2026-04-25T12:50:58.958Z</time></trkpt><trkpt lat="46.1628867" lon="12.8185467"><ele>213.0</ele><time>2026-04-25T12:50:59.958Z</time></trkpt><trkpt lat="46.16272" lon="12.81871"><ele>213.0</ele><time>2026-04-25T12:51:00.957Z</time></trkpt><trkpt lat="46.1625567" lon="12.818865"><ele>213.0</ele><time>2026-04-25T12:51:01.958Z</time></trkpt><trkpt lat="46.1623817" lon="12.819"><ele>213.0</ele><time>2026-04-25T12:51:02.957Z</time></trkpt><trkpt lat="46.1621867" lon="12.81911"><ele>211.33333333333331</ele><time>2026-04-25T12:51:03.958Z</time></trkpt><trkpt lat="46.16199" lon="12.8192033"><ele>209.66666666666666</ele><time>2026-04-25T12:51:04.957Z</time></trkpt><trkpt lat="46.161785" lon="12.8192867"><ele>208.0</ele><time>2026-04-25T12:51:05.957Z</time></trkpt><trkpt lat="46.1615783" lon="12.819375"><ele>211.33333333333331</ele><time>2026-04-25T12:51:06.957Z</time></trkpt><trkpt lat="46.16137" lon="12.8194717"><ele>214.66666666666669</ele><time>2026-04-25T12:51:07.958Z</time></trkpt><trkpt lat="46.1611583" lon="12.8195883"><ele>218.0</ele><time>2026-04-25T12:51:08.956Z</time></trkpt><trkpt lat="46.1609517" lon="12.8197267"><ele>218.0</ele><time>2026-04-25T12:51:09.957Z</time></trkpt><trkpt lat="46.1607483" lon="12.8198733"><ele>218.0</ele><time>2026-04-25T12:51:10.958Z</time></trkpt><trkpt lat="46.160545" lon="12.8200217"><ele>221.5</ele><time>2026-04-25T12:51:11.957Z</time></trkpt><trkpt lat="46.1603433" lon="12.8201733"><ele>225.0</ele><time>2026-04-25T12:51:12.956Z</time></trkpt><trkpt lat="46.1601367" lon="12.8203267"><ele>225.0</ele><time>2026-04-25T12:51:13.958Z</time></trkpt><trkpt lat="46.1599333" lon="12.8204767"><ele>225.0</ele><time>2026-04-25T12:51:14.956Z</time></trkpt><trkpt lat="46.1597317" lon="12.8206333"><ele>222.66666666666669</ele><time>2026-04-25T12:51:15.958Z</time></trkpt><trkpt lat="46.1595367" lon="12.8207817"><ele>220.33333333333334</ele><time>2026-04-25T12:51:16.957Z</time></trkpt><trkpt lat="46.159345" lon="12.8209267"><ele>218.0</ele><time>2026-04-25T12:51:17.956Z</time></trkpt><trkpt lat="46.1591567" lon="12.8210633"><ele>214.33333333333334</ele><time>2026-04-25T12:51:18.956Z</time></trkpt><trkpt lat="46.1589783" lon="12.8211933"><ele>210.66666666666669</ele><time>2026-04-25T12:51:19.957Z</time></trkpt><trkpt lat="46.1588083" lon="12.8213167"><ele>207.0</ele><time>2026-04-25T12:51:20.958Z</time></trkpt><trkpt lat="46.1586517" lon="12.8214517"><ele>207.0</ele><time>2026-04-25T12:51:21.958Z</time></trkpt><trkpt lat="46.1585117" lon="12.8216083"><ele>207.0</ele><time>2026-04-25T12:51:22.958Z</time></trkpt><trkpt lat="46.1583917" lon="12.8217933"><ele>207.0</ele><time>2026-04-25T12:51:23.957Z</time></trkpt><trkpt lat="46.1583117" lon="12.82201"><ele>209.0</ele><time>2026-04-25T12:51:24.958Z</time></trkpt><trkpt lat="46.158275" lon="12.82225"><ele>211.0</ele><time>2026-04-25T12:51:25.958Z</time></trkpt><trkpt lat="46.1582617" lon="12.8225133"><ele>213.0</ele><time>2026-04-25T12:51:26.956Z</time></trkpt><trkpt lat="46.1582633" lon="12.8227917"><ele>213.0</ele><time>2026-04-25T12:51:27.958Z</time></trkpt><trkpt lat="46.1582733" lon="12.8230817"><ele>213.0</ele><time>2026-04-25T12:51:28.958Z</time></trkpt><trkpt lat="46.1582917" lon="12.8233767"><ele>213.0</ele><time>2026-04-25T12:51:29.957Z</time></trkpt><trkpt lat="46.1583083" lon="12.82369"><ele>213.0</ele><time>2026-04-25T12:51:30.957Z</time></trkpt><trkpt lat="46.158325" lon="12.8239967"><ele>213.0</ele><time>2026-04-25T12:51:31.957Z</time></trkpt><trkpt lat="46.1583367" lon="12.8242883"><ele>213.0</ele><time>2026-04-25T12:51:32.958Z</time></trkpt><trkpt lat="46.15834" lon="12.8245767"><ele>213.0</ele><time>2026-04-25T12:51:33.958Z</time></trkpt><trkpt lat="46.1583367" lon="12.8248733"><ele>213.0</ele><time>2026-04-25T12:51:34.958Z</time></trkpt><trkpt lat="46.158335" lon="12.8251667"><ele>213.0</ele><time>2026-04-25T12:51:35.957Z</time></trkpt><trkpt lat="46.158335" lon="12.8254633"><ele>213.0</ele><time>2026-04-25T12:51:36.957Z</time></trkpt><trkpt lat="46.15834" lon="12.8257633"><ele>213.0</ele><time>2026-04-25T12:51:37.958Z</time></trkpt><trkpt lat="46.1583533" lon="12.8260617"><ele>213.0</ele><time>2026-04-25T12:51:38.957Z</time></trkpt><trkpt lat="46.1583733" lon="12.82637"><ele>213.0</ele><time>2026-04-25T12:51:39.959Z</time></trkpt><trkpt lat="46.158395" lon="12.8266733"><ele>213.0</ele><time>2026-04-25T12:51:40.959Z</time></trkpt><trkpt lat="46.1584217" lon="12.8269833"><ele>213.0</ele><time>2026-04-25T12:51:41.959Z</time></trkpt><trkpt lat="46.1584517" lon="12.827295"><ele>213.0</ele><time>2026-04-25T12:51:42.96Z</time></trkpt><trkpt lat="46.158485" lon="12.82761"><ele>213.0</ele><time>2026-04-25T12:51:43.958Z</time></trkpt><trkpt lat="46.1585233" lon="12.8279267"><ele>213.0</ele><time>2026-04-25T12:51:44.958Z</time></trkpt><trkpt lat="46.158555" lon="12.8282467"><ele>212.66666666666669</ele><time>2026-04-25T12:51:45.958Z</time></trkpt><trkpt lat="46.1585867" lon="12.828565"><ele>212.33333333333334</ele><time>2026-04-25T12:51:46.959Z</time></trkpt><trkpt lat="46.158615" lon="12.8288833"><ele>212.0</ele><time>2026-04-25T12:51:47.959Z</time></trkpt><trkpt lat="46.1586467" lon="12.8291983"><ele>211.66666666666669</ele><time>2026-04-25T12:51:48.958Z</time></trkpt><trkpt lat="46.1586817" lon="12.8295133"><ele>211.33333333333331</ele><time>2026-04-25T12:51:49.959Z</time></trkpt><trkpt lat="46.158715" lon="12.8298267"><ele>211.0</ele><time>2026-04-25T12:51:50.959Z</time></trkpt><trkpt lat="46.158745" lon="12.8301333"><ele>210.66666666666666</ele><time>2026-04-25T12:51:51.959Z</time></trkpt><trkpt lat="46.1587733" lon="12.830435"><ele>210.33333333333331</ele><time>2026-04-25T12:51:52.959Z</time></trkpt><trkpt lat="46.1588033" lon="12.830735"><ele>210.0</ele><time>2026-04-25T12:51:53.958Z</time></trkpt><trkpt lat="46.1588333" lon="12.8310383"><ele>209.33333333333331</ele><time>2026-04-25T12:51:54.958Z</time></trkpt><trkpt lat="46.1588617" lon="12.8313433"><ele>208.66666666666666</ele><time>2026-04-25T12:51:55.96Z</time></trkpt><trkpt lat="46.1588917" lon="12.8316483"><ele>208.0</ele><time>2026-04-25T12:51:56.958Z</time></trkpt><trkpt lat="46.15892" lon="12.8319533"><ele>208.0</ele><time>2026-04-25T12:51:57.959Z</time></trkpt><trkpt lat="46.1589533" lon="12.83226"><ele>208.0</ele><time>2026-04-25T12:51:58.958Z</time></trkpt><trkpt lat="46.158985" lon="12.8325667"><ele>208.0</ele><time>2026-04-25T12:51:59.959Z</time></trkpt><trkpt lat="46.159015" lon="12.8328683"><ele>208.0</ele><time>2026-04-25T12:52:00.959Z</time></trkpt><trkpt lat="46.159045" lon="12.8331633"><ele>208.0</ele><time>2026-04-25T12:52:01.959Z</time></trkpt><trkpt lat="46.1590717" lon="12.83345"><ele>208.0</ele><time>2026-04-25T12:52:02.958Z</time></trkpt><trkpt lat="46.1590967" lon="12.8337267"><ele>207.0</ele><time>2026-04-25T12:52:03.959Z</time></trkpt><trkpt lat="46.15912" lon="12.8339967"><ele>206.0</ele><time>2026-04-25T12:52:04.959Z</time></trkpt><trkpt lat="46.1591433" lon="12.8342633"><ele>205.0</ele><time>2026-04-25T12:52:05.959Z</time></trkpt><trkpt lat="46.15916" lon="12.834525"><ele>205.0</ele><time>2026-04-25T12:52:06.959Z</time></trkpt><trkpt lat="46.15917" lon="12.8347767"><ele>205.0</ele><time>2026-04-25T12:52:07.959Z</time></trkpt><trkpt lat="46.1591683" lon="12.8350183"><ele>205.0</ele><time>2026-04-25T12:52:08.958Z</time></trkpt><trkpt lat="46.15916" lon="12.8352517"><ele>205.0</ele><time>2026-04-25T12:52:09.958Z</time></trkpt><trkpt lat="46.1591483" lon="12.8354733"><ele>205.0</ele><time>2026-04-25T12:52:10.959Z</time></trkpt><trkpt lat="46.1591333" lon="12.8356817"><ele>205.0</ele><time>2026-04-25T12:52:11.959Z</time></trkpt><trkpt lat="46.1591217" lon="12.835875"><ele>205.0</ele><time>2026-04-25T12:52:12.959Z</time></trkpt><trkpt lat="46.1591217" lon="12.8360517"><ele>204.5</ele><time>2026-04-25T12:52:13.959Z</time></trkpt><trkpt lat="46.1591333" lon="12.8362167"><ele>204.0</ele><time>2026-04-25T12:52:14.958Z</time></trkpt><trkpt lat="46.1591367" lon="12.8363833"><ele>203.5</ele><time>2026-04-25T12:52:15.958Z</time></trkpt><trkpt lat="46.159125" lon="12.8365533"><ele>203.0</ele><time>2026-04-25T12:52:16.96Z</time></trkpt><trkpt lat="46.1591133" lon="12.8367233"><ele>202.75</ele><time>2026-04-25T12:52:17.96Z</time></trkpt><trkpt lat="46.1591233" lon="12.8368883"><ele>202.5</ele><time>2026-04-25T12:52:18.957Z</time></trkpt><trkpt lat="46.15917" lon="12.8370483"><ele>202.25</ele><time>2026-04-25T12:52:19.957Z</time></trkpt><trkpt lat="46.15924" lon="12.8371933"><ele>202.0</ele><time>2026-04-25T12:52:20.957Z</time></trkpt><trkpt lat="46.1593033" lon="12.8373517"><ele>202.0</ele><time>2026-04-25T12:52:21.958Z</time></trkpt><trkpt lat="46.1593517" lon="12.83754"><ele>202.0</ele><time>2026-04-25T12:52:22.957Z</time></trkpt><trkpt lat="46.1593833" lon="12.837755"><ele>202.0</ele><time>2026-04-25T12:52:23.957Z</time></trkpt><trkpt lat="46.1594033" lon="12.8379933"><ele>201.0</ele><time>2026-04-25T12:52:24.958Z</time></trkpt><trkpt lat="46.1594167" lon="12.838255"><ele>200.0</ele><time>2026-04-25T12:52:25.96Z</time></trkpt><trkpt lat="46.15943" lon="12.8385367"><ele>199.0</ele><time>2026-04-25T12:52:26.96Z</time></trkpt><trkpt lat="46.1594417" lon="12.8388333"><ele>199.0</ele><time>2026-04-25T12:52:27.959Z</time></trkpt><trkpt lat="46.159455" lon="12.839145"><ele>199.0</ele><time>2026-04-25T12:52:28.959Z</time></trkpt><trkpt lat="46.1594683" lon="12.8394683"><ele>199.0</ele><time>2026-04-25T12:52:29.959Z</time></trkpt><trkpt lat="46.1594817" lon="12.839795"><ele>198.0</ele><time>2026-04-25T12:52:30.959Z</time></trkpt><trkpt lat="46.1594967" lon="12.8401217"><ele>197.0</ele><time>2026-04-25T12:52:31.958Z</time></trkpt><trkpt lat="46.1595117" lon="12.8404467"><ele>197.0</ele><time>2026-04-25T12:52:32.957Z</time></trkpt><trkpt lat="46.15953" lon="12.8407733"><ele>197.0</ele><time>2026-04-25T12:52:33.957Z</time></trkpt><trkpt lat="46.1595483" lon="12.8410967"><ele>196.33333333333334</ele><time>2026-04-25T12:52:34.956Z</time></trkpt><trkpt lat="46.1595667" lon="12.8414167"><ele>195.66666666666669</ele><time>2026-04-25T12:52:35.955Z</time></trkpt><trkpt lat="46.1595867" lon="12.841735"><ele>195.0</ele><time>2026-04-25T12:52:36.957Z</time></trkpt><trkpt lat="46.1596083" lon="12.84206"><ele>195.0</ele><time>2026-04-25T12:52:37.956Z</time></trkpt><trkpt lat="46.1596317" lon="12.842385"><ele>195.0</ele><time>2026-04-25T12:52:38.956Z</time></trkpt><trkpt lat="46.1596567" lon="12.84271"><ele>195.5</ele><time>2026-04-25T12:52:39.956Z</time></trkpt><trkpt lat="46.1596833" lon="12.8430367"><ele>196.0</ele><time>2026-04-25T12:52:40.958Z</time></trkpt><trkpt lat="46.1597067" lon="12.843365"><ele>196.0</ele><time>2026-04-25T12:52:41.957Z</time></trkpt><trkpt lat="46.1597317" lon="12.8436917"><ele>196.0</ele><time>2026-04-25T12:52:42.956Z</time></trkpt><trkpt lat="46.159755" lon="12.8440167"><ele>195.33333333333331</ele><time>2026-04-25T12:52:43.958Z</time></trkpt><trkpt lat="46.15978" lon="12.8443383"><ele>194.66666666666669</ele><time>2026-04-25T12:52:44.957Z</time></trkpt><trkpt lat="46.1598033" lon="12.8446583"><ele>194.0</ele><time>2026-04-25T12:52:45.956Z</time></trkpt><trkpt lat="46.1598267" lon="12.8449767"><ele>193.33333333333334</ele><time>2026-04-25T12:52:46.957Z</time></trkpt><trkpt lat="46.15985" lon="12.8452933"><ele>192.66666666666669</ele><time>2026-04-25T12:52:47.957Z</time></trkpt><trkpt lat="46.159875" lon="12.84561"><ele>192.0</ele><time>2026-04-25T12:52:48.957Z</time></trkpt><trkpt lat="46.1599" lon="12.845925"><ele>191.66666666666666</ele><time>2026-04-25T12:52:49.957Z</time></trkpt><trkpt lat="46.1599283" lon="12.8462417"><ele>191.33333333333331</ele><time>2026-04-25T12:52:50.956Z</time></trkpt><trkpt lat="46.1599667" lon="12.8465583"><ele>191.0</ele><time>2026-04-25T12:52:51.958Z</time></trkpt><trkpt lat="46.160015" lon="12.84687"><ele>190.66666666666666</ele><time>2026-04-25T12:52:52.956Z</time></trkpt><trkpt lat="46.1600733" lon="12.8471783"><ele>190.33333333333334</ele><time>2026-04-25T12:52:53.957Z</time></trkpt><trkpt lat="46.1601417" lon="12.8474883"><ele>190.0</ele><time>2026-04-25T12:52:54.957Z</time></trkpt><trkpt lat="46.160215" lon="12.8477983"><ele>189.66666666666669</ele><time>2026-04-25T12:52:55.956Z</time></trkpt><trkpt lat="46.1602917" lon="12.848105"><ele>189.33333333333334</ele><time>2026-04-25T12:52:56.956Z</time></trkpt><trkpt lat="46.1603633" lon="12.8484083"><ele>189.0</ele><time>2026-04-25T12:52:57.957Z</time></trkpt><trkpt lat="46.1604333" lon="12.8487083"><ele>189.0</ele><time>2026-04-25T12:52:58.957Z</time></trkpt><trkpt lat="46.160505" lon="12.84901"><ele>189.0</ele><time>2026-04-25T12:52:59.956Z</time></trkpt><trkpt lat="46.1605767" lon="12.84931"><ele>189.0</ele><time>2026-04-25T12:53:00.957Z</time></trkpt><trkpt lat="46.1606467" lon="12.8496017"><ele>188.33333333333334</ele><time>2026-04-25T12:53:01.955Z</time></trkpt><trkpt lat="46.1607167" lon="12.849885"><ele>187.66666666666669</ele><time>2026-04-25T12:53:02.956Z</time></trkpt><trkpt lat="46.1607817" lon="12.850175"><ele>187.0</ele><time>2026-04-25T12:53:03.956Z</time></trkpt><trkpt lat="46.1608317" lon="12.85047"><ele>186.66666666666669</ele><time>2026-04-25T12:53:04.957Z</time></trkpt><trkpt lat="46.1608617" lon="12.850775"><ele>186.33333333333334</ele><time>2026-04-25T12:53:05.956Z</time></trkpt><trkpt lat="46.1608683" lon="12.8510817"><ele>186.0</ele><time>2026-04-25T12:53:06.956Z</time></trkpt><trkpt lat="46.16085" lon="12.85139"><ele>186.0</ele><time>2026-04-25T12:53:07.956Z</time></trkpt><trkpt lat="46.1608067" lon="12.8516967"><ele>186.0</ele><time>2026-04-25T12:53:08.956Z</time></trkpt><trkpt lat="46.16074" lon="12.8519917"><ele>186.0</ele><time>2026-04-25T12:53:09.956Z</time></trkpt><trkpt lat="46.16065" lon="12.8522783"><ele>185.66666666666666</ele><time>2026-04-25T12:53:10.956Z</time></trkpt><trkpt lat="46.1605417" lon="12.85255"><ele>185.33333333333331</ele><time>2026-04-25T12:53:11.956Z</time></trkpt><trkpt lat="46.1604233" lon="12.8528167"><ele>185.0</ele><time>2026-04-25T12:53:12.955Z</time></trkpt><trkpt lat="46.1603017" lon="12.8530883"><ele>184.66666666666666</ele><time>2026-04-25T12:53:13.956Z</time></trkpt><trkpt lat="46.1601767" lon="12.8533583"><ele>184.33333333333334</ele><time>2026-04-25T12:53:14.957Z</time></trkpt><trkpt lat="46.160055" lon="12.8536283"><ele>184.0</ele><time>2026-04-25T12:53:15.957Z</time></trkpt><trkpt lat="46.1599367" lon="12.853895"><ele>183.33333333333334</ele><time>2026-04-25T12:53:16.957Z</time></trkpt><trkpt lat="46.159815" lon="12.8541633"><ele>182.66666666666666</ele><time>2026-04-25T12:53:17.957Z</time></trkpt><trkpt lat="46.159695" lon="12.8544267"><ele>182.0</ele><time>2026-04-25T12:53:18.957Z</time></trkpt><trkpt lat="46.15958" lon="12.8546867"><ele>182.0</ele><time>2026-04-25T12:53:19.957Z</time></trkpt><trkpt lat="46.159475" lon="12.8549533"><ele>182.0</ele><time>2026-04-25T12:53:20.957Z</time></trkpt><trkpt lat="46.1593867" lon="12.85524"><ele>182.0</ele><time>2026-04-25T12:53:21.958Z</time></trkpt><trkpt lat="46.1593183" lon="12.8555417"><ele>180.5</ele><time>2026-04-25T12:53:22.957Z</time></trkpt><trkpt lat="46.1592533" lon="12.8558517"><ele>179.0</ele><time>2026-04-25T12:53:23.956Z</time></trkpt><trkpt lat="46.15919" lon="12.856165"><ele>178.5</ele><time>2026-04-25T12:53:24.959Z</time></trkpt><trkpt lat="46.1591283" lon="12.8564833"><ele>178.0</ele><time>2026-04-25T12:53:25.958Z</time></trkpt><trkpt lat="46.1590617" lon="12.8568067"><ele>177.0</ele><time>2026-04-25T12:53:26.958Z</time></trkpt><trkpt lat="46.158995" lon="12.857135"><ele>176.0</ele><time>2026-04-25T12:53:27.957Z</time></trkpt><trkpt lat="46.158925" lon="12.8574617"><ele>175.5</ele><time>2026-04-25T12:53:28.956Z</time></trkpt><trkpt lat="46.158855" lon="12.85779"><ele>175.0</ele><time>2026-04-25T12:53:29.956Z</time></trkpt><trkpt lat="46.1587833" lon="12.85812"><ele>175.0</ele><time>2026-04-25T12:53:30.956Z</time></trkpt><trkpt lat="46.158715" lon="12.8584483"><ele>175.0</ele><time>2026-04-25T12:53:31.958Z</time></trkpt><trkpt lat="46.158645" lon="12.8587817"><ele>175.0</ele><time>2026-04-25T12:53:32.957Z</time></trkpt><trkpt lat="46.158575" lon="12.8591167"><ele>175.0</ele><time>2026-04-25T12:53:33.956Z</time></trkpt><trkpt lat="46.158505" lon="12.8594483"><ele>174.0</ele><time>2026-04-25T12:53:34.958Z</time></trkpt><trkpt lat="46.1584367" lon="12.859775"><ele>173.0</ele><time>2026-04-25T12:53:35.957Z</time></trkpt><trkpt lat="46.15837" lon="12.8601"><ele>172.5</ele><time>2026-04-25T12:53:36.957Z</time></trkpt><trkpt lat="46.1583067" lon="12.8604217"><ele>172.0</ele><time>2026-04-25T12:53:37.956Z</time></trkpt><trkpt lat="46.1582417" lon="12.8607417"><ele>172.0</ele><time>2026-04-25T12:53:38.957Z</time></trkpt><trkpt lat="46.1581767" lon="12.861055"><ele>172.0</ele><time>2026-04-25T12:53:39.956Z</time></trkpt><trkpt lat="46.1581117" lon="12.8613667"><ele>172.0</ele><time>2026-04-25T12:53:40.956Z</time></trkpt><trkpt lat="46.1580467" lon="12.8616767"><ele>172.0</ele><time>2026-04-25T12:53:41.957Z</time></trkpt><trkpt lat="46.1579833" lon="12.8619783"><ele>172.0</ele><time>2026-04-25T12:53:42.957Z</time></trkpt><trkpt lat="46.1579317" lon="12.8622783"><ele>171.66666666666669</ele><time>2026-04-25T12:53:43.955Z</time></trkpt><trkpt lat="46.1579033" lon="12.8625883"><ele>171.33333333333334</ele><time>2026-04-25T12:53:44.956Z</time></trkpt><trkpt lat="46.1579033" lon="12.86291"><ele>171.0</ele><time>2026-04-25T12:53:45.956Z</time></trkpt><trkpt lat="46.157915" lon="12.8632333"><ele>171.0</ele><time>2026-04-25T12:53:46.958Z</time></trkpt><trkpt lat="46.15793" lon="12.8635633"><ele>171.0</ele><time>2026-04-25T12:53:47.956Z</time></trkpt><trkpt lat="46.1579433" lon="12.863895"><ele>171.0</ele><time>2026-04-25T12:53:48.957Z</time></trkpt><trkpt lat="46.15796" lon="12.8642267"><ele>171.0</ele><time>2026-04-25T12:53:49.956Z</time></trkpt><trkpt lat="46.1579783" lon="12.8645617"><ele>170.0</ele><time>2026-04-25T12:53:50.957Z</time></trkpt><trkpt lat="46.158005" lon="12.8649"><ele>169.0</ele><time>2026-04-25T12:53:51.956Z</time></trkpt><trkpt lat="46.1580383" lon="12.8652367"><ele>169.0</ele><time>2026-04-25T12:53:52.958Z</time></trkpt><trkpt lat="46.1580833" lon="12.8655733"><ele>169.0</ele><time>2026-04-25T12:53:53.958Z</time></trkpt><trkpt lat="46.1581317" lon="12.8659067"><ele>169.0</ele><time>2026-04-25T12:53:54.96Z</time></trkpt><trkpt lat="46.1581833" lon="12.8662383"><ele>169.0</ele><time>2026-04-25T12:53:55.958Z</time></trkpt><trkpt lat="46.1582317" lon="12.8665633"><ele>168.66666666666669</ele><time>2026-04-25T12:53:56.958Z</time></trkpt><trkpt lat="46.1582783" lon="12.8668833"><ele>168.33333333333334</ele><time>2026-04-25T12:53:57.956Z</time></trkpt><trkpt lat="46.1583283" lon="12.8671967"><ele>168.0</ele><time>2026-04-25T12:53:58.957Z</time></trkpt><trkpt lat="46.1583883" lon="12.8675"><ele>168.0</ele><time>2026-04-25T12:53:59.957Z</time></trkpt><trkpt lat="46.1584533" lon="12.8677933"><ele>168.0</ele><time>2026-04-25T12:54:00.959Z</time></trkpt><trkpt lat="46.1585217" lon="12.8680783"><ele>168.0</ele><time>2026-04-25T12:54:01.957Z</time></trkpt><trkpt lat="46.1585867" lon="12.868365"><ele>168.33333333333334</ele><time>2026-04-25T12:54:02.956Z</time></trkpt><trkpt lat="46.1586417" lon="12.8686617"><ele>168.66666666666669</ele><time>2026-04-25T12:54:03.957Z</time></trkpt><trkpt lat="46.15868" lon="12.8689683"><ele>169.0</ele><time>2026-04-25T12:54:04.956Z</time></trkpt><trkpt lat="46.1587" lon="12.8692867"><ele>169.0</ele><time>2026-04-25T12:54:05.956Z</time></trkpt><trkpt lat="46.1587117" lon="12.8696133"><ele>169.0</ele><time>2026-04-25T12:54:06.957Z</time></trkpt><trkpt lat="46.15872" lon="12.8699417"><ele>169.0</ele><time>2026-04-25T12:54:07.957Z</time></trkpt><trkpt lat="46.1587267" lon="12.8702683"><ele>169.0</ele><time>2026-04-25T12:54:08.957Z</time></trkpt><trkpt lat="46.1587333" lon="12.870595"><ele>169.0</ele><time>2026-04-25T12:54:09.957Z</time></trkpt><trkpt lat="46.1587433" lon="12.8709233"><ele>169.0</ele><time>2026-04-25T12:54:10.958Z</time></trkpt><trkpt lat="46.15877" lon="12.871255"><ele>169.5</ele><time>2026-04-25T12:54:11.957Z</time></trkpt><trkpt lat="46.1588183" lon="12.8715817"><ele>170.0</ele><time>2026-04-25T12:54:12.957Z</time></trkpt><trkpt lat="46.15888" lon="12.871905"><ele>170.0</ele><time>2026-04-25T12:54:13.958Z</time></trkpt><trkpt lat="46.1589517" lon="12.87223"><ele>170.0</ele><time>2026-04-25T12:54:14.956Z</time></trkpt><trkpt lat="46.1590283" lon="12.872555"><ele>170.5</ele><time>2026-04-25T12:54:15.957Z</time></trkpt><trkpt lat="46.159105" lon="12.8728817"><ele>171.0</ele><time>2026-04-25T12:54:16.956Z</time></trkpt><trkpt lat="46.1591817" lon="12.8732117"><ele>171.5</ele><time>2026-04-25T12:54:17.957Z</time></trkpt><trkpt lat="46.1592567" lon="12.8735433"><ele>172.0</ele><time>2026-04-25T12:54:18.956Z</time></trkpt><trkpt lat="46.1593333" lon="12.8738733"><ele>172.0</ele><time>2026-04-25T12:54:19.956Z</time></trkpt><trkpt lat="46.15941" lon="12.8742033"><ele>172.0</ele><time>2026-04-25T12:54:20.957Z</time></trkpt><trkpt lat="46.1594867" lon="12.8745317"><ele>172.0</ele><time>2026-04-25T12:54:21.957Z</time></trkpt><trkpt lat="46.1595617" lon="12.8748617"><ele>172.0</ele><time>2026-04-25T12:54:22.957Z</time></trkpt><trkpt lat="46.1596333" lon="12.8751933"><ele>172.5</ele><time>2026-04-25T12:54:23.957Z</time></trkpt><trkpt lat="46.159705" lon="12.875525"><ele>173.0</ele><time>2026-04-25T12:54:24.957Z</time></trkpt><trkpt lat="46.159775" lon="12.875855"><ele>174.0</ele><time>2026-04-25T12:54:25.956Z</time></trkpt><trkpt lat="46.159845" lon="12.8761833"><ele>175.0</ele><time>2026-04-25T12:54:26.957Z</time></trkpt><trkpt lat="46.1599117" lon="12.8765117"><ele>175.5</ele><time>2026-04-25T12:54:27.957Z</time></trkpt><trkpt lat="46.1599783" lon="12.8768367"><ele>176.0</ele><time>2026-04-25T12:54:28.957Z</time></trkpt><trkpt lat="46.1600467" lon="12.87716"><ele>176.0</ele><time>2026-04-25T12:54:29.957Z</time></trkpt><trkpt lat="46.1601167" lon="12.8774783"><ele>176.0</ele><time>2026-04-25T12:54:30.957Z</time></trkpt><trkpt lat="46.1601867" lon="12.8777917"><ele>175.66666666666666</ele><time>2026-04-25T12:54:31.957Z</time></trkpt><trkpt lat="46.1602533" lon="12.8781"><ele>175.33333333333334</ele><time>2026-04-25T12:54:32.957Z</time></trkpt><trkpt lat="46.1603167" lon="12.8784083"><ele>175.0</ele><time>2026-04-25T12:54:33.957Z</time></trkpt><trkpt lat="46.16037" lon="12.8787167"><ele>175.0</ele><time>2026-04-25T12:54:34.958Z</time></trkpt><trkpt lat="46.1604117" lon="12.879025"><ele>175.0</ele><time>2026-04-25T12:54:35.957Z</time></trkpt><trkpt lat="46.1604383" lon="12.8793317"><ele>175.0</ele><time>2026-04-25T12:54:36.958Z</time></trkpt><trkpt lat="46.1604583" lon="12.8796317"><ele>175.33333333333334</ele><time>2026-04-25T12:54:37.956Z</time></trkpt><trkpt lat="46.16047" lon="12.8799167"><ele>175.66666666666666</ele><time>2026-04-25T12:54:38.957Z</time></trkpt><trkpt lat="46.1604717" lon="12.8801817"><ele>176.0</ele><time>2026-04-25T12:54:39.956Z</time></trkpt><trkpt lat="46.16047" lon="12.8804333"><ele>176.0</ele><time>2026-04-25T12:54:40.958Z</time></trkpt><trkpt lat="46.1604583" lon="12.8806717"><ele>176.0</ele><time>2026-04-25T12:54:41.957Z</time></trkpt><trkpt lat="46.1604317" lon="12.88089"><ele>176.0</ele><time>2026-04-25T12:54:42.957Z</time></trkpt><trkpt lat="46.1604" lon="12.8810967"><ele>176.25</ele><time>2026-04-25T12:54:43.957Z</time></trkpt><trkpt lat="46.1603683" lon="12.88129"><ele>176.5</ele><time>2026-04-25T12:54:44.957Z</time></trkpt><trkpt lat="46.1603433" lon="12.8814817"><ele>176.75</ele><time>2026-04-25T12:54:45.956Z</time></trkpt><trkpt lat="46.1603267" lon="12.8816683"><ele>177.0</ele><time>2026-04-25T12:54:46.959Z</time></trkpt><trkpt lat="46.1603217" lon="12.881855"><ele>177.25</ele><time>2026-04-25T12:54:47.956Z</time></trkpt><trkpt lat="46.160335" lon="12.8820333"><ele>177.5</ele><time>2026-04-25T12:54:48.957Z</time></trkpt><trkpt lat="46.1603583" lon="12.8822033"><ele>177.75</ele><time>2026-04-25T12:54:49.957Z</time></trkpt><trkpt lat="46.1603883" lon="12.88237"><ele>178.0</ele><time>2026-04-25T12:54:50.957Z</time></trkpt><trkpt lat="46.16042" lon="12.8825333"><ele>177.75</ele><time>2026-04-25T12:54:51.958Z</time></trkpt><trkpt lat="46.160455" lon="12.8826983"><ele>177.5</ele><time>2026-04-25T12:54:52.957Z</time></trkpt><trkpt lat="46.16049" lon="12.88287"><ele>177.25</ele><time>2026-04-25T12:54:53.957Z</time></trkpt><trkpt lat="46.160525" lon="12.8830467"><ele>177.0</ele><time>2026-04-25T12:54:54.957Z</time></trkpt><trkpt lat="46.1605617" lon="12.8832283"><ele>177.0</ele><time>2026-04-25T12:54:55.957Z</time></trkpt><trkpt lat="46.1605967" lon="12.883415"><ele>177.0</ele><time>2026-04-25T12:54:56.957Z</time></trkpt><trkpt lat="46.16063" lon="12.8836"><ele>177.0</ele><time>2026-04-25T12:54:57.96Z</time></trkpt><trkpt lat="46.16067" lon="12.883785"><ele>177.0</ele><time>2026-04-25T12:54:58.957Z</time></trkpt><trkpt lat="46.1607117" lon="12.8839733"><ele>178.0</ele><time>2026-04-25T12:54:59.956Z</time></trkpt><trkpt lat="46.160755" lon="12.88416"><ele>179.0</ele><time>2026-04-25T12:55:00.956Z</time></trkpt><trkpt lat="46.1607967" lon="12.8843467"><ele>180.0</ele><time>2026-04-25T12:55:01.957Z</time></trkpt><trkpt lat="46.16083" lon="12.8845267"><ele>181.0</ele><time>2026-04-25T12:55:02.957Z</time></trkpt><trkpt lat="46.160865" lon="12.8847017"><ele>181.0</ele><time>2026-04-25T12:55:03.958Z</time></trkpt><trkpt lat="46.1608967" lon="12.884875"><ele>181.0</ele><time>2026-04-25T12:55:04.957Z</time></trkpt><trkpt lat="46.1609267" lon="12.88505"><ele>181.0</ele><time>2026-04-25T12:55:05.956Z</time></trkpt><trkpt lat="46.1609533" lon="12.88523"><ele>181.0</ele><time>2026-04-25T12:55:06.957Z</time></trkpt><trkpt lat="46.1609733" lon="12.885415"><ele>181.0</ele><time>2026-04-25T12:55:07.957Z</time></trkpt><trkpt lat="46.16098" lon="12.8855967"><ele>181.0</ele><time>2026-04-25T12:55:08.957Z</time></trkpt><trkpt lat="46.16098" lon="12.88576"><ele>181.0</ele><time>2026-04-25T12:55:09.958Z</time></trkpt><trkpt lat="46.16098" lon="12.8859"><ele>181.0</ele><time>2026-04-25T12:55:10.957Z</time></trkpt><trkpt lat="46.160975" lon="12.8860183"><ele>181.0</ele><time>2026-04-25T12:55:11.957Z</time></trkpt><trkpt lat="46.1609683" lon="12.88612"><ele>181.0</ele><time>2026-04-25T12:55:12.957Z</time></trkpt><trkpt lat="46.1609267" lon="12.8862783"><ele>181.0</ele><time>2026-04-25T12:55:14.957Z</time></trkpt><trkpt lat="46.16093" lon="12.8863783"><ele>181.0</ele><time>2026-04-25T12:55:15.956Z</time></trkpt><trkpt lat="46.160945" lon="12.8865"><ele>181.0</ele><time>2026-04-25T12:55:16.956Z</time></trkpt><trkpt lat="46.1609717" lon="12.886635"><ele>181.0</ele><time>2026-04-25T12:55:17.956Z</time></trkpt><trkpt lat="46.161005" lon="12.886785"><ele>180.75</ele><time>2026-04-25T12:55:18.956Z</time></trkpt><trkpt lat="46.1610417" lon="12.8869433"><ele>180.5</ele><time>2026-04-25T12:55:19.958Z</time></trkpt><trkpt lat="46.1610767" lon="12.8871067"><ele>180.25</ele><time>2026-04-25T12:55:20.957Z</time></trkpt><trkpt lat="46.1611083" lon="12.8872767"><ele>180.0</ele><time>2026-04-25T12:55:21.957Z</time></trkpt><trkpt lat="46.1611383" lon="12.88746"><ele>179.75</ele><time>2026-04-25T12:55:22.958Z</time></trkpt><trkpt lat="46.161175" lon="12.887645"><ele>179.5</ele><time>2026-04-25T12:55:23.957Z</time></trkpt><trkpt lat="46.1612117" lon="12.8878333"><ele>179.25</ele><time>2026-04-25T12:55:24.956Z</time></trkpt><trkpt lat="46.1612533" lon="12.8880267"><ele>179.0</ele><time>2026-04-25T12:55:25.956Z</time></trkpt><trkpt lat="46.161295" lon="12.888225"><ele>179.0</ele><time>2026-04-25T12:55:26.956Z</time></trkpt><trkpt lat="46.1613333" lon="12.8884333"><ele>179.0</ele><time>2026-04-25T12:55:27.957Z</time></trkpt><trkpt lat="46.161365" lon="12.8886417"><ele>179.0</ele><time>2026-04-25T12:55:28.957Z</time></trkpt><trkpt lat="46.1614033" lon="12.8888517"><ele>179.0</ele><time>2026-04-25T12:55:29.957Z</time></trkpt><trkpt lat="46.1614517" lon="12.8890567"><ele>179.0</ele><time>2026-04-25T12:55:30.96Z</time></trkpt><trkpt lat="46.1615067" lon="12.8892483"><ele>179.0</ele><time>2026-04-25T12:55:31.957Z</time></trkpt><trkpt lat="46.1615633" lon="12.889425"><ele>179.0</ele><time>2026-04-25T12:55:32.956Z</time></trkpt><trkpt lat="46.1616233" lon="12.8895833"><ele>179.0</ele><time>2026-04-25T12:55:33.957Z</time></trkpt><trkpt lat="46.16168" lon="12.889735"><ele>179.25</ele><time>2026-04-25T12:55:34.956Z</time></trkpt><trkpt lat="46.161725" lon="12.8898883"><ele>179.5</ele><time>2026-04-25T12:55:35.957Z</time></trkpt><trkpt lat="46.1617667" lon="12.890045"><ele>179.75</ele><time>2026-04-25T12:55:36.957Z</time></trkpt><trkpt lat="46.161815" lon="12.8902083"><ele>180.0</ele><time>2026-04-25T12:55:37.958Z</time></trkpt><trkpt lat="46.161865" lon="12.8903717"><ele>180.25</ele><time>2026-04-25T12:55:38.957Z</time></trkpt><trkpt lat="46.1619117" lon="12.890535"><ele>180.5</ele><time>2026-04-25T12:55:39.958Z</time></trkpt><trkpt lat="46.1619567" lon="12.8907017"><ele>180.75</ele><time>2026-04-25T12:55:40.957Z</time></trkpt><trkpt lat="46.162005" lon="12.8908733"><ele>181.0</ele><time>2026-04-25T12:55:41.957Z</time></trkpt><trkpt lat="46.1620633" lon="12.891035"><ele>181.0</ele><time>2026-04-25T12:55:42.957Z</time></trkpt><trkpt lat="46.1621383" lon="12.8911783"><ele>181.0</ele><time>2026-04-25T12:55:43.958Z</time></trkpt><trkpt lat="46.1622233" lon="12.8913033"><ele>181.0</ele><time>2026-04-25T12:55:44.957Z</time></trkpt><trkpt lat="46.1623067" lon="12.8914083"><ele>181.0</ele><time>2026-04-25T12:55:45.958Z</time></trkpt><trkpt lat="46.16238" lon="12.8915083"><ele>181.0</ele><time>2026-04-25T12:55:46.958Z</time></trkpt><trkpt lat="46.1624483" lon="12.8916067"><ele>181.0</ele><time>2026-04-25T12:55:47.957Z</time></trkpt><trkpt lat="46.1625067" lon="12.8917083"><ele>181.0</ele><time>2026-04-25T12:55:48.957Z</time></trkpt><trkpt lat="46.1625667" lon="12.8918183"><ele>181.0</ele><time>2026-04-25T12:55:49.957Z</time></trkpt><trkpt lat="46.1626117" lon="12.8919433"><ele>181.0</ele><time>2026-04-25T12:55:50.957Z</time></trkpt><trkpt lat="46.1626633" lon="12.8920783"><ele>180.0</ele><time>2026-04-25T12:55:51.958Z</time></trkpt><trkpt lat="46.1627183" lon="12.8922233"><ele>179.0</ele><time>2026-04-25T12:55:52.957Z</time></trkpt><trkpt lat="46.1627717" lon="12.8923717"><ele>178.0</ele><time>2026-04-25T12:55:53.956Z</time></trkpt><trkpt lat="46.1628167" lon="12.892525"><ele>177.0</ele><time>2026-04-25T12:55:54.957Z</time></trkpt><trkpt lat="46.1628683" lon="12.8926783"><ele>176.0</ele><time>2026-04-25T12:55:55.958Z</time></trkpt><trkpt lat="46.1629217" lon="12.8928333"><ele>175.0</ele><time>2026-04-25T12:55:56.956Z</time></trkpt><trkpt lat="46.16298" lon="12.8929917"><ele>174.0</ele><time>2026-04-25T12:55:57.956Z</time></trkpt><trkpt lat="46.1630567" lon="12.8931417"><ele>173.0</ele><time>2026-04-25T12:55:58.959Z</time></trkpt><trkpt lat="46.1631533" lon="12.8932817"><ele>173.25</ele><time>2026-04-25T12:55:59.956Z</time></trkpt><trkpt lat="46.16326" lon="12.8934117"><ele>173.5</ele><time>2026-04-25T12:56:00.957Z</time></trkpt><trkpt lat="46.1633633" lon="12.8935383"><ele>173.75</ele><time>2026-04-25T12:56:01.958Z</time></trkpt><trkpt lat="46.16346" lon="12.8936717"><ele>174.0</ele><time>2026-04-25T12:56:02.958Z</time></trkpt><trkpt lat="46.1635433" lon="12.8938233"><ele>174.0</ele><time>2026-04-25T12:56:03.958Z</time></trkpt><trkpt lat="46.1636067" lon="12.8940117"><ele>174.0</ele><time>2026-04-25T12:56:04.957Z</time></trkpt><trkpt lat="46.1636567" lon="12.8942267"><ele>174.0</ele><time>2026-04-25T12:56:05.957Z</time></trkpt><trkpt lat="46.16371" lon="12.894455"><ele>172.66666666666666</ele><time>2026-04-25T12:56:06.956Z</time></trkpt><trkpt lat="46.1637683" lon="12.8947"><ele>171.33333333333331</ele><time>2026-04-25T12:56:07.957Z</time></trkpt><trkpt lat="46.1638283" lon="12.8949467"><ele>170.0</ele><time>2026-04-25T12:56:08.957Z</time></trkpt><trkpt lat="46.16389" lon="12.895195"><ele>169.66666666666666</ele><time>2026-04-25T12:56:09.957Z</time></trkpt><trkpt lat="46.16395" lon="12.89544"><ele>169.33333333333334</ele><time>2026-04-25T12:56:10.957Z</time></trkpt><trkpt lat="46.1640067" lon="12.8956733"><ele>169.0</ele><time>2026-04-25T12:56:11.957Z</time></trkpt><trkpt lat="46.1640617" lon="12.895895"><ele>169.0</ele><time>2026-04-25T12:56:12.957Z</time></trkpt><trkpt lat="46.164115" lon="12.896105"><ele>169.0</ele><time>2026-04-25T12:56:13.957Z</time></trkpt><trkpt lat="46.1641633" lon="12.896305"><ele>169.0</ele><time>2026-04-25T12:56:14.957Z</time></trkpt><trkpt lat="46.16421" lon="12.896495"><ele>169.0</ele><time>2026-04-25T12:56:15.957Z</time></trkpt><trkpt lat="46.1642567" lon="12.8966833"><ele>169.0</ele><time>2026-04-25T12:56:16.958Z</time></trkpt><trkpt lat="46.1643067" lon="12.8968717"><ele>169.0</ele><time>2026-04-25T12:56:17.959Z</time></trkpt><trkpt lat="46.1643517" lon="12.89705"><ele>169.0</ele><time>2026-04-25T12:56:18.957Z</time></trkpt><trkpt lat="46.1643967" lon="12.8972267"><ele>169.0</ele><time>2026-04-25T12:56:19.959Z</time></trkpt><trkpt lat="46.164435" lon="12.8974033"><ele>169.0</ele><time>2026-04-25T12:56:20.959Z</time></trkpt><trkpt lat="46.1644633" lon="12.897585"><ele>169.0</ele><time>2026-04-25T12:56:21.958Z</time></trkpt><trkpt lat="46.164475" lon="12.897775"><ele>169.0</ele><time>2026-04-25T12:56:22.958Z</time></trkpt><trkpt lat="46.1644633" lon="12.8979683"><ele>169.0</ele><time>2026-04-25T12:56:23.957Z</time></trkpt><trkpt lat="46.164425" lon="12.89816"><ele>169.25</ele><time>2026-04-25T12:56:24.957Z</time></trkpt><trkpt lat="46.1643633" lon="12.898345"><ele>169.5</ele><time>2026-04-25T12:56:25.958Z</time></trkpt><trkpt lat="46.1642817" lon="12.8985217"><ele>169.75</ele><time>2026-04-25T12:56:26.957Z</time></trkpt><trkpt lat="46.16419" lon="12.89869"><ele>170.0</ele><time>2026-04-25T12:56:27.957Z</time></trkpt><trkpt lat="46.1641" lon="12.8988633"><ele>170.0</ele><time>2026-04-25T12:56:28.957Z</time></trkpt><trkpt lat="46.164015" lon="12.89905"><ele>170.0</ele><time>2026-04-25T12:56:29.957Z</time></trkpt><trkpt lat="46.163935" lon="12.899255"><ele>170.0</ele><time>2026-04-25T12:56:30.957Z</time></trkpt><trkpt lat="46.1638633" lon="12.8994733"><ele>170.0</ele><time>2026-04-25T12:56:31.957Z</time></trkpt><trkpt lat="46.1637983" lon="12.8997"><ele>170.0</ele><time>2026-04-25T12:56:32.956Z</time></trkpt><trkpt lat="46.16374" lon="12.8999333"><ele>170.0</ele><time>2026-04-25T12:56:33.958Z</time></trkpt><trkpt lat="46.1636883" lon="12.9001717"><ele>170.0</ele><time>2026-04-25T12:56:34.957Z</time></trkpt><trkpt lat="46.16365" lon="12.900425"><ele>170.0</ele><time>2026-04-25T12:56:35.958Z</time></trkpt><trkpt lat="46.1636233" lon="12.900695"><ele>170.0</ele><time>2026-04-25T12:56:36.957Z</time></trkpt><trkpt lat="46.16361" lon="12.900975"><ele>170.0</ele><time>2026-04-25T12:56:37.957Z</time></trkpt><trkpt lat="46.163605" lon="12.9012583"><ele>170.0</ele><time>2026-04-25T12:56:38.957Z</time></trkpt><trkpt lat="46.1636083" lon="12.9015433"><ele>170.0</ele><time>2026-04-25T12:56:39.957Z</time></trkpt><trkpt lat="46.1636133" lon="12.9018317"><ele>170.66666666666666</ele><time>2026-04-25T12:56:40.959Z</time></trkpt><trkpt lat="46.1636167" lon="12.9021267"><ele>171.33333333333334</ele><time>2026-04-25T12:56:41.956Z</time></trkpt><trkpt lat="46.1636267" lon="12.9024217"><ele>172.0</ele><time>2026-04-25T12:56:42.958Z</time></trkpt><trkpt lat="46.1636383" lon="12.90271"><ele>172.66666666666669</ele><time>2026-04-25T12:56:43.958Z</time></trkpt><trkpt lat="46.163645" lon="12.9029967"><ele>173.33333333333334</ele><time>2026-04-25T12:56:44.958Z</time></trkpt><trkpt lat="46.1636517" lon="12.9032817"><ele>174.0</ele><time>2026-04-25T12:56:45.957Z</time></trkpt><trkpt lat="46.1636533" lon="12.9035617"><ele>174.0</ele><time>2026-04-25T12:56:46.959Z</time></trkpt><trkpt lat="46.1636467" lon="12.90384"><ele>174.0</ele><time>2026-04-25T12:56:47.957Z</time></trkpt><trkpt lat="46.1636317" lon="12.904125"><ele>174.0</ele><time>2026-04-25T12:56:48.957Z</time></trkpt><trkpt lat="46.1636083" lon="12.904415"><ele>174.33333333333334</ele><time>2026-04-25T12:56:49.958Z</time></trkpt><trkpt lat="46.1635817" lon="12.9047067"><ele>174.66666666666669</ele><time>2026-04-25T12:56:50.956Z</time></trkpt><trkpt lat="46.1635583" lon="12.9050017"><ele>175.0</ele><time>2026-04-25T12:56:51.958Z</time></trkpt><trkpt lat="46.1635433" lon="12.9052983"><ele>175.33333333333334</ele><time>2026-04-25T12:56:52.959Z</time></trkpt><trkpt lat="46.1635483" lon="12.9055967"><ele>175.66666666666666</ele><time>2026-04-25T12:56:53.957Z</time></trkpt><trkpt lat="46.1635733" lon="12.9058967"><ele>176.0</ele><time>2026-04-25T12:56:54.958Z</time></trkpt><trkpt lat="46.1636033" lon="12.906195"><ele>176.0</ele><time>2026-04-25T12:56:55.958Z</time></trkpt><trkpt lat="46.163645" lon="12.9064983"><ele>176.0</ele><time>2026-04-25T12:56:56.957Z</time></trkpt><trkpt lat="46.1636883" lon="12.906805"><ele>176.0</ele><time>2026-04-25T12:56:57.957Z</time></trkpt><trkpt lat="46.1637317" lon="12.907115"><ele>176.0</ele><time>2026-04-25T12:56:58.958Z</time></trkpt><trkpt lat="46.1637783" lon="12.9074283"><ele>176.0</ele><time>2026-04-25T12:56:59.957Z</time></trkpt><trkpt lat="46.163825" lon="12.907745"><ele>176.0</ele><time>2026-04-25T12:57:00.958Z</time></trkpt><trkpt lat="46.1638667" lon="12.9080583"><ele>177.33333333333331</ele><time>2026-04-25T12:57:01.959Z</time></trkpt><trkpt lat="46.163905" lon="12.908365"><ele>178.66666666666666</ele><time>2026-04-25T12:57:02.958Z</time></trkpt><trkpt lat="46.1639483" lon="12.908675"><ele>180.0</ele><time>2026-04-25T12:57:03.958Z</time></trkpt><trkpt lat="46.163995" lon="12.9089833"><ele>180.66666666666666</ele><time>2026-04-25T12:57:04.958Z</time></trkpt><trkpt lat="46.1640367" lon="12.9092967"><ele>181.33333333333331</ele><time>2026-04-25T12:57:05.957Z</time></trkpt><trkpt lat="46.1640767" lon="12.9096117"><ele>182.0</ele><time>2026-04-25T12:57:06.957Z</time></trkpt><trkpt lat="46.1641167" lon="12.9099233"><ele>181.33333333333331</ele><time>2026-04-25T12:57:07.957Z</time></trkpt><trkpt lat="46.1641583" lon="12.91023"><ele>180.66666666666666</ele><time>2026-04-25T12:57:08.957Z</time></trkpt><trkpt lat="46.1642" lon="12.9105233"><ele>180.0</ele><time>2026-04-25T12:57:09.958Z</time></trkpt><trkpt lat="46.16424" lon="12.9108083"><ele>180.0</ele><time>2026-04-25T12:57:10.957Z</time></trkpt><trkpt lat="46.1642683" lon="12.9110967"><ele>180.0</ele><time>2026-04-25T12:57:11.956Z</time></trkpt><trkpt lat="46.1642883" lon="12.91139"><ele>180.0</ele><time>2026-04-25T12:57:12.957Z</time></trkpt><trkpt lat="46.1642917" lon="12.9116917"><ele>180.0</ele><time>2026-04-25T12:57:13.957Z</time></trkpt><trkpt lat="46.1642917" lon="12.9119917"><ele>180.0</ele><time>2026-04-25T12:57:14.957Z</time></trkpt><trkpt lat="46.1642917" lon="12.912295"><ele>180.0</ele><time>2026-04-25T12:57:15.957Z</time></trkpt><trkpt lat="46.1642933" lon="12.9125817"><ele>180.33333333333334</ele><time>2026-04-25T12:57:16.958Z</time></trkpt><trkpt lat="46.1643083" lon="12.91284"><ele>180.66666666666669</ele><time>2026-04-25T12:57:17.956Z</time></trkpt><trkpt lat="46.1643317" lon="12.913065"><ele>181.0</ele><time>2026-04-25T12:57:18.957Z</time></trkpt><trkpt lat="46.1643633" lon="12.913265"><ele>180.83333333333334</ele><time>2026-04-25T12:57:19.957Z</time></trkpt><trkpt lat="46.1643967" lon="12.9134317"><ele>180.66666666666669</ele><time>2026-04-25T12:57:20.958Z</time></trkpt><trkpt lat="46.16443" lon="12.91357"><ele>180.5</ele><time>2026-04-25T12:57:21.96Z</time></trkpt><trkpt lat="46.164455" lon="12.91368"><ele>180.33333333333334</ele><time>2026-04-25T12:57:22.957Z</time></trkpt><trkpt lat="46.1644633" lon="12.9137717"><ele>180.16666666666666</ele><time>2026-04-25T12:57:23.956Z</time></trkpt><trkpt lat="46.1644633" lon="12.9138867"><ele>180.0</ele><time>2026-04-25T12:57:25.957Z</time></trkpt><trkpt lat="46.1644483" lon="12.9139933"><ele>180.0</ele><time>2026-04-25T12:57:29.958Z</time></trkpt><trkpt lat="46.1644567" lon="12.9140917"><ele>180.0</ele><time>2026-04-25T12:57:33.958Z</time></trkpt><trkpt lat="46.1645267" lon="12.914175"><ele>180.0</ele><time>2026-04-25T12:57:35.957Z</time></trkpt><trkpt lat="46.1646017" lon="12.914205"><ele>180.0</ele><time>2026-04-25T12:57:36.958Z</time></trkpt><trkpt lat="46.16469" lon="12.9142317"><ele>180.0</ele><time>2026-04-25T12:57:37.958Z</time></trkpt><trkpt lat="46.1647983" lon="12.9142533"><ele>180.0</ele><time>2026-04-25T12:57:38.958Z</time></trkpt><trkpt lat="46.1649433" lon="12.9142717"><ele>178.33333333333334</ele><time>2026-04-25T12:57:39.958Z</time></trkpt><trkpt lat="46.1650967" lon="12.9142867"><ele>176.66666666666669</ele><time>2026-04-25T12:57:40.958Z</time></trkpt><trkpt lat="46.1652433" lon="12.914305"><ele>175.0</ele><time>2026-04-25T12:57:41.957Z</time></trkpt><trkpt lat="46.1653983" lon="12.91432"><ele>175.0</ele><time>2026-04-25T12:57:42.958Z</time></trkpt><trkpt lat="46.165565" lon="12.9143217"><ele>175.0</ele><time>2026-04-25T12:57:43.96Z</time></trkpt><trkpt lat="46.1657383" lon="12.9143117"><ele>175.0</ele><time>2026-04-25T12:57:44.957Z</time></trkpt><trkpt lat="46.1659083" lon="12.91429"><ele>175.66666666666669</ele><time>2026-04-25T12:57:45.958Z</time></trkpt><trkpt lat="46.1660783" lon="12.9142683"><ele>176.33333333333334</ele><time>2026-04-25T12:57:46.958Z</time></trkpt><trkpt lat="46.1662383" lon="12.9142467"><ele>177.0</ele><time>2026-04-25T12:57:47.956Z</time></trkpt><trkpt lat="46.16639" lon="12.91422"><ele>174.0</ele><time>2026-04-25T12:57:48.958Z</time></trkpt><trkpt lat="46.1665383" lon="12.9141983"><ele>171.0</ele><time>2026-04-25T12:57:49.958Z</time></trkpt><trkpt lat="46.166685" lon="12.9142"><ele>168.0</ele><time>2026-04-25T12:57:50.959Z</time></trkpt><trkpt lat="46.1668367" lon="12.91424"><ele>164.66666666666666</ele><time>2026-04-25T12:57:51.958Z</time></trkpt><trkpt lat="46.166985" lon="12.9143283"><ele>161.33333333333331</ele><time>2026-04-25T12:57:52.957Z</time></trkpt><trkpt lat="46.16712" lon="12.9144567"><ele>158.0</ele><time>2026-04-25T12:57:53.956Z</time></trkpt><trkpt lat="46.1672383" lon="12.9146183"><ele>158.0</ele><time>2026-04-25T12:57:54.957Z</time></trkpt><trkpt lat="46.1673317" lon="12.9148133"><ele>158.0</ele><time>2026-04-25T12:57:55.957Z</time></trkpt><trkpt lat="46.1674" lon="12.9150283"><ele>158.0</ele><time>2026-04-25T12:57:56.957Z</time></trkpt><trkpt lat="46.16746" lon="12.9152433"><ele>159.66666666666666</ele><time>2026-04-25T12:57:57.959Z</time></trkpt><trkpt lat="46.1675283" lon="12.915445"><ele>161.33333333333334</ele><time>2026-04-25T12:57:58.957Z</time></trkpt><trkpt lat="46.167625" lon="12.9156233"><ele>163.0</ele><time>2026-04-25T12:57:59.956Z</time></trkpt><trkpt lat="46.1677567" lon="12.915765"><ele>163.0</ele><time>2026-04-25T12:58:00.956Z</time></trkpt><trkpt lat="46.1679133" lon="12.9158933"><ele>163.0</ele><time>2026-04-25T12:58:01.955Z</time></trkpt><trkpt lat="46.1680833" lon="12.916015"><ele>163.0</ele><time>2026-04-25T12:58:02.957Z</time></trkpt><trkpt lat="46.1682517" lon="12.91613"><ele>167.66666666666669</ele><time>2026-04-25T12:58:03.955Z</time></trkpt><trkpt lat="46.1684183" lon="12.9162417"><ele>172.33333333333334</ele><time>2026-04-25T12:58:04.957Z</time></trkpt><trkpt lat="46.1685683" lon="12.9163483"><ele>177.0</ele><time>2026-04-25T12:58:05.956Z</time></trkpt><trkpt lat="46.1686967" lon="12.916445"><ele>177.0</ele><time>2026-04-25T12:58:06.956Z</time></trkpt><trkpt lat="46.168795" lon="12.9165467"><ele>177.0</ele><time>2026-04-25T12:58:07.956Z</time></trkpt><trkpt lat="46.1688583" lon="12.916675"><ele>177.0</ele><time>2026-04-25T12:58:08.956Z</time></trkpt><trkpt lat="46.1688783" lon="12.916825"><ele>177.0</ele><time>2026-04-25T12:58:09.955Z</time></trkpt><trkpt lat="46.16885" lon="12.9169783"><ele>177.0</ele><time>2026-04-25T12:58:10.956Z</time></trkpt><trkpt lat="46.1687833" lon="12.9171167"><ele>177.6</ele><time>2026-04-25T12:58:11.957Z</time></trkpt><trkpt lat="46.1687017" lon="12.9172367"><ele>178.2</ele><time>2026-04-25T12:58:12.956Z</time></trkpt><trkpt lat="46.168615" lon="12.9173417"><ele>178.8</ele><time>2026-04-25T12:58:13.956Z</time></trkpt><trkpt lat="46.168525" lon="12.91743"><ele>179.4</ele><time>2026-04-25T12:58:14.956Z</time></trkpt><trkpt lat="46.1684317" lon="12.917505"><ele>180.0</ele><time>2026-04-25T12:58:15.957Z</time></trkpt><trkpt lat="46.1683267" lon="12.917575"><ele>180.0</ele><time>2026-04-25T12:58:16.957Z</time></trkpt><trkpt lat="46.1682233" lon="12.9176717"><ele>180.0</ele><time>2026-04-25T12:58:17.957Z</time></trkpt><trkpt lat="46.1681267" lon="12.9178"><ele>180.0</ele><time>2026-04-25T12:58:18.955Z</time></trkpt><trkpt lat="46.1680383" lon="12.9179417"><ele>180.0</ele><time>2026-04-25T12:58:19.956Z</time></trkpt><trkpt lat="46.167955" lon="12.918075"><ele>179.75</ele><time>2026-04-25T12:58:20.956Z</time></trkpt><trkpt lat="46.1678767" lon="12.9182017"><ele>179.5</ele><time>2026-04-25T12:58:21.955Z</time></trkpt><trkpt lat="46.1678033" lon="12.91833"><ele>179.25</ele><time>2026-04-25T12:58:22.957Z</time></trkpt><trkpt lat="46.1677533" lon="12.9184917"><ele>179.0</ele><time>2026-04-25T12:58:23.955Z</time></trkpt><trkpt lat="46.1677333" lon="12.9186733"><ele>179.0</ele><time>2026-04-25T12:58:24.956Z</time></trkpt><trkpt lat="46.1677417" lon="12.918865"><ele>179.0</ele><time>2026-04-25T12:58:25.957Z</time></trkpt><trkpt lat="46.1677533" lon="12.919075"><ele>179.0</ele><time>2026-04-25T12:58:26.956Z</time></trkpt><trkpt lat="46.1677717" lon="12.91929"><ele>179.0</ele><time>2026-04-25T12:58:27.956Z</time></trkpt><trkpt lat="46.1677933" lon="12.9195033"><ele>179.0</ele><time>2026-04-25T12:58:28.957Z</time></trkpt><trkpt lat="46.1678083" lon="12.9197133"><ele>179.0</ele><time>2026-04-25T12:58:29.96Z</time></trkpt><trkpt lat="46.16782" lon="12.9199217"><ele>179.0</ele><time>2026-04-25T12:58:30.956Z</time></trkpt><trkpt lat="46.167835" lon="12.920125"><ele>179.0</ele><time>2026-04-25T12:58:31.957Z</time></trkpt><trkpt lat="46.1678483" lon="12.9203217"><ele>179.25</ele><time>2026-04-25T12:58:32.956Z</time></trkpt><trkpt lat="46.167845" lon="12.9205217"><ele>179.5</ele><time>2026-04-25T12:58:33.956Z</time></trkpt><trkpt lat="46.1678317" lon="12.9207217"><ele>179.75</ele><time>2026-04-25T12:58:34.957Z</time></trkpt><trkpt lat="46.1678033" lon="12.9209267"><ele>180.0</ele><time>2026-04-25T12:58:35.955Z</time></trkpt><trkpt lat="46.1677733" lon="12.9211383"><ele>180.0</ele><time>2026-04-25T12:58:36.956Z</time></trkpt><trkpt lat="46.16775" lon="12.9213583"><ele>180.0</ele><time>2026-04-25T12:58:37.956Z</time></trkpt><trkpt lat="46.16774" lon="12.921565"><ele>180.0</ele><time>2026-04-25T12:58:38.956Z</time></trkpt><trkpt lat="46.1677467" lon="12.921765"><ele>180.0</ele><time>2026-04-25T12:58:39.956Z</time></trkpt><trkpt lat="46.16777" lon="12.9219517"><ele>180.0</ele><time>2026-04-25T12:58:40.956Z</time></trkpt><trkpt lat="46.1678117" lon="12.92213"><ele>180.0</ele><time>2026-04-25T12:58:41.957Z</time></trkpt><trkpt lat="46.1678783" lon="12.9223033"><ele>180.0</ele><time>2026-04-25T12:58:42.956Z</time></trkpt><trkpt lat="46.167955" lon="12.9224733"><ele>180.0</ele><time>2026-04-25T12:58:43.957Z</time></trkpt><trkpt lat="46.1680433" lon="12.9226517"><ele>180.0</ele><time>2026-04-25T12:58:44.956Z</time></trkpt><trkpt lat="46.1681417" lon="12.9228317"><ele>180.0</ele><time>2026-04-25T12:58:45.957Z</time></trkpt><trkpt lat="46.16824" lon="12.92302"><ele>180.0</ele><time>2026-04-25T12:58:46.958Z</time></trkpt><trkpt lat="46.1683467" lon="12.9232167"><ele>180.66666666666666</ele><time>2026-04-25T12:58:47.957Z</time></trkpt><trkpt lat="46.1684583" lon="12.9234233"><ele>181.33333333333331</ele><time>2026-04-25T12:58:48.957Z</time></trkpt><trkpt lat="46.1685667" lon="12.923635"><ele>182.0</ele><time>2026-04-25T12:58:49.957Z</time></trkpt><trkpt lat="46.1686817" lon="12.9238483"><ele>182.0</ele><time>2026-04-25T12:58:50.956Z</time></trkpt><trkpt lat="46.1687967" lon="12.9240667"><ele>182.0</ele><time>2026-04-25T12:58:51.957Z</time></trkpt><trkpt lat="46.1689133" lon="12.9242933"><ele>182.0</ele><time>2026-04-25T12:58:52.957Z</time></trkpt><trkpt lat="46.169035" lon="12.92452"><ele>182.0</ele><time>2026-04-25T12:58:53.957Z</time></trkpt><trkpt lat="46.1691583" lon="12.9247517"><ele>182.0</ele><time>2026-04-25T12:58:54.957Z</time></trkpt><trkpt lat="46.1692783" lon="12.9249767"><ele>182.0</ele><time>2026-04-25T12:58:55.957Z</time></trkpt><trkpt lat="46.169395" lon="12.9252017"><ele>181.66666666666666</ele><time>2026-04-25T12:58:56.956Z</time></trkpt><trkpt lat="46.1695117" lon="12.9254267"><ele>181.33333333333334</ele><time>2026-04-25T12:58:57.956Z</time></trkpt><trkpt lat="46.1696267" lon="12.9256483"><ele>181.0</ele><time>2026-04-25T12:58:58.957Z</time></trkpt><trkpt lat="46.16974" lon="12.925865"><ele>181.33333333333334</ele><time>2026-04-25T12:58:59.957Z</time></trkpt><trkpt lat="46.1698517" lon="12.9260817"><ele>181.66666666666666</ele><time>2026-04-25T12:59:00.957Z</time></trkpt><trkpt lat="46.16996" lon="12.9262917"><ele>182.0</ele><time>2026-04-25T12:59:01.957Z</time></trkpt><trkpt lat="46.1700667" lon="12.92649"><ele>182.0</ele><time>2026-04-25T12:59:02.956Z</time></trkpt><trkpt lat="46.170175" lon="12.9266783"><ele>182.0</ele><time>2026-04-25T12:59:03.957Z</time></trkpt><trkpt lat="46.17029" lon="12.926845"><ele>182.0</ele><time>2026-04-25T12:59:04.957Z</time></trkpt><trkpt lat="46.1704217" lon="12.9269867"><ele>181.33333333333331</ele><time>2026-04-25T12:59:05.957Z</time></trkpt><trkpt lat="46.1705667" lon="12.9271033"><ele>180.66666666666666</ele><time>2026-04-25T12:59:06.956Z</time></trkpt><trkpt lat="46.1707167" lon="12.9271833"><ele>180.0</ele><time>2026-04-25T12:59:07.957Z</time></trkpt><trkpt lat="46.170875" lon="12.9272033"><ele>179.33333333333334</ele><time>2026-04-25T12:59:08.956Z</time></trkpt><trkpt lat="46.1710433" lon="12.9271567"><ele>178.66666666666669</ele><time>2026-04-25T12:59:09.956Z</time></trkpt><trkpt lat="46.1712217" lon="12.9270617"><ele>178.0</ele><time>2026-04-25T12:59:10.957Z</time></trkpt><trkpt lat="46.1714017" lon="12.9269483"><ele>180.0</ele><time>2026-04-25T12:59:11.957Z</time></trkpt><trkpt lat="46.1715817" lon="12.9268317"><ele>182.0</ele><time>2026-04-25T12:59:12.958Z</time></trkpt><trkpt lat="46.1717633" lon="12.9267167"><ele>184.0</ele><time>2026-04-25T12:59:13.957Z</time></trkpt><trkpt lat="46.1719483" lon="12.9266067"><ele>184.0</ele><time>2026-04-25T12:59:14.957Z</time></trkpt><trkpt lat="46.1721367" lon="12.9265083"><ele>184.0</ele><time>2026-04-25T12:59:15.958Z</time></trkpt><trkpt lat="46.1723217" lon="12.9264167"><ele>184.0</ele><time>2026-04-25T12:59:16.957Z</time></trkpt><trkpt lat="46.1725167" lon="12.9263467"><ele>180.66666666666669</ele><time>2026-04-25T12:59:17.955Z</time></trkpt><trkpt lat="46.1727167" lon="12.926295"><ele>177.33333333333334</ele><time>2026-04-25T12:59:18.956Z</time></trkpt><trkpt lat="46.172925" lon="12.9262667"><ele>174.0</ele><time>2026-04-25T12:59:19.957Z</time></trkpt><trkpt lat="46.1731267" lon="12.92625"><ele>172.66666666666666</ele><time>2026-04-25T12:59:20.957Z</time></trkpt><trkpt lat="46.1733117" lon="12.926235"><ele>171.33333333333331</ele><time>2026-04-25T12:59:21.957Z</time></trkpt><trkpt lat="46.1734783" lon="12.9262183"><ele>170.0</ele><time>2026-04-25T12:59:22.957Z</time></trkpt><trkpt lat="46.1736383" lon="12.9262117"><ele>170.0</ele><time>2026-04-25T12:59:23.957Z</time></trkpt><trkpt lat="46.1738" lon="12.92624"><ele>170.0</ele><time>2026-04-25T12:59:24.957Z</time></trkpt><trkpt lat="46.1739633" lon="12.92632"><ele>170.0</ele><time>2026-04-25T12:59:25.957Z</time></trkpt><trkpt lat="46.1741267" lon="12.9264317"><ele>170.66666666666666</ele><time>2026-04-25T12:59:26.956Z</time></trkpt><trkpt lat="46.1742883" lon="12.92657"><ele>171.33333333333334</ele><time>2026-04-25T12:59:27.956Z</time></trkpt><trkpt lat="46.1744483" lon="12.926735"><ele>172.0</ele><time>2026-04-25T12:59:28.958Z</time></trkpt><trkpt lat="46.1745917" lon="12.926915"><ele>169.0</ele><time>2026-04-25T12:59:29.957Z</time></trkpt><trkpt lat="46.1747367" lon="12.92709"><ele>166.0</ele><time>2026-04-25T12:59:30.956Z</time></trkpt><trkpt lat="46.1748783" lon="12.9272383"><ele>163.0</ele><time>2026-04-25T12:59:31.957Z</time></trkpt><trkpt lat="46.1750117" lon="12.9273483"><ele>163.0</ele><time>2026-04-25T12:59:32.957Z</time></trkpt><trkpt lat="46.175135" lon="12.9274217"><ele>163.0</ele><time>2026-04-25T12:59:33.957Z</time></trkpt><trkpt lat="46.175255" lon="12.92744"><ele>163.0</ele><time>2026-04-25T12:59:34.957Z</time></trkpt><trkpt lat="46.1753817" lon="12.9273967"><ele>163.0</ele><time>2026-04-25T12:59:35.956Z</time></trkpt><trkpt lat="46.1755217" lon="12.927285"><ele>163.0</ele><time>2026-04-25T12:59:36.955Z</time></trkpt><trkpt lat="46.1756783" lon="12.9271567"><ele>163.0</ele><time>2026-04-25T12:59:37.957Z</time></trkpt><trkpt lat="46.1758467" lon="12.9270267"><ele>163.0</ele><time>2026-04-25T12:59:38.956Z</time></trkpt><trkpt lat="46.176015" lon="12.9269117"><ele>161.33333333333334</ele><time>2026-04-25T12:59:39.956Z</time></trkpt><trkpt lat="46.1761717" lon="12.9268083"><ele>159.66666666666666</ele><time>2026-04-25T12:59:40.956Z</time></trkpt><trkpt lat="46.1763217" lon="12.9267033"><ele>158.0</ele><time>2026-04-25T12:59:41.956Z</time></trkpt><trkpt lat="46.176465" lon="12.9266117"><ele>159.75</ele><time>2026-04-25T12:59:42.956Z</time></trkpt><trkpt lat="46.1766067" lon="12.9265517"><ele>161.5</ele><time>2026-04-25T12:59:43.957Z</time></trkpt><trkpt lat="46.176745" lon="12.92654"><ele>163.25</ele><time>2026-04-25T12:59:44.956Z</time></trkpt><trkpt lat="46.1768667" lon="12.92661"><ele>165.0</ele><time>2026-04-25T12:59:45.957Z</time></trkpt><trkpt lat="46.1769517" lon="12.9267483"><ele>160.33333333333334</ele><time>2026-04-25T12:59:46.956Z</time></trkpt><trkpt lat="46.177" lon="12.9269383"><ele>155.66666666666669</ele><time>2026-04-25T12:59:47.956Z</time></trkpt><trkpt lat="46.1770267" lon="12.9271683"><ele>151.0</ele><time>2026-04-25T12:59:48.956Z</time></trkpt><trkpt lat="46.1770383" lon="12.92742"><ele>151.33333333333334</ele><time>2026-04-25T12:59:49.957Z</time></trkpt><trkpt lat="46.1770383" lon="12.9276883"><ele>151.66666666666666</ele><time>2026-04-25T12:59:50.957Z</time></trkpt><trkpt lat="46.17704" lon="12.9279517"><ele>152.0</ele><time>2026-04-25T12:59:51.956Z</time></trkpt><trkpt lat="46.1770417" lon="12.928195"><ele>154.0</ele><time>2026-04-25T12:59:52.958Z</time></trkpt><trkpt lat="46.1770317" lon="12.92843"><ele>156.0</ele><time>2026-04-25T12:59:53.955Z</time></trkpt><trkpt lat="46.177" lon="12.92866"><ele>158.0</ele><time>2026-04-25T12:59:54.957Z</time></trkpt><trkpt lat="46.17693" lon="12.928865"><ele>158.0</ele><time>2026-04-25T12:59:55.958Z</time></trkpt><trkpt lat="46.176855" lon="12.929045"><ele>158.0</ele><time>2026-04-25T12:59:56.957Z</time></trkpt><trkpt lat="46.1768067" lon="12.9292167"><ele>158.0</ele><time>2026-04-25T12:59:57.956Z</time></trkpt><trkpt lat="46.176815" lon="12.929405"><ele>158.0</ele><time>2026-04-25T12:59:58.957Z</time></trkpt><trkpt lat="46.1768817" lon="12.9296083"><ele>157.75</ele><time>2026-04-25T12:59:59.956Z</time></trkpt><trkpt lat="46.1769617" lon="12.9298"><ele>157.5</ele><time>2026-04-25T13:00:00.956Z</time></trkpt><trkpt lat="46.1770483" lon="12.929955"><ele>157.25</ele><time>2026-04-25T13:00:01.957Z</time></trkpt><trkpt lat="46.177155" lon="12.9300567"><ele>157.0</ele><time>2026-04-25T13:00:02.956Z</time></trkpt><trkpt lat="46.1772817" lon="12.9300883"><ele>161.25</ele><time>2026-04-25T13:00:03.958Z</time></trkpt><trkpt lat="46.177425" lon="12.9300433"><ele>165.5</ele><time>2026-04-25T13:00:04.957Z</time></trkpt><trkpt lat="46.1775583" lon="12.9299617"><ele>169.75</ele><time>2026-04-25T13:00:05.956Z</time></trkpt><trkpt lat="46.1776833" lon="12.9298767"><ele>174.0</ele><time>2026-04-25T13:00:06.957Z</time></trkpt><trkpt lat="46.1777933" lon="12.92985"><ele>174.0</ele><time>2026-04-25T13:00:07.956Z</time></trkpt><trkpt lat="46.1778883" lon="12.9298967"><ele>174.0</ele><time>2026-04-25T13:00:08.955Z</time></trkpt><trkpt lat="46.17794" lon="12.9300083"><ele>174.0</ele><time>2026-04-25T13:00:09.958Z</time></trkpt><trkpt lat="46.177935" lon="12.9301633"><ele>174.0</ele><time>2026-04-25T13:00:10.957Z</time></trkpt><trkpt lat="46.1778817" lon="12.9303467"><ele>174.0</ele><time>2026-04-25T13:00:11.956Z</time></trkpt><trkpt lat="46.1778217" lon="12.9305233"><ele>172.25</ele><time>2026-04-25T13:00:12.957Z</time></trkpt><trkpt lat="46.1777583" lon="12.9306817"><ele>170.5</ele><time>2026-04-25T13:00:13.957Z</time></trkpt><trkpt lat="46.17772" lon="12.9308433"><ele>168.75</ele><time>2026-04-25T13:00:14.957Z</time></trkpt><trkpt lat="46.1777217" lon="12.9310017"><ele>167.0</ele><time>2026-04-25T13:00:15.957Z</time></trkpt><trkpt lat="46.17776" lon="12.931145"><ele>165.0</ele><time>2026-04-25T13:00:16.957Z</time></trkpt><trkpt lat="46.1778533" lon="12.9312833"><ele>163.0</ele><time>2026-04-25T13:00:17.957Z</time></trkpt><trkpt lat="46.177995" lon="12.931435"><ele>161.0</ele><time>2026-04-25T13:00:18.957Z</time></trkpt><trkpt lat="46.178165" lon="12.9315633"><ele>164.33333333333331</ele><time>2026-04-25T13:00:19.957Z</time></trkpt><trkpt lat="46.17835" lon="12.931695"><ele>167.66666666666666</ele><time>2026-04-25T13:00:20.956Z</time></trkpt><trkpt lat="46.17856" lon="12.9318217"><ele>171.0</ele><time>2026-04-25T13:00:21.957Z</time></trkpt><trkpt lat="46.1787833" lon="12.931945"><ele>171.0</ele><time>2026-04-25T13:00:22.958Z</time></trkpt><trkpt lat="46.1790083" lon="12.9320617"><ele>171.0</ele><time>2026-04-25T13:00:23.956Z</time></trkpt><trkpt lat="46.1792317" lon="12.9321683"><ele>176.66666666666666</ele><time>2026-04-25T13:00:24.957Z</time></trkpt><trkpt lat="46.1794467" lon="12.9322617"><ele>182.33333333333331</ele><time>2026-04-25T13:00:25.958Z</time></trkpt><trkpt lat="46.1796617" lon="12.9323417"><ele>188.0</ele><time>2026-04-25T13:00:26.957Z</time></trkpt><trkpt lat="46.17988" lon="12.932415"><ele>190.0</ele><time>2026-04-25T13:00:27.956Z</time></trkpt><trkpt lat="46.180085" lon="12.9324883"><ele>192.0</ele><time>2026-04-25T13:00:28.956Z</time></trkpt><trkpt lat="46.18027" lon="12.9325567"><ele>194.0</ele><time>2026-04-25T13:00:29.957Z</time></trkpt><trkpt lat="46.1804383" lon="12.9326283"><ele>194.33333333333334</ele><time>2026-04-25T13:00:30.955Z</time></trkpt><trkpt lat="46.1805883" lon="12.9327183"><ele>194.66666666666669</ele><time>2026-04-25T13:00:31.956Z</time></trkpt><trkpt lat="46.180715" lon="12.9328483"><ele>195.0</ele><time>2026-04-25T13:00:32.956Z</time></trkpt><trkpt lat="46.18081" lon="12.9330167"><ele>195.33333333333331</ele><time>2026-04-25T13:00:33.956Z</time></trkpt><trkpt lat="46.180885" lon="12.9332117"><ele>195.66666666666666</ele><time>2026-04-25T13:00:34.957Z</time></trkpt><trkpt lat="46.1809383" lon="12.9334283"><ele>196.0</ele><time>2026-04-25T13:00:35.957Z</time></trkpt><trkpt lat="46.1809883" lon="12.9336683"><ele>196.0</ele><time>2026-04-25T13:00:36.958Z</time></trkpt><trkpt lat="46.1810433" lon="12.9339267"><ele>196.0</ele><time>2026-04-25T13:00:37.956Z</time></trkpt><trkpt lat="46.1811017" lon="12.934195"><ele>196.0</ele><time>2026-04-25T13:00:38.956Z</time></trkpt><trkpt lat="46.1811583" lon="12.9344667"><ele>196.0</ele><time>2026-04-25T13:00:39.957Z</time></trkpt><trkpt lat="46.1812167" lon="12.9347433"><ele>196.0</ele><time>2026-04-25T13:00:40.957Z</time></trkpt><trkpt lat="46.1812767" lon="12.9350267"><ele>196.0</ele><time>2026-04-25T13:00:41.956Z</time></trkpt><trkpt lat="46.18134" lon="12.9353167"><ele>195.66666666666666</ele><time>2026-04-25T13:00:42.957Z</time></trkpt><trkpt lat="46.181405" lon="12.93561"><ele>195.33333333333331</ele><time>2026-04-25T13:00:43.956Z</time></trkpt><trkpt lat="46.1814717" lon="12.9359067"><ele>195.0</ele><time>2026-04-25T13:00:44.957Z</time></trkpt><trkpt lat="46.181535" lon="12.9362033"><ele>197.0</ele><time>2026-04-25T13:00:45.958Z</time></trkpt><trkpt lat="46.1815983" lon="12.9364967"><ele>199.0</ele><time>2026-04-25T13:00:46.957Z</time></trkpt><trkpt lat="46.1816617" lon="12.936785"><ele>201.0</ele><time>2026-04-25T13:00:47.957Z</time></trkpt><trkpt lat="46.181725" lon="12.9370733"><ele>201.33333333333331</ele><time>2026-04-25T13:00:48.957Z</time></trkpt><trkpt lat="46.1817817" lon="12.937365"><ele>201.66666666666666</ele><time>2026-04-25T13:00:49.957Z</time></trkpt><trkpt lat="46.1818267" lon="12.9376633"><ele>202.0</ele><time>2026-04-25T13:00:50.956Z</time></trkpt><trkpt lat="46.18186" lon="12.937965"><ele>201.66666666666666</ele><time>2026-04-25T13:00:51.957Z</time></trkpt><trkpt lat="46.181885" lon="12.9382717"><ele>201.33333333333331</ele><time>2026-04-25T13:00:52.957Z</time></trkpt><trkpt lat="46.1819083" lon="12.9385817"><ele>201.0</ele><time>2026-04-25T13:00:53.956Z</time></trkpt><trkpt lat="46.1819283" lon="12.9388917"><ele>201.0</ele><time>2026-04-25T13:00:54.957Z</time></trkpt><trkpt lat="46.1819517" lon="12.9391983"><ele>201.0</ele><time>2026-04-25T13:00:55.957Z</time></trkpt><trkpt lat="46.181975" lon="12.939505"><ele>201.0</ele><time>2026-04-25T13:00:56.957Z</time></trkpt><trkpt lat="46.1819967" lon="12.9398083"><ele>200.66666666666669</ele><time>2026-04-25T13:00:57.957Z</time></trkpt><trkpt lat="46.18202" lon="12.9401083"><ele>200.33333333333334</ele><time>2026-04-25T13:00:58.957Z</time></trkpt><trkpt lat="46.1820417" lon="12.9404017"><ele>200.0</ele><time>2026-04-25T13:00:59.957Z</time></trkpt><trkpt lat="46.1820617" lon="12.9406883"><ele>200.33333333333334</ele><time>2026-04-25T13:01:00.957Z</time></trkpt><trkpt lat="46.1820833" lon="12.940965"><ele>200.66666666666669</ele><time>2026-04-25T13:01:01.957Z</time></trkpt><trkpt lat="46.182105" lon="12.9412283"><ele>201.0</ele><time>2026-04-25T13:01:02.956Z</time></trkpt><trkpt lat="46.1821283" lon="12.9414833"><ele>200.66666666666669</ele><time>2026-04-25T13:01:03.956Z</time></trkpt><trkpt lat="46.1821683" lon="12.941725"><ele>200.33333333333334</ele><time>2026-04-25T13:01:04.956Z</time></trkpt><trkpt lat="46.182225" lon="12.9419583"><ele>200.0</ele><time>2026-04-25T13:01:05.956Z</time></trkpt><trkpt lat="46.1822917" lon="12.9421783"><ele>202.66666666666669</ele><time>2026-04-25T13:01:06.957Z</time></trkpt><trkpt lat="46.1823517" lon="12.9423967"><ele>205.33333333333331</ele><time>2026-04-25T13:01:07.958Z</time></trkpt><trkpt lat="46.1823967" lon="12.9426233"><ele>208.0</ele><time>2026-04-25T13:01:08.958Z</time></trkpt><trkpt lat="46.1824467" lon="12.9428483"><ele>208.0</ele><time>2026-04-25T13:01:09.956Z</time></trkpt><trkpt lat="46.1825067" lon="12.9430717"><ele>208.0</ele><time>2026-04-25T13:01:10.957Z</time></trkpt><trkpt lat="46.1825683" lon="12.9432933"><ele>208.0</ele><time>2026-04-25T13:01:11.957Z</time></trkpt><trkpt lat="46.1826233" lon="12.9435067"><ele>206.33333333333331</ele><time>2026-04-25T13:01:12.957Z</time></trkpt><trkpt lat="46.1826817" lon="12.9437117"><ele>204.66666666666669</ele><time>2026-04-25T13:01:13.958Z</time></trkpt><trkpt lat="46.1827433" lon="12.943915"><ele>203.0</ele><time>2026-04-25T13:01:14.957Z</time></trkpt><trkpt lat="46.182815" lon="12.9441033"><ele>202.5</ele><time>2026-04-25T13:01:15.958Z</time></trkpt><trkpt lat="46.1828917" lon="12.9442667"><ele>202.0</ele><time>2026-04-25T13:01:16.956Z</time></trkpt><trkpt lat="46.1829617" lon="12.9444233"><ele>201.5</ele><time>2026-04-25T13:01:17.956Z</time></trkpt><trkpt lat="46.1830067" lon="12.944595"><ele>201.0</ele><time>2026-04-25T13:01:18.957Z</time></trkpt><trkpt lat="46.1830317" lon="12.9447817"><ele>201.0</ele><time>2026-04-25T13:01:19.956Z</time></trkpt><trkpt lat="46.1830467" lon="12.94497"><ele>201.0</ele><time>2026-04-25T13:01:20.956Z</time></trkpt><trkpt lat="46.183055" lon="12.94516"><ele>201.0</ele><time>2026-04-25T13:01:21.957Z</time></trkpt><trkpt lat="46.1830567" lon="12.945345"><ele>201.0</ele><time>2026-04-25T13:01:22.958Z</time></trkpt><trkpt lat="46.1830567" lon="12.945525"><ele>201.0</ele><time>2026-04-25T13:01:23.957Z</time></trkpt><trkpt lat="46.1830583" lon="12.94569"><ele>201.0</ele><time>2026-04-25T13:01:24.957Z</time></trkpt><trkpt lat="46.1830633" lon="12.945845"><ele>201.0</ele><time>2026-04-25T13:01:25.958Z</time></trkpt><trkpt lat="46.18307" lon="12.94599"><ele>201.0</ele><time>2026-04-25T13:01:26.958Z</time></trkpt><trkpt lat="46.1830767" lon="12.9461083"><ele>201.0</ele><time>2026-04-25T13:01:27.957Z</time></trkpt><trkpt lat="46.183085" lon="12.9462617"><ele>200.8</ele><time>2026-04-25T13:01:29.957Z</time></trkpt><trkpt lat="46.183105" lon="12.9464117"><ele>200.60000000000002</ele><time>2026-04-25T13:01:40.957Z</time></trkpt><trkpt lat="46.1831183" lon="12.946525"><ele>200.4</ele><time>2026-04-25T13:01:42.958Z</time></trkpt><trkpt lat="46.1831367" lon="12.9466583"><ele>200.2</ele><time>2026-04-25T13:01:44.956Z</time></trkpt><trkpt lat="46.18316" lon="12.9467767"><ele>200.0</ele><time>2026-04-25T13:01:46.957Z</time></trkpt><trkpt lat="46.183205" lon="12.946925"><ele>200.33333333333334</ele><time>2026-04-25T13:01:48.958Z</time></trkpt><trkpt lat="46.1832333" lon="12.9470133"><ele>200.66666666666669</ele><time>2026-04-25T13:01:49.958Z</time></trkpt><trkpt lat="46.1832683" lon="12.9471"><ele>201.0</ele><time>2026-04-25T13:01:50.956Z</time></trkpt><trkpt lat="46.1833" lon="12.9471867"><ele>201.33333333333331</ele><time>2026-04-25T13:01:51.957Z</time></trkpt><trkpt lat="46.183335" lon="12.9472733"><ele>201.66666666666666</ele><time>2026-04-25T13:01:52.958Z</time></trkpt><trkpt lat="46.1833867" lon="12.9474167"><ele>202.0</ele><time>2026-04-25T13:01:54.956Z</time></trkpt><trkpt lat="46.1834583" lon="12.947545"><ele>201.2</ele><time>2026-04-25T13:01:56.957Z</time></trkpt><trkpt lat="46.1835283" lon="12.947695"><ele>200.39999999999998</ele><time>2026-04-25T13:01:58.958Z</time></trkpt><trkpt lat="46.18358" lon="12.9477533"><ele>199.60000000000002</ele><time>2026-04-25T13:01:59.957Z</time></trkpt><trkpt lat="46.1836767" lon="12.9478717"><ele>198.8</ele><time>2026-04-25T13:02:01.957Z</time></trkpt><trkpt lat="46.183725" lon="12.9479383"><ele>198.0</ele><time>2026-04-25T13:02:02.957Z</time></trkpt><trkpt lat="46.183775" lon="12.9480183"><ele>198.0</ele><time>2026-04-25T13:02:03.958Z</time></trkpt><trkpt lat="46.1838233" lon="12.94811"><ele>198.0</ele><time>2026-04-25T13:02:04.957Z</time></trkpt><trkpt lat="46.1838767" lon="12.9482"><ele>198.0</ele><time>2026-04-25T13:02:05.957Z</time></trkpt><trkpt lat="46.1839183" lon="12.9482933"><ele>198.0</ele><time>2026-04-25T13:02:06.957Z</time></trkpt><trkpt lat="46.1839667" lon="12.9483867"><ele>198.0</ele><time>2026-04-25T13:02:07.957Z</time></trkpt><trkpt lat="46.1840217" lon="12.9484733"><ele>198.0</ele><time>2026-04-25T13:02:08.957Z</time></trkpt><trkpt lat="46.1840883" lon="12.9485483"><ele>197.8</ele><time>2026-04-25T13:02:09.958Z</time></trkpt><trkpt lat="46.1841683" lon="12.9486117"><ele>197.60000000000002</ele><time>2026-04-25T13:02:10.957Z</time></trkpt><trkpt lat="46.1842767" lon="12.948655"><ele>197.39999999999998</ele><time>2026-04-25T13:02:11.957Z</time></trkpt><trkpt lat="46.1843967" lon="12.9486783"><ele>197.2</ele><time>2026-04-25T13:02:12.958Z</time></trkpt><trkpt lat="46.1845167" lon="12.9486967"><ele>197.0</ele><time>2026-04-25T13:02:13.958Z</time></trkpt><trkpt lat="46.18463" lon="12.94871"><ele>197.0</ele><time>2026-04-25T13:02:14.957Z</time></trkpt><trkpt lat="46.1847367" lon="12.9487183"><ele>197.0</ele><time>2026-04-25T13:02:15.958Z</time></trkpt><trkpt lat="46.18484" lon="12.9487217"><ele>197.0</ele><time>2026-04-25T13:02:16.957Z</time></trkpt><trkpt lat="46.1849417" lon="12.9487217"><ele>197.0</ele><time>2026-04-25T13:02:17.957Z</time></trkpt><trkpt lat="46.18504" lon="12.9487183"><ele>197.0</ele><time>2026-04-25T13:02:18.956Z</time></trkpt><trkpt lat="46.1851333" lon="12.94871"><ele>197.00000000000003</ele><time>2026-04-25T13:02:19.957Z</time></trkpt><trkpt lat="46.18522" lon="12.948705"><ele>197.0</ele><time>2026-04-25T13:02:20.957Z</time></trkpt><trkpt lat="46.1853" lon="12.9487033"><ele>197.0</ele><time>2026-04-25T13:02:21.958Z</time></trkpt><trkpt lat="46.18538" lon="12.94871"><ele>197.0</ele><time>2026-04-25T13:02:22.957Z</time></trkpt><trkpt lat="46.1854633" lon="12.9487267"><ele>197.00000000000003</ele><time>2026-04-25T13:02:23.957Z</time></trkpt><trkpt lat="46.1855467" lon="12.9487683"><ele>197.0</ele><time>2026-04-25T13:02:24.956Z</time></trkpt><trkpt lat="46.1856233" lon="12.9488267"><ele>196.16666666666669</ele><time>2026-04-25T13:02:25.958Z</time></trkpt><trkpt lat="46.185695" lon="12.9489017"><ele>195.33333333333334</ele><time>2026-04-25T13:02:26.957Z</time></trkpt><trkpt lat="46.185765" lon="12.94896"><ele>194.5</ele><time>2026-04-25T13:02:27.957Z</time></trkpt><trkpt lat="46.18584" lon="12.9489667"><ele>193.66666666666669</ele><time>2026-04-25T13:02:28.957Z</time></trkpt><trkpt lat="46.1859017" lon="12.9489033"><ele>192.83333333333334</ele><time>2026-04-25T13:02:29.956Z</time></trkpt><trkpt lat="46.1859467" lon="12.94878"><ele>192.0</ele><time>2026-04-25T13:02:30.957Z</time></trkpt><trkpt lat="46.18597" lon="12.948625"><ele>192.0</ele><time>2026-04-25T13:02:31.958Z</time></trkpt><trkpt lat="46.18599" lon="12.9484567"><ele>192.0</ele><time>2026-04-25T13:02:32.958Z</time></trkpt><trkpt lat="46.1860117" lon="12.9482733"><ele>192.0</ele><time>2026-04-25T13:02:33.958Z</time></trkpt><trkpt lat="46.1860467" lon="12.9480733"><ele>192.0</ele><time>2026-04-25T13:02:34.958Z</time></trkpt><trkpt lat="46.1860983" lon="12.9478367"><ele>195.33333333333331</ele><time>2026-04-25T13:02:35.958Z</time></trkpt><trkpt lat="46.1861783" lon="12.94759"><ele>198.66666666666666</ele><time>2026-04-25T13:02:36.958Z</time></trkpt><trkpt lat="46.1862583" lon="12.9473583"><ele>202.0</ele><time>2026-04-25T13:02:37.958Z</time></trkpt><trkpt lat="46.1863317" lon="12.9471433"><ele>204.5</ele><time>2026-04-25T13:02:38.958Z</time></trkpt><trkpt lat="46.1864033" lon="12.9469483"><ele>207.0</ele><time>2026-04-25T13:02:39.958Z</time></trkpt><trkpt lat="46.18648" lon="12.946775"><ele>209.5</ele><time>2026-04-25T13:02:40.958Z</time></trkpt><trkpt lat="46.1865767" lon="12.9466517"><ele>212.0</ele><time>2026-04-25T13:02:41.958Z</time></trkpt><trkpt lat="46.1866867" lon="12.9465833"><ele>205.25</ele><time>2026-04-25T13:02:42.958Z</time></trkpt><trkpt lat="46.1868117" lon="12.9465783"><ele>198.5</ele><time>2026-04-25T13:02:43.956Z</time></trkpt><trkpt lat="46.18694" lon="12.9466417"><ele>191.75</ele><time>2026-04-25T13:02:44.956Z</time></trkpt><trkpt lat="46.1870467" lon="12.9467733"><ele>185.0</ele><time>2026-04-25T13:02:45.958Z</time></trkpt><trkpt lat="46.1871367" lon="12.9469417"><ele>183.33333333333331</ele><time>2026-04-25T13:02:46.958Z</time></trkpt><trkpt lat="46.1872117" lon="12.947145"><ele>181.66666666666666</ele><time>2026-04-25T13:02:47.957Z</time></trkpt><trkpt lat="46.1872933" lon="12.9473733"><ele>180.0</ele><time>2026-04-25T13:02:48.955Z</time></trkpt><trkpt lat="46.1873883" lon="12.947625"><ele>181.0</ele><time>2026-04-25T13:02:49.958Z</time></trkpt><trkpt lat="46.1874883" lon="12.9478883"><ele>182.0</ele><time>2026-04-25T13:02:50.956Z</time></trkpt><trkpt lat="46.187585" lon="12.9481583"><ele>183.0</ele><time>2026-04-25T13:02:51.958Z</time></trkpt><trkpt lat="46.1876867" lon="12.9484283"><ele>183.0</ele><time>2026-04-25T13:02:52.957Z</time></trkpt><trkpt lat="46.1877917" lon="12.9487117"><ele>183.0</ele><time>2026-04-25T13:02:53.956Z</time></trkpt><trkpt lat="46.1878983" lon="12.9490033"><ele>183.66666666666666</ele><time>2026-04-25T13:02:54.957Z</time></trkpt><trkpt lat="46.18801" lon="12.9492867"><ele>184.33333333333331</ele><time>2026-04-25T13:02:55.957Z</time></trkpt><trkpt lat="46.1881317" lon="12.9495533"><ele>185.0</ele><time>2026-04-25T13:02:56.958Z</time></trkpt><trkpt lat="46.18827" lon="12.9497933"><ele>185.0</ele><time>2026-04-25T13:02:57.957Z</time></trkpt><trkpt lat="46.1884217" lon="12.949995"><ele>185.0</ele><time>2026-04-25T13:02:58.958Z</time></trkpt><trkpt lat="46.1885867" lon="12.9501817"><ele>185.0</ele><time>2026-04-25T13:02:59.957Z</time></trkpt><trkpt lat="46.1887533" lon="12.9503583"><ele>186.33333333333331</ele><time>2026-04-25T13:03:00.959Z</time></trkpt><trkpt lat="46.1889067" lon="12.9505217"><ele>187.66666666666666</ele><time>2026-04-25T13:03:01.958Z</time></trkpt><trkpt lat="46.1890417" lon="12.9506767"><ele>189.0</ele><time>2026-04-25T13:03:02.957Z</time></trkpt><trkpt lat="46.1891817" lon="12.9508067"><ele>185.66666666666666</ele><time>2026-04-25T13:03:03.958Z</time></trkpt><trkpt lat="46.1893333" lon="12.9508883"><ele>182.33333333333331</ele><time>2026-04-25T13:03:04.957Z</time></trkpt><trkpt lat="46.1895033" lon="12.950915"><ele>179.0</ele><time>2026-04-25T13:03:05.957Z</time></trkpt><trkpt lat="46.18968" lon="12.9508683"><ele>176.0</ele><time>2026-04-25T13:03:06.958Z</time></trkpt><trkpt lat="46.189865" lon="12.950795"><ele>173.0</ele><time>2026-04-25T13:03:07.958Z</time></trkpt><trkpt lat="46.1900433" lon="12.9507167"><ele>170.0</ele><time>2026-04-25T13:03:08.957Z</time></trkpt><trkpt lat="46.1902133" lon="12.9506417"><ele>170.0</ele><time>2026-04-25T13:03:09.956Z</time></trkpt><trkpt lat="46.1903733" lon="12.9505683"><ele>170.0</ele><time>2026-04-25T13:03:10.957Z</time></trkpt><trkpt lat="46.1905233" lon="12.950515"><ele>170.0</ele><time>2026-04-25T13:03:11.958Z</time></trkpt><trkpt lat="46.1906683" lon="12.9505"><ele>167.66666666666666</ele><time>2026-04-25T13:03:12.957Z</time></trkpt><trkpt lat="46.1908167" lon="12.9505467"><ele>165.33333333333334</ele><time>2026-04-25T13:03:13.956Z</time></trkpt><trkpt lat="46.1909467" lon="12.9506767"><ele>163.0</ele><time>2026-04-25T13:03:14.956Z</time></trkpt><trkpt lat="46.1910567" lon="12.9508267"><ele>163.25</ele><time>2026-04-25T13:03:15.956Z</time></trkpt><trkpt lat="46.19116" lon="12.950975"><ele>163.5</ele><time>2026-04-25T13:03:16.957Z</time></trkpt><trkpt lat="46.19127" lon="12.9511133"><ele>163.75</ele><time>2026-04-25T13:03:17.956Z</time></trkpt><trkpt lat="46.1914" lon="12.9512167"><ele>164.0</ele><time>2026-04-25T13:03:18.957Z</time></trkpt><trkpt lat="46.1915517" lon="12.951295"><ele>164.0</ele><time>2026-04-25T13:03:19.957Z</time></trkpt><trkpt lat="46.19172" lon="12.9513633"><ele>164.0</ele><time>2026-04-25T13:03:20.956Z</time></trkpt><trkpt lat="46.1918983" lon="12.9514233"><ele>164.0</ele><time>2026-04-25T13:03:21.956Z</time></trkpt><trkpt lat="46.192085" lon="12.9514917"><ele>164.0</ele><time>2026-04-25T13:03:22.956Z</time></trkpt><trkpt lat="46.1922767" lon="12.9515567"><ele>164.0</ele><time>2026-04-25T13:03:23.956Z</time></trkpt><trkpt lat="46.1924683" lon="12.9516233"><ele>164.0</ele><time>2026-04-25T13:03:24.955Z</time></trkpt><trkpt lat="46.1926583" lon="12.95169"><ele>164.66666666666666</ele><time>2026-04-25T13:03:25.956Z</time></trkpt><trkpt lat="46.1928533" lon="12.95176"><ele>165.33333333333334</ele><time>2026-04-25T13:03:26.957Z</time></trkpt><trkpt lat="46.1930483" lon="12.9518267"><ele>166.0</ele><time>2026-04-25T13:03:27.956Z</time></trkpt><trkpt lat="46.19324" lon="12.9518917"><ele>166.33333333333334</ele><time>2026-04-25T13:03:28.957Z</time></trkpt><trkpt lat="46.1934283" lon="12.951955"><ele>166.66666666666666</ele><time>2026-04-25T13:03:29.956Z</time></trkpt><trkpt lat="46.19361" lon="12.9520167"><ele>167.0</ele><time>2026-04-25T13:03:30.955Z</time></trkpt><trkpt lat="46.1937933" lon="12.9520817"><ele>167.0</ele><time>2026-04-25T13:03:31.957Z</time></trkpt><trkpt lat="46.193975" lon="12.9521467"><ele>167.0</ele><time>2026-04-25T13:03:32.955Z</time></trkpt><trkpt lat="46.194155" lon="12.9522133"><ele>167.0</ele><time>2026-04-25T13:03:33.957Z</time></trkpt><trkpt lat="46.194335" lon="12.9522767"><ele>167.0</ele><time>2026-04-25T13:03:34.957Z</time></trkpt><trkpt lat="46.1945167" lon="12.9523383"><ele>167.0</ele><time>2026-04-25T13:03:35.957Z</time></trkpt><trkpt lat="46.1946933" lon="12.9523967"><ele>167.0</ele><time>2026-04-25T13:03:36.955Z</time></trkpt><trkpt lat="46.1948617" lon="12.9524567"><ele>166.33333333333331</ele><time>2026-04-25T13:03:37.957Z</time></trkpt><trkpt lat="46.19502" lon="12.9525133"><ele>165.66666666666666</ele><time>2026-04-25T13:03:38.957Z</time></trkpt><trkpt lat="46.19517" lon="12.9525633"><ele>165.0</ele><time>2026-04-25T13:03:39.958Z</time></trkpt><trkpt lat="46.1953133" lon="12.9525933"><ele>164.75</ele><time>2026-04-25T13:03:40.957Z</time></trkpt><trkpt lat="46.1954467" lon="12.9525883"><ele>164.5</ele><time>2026-04-25T13:03:41.956Z</time></trkpt><trkpt lat="46.19558" lon="12.9525617"><ele>164.25</ele><time>2026-04-25T13:03:42.957Z</time></trkpt><trkpt lat="46.1957133" lon="12.9525117"><ele>164.0</ele><time>2026-04-25T13:03:43.958Z</time></trkpt><trkpt lat="46.19585" lon="12.952415"><ele>164.0</ele><time>2026-04-25T13:03:44.956Z</time></trkpt><trkpt lat="46.1959767" lon="12.95229"><ele>164.0</ele><time>2026-04-25T13:03:45.956Z</time></trkpt><trkpt lat="46.1961083" lon="12.952155"><ele>164.0</ele><time>2026-04-25T13:03:46.957Z</time></trkpt><trkpt lat="46.196245" lon="12.9520183"><ele>164.0</ele><time>2026-04-25T13:03:47.957Z</time></trkpt><trkpt lat="46.196395" lon="12.951865"><ele>164.0</ele><time>2026-04-25T13:03:48.955Z</time></trkpt><trkpt lat="46.1965683" lon="12.9517067"><ele>164.0</ele><time>2026-04-25T13:03:49.957Z</time></trkpt><trkpt lat="46.1967517" lon="12.9515483"><ele>165.0</ele><time>2026-04-25T13:03:50.956Z</time></trkpt><trkpt lat="46.1969333" lon="12.9513867"><ele>166.0</ele><time>2026-04-25T13:03:51.956Z</time></trkpt><trkpt lat="46.1971017" lon="12.9512117"><ele>167.0</ele><time>2026-04-25T13:03:52.958Z</time></trkpt><trkpt lat="46.1972617" lon="12.95103"><ele>165.66666666666666</ele><time>2026-04-25T13:03:53.956Z</time></trkpt><trkpt lat="46.1974083" lon="12.9508417"><ele>164.33333333333334</ele><time>2026-04-25T13:03:54.956Z</time></trkpt><trkpt lat="46.1975417" lon="12.9506633"><ele>163.0</ele><time>2026-04-25T13:03:55.957Z</time></trkpt><trkpt lat="46.1976617" lon="12.9504983"><ele>163.0</ele><time>2026-04-25T13:03:56.957Z</time></trkpt><trkpt lat="46.1977783" lon="12.9503617"><ele>163.0</ele><time>2026-04-25T13:03:57.958Z</time></trkpt><trkpt lat="46.1978933" lon="12.9502467"><ele>163.0</ele><time>2026-04-25T13:03:58.957Z</time></trkpt><trkpt lat="46.19801" lon="12.9501617"><ele>163.0</ele><time>2026-04-25T13:03:59.956Z</time></trkpt><trkpt lat="46.198135" lon="12.9501117"><ele>162.0</ele><time>2026-04-25T13:04:00.957Z</time></trkpt><trkpt lat="46.1982683" lon="12.950085"><ele>161.0</ele><time>2026-04-25T13:04:01.957Z</time></trkpt><trkpt lat="46.1984" lon="12.950055"><ele>160.0</ele><time>2026-04-25T13:04:02.957Z</time></trkpt><trkpt lat="46.1985283" lon="12.9499883"><ele>159.0</ele><time>2026-04-25T13:04:03.957Z</time></trkpt><trkpt lat="46.1986467" lon="12.9498733"><ele>158.33333333333334</ele><time>2026-04-25T13:04:04.957Z</time></trkpt><trkpt lat="46.19875" lon="12.9497117"><ele>157.66666666666669</ele><time>2026-04-25T13:04:05.955Z</time></trkpt><trkpt lat="46.1988483" lon="12.9495317"><ele>157.0</ele><time>2026-04-25T13:04:06.956Z</time></trkpt><trkpt lat="46.1989383" lon="12.9493633"><ele>156.75</ele><time>2026-04-25T13:04:07.957Z</time></trkpt><trkpt lat="46.1990333" lon="12.9492217"><ele>156.5</ele><time>2026-04-25T13:04:08.957Z</time></trkpt><trkpt lat="46.19915" lon="12.9491167"><ele>156.25</ele><time>2026-04-25T13:04:09.957Z</time></trkpt><trkpt lat="46.199285" lon="12.9490333"><ele>156.0</ele><time>2026-04-25T13:04:10.958Z</time></trkpt><trkpt lat="46.1994367" lon="12.9489483"><ele>156.0</ele><time>2026-04-25T13:04:11.958Z</time></trkpt><trkpt lat="46.199595" lon="12.948855"><ele>156.0</ele><time>2026-04-25T13:04:12.957Z</time></trkpt><trkpt lat="46.1997667" lon="12.9487617"><ele>156.0</ele><time>2026-04-25T13:04:13.957Z</time></trkpt><trkpt lat="46.19994" lon="12.9486667"><ele>156.0</ele><time>2026-04-25T13:04:14.956Z</time></trkpt><trkpt lat="46.2001217" lon="12.948575"><ele>156.0</ele><time>2026-04-25T13:04:15.957Z</time></trkpt><trkpt lat="46.2002983" lon="12.9484817"><ele>156.0</ele><time>2026-04-25T13:04:16.957Z</time></trkpt><trkpt lat="46.2004683" lon="12.94839"><ele>156.33333333333334</ele><time>2026-04-25T13:04:17.956Z</time></trkpt><trkpt lat="46.2006383" lon="12.9482983"><ele>156.66666666666669</ele><time>2026-04-25T13:04:18.956Z</time></trkpt><trkpt lat="46.2008133" lon="12.9482067"><ele>157.0</ele><time>2026-04-25T13:04:19.956Z</time></trkpt><trkpt lat="46.2009917" lon="12.948115"><ele>157.0</ele><time>2026-04-25T13:04:20.956Z</time></trkpt><trkpt lat="46.201175" lon="12.94803"><ele>157.0</ele><time>2026-04-25T13:04:21.959Z</time></trkpt><trkpt lat="46.2013533" lon="12.9479417"><ele>157.0</ele><time>2026-04-25T13:04:22.957Z</time></trkpt><trkpt lat="46.20154" lon="12.9478683"><ele>162.0</ele><time>2026-04-25T13:04:23.956Z</time></trkpt><trkpt lat="46.2017317" lon="12.9478067"><ele>167.0</ele><time>2026-04-25T13:04:24.956Z</time></trkpt><trkpt lat="46.2019283" lon="12.94776"><ele>172.0</ele><time>2026-04-25T13:04:25.957Z</time></trkpt><trkpt lat="46.2021183" lon="12.9477167"><ele>172.0</ele><time>2026-04-25T13:04:26.957Z</time></trkpt><trkpt lat="46.2022983" lon="12.94768"><ele>172.0</ele><time>2026-04-25T13:04:27.956Z</time></trkpt><trkpt lat="46.2024633" lon="12.947665"><ele>172.0</ele><time>2026-04-25T13:04:28.957Z</time></trkpt><trkpt lat="46.20262" lon="12.9476783"><ele>169.75</ele><time>2026-04-25T13:04:29.956Z</time></trkpt><trkpt lat="46.2027733" lon="12.947695"><ele>167.5</ele><time>2026-04-25T13:04:30.957Z</time></trkpt><trkpt lat="46.20292" lon="12.9476667"><ele>165.25</ele><time>2026-04-25T13:04:31.958Z</time></trkpt><trkpt lat="46.2030533" lon="12.94759"><ele>163.0</ele><time>2026-04-25T13:04:32.957Z</time></trkpt><trkpt lat="46.2031583" lon="12.9474917"><ele>164.4</ele><time>2026-04-25T13:04:33.957Z</time></trkpt><trkpt lat="46.203255" lon="12.9474133"><ele>165.8</ele><time>2026-04-25T13:04:34.957Z</time></trkpt><trkpt lat="46.2033417" lon="12.947375"><ele>167.2</ele><time>2026-04-25T13:04:35.957Z</time></trkpt><trkpt lat="46.203425" lon="12.94741"><ele>168.6</ele><time>2026-04-25T13:04:36.957Z</time></trkpt><trkpt lat="46.2034867" lon="12.9475183"><ele>170.0</ele><time>2026-04-25T13:04:37.956Z</time></trkpt><trkpt lat="46.2035133" lon="12.9477067"><ele>174.0</ele><time>2026-04-25T13:04:38.957Z</time></trkpt><trkpt lat="46.203545" lon="12.9479067"><ele>178.0</ele><time>2026-04-25T13:04:39.958Z</time></trkpt><trkpt lat="46.2035767" lon="12.94811"><ele>182.0</ele><time>2026-04-25T13:04:40.957Z</time></trkpt><trkpt lat="46.20362" lon="12.9482967"><ele>186.0</ele><time>2026-04-25T13:04:41.958Z</time></trkpt><trkpt lat="46.2036967" lon="12.9484533"><ele>185.66666666666666</ele><time>2026-04-25T13:04:42.956Z</time></trkpt><trkpt lat="46.2038167" lon="12.948575"><ele>185.33333333333331</ele><time>2026-04-25T13:04:43.957Z</time></trkpt><trkpt lat="46.20397" lon="12.94866"><ele>185.0</ele><time>2026-04-25T13:04:44.958Z</time></trkpt><trkpt lat="46.20414" lon="12.948735"><ele>185.0</ele><time>2026-04-25T13:04:45.957Z</time></trkpt><trkpt lat="46.204305" lon="12.9488133"><ele>185.0</ele><time>2026-04-25T13:04:46.957Z</time></trkpt><trkpt lat="46.2044683" lon="12.94889"><ele>185.0</ele><time>2026-04-25T13:04:47.957Z</time></trkpt><trkpt lat="46.20463" lon="12.9489667"><ele>185.0</ele><time>2026-04-25T13:04:48.957Z</time></trkpt><trkpt lat="46.2047933" lon="12.9490383"><ele>185.0</ele><time>2026-04-25T13:04:49.956Z</time></trkpt><trkpt lat="46.204965" lon="12.9490967"><ele>185.0</ele><time>2026-04-25T13:04:50.956Z</time></trkpt><trkpt lat="46.20514" lon="12.9491317"><ele>184.33333333333331</ele><time>2026-04-25T13:04:51.958Z</time></trkpt><trkpt lat="46.205315" lon="12.9491517"><ele>183.66666666666666</ele><time>2026-04-25T13:04:52.958Z</time></trkpt><trkpt lat="46.2054833" lon="12.94916"><ele>183.0</ele><time>2026-04-25T13:04:53.957Z</time></trkpt><trkpt lat="46.2056467" lon="12.9491583"><ele>180.0</ele><time>2026-04-25T13:04:54.957Z</time></trkpt><trkpt lat="46.2058033" lon="12.9491567"><ele>177.0</ele><time>2026-04-25T13:04:55.958Z</time></trkpt><trkpt lat="46.2059517" lon="12.9491517"><ele>174.0</ele><time>2026-04-25T13:04:56.957Z</time></trkpt><trkpt lat="46.206095" lon="12.9491467"><ele>171.0</ele><time>2026-04-25T13:04:57.958Z</time></trkpt><trkpt lat="46.2062383" lon="12.949165"><ele>167.0</ele><time>2026-04-25T13:04:58.958Z</time></trkpt><trkpt lat="46.2063683" lon="12.9492233"><ele>163.0</ele><time>2026-04-25T13:04:59.96Z</time></trkpt><trkpt lat="46.2064783" lon="12.9493283"><ele>159.0</ele><time>2026-04-25T13:05:00.957Z</time></trkpt><trkpt lat="46.20656" lon="12.9494633"><ele>155.0</ele><time>2026-04-25T13:05:01.957Z</time></trkpt><trkpt lat="46.20662" lon="12.9496167"><ele>155.0</ele><time>2026-04-25T13:05:02.956Z</time></trkpt><trkpt lat="46.2066783" lon="12.94978"><ele>155.0</ele><time>2026-04-25T13:05:03.957Z</time></trkpt><trkpt lat="46.20674" lon="12.9499383"><ele>155.0</ele><time>2026-04-25T13:05:04.958Z</time></trkpt><trkpt lat="46.2068117" lon="12.9501167"><ele>155.0</ele><time>2026-04-25T13:05:05.955Z</time></trkpt><trkpt lat="46.20689" lon="12.95032"><ele>153.66666666666666</ele><time>2026-04-25T13:05:06.956Z</time></trkpt><trkpt lat="46.2069633" lon="12.9505467"><ele>152.33333333333334</ele><time>2026-04-25T13:05:07.957Z</time></trkpt><trkpt lat="46.207045" lon="12.9507883"><ele>151.0</ele><time>2026-04-25T13:05:08.957Z</time></trkpt><trkpt lat="46.2071383" lon="12.951035"><ele>151.0</ele><time>2026-04-25T13:05:09.958Z</time></trkpt><trkpt lat="46.207245" lon="12.9512733"><ele>151.0</ele><time>2026-04-25T13:05:10.956Z</time></trkpt><trkpt lat="46.2073683" lon="12.9515033"><ele>151.0</ele><time>2026-04-25T13:05:11.957Z</time></trkpt><trkpt lat="46.2075067" lon="12.951715"><ele>149.0</ele><time>2026-04-25T13:05:12.956Z</time></trkpt><trkpt lat="46.2076567" lon="12.9519067"><ele>147.0</ele><time>2026-04-25T13:05:13.957Z</time></trkpt><trkpt lat="46.2078183" lon="12.9520667"><ele>145.0</ele><time>2026-04-25T13:05:14.958Z</time></trkpt><trkpt lat="46.2079933" lon="12.9522017"><ele>145.33333333333334</ele><time>2026-04-25T13:05:15.958Z</time></trkpt><trkpt lat="46.2081783" lon="12.9523117"><ele>145.66666666666666</ele><time>2026-04-25T13:05:16.959Z</time></trkpt><trkpt lat="46.2083783" lon="12.952405"><ele>146.0</ele><time>2026-04-25T13:05:17.957Z</time></trkpt><trkpt lat="46.208575" lon="12.95249"><ele>145.33333333333331</ele><time>2026-04-25T13:05:18.957Z</time></trkpt><trkpt lat="46.2087717" lon="12.9525667"><ele>144.66666666666666</ele><time>2026-04-25T13:05:19.957Z</time></trkpt><trkpt lat="46.2089583" lon="12.952645"><ele>144.0</ele><time>2026-04-25T13:05:20.957Z</time></trkpt><trkpt lat="46.209135" lon="12.9527283"><ele>145.33333333333334</ele><time>2026-04-25T13:05:21.957Z</time></trkpt><trkpt lat="46.2093067" lon="12.9528333"><ele>146.66666666666669</ele><time>2026-04-25T13:05:22.958Z</time></trkpt><trkpt lat="46.2094717" lon="12.9529567"><ele>148.0</ele><time>2026-04-25T13:05:23.958Z</time></trkpt><trkpt lat="46.20963" lon="12.9531"><ele>148.0</ele><time>2026-04-25T13:05:24.957Z</time></trkpt><trkpt lat="46.209785" lon="12.953255"><ele>148.0</ele><time>2026-04-25T13:05:25.958Z</time></trkpt><trkpt lat="46.2099317" lon="12.953425"><ele>148.0</ele><time>2026-04-25T13:05:26.957Z</time></trkpt><trkpt lat="46.210065" lon="12.953605"><ele>147.33333333333334</ele><time>2026-04-25T13:05:27.956Z</time></trkpt><trkpt lat="46.2101933" lon="12.9537867"><ele>146.66666666666666</ele><time>2026-04-25T13:05:28.957Z</time></trkpt><trkpt lat="46.2103167" lon="12.95397"><ele>146.0</ele><time>2026-04-25T13:05:29.956Z</time></trkpt><trkpt lat="46.2104433" lon="12.9541483"><ele>146.0</ele><time>2026-04-25T13:05:30.957Z</time></trkpt><trkpt lat="46.2105633" lon="12.9543233"><ele>146.0</ele><time>2026-04-25T13:05:31.957Z</time></trkpt><trkpt lat="46.2106817" lon="12.9544967"><ele>146.0</ele><time>2026-04-25T13:05:32.957Z</time></trkpt><trkpt lat="46.2107967" lon="12.954665"><ele>146.75</ele><time>2026-04-25T13:05:33.958Z</time></trkpt><trkpt lat="46.2109117" lon="12.954825"><ele>147.5</ele><time>2026-04-25T13:05:34.958Z</time></trkpt><trkpt lat="46.2110183" lon="12.954975"><ele>148.25</ele><time>2026-04-25T13:05:35.957Z</time></trkpt><trkpt lat="46.21112" lon="12.9551117"><ele>149.0</ele><time>2026-04-25T13:05:36.957Z</time></trkpt><trkpt lat="46.2112133" lon="12.95524"><ele>149.2</ele><time>2026-04-25T13:05:37.957Z</time></trkpt><trkpt lat="46.2113017" lon="12.955355"><ele>149.4</ele><time>2026-04-25T13:05:38.957Z</time></trkpt><trkpt lat="46.21138" lon="12.9554467"><ele>149.6</ele><time>2026-04-25T13:05:39.958Z</time></trkpt><trkpt lat="46.211445" lon="12.9555267"><ele>149.8</ele><time>2026-04-25T13:05:40.96Z</time></trkpt><trkpt lat="46.2114917" lon="12.9555933"><ele>150.0</ele><time>2026-04-25T13:05:41.957Z</time></trkpt><trkpt lat="46.2115217" lon="12.9557333"><ele>151.0</ele><time>2026-04-25T13:05:43.962Z</time></trkpt><trkpt lat="46.211505" lon="12.95591"><ele>152.0</ele><time>2026-04-25T13:05:45.958Z</time></trkpt><trkpt lat="46.2114833" lon="12.9560133"><ele>153.0</ele><time>2026-04-25T13:05:46.958Z</time></trkpt><trkpt lat="46.2114583" lon="12.9561217"><ele>154.0</ele><time>2026-04-25T13:05:47.956Z</time></trkpt><trkpt lat="46.2114417" lon="12.956235"><ele>155.0</ele><time>2026-04-25T13:05:48.957Z</time></trkpt><trkpt lat="46.2114333" lon="12.9563417"><ele>156.0</ele><time>2026-04-25T13:05:49.958Z</time></trkpt><trkpt lat="46.2114433" lon="12.9564367"><ele>159.0</ele><time>2026-04-25T13:05:50.956Z</time></trkpt><trkpt lat="46.21152" lon="12.9565633"><ele>162.0</ele><time>2026-04-25T13:05:52.957Z</time></trkpt><trkpt lat="46.2116317" lon="12.9565683"><ele>165.0</ele><time>2026-04-25T13:05:53.956Z</time></trkpt><trkpt lat="46.21174" lon="12.956575"><ele>168.0</ele><time>2026-04-25T13:05:54.957Z</time></trkpt><trkpt lat="46.2118733" lon="12.9565917"><ele>168.0</ele><time>2026-04-25T13:05:55.958Z</time></trkpt><trkpt lat="46.2120167" lon="12.9566133"><ele>168.0</ele><time>2026-04-25T13:05:56.957Z</time></trkpt><trkpt lat="46.212175" lon="12.9566367"><ele>168.0</ele><time>2026-04-25T13:05:57.957Z</time></trkpt><trkpt lat="46.21234" lon="12.9566667"><ele>177.0</ele><time>2026-04-25T13:05:58.956Z</time></trkpt><trkpt lat="46.21251" lon="12.9567083"><ele>186.0</ele><time>2026-04-25T13:05:59.957Z</time></trkpt><trkpt lat="46.2126717" lon="12.95677"><ele>195.0</ele><time>2026-04-25T13:06:00.956Z</time></trkpt><trkpt lat="46.21283" lon="12.9568633"><ele>195.0</ele><time>2026-04-25T13:06:01.956Z</time></trkpt><trkpt lat="46.2129833" lon="12.9569883"><ele>195.0</ele><time>2026-04-25T13:06:02.956Z</time></trkpt><trkpt lat="46.2131267" lon="12.9571367"><ele>195.0</ele><time>2026-04-25T13:06:03.957Z</time></trkpt><trkpt lat="46.2132617" lon="12.957305"><ele>195.66666666666669</ele><time>2026-04-25T13:06:04.957Z</time></trkpt><trkpt lat="46.2134" lon="12.9574833"><ele>196.33333333333334</ele><time>2026-04-25T13:06:05.957Z</time></trkpt><trkpt lat="46.2135367" lon="12.9576667"><ele>197.0</ele><time>2026-04-25T13:06:06.955Z</time></trkpt><trkpt lat="46.213665" lon="12.9578683"><ele>197.0</ele><time>2026-04-25T13:06:07.957Z</time></trkpt><trkpt lat="46.21379" lon="12.9580883"><ele>197.0</ele><time>2026-04-25T13:06:08.958Z</time></trkpt><trkpt lat="46.2139033" lon="12.9583133"><ele>197.0</ele><time>2026-04-25T13:06:09.958Z</time></trkpt><trkpt lat="46.21401" lon="12.958535"><ele>189.33333333333334</ele><time>2026-04-25T13:06:10.958Z</time></trkpt><trkpt lat="46.21411" lon="12.95874"><ele>181.66666666666669</ele><time>2026-04-25T13:06:11.96Z</time></trkpt><trkpt lat="46.2142067" lon="12.9589333"><ele>174.0</ele><time>2026-04-25T13:06:12.958Z</time></trkpt><trkpt lat="46.2142983" lon="12.9591133"><ele>179.25</ele><time>2026-04-25T13:06:13.956Z</time></trkpt><trkpt lat="46.21438" lon="12.9592767"><ele>184.5</ele><time>2026-04-25T13:06:14.957Z</time></trkpt><trkpt lat="46.214455" lon="12.95943"><ele>189.75</ele><time>2026-04-25T13:06:15.957Z</time></trkpt><trkpt lat="46.2145317" lon="12.9595667"><ele>195.0</ele><time>2026-04-25T13:06:16.958Z</time></trkpt><trkpt lat="46.2146017" lon="12.95969"><ele>195.0</ele><time>2026-04-25T13:06:17.957Z</time></trkpt><trkpt lat="46.2146733" lon="12.959795"><ele>195.0</ele><time>2026-04-25T13:06:18.957Z</time></trkpt><trkpt lat="46.2147483" lon="12.9598783"><ele>195.0</ele><time>2026-04-25T13:06:19.957Z</time></trkpt><trkpt lat="46.214835" lon="12.9599317"><ele>195.0</ele><time>2026-04-25T13:06:20.958Z</time></trkpt><trkpt lat="46.2149433" lon="12.9599567"><ele>195.0</ele><time>2026-04-25T13:06:21.957Z</time></trkpt><trkpt lat="46.2150567" lon="12.9599617"><ele>187.75</ele><time>2026-04-25T13:06:22.958Z</time></trkpt><trkpt lat="46.215175" lon="12.9599483"><ele>180.5</ele><time>2026-04-25T13:06:23.957Z</time></trkpt><trkpt lat="46.2153017" lon="12.9599283"><ele>173.25</ele><time>2026-04-25T13:06:24.957Z</time></trkpt><trkpt lat="46.21544" lon="12.95991"><ele>166.0</ele><time>2026-04-25T13:06:25.956Z</time></trkpt><trkpt lat="46.2155867" lon="12.95989"><ele>166.33333333333334</ele><time>2026-04-25T13:06:26.957Z</time></trkpt><trkpt lat="46.21574" lon="12.95987"><ele>166.66666666666666</ele><time>2026-04-25T13:06:27.957Z</time></trkpt><trkpt lat="46.2159033" lon="12.959845"><ele>167.0</ele><time>2026-04-25T13:06:28.958Z</time></trkpt><trkpt lat="46.2160683" lon="12.9598283"><ele>167.0</ele><time>2026-04-25T13:06:29.957Z</time></trkpt><trkpt lat="46.21624" lon="12.9598083"><ele>167.0</ele><time>2026-04-25T13:06:30.958Z</time></trkpt><trkpt lat="46.2164183" lon="12.9597883"><ele>167.0</ele><time>2026-04-25T13:06:31.958Z</time></trkpt><trkpt lat="46.2165983" lon="12.9597667"><ele>168.33333333333331</ele><time>2026-04-25T13:06:32.957Z</time></trkpt><trkpt lat="46.2167817" lon="12.959745"><ele>169.66666666666666</ele><time>2026-04-25T13:06:33.958Z</time></trkpt><trkpt lat="46.21697" lon="12.9597233"><ele>171.0</ele><time>2026-04-25T13:06:34.956Z</time></trkpt><trkpt lat="46.2171617" lon="12.9597033"><ele>172.66666666666666</ele><time>2026-04-25T13:06:35.957Z</time></trkpt><trkpt lat="46.2173517" lon="12.9596817"><ele>174.33333333333331</ele><time>2026-04-25T13:06:36.957Z</time></trkpt><trkpt lat="46.2175317" lon="12.9596567"><ele>176.0</ele><time>2026-04-25T13:06:37.957Z</time></trkpt><trkpt lat="46.2176967" lon="12.9596217"><ele>176.0</ele><time>2026-04-25T13:06:38.956Z</time></trkpt><trkpt lat="46.2178533" lon="12.95956"><ele>176.0</ele><time>2026-04-25T13:06:39.957Z</time></trkpt><trkpt lat="46.2180117" lon="12.9594683"><ele>176.0</ele><time>2026-04-25T13:06:40.956Z</time></trkpt><trkpt lat="46.2181567" lon="12.9593567"><ele>174.25</ele><time>2026-04-25T13:06:41.957Z</time></trkpt><trkpt lat="46.2182933" lon="12.95926"><ele>172.5</ele><time>2026-04-25T13:06:42.957Z</time></trkpt><trkpt lat="46.2184317" lon="12.9591967"><ele>170.75</ele><time>2026-04-25T13:06:43.956Z</time></trkpt><trkpt lat="46.2185817" lon="12.95916"><ele>169.0</ele><time>2026-04-25T13:06:44.957Z</time></trkpt><trkpt lat="46.2187483" lon="12.9591267"><ele>169.0</ele><time>2026-04-25T13:06:45.957Z</time></trkpt><trkpt lat="46.218925" lon="12.9590767"><ele>169.0</ele><time>2026-04-25T13:06:46.958Z</time></trkpt><trkpt lat="46.2191117" lon="12.9590333"><ele>169.0</ele><time>2026-04-25T13:06:47.958Z</time></trkpt><trkpt lat="46.219305" lon="12.9589983"><ele>170.0</ele><time>2026-04-25T13:06:48.957Z</time></trkpt><trkpt lat="46.2195033" lon="12.95896"><ele>171.0</ele><time>2026-04-25T13:06:49.957Z</time></trkpt><trkpt lat="46.21971" lon="12.95892"><ele>172.0</ele><time>2026-04-25T13:06:50.958Z</time></trkpt><trkpt lat="46.2199167" lon="12.9588833"><ele>172.33333333333334</ele><time>2026-04-25T13:06:51.957Z</time></trkpt><trkpt lat="46.220125" lon="12.9588433"><ele>172.66666666666666</ele><time>2026-04-25T13:06:52.958Z</time></trkpt><trkpt lat="46.220335" lon="12.9588033"><ele>173.0</ele><time>2026-04-25T13:06:53.958Z</time></trkpt><trkpt lat="46.22054" lon="12.9587683"><ele>176.33333333333331</ele><time>2026-04-25T13:06:54.957Z</time></trkpt><trkpt lat="46.2207367" lon="12.9587317"><ele>179.66666666666666</ele><time>2026-04-25T13:06:55.958Z</time></trkpt><trkpt lat="46.22093" lon="12.9586917"><ele>183.0</ele><time>2026-04-25T13:06:56.957Z</time></trkpt><trkpt lat="46.2211167" lon="12.9586567"><ele>183.0</ele><time>2026-04-25T13:06:57.958Z</time></trkpt><trkpt lat="46.22129" lon="12.9586233"><ele>183.0</ele><time>2026-04-25T13:06:58.958Z</time></trkpt><trkpt lat="46.2214417" lon="12.9585983"><ele>183.0</ele><time>2026-04-25T13:06:59.958Z</time></trkpt><trkpt lat="46.2215783" lon="12.9585883"><ele>182.0</ele><time>2026-04-25T13:07:00.957Z</time></trkpt><trkpt lat="46.2216817" lon="12.9586"><ele>181.0</ele><time>2026-04-25T13:07:01.957Z</time></trkpt><trkpt lat="46.2217733" lon="12.9586517"><ele>180.0</ele><time>2026-04-25T13:07:02.957Z</time></trkpt><trkpt lat="46.2218467" lon="12.95875"><ele>179.0</ele><time>2026-04-25T13:07:03.958Z</time></trkpt><trkpt lat="46.2219033" lon="12.9588933"><ele>178.0</ele><time>2026-04-25T13:07:04.957Z</time></trkpt><trkpt lat="46.22194" lon="12.959095"><ele>181.66666666666669</ele><time>2026-04-25T13:07:05.956Z</time></trkpt><trkpt lat="46.22198" lon="12.9593217"><ele>185.33333333333334</ele><time>2026-04-25T13:07:06.957Z</time></trkpt><trkpt lat="46.2220233" lon="12.9595667"><ele>189.0</ele><time>2026-04-25T13:07:07.958Z</time></trkpt><trkpt lat="46.2220667" lon="12.9598133"><ele>191.25</ele><time>2026-04-25T13:07:08.957Z</time></trkpt><trkpt lat="46.2220933" lon="12.9600383"><ele>193.5</ele><time>2026-04-25T13:07:09.958Z</time></trkpt><trkpt lat="46.222115" lon="12.9602167"><ele>195.75</ele><time>2026-04-25T13:07:10.958Z</time></trkpt><trkpt lat="46.2221467" lon="12.9603467"><ele>198.0</ele><time>2026-04-25T13:07:11.956Z</time></trkpt><trkpt lat="46.2222033" lon="12.9604233"><ele>198.0</ele><time>2026-04-25T13:07:12.957Z</time></trkpt><trkpt lat="46.2223017" lon="12.960335"><ele>198.0</ele><time>2026-04-25T13:07:14.957Z</time></trkpt><trkpt lat="46.2223117" lon="12.960215"><ele>198.0</ele><time>2026-04-25T13:07:15.957Z</time></trkpt><trkpt lat="46.2222817" lon="12.9600567"><ele>198.0</ele><time>2026-04-25T13:07:16.957Z</time></trkpt><trkpt lat="46.2222417" lon="12.9598683"><ele>198.0</ele><time>2026-04-25T13:07:17.958Z</time></trkpt><trkpt lat="46.2222417" lon="12.9596633"><ele>198.25</ele><time>2026-04-25T13:07:18.957Z</time></trkpt><trkpt lat="46.222275" lon="12.9594467"><ele>198.5</ele><time>2026-04-25T13:07:19.957Z</time></trkpt><trkpt lat="46.222335" lon="12.959255"><ele>198.75</ele><time>2026-04-25T13:07:20.957Z</time></trkpt><trkpt lat="46.22239" lon="12.95911"><ele>199.0</ele><time>2026-04-25T13:07:21.958Z</time></trkpt><trkpt lat="46.2224433" lon="12.9590283"><ele>199.0</ele><time>2026-04-25T13:07:22.958Z</time></trkpt><trkpt lat="46.2225267" lon="12.959085"><ele>199.0</ele><time>2026-04-25T13:07:24.957Z</time></trkpt><trkpt lat="46.2224567" lon="12.9592983"><ele>199.0</ele><time>2026-04-25T13:07:26.957Z</time></trkpt><trkpt lat="46.2224017" lon="12.9594567"><ele>199.0</ele><time>2026-04-25T13:07:27.958Z</time></trkpt><trkpt lat="46.222375" lon="12.959635"><ele>199.0</ele><time>2026-04-25T13:07:28.957Z</time></trkpt><trkpt lat="46.2223917" lon="12.95985"><ele>199.0</ele><time>2026-04-25T13:07:29.957Z</time></trkpt><trkpt lat="46.222435" lon="12.9601033"><ele>199.0</ele><time>2026-04-25T13:07:30.956Z</time></trkpt><trkpt lat="46.222475" lon="12.96039"><ele>199.66666666666666</ele><time>2026-04-25T13:07:31.957Z</time></trkpt><trkpt lat="46.2225017" lon="12.96069"><ele>200.33333333333331</ele><time>2026-04-25T13:07:32.957Z</time></trkpt><trkpt lat="46.2225183" lon="12.9609983"><ele>201.0</ele><time>2026-04-25T13:07:33.958Z</time></trkpt><trkpt lat="46.2225367" lon="12.96131"><ele>203.0</ele><time>2026-04-25T13:07:34.958Z</time></trkpt><trkpt lat="46.22256" lon="12.961615"><ele>205.0</ele><time>2026-04-25T13:07:35.956Z</time></trkpt><trkpt lat="46.2225967" lon="12.9618983"><ele>207.0</ele><time>2026-04-25T13:07:36.957Z</time></trkpt><trkpt lat="46.222655" lon="12.9621517"><ele>209.33333333333331</ele><time>2026-04-25T13:07:37.956Z</time></trkpt><trkpt lat="46.22272" lon="12.9623883"><ele>211.66666666666666</ele><time>2026-04-25T13:07:38.957Z</time></trkpt><trkpt lat="46.2227883" lon="12.9625917"><ele>214.0</ele><time>2026-04-25T13:07:39.958Z</time></trkpt><trkpt lat="46.2228483" lon="12.9627617"><ele>215.16666666666666</ele><time>2026-04-25T13:07:40.958Z</time></trkpt><trkpt lat="46.2229033" lon="12.9628883"><ele>216.33333333333331</ele><time>2026-04-25T13:07:41.957Z</time></trkpt><trkpt lat="46.2229633" lon="12.9629717"><ele>217.5</ele><time>2026-04-25T13:07:42.958Z</time></trkpt><trkpt lat="46.2230267" lon="12.962995"><ele>218.66666666666669</ele><time>2026-04-25T13:07:43.958Z</time></trkpt><trkpt lat="46.2230817" lon="12.9628783"><ele>219.83333333333334</ele><time>2026-04-25T13:07:45.957Z</time></trkpt><trkpt lat="46.2230733" lon="12.9627817"><ele>221.0</ele><time>2026-04-25T13:07:46.957Z</time></trkpt><trkpt lat="46.223045" lon="12.962665"><ele>221.0</ele><time>2026-04-25T13:07:47.959Z</time></trkpt><trkpt lat="46.223015" lon="12.9625433"><ele>221.00000000000003</ele><time>2026-04-25T13:07:48.958Z</time></trkpt><trkpt lat="46.2229833" lon="12.9624167"><ele>221.00000000000003</ele><time>2026-04-25T13:07:49.957Z</time></trkpt><trkpt lat="46.22296" lon="12.962275"><ele>221.0</ele><time>2026-04-25T13:07:50.957Z</time></trkpt><trkpt lat="46.2229467" lon="12.9621267"><ele>221.0</ele><time>2026-04-25T13:07:51.957Z</time></trkpt><trkpt lat="46.22294" lon="12.96198"><ele>219.60000000000002</ele><time>2026-04-25T13:07:52.959Z</time></trkpt><trkpt lat="46.2229383" lon="12.9618317"><ele>218.20000000000002</ele><time>2026-04-25T13:07:53.958Z</time></trkpt><trkpt lat="46.2229433" lon="12.9616817"><ele>216.79999999999998</ele><time>2026-04-25T13:07:54.957Z</time></trkpt><trkpt lat="46.22295" lon="12.9615283"><ele>215.39999999999998</ele><time>2026-04-25T13:07:55.957Z</time></trkpt><trkpt lat="46.22296" lon="12.9613783"><ele>214.0</ele><time>2026-04-25T13:07:56.957Z</time></trkpt><trkpt lat="46.2229783" lon="12.9612283"><ele>212.25</ele><time>2026-04-25T13:07:57.957Z</time></trkpt><trkpt lat="46.2230167" lon="12.96108"><ele>210.5</ele><time>2026-04-25T13:07:58.958Z</time></trkpt><trkpt lat="46.2230483" lon="12.960915"><ele>208.75</ele><time>2026-04-25T13:07:59.957Z</time></trkpt><trkpt lat="46.2230617" lon="12.9607517"><ele>207.0</ele><time>2026-04-25T13:08:00.957Z</time></trkpt><trkpt lat="46.2230633" lon="12.96059"><ele>205.8</ele><time>2026-04-25T13:08:01.958Z</time></trkpt><trkpt lat="46.223055" lon="12.9604283"><ele>204.6</ele><time>2026-04-25T13:08:02.957Z</time></trkpt><trkpt lat="46.2230467" lon="12.9602717"><ele>203.4</ele><time>2026-04-25T13:08:03.957Z</time></trkpt><trkpt lat="46.2230367" lon="12.9601167"><ele>202.20000000000002</ele><time>2026-04-25T13:08:04.958Z</time></trkpt><trkpt lat="46.2230467" lon="12.9599583"><ele>201.0</ele><time>2026-04-25T13:08:05.958Z</time></trkpt><trkpt lat="46.2230833" lon="12.9598033"><ele>200.60000000000002</ele><time>2026-04-25T13:08:06.957Z</time></trkpt><trkpt lat="46.2231383" lon="12.9596617"><ele>200.2</ele><time>2026-04-25T13:08:07.957Z</time></trkpt><trkpt lat="46.2232067" lon="12.9595467"><ele>199.8</ele><time>2026-04-25T13:08:08.957Z</time></trkpt><trkpt lat="46.2232883" lon="12.9594567"><ele>199.39999999999998</ele><time>2026-04-25T13:08:09.958Z</time></trkpt><trkpt lat="46.22338" lon="12.9593967"><ele>199.0</ele><time>2026-04-25T13:08:10.956Z</time></trkpt><trkpt lat="46.223475" lon="12.9593817"><ele>204.79999999999998</ele><time>2026-04-25T13:08:11.958Z</time></trkpt><trkpt lat="46.2235683" lon="12.9594167"><ele>210.6</ele><time>2026-04-25T13:08:12.957Z</time></trkpt><trkpt lat="46.2236433" lon="12.9594767"><ele>216.4</ele><time>2026-04-25T13:08:13.957Z</time></trkpt><trkpt lat="46.2237033" lon="12.959555"><ele>222.2</ele><time>2026-04-25T13:08:14.956Z</time></trkpt><trkpt lat="46.2237433" lon="12.9597017"><ele>228.0</ele><time>2026-04-25T13:08:16.956Z</time></trkpt><trkpt lat="46.2236883" lon="12.9597967"><ele>228.0</ele><time>2026-04-25T13:08:19.957Z</time></trkpt><trkpt lat="46.2236083" lon="12.95977"><ele>228.0</ele><time>2026-04-25T13:08:22.957Z</time></trkpt><trkpt lat="46.2236767" lon="12.9596833"><ele>228.0</ele><time>2026-04-25T13:09:49.958Z</time></trkpt><trkpt lat="46.22374" lon="12.9596717"><ele>228.0</ele><time>2026-04-25T13:15:58.957Z</time></trkpt><trkpt lat="46.22379" lon="12.9597317"><ele>228.0</ele><time>2026-04-25T13:16:00.957Z</time></trkpt><trkpt lat="46.2238483" lon="12.959855"><ele>228.0</ele><time>2026-04-25T13:16:02.955Z</time></trkpt><trkpt lat="46.2238867" lon="12.9599383"><ele>228.2</ele><time>2026-04-25T13:16:03.958Z</time></trkpt><trkpt lat="46.223925" lon="12.9600417"><ele>228.4</ele><time>2026-04-25T13:16:04.958Z</time></trkpt><trkpt lat="46.2239717" lon="12.9601533"><ele>228.59999999999997</ele><time>2026-04-25T13:16:05.956Z</time></trkpt><trkpt lat="46.224025" lon="12.9602767"><ele>228.79999999999998</ele><time>2026-04-25T13:16:06.957Z</time></trkpt><trkpt lat="46.2240833" lon="12.9604233"><ele>229.0</ele><time>2026-04-25T13:16:07.958Z</time></trkpt><trkpt lat="46.224145" lon="12.9605783"><ele>231.5</ele><time>2026-04-25T13:16:08.957Z</time></trkpt><trkpt lat="46.2242117" lon="12.9607467"><ele>234.0</ele><time>2026-04-25T13:16:09.957Z</time></trkpt><trkpt lat="46.2242767" lon="12.96092"><ele>236.5</ele><time>2026-04-25T13:16:10.957Z</time></trkpt><trkpt lat="46.22434" lon="12.9611"><ele>239.0</ele><time>2026-04-25T13:16:11.957Z</time></trkpt><trkpt lat="46.224405" lon="12.96128"><ele>239.25</ele><time>2026-04-25T13:16:12.957Z</time></trkpt><trkpt lat="46.2244633" lon="12.9614567"><ele>239.5</ele><time>2026-04-25T13:16:13.957Z</time></trkpt><trkpt lat="46.2245217" lon="12.9616383"><ele>239.75</ele><time>2026-04-25T13:16:14.956Z</time></trkpt><trkpt lat="46.2245783" lon="12.9618217"><ele>240.0</ele><time>2026-04-25T13:16:15.957Z</time></trkpt><trkpt lat="46.2246317" lon="12.9619983"><ele>240.5</ele><time>2026-04-25T13:16:16.957Z</time></trkpt><trkpt lat="46.2246833" lon="12.96217"><ele>241.0</ele><time>2026-04-25T13:16:17.956Z</time></trkpt><trkpt lat="46.2247317" lon="12.9623383"><ele>241.5</ele><time>2026-04-25T13:16:18.957Z</time></trkpt><trkpt lat="46.2247783" lon="12.9625017"><ele>242.0</ele><time>2026-04-25T13:16:19.958Z</time></trkpt><trkpt lat="46.22481" lon="12.9626717"><ele>242.25</ele><time>2026-04-25T13:16:20.957Z</time></trkpt><trkpt lat="46.2248217" lon="12.9628517"><ele>242.5</ele><time>2026-04-25T13:16:21.958Z</time></trkpt><trkpt lat="46.22482" lon="12.963045"><ele>242.75</ele><time>2026-04-25T13:16:22.958Z</time></trkpt><trkpt lat="46.2248117" lon="12.96325"><ele>243.0</ele><time>2026-04-25T13:16:23.957Z</time></trkpt><trkpt lat="46.2248033" lon="12.9634667"><ele>244.0</ele><time>2026-04-25T13:16:24.956Z</time></trkpt><trkpt lat="46.224795" lon="12.9636883"><ele>245.0</ele><time>2026-04-25T13:16:25.958Z</time></trkpt><trkpt lat="46.22479" lon="12.9639167"><ele>246.0</ele><time>2026-04-25T13:16:26.957Z</time></trkpt><trkpt lat="46.2247883" lon="12.9641467"><ele>247.66666666666669</ele><time>2026-04-25T13:16:27.958Z</time></trkpt><trkpt lat="46.224785" lon="12.96438"><ele>249.33333333333334</ele><time>2026-04-25T13:16:28.958Z</time></trkpt><trkpt lat="46.2247867" lon="12.9646117"><ele>251.0</ele><time>2026-04-25T13:16:29.956Z</time></trkpt><trkpt lat="46.2247883" lon="12.96484"><ele>251.5</ele><time>2026-04-25T13:16:30.959Z</time></trkpt><trkpt lat="46.2247917" lon="12.9650617"><ele>252.0</ele><time>2026-04-25T13:16:31.957Z</time></trkpt><trkpt lat="46.2247933" lon="12.965275"><ele>252.5</ele><time>2026-04-25T13:16:32.957Z</time></trkpt><trkpt lat="46.2247917" lon="12.9654783"><ele>253.0</ele><time>2026-04-25T13:16:33.957Z</time></trkpt><trkpt lat="46.2247917" lon="12.96567"><ele>253.0</ele><time>2026-04-25T13:16:34.957Z</time></trkpt><trkpt lat="46.2247933" lon="12.9658433"><ele>253.0</ele><time>2026-04-25T13:16:35.957Z</time></trkpt><trkpt lat="46.2247917" lon="12.9659933"><ele>253.0</ele><time>2026-04-25T13:16:36.957Z</time></trkpt><trkpt lat="46.224785" lon="12.96612"><ele>253.0</ele><time>2026-04-25T13:16:37.957Z</time></trkpt><trkpt lat="46.2247633" lon="12.966235"><ele>253.0</ele><time>2026-04-25T13:16:38.957Z</time></trkpt><trkpt lat="46.22473" lon="12.966335"><ele>253.2</ele><time>2026-04-25T13:16:39.957Z</time></trkpt><trkpt lat="46.224675" lon="12.966425"><ele>253.4</ele><time>2026-04-25T13:16:40.958Z</time></trkpt><trkpt lat="46.2245933" lon="12.9665033"><ele>253.59999999999997</ele><time>2026-04-25T13:16:41.957Z</time></trkpt><trkpt lat="46.2244983" lon="12.9665817"><ele>253.79999999999998</ele><time>2026-04-25T13:16:42.958Z</time></trkpt><trkpt lat="46.224405" lon="12.96667"><ele>254.0</ele><time>2026-04-25T13:16:43.958Z</time></trkpt><trkpt lat="46.2243233" lon="12.9667617"><ele>254.79999999999998</ele><time>2026-04-25T13:16:44.957Z</time></trkpt><trkpt lat="46.224245" lon="12.966855"><ele>255.59999999999997</ele><time>2026-04-25T13:16:45.957Z</time></trkpt><trkpt lat="46.224185" lon="12.9669683"><ele>256.4</ele><time>2026-04-25T13:16:46.958Z</time></trkpt><trkpt lat="46.2241367" lon="12.9671033"><ele>257.2</ele><time>2026-04-25T13:16:47.958Z</time></trkpt><trkpt lat="46.2241" lon="12.9672617"><ele>258.0</ele><time>2026-04-25T13:16:48.957Z</time></trkpt><trkpt lat="46.22407" lon="12.96743"><ele>257.25</ele><time>2026-04-25T13:16:49.958Z</time></trkpt><trkpt lat="46.2240383" lon="12.9676067"><ele>256.5</ele><time>2026-04-25T13:16:50.956Z</time></trkpt><trkpt lat="46.2240067" lon="12.967785"><ele>255.75</ele><time>2026-04-25T13:16:51.956Z</time></trkpt><trkpt lat="46.223975" lon="12.9679567"><ele>255.0</ele><time>2026-04-25T13:16:52.959Z</time></trkpt><trkpt lat="46.2239433" lon="12.96812"><ele>255.0</ele><time>2026-04-25T13:16:53.955Z</time></trkpt><trkpt lat="46.2239117" lon="12.9682783"><ele>255.0</ele><time>2026-04-25T13:16:54.957Z</time></trkpt><trkpt lat="46.2238867" lon="12.9684433"><ele>255.0</ele><time>2026-04-25T13:16:55.956Z</time></trkpt><trkpt lat="46.2238617" lon="12.9686033"><ele>255.0</ele><time>2026-04-25T13:16:56.956Z</time></trkpt><trkpt lat="46.2238333" lon="12.9687583"><ele>254.6</ele><time>2026-04-25T13:16:57.956Z</time></trkpt><trkpt lat="46.223815" lon="12.9689133"><ele>254.2</ele><time>2026-04-25T13:16:58.956Z</time></trkpt><trkpt lat="46.223785" lon="12.9690633"><ele>253.8</ele><time>2026-04-25T13:16:59.956Z</time></trkpt><trkpt lat="46.2237583" lon="12.9692183"><ele>253.4</ele><time>2026-04-25T13:17:00.955Z</time></trkpt><trkpt lat="46.2237317" lon="12.96938"><ele>253.0</ele><time>2026-04-25T13:17:01.957Z</time></trkpt><trkpt lat="46.223705" lon="12.96954"><ele>253.0</ele><time>2026-04-25T13:17:02.956Z</time></trkpt><trkpt lat="46.2236817" lon="12.969695"><ele>253.0</ele><time>2026-04-25T13:17:03.957Z</time></trkpt><trkpt lat="46.2236567" lon="12.9698467"><ele>253.0</ele><time>2026-04-25T13:17:04.957Z</time></trkpt><trkpt lat="46.2236333" lon="12.9699933"><ele>253.0</ele><time>2026-04-25T13:17:05.956Z</time></trkpt><trkpt lat="46.2236117" lon="12.970135"><ele>253.0</ele><time>2026-04-25T13:17:06.956Z</time></trkpt><trkpt lat="46.2235967" lon="12.9702733"><ele>253.0</ele><time>2026-04-25T13:17:07.957Z</time></trkpt><trkpt lat="46.2235917" lon="12.9704167"><ele>253.0</ele><time>2026-04-25T13:17:08.956Z</time></trkpt><trkpt lat="46.2235967" lon="12.97056"><ele>253.0</ele><time>2026-04-25T13:17:09.956Z</time></trkpt><trkpt lat="46.2236067" lon="12.9707067"><ele>253.0</ele><time>2026-04-25T13:17:10.957Z</time></trkpt><trkpt lat="46.223615" lon="12.97085"><ele>253.0</ele><time>2026-04-25T13:17:11.956Z</time></trkpt><trkpt lat="46.22362" lon="12.9709917"><ele>253.0</ele><time>2026-04-25T13:17:12.955Z</time></trkpt><trkpt lat="46.2236317" lon="12.971135"><ele>253.0</ele><time>2026-04-25T13:17:13.957Z</time></trkpt><trkpt lat="46.22364" lon="12.971275"><ele>253.0</ele><time>2026-04-25T13:17:14.955Z</time></trkpt><trkpt lat="46.2236517" lon="12.9714117"><ele>253.0</ele><time>2026-04-25T13:17:15.958Z</time></trkpt><trkpt lat="46.22366" lon="12.9715417"><ele>253.0</ele><time>2026-04-25T13:17:16.957Z</time></trkpt><trkpt lat="46.2236683" lon="12.9716667"><ele>253.83333333333331</ele><time>2026-04-25T13:17:17.956Z</time></trkpt><trkpt lat="46.2236717" lon="12.9717917"><ele>254.66666666666666</ele><time>2026-04-25T13:17:18.957Z</time></trkpt><trkpt lat="46.223675" lon="12.9719183"><ele>255.5</ele><time>2026-04-25T13:17:19.957Z</time></trkpt><trkpt lat="46.2236817" lon="12.9720467"><ele>256.3333333333333</ele><time>2026-04-25T13:17:20.955Z</time></trkpt><trkpt lat="46.2236933" lon="12.9721783"><ele>257.1666666666667</ele><time>2026-04-25T13:17:21.957Z</time></trkpt><trkpt lat="46.22371" lon="12.972305"><ele>258.0</ele><time>2026-04-25T13:17:22.958Z</time></trkpt><trkpt lat="46.2237383" lon="12.9724217"><ele>258.8333333333333</ele><time>2026-04-25T13:17:23.956Z</time></trkpt><trkpt lat="46.2237683" lon="12.97253"><ele>259.6666666666667</ele><time>2026-04-25T13:17:24.956Z</time></trkpt><trkpt lat="46.2238033" lon="12.9726333"><ele>260.5</ele><time>2026-04-25T13:17:25.957Z</time></trkpt><trkpt lat="46.2238417" lon="12.9727317"><ele>261.33333333333337</ele><time>2026-04-25T13:17:26.956Z</time></trkpt><trkpt lat="46.223885" lon="12.972825"><ele>262.1666666666667</ele><time>2026-04-25T13:17:27.956Z</time></trkpt><trkpt lat="46.2239283" lon="12.97292"><ele>263.0</ele><time>2026-04-25T13:17:28.957Z</time></trkpt><trkpt lat="46.2239633" lon="12.9730183"><ele>263.1666666666667</ele><time>2026-04-25T13:17:29.955Z</time></trkpt><trkpt lat="46.22399" lon="12.9731233"><ele>263.33333333333337</ele><time>2026-04-25T13:17:30.956Z</time></trkpt><trkpt lat="46.2240017" lon="12.9732333"><ele>263.5</ele><time>2026-04-25T13:17:31.957Z</time></trkpt><trkpt lat="46.2239967" lon="12.9733467"><ele>263.6666666666667</ele><time>2026-04-25T13:17:32.959Z</time></trkpt><trkpt lat="46.2239783" lon="12.9734583"><ele>263.8333333333333</ele><time>2026-04-25T13:17:33.956Z</time></trkpt><trkpt lat="46.2239533" lon="12.9735667"><ele>264.0</ele><time>2026-04-25T13:17:34.957Z</time></trkpt><trkpt lat="46.223925" lon="12.9736733"><ele>264.0</ele><time>2026-04-25T13:17:35.956Z</time></trkpt><trkpt lat="46.223905" lon="12.97378"><ele>264.0</ele><time>2026-04-25T13:17:36.956Z</time></trkpt><trkpt lat="46.22388" lon="12.9738783"><ele>264.0</ele><time>2026-04-25T13:17:37.955Z</time></trkpt><trkpt lat="46.223855" lon="12.9739733"><ele>264.0</ele><time>2026-04-25T13:17:38.956Z</time></trkpt><trkpt lat="46.22382" lon="12.974135"><ele>264.0</ele><time>2026-04-25T13:17:40.957Z</time></trkpt><trkpt lat="46.22379" lon="12.9742333"><ele>264.0</ele><time>2026-04-25T13:17:42.956Z</time></trkpt><trkpt lat="46.2238" lon="12.9743517"><ele>263.4</ele><time>2026-04-25T13:17:45.956Z</time></trkpt><trkpt lat="46.2238617" lon="12.974465"><ele>262.79999999999995</ele><time>2026-04-25T13:17:48.956Z</time></trkpt><trkpt lat="46.223935" lon="12.9745417"><ele>262.20000000000005</ele><time>2026-04-25T13:17:50.955Z</time></trkpt><trkpt lat="46.2239867" lon="12.9746567"><ele>261.6</ele><time>2026-04-25T13:17:52.956Z</time></trkpt><trkpt lat="46.224" lon="12.974855"><ele>261.0</ele><time>2026-04-25T13:17:54.957Z</time></trkpt><trkpt lat="46.2239883" lon="12.9749683"><ele>259.6666666666667</ele><time>2026-04-25T13:17:55.957Z</time></trkpt><trkpt lat="46.22398" lon="12.9750783"><ele>258.3333333333333</ele><time>2026-04-25T13:17:56.956Z</time></trkpt><trkpt lat="46.22397" lon="12.975195"><ele>257.0</ele><time>2026-04-25T13:17:57.956Z</time></trkpt><trkpt lat="46.2239617" lon="12.9753167"><ele>255.66666666666666</ele><time>2026-04-25T13:17:58.957Z</time></trkpt><trkpt lat="46.2239467" lon="12.9754433"><ele>254.33333333333331</ele><time>2026-04-25T13:17:59.957Z</time></trkpt><trkpt lat="46.22392" lon="12.97557"><ele>253.0</ele><time>2026-04-25T13:18:00.957Z</time></trkpt><trkpt lat="46.2238933" lon="12.9757"><ele>253.0</ele><time>2026-04-25T13:18:01.957Z</time></trkpt><trkpt lat="46.2238617" lon="12.9758333"><ele>253.0</ele><time>2026-04-25T13:18:02.956Z</time></trkpt><trkpt lat="46.2238367" lon="12.9759767"><ele>253.0</ele><time>2026-04-25T13:18:03.956Z</time></trkpt><trkpt lat="46.2238167" lon="12.97612"><ele>253.0</ele><time>2026-04-25T13:18:04.957Z</time></trkpt><trkpt lat="46.2238017" lon="12.97626"><ele>253.0</ele><time>2026-04-25T13:18:05.956Z</time></trkpt><trkpt lat="46.2237917" lon="12.9763917"><ele>253.16666666666666</ele><time>2026-04-25T13:18:06.956Z</time></trkpt><trkpt lat="46.2237817" lon="12.9765217"><ele>253.33333333333331</ele><time>2026-04-25T13:18:07.957Z</time></trkpt><trkpt lat="46.22377" lon="12.9766483"><ele>253.5</ele><time>2026-04-25T13:18:08.955Z</time></trkpt><trkpt lat="46.223755" lon="12.9767683"><ele>253.66666666666669</ele><time>2026-04-25T13:18:09.957Z</time></trkpt><trkpt lat="46.2237333" lon="12.9768817"><ele>253.83333333333334</ele><time>2026-04-25T13:18:10.957Z</time></trkpt><trkpt lat="46.22371" lon="12.9769967"><ele>254.0</ele><time>2026-04-25T13:18:11.956Z</time></trkpt><trkpt lat="46.2236833" lon="12.977105"><ele>254.0</ele><time>2026-04-25T13:18:12.956Z</time></trkpt><trkpt lat="46.2236717" lon="12.9772133"><ele>254.0</ele><time>2026-04-25T13:18:13.956Z</time></trkpt><trkpt lat="46.2236767" lon="12.97732"><ele>254.0</ele><time>2026-04-25T13:18:14.956Z</time></trkpt><trkpt lat="46.223695" lon="12.9774217"><ele>254.0</ele><time>2026-04-25T13:18:15.957Z</time></trkpt><trkpt lat="46.2237183" lon="12.977525"><ele>254.0</ele><time>2026-04-25T13:18:16.957Z</time></trkpt><trkpt lat="46.2237333" lon="12.9776317"><ele>254.0</ele><time>2026-04-25T13:18:17.957Z</time></trkpt><trkpt lat="46.223745" lon="12.9777367"><ele>254.0</ele><time>2026-04-25T13:18:18.958Z</time></trkpt><trkpt lat="46.2237467" lon="12.9778383"><ele>254.00000000000003</ele><time>2026-04-25T13:18:19.957Z</time></trkpt><trkpt lat="46.223735" lon="12.9779467"><ele>254.0</ele><time>2026-04-25T13:18:20.956Z</time></trkpt><trkpt lat="46.22371" lon="12.9780533"><ele>254.0</ele><time>2026-04-25T13:18:21.956Z</time></trkpt><trkpt lat="46.223675" lon="12.9781683"><ele>254.0</ele><time>2026-04-25T13:18:22.957Z</time></trkpt><trkpt lat="46.2236217" lon="12.978285"><ele>254.00000000000003</ele><time>2026-04-25T13:18:23.956Z</time></trkpt><trkpt lat="46.2235483" lon="12.978405"><ele>254.0</ele><time>2026-04-25T13:18:24.956Z</time></trkpt><trkpt lat="46.22347" lon="12.978535"><ele>254.0</ele><time>2026-04-25T13:18:25.956Z</time></trkpt><trkpt lat="46.2233983" lon="12.97868"><ele>254.0</ele><time>2026-04-25T13:18:26.957Z</time></trkpt><trkpt lat="46.223345" lon="12.9788467"><ele>254.0</ele><time>2026-04-25T13:18:27.956Z</time></trkpt><trkpt lat="46.2233117" lon="12.9790367"><ele>254.0</ele><time>2026-04-25T13:18:28.956Z</time></trkpt><trkpt lat="46.2232933" lon="12.9792367"><ele>254.25</ele><time>2026-04-25T13:18:29.956Z</time></trkpt><trkpt lat="46.2232817" lon="12.9794333"><ele>254.5</ele><time>2026-04-25T13:18:30.956Z</time></trkpt><trkpt lat="46.223265" lon="12.97962"><ele>254.75</ele><time>2026-04-25T13:18:31.957Z</time></trkpt><trkpt lat="46.2232217" lon="12.9797983"><ele>255.0</ele><time>2026-04-25T13:18:32.956Z</time></trkpt><trkpt lat="46.2231533" lon="12.9799617"><ele>247.75</ele><time>2026-04-25T13:18:33.957Z</time></trkpt><trkpt lat="46.2230667" lon="12.9801133"><ele>240.5</ele><time>2026-04-25T13:18:34.957Z</time></trkpt><trkpt lat="46.2229767" lon="12.9802583"><ele>233.25</ele><time>2026-04-25T13:18:35.955Z</time></trkpt><trkpt lat="46.2228983" lon="12.9804067"><ele>226.0</ele><time>2026-04-25T13:18:36.956Z</time></trkpt><trkpt lat="46.2228433" lon="12.980565"><ele>225.99999999999997</ele><time>2026-04-25T13:18:37.955Z</time></trkpt><trkpt lat="46.222815" lon="12.98072"><ele>226.0</ele><time>2026-04-25T13:18:38.956Z</time></trkpt><trkpt lat="46.2227983" lon="12.9808533"><ele>226.0</ele><time>2026-04-25T13:18:39.956Z</time></trkpt><trkpt lat="46.2227667" lon="12.9809583"><ele>226.0</ele><time>2026-04-25T13:18:40.957Z</time></trkpt><trkpt lat="46.222705" lon="12.9810067"><ele>225.99999999999997</ele><time>2026-04-25T13:18:41.955Z</time></trkpt><trkpt lat="46.22263" lon="12.9810133"><ele>226.0</ele><time>2026-04-25T13:18:42.956Z</time></trkpt><trkpt lat="46.2225633" lon="12.9809167"><ele>226.0</ele><time>2026-04-25T13:18:43.957Z</time></trkpt><trkpt lat="46.2225283" lon="12.9807717"><ele>226.0</ele><time>2026-04-25T13:18:44.955Z</time></trkpt><trkpt lat="46.2225033" lon="12.9805867"><ele>226.0</ele><time>2026-04-25T13:18:45.957Z</time></trkpt><trkpt lat="46.2224817" lon="12.9803867"><ele>226.0</ele><time>2026-04-25T13:18:46.957Z</time></trkpt><trkpt lat="46.2224683" lon="12.9801917"><ele>226.20000000000002</ele><time>2026-04-25T13:18:47.957Z</time></trkpt><trkpt lat="46.2224517" lon="12.9800133"><ele>226.40000000000003</ele><time>2026-04-25T13:18:48.957Z</time></trkpt><trkpt lat="46.222425" lon="12.979865"><ele>226.6</ele><time>2026-04-25T13:18:49.956Z</time></trkpt><trkpt lat="46.2223683" lon="12.9797517"><ele>226.8</ele><time>2026-04-25T13:18:50.957Z</time></trkpt><trkpt lat="46.22229" lon="12.979675"><ele>227.0</ele><time>2026-04-25T13:18:51.956Z</time></trkpt><trkpt lat="46.2222" lon="12.9796667"><ele>222.75</ele><time>2026-04-25T13:18:52.957Z</time></trkpt><trkpt lat="46.222115" lon="12.9797467"><ele>218.5</ele><time>2026-04-25T13:18:53.956Z</time></trkpt><trkpt lat="46.2220267" lon="12.9798683"><ele>214.25</ele><time>2026-04-25T13:18:54.957Z</time></trkpt><trkpt lat="46.2219283" lon="12.9800067"><ele>210.0</ele><time>2026-04-25T13:18:55.956Z</time></trkpt><trkpt lat="46.2218217" lon="12.980155"><ele>210.0</ele><time>2026-04-25T13:18:56.956Z</time></trkpt><trkpt lat="46.2217083" lon="12.9803217"><ele>210.0</ele><time>2026-04-25T13:18:57.957Z</time></trkpt><trkpt lat="46.22159" lon="12.9804917"><ele>210.0</ele><time>2026-04-25T13:18:58.956Z</time></trkpt><trkpt lat="46.2214633" lon="12.9806517"><ele>205.33333333333331</ele><time>2026-04-25T13:18:59.956Z</time></trkpt><trkpt lat="46.22133" lon="12.980795"><ele>200.66666666666666</ele><time>2026-04-25T13:19:00.96Z</time></trkpt><trkpt lat="46.2211933" lon="12.98091"><ele>196.0</ele><time>2026-04-25T13:19:01.957Z</time></trkpt><trkpt lat="46.2210633" lon="12.9810167"><ele>194.75</ele><time>2026-04-25T13:19:02.957Z</time></trkpt><trkpt lat="46.22095" lon="12.9811267"><ele>193.5</ele><time>2026-04-25T13:19:03.957Z</time></trkpt><trkpt lat="46.22086" lon="12.981255"><ele>192.25</ele><time>2026-04-25T13:19:04.957Z</time></trkpt><trkpt lat="46.2208" lon="12.9814117"><ele>191.0</ele><time>2026-04-25T13:19:05.957Z</time></trkpt><trkpt lat="46.2207767" lon="12.9815917"><ele>189.75</ele><time>2026-04-25T13:19:06.957Z</time></trkpt><trkpt lat="46.220795" lon="12.9817683"><ele>188.5</ele><time>2026-04-25T13:19:07.957Z</time></trkpt><trkpt lat="46.2208483" lon="12.9819267"><ele>187.25</ele><time>2026-04-25T13:19:08.957Z</time></trkpt><trkpt lat="46.2209183" lon="12.9820783"><ele>186.0</ele><time>2026-04-25T13:19:09.957Z</time></trkpt><trkpt lat="46.220975" lon="12.9822467"><ele>186.0</ele><time>2026-04-25T13:19:10.957Z</time></trkpt><trkpt lat="46.221" lon="12.98244"><ele>186.0</ele><time>2026-04-25T13:19:11.957Z</time></trkpt><trkpt lat="46.220975" lon="12.9826433"><ele>186.0</ele><time>2026-04-25T13:19:12.956Z</time></trkpt><trkpt lat="46.2209083" lon="12.9828517"><ele>186.0</ele><time>2026-04-25T13:19:13.957Z</time></trkpt><trkpt lat="46.2208167" lon="12.9830667"><ele>185.66666666666666</ele><time>2026-04-25T13:19:14.955Z</time></trkpt><trkpt lat="46.2207167" lon="12.9833017"><ele>185.33333333333331</ele><time>2026-04-25T13:19:15.957Z</time></trkpt><trkpt lat="46.2206117" lon="12.9835483"><ele>185.0</ele><time>2026-04-25T13:19:16.957Z</time></trkpt><trkpt lat="46.2205083" lon="12.9838083"><ele>181.66666666666666</ele><time>2026-04-25T13:19:17.957Z</time></trkpt><trkpt lat="46.2204083" lon="12.9840717"><ele>178.33333333333334</ele><time>2026-04-25T13:19:18.957Z</time></trkpt><trkpt lat="46.220305" lon="12.9843283"><ele>175.0</ele><time>2026-04-25T13:19:19.955Z</time></trkpt><trkpt lat="46.2202017" lon="12.9845767"><ele>174.33333333333334</ele><time>2026-04-25T13:19:20.955Z</time></trkpt><trkpt lat="46.2201017" lon="12.9848233"><ele>173.66666666666666</ele><time>2026-04-25T13:19:21.957Z</time></trkpt><trkpt lat="46.2199983" lon="12.9850717"><ele>173.0</ele><time>2026-04-25T13:19:22.956Z</time></trkpt><trkpt lat="46.2198933" lon="12.9853167"><ele>171.66666666666666</ele><time>2026-04-25T13:19:23.957Z</time></trkpt><trkpt lat="46.2197983" lon="12.9855717"><ele>170.33333333333334</ele><time>2026-04-25T13:19:24.957Z</time></trkpt><trkpt lat="46.2197217" lon="12.9858383"><ele>169.0</ele><time>2026-04-25T13:19:25.956Z</time></trkpt><trkpt lat="46.2196617" lon="12.9861117"><ele>167.0</ele><time>2026-04-25T13:19:26.957Z</time></trkpt><trkpt lat="46.2196117" lon="12.9863833"><ele>165.0</ele><time>2026-04-25T13:19:27.957Z</time></trkpt><trkpt lat="46.2195533" lon="12.9866467"><ele>163.0</ele><time>2026-04-25T13:19:28.957Z</time></trkpt><trkpt lat="46.2194717" lon="12.986905"><ele>162.0</ele><time>2026-04-25T13:19:29.957Z</time></trkpt><trkpt lat="46.21937" lon="12.9871533"><ele>161.0</ele><time>2026-04-25T13:19:30.956Z</time></trkpt><trkpt lat="46.219255" lon="12.9874"><ele>160.0</ele><time>2026-04-25T13:19:31.956Z</time></trkpt><trkpt lat="46.2191283" lon="12.9876367"><ele>161.33333333333334</ele><time>2026-04-25T13:19:32.956Z</time></trkpt><trkpt lat="46.218995" lon="12.9878717"><ele>162.66666666666666</ele><time>2026-04-25T13:19:33.955Z</time></trkpt><trkpt lat="46.2188483" lon="12.9880967"><ele>164.0</ele><time>2026-04-25T13:19:34.956Z</time></trkpt><trkpt lat="46.218685" lon="12.9883033"><ele>162.66666666666666</ele><time>2026-04-25T13:19:35.957Z</time></trkpt><trkpt lat="46.218505" lon="12.9884933"><ele>161.33333333333334</ele><time>2026-04-25T13:19:36.956Z</time></trkpt><trkpt lat="46.218315" lon="12.98867"><ele>160.0</ele><time>2026-04-25T13:19:37.957Z</time></trkpt><trkpt lat="46.2181183" lon="12.9888283"><ele>159.5</ele><time>2026-04-25T13:19:38.956Z</time></trkpt><trkpt lat="46.217915" lon="12.9889767"><ele>159.0</ele><time>2026-04-25T13:19:39.957Z</time></trkpt><trkpt lat="46.21771" lon="12.9891167"><ele>159.0</ele><time>2026-04-25T13:19:40.957Z</time></trkpt><trkpt lat="46.2175083" lon="12.9892517"><ele>159.0</ele><time>2026-04-25T13:19:41.956Z</time></trkpt><trkpt lat="46.21731" lon="12.9893817"><ele>159.0</ele><time>2026-04-25T13:19:42.956Z</time></trkpt><trkpt lat="46.2171183" lon="12.9895217"><ele>158.66666666666666</ele><time>2026-04-25T13:19:43.958Z</time></trkpt><trkpt lat="46.216925" lon="12.98966"><ele>158.33333333333331</ele><time>2026-04-25T13:19:44.956Z</time></trkpt><trkpt lat="46.2167333" lon="12.9897967"><ele>158.0</ele><time>2026-04-25T13:19:45.957Z</time></trkpt><trkpt lat="46.21654" lon="12.989925"><ele>159.66666666666666</ele><time>2026-04-25T13:19:46.957Z</time></trkpt><trkpt lat="46.216345" lon="12.9900517"><ele>161.33333333333334</ele><time>2026-04-25T13:19:47.957Z</time></trkpt><trkpt lat="46.21615" lon="12.990165"><ele>163.0</ele><time>2026-04-25T13:19:48.957Z</time></trkpt><trkpt lat="46.2159483" lon="12.9902583"><ele>163.0</ele><time>2026-04-25T13:19:49.956Z</time></trkpt><trkpt lat="46.2157383" lon="12.99033"><ele>163.0</ele><time>2026-04-25T13:19:50.957Z</time></trkpt><trkpt lat="46.215535" lon="12.99039"><ele>163.0</ele><time>2026-04-25T13:19:51.957Z</time></trkpt><trkpt lat="46.21534" lon="12.9904483"><ele>158.0</ele><time>2026-04-25T13:19:52.958Z</time></trkpt><trkpt lat="46.21515" lon="12.990505"><ele>153.0</ele><time>2026-04-25T13:19:53.957Z</time></trkpt><trkpt lat="46.2149633" lon="12.990565"><ele>148.0</ele><time>2026-04-25T13:19:54.956Z</time></trkpt><trkpt lat="46.2147833" lon="12.99062"><ele>147.33333333333334</ele><time>2026-04-25T13:19:55.957Z</time></trkpt><trkpt lat="46.2146183" lon="12.99067"><ele>146.66666666666666</ele><time>2026-04-25T13:19:56.957Z</time></trkpt><trkpt lat="46.2144717" lon="12.990715"><ele>146.0</ele><time>2026-04-25T13:19:57.957Z</time></trkpt><trkpt lat="46.21434" lon="12.9907533"><ele>146.0</ele><time>2026-04-25T13:19:58.956Z</time></trkpt><trkpt lat="46.2142233" lon="12.9907917"><ele>146.0</ele><time>2026-04-25T13:19:59.957Z</time></trkpt><trkpt lat="46.2141283" lon="12.990835"><ele>146.0</ele><time>2026-04-25T13:20:00.957Z</time></trkpt><trkpt lat="46.2140583" lon="12.990885"><ele>146.0</ele><time>2026-04-25T13:20:01.957Z</time></trkpt><trkpt lat="46.214005" lon="12.9909433"><ele>146.0</ele><time>2026-04-25T13:20:02.957Z</time></trkpt><trkpt lat="46.2139617" lon="12.9910917"><ele>146.2</ele><time>2026-04-25T13:20:04.957Z</time></trkpt><trkpt lat="46.213975" lon="12.9911867"><ele>146.39999999999998</ele><time>2026-04-25T13:20:05.957Z</time></trkpt><trkpt lat="46.2140017" lon="12.9913033"><ele>146.6</ele><time>2026-04-25T13:20:06.956Z</time></trkpt><trkpt lat="46.2140283" lon="12.9914617"><ele>146.79999999999998</ele><time>2026-04-25T13:20:07.956Z</time></trkpt><trkpt lat="46.214045" lon="12.9916417"><ele>147.0</ele><time>2026-04-25T13:20:08.957Z</time></trkpt><trkpt lat="46.2140583" lon="12.99184"><ele>148.0</ele><time>2026-04-25T13:20:09.957Z</time></trkpt><trkpt lat="46.214065" lon="12.9920467"><ele>149.0</ele><time>2026-04-25T13:20:10.958Z</time></trkpt><trkpt lat="46.2140717" lon="12.992265"><ele>150.0</ele><time>2026-04-25T13:20:11.958Z</time></trkpt><trkpt lat="46.2140817" lon="12.992495"><ele>150.0</ele><time>2026-04-25T13:20:12.958Z</time></trkpt><trkpt lat="46.21411" lon="12.9927367"><ele>150.0</ele><time>2026-04-25T13:20:13.957Z</time></trkpt><trkpt lat="46.2141633" lon="12.992975"><ele>150.0</ele><time>2026-04-25T13:20:14.958Z</time></trkpt><trkpt lat="46.2142433" lon="12.9932117"><ele>150.0</ele><time>2026-04-25T13:20:15.957Z</time></trkpt><trkpt lat="46.2143333" lon="12.9934533"><ele>150.0</ele><time>2026-04-25T13:20:16.958Z</time></trkpt><trkpt lat="46.2144283" lon="12.9937033"><ele>150.0</ele><time>2026-04-25T13:20:17.957Z</time></trkpt><trkpt lat="46.21453" lon="12.993955"><ele>150.0</ele><time>2026-04-25T13:20:18.957Z</time></trkpt><trkpt lat="46.214635" lon="12.9942017"><ele>150.0</ele><time>2026-04-25T13:20:19.957Z</time></trkpt><trkpt lat="46.2147467" lon="12.9944433"><ele>150.0</ele><time>2026-04-25T13:20:20.958Z</time></trkpt><trkpt lat="46.214855" lon="12.99467"><ele>151.0</ele><time>2026-04-25T13:20:21.957Z</time></trkpt><trkpt lat="46.21496" lon="12.9948683"><ele>152.0</ele><time>2026-04-25T13:20:22.958Z</time></trkpt><trkpt lat="46.2150567" lon="12.9950517"><ele>153.0</ele><time>2026-04-25T13:20:23.958Z</time></trkpt><trkpt lat="46.2151483" lon="12.995225"><ele>153.0</ele><time>2026-04-25T13:20:24.958Z</time></trkpt><trkpt lat="46.2152417" lon="12.9953917"><ele>153.0</ele><time>2026-04-25T13:20:25.956Z</time></trkpt><trkpt lat="46.2153233" lon="12.99555"><ele>153.0</ele><time>2026-04-25T13:20:26.957Z</time></trkpt><trkpt lat="46.215405" lon="12.9956967"><ele>153.0</ele><time>2026-04-25T13:20:27.956Z</time></trkpt><trkpt lat="46.2154883" lon="12.9958333"><ele>153.0</ele><time>2026-04-25T13:20:28.958Z</time></trkpt><trkpt lat="46.2155683" lon="12.9959567"><ele>153.0</ele><time>2026-04-25T13:20:29.956Z</time></trkpt><trkpt lat="46.21564" lon="12.99608"><ele>153.0</ele><time>2026-04-25T13:20:30.958Z</time></trkpt><trkpt lat="46.2156967" lon="12.99619"><ele>153.0</ele><time>2026-04-25T13:20:31.957Z</time></trkpt><trkpt lat="46.215745" lon="12.9962867"><ele>153.0</ele><time>2026-04-25T13:20:32.957Z</time></trkpt><trkpt lat="46.2157883" lon="12.9963683"><ele>152.6</ele><time>2026-04-25T13:20:33.956Z</time></trkpt><trkpt lat="46.2158717" lon="12.9964867"><ele>152.20000000000002</ele><time>2026-04-25T13:20:35.957Z</time></trkpt><trkpt lat="46.2159567" lon="12.9964983"><ele>151.8</ele><time>2026-04-25T13:20:37.956Z</time></trkpt><trkpt lat="46.2160017" lon="12.996335"><ele>151.4</ele><time>2026-04-25T13:21:19.956Z</time></trkpt><trkpt lat="46.215985" lon="12.9962217"><ele>151.0</ele><time>2026-04-25T13:21:22.956Z</time></trkpt><trkpt lat="46.2159483" lon="12.9961083"><ele>151.0</ele><time>2026-04-25T13:21:24.955Z</time></trkpt><trkpt lat="46.2159367" lon="12.99598"><ele>151.0</ele><time>2026-04-25T13:21:26.957Z</time></trkpt><trkpt lat="46.215905" lon="12.9958283"><ele>151.0</ele><time>2026-04-25T13:22:43.957Z</time></trkpt><trkpt lat="46.2159467" lon="12.9959533"><ele>151.0</ele><time>2026-04-25T13:22:57.958Z</time></trkpt><trkpt lat="46.21595" lon="12.996125"><ele>151.0</ele><time>2026-04-25T13:22:59.957Z</time></trkpt><trkpt lat="46.2159217" lon="12.9962317"><ele>151.0</ele><time>2026-04-25T13:23:01.956Z</time></trkpt><trkpt lat="46.2158117" lon="12.9962817"><ele>151.0</ele><time>2026-04-25T13:23:35.957Z</time></trkpt><trkpt lat="46.2157317" lon="12.9962233"><ele>151.0</ele><time>2026-04-25T13:23:37.958Z</time></trkpt><trkpt lat="46.2156767" lon="12.996155"><ele>151.0</ele><time>2026-04-25T13:23:38.956Z</time></trkpt><trkpt lat="46.2156183" lon="12.996065"><ele>151.0</ele><time>2026-04-25T13:23:39.957Z</time></trkpt><trkpt lat="46.2155583" lon="12.995955"><ele>151.5</ele><time>2026-04-25T13:23:40.958Z</time></trkpt><trkpt lat="46.2154917" lon="12.9958267"><ele>152.0</ele><time>2026-04-25T13:23:41.957Z</time></trkpt><trkpt lat="46.2154217" lon="12.9956867"><ele>152.5</ele><time>2026-04-25T13:23:42.957Z</time></trkpt><trkpt lat="46.2153417" lon="12.9955383"><ele>153.0</ele><time>2026-04-25T13:23:43.958Z</time></trkpt><trkpt lat="46.2152583" lon="12.995385"><ele>153.0</ele><time>2026-04-25T13:23:44.958Z</time></trkpt><trkpt lat="46.2151683" lon="12.9952283"><ele>153.0</ele><time>2026-04-25T13:23:45.957Z</time></trkpt><trkpt lat="46.2150817" lon="12.9950717"><ele>153.0</ele><time>2026-04-25T13:23:46.959Z</time></trkpt><trkpt lat="46.214995" lon="12.9949133"><ele>153.0</ele><time>2026-04-25T13:23:47.957Z</time></trkpt><trkpt lat="46.21491" lon="12.9947433"><ele>153.75</ele><time>2026-04-25T13:23:48.956Z</time></trkpt><trkpt lat="46.214825" lon="12.9945633"><ele>154.5</ele><time>2026-04-25T13:23:49.958Z</time></trkpt><trkpt lat="46.2147417" lon="12.9943883"><ele>155.25</ele><time>2026-04-25T13:23:50.956Z</time></trkpt><trkpt lat="46.21466" lon="12.9942117"><ele>156.0</ele><time>2026-04-25T13:23:51.958Z</time></trkpt><trkpt lat="46.2145767" lon="12.9940233"><ele>154.0</ele><time>2026-04-25T13:23:52.957Z</time></trkpt><trkpt lat="46.214495" lon="12.9938283"><ele>152.0</ele><time>2026-04-25T13:23:53.957Z</time></trkpt><trkpt lat="46.2144167" lon="12.9936333"><ele>150.0</ele><time>2026-04-25T13:23:54.957Z</time></trkpt><trkpt lat="46.214345" lon="12.9934417"><ele>150.0</ele><time>2026-04-25T13:23:55.957Z</time></trkpt><trkpt lat="46.2142783" lon="12.9932533"><ele>150.0</ele><time>2026-04-25T13:23:56.958Z</time></trkpt><trkpt lat="46.2142133" lon="12.9930733"><ele>150.0</ele><time>2026-04-25T13:23:57.957Z</time></trkpt><trkpt lat="46.2141533" lon="12.99289"><ele>150.0</ele><time>2026-04-25T13:23:58.957Z</time></trkpt><trkpt lat="46.2141133" lon="12.9926917"><ele>150.0</ele><time>2026-04-25T13:23:59.957Z</time></trkpt><trkpt lat="46.21409" lon="12.99249"><ele>150.0</ele><time>2026-04-25T13:24:00.956Z</time></trkpt><trkpt lat="46.2140783" lon="12.9922817"><ele>150.0</ele><time>2026-04-25T13:24:01.957Z</time></trkpt><trkpt lat="46.21408" lon="12.9920733"><ele>150.0</ele><time>2026-04-25T13:24:02.957Z</time></trkpt><trkpt lat="46.2140783" lon="12.991865"><ele>149.25</ele><time>2026-04-25T13:24:03.956Z</time></trkpt><trkpt lat="46.2140767" lon="12.9916683"><ele>148.5</ele><time>2026-04-25T13:24:04.957Z</time></trkpt><trkpt lat="46.2140767" lon="12.99149"><ele>147.75</ele><time>2026-04-25T13:24:05.957Z</time></trkpt><trkpt lat="46.21408" lon="12.9913233"><ele>147.0</ele><time>2026-04-25T13:24:06.956Z</time></trkpt><trkpt lat="46.214095" lon="12.9911767"><ele>147.0</ele><time>2026-04-25T13:24:07.957Z</time></trkpt><trkpt lat="46.2141317" lon="12.991045"><ele>147.0</ele><time>2026-04-25T13:24:08.957Z</time></trkpt><trkpt lat="46.214195" lon="12.990925"><ele>147.0</ele><time>2026-04-25T13:24:09.958Z</time></trkpt><trkpt lat="46.2142833" lon="12.990825"><ele>147.0</ele><time>2026-04-25T13:24:10.957Z</time></trkpt><trkpt lat="46.2143983" lon="12.990755"><ele>147.0</ele><time>2026-04-25T13:24:11.957Z</time></trkpt><trkpt lat="46.21453" lon="12.9907067"><ele>146.66666666666666</ele><time>2026-04-25T13:24:12.958Z</time></trkpt><trkpt lat="46.2146817" lon="12.99067"><ele>146.33333333333331</ele><time>2026-04-25T13:24:13.957Z</time></trkpt><trkpt lat="46.2148483" lon="12.990625"><ele>146.0</ele><time>2026-04-25T13:24:14.957Z</time></trkpt><trkpt lat="46.2150283" lon="12.9905717"><ele>146.66666666666666</ele><time>2026-04-25T13:24:15.957Z</time></trkpt><trkpt lat="46.2152283" lon="12.9905083"><ele>147.33333333333334</ele><time>2026-04-25T13:24:16.958Z</time></trkpt><trkpt lat="46.2154417" lon="12.9904417"><ele>148.0</ele><time>2026-04-25T13:24:17.957Z</time></trkpt><trkpt lat="46.2156633" lon="12.9903717"><ele>155.5</ele><time>2026-04-25T13:24:18.957Z</time></trkpt><trkpt lat="46.2158867" lon="12.990295"><ele>163.0</ele><time>2026-04-25T13:24:19.957Z</time></trkpt><trkpt lat="46.2161067" lon="12.9901983"><ele>163.0</ele><time>2026-04-25T13:24:20.957Z</time></trkpt><trkpt lat="46.216325" lon="12.9900783"><ele>163.0</ele><time>2026-04-25T13:24:21.957Z</time></trkpt><trkpt lat="46.2165383" lon="12.9899367"><ele>160.5</ele><time>2026-04-25T13:24:22.958Z</time></trkpt><trkpt lat="46.2167483" lon="12.9897917"><ele>158.0</ele><time>2026-04-25T13:24:23.959Z</time></trkpt><trkpt lat="46.21696" lon="12.9896467"><ele>158.0</ele><time>2026-04-25T13:24:24.956Z</time></trkpt><trkpt lat="46.2171667" lon="12.989505"><ele>158.0</ele><time>2026-04-25T13:24:25.959Z</time></trkpt><trkpt lat="46.2173683" lon="12.989365"><ele>158.33333333333331</ele><time>2026-04-25T13:24:26.957Z</time></trkpt><trkpt lat="46.217565" lon="12.9892283"><ele>158.66666666666666</ele><time>2026-04-25T13:24:27.957Z</time></trkpt><trkpt lat="46.2177583" lon="12.98909"><ele>159.0</ele><time>2026-04-25T13:24:28.958Z</time></trkpt><trkpt lat="46.2181467" lon="12.9888183"><ele>159.33333333333334</ele><time>2026-04-25T13:24:30.957Z</time></trkpt><trkpt lat="46.218335" lon="12.98867"><ele>159.66666666666669</ele><time>2026-04-25T13:24:31.957Z</time></trkpt><trkpt lat="46.2185133" lon="12.9885033"><ele>160.0</ele><time>2026-04-25T13:24:32.957Z</time></trkpt><trkpt lat="46.2188483" lon="12.9881217"><ele>160.0</ele><time>2026-04-25T13:24:34.956Z</time></trkpt><trkpt lat="46.2189967" lon="12.9879017"><ele>160.0</ele><time>2026-04-25T13:24:35.957Z</time></trkpt><trkpt lat="46.2191317" lon="12.9876667"><ele>160.0</ele><time>2026-04-25T13:24:36.957Z</time></trkpt><trkpt lat="46.21926" lon="12.98742"><ele>160.0</ele><time>2026-04-25T13:24:37.957Z</time></trkpt><trkpt lat="46.2193817" lon="12.9871733"><ele>160.0</ele><time>2026-04-25T13:24:38.957Z</time></trkpt><trkpt lat="46.2194917" lon="12.9869233"><ele>160.0</ele><time>2026-04-25T13:24:39.957Z</time></trkpt><trkpt lat="46.21958" lon="12.9866583"><ele>161.5</ele><time>2026-04-25T13:24:40.957Z</time></trkpt><trkpt lat="46.2196967" lon="12.9860767"><ele>163.0</ele><time>2026-04-25T13:24:42.956Z</time></trkpt><trkpt lat="46.2197617" lon="12.9857883"><ele>165.33333333333334</ele><time>2026-04-25T13:24:43.956Z</time></trkpt><trkpt lat="46.2198483" lon="12.9855117"><ele>167.66666666666666</ele><time>2026-04-25T13:24:44.958Z</time></trkpt><trkpt lat="46.21995" lon="12.9852417"><ele>170.0</ele><time>2026-04-25T13:24:45.957Z</time></trkpt><trkpt lat="46.2200583" lon="12.9849717"><ele>171.0</ele><time>2026-04-25T13:24:46.957Z</time></trkpt><trkpt lat="46.2201667" lon="12.9847017"><ele>172.0</ele><time>2026-04-25T13:24:47.958Z</time></trkpt><trkpt lat="46.220275" lon="12.984435"><ele>173.0</ele><time>2026-04-25T13:24:48.959Z</time></trkpt><trkpt lat="46.220385" lon="12.9841683"><ele>173.66666666666666</ele><time>2026-04-25T13:24:49.957Z</time></trkpt><trkpt lat="46.2204933" lon="12.9839083"><ele>174.33333333333334</ele><time>2026-04-25T13:24:50.957Z</time></trkpt><trkpt lat="46.2206" lon="12.98365"><ele>175.0</ele><time>2026-04-25T13:24:51.957Z</time></trkpt><trkpt lat="46.2207017" lon="12.9834017"><ele>178.33333333333334</ele><time>2026-04-25T13:24:52.958Z</time></trkpt><trkpt lat="46.2207983" lon="12.9831667"><ele>181.66666666666666</ele><time>2026-04-25T13:24:53.957Z</time></trkpt><trkpt lat="46.2208833" lon="12.9829517"><ele>185.0</ele><time>2026-04-25T13:24:54.958Z</time></trkpt><trkpt lat="46.2209583" lon="12.9827533"><ele>185.0</ele><time>2026-04-25T13:24:55.958Z</time></trkpt><trkpt lat="46.221015" lon="12.9825633"><ele>185.0</ele><time>2026-04-25T13:24:56.957Z</time></trkpt><trkpt lat="46.221035" lon="12.982365"><ele>185.0</ele><time>2026-04-25T13:24:57.957Z</time></trkpt><trkpt lat="46.2210133" lon="12.98217"><ele>185.0</ele><time>2026-04-25T13:24:58.958Z</time></trkpt><trkpt lat="46.2209517" lon="12.982005"><ele>185.25</ele><time>2026-04-25T13:24:59.962Z</time></trkpt><trkpt lat="46.2208783" lon="12.9818583"><ele>185.5</ele><time>2026-04-25T13:25:00.956Z</time></trkpt><trkpt lat="46.2208233" lon="12.9817"><ele>185.75</ele><time>2026-04-25T13:25:01.956Z</time></trkpt><trkpt lat="46.22081" lon="12.9815283"><ele>186.0</ele><time>2026-04-25T13:25:02.957Z</time></trkpt><trkpt lat="46.2208417" lon="12.9813567"><ele>187.25</ele><time>2026-04-25T13:25:03.956Z</time></trkpt><trkpt lat="46.22091" lon="12.9811967"><ele>188.5</ele><time>2026-04-25T13:25:04.958Z</time></trkpt><trkpt lat="46.2210167" lon="12.98106"><ele>189.75</ele><time>2026-04-25T13:25:05.957Z</time></trkpt><trkpt lat="46.22115" lon="12.980945"><ele>191.0</ele><time>2026-04-25T13:25:06.957Z</time></trkpt><trkpt lat="46.2214433" lon="12.9806767"><ele>200.5</ele><time>2026-04-25T13:25:08.956Z</time></trkpt><trkpt lat="46.22172" lon="12.9803217"><ele>210.0</ele><time>2026-04-25T13:25:10.956Z</time></trkpt><trkpt lat="46.2218383" lon="12.9801583"><ele>210.0</ele><time>2026-04-25T13:25:11.955Z</time></trkpt><trkpt lat="46.22194" lon="12.9800167"><ele>210.0</ele><time>2026-04-25T13:25:12.956Z</time></trkpt><trkpt lat="46.222025" lon="12.979895"><ele>210.0</ele><time>2026-04-25T13:25:13.957Z</time></trkpt><trkpt lat="46.222105" lon="12.9797933"><ele>210.0</ele><time>2026-04-25T13:25:14.956Z</time></trkpt><trkpt lat="46.222185" lon="12.9797333"><ele>210.0</ele><time>2026-04-25T13:25:15.957Z</time></trkpt><trkpt lat="46.2222633" lon="12.9797133"><ele>210.0</ele><time>2026-04-25T13:25:16.956Z</time></trkpt><trkpt lat="46.2223383" lon="12.97976"><ele>210.0</ele><time>2026-04-25T13:25:17.956Z</time></trkpt><trkpt lat="46.2224017" lon="12.979855"><ele>210.0</ele><time>2026-04-25T13:25:18.957Z</time></trkpt><trkpt lat="46.2224367" lon="12.9799933"><ele>210.0</ele><time>2026-04-25T13:25:19.957Z</time></trkpt><trkpt lat="46.22246" lon="12.9801483"><ele>214.0</ele><time>2026-04-25T13:25:20.956Z</time></trkpt><trkpt lat="46.2224717" lon="12.9803267"><ele>218.0</ele><time>2026-04-25T13:25:21.958Z</time></trkpt><trkpt lat="46.2224867" lon="12.980505"><ele>222.0</ele><time>2026-04-25T13:25:22.958Z</time></trkpt><trkpt lat="46.2225" lon="12.9806683"><ele>226.0</ele><time>2026-04-25T13:25:23.957Z</time></trkpt><trkpt lat="46.2225117" lon="12.9808067"><ele>226.0</ele><time>2026-04-25T13:25:24.957Z</time></trkpt><trkpt lat="46.2225367" lon="12.9809183"><ele>226.0</ele><time>2026-04-25T13:25:25.958Z</time></trkpt><trkpt lat="46.2225817" lon="12.9810067"><ele>226.0</ele><time>2026-04-25T13:25:26.957Z</time></trkpt><trkpt lat="46.2226383" lon="12.981055"><ele>226.0</ele><time>2026-04-25T13:25:27.958Z</time></trkpt><trkpt lat="46.2227067" lon="12.9810317"><ele>226.0</ele><time>2026-04-25T13:25:28.957Z</time></trkpt><trkpt lat="46.2227633" lon="12.9809683"><ele>226.0</ele><time>2026-04-25T13:25:29.956Z</time></trkpt><trkpt lat="46.2228133" lon="12.98087"><ele>226.0</ele><time>2026-04-25T13:25:30.957Z</time></trkpt><trkpt lat="46.2228483" lon="12.9807333"><ele>226.0</ele><time>2026-04-25T13:25:31.956Z</time></trkpt><trkpt lat="46.22289" lon="12.9805833"><ele>226.0</ele><time>2026-04-25T13:25:32.956Z</time></trkpt><trkpt lat="46.2229367" lon="12.9804283"><ele>226.0</ele><time>2026-04-25T13:25:33.957Z</time></trkpt><trkpt lat="46.2230067" lon="12.9802817"><ele>226.0</ele><time>2026-04-25T13:25:34.956Z</time></trkpt><trkpt lat="46.2230883" lon="12.98014"><ele>233.25</ele><time>2026-04-25T13:25:35.956Z</time></trkpt><trkpt lat="46.223165" lon="12.97999"><ele>240.5</ele><time>2026-04-25T13:25:36.955Z</time></trkpt><trkpt lat="46.2232317" lon="12.9798333"><ele>247.75</ele><time>2026-04-25T13:25:37.957Z</time></trkpt><trkpt lat="46.22328" lon="12.9796683"><ele>255.0</ele><time>2026-04-25T13:25:38.958Z</time></trkpt><trkpt lat="46.223305" lon="12.9794933"><ele>255.0</ele><time>2026-04-25T13:25:39.956Z</time></trkpt><trkpt lat="46.22332" lon="12.97932"><ele>255.0</ele><time>2026-04-25T13:25:40.957Z</time></trkpt><trkpt lat="46.223335" lon="12.97916"><ele>255.0</ele><time>2026-04-25T13:25:41.956Z</time></trkpt><trkpt lat="46.2233517" lon="12.97901"><ele>255.0</ele><time>2026-04-25T13:25:42.955Z</time></trkpt><trkpt lat="46.2233733" lon="12.9788633"><ele>255.0</ele><time>2026-04-25T13:25:43.957Z</time></trkpt><trkpt lat="46.2234133" lon="12.9787217"><ele>254.75</ele><time>2026-04-25T13:25:44.955Z</time></trkpt><trkpt lat="46.2234717" lon="12.9785867"><ele>254.5</ele><time>2026-04-25T13:25:45.956Z</time></trkpt><trkpt lat="46.2235417" lon="12.9784617"><ele>254.25</ele><time>2026-04-25T13:25:46.956Z</time></trkpt><trkpt lat="46.2236667" lon="12.9782433"><ele>254.0</ele><time>2026-04-25T13:25:48.955Z</time></trkpt><trkpt lat="46.2237133" lon="12.9781617"><ele>254.0</ele><time>2026-04-25T13:25:49.956Z</time></trkpt><trkpt lat="46.2237683" lon="12.9780683"><ele>253.99999999999997</ele><time>2026-04-25T13:25:51.956Z</time></trkpt><trkpt lat="46.223795" lon="12.9781633"><ele>253.99999999999997</ele><time>2026-04-25T13:25:54.955Z</time></trkpt><trkpt lat="46.223745" lon="12.9783133"><ele>254.0</ele><time>2026-04-25T13:25:56.956Z</time></trkpt><trkpt lat="46.2236917" lon="12.9784317"><ele>254.0</ele><time>2026-04-25T13:25:57.957Z</time></trkpt><trkpt lat="46.2236467" lon="12.97856"><ele>254.0</ele><time>2026-04-25T13:25:58.956Z</time></trkpt><trkpt lat="46.2236117" lon="12.9787167"><ele>254.0</ele><time>2026-04-25T13:25:59.956Z</time></trkpt><trkpt lat="46.22359" lon="12.9788867"><ele>254.0</ele><time>2026-04-25T13:26:00.956Z</time></trkpt><trkpt lat="46.2235817" lon="12.9790633"><ele>254.0</ele><time>2026-04-25T13:26:01.956Z</time></trkpt><trkpt lat="46.223575" lon="12.9792533"><ele>254.25</ele><time>2026-04-25T13:26:02.956Z</time></trkpt><trkpt lat="46.223565" lon="12.9794467"><ele>254.5</ele><time>2026-04-25T13:26:03.956Z</time></trkpt><trkpt lat="46.2235583" lon="12.9796467"><ele>254.75</ele><time>2026-04-25T13:26:04.957Z</time></trkpt><trkpt lat="46.22355" lon="12.9798517"><ele>255.0</ele><time>2026-04-25T13:26:05.956Z</time></trkpt><trkpt lat="46.2235417" lon="12.980065"><ele>254.25</ele><time>2026-04-25T13:26:06.957Z</time></trkpt><trkpt lat="46.22353" lon="12.9802833"><ele>253.5</ele><time>2026-04-25T13:26:07.956Z</time></trkpt><trkpt lat="46.22352" lon="12.9804967"><ele>252.75</ele><time>2026-04-25T13:26:08.957Z</time></trkpt><trkpt lat="46.2235083" lon="12.980705"><ele>252.0</ele><time>2026-04-25T13:26:09.956Z</time></trkpt><trkpt lat="46.2235017" lon="12.9808967"><ele>250.8</ele><time>2026-04-25T13:26:10.957Z</time></trkpt><trkpt lat="46.2234967" lon="12.9810717"><ele>249.6</ele><time>2026-04-25T13:26:11.956Z</time></trkpt><trkpt lat="46.2235017" lon="12.9812283"><ele>248.40000000000003</ele><time>2026-04-25T13:26:12.955Z</time></trkpt><trkpt lat="46.22353" lon="12.981365"><ele>247.20000000000002</ele><time>2026-04-25T13:26:13.956Z</time></trkpt><trkpt lat="46.2235933" lon="12.9814733"><ele>246.0</ele><time>2026-04-25T13:26:14.956Z</time></trkpt><trkpt lat="46.223685" lon="12.981555"><ele>246.0</ele><time>2026-04-25T13:26:15.957Z</time></trkpt><trkpt lat="46.2237833" lon="12.981625"><ele>246.00000000000003</ele><time>2026-04-25T13:26:16.957Z</time></trkpt><trkpt lat="46.2238733" lon="12.9816867"><ele>246.00000000000003</ele><time>2026-04-25T13:26:17.955Z</time></trkpt><trkpt lat="46.22395" lon="12.981755"><ele>246.0</ele><time>2026-04-25T13:26:18.956Z</time></trkpt><trkpt lat="46.224005" lon="12.9818417"><ele>246.0</ele><time>2026-04-25T13:26:19.957Z</time></trkpt><trkpt lat="46.2240033" lon="12.9819533"><ele>246.20000000000002</ele><time>2026-04-25T13:26:20.956Z</time></trkpt><trkpt lat="46.22397" lon="12.982065"><ele>246.40000000000003</ele><time>2026-04-25T13:26:21.957Z</time></trkpt><trkpt lat="46.2239" lon="12.9821717"><ele>246.6</ele><time>2026-04-25T13:26:22.959Z</time></trkpt><trkpt lat="46.2238317" lon="12.98229"><ele>246.8</ele><time>2026-04-25T13:26:23.955Z</time></trkpt><trkpt lat="46.2237783" lon="12.9824267"><ele>247.0</ele><time>2026-04-25T13:26:24.956Z</time></trkpt><trkpt lat="46.2237633" lon="12.9825767"><ele>247.5</ele><time>2026-04-25T13:26:25.956Z</time></trkpt><trkpt lat="46.2237783" lon="12.9827483"><ele>248.0</ele><time>2026-04-25T13:26:26.956Z</time></trkpt><trkpt lat="46.22381" lon="12.982935"><ele>248.5</ele><time>2026-04-25T13:26:27.956Z</time></trkpt><trkpt lat="46.22384" lon="12.9831233"><ele>249.0</ele><time>2026-04-25T13:26:28.957Z</time></trkpt><trkpt lat="46.2238683" lon="12.9832983"><ele>250.83333333333334</ele><time>2026-04-25T13:26:29.956Z</time></trkpt><trkpt lat="46.2238917" lon="12.9834517"><ele>252.66666666666669</ele><time>2026-04-25T13:26:30.956Z</time></trkpt><trkpt lat="46.2238967" lon="12.9835867"><ele>254.5</ele><time>2026-04-25T13:26:31.956Z</time></trkpt><trkpt lat="46.223875" lon="12.9837083"><ele>256.33333333333337</ele><time>2026-04-25T13:26:32.957Z</time></trkpt><trkpt lat="46.2238283" lon="12.9837933"><ele>258.1666666666667</ele><time>2026-04-25T13:26:33.956Z</time></trkpt><trkpt lat="46.2237817" lon="12.9838717"><ele>260.0</ele><time>2026-04-25T13:26:34.957Z</time></trkpt><trkpt lat="46.2236433" lon="12.9838267"><ele>260.0</ele><time>2026-04-25T13:26:35.956Z</time></trkpt><trkpt lat="46.2235083" lon="12.9837933"><ele>260.0</ele><time>2026-04-25T13:26:36.957Z</time></trkpt><trkpt lat="46.2234067" lon="12.98381"><ele>260.0</ele><time>2026-04-25T13:26:37.956Z</time></trkpt><trkpt lat="46.223325" lon="12.98387"><ele>260.0</ele><time>2026-04-25T13:26:38.956Z</time></trkpt><trkpt lat="46.223265" lon="12.9839817"><ele>260.0</ele><time>2026-04-25T13:26:39.955Z</time></trkpt><trkpt lat="46.223235" lon="12.9841333"><ele>259.5</ele><time>2026-04-25T13:26:40.957Z</time></trkpt><trkpt lat="46.2232433" lon="12.984325"><ele>259.0</ele><time>2026-04-25T13:26:41.957Z</time></trkpt><trkpt lat="46.2232483" lon="12.98451"><ele>258.5</ele><time>2026-04-25T13:26:42.957Z</time></trkpt><trkpt lat="46.2232583" lon="12.984685"><ele>258.0</ele><time>2026-04-25T13:26:43.956Z</time></trkpt><trkpt lat="46.223295" lon="12.9848483"><ele>258.0</ele><time>2026-04-25T13:26:44.957Z</time></trkpt><trkpt lat="46.2233683" lon="12.984995"><ele>258.0</ele><time>2026-04-25T13:26:45.956Z</time></trkpt><trkpt lat="46.2234633" lon="12.985115"><ele>258.0</ele><time>2026-04-25T13:26:46.957Z</time></trkpt><trkpt lat="46.2235467" lon="12.9852117"><ele>258.0</ele><time>2026-04-25T13:26:47.956Z</time></trkpt><trkpt lat="46.2236" lon="12.9853183"><ele>258.0</ele><time>2026-04-25T13:26:48.956Z</time></trkpt><trkpt lat="46.22362" lon="12.9854383"><ele>257.75</ele><time>2026-04-25T13:26:49.956Z</time></trkpt><trkpt lat="46.22361" lon="12.9855617"><ele>257.5</ele><time>2026-04-25T13:26:50.957Z</time></trkpt><trkpt lat="46.2235667" lon="12.9857"><ele>257.25</ele><time>2026-04-25T13:26:51.957Z</time></trkpt><trkpt lat="46.2234967" lon="12.9858583"><ele>257.0</ele><time>2026-04-25T13:26:52.957Z</time></trkpt><trkpt lat="46.223405" lon="12.9860017"><ele>259.75</ele><time>2026-04-25T13:26:53.956Z</time></trkpt><trkpt lat="46.2232917" lon="12.986115"><ele>262.5</ele><time>2026-04-25T13:26:54.956Z</time></trkpt><trkpt lat="46.22317" lon="12.9862017"><ele>265.25</ele><time>2026-04-25T13:26:55.956Z</time></trkpt><trkpt lat="46.2230533" lon="12.986275"><ele>268.0</ele><time>2026-04-25T13:26:56.956Z</time></trkpt><trkpt lat="46.2229417" lon="12.98634"><ele>262.0</ele><time>2026-04-25T13:26:57.955Z</time></trkpt><trkpt lat="46.2228467" lon="12.9864083"><ele>256.0</ele><time>2026-04-25T13:26:58.957Z</time></trkpt><trkpt lat="46.22278" lon="12.9865233"><ele>250.0</ele><time>2026-04-25T13:26:59.956Z</time></trkpt><trkpt lat="46.2227367" lon="12.9866833"><ele>244.0</ele><time>2026-04-25T13:27:00.955Z</time></trkpt><trkpt lat="46.2227067" lon="12.98689"><ele>244.0</ele><time>2026-04-25T13:27:01.957Z</time></trkpt><trkpt lat="46.2226817" lon="12.9871233"><ele>244.0</ele><time>2026-04-25T13:27:02.955Z</time></trkpt><trkpt lat="46.22266" lon="12.9873683"><ele>244.0</ele><time>2026-04-25T13:27:03.955Z</time></trkpt><trkpt lat="46.222635" lon="12.9876183"><ele>245.33333333333331</ele><time>2026-04-25T13:27:04.956Z</time></trkpt><trkpt lat="46.2226017" lon="12.9878683"><ele>246.66666666666669</ele><time>2026-04-25T13:27:05.956Z</time></trkpt><trkpt lat="46.2225617" lon="12.9881183"><ele>248.0</ele><time>2026-04-25T13:27:06.956Z</time></trkpt><trkpt lat="46.222515" lon="12.98836"><ele>249.0</ele><time>2026-04-25T13:27:07.956Z</time></trkpt><trkpt lat="46.2224567" lon="12.9885933"><ele>250.0</ele><time>2026-04-25T13:27:08.956Z</time></trkpt><trkpt lat="46.2223967" lon="12.9888183"><ele>251.0</ele><time>2026-04-25T13:27:09.957Z</time></trkpt><trkpt lat="46.2223567" lon="12.98905"><ele>250.5</ele><time>2026-04-25T13:27:10.957Z</time></trkpt><trkpt lat="46.2223217" lon="12.9892683"><ele>250.0</ele><time>2026-04-25T13:27:11.956Z</time></trkpt><trkpt lat="46.22229" lon="12.9894767"><ele>249.5</ele><time>2026-04-25T13:27:12.957Z</time></trkpt><trkpt lat="46.2222667" lon="12.989665"><ele>249.0</ele><time>2026-04-25T13:27:13.956Z</time></trkpt><trkpt lat="46.2222533" lon="12.989825"><ele>246.39999999999998</ele><time>2026-04-25T13:27:14.957Z</time></trkpt><trkpt lat="46.222265" lon="12.989955"><ele>243.79999999999998</ele><time>2026-04-25T13:27:15.957Z</time></trkpt><trkpt lat="46.2222983" lon="12.9900683"><ele>241.20000000000002</ele><time>2026-04-25T13:27:16.957Z</time></trkpt><trkpt lat="46.22238" lon="12.99012"><ele>238.60000000000002</ele><time>2026-04-25T13:27:17.957Z</time></trkpt><trkpt lat="46.2224683" lon="12.9901533"><ele>236.0</ele><time>2026-04-25T13:27:18.955Z</time></trkpt><trkpt lat="46.2225817" lon="12.9901583"><ele>236.0</ele><time>2026-04-25T13:27:19.956Z</time></trkpt><trkpt lat="46.22271" lon="12.9901467"><ele>236.0</ele><time>2026-04-25T13:27:20.956Z</time></trkpt><trkpt lat="46.22283" lon="12.9901367"><ele>236.0</ele><time>2026-04-25T13:27:21.957Z</time></trkpt><trkpt lat="46.2229433" lon="12.99013"><ele>236.0</ele><time>2026-04-25T13:27:22.957Z</time></trkpt><trkpt lat="46.2230517" lon="12.990145"><ele>236.0</ele><time>2026-04-25T13:27:23.955Z</time></trkpt><trkpt lat="46.2231333" lon="12.9901833"><ele>236.00000000000003</ele><time>2026-04-25T13:27:24.957Z</time></trkpt><trkpt lat="46.223165" lon="12.9903"><ele>236.00000000000003</ele><time>2026-04-25T13:27:25.957Z</time></trkpt><trkpt lat="46.223155" lon="12.9904317"><ele>236.0</ele><time>2026-04-25T13:27:26.957Z</time></trkpt><trkpt lat="46.2230983" lon="12.990585"><ele>236.0</ele><time>2026-04-25T13:27:27.957Z</time></trkpt><trkpt lat="46.2230267" lon="12.9907517"><ele>236.5</ele><time>2026-04-25T13:27:28.958Z</time></trkpt><trkpt lat="46.2229433" lon="12.9909183"><ele>237.0</ele><time>2026-04-25T13:27:29.956Z</time></trkpt><trkpt lat="46.22285" lon="12.99108"><ele>237.5</ele><time>2026-04-25T13:27:30.957Z</time></trkpt><trkpt lat="46.2227617" lon="12.991235"><ele>238.0</ele><time>2026-04-25T13:27:31.956Z</time></trkpt><trkpt lat="46.2226733" lon="12.9913733"><ele>238.0</ele><time>2026-04-25T13:27:32.956Z</time></trkpt><trkpt lat="46.2225767" lon="12.9914933"><ele>238.0</ele><time>2026-04-25T13:27:33.957Z</time></trkpt><trkpt lat="46.2224817" lon="12.9915883"><ele>238.0</ele><time>2026-04-25T13:27:34.957Z</time></trkpt><trkpt lat="46.22242" lon="12.9916983"><ele>238.0</ele><time>2026-04-25T13:27:35.957Z</time></trkpt><trkpt lat="46.2223833" lon="12.9918133"><ele>238.0</ele><time>2026-04-25T13:27:36.958Z</time></trkpt><trkpt lat="46.2223883" lon="12.9919333"><ele>237.5</ele><time>2026-04-25T13:27:37.957Z</time></trkpt><trkpt lat="46.2224383" lon="12.9920583"><ele>237.0</ele><time>2026-04-25T13:27:38.957Z</time></trkpt><trkpt lat="46.2225633" lon="12.9921883"><ele>236.5</ele><time>2026-04-25T13:27:39.957Z</time></trkpt><trkpt lat="46.22266" lon="12.9923017"><ele>236.0</ele><time>2026-04-25T13:27:40.957Z</time></trkpt><trkpt lat="46.2227567" lon="12.9924"><ele>237.4</ele><time>2026-04-25T13:27:41.957Z</time></trkpt><trkpt lat="46.2228217" lon="12.992515"><ele>238.8</ele><time>2026-04-25T13:27:42.957Z</time></trkpt><trkpt lat="46.222835" lon="12.992655"><ele>240.20000000000002</ele><time>2026-04-25T13:27:43.957Z</time></trkpt><trkpt lat="46.2228" lon="12.992785"><ele>241.60000000000002</ele><time>2026-04-25T13:27:44.956Z</time></trkpt><trkpt lat="46.2227317" lon="12.992895"><ele>243.0</ele><time>2026-04-25T13:27:45.956Z</time></trkpt><trkpt lat="46.2226283" lon="12.9929733"><ele>243.0</ele><time>2026-04-25T13:27:46.956Z</time></trkpt><trkpt lat="46.2225083" lon="12.9930383"><ele>243.0</ele><time>2026-04-25T13:27:47.957Z</time></trkpt><trkpt lat="46.2223867" lon="12.9931017"><ele>243.0</ele><time>2026-04-25T13:27:48.957Z</time></trkpt><trkpt lat="46.22228" lon="12.9931767"><ele>243.0</ele><time>2026-04-25T13:27:49.955Z</time></trkpt><trkpt lat="46.2221983" lon="12.99328"><ele>238.4</ele><time>2026-04-25T13:27:50.956Z</time></trkpt><trkpt lat="46.2221533" lon="12.9934183"><ele>233.8</ele><time>2026-04-25T13:27:51.956Z</time></trkpt><trkpt lat="46.2221367" lon="12.993575"><ele>229.2</ele><time>2026-04-25T13:27:52.956Z</time></trkpt><trkpt lat="46.2221283" lon="12.9937367"><ele>224.6</ele><time>2026-04-25T13:27:53.956Z</time></trkpt><trkpt lat="46.2221183" lon="12.9939017"><ele>220.0</ele><time>2026-04-25T13:27:54.957Z</time></trkpt><trkpt lat="46.2221083" lon="12.99406"><ele>218.8</ele><time>2026-04-25T13:27:55.956Z</time></trkpt><trkpt lat="46.2221083" lon="12.99421"><ele>217.6</ele><time>2026-04-25T13:27:56.957Z</time></trkpt><trkpt lat="46.2221267" lon="12.9943483"><ele>216.39999999999998</ele><time>2026-04-25T13:27:57.957Z</time></trkpt><trkpt lat="46.2221733" lon="12.9944733"><ele>215.2</ele><time>2026-04-25T13:27:58.958Z</time></trkpt><trkpt lat="46.22225" lon="12.99457"><ele>214.0</ele><time>2026-04-25T13:27:59.956Z</time></trkpt><trkpt lat="46.22235" lon="12.994635"><ele>217.39999999999998</ele><time>2026-04-25T13:28:00.957Z</time></trkpt><trkpt lat="46.2224567" lon="12.99467"><ele>220.79999999999998</ele><time>2026-04-25T13:28:01.957Z</time></trkpt><trkpt lat="46.222555" lon="12.9946883"><ele>224.20000000000002</ele><time>2026-04-25T13:28:02.957Z</time></trkpt><trkpt lat="46.2226433" lon="12.99471"><ele>227.60000000000002</ele><time>2026-04-25T13:28:03.957Z</time></trkpt><trkpt lat="46.2227283" lon="12.994745"><ele>231.0</ele><time>2026-04-25T13:28:04.957Z</time></trkpt><trkpt lat="46.22277" lon="12.99482"><ele>231.0</ele><time>2026-04-25T13:28:05.957Z</time></trkpt><trkpt lat="46.2227683" lon="12.9949233"><ele>231.00000000000003</ele><time>2026-04-25T13:28:06.957Z</time></trkpt><trkpt lat="46.2227483" lon="12.9950383"><ele>231.00000000000003</ele><time>2026-04-25T13:28:07.956Z</time></trkpt><trkpt lat="46.2227033" lon="12.9951667"><ele>231.0</ele><time>2026-04-25T13:28:08.956Z</time></trkpt><trkpt lat="46.222625" lon="12.9952933"><ele>231.0</ele><time>2026-04-25T13:28:09.957Z</time></trkpt><trkpt lat="46.2225583" lon="12.995415"><ele>230.8</ele><time>2026-04-25T13:28:10.956Z</time></trkpt><trkpt lat="46.2225233" lon="12.9955483"><ele>230.60000000000002</ele><time>2026-04-25T13:28:11.957Z</time></trkpt><trkpt lat="46.22253" lon="12.9957067"><ele>230.4</ele><time>2026-04-25T13:28:12.958Z</time></trkpt><trkpt lat="46.2225783" lon="12.9958667"><ele>230.2</ele><time>2026-04-25T13:28:13.957Z</time></trkpt><trkpt lat="46.22264" lon="12.9960083"><ele>230.0</ele><time>2026-04-25T13:28:14.957Z</time></trkpt><trkpt lat="46.2227017" lon="12.996145"><ele>230.0</ele><time>2026-04-25T13:28:15.957Z</time></trkpt><trkpt lat="46.222745" lon="12.9962767"><ele>230.0</ele><time>2026-04-25T13:28:16.956Z</time></trkpt><trkpt lat="46.2227533" lon="12.9964067"><ele>230.0</ele><time>2026-04-25T13:28:17.956Z</time></trkpt><trkpt lat="46.222725" lon="12.99654"><ele>230.0</ele><time>2026-04-25T13:28:18.958Z</time></trkpt><trkpt lat="46.2226683" lon="12.9966633"><ele>230.0</ele><time>2026-04-25T13:28:19.958Z</time></trkpt><trkpt lat="46.222595" lon="12.996775"><ele>230.0</ele><time>2026-04-25T13:28:20.958Z</time></trkpt><trkpt lat="46.2225117" lon="12.9968733"><ele>230.0</ele><time>2026-04-25T13:28:21.958Z</time></trkpt><trkpt lat="46.2224283" lon="12.9969533"><ele>230.0</ele><time>2026-04-25T13:28:22.958Z</time></trkpt><trkpt lat="46.22234" lon="12.9970017"><ele>230.0</ele><time>2026-04-25T13:28:23.958Z</time></trkpt><trkpt lat="46.2222533" lon="12.9970383"><ele>230.0</ele><time>2026-04-25T13:28:24.958Z</time></trkpt><trkpt lat="46.2221733" lon="12.9970817"><ele>227.0</ele><time>2026-04-25T13:28:25.958Z</time></trkpt><trkpt lat="46.2221017" lon="12.9971467"><ele>224.0</ele><time>2026-04-25T13:28:26.958Z</time></trkpt><trkpt lat="46.22205" lon="12.9972467"><ele>221.0</ele><time>2026-04-25T13:28:27.958Z</time></trkpt><trkpt lat="46.2220267" lon="12.9973717"><ele>218.0</ele><time>2026-04-25T13:28:28.959Z</time></trkpt><trkpt lat="46.2220283" lon="12.99752"><ele>215.0</ele><time>2026-04-25T13:28:29.958Z</time></trkpt><trkpt lat="46.2220533" lon="12.9976817"><ele>215.0</ele><time>2026-04-25T13:28:30.957Z</time></trkpt><trkpt lat="46.2220883" lon="12.99784"><ele>215.0</ele><time>2026-04-25T13:28:31.956Z</time></trkpt><trkpt lat="46.2221517" lon="12.9979833"><ele>215.0</ele><time>2026-04-25T13:28:32.956Z</time></trkpt><trkpt lat="46.2222383" lon="12.9981183"><ele>215.0</ele><time>2026-04-25T13:28:33.957Z</time></trkpt><trkpt lat="46.222335" lon="12.9982467"><ele>216.75</ele><time>2026-04-25T13:28:34.959Z</time></trkpt><trkpt lat="46.222425" lon="12.998375"><ele>218.5</ele><time>2026-04-25T13:28:35.957Z</time></trkpt><trkpt lat="46.2225033" lon="12.9985167"><ele>220.25</ele><time>2026-04-25T13:28:36.957Z</time></trkpt><trkpt lat="46.2225667" lon="12.9986833"><ele>222.0</ele><time>2026-04-25T13:28:37.957Z</time></trkpt><trkpt lat="46.2226133" lon="12.998865"><ele>222.0</ele><time>2026-04-25T13:28:38.957Z</time></trkpt><trkpt lat="46.22265" lon="12.999065"><ele>222.0</ele><time>2026-04-25T13:28:39.956Z</time></trkpt><trkpt lat="46.22268" lon="12.9992633"><ele>222.0</ele><time>2026-04-25T13:28:40.957Z</time></trkpt><trkpt lat="46.2227017" lon="12.999455"><ele>222.0</ele><time>2026-04-25T13:28:41.957Z</time></trkpt><trkpt lat="46.2227083" lon="12.99964"><ele>221.25</ele><time>2026-04-25T13:28:42.957Z</time></trkpt><trkpt lat="46.2227067" lon="12.9998233"><ele>220.5</ele><time>2026-04-25T13:28:43.957Z</time></trkpt><trkpt lat="46.2227" lon="13.0000083"><ele>219.75</ele><time>2026-04-25T13:28:44.957Z</time></trkpt><trkpt lat="46.2226983" lon="13.0002"><ele>219.0</ele><time>2026-04-25T13:28:45.957Z</time></trkpt><trkpt lat="46.222705" lon="13.0004017"><ele>219.0</ele><time>2026-04-25T13:28:46.957Z</time></trkpt><trkpt lat="46.2227217" lon="13.0006133"><ele>219.0</ele><time>2026-04-25T13:28:47.958Z</time></trkpt><trkpt lat="46.2227467" lon="13.00083"><ele>219.0</ele><time>2026-04-25T13:28:48.957Z</time></trkpt><trkpt lat="46.2227717" lon="13.0010517"><ele>217.66666666666669</ele><time>2026-04-25T13:28:49.957Z</time></trkpt><trkpt lat="46.2227983" lon="13.0012817"><ele>216.33333333333334</ele><time>2026-04-25T13:28:50.959Z</time></trkpt><trkpt lat="46.222825" lon="13.0015133"><ele>215.0</ele><time>2026-04-25T13:28:51.959Z</time></trkpt><trkpt lat="46.2228517" lon="13.0017483"><ele>212.33333333333334</ele><time>2026-04-25T13:28:52.958Z</time></trkpt><trkpt lat="46.2228783" lon="13.001985"><ele>209.66666666666669</ele><time>2026-04-25T13:28:53.958Z</time></trkpt><trkpt lat="46.22291" lon="13.0022133"><ele>207.0</ele><time>2026-04-25T13:28:54.958Z</time></trkpt><trkpt lat="46.2229467" lon="13.002435"><ele>206.66666666666669</ele><time>2026-04-25T13:28:55.959Z</time></trkpt><trkpt lat="46.2229867" lon="13.00265"><ele>206.33333333333334</ele><time>2026-04-25T13:28:56.957Z</time></trkpt><trkpt lat="46.223025" lon="13.00286"><ele>206.0</ele><time>2026-04-25T13:28:57.958Z</time></trkpt><trkpt lat="46.2230617" lon="13.0030667"><ele>206.0</ele><time>2026-04-25T13:28:58.96Z</time></trkpt><trkpt lat="46.2231017" lon="13.003265"><ele>206.0</ele><time>2026-04-25T13:28:59.958Z</time></trkpt><trkpt lat="46.2231417" lon="13.0034517"><ele>206.0</ele><time>2026-04-25T13:29:00.958Z</time></trkpt><trkpt lat="46.2231817" lon="13.0036267"><ele>206.0</ele><time>2026-04-25T13:29:01.957Z</time></trkpt><trkpt lat="46.22322" lon="13.0037933"><ele>210.4</ele><time>2026-04-25T13:29:02.958Z</time></trkpt><trkpt lat="46.2232483" lon="13.0039567"><ele>214.8</ele><time>2026-04-25T13:29:03.959Z</time></trkpt><trkpt lat="46.2232817" lon="13.0041167"><ele>219.20000000000002</ele><time>2026-04-25T13:29:04.959Z</time></trkpt><trkpt lat="46.2233183" lon="13.0042633"><ele>223.60000000000002</ele><time>2026-04-25T13:29:05.957Z</time></trkpt><trkpt lat="46.2233733" lon="13.0043983"><ele>228.0</ele><time>2026-04-25T13:29:06.957Z</time></trkpt><trkpt lat="46.22344" lon="13.0045183"><ele>228.0</ele><time>2026-04-25T13:29:07.957Z</time></trkpt><trkpt lat="46.22351" lon="13.00464"><ele>228.0</ele><time>2026-04-25T13:29:08.957Z</time></trkpt><trkpt lat="46.22357" lon="13.0047717"><ele>228.0</ele><time>2026-04-25T13:29:09.956Z</time></trkpt><trkpt lat="46.2236167" lon="13.0049117"><ele>228.0</ele><time>2026-04-25T13:29:10.958Z</time></trkpt><trkpt lat="46.2236667" lon="13.00506"><ele>228.0</ele><time>2026-04-25T13:29:11.957Z</time></trkpt><trkpt lat="46.2237217" lon="13.005215"><ele>224.75</ele><time>2026-04-25T13:29:12.957Z</time></trkpt><trkpt lat="46.22377" lon="13.0053817"><ele>221.5</ele><time>2026-04-25T13:29:13.957Z</time></trkpt><trkpt lat="46.2238117" lon="13.00555"><ele>218.25</ele><time>2026-04-25T13:29:14.957Z</time></trkpt><trkpt lat="46.2238533" lon="13.0057233"><ele>215.0</ele><time>2026-04-25T13:29:15.957Z</time></trkpt><trkpt lat="46.2238983" lon="13.0058867"><ele>213.75</ele><time>2026-04-25T13:29:16.957Z</time></trkpt><trkpt lat="46.2239483" lon="13.0060417"><ele>212.5</ele><time>2026-04-25T13:29:17.957Z</time></trkpt><trkpt lat="46.2240033" lon="13.00619"><ele>211.25</ele><time>2026-04-25T13:29:18.956Z</time></trkpt><trkpt lat="46.22406" lon="13.00634"><ele>210.0</ele><time>2026-04-25T13:29:19.956Z</time></trkpt><trkpt lat="46.2241167" lon="13.0064917"><ele>212.33333333333331</ele><time>2026-04-25T13:29:20.957Z</time></trkpt><trkpt lat="46.2242467" lon="13.006765"><ele>214.66666666666666</ele><time>2026-04-25T13:29:22.959Z</time></trkpt><trkpt lat="46.2243083" lon="13.006895"><ele>217.0</ele><time>2026-04-25T13:29:23.957Z</time></trkpt><trkpt lat="46.2243733" lon="13.00718"><ele>217.0</ele><time>2026-04-25T13:29:25.958Z</time></trkpt><trkpt lat="46.2243567" lon="13.007345"><ele>217.0</ele><time>2026-04-25T13:29:26.961Z</time></trkpt><trkpt lat="46.2243317" lon="13.0075033"><ele>217.0</ele><time>2026-04-25T13:29:27.956Z</time></trkpt><trkpt lat="46.2243333" lon="13.0076717"><ele>217.0</ele><time>2026-04-25T13:29:28.957Z</time></trkpt><trkpt lat="46.22436" lon="13.007845"><ele>214.0</ele><time>2026-04-25T13:29:29.958Z</time></trkpt><trkpt lat="46.2244117" lon="13.0079933"><ele>211.0</ele><time>2026-04-25T13:29:30.957Z</time></trkpt><trkpt lat="46.22449" lon="13.00812"><ele>208.0</ele><time>2026-04-25T13:29:31.957Z</time></trkpt><trkpt lat="46.2245783" lon="13.0082417"><ele>205.0</ele><time>2026-04-25T13:29:32.956Z</time></trkpt><trkpt lat="46.2246617" lon="13.00838"><ele>202.25</ele><time>2026-04-25T13:29:33.958Z</time></trkpt><trkpt lat="46.2247317" lon="13.0085417"><ele>199.5</ele><time>2026-04-25T13:29:34.958Z</time></trkpt><trkpt lat="46.2247933" lon="13.008715"><ele>196.75</ele><time>2026-04-25T13:29:35.956Z</time></trkpt><trkpt lat="46.2248483" lon="13.0088933"><ele>194.0</ele><time>2026-04-25T13:29:36.957Z</time></trkpt><trkpt lat="46.2249083" lon="13.0090717"><ele>197.5</ele><time>2026-04-25T13:29:37.957Z</time></trkpt><trkpt lat="46.2249717" lon="13.0092417"><ele>201.0</ele><time>2026-04-25T13:29:38.957Z</time></trkpt><trkpt lat="46.2250333" lon="13.0094067"><ele>204.5</ele><time>2026-04-25T13:29:39.955Z</time></trkpt><trkpt lat="46.225095" lon="13.0095733"><ele>208.0</ele><time>2026-04-25T13:29:40.957Z</time></trkpt><trkpt lat="46.225155" lon="13.009735"><ele>208.0</ele><time>2026-04-25T13:29:41.957Z</time></trkpt><trkpt lat="46.2252083" lon="13.0098933"><ele>208.0</ele><time>2026-04-25T13:29:42.957Z</time></trkpt><trkpt lat="46.225245" lon="13.0100667"><ele>208.0</ele><time>2026-04-25T13:29:43.956Z</time></trkpt><trkpt lat="46.2252683" lon="13.0102433"><ele>208.0</ele><time>2026-04-25T13:29:44.957Z</time></trkpt><trkpt lat="46.2253" lon="13.0104117"><ele>204.25</ele><time>2026-04-25T13:29:45.958Z</time></trkpt><trkpt lat="46.22535" lon="13.0105717"><ele>200.5</ele><time>2026-04-25T13:29:46.956Z</time></trkpt><trkpt lat="46.225415" lon="13.0107233"><ele>196.75</ele><time>2026-04-25T13:29:47.956Z</time></trkpt><trkpt lat="46.2254933" lon="13.010875"><ele>193.0</ele><time>2026-04-25T13:29:48.956Z</time></trkpt><trkpt lat="46.2255733" lon="13.01103"><ele>194.0</ele><time>2026-04-25T13:29:49.956Z</time></trkpt><trkpt lat="46.2256483" lon="13.0111883"><ele>195.0</ele><time>2026-04-25T13:29:50.955Z</time></trkpt><trkpt lat="46.2257233" lon="13.0113417"><ele>196.0</ele><time>2026-04-25T13:29:51.957Z</time></trkpt><trkpt lat="46.2258" lon="13.0114967"><ele>197.0</ele><time>2026-04-25T13:29:52.957Z</time></trkpt><trkpt lat="46.2258733" lon="13.011645"><ele>195.2</ele><time>2026-04-25T13:29:53.955Z</time></trkpt><trkpt lat="46.2259433" lon="13.0117883"><ele>193.39999999999998</ele><time>2026-04-25T13:29:54.957Z</time></trkpt><trkpt lat="46.2260067" lon="13.0119183"><ele>191.60000000000002</ele><time>2026-04-25T13:29:55.956Z</time></trkpt><trkpt lat="46.2260533" lon="13.0120467"><ele>189.8</ele><time>2026-04-25T13:29:56.955Z</time></trkpt><trkpt lat="46.2260867" lon="13.012175"><ele>188.0</ele><time>2026-04-25T13:29:57.957Z</time></trkpt><trkpt lat="46.2261133" lon="13.0122833"><ele>188.0</ele><time>2026-04-25T13:29:58.957Z</time></trkpt><trkpt lat="46.2261283" lon="13.0124233"><ele>188.0</ele><time>2026-04-25T13:30:00.957Z</time></trkpt><trkpt lat="46.2261383" lon="13.0125183"><ele>188.0</ele><time>2026-04-25T13:30:02.957Z</time></trkpt><trkpt lat="46.22615" lon="13.012645"><ele>188.0</ele><time>2026-04-25T13:30:04.956Z</time></trkpt><trkpt lat="46.2261367" lon="13.0128067"><ele>188.0</ele><time>2026-04-25T13:30:06.956Z</time></trkpt><trkpt lat="46.2260967" lon="13.012955"><ele>186.0</ele><time>2026-04-25T13:30:08.957Z</time></trkpt><trkpt lat="46.2260467" lon="13.013105"><ele>184.0</ele><time>2026-04-25T13:30:10.957Z</time></trkpt><trkpt lat="46.2260133" lon="13.0132483"><ele>182.0</ele><time>2026-04-25T13:30:12.956Z</time></trkpt><trkpt lat="46.226005" lon="13.013395"><ele>180.0</ele><time>2026-04-25T13:30:14.956Z</time></trkpt><trkpt lat="46.2260017" lon="13.01353"><ele>178.0</ele><time>2026-04-25T13:30:16.957Z</time></trkpt><trkpt lat="46.2259967" lon="13.0136717"><ele>177.66666666666669</ele><time>2026-04-25T13:30:18.957Z</time></trkpt><trkpt lat="46.2260033" lon="13.0138317"><ele>177.33333333333334</ele><time>2026-04-25T13:30:20.957Z</time></trkpt><trkpt lat="46.2260183" lon="13.0139233"><ele>177.0</ele><time>2026-04-25T13:30:21.957Z</time></trkpt><trkpt lat="46.226025" lon="13.014025"><ele>176.66666666666666</ele><time>2026-04-25T13:30:22.959Z</time></trkpt><trkpt lat="46.2260517" lon="13.0141267"><ele>176.33333333333331</ele><time>2026-04-25T13:30:23.955Z</time></trkpt><trkpt lat="46.2260733" lon="13.0142233"><ele>176.0</ele><time>2026-04-25T13:30:24.957Z</time></trkpt><trkpt lat="46.226095" lon="13.01432"><ele>175.57142857142858</ele><time>2026-04-25T13:30:25.957Z</time></trkpt><trkpt lat="46.2261233" lon="13.0144067"><ele>175.14285714285714</ele><time>2026-04-25T13:30:26.956Z</time></trkpt><trkpt lat="46.226155" lon="13.014495"><ele>174.71428571428572</ele><time>2026-04-25T13:30:27.957Z</time></trkpt><trkpt lat="46.2261867" lon="13.01458"><ele>174.28571428571428</ele><time>2026-04-25T13:30:28.957Z</time></trkpt><trkpt lat="46.22621" lon="13.0146717"><ele>173.85714285714286</ele><time>2026-04-25T13:30:29.956Z</time></trkpt><trkpt lat="46.2262267" lon="13.0147683"><ele>173.42857142857142</ele><time>2026-04-25T13:30:30.957Z</time></trkpt><trkpt lat="46.22624" lon="13.0148667"><ele>173.0</ele><time>2026-04-25T13:30:31.957Z</time></trkpt><trkpt lat="46.2262467" lon="13.014965"><ele>172.0</ele><time>2026-04-25T13:30:32.956Z</time></trkpt><trkpt lat="46.226245" lon="13.01506"><ele>171.0</ele><time>2026-04-25T13:30:33.957Z</time></trkpt><trkpt lat="46.2262317" lon="13.01515"><ele>170.0</ele><time>2026-04-25T13:30:34.957Z</time></trkpt><trkpt lat="46.2261683" lon="13.015295"><ele>169.0</ele><time>2026-04-25T13:30:36.957Z</time></trkpt><trkpt lat="46.22609" lon="13.0154117"><ele>168.0</ele><time>2026-04-25T13:30:38.956Z</time></trkpt><trkpt lat="46.2260233" lon="13.0155267"><ele>168.0</ele><time>2026-04-25T13:30:40.957Z</time></trkpt><trkpt lat="46.2259817" lon="13.0156617"><ele>168.0</ele><time>2026-04-25T13:30:42.957Z</time></trkpt><trkpt lat="46.22598" lon="13.01582"><ele>168.0</ele><time>2026-04-25T13:30:44.956Z</time></trkpt><trkpt lat="46.2259683" lon="13.0159983"><ele>168.0</ele><time>2026-04-25T13:30:46.957Z</time></trkpt><trkpt lat="46.2259483" lon="13.0160883"><ele>168.0</ele><time>2026-04-25T13:30:47.955Z</time></trkpt><trkpt lat="46.2259183" lon="13.0161717"><ele>167.8</ele><time>2026-04-25T13:30:48.956Z</time></trkpt><trkpt lat="46.2258583" lon="13.01633"><ele>167.60000000000002</ele><time>2026-04-25T13:30:50.956Z</time></trkpt><trkpt lat="46.2257967" lon="13.01649"><ele>167.39999999999998</ele><time>2026-04-25T13:30:52.956Z</time></trkpt><trkpt lat="46.22577" lon="13.0165817"><ele>167.2</ele><time>2026-04-25T13:30:53.956Z</time></trkpt><trkpt lat="46.225755" lon="13.0166867"><ele>167.0</ele><time>2026-04-25T13:30:54.956Z</time></trkpt><trkpt lat="46.225755" lon="13.0168"><ele>167.0</ele><time>2026-04-25T13:30:55.957Z</time></trkpt><trkpt lat="46.2257667" lon="13.0169283"><ele>167.0</ele><time>2026-04-25T13:30:56.956Z</time></trkpt><trkpt lat="46.2257817" lon="13.0170483"><ele>167.0</ele><time>2026-04-25T13:30:57.957Z</time></trkpt><trkpt lat="46.2257983" lon="13.017175"><ele>167.0</ele><time>2026-04-25T13:30:58.957Z</time></trkpt><trkpt lat="46.225815" lon="13.017305"><ele>167.0</ele><time>2026-04-25T13:30:59.955Z</time></trkpt><trkpt lat="46.2258267" lon="13.01743"><ele>167.0</ele><time>2026-04-25T13:31:00.956Z</time></trkpt><trkpt lat="46.2258367" lon="13.0175533"><ele>165.66666666666666</ele><time>2026-04-25T13:31:01.957Z</time></trkpt><trkpt lat="46.225845" lon="13.01767"><ele>164.33333333333331</ele><time>2026-04-25T13:31:02.955Z</time></trkpt><trkpt lat="46.2258517" lon="13.0177783"><ele>163.0</ele><time>2026-04-25T13:31:03.957Z</time></trkpt><trkpt lat="46.225855" lon="13.01788"><ele>161.66666666666666</ele><time>2026-04-25T13:31:04.956Z</time></trkpt><trkpt lat="46.2258667" lon="13.0180383"><ele>160.33333333333334</ele><time>2026-04-25T13:31:06.957Z</time></trkpt><trkpt lat="46.2258667" lon="13.018135"><ele>159.0</ele><time>2026-04-25T13:31:08.956Z</time></trkpt><trkpt lat="46.2258633" lon="13.0182333"><ele>158.5</ele><time>2026-04-25T13:31:15.957Z</time></trkpt><trkpt lat="46.2258333" lon="13.018325"><ele>158.0</ele><time>2026-04-25T13:31:18.956Z</time></trkpt><trkpt lat="46.2258133" lon="13.0184617"><ele>157.5</ele><time>2026-04-25T13:31:21.957Z</time></trkpt><trkpt lat="46.2258333" lon="13.01856"><ele>157.0</ele><time>2026-04-25T13:31:22.957Z</time></trkpt><trkpt lat="46.225865" lon="13.0186883"><ele>156.5</ele><time>2026-04-25T13:31:23.957Z</time></trkpt><trkpt lat="46.2259117" lon="13.01884"><ele>156.0</ele><time>2026-04-25T13:31:24.957Z</time></trkpt><trkpt lat="46.2259667" lon="13.0190117"><ele>156.0</ele><time>2026-04-25T13:31:25.956Z</time></trkpt><trkpt lat="46.2260217" lon="13.01919"><ele>156.0</ele><time>2026-04-25T13:31:26.956Z</time></trkpt><trkpt lat="46.2260733" lon="13.0193767"><ele>156.0</ele><time>2026-04-25T13:31:27.956Z</time></trkpt><trkpt lat="46.226125" lon="13.01957"><ele>156.0</ele><time>2026-04-25T13:31:28.956Z</time></trkpt><trkpt lat="46.22618" lon="13.019775"><ele>156.0</ele><time>2026-04-25T13:31:29.957Z</time></trkpt><trkpt lat="46.226235" lon="13.0199783"><ele>156.0</ele><time>2026-04-25T13:31:30.956Z</time></trkpt><trkpt lat="46.226285" lon="13.0201767"><ele>156.0</ele><time>2026-04-25T13:31:31.956Z</time></trkpt><trkpt lat="46.2263283" lon="13.02037"><ele>156.0</ele><time>2026-04-25T13:31:32.957Z</time></trkpt><trkpt lat="46.2263517" lon="13.020565"><ele>156.5</ele><time>2026-04-25T13:31:33.957Z</time></trkpt><trkpt lat="46.2263483" lon="13.0207633"><ele>157.0</ele><time>2026-04-25T13:31:34.958Z</time></trkpt><trkpt lat="46.2263183" lon="13.02096"><ele>157.5</ele><time>2026-04-25T13:31:35.956Z</time></trkpt><trkpt lat="46.2262833" lon="13.02115"><ele>158.0</ele><time>2026-04-25T13:31:36.957Z</time></trkpt><trkpt lat="46.226245" lon="13.0213317"><ele>158.0</ele><time>2026-04-25T13:31:37.957Z</time></trkpt><trkpt lat="46.2262217" lon="13.0215183"><ele>158.0</ele><time>2026-04-25T13:31:38.957Z</time></trkpt><trkpt lat="46.22622" lon="13.02171"><ele>158.0</ele><time>2026-04-25T13:31:39.956Z</time></trkpt><trkpt lat="46.2262283" lon="13.0219067"><ele>158.0</ele><time>2026-04-25T13:31:40.957Z</time></trkpt><trkpt lat="46.2262467" lon="13.0221"><ele>159.0</ele><time>2026-04-25T13:31:41.956Z</time></trkpt><trkpt lat="46.2262683" lon="13.02229"><ele>160.0</ele><time>2026-04-25T13:31:42.957Z</time></trkpt><trkpt lat="46.2262883" lon="13.022475"><ele>161.0</ele><time>2026-04-25T13:31:43.956Z</time></trkpt><trkpt lat="46.2263233" lon="13.0226617"><ele>162.0</ele><time>2026-04-25T13:31:44.956Z</time></trkpt><trkpt lat="46.2263817" lon="13.022845"><ele>163.66666666666666</ele><time>2026-04-25T13:31:45.956Z</time></trkpt><trkpt lat="46.2264583" lon="13.02303"><ele>165.33333333333331</ele><time>2026-04-25T13:31:46.957Z</time></trkpt><trkpt lat="46.226545" lon="13.0232183"><ele>167.0</ele><time>2026-04-25T13:31:47.956Z</time></trkpt><trkpt lat="46.2266317" lon="13.0234117"><ele>169.5</ele><time>2026-04-25T13:31:48.957Z</time></trkpt><trkpt lat="46.2267117" lon="13.0236"><ele>172.0</ele><time>2026-04-25T13:31:49.957Z</time></trkpt><trkpt lat="46.226785" lon="13.0237683"><ele>174.5</ele><time>2026-04-25T13:31:50.957Z</time></trkpt><trkpt lat="46.226865" lon="13.0239017"><ele>177.0</ele><time>2026-04-25T13:31:51.957Z</time></trkpt><trkpt lat="46.226955" lon="13.0239933"><ele>177.0</ele><time>2026-04-25T13:31:52.957Z</time></trkpt><trkpt lat="46.2270667" lon="13.0240533"><ele>177.0</ele><time>2026-04-25T13:31:53.957Z</time></trkpt><trkpt lat="46.2271867" lon="13.0240867"><ele>177.0</ele><time>2026-04-25T13:31:54.957Z</time></trkpt><trkpt lat="46.2273067" lon="13.0241017"><ele>177.0</ele><time>2026-04-25T13:31:55.957Z</time></trkpt><trkpt lat="46.2274233" lon="13.02411"><ele>178.5</ele><time>2026-04-25T13:31:56.957Z</time></trkpt><trkpt lat="46.2275367" lon="13.024125"><ele>180.0</ele><time>2026-04-25T13:31:57.958Z</time></trkpt><trkpt lat="46.227645" lon="13.024145"><ele>181.5</ele><time>2026-04-25T13:31:58.958Z</time></trkpt><trkpt lat="46.2277567" lon="13.0241783"><ele>183.0</ele><time>2026-04-25T13:31:59.957Z</time></trkpt><trkpt lat="46.227875" lon="13.02422"><ele>183.0</ele><time>2026-04-25T13:32:00.957Z</time></trkpt><trkpt lat="46.2279817" lon="13.0242717"><ele>183.0</ele><time>2026-04-25T13:32:01.956Z</time></trkpt><trkpt lat="46.228085" lon="13.024345"><ele>183.0</ele><time>2026-04-25T13:32:02.957Z</time></trkpt><trkpt lat="46.2281783" lon="13.0244483"><ele>183.0</ele><time>2026-04-25T13:32:03.958Z</time></trkpt><trkpt lat="46.2282617" lon="13.02457"><ele>182.2</ele><time>2026-04-25T13:32:04.959Z</time></trkpt><trkpt lat="46.22835" lon="13.0246917"><ele>181.4</ele><time>2026-04-25T13:32:05.957Z</time></trkpt><trkpt lat="46.2284333" lon="13.0247833"><ele>180.6</ele><time>2026-04-25T13:32:06.956Z</time></trkpt><trkpt lat="46.2285367" lon="13.024855"><ele>179.79999999999998</ele><time>2026-04-25T13:32:07.957Z</time></trkpt><trkpt lat="46.228635" lon="13.024915"><ele>179.0</ele><time>2026-04-25T13:32:08.957Z</time></trkpt><trkpt lat="46.2287267" lon="13.0249683"><ele>178.5</ele><time>2026-04-25T13:32:09.958Z</time></trkpt><trkpt lat="46.2288067" lon="13.0250083"><ele>178.0</ele><time>2026-04-25T13:32:10.958Z</time></trkpt><trkpt lat="46.2288833" lon="13.0250433"><ele>177.5</ele><time>2026-04-25T13:32:11.957Z</time></trkpt><trkpt lat="46.22896" lon="13.025085"><ele>177.0</ele><time>2026-04-25T13:32:12.958Z</time></trkpt><trkpt lat="46.2290333" lon="13.0251317"><ele>176.5</ele><time>2026-04-25T13:32:13.959Z</time></trkpt><trkpt lat="46.2291067" lon="13.0251833"><ele>176.0</ele><time>2026-04-25T13:32:14.956Z</time></trkpt><trkpt lat="46.229175" lon="13.0252383"><ele>176.0</ele><time>2026-04-25T13:32:15.958Z</time></trkpt><trkpt lat="46.2292467" lon="13.0252967"><ele>176.0</ele><time>2026-04-25T13:32:16.958Z</time></trkpt><trkpt lat="46.2293167" lon="13.0253583"><ele>176.0</ele><time>2026-04-25T13:32:17.957Z</time></trkpt><trkpt lat="46.22939" lon="13.02542"><ele>176.0</ele><time>2026-04-25T13:32:18.957Z</time></trkpt><trkpt lat="46.22946" lon="13.025495"><ele>176.0</ele><time>2026-04-25T13:32:19.957Z</time></trkpt><trkpt lat="46.2295267" lon="13.0255783"><ele>176.0</ele><time>2026-04-25T13:32:20.957Z</time></trkpt><trkpt lat="46.229595" lon="13.0256517"><ele>176.0</ele><time>2026-04-25T13:32:21.958Z</time></trkpt><trkpt lat="46.229665" lon="13.02571"><ele>176.0</ele><time>2026-04-25T13:32:22.956Z</time></trkpt><trkpt lat="46.2297583" lon="13.0257417"><ele>176.0</ele><time>2026-04-25T13:32:23.956Z</time></trkpt><trkpt lat="46.2298567" lon="13.0257667"><ele>176.0</ele><time>2026-04-25T13:32:24.957Z</time></trkpt><trkpt lat="46.229965" lon="13.0257517"><ele>176.0</ele><time>2026-04-25T13:32:25.958Z</time></trkpt><trkpt lat="46.230065" lon="13.02574"><ele>175.60000000000002</ele><time>2026-04-25T13:32:26.958Z</time></trkpt><trkpt lat="46.23017" lon="13.0257383"><ele>175.2</ele><time>2026-04-25T13:32:27.957Z</time></trkpt><trkpt lat="46.230275" lon="13.0257417"><ele>174.8</ele><time>2026-04-25T13:32:28.958Z</time></trkpt><trkpt lat="46.2303817" lon="13.0257533"><ele>174.39999999999998</ele><time>2026-04-25T13:32:29.957Z</time></trkpt><trkpt lat="46.2304833" lon="13.025775"><ele>174.0</ele><time>2026-04-25T13:32:30.956Z</time></trkpt><trkpt lat="46.2305917" lon="13.0258133"><ele>176.75</ele><time>2026-04-25T13:32:31.957Z</time></trkpt><trkpt lat="46.2307" lon="13.0258667"><ele>179.5</ele><time>2026-04-25T13:32:32.956Z</time></trkpt><trkpt lat="46.2307983" lon="13.02594"><ele>182.25</ele><time>2026-04-25T13:32:33.955Z</time></trkpt><trkpt lat="46.23089" lon="13.0260483"><ele>185.0</ele><time>2026-04-25T13:32:34.956Z</time></trkpt><trkpt lat="46.23098" lon="13.0261667"><ele>185.0</ele><time>2026-04-25T13:32:35.957Z</time></trkpt><trkpt lat="46.2310717" lon="13.0263"><ele>185.0</ele><time>2026-04-25T13:32:36.957Z</time></trkpt><trkpt lat="46.2311767" lon="13.0264417"><ele>185.0</ele><time>2026-04-25T13:32:37.957Z</time></trkpt><trkpt lat="46.2312883" lon="13.0265917"><ele>185.0</ele><time>2026-04-25T13:32:38.956Z</time></trkpt><trkpt lat="46.231405" lon="13.0267483"><ele>187.66666666666666</ele><time>2026-04-25T13:32:39.956Z</time></trkpt><trkpt lat="46.2315283" lon="13.0269083"><ele>190.33333333333331</ele><time>2026-04-25T13:32:40.958Z</time></trkpt><trkpt lat="46.2316583" lon="13.027065"><ele>193.0</ele><time>2026-04-25T13:32:41.955Z</time></trkpt><trkpt lat="46.2317967" lon="13.027215"><ele>193.0</ele><time>2026-04-25T13:32:42.957Z</time></trkpt><trkpt lat="46.2319383" lon="13.0273683"><ele>193.0</ele><time>2026-04-25T13:32:43.958Z</time></trkpt><trkpt lat="46.2320783" lon="13.0275367"><ele>193.0</ele><time>2026-04-25T13:32:44.957Z</time></trkpt><trkpt lat="46.2322117" lon="13.0277183"><ele>197.66666666666666</ele><time>2026-04-25T13:32:45.957Z</time></trkpt><trkpt lat="46.232345" lon="13.0279033"><ele>202.33333333333331</ele><time>2026-04-25T13:32:46.957Z</time></trkpt><trkpt lat="46.232485" lon="13.02807"><ele>207.0</ele><time>2026-04-25T13:32:47.956Z</time></trkpt><trkpt lat="46.23263" lon="13.0282317"><ele>196.66666666666666</ele><time>2026-04-25T13:32:48.957Z</time></trkpt><trkpt lat="46.2327767" lon="13.0283933"><ele>186.33333333333331</ele><time>2026-04-25T13:32:49.957Z</time></trkpt><trkpt lat="46.2329267" lon="13.0285533"><ele>176.0</ele><time>2026-04-25T13:32:50.956Z</time></trkpt><trkpt lat="46.2330733" lon="13.0287133"><ele>175.0</ele><time>2026-04-25T13:32:51.957Z</time></trkpt><trkpt lat="46.2332217" lon="13.0288733"><ele>174.0</ele><time>2026-04-25T13:32:52.958Z</time></trkpt><trkpt lat="46.2333667" lon="13.02902"><ele>173.0</ele><time>2026-04-25T13:32:53.957Z</time></trkpt><trkpt lat="46.2335033" lon="13.0291617"><ele>173.0</ele><time>2026-04-25T13:32:54.958Z</time></trkpt><trkpt lat="46.2336317" lon="13.0292867"><ele>173.0</ele><time>2026-04-25T13:32:55.957Z</time></trkpt><trkpt lat="46.2337567" lon="13.02939"><ele>173.0</ele><time>2026-04-25T13:32:56.956Z</time></trkpt><trkpt lat="46.23388" lon="13.0294667"><ele>173.0</ele><time>2026-04-25T13:32:57.956Z</time></trkpt><trkpt lat="46.2340133" lon="13.0295217"><ele>178.66666666666666</ele><time>2026-04-25T13:32:58.957Z</time></trkpt><trkpt lat="46.2341617" lon="13.0295533"><ele>184.33333333333334</ele><time>2026-04-25T13:32:59.955Z</time></trkpt><trkpt lat="46.234315" lon="13.0295783"><ele>190.0</ele><time>2026-04-25T13:33:00.957Z</time></trkpt><trkpt lat="46.2344783" lon="13.029605"><ele>190.0</ele><time>2026-04-25T13:33:01.957Z</time></trkpt><trkpt lat="46.2346467" lon="13.029635"><ele>190.0</ele><time>2026-04-25T13:33:02.957Z</time></trkpt><trkpt lat="46.2348067" lon="13.0296717"><ele>190.0</ele><time>2026-04-25T13:33:03.957Z</time></trkpt><trkpt lat="46.2349667" lon="13.0297183"><ele>196.33333333333334</ele><time>2026-04-25T13:33:04.958Z</time></trkpt><trkpt lat="46.235125" lon="13.0297833"><ele>202.66666666666669</ele><time>2026-04-25T13:33:05.957Z</time></trkpt><trkpt lat="46.2352767" lon="13.0298717"><ele>209.0</ele><time>2026-04-25T13:33:06.957Z</time></trkpt><trkpt lat="46.2354267" lon="13.029975"><ele>199.33333333333334</ele><time>2026-04-25T13:33:07.957Z</time></trkpt><trkpt lat="46.2355717" lon="13.030085"><ele>189.66666666666669</ele><time>2026-04-25T13:33:08.955Z</time></trkpt><trkpt lat="46.23572" lon="13.0301933"><ele>180.0</ele><time>2026-04-25T13:33:09.957Z</time></trkpt><trkpt lat="46.235865" lon="13.0303017"><ele>180.0</ele><time>2026-04-25T13:33:10.958Z</time></trkpt><trkpt lat="46.2360083" lon="13.0304117"><ele>180.0</ele><time>2026-04-25T13:33:11.957Z</time></trkpt><trkpt lat="46.23616" lon="13.03052"><ele>180.0</ele><time>2026-04-25T13:33:12.957Z</time></trkpt><trkpt lat="46.236315" lon="13.0306183"><ele>180.0</ele><time>2026-04-25T13:33:13.957Z</time></trkpt><trkpt lat="46.2364667" lon="13.0307067"><ele>180.0</ele><time>2026-04-25T13:33:14.956Z</time></trkpt><trkpt lat="46.2366083" lon="13.0307867"><ele>180.0</ele><time>2026-04-25T13:33:15.957Z</time></trkpt><trkpt lat="46.2367417" lon="13.0308633"><ele>178.75</ele><time>2026-04-25T13:33:16.957Z</time></trkpt><trkpt lat="46.23687" lon="13.0309283"><ele>177.5</ele><time>2026-04-25T13:33:17.957Z</time></trkpt><trkpt lat="46.236995" lon="13.0309933"><ele>176.25</ele><time>2026-04-25T13:33:18.957Z</time></trkpt><trkpt lat="46.2371233" lon="13.031055"><ele>175.0</ele><time>2026-04-25T13:33:19.957Z</time></trkpt><trkpt lat="46.237255" lon="13.0311217"><ele>178.5</ele><time>2026-04-25T13:33:20.956Z</time></trkpt><trkpt lat="46.2373833" lon="13.03119"><ele>182.0</ele><time>2026-04-25T13:33:21.957Z</time></trkpt><trkpt lat="46.2375167" lon="13.0312667"><ele>185.5</ele><time>2026-04-25T13:33:22.957Z</time></trkpt><trkpt lat="46.23765" lon="13.0313467"><ele>189.0</ele><time>2026-04-25T13:33:23.957Z</time></trkpt><trkpt lat="46.2377867" lon="13.0314417"><ele>189.0</ele><time>2026-04-25T13:33:24.957Z</time></trkpt><trkpt lat="46.2379233" lon="13.0315533"><ele>189.0</ele><time>2026-04-25T13:33:25.958Z</time></trkpt><trkpt lat="46.238055" lon="13.0316783"><ele>189.0</ele><time>2026-04-25T13:33:26.957Z</time></trkpt><trkpt lat="46.2381833" lon="13.0318017"><ele>190.0</ele><time>2026-04-25T13:33:27.956Z</time></trkpt><trkpt lat="46.238315" lon="13.031905"><ele>191.0</ele><time>2026-04-25T13:33:28.959Z</time></trkpt><trkpt lat="46.2384417" lon="13.0319983"><ele>192.0</ele><time>2026-04-25T13:33:29.957Z</time></trkpt><trkpt lat="46.238565" lon="13.032085"><ele>193.0</ele><time>2026-04-25T13:33:30.957Z</time></trkpt><trkpt lat="46.2386817" lon="13.0321683"><ele>193.0</ele><time>2026-04-25T13:33:31.959Z</time></trkpt><trkpt lat="46.2387933" lon="13.03225"><ele>193.0</ele><time>2026-04-25T13:33:32.956Z</time></trkpt><trkpt lat="46.2389" lon="13.0323233"><ele>193.0</ele><time>2026-04-25T13:33:33.957Z</time></trkpt><trkpt lat="46.2390033" lon="13.0323933"><ele>193.0</ele><time>2026-04-25T13:33:34.957Z</time></trkpt><trkpt lat="46.2391017" lon="13.0324583"><ele>190.75</ele><time>2026-04-25T13:33:35.957Z</time></trkpt><trkpt lat="46.2392067" lon="13.03251"><ele>188.5</ele><time>2026-04-25T13:33:36.958Z</time></trkpt><trkpt lat="46.23932" lon="13.0325433"><ele>186.25</ele><time>2026-04-25T13:33:37.959Z</time></trkpt><trkpt lat="46.2394367" lon="13.03257"><ele>184.0</ele><time>2026-04-25T13:33:38.957Z</time></trkpt><trkpt lat="46.2395567" lon="13.0325917"><ele>184.0</ele><time>2026-04-25T13:33:39.958Z</time></trkpt><trkpt lat="46.239675" lon="13.032615"><ele>184.0</ele><time>2026-04-25T13:33:40.959Z</time></trkpt><trkpt lat="46.23979" lon="13.0326433"><ele>184.0</ele><time>2026-04-25T13:33:41.958Z</time></trkpt><trkpt lat="46.239905" lon="13.03267"><ele>184.0</ele><time>2026-04-25T13:33:42.959Z</time></trkpt><trkpt lat="46.2400217" lon="13.0327"><ele>186.5</ele><time>2026-04-25T13:33:43.958Z</time></trkpt><trkpt lat="46.2401367" lon="13.0327417"><ele>189.0</ele><time>2026-04-25T13:33:44.957Z</time></trkpt><trkpt lat="46.24025" lon="13.0328017"><ele>191.5</ele><time>2026-04-25T13:33:45.957Z</time></trkpt><trkpt lat="46.24036" lon="13.0328783"><ele>194.0</ele><time>2026-04-25T13:33:46.957Z</time></trkpt><trkpt lat="46.2404617" lon="13.0329733"><ele>194.0</ele><time>2026-04-25T13:33:47.956Z</time></trkpt><trkpt lat="46.2405617" lon="13.0330717"><ele>194.0</ele><time>2026-04-25T13:33:48.956Z</time></trkpt><trkpt lat="46.2406617" lon="13.0331717"><ele>194.0</ele><time>2026-04-25T13:33:49.957Z</time></trkpt><trkpt lat="46.2407633" lon="13.0332733"><ele>194.0</ele><time>2026-04-25T13:33:50.956Z</time></trkpt><trkpt lat="46.2408733" lon="13.0333733"><ele>190.5</ele><time>2026-04-25T13:33:51.957Z</time></trkpt><trkpt lat="46.240995" lon="13.0334617"><ele>187.0</ele><time>2026-04-25T13:33:52.957Z</time></trkpt><trkpt lat="46.24113" lon="13.033535"><ele>183.5</ele><time>2026-04-25T13:33:53.956Z</time></trkpt><trkpt lat="46.2412717" lon="13.033605"><ele>180.0</ele><time>2026-04-25T13:33:54.956Z</time></trkpt><trkpt lat="46.2414167" lon="13.033695"><ele>188.66666666666669</ele><time>2026-04-25T13:33:55.956Z</time></trkpt><trkpt lat="46.2415633" lon="13.0337967"><ele>197.33333333333334</ele><time>2026-04-25T13:33:56.957Z</time></trkpt><trkpt lat="46.241705" lon="13.0339017"><ele>206.0</ele><time>2026-04-25T13:33:57.955Z</time></trkpt><trkpt lat="46.2418433" lon="13.0340083"><ele>206.0</ele><time>2026-04-25T13:33:58.957Z</time></trkpt><trkpt lat="46.24198" lon="13.034115"><ele>206.0</ele><time>2026-04-25T13:33:59.956Z</time></trkpt><trkpt lat="46.242115" lon="13.0342267"><ele>206.0</ele><time>2026-04-25T13:34:00.956Z</time></trkpt><trkpt lat="46.2422517" lon="13.0343333"><ele>203.75</ele><time>2026-04-25T13:34:01.956Z</time></trkpt><trkpt lat="46.242385" lon="13.034435"><ele>201.5</ele><time>2026-04-25T13:34:02.957Z</time></trkpt><trkpt lat="46.2425167" lon="13.0345333"><ele>199.25</ele><time>2026-04-25T13:34:03.955Z</time></trkpt><trkpt lat="46.242645" lon="13.0346267"><ele>197.0</ele><time>2026-04-25T13:34:04.958Z</time></trkpt><trkpt lat="46.2427767" lon="13.0347117"><ele>197.0</ele><time>2026-04-25T13:34:05.957Z</time></trkpt><trkpt lat="46.2429133" lon="13.0347917"><ele>197.0</ele><time>2026-04-25T13:34:06.956Z</time></trkpt><trkpt lat="46.2430467" lon="13.034875"><ele>197.0</ele><time>2026-04-25T13:34:07.956Z</time></trkpt><trkpt lat="46.2431767" lon="13.0349667"><ele>197.0</ele><time>2026-04-25T13:34:08.956Z</time></trkpt><trkpt lat="46.2433067" lon="13.035065"><ele>195.25</ele><time>2026-04-25T13:34:09.957Z</time></trkpt><trkpt lat="46.2434333" lon="13.0351683"><ele>193.5</ele><time>2026-04-25T13:34:10.957Z</time></trkpt><trkpt lat="46.243555" lon="13.0352667"><ele>191.75</ele><time>2026-04-25T13:34:11.956Z</time></trkpt><trkpt lat="46.2436733" lon="13.0353567"><ele>190.0</ele><time>2026-04-25T13:34:12.956Z</time></trkpt><trkpt lat="46.2437967" lon="13.0354433"><ele>190.0</ele><time>2026-04-25T13:34:13.956Z</time></trkpt><trkpt lat="46.243925" lon="13.0355217"><ele>190.0</ele><time>2026-04-25T13:34:14.956Z</time></trkpt><trkpt lat="46.24405" lon="13.035605"><ele>190.0</ele><time>2026-04-25T13:34:15.956Z</time></trkpt><trkpt lat="46.2441717" lon="13.03569"><ele>190.0</ele><time>2026-04-25T13:34:16.957Z</time></trkpt><trkpt lat="46.24429" lon="13.0357717"><ele>189.2</ele><time>2026-04-25T13:34:17.957Z</time></trkpt><trkpt lat="46.2444033" lon="13.0358467"><ele>188.4</ele><time>2026-04-25T13:34:18.957Z</time></trkpt><trkpt lat="46.244505" lon="13.0359217"><ele>187.60000000000002</ele><time>2026-04-25T13:34:19.957Z</time></trkpt><trkpt lat="46.2446017" lon="13.035985"><ele>186.8</ele><time>2026-04-25T13:34:20.956Z</time></trkpt><trkpt lat="46.2447" lon="13.0360317"><ele>186.0</ele><time>2026-04-25T13:34:21.957Z</time></trkpt><trkpt lat="46.244805" lon="13.0360633"><ele>191.5</ele><time>2026-04-25T13:34:22.957Z</time></trkpt><trkpt lat="46.244915" lon="13.0360917"><ele>197.0</ele><time>2026-04-25T13:34:23.956Z</time></trkpt><trkpt lat="46.2450317" lon="13.0361133"><ele>202.5</ele><time>2026-04-25T13:34:24.957Z</time></trkpt><trkpt lat="46.2451483" lon="13.0361467"><ele>208.0</ele><time>2026-04-25T13:34:25.957Z</time></trkpt><trkpt lat="46.2452617" lon="13.0361833"><ele>208.0</ele><time>2026-04-25T13:34:26.957Z</time></trkpt><trkpt lat="46.24538" lon="13.0362283"><ele>208.0</ele><time>2026-04-25T13:34:27.956Z</time></trkpt><trkpt lat="46.2455" lon="13.0362767"><ele>208.0</ele><time>2026-04-25T13:34:28.957Z</time></trkpt><trkpt lat="46.2456217" lon="13.0363117"><ele>208.0</ele><time>2026-04-25T13:34:29.957Z</time></trkpt><trkpt lat="46.24574" lon="13.036345"><ele>211.2</ele><time>2026-04-25T13:34:30.957Z</time></trkpt><trkpt lat="46.2458533" lon="13.0363883"><ele>214.4</ele><time>2026-04-25T13:34:31.957Z</time></trkpt><trkpt lat="46.24596" lon="13.0364467"><ele>217.59999999999997</ele><time>2026-04-25T13:34:32.956Z</time></trkpt><trkpt lat="46.2460533" lon="13.0365183"><ele>220.79999999999998</ele><time>2026-04-25T13:34:33.958Z</time></trkpt><trkpt lat="46.2461517" lon="13.0365817"><ele>224.0</ele><time>2026-04-25T13:34:34.957Z</time></trkpt><trkpt lat="46.2462567" lon="13.0366183"><ele>217.6</ele><time>2026-04-25T13:34:35.957Z</time></trkpt><trkpt lat="46.2463617" lon="13.03665"><ele>211.2</ele><time>2026-04-25T13:34:36.956Z</time></trkpt><trkpt lat="46.2464633" lon="13.03667"><ele>204.79999999999998</ele><time>2026-04-25T13:34:37.957Z</time></trkpt><trkpt lat="46.2465583" lon="13.0366867"><ele>198.39999999999998</ele><time>2026-04-25T13:34:38.958Z</time></trkpt><trkpt lat="46.2466433" lon="13.0367033"><ele>192.0</ele><time>2026-04-25T13:34:39.957Z</time></trkpt><trkpt lat="46.2467217" lon="13.0367183"><ele>192.0</ele><time>2026-04-25T13:34:40.956Z</time></trkpt><trkpt lat="46.246795" lon="13.0367267"><ele>192.0</ele><time>2026-04-25T13:34:41.956Z</time></trkpt><trkpt lat="46.2468617" lon="13.036735"><ele>192.0</ele><time>2026-04-25T13:34:42.957Z</time></trkpt><trkpt lat="46.2469267" lon="13.03674"><ele>192.0</ele><time>2026-04-25T13:34:43.957Z</time></trkpt><trkpt lat="46.24699" lon="13.0367417"><ele>192.0</ele><time>2026-04-25T13:34:44.957Z</time></trkpt><trkpt lat="46.247055" lon="13.0367317"><ele>192.0</ele><time>2026-04-25T13:34:45.958Z</time></trkpt><trkpt lat="46.2471717" lon="13.03672"><ele>192.0</ele><time>2026-04-25T13:34:47.956Z</time></trkpt><trkpt lat="46.2472867" lon="13.036695"><ele>192.0</ele><time>2026-04-25T13:34:49.956Z</time></trkpt><trkpt lat="46.2473467" lon="13.0366617"><ele>192.0</ele><time>2026-04-25T13:34:50.956Z</time></trkpt><trkpt lat="46.2474067" lon="13.0366183"><ele>192.0</ele><time>2026-04-25T13:34:51.957Z</time></trkpt><trkpt lat="46.2474667" lon="13.036555"><ele>192.0</ele><time>2026-04-25T13:34:52.957Z</time></trkpt><trkpt lat="46.24753" lon="13.03649"><ele>192.0</ele><time>2026-04-25T13:34:53.955Z</time></trkpt><trkpt lat="46.2475983" lon="13.036425"><ele>197.8</ele><time>2026-04-25T13:34:54.956Z</time></trkpt><trkpt lat="46.24767" lon="13.0363617"><ele>203.6</ele><time>2026-04-25T13:34:55.957Z</time></trkpt><trkpt lat="46.2477533" lon="13.0363033"><ele>209.40000000000003</ele><time>2026-04-25T13:34:56.956Z</time></trkpt><trkpt lat="46.247845" lon="13.0362583"><ele>215.20000000000002</ele><time>2026-04-25T13:34:57.96Z</time></trkpt><trkpt lat="46.2479567" lon="13.0362283"><ele>221.0</ele><time>2026-04-25T13:34:58.957Z</time></trkpt><trkpt lat="46.2480817" lon="13.0362083"><ele>214.75</ele><time>2026-04-25T13:34:59.955Z</time></trkpt><trkpt lat="46.248215" lon="13.0361917"><ele>208.5</ele><time>2026-04-25T13:35:00.956Z</time></trkpt><trkpt lat="46.2483517" lon="13.03617"><ele>202.25</ele><time>2026-04-25T13:35:01.956Z</time></trkpt><trkpt lat="46.2484933" lon="13.0361467"><ele>196.0</ele><time>2026-04-25T13:35:02.956Z</time></trkpt><trkpt lat="46.248635" lon="13.0361183"><ele>196.0</ele><time>2026-04-25T13:35:03.956Z</time></trkpt><trkpt lat="46.24877" lon="13.036085"><ele>196.0</ele><time>2026-04-25T13:35:04.956Z</time></trkpt><trkpt lat="46.2488967" lon="13.03605"><ele>196.0</ele><time>2026-04-25T13:35:05.956Z</time></trkpt><trkpt lat="46.249025" lon="13.0360167"><ele>196.0</ele><time>2026-04-25T13:35:06.957Z</time></trkpt><trkpt lat="46.2491483" lon="13.0359667"><ele>193.5</ele><time>2026-04-25T13:35:07.957Z</time></trkpt><trkpt lat="46.2492733" lon="13.0359283"><ele>191.0</ele><time>2026-04-25T13:35:08.957Z</time></trkpt><trkpt lat="46.2494" lon="13.0359233"><ele>188.5</ele><time>2026-04-25T13:35:09.957Z</time></trkpt><trkpt lat="46.2495283" lon="13.0359483"><ele>186.0</ele><time>2026-04-25T13:35:10.957Z</time></trkpt><trkpt lat="46.2496483" lon="13.0360183"><ele>186.0</ele><time>2026-04-25T13:35:11.955Z</time></trkpt><trkpt lat="46.249755" lon="13.0361117"><ele>186.0</ele><time>2026-04-25T13:35:12.957Z</time></trkpt><trkpt lat="46.249845" lon="13.0362233"><ele>186.0</ele><time>2026-04-25T13:35:13.956Z</time></trkpt><trkpt lat="46.2499317" lon="13.0363283"><ele>186.0</ele><time>2026-04-25T13:35:14.956Z</time></trkpt><trkpt lat="46.2500133" lon="13.03643"><ele>186.25</ele><time>2026-04-25T13:35:15.956Z</time></trkpt><trkpt lat="46.2501033" lon="13.0365217"><ele>186.5</ele><time>2026-04-25T13:35:16.957Z</time></trkpt><trkpt lat="46.2502033" lon="13.0365933"><ele>186.75</ele><time>2026-04-25T13:35:17.955Z</time></trkpt><trkpt lat="46.2503133" lon="13.036655"><ele>187.0</ele><time>2026-04-25T13:35:18.956Z</time></trkpt><trkpt lat="46.2504267" lon="13.0367017"><ele>185.75</ele><time>2026-04-25T13:35:19.956Z</time></trkpt><trkpt lat="46.2505483" lon="13.0367433"><ele>184.5</ele><time>2026-04-25T13:35:20.956Z</time></trkpt><trkpt lat="46.25068" lon="13.0367517"><ele>183.25</ele><time>2026-04-25T13:35:21.957Z</time></trkpt><trkpt lat="46.2508317" lon="13.036735"><ele>182.0</ele><time>2026-04-25T13:35:22.957Z</time></trkpt><trkpt lat="46.2510117" lon="13.0367"><ele>182.0</ele><time>2026-04-25T13:35:23.956Z</time></trkpt><trkpt lat="46.251205" lon="13.0366633"><ele>182.0</ele><time>2026-04-25T13:35:24.957Z</time></trkpt><trkpt lat="46.2513967" lon="13.036635"><ele>182.0</ele><time>2026-04-25T13:35:25.956Z</time></trkpt><trkpt lat="46.251585" lon="13.0366283"><ele>180.0</ele><time>2026-04-25T13:35:26.956Z</time></trkpt><trkpt lat="46.251765" lon="13.0366383"><ele>178.0</ele><time>2026-04-25T13:35:27.957Z</time></trkpt><trkpt lat="46.2519433" lon="13.036665"><ele>176.0</ele><time>2026-04-25T13:35:28.955Z</time></trkpt><trkpt lat="46.2521233" lon="13.0367083"><ele>177.33333333333331</ele><time>2026-04-25T13:35:29.955Z</time></trkpt><trkpt lat="46.2523033" lon="13.036775"><ele>178.66666666666666</ele><time>2026-04-25T13:35:30.957Z</time></trkpt><trkpt lat="46.25248" lon="13.0368567"><ele>180.0</ele><time>2026-04-25T13:35:31.957Z</time></trkpt><trkpt lat="46.25266" lon="13.0369467"><ele>180.0</ele><time>2026-04-25T13:35:32.957Z</time></trkpt><trkpt lat="46.25284" lon="13.0370417"><ele>180.0</ele><time>2026-04-25T13:35:33.957Z</time></trkpt><trkpt lat="46.2530183" lon="13.0371367"><ele>180.0</ele><time>2026-04-25T13:35:34.958Z</time></trkpt><trkpt lat="46.2532017" lon="13.037215"><ele>182.66666666666666</ele><time>2026-04-25T13:35:35.956Z</time></trkpt><trkpt lat="46.253395" lon="13.03726"><ele>185.33333333333331</ele><time>2026-04-25T13:35:36.955Z</time></trkpt><trkpt lat="46.253595" lon="13.0372817"><ele>188.0</ele><time>2026-04-25T13:35:37.957Z</time></trkpt><trkpt lat="46.253785" lon="13.037285"><ele>191.0</ele><time>2026-04-25T13:35:38.955Z</time></trkpt><trkpt lat="46.2539817" lon="13.0372933"><ele>194.0</ele><time>2026-04-25T13:35:39.957Z</time></trkpt><trkpt lat="46.2541767" lon="13.0373283"><ele>197.0</ele><time>2026-04-25T13:35:40.956Z</time></trkpt><trkpt lat="46.2543633" lon="13.037395"><ele>194.33333333333334</ele><time>2026-04-25T13:35:41.956Z</time></trkpt><trkpt lat="46.2545483" lon="13.037485"><ele>191.66666666666669</ele><time>2026-04-25T13:35:42.956Z</time></trkpt><trkpt lat="46.2547283" lon="13.03758"><ele>189.0</ele><time>2026-04-25T13:35:43.957Z</time></trkpt><trkpt lat="46.2549067" lon="13.03768"><ele>189.0</ele><time>2026-04-25T13:35:44.957Z</time></trkpt><trkpt lat="46.2550783" lon="13.0377783"><ele>189.0</ele><time>2026-04-25T13:35:45.957Z</time></trkpt><trkpt lat="46.2552383" lon="13.03788"><ele>189.0</ele><time>2026-04-25T13:35:46.957Z</time></trkpt><trkpt lat="46.255385" lon="13.0379867"><ele>189.0</ele><time>2026-04-25T13:35:47.956Z</time></trkpt><trkpt lat="46.2555117" lon="13.0381133"><ele>189.0</ele><time>2026-04-25T13:35:48.956Z</time></trkpt><trkpt lat="46.2556217" lon="13.03825"><ele>189.0</ele><time>2026-04-25T13:35:49.957Z</time></trkpt><trkpt lat="46.255715" lon="13.0384"><ele>189.0</ele><time>2026-04-25T13:35:50.956Z</time></trkpt><trkpt lat="46.2558" lon="13.0385667"><ele>187.25</ele><time>2026-04-25T13:35:51.957Z</time></trkpt><trkpt lat="46.2558783" lon="13.0387383"><ele>185.5</ele><time>2026-04-25T13:35:52.959Z</time></trkpt><trkpt lat="46.2559567" lon="13.0389033"><ele>183.75</ele><time>2026-04-25T13:35:53.957Z</time></trkpt><trkpt lat="46.256035" lon="13.0390717"><ele>182.0</ele><time>2026-04-25T13:35:54.958Z</time></trkpt><trkpt lat="46.2561167" lon="13.03923"><ele>182.5</ele><time>2026-04-25T13:35:55.958Z</time></trkpt><trkpt lat="46.2561967" lon="13.039385"><ele>183.0</ele><time>2026-04-25T13:35:56.956Z</time></trkpt><trkpt lat="46.2562917" lon="13.03952"><ele>183.5</ele><time>2026-04-25T13:35:57.956Z</time></trkpt><trkpt lat="46.2564" lon="13.0396283"><ele>184.0</ele><time>2026-04-25T13:35:58.958Z</time></trkpt><trkpt lat="46.2565217" lon="13.0397133"><ele>184.0</ele><time>2026-04-25T13:35:59.956Z</time></trkpt><trkpt lat="46.2566517" lon="13.039785"><ele>184.0</ele><time>2026-04-25T13:36:00.957Z</time></trkpt><trkpt lat="46.2567767" lon="13.0398483"><ele>184.0</ele><time>2026-04-25T13:36:01.957Z</time></trkpt><trkpt lat="46.2569067" lon="13.0399117"><ele>184.0</ele><time>2026-04-25T13:36:02.957Z</time></trkpt><trkpt lat="46.2570383" lon="13.03998"><ele>184.25</ele><time>2026-04-25T13:36:03.958Z</time></trkpt><trkpt lat="46.2571767" lon="13.0400483"><ele>184.5</ele><time>2026-04-25T13:36:04.959Z</time></trkpt><trkpt lat="46.257315" lon="13.04012"><ele>184.75</ele><time>2026-04-25T13:36:05.958Z</time></trkpt><trkpt lat="46.2574617" lon="13.0401933"><ele>185.0</ele><time>2026-04-25T13:36:06.957Z</time></trkpt><trkpt lat="46.2576083" lon="13.0402667"><ele>186.66666666666666</ele><time>2026-04-25T13:36:07.958Z</time></trkpt><trkpt lat="46.2577567" lon="13.04034"><ele>188.33333333333334</ele><time>2026-04-25T13:36:08.958Z</time></trkpt><trkpt lat="46.2579033" lon="13.0404133"><ele>190.0</ele><time>2026-04-25T13:36:09.958Z</time></trkpt><trkpt lat="46.2580533" lon="13.0404867"><ele>191.33333333333334</ele><time>2026-04-25T13:36:10.958Z</time></trkpt><trkpt lat="46.2582017" lon="13.0405617"><ele>192.66666666666669</ele><time>2026-04-25T13:36:11.957Z</time></trkpt><trkpt lat="46.2583533" lon="13.0406367"><ele>194.0</ele><time>2026-04-25T13:36:12.956Z</time></trkpt><trkpt lat="46.258505" lon="13.0407133"><ele>194.0</ele><time>2026-04-25T13:36:13.958Z</time></trkpt><trkpt lat="46.2586567" lon="13.04079"><ele>194.0</ele><time>2026-04-25T13:36:14.956Z</time></trkpt><trkpt lat="46.2588017" lon="13.0408683"><ele>194.0</ele><time>2026-04-25T13:36:15.956Z</time></trkpt><trkpt lat="46.2589417" lon="13.040945"><ele>194.25</ele><time>2026-04-25T13:36:16.957Z</time></trkpt><trkpt lat="46.2590733" lon="13.0410167"><ele>194.5</ele><time>2026-04-25T13:36:17.957Z</time></trkpt><trkpt lat="46.2591967" lon="13.0410817"><ele>194.75</ele><time>2026-04-25T13:36:18.957Z</time></trkpt><trkpt lat="46.2593117" lon="13.0411383"><ele>195.0</ele><time>2026-04-25T13:36:19.956Z</time></trkpt><trkpt lat="46.2594233" lon="13.0411767"><ele>195.0</ele><time>2026-04-25T13:36:20.957Z</time></trkpt><trkpt lat="46.2595367" lon="13.0411733"><ele>195.0</ele><time>2026-04-25T13:36:21.958Z</time></trkpt><trkpt lat="46.25965" lon="13.0411217"><ele>195.0</ele><time>2026-04-25T13:36:22.958Z</time></trkpt><trkpt lat="46.2597717" lon="13.04103"><ele>195.0</ele><time>2026-04-25T13:36:23.957Z</time></trkpt><trkpt lat="46.2598983" lon="13.0409217"><ele>194.5</ele><time>2026-04-25T13:36:24.958Z</time></trkpt><trkpt lat="46.2600283" lon="13.04081"><ele>194.0</ele><time>2026-04-25T13:36:25.958Z</time></trkpt><trkpt lat="46.2601517" lon="13.0407017"><ele>193.5</ele><time>2026-04-25T13:36:26.957Z</time></trkpt><trkpt lat="46.260275" lon="13.0406033"><ele>193.0</ele><time>2026-04-25T13:36:27.957Z</time></trkpt><trkpt lat="46.2604033" lon="13.040525"><ele>194.5</ele><time>2026-04-25T13:36:28.957Z</time></trkpt><trkpt lat="46.26054" lon="13.0404867"><ele>196.0</ele><time>2026-04-25T13:36:29.956Z</time></trkpt><trkpt lat="46.260685" lon="13.0404883"><ele>197.5</ele><time>2026-04-25T13:36:30.957Z</time></trkpt><trkpt lat="46.2608383" lon="13.040525"><ele>199.0</ele><time>2026-04-25T13:36:31.958Z</time></trkpt><trkpt lat="46.2609983" lon="13.04058"><ele>200.33333333333331</ele><time>2026-04-25T13:36:32.957Z</time></trkpt><trkpt lat="46.2611683" lon="13.0406483"><ele>201.66666666666669</ele><time>2026-04-25T13:36:33.958Z</time></trkpt><trkpt lat="46.2613383" lon="13.0407267"><ele>203.0</ele><time>2026-04-25T13:36:34.959Z</time></trkpt><trkpt lat="46.2615083" lon="13.0408233"><ele>203.0</ele><time>2026-04-25T13:36:35.957Z</time></trkpt><trkpt lat="46.2616683" lon="13.0409467"><ele>203.0</ele><time>2026-04-25T13:36:36.957Z</time></trkpt><trkpt lat="46.261815" lon="13.0410983"><ele>203.0</ele><time>2026-04-25T13:36:37.956Z</time></trkpt><trkpt lat="46.2619583" lon="13.041275"><ele>203.0</ele><time>2026-04-25T13:36:38.956Z</time></trkpt><trkpt lat="46.262095" lon="13.0414783"><ele>203.0</ele><time>2026-04-25T13:36:39.956Z</time></trkpt><trkpt lat="46.2622267" lon="13.0416933"><ele>203.0</ele><time>2026-04-25T13:36:40.958Z</time></trkpt><trkpt lat="46.262355" lon="13.0419133"><ele>203.33333333333334</ele><time>2026-04-25T13:36:41.957Z</time></trkpt><trkpt lat="46.2624817" lon="13.042135"><ele>203.66666666666669</ele><time>2026-04-25T13:36:42.958Z</time></trkpt><trkpt lat="46.2626117" lon="13.04235"><ele>204.0</ele><time>2026-04-25T13:36:43.959Z</time></trkpt><trkpt lat="46.2627367" lon="13.042565"><ele>206.66666666666669</ele><time>2026-04-25T13:36:44.957Z</time></trkpt><trkpt lat="46.2628633" lon="13.0427683"><ele>209.33333333333334</ele><time>2026-04-25T13:36:45.958Z</time></trkpt><trkpt lat="46.2630033" lon="13.0429533"><ele>212.0</ele><time>2026-04-25T13:36:46.958Z</time></trkpt><trkpt lat="46.2631633" lon="13.0431117"><ele>212.0</ele><time>2026-04-25T13:36:47.957Z</time></trkpt><trkpt lat="46.263335" lon="13.0432383"><ele>212.0</ele><time>2026-04-25T13:36:48.957Z</time></trkpt><trkpt lat="46.263515" lon="13.04333"><ele>212.0</ele><time>2026-04-25T13:36:49.957Z</time></trkpt><trkpt lat="46.2636933" lon="13.0434067"><ele>211.66666666666669</ele><time>2026-04-25T13:36:50.956Z</time></trkpt><trkpt lat="46.263865" lon="13.0434833"><ele>211.33333333333331</ele><time>2026-04-25T13:36:51.956Z</time></trkpt><trkpt lat="46.2640317" lon="13.043565"><ele>211.0</ele><time>2026-04-25T13:36:52.957Z</time></trkpt><trkpt lat="46.264195" lon="13.0436567"><ele>211.0</ele><time>2026-04-25T13:36:53.956Z</time></trkpt><trkpt lat="46.264355" lon="13.0437733"><ele>211.0</ele><time>2026-04-25T13:36:54.958Z</time></trkpt><trkpt lat="46.2645083" lon="13.0439283"><ele>211.0</ele><time>2026-04-25T13:36:55.958Z</time></trkpt><trkpt lat="46.2646483" lon="13.044115"><ele>212.0</ele><time>2026-04-25T13:36:56.956Z</time></trkpt><trkpt lat="46.2647783" lon="13.0443133"><ele>213.0</ele><time>2026-04-25T13:36:57.957Z</time></trkpt><trkpt lat="46.2649067" lon="13.0445117"><ele>214.0</ele><time>2026-04-25T13:36:58.958Z</time></trkpt><trkpt lat="46.2650433" lon="13.0447117"><ele>214.0</ele><time>2026-04-25T13:36:59.956Z</time></trkpt><trkpt lat="46.2651833" lon="13.0449183"><ele>214.0</ele><time>2026-04-25T13:37:00.956Z</time></trkpt><trkpt lat="46.26533" lon="13.0451317"><ele>214.0</ele><time>2026-04-25T13:37:01.957Z</time></trkpt><trkpt lat="46.2654817" lon="13.045355"><ele>218.0</ele><time>2026-04-25T13:37:02.956Z</time></trkpt><trkpt lat="46.2656333" lon="13.045585"><ele>222.0</ele><time>2026-04-25T13:37:03.957Z</time></trkpt><trkpt lat="46.2657883" lon="13.045815"><ele>226.0</ele><time>2026-04-25T13:37:04.957Z</time></trkpt><trkpt lat="46.2659433" lon="13.046045"><ele>217.66666666666666</ele><time>2026-04-25T13:37:05.957Z</time></trkpt><trkpt lat="46.2661" lon="13.0462717"><ele>209.33333333333331</ele><time>2026-04-25T13:37:06.96Z</time></trkpt><trkpt lat="46.2662533" lon="13.04651"><ele>201.0</ele><time>2026-04-25T13:37:07.957Z</time></trkpt><trkpt lat="46.2664017" lon="13.046755"><ele>203.0</ele><time>2026-04-25T13:37:08.957Z</time></trkpt><trkpt lat="46.2665433" lon="13.0470133"><ele>205.0</ele><time>2026-04-25T13:37:09.957Z</time></trkpt><trkpt lat="46.2666733" lon="13.0472867"><ele>197.5</ele><time>2026-04-25T13:37:10.958Z</time></trkpt><trkpt lat="46.2667917" lon="13.04757"><ele>190.0</ele><time>2026-04-25T13:37:11.957Z</time></trkpt><trkpt lat="46.2669" lon="13.0478633"><ele>190.0</ele><time>2026-04-25T13:37:12.957Z</time></trkpt><trkpt lat="46.2669967" lon="13.0481683"><ele>190.0</ele><time>2026-04-25T13:37:13.957Z</time></trkpt><trkpt lat="46.267085" lon="13.04848"><ele>187.0</ele><time>2026-04-25T13:37:14.956Z</time></trkpt><trkpt lat="46.2671683" lon="13.0487983"><ele>184.0</ele><time>2026-04-25T13:37:15.957Z</time></trkpt><trkpt lat="46.2672533" lon="13.049125"><ele>186.0</ele><time>2026-04-25T13:37:16.957Z</time></trkpt><trkpt lat="46.267335" lon="13.0494567"><ele>188.0</ele><time>2026-04-25T13:37:17.956Z</time></trkpt><trkpt lat="46.2674183" lon="13.049785"><ele>186.0</ele><time>2026-04-25T13:37:18.957Z</time></trkpt><trkpt lat="46.267505" lon="13.0501167"><ele>184.0</ele><time>2026-04-25T13:37:19.957Z</time></trkpt><trkpt lat="46.2675917" lon="13.0504533"><ele>183.5</ele><time>2026-04-25T13:37:20.958Z</time></trkpt><trkpt lat="46.2676783" lon="13.0507917"><ele>183.0</ele><time>2026-04-25T13:37:21.959Z</time></trkpt><trkpt lat="46.2677667" lon="13.051125"><ele>183.0</ele><time>2026-04-25T13:37:22.958Z</time></trkpt><trkpt lat="46.2678533" lon="13.051455"><ele>183.0</ele><time>2026-04-25T13:37:23.958Z</time></trkpt><trkpt lat="46.2679417" lon="13.051785"><ele>183.5</ele><time>2026-04-25T13:37:24.958Z</time></trkpt><trkpt lat="46.2680267" lon="13.0521133"><ele>184.0</ele><time>2026-04-25T13:37:25.959Z</time></trkpt><trkpt lat="46.26811" lon="13.052435"><ele>186.0</ele><time>2026-04-25T13:37:26.957Z</time></trkpt><trkpt lat="46.268195" lon="13.0527533"><ele>188.0</ele><time>2026-04-25T13:37:27.959Z</time></trkpt><trkpt lat="46.2682883" lon="13.05306"><ele>187.0</ele><time>2026-04-25T13:37:28.959Z</time></trkpt><trkpt lat="46.2683917" lon="13.0533567"><ele>186.0</ele><time>2026-04-25T13:37:29.958Z</time></trkpt><trkpt lat="46.2685067" lon="13.0536433"><ele>186.0</ele><time>2026-04-25T13:37:30.958Z</time></trkpt><trkpt lat="46.2686367" lon="13.05392"><ele>186.0</ele><time>2026-04-25T13:37:31.959Z</time></trkpt><trkpt lat="46.26878" lon="13.0541817"><ele>186.0</ele><time>2026-04-25T13:37:32.957Z</time></trkpt><trkpt lat="46.268935" lon="13.05443"><ele>186.0</ele><time>2026-04-25T13:37:33.957Z</time></trkpt><trkpt lat="46.2691033" lon="13.05466"><ele>186.0</ele><time>2026-04-25T13:37:34.957Z</time></trkpt><trkpt lat="46.2692833" lon="13.05488"><ele>186.0</ele><time>2026-04-25T13:37:35.957Z</time></trkpt><trkpt lat="46.26947" lon="13.055085"><ele>186.0</ele><time>2026-04-25T13:37:36.955Z</time></trkpt><trkpt lat="46.26967" lon="13.05527"><ele>186.0</ele><time>2026-04-25T13:37:37.956Z</time></trkpt><trkpt lat="46.2698817" lon="13.055435"><ele>186.0</ele><time>2026-04-25T13:37:38.957Z</time></trkpt><trkpt lat="46.2701" lon="13.05559"><ele>186.0</ele><time>2026-04-25T13:37:39.957Z</time></trkpt><trkpt lat="46.2703233" lon="13.0557383"><ele>185.0</ele><time>2026-04-25T13:37:40.957Z</time></trkpt><trkpt lat="46.2705517" lon="13.05588"><ele>184.0</ele><time>2026-04-25T13:37:41.957Z</time></trkpt><trkpt lat="46.2707867" lon="13.0560167"><ele>186.5</ele><time>2026-04-25T13:37:42.957Z</time></trkpt><trkpt lat="46.2710183" lon="13.0561583"><ele>189.0</ele><time>2026-04-25T13:37:43.956Z</time></trkpt><trkpt lat="46.2712533" lon="13.0563017"><ele>189.0</ele><time>2026-04-25T13:37:44.956Z</time></trkpt><trkpt lat="46.2714867" lon="13.0564517"><ele>189.0</ele><time>2026-04-25T13:37:45.956Z</time></trkpt><trkpt lat="46.2717217" lon="13.0566017"><ele>187.0</ele><time>2026-04-25T13:37:46.958Z</time></trkpt><trkpt lat="46.2719583" lon="13.0567517"><ele>185.0</ele><time>2026-04-25T13:37:47.956Z</time></trkpt><trkpt lat="46.272195" lon="13.0569"><ele>188.0</ele><time>2026-04-25T13:37:48.957Z</time></trkpt><trkpt lat="46.2724333" lon="13.057045"><ele>191.0</ele><time>2026-04-25T13:37:49.957Z</time></trkpt><trkpt lat="46.2726717" lon="13.057195"><ele>191.0</ele><time>2026-04-25T13:37:50.958Z</time></trkpt><trkpt lat="46.2729067" lon="13.0573433"><ele>191.0</ele><time>2026-04-25T13:37:51.959Z</time></trkpt><trkpt lat="46.2731433" lon="13.05749"><ele>188.0</ele><time>2026-04-25T13:37:52.959Z</time></trkpt><trkpt lat="46.27338" lon="13.0576367"><ele>185.0</ele><time>2026-04-25T13:37:53.958Z</time></trkpt><trkpt lat="46.2736167" lon="13.0577817"><ele>185.0</ele><time>2026-04-25T13:37:54.956Z</time></trkpt><trkpt lat="46.2738517" lon="13.057925"><ele>185.0</ele><time>2026-04-25T13:37:55.956Z</time></trkpt><trkpt lat="46.2740833" lon="13.0580717"><ele>185.0</ele><time>2026-04-25T13:37:56.957Z</time></trkpt><trkpt lat="46.2743183" lon="13.058225"><ele>185.0</ele><time>2026-04-25T13:37:57.957Z</time></trkpt><trkpt lat="46.27455" lon="13.0583767"><ele>185.5</ele><time>2026-04-25T13:37:58.958Z</time></trkpt><trkpt lat="46.27478" lon="13.0585217"><ele>186.0</ele><time>2026-04-25T13:37:59.955Z</time></trkpt><trkpt lat="46.275005" lon="13.0586683"><ele>186.0</ele><time>2026-04-25T13:38:00.958Z</time></trkpt><trkpt lat="46.2752283" lon="13.0588083"><ele>186.0</ele><time>2026-04-25T13:38:01.958Z</time></trkpt><trkpt lat="46.2754483" lon="13.0589467"><ele>185.5</ele><time>2026-04-25T13:38:02.957Z</time></trkpt><trkpt lat="46.2756667" lon="13.0590817"><ele>185.0</ele><time>2026-04-25T13:38:03.957Z</time></trkpt><trkpt lat="46.2758867" lon="13.0592117"><ele>184.5</ele><time>2026-04-25T13:38:04.958Z</time></trkpt><trkpt lat="46.2761067" lon="13.0593317"><ele>184.0</ele><time>2026-04-25T13:38:05.959Z</time></trkpt><trkpt lat="46.27633" lon="13.0594383"><ele>184.0</ele><time>2026-04-25T13:38:06.957Z</time></trkpt><trkpt lat="46.2765583" lon="13.0595217"><ele>184.0</ele><time>2026-04-25T13:38:07.958Z</time></trkpt><trkpt lat="46.2767917" lon="13.0595833"><ele>184.0</ele><time>2026-04-25T13:38:08.958Z</time></trkpt><trkpt lat="46.2770283" lon="13.05963"><ele>184.0</ele><time>2026-04-25T13:38:09.957Z</time></trkpt><trkpt lat="46.2772633" lon="13.0596667"><ele>186.0</ele><time>2026-04-25T13:38:10.958Z</time></trkpt><trkpt lat="46.2775" lon="13.0597"><ele>188.0</ele><time>2026-04-25T13:38:11.957Z</time></trkpt><trkpt lat="46.2777367" lon="13.059735"><ele>188.0</ele><time>2026-04-25T13:38:12.957Z</time></trkpt><trkpt lat="46.277975" lon="13.059765"><ele>188.0</ele><time>2026-04-25T13:38:13.957Z</time></trkpt><trkpt lat="46.2782133" lon="13.059795"><ele>191.0</ele><time>2026-04-25T13:38:14.956Z</time></trkpt><trkpt lat="46.2784567" lon="13.0598283"><ele>194.0</ele><time>2026-04-25T13:38:15.956Z</time></trkpt><trkpt lat="46.2787033" lon="13.0598617"><ele>192.5</ele><time>2026-04-25T13:38:16.957Z</time></trkpt><trkpt lat="46.2789517" lon="13.0598933"><ele>191.0</ele><time>2026-04-25T13:38:17.956Z</time></trkpt><trkpt lat="46.2791983" lon="13.0599283"><ele>189.5</ele><time>2026-04-25T13:38:18.956Z</time></trkpt><trkpt lat="46.2794483" lon="13.0599633"><ele>188.0</ele><time>2026-04-25T13:38:19.956Z</time></trkpt><trkpt lat="46.2797" lon="13.06"><ele>185.5</ele><time>2026-04-25T13:38:20.956Z</time></trkpt><trkpt lat="46.2799517" lon="13.060035"><ele>183.0</ele><time>2026-04-25T13:38:21.956Z</time></trkpt><trkpt lat="46.2801983" lon="13.0600733"><ele>183.0</ele><time>2026-04-25T13:38:22.956Z</time></trkpt><trkpt lat="46.2804433" lon="13.060115"><ele>183.0</ele><time>2026-04-25T13:38:23.956Z</time></trkpt><trkpt lat="46.2806883" lon="13.060155"><ele>181.5</ele><time>2026-04-25T13:38:24.957Z</time></trkpt><trkpt lat="46.2809283" lon="13.0601867"><ele>180.0</ele><time>2026-04-25T13:38:25.957Z</time></trkpt><trkpt lat="46.28117" lon="13.06022"><ele>180.0</ele><time>2026-04-25T13:38:26.956Z</time></trkpt><trkpt lat="46.2814117" lon="13.060255"><ele>180.0</ele><time>2026-04-25T13:38:27.957Z</time></trkpt><trkpt lat="46.28165" lon="13.06029"><ele>180.0</ele><time>2026-04-25T13:38:28.956Z</time></trkpt><trkpt lat="46.2818833" lon="13.0603233"><ele>180.0</ele><time>2026-04-25T13:38:29.956Z</time></trkpt><trkpt lat="46.28212" lon="13.06036"><ele>181.0</ele><time>2026-04-25T13:38:30.956Z</time></trkpt><trkpt lat="46.28235" lon="13.0603917"><ele>182.0</ele><time>2026-04-25T13:38:31.957Z</time></trkpt><trkpt lat="46.28257" lon="13.060425"><ele>182.0</ele><time>2026-04-25T13:38:32.956Z</time></trkpt><trkpt lat="46.2827833" lon="13.0604533"><ele>182.0</ele><time>2026-04-25T13:38:33.958Z</time></trkpt><trkpt lat="46.28299" lon="13.06048"><ele>182.0</ele><time>2026-04-25T13:38:34.956Z</time></trkpt><trkpt lat="46.2831983" lon="13.0605017"><ele>181.66666666666666</ele><time>2026-04-25T13:38:35.955Z</time></trkpt><trkpt lat="46.2834067" lon="13.06051"><ele>181.33333333333334</ele><time>2026-04-25T13:38:36.955Z</time></trkpt><trkpt lat="46.2836067" lon="13.060505"><ele>181.0</ele><time>2026-04-25T13:38:37.955Z</time></trkpt><trkpt lat="46.2838" lon="13.0604783"><ele>181.33333333333334</ele><time>2026-04-25T13:38:38.957Z</time></trkpt><trkpt lat="46.2839767" lon="13.0604367"><ele>181.66666666666666</ele><time>2026-04-25T13:38:39.957Z</time></trkpt><trkpt lat="46.28414" lon="13.060385"><ele>182.0</ele><time>2026-04-25T13:38:40.958Z</time></trkpt><trkpt lat="46.28429" lon="13.0603317"><ele>182.0</ele><time>2026-04-25T13:38:41.956Z</time></trkpt><trkpt lat="46.2844317" lon="13.060285"><ele>182.0</ele><time>2026-04-25T13:38:42.957Z</time></trkpt><trkpt lat="46.28456" lon="13.06025"><ele>182.0</ele><time>2026-04-25T13:38:43.956Z</time></trkpt><trkpt lat="46.28467" lon="13.0602233"><ele>182.0</ele><time>2026-04-25T13:38:44.955Z</time></trkpt><trkpt lat="46.2847733" lon="13.0602017"><ele>182.33333333333331</ele><time>2026-04-25T13:38:45.956Z</time></trkpt><trkpt lat="46.2848717" lon="13.0602117"><ele>182.66666666666666</ele><time>2026-04-25T13:38:46.955Z</time></trkpt><trkpt lat="46.2849567" lon="13.0602483"><ele>183.0</ele><time>2026-04-25T13:38:47.956Z</time></trkpt><trkpt lat="46.2850317" lon="13.0603"><ele>183.33333333333334</ele><time>2026-04-25T13:38:48.957Z</time></trkpt><trkpt lat="46.28509" lon="13.060365"><ele>183.66666666666669</ele><time>2026-04-25T13:38:49.955Z</time></trkpt><trkpt lat="46.2851483" lon="13.0604383"><ele>184.0</ele><time>2026-04-25T13:38:50.955Z</time></trkpt><trkpt lat="46.285195" lon="13.0605383"><ele>184.0</ele><time>2026-04-25T13:38:51.957Z</time></trkpt><trkpt lat="46.2852267" lon="13.06067"><ele>184.0</ele><time>2026-04-25T13:38:52.956Z</time></trkpt><trkpt lat="46.285235" lon="13.0608183"><ele>184.0</ele><time>2026-04-25T13:38:53.956Z</time></trkpt><trkpt lat="46.2852333" lon="13.0609667"><ele>184.0</ele><time>2026-04-25T13:38:54.956Z</time></trkpt><trkpt lat="46.285225" lon="13.0611067"><ele>184.0</ele><time>2026-04-25T13:38:55.956Z</time></trkpt><trkpt lat="46.2852167" lon="13.0612533"><ele>184.0</ele><time>2026-04-25T13:38:56.956Z</time></trkpt><trkpt lat="46.2852067" lon="13.0614067"><ele>184.0</ele><time>2026-04-25T13:38:57.956Z</time></trkpt><trkpt lat="46.2851967" lon="13.0615633"><ele>184.0</ele><time>2026-04-25T13:38:58.957Z</time></trkpt><trkpt lat="46.2851867" lon="13.0617183"><ele>184.0</ele><time>2026-04-25T13:38:59.957Z</time></trkpt><trkpt lat="46.2851833" lon="13.0618717"><ele>184.0</ele><time>2026-04-25T13:39:00.957Z</time></trkpt><trkpt lat="46.2851867" lon="13.0620233"><ele>184.2</ele><time>2026-04-25T13:39:01.957Z</time></trkpt><trkpt lat="46.2852" lon="13.062175"><ele>184.39999999999998</ele><time>2026-04-25T13:39:02.957Z</time></trkpt><trkpt lat="46.28522" lon="13.0623217"><ele>184.6</ele><time>2026-04-25T13:39:03.959Z</time></trkpt><trkpt lat="46.28525" lon="13.0624617"><ele>184.8</ele><time>2026-04-25T13:39:04.958Z</time></trkpt><trkpt lat="46.2852933" lon="13.0625983"><ele>185.0</ele><time>2026-04-25T13:39:05.959Z</time></trkpt><trkpt lat="46.285355" lon="13.06273"><ele>185.4</ele><time>2026-04-25T13:39:06.956Z</time></trkpt><trkpt lat="46.2854233" lon="13.06285"><ele>185.8</ele><time>2026-04-25T13:39:07.955Z</time></trkpt><trkpt lat="46.28549" lon="13.0629583"><ele>186.2</ele><time>2026-04-25T13:39:08.956Z</time></trkpt><trkpt lat="46.28555" lon="13.0630583"><ele>186.6</ele><time>2026-04-25T13:39:09.956Z</time></trkpt><trkpt lat="46.2856033" lon="13.06316"><ele>187.0</ele><time>2026-04-25T13:39:10.957Z</time></trkpt><trkpt lat="46.285645" lon="13.063265"><ele>187.2</ele><time>2026-04-25T13:39:11.956Z</time></trkpt><trkpt lat="46.2856633" lon="13.0633817"><ele>187.39999999999998</ele><time>2026-04-25T13:39:12.957Z</time></trkpt><trkpt lat="46.2856683" lon="13.0634867"><ele>187.60000000000002</ele><time>2026-04-25T13:39:13.956Z</time></trkpt><trkpt lat="46.2856283" lon="13.0636333"><ele>187.8</ele><time>2026-04-25T13:39:15.956Z</time></trkpt><trkpt lat="46.2855683" lon="13.063705"><ele>188.0</ele><time>2026-04-25T13:39:16.957Z</time></trkpt><trkpt lat="46.2854767" lon="13.06379"><ele>188.0</ele><time>2026-04-25T13:39:17.956Z</time></trkpt><trkpt lat="46.2853733" lon="13.0638883"><ele>188.0</ele><time>2026-04-25T13:39:18.956Z</time></trkpt><trkpt lat="46.2852667" lon="13.0639933"><ele>188.0</ele><time>2026-04-25T13:39:19.955Z</time></trkpt><trkpt lat="46.2851617" lon="13.064105"><ele>188.0</ele><time>2026-04-25T13:39:20.956Z</time></trkpt><trkpt lat="46.2850583" lon="13.064225"><ele>187.75</ele><time>2026-04-25T13:39:21.958Z</time></trkpt><trkpt lat="46.284955" lon="13.0643583"><ele>187.5</ele><time>2026-04-25T13:39:22.958Z</time></trkpt><trkpt lat="46.284855" lon="13.06451"><ele>187.25</ele><time>2026-04-25T13:39:23.957Z</time></trkpt><trkpt lat="46.2847617" lon="13.0646833"><ele>187.0</ele><time>2026-04-25T13:39:24.958Z</time></trkpt><trkpt lat="46.284675" lon="13.0648783"><ele>188.66666666666669</ele><time>2026-04-25T13:39:25.958Z</time></trkpt><trkpt lat="46.28459" lon="13.065085"><ele>190.33333333333334</ele><time>2026-04-25T13:39:26.957Z</time></trkpt><trkpt lat="46.2845033" lon="13.0652967"><ele>192.0</ele><time>2026-04-25T13:39:27.957Z</time></trkpt><trkpt lat="46.2844117" lon="13.0655133"><ele>192.0</ele><time>2026-04-25T13:39:28.957Z</time></trkpt><trkpt lat="46.2843333" lon="13.065745"><ele>192.0</ele><time>2026-04-25T13:39:29.957Z</time></trkpt><trkpt lat="46.2842533" lon="13.065975"><ele>192.0</ele><time>2026-04-25T13:39:30.957Z</time></trkpt><trkpt lat="46.28417" lon="13.0662033"><ele>192.0</ele><time>2026-04-25T13:39:31.956Z</time></trkpt><trkpt lat="46.2840833" lon="13.0664333"><ele>192.0</ele><time>2026-04-25T13:39:32.956Z</time></trkpt><trkpt lat="46.28399" lon="13.06666"><ele>192.0</ele><time>2026-04-25T13:39:33.956Z</time></trkpt><trkpt lat="46.2838867" lon="13.066895"><ele>192.33333333333331</ele><time>2026-04-25T13:39:34.957Z</time></trkpt><trkpt lat="46.283785" lon="13.0671233"><ele>192.66666666666666</ele><time>2026-04-25T13:39:35.957Z</time></trkpt><trkpt lat="46.2836833" lon="13.0673433"><ele>193.0</ele><time>2026-04-25T13:39:36.956Z</time></trkpt><trkpt lat="46.2835883" lon="13.067565"><ele>193.0</ele><time>2026-04-25T13:39:37.956Z</time></trkpt><trkpt lat="46.2835017" lon="13.0677917"><ele>193.0</ele><time>2026-04-25T13:39:38.956Z</time></trkpt><trkpt lat="46.2834183" lon="13.06802"><ele>193.0</ele><time>2026-04-25T13:39:39.956Z</time></trkpt><trkpt lat="46.2833433" lon="13.0682467"><ele>193.66666666666666</ele><time>2026-04-25T13:39:40.957Z</time></trkpt><trkpt lat="46.283285" lon="13.0684633"><ele>194.33333333333331</ele><time>2026-04-25T13:39:41.957Z</time></trkpt><trkpt lat="46.2832417" lon="13.0686783"><ele>195.0</ele><time>2026-04-25T13:39:42.957Z</time></trkpt><trkpt lat="46.2832033" lon="13.0688717"><ele>195.0</ele><time>2026-04-25T13:39:43.958Z</time></trkpt><trkpt lat="46.2831683" lon="13.06905"><ele>195.0</ele><time>2026-04-25T13:39:44.956Z</time></trkpt><trkpt lat="46.2831283" lon="13.0692167"><ele>195.0</ele><time>2026-04-25T13:39:45.957Z</time></trkpt><trkpt lat="46.2830767" lon="13.0693583"><ele>195.0</ele><time>2026-04-25T13:39:46.957Z</time></trkpt><trkpt lat="46.2830267" lon="13.0694917"><ele>194.8</ele><time>2026-04-25T13:39:47.956Z</time></trkpt><trkpt lat="46.282995" lon="13.06963"><ele>194.6</ele><time>2026-04-25T13:39:48.957Z</time></trkpt><trkpt lat="46.2829867" lon="13.0697817"><ele>194.39999999999998</ele><time>2026-04-25T13:39:49.956Z</time></trkpt><trkpt lat="46.2829883" lon="13.069945"><ele>194.2</ele><time>2026-04-25T13:39:50.957Z</time></trkpt><trkpt lat="46.2829833" lon="13.070115"><ele>194.0</ele><time>2026-04-25T13:39:51.958Z</time></trkpt><trkpt lat="46.2829683" lon="13.0702867"><ele>194.0</ele><time>2026-04-25T13:39:52.959Z</time></trkpt><trkpt lat="46.2829467" lon="13.0704633"><ele>194.0</ele><time>2026-04-25T13:39:53.958Z</time></trkpt><trkpt lat="46.2829233" lon="13.0706367"><ele>194.0</ele><time>2026-04-25T13:39:54.959Z</time></trkpt><trkpt lat="46.2829" lon="13.0708133"><ele>194.0</ele><time>2026-04-25T13:39:55.957Z</time></trkpt><trkpt lat="46.282875" lon="13.0709833"><ele>194.0</ele><time>2026-04-25T13:39:56.957Z</time></trkpt><trkpt lat="46.282855" lon="13.0711517"><ele>194.0</ele><time>2026-04-25T13:39:57.959Z</time></trkpt><trkpt lat="46.2828333" lon="13.0713183"><ele>194.0</ele><time>2026-04-25T13:39:58.958Z</time></trkpt><trkpt lat="46.28281" lon="13.071495"><ele>194.0</ele><time>2026-04-25T13:39:59.956Z</time></trkpt><trkpt lat="46.2827883" lon="13.0716833"><ele>194.25</ele><time>2026-04-25T13:40:00.957Z</time></trkpt><trkpt lat="46.2827667" lon="13.0718783"><ele>194.5</ele><time>2026-04-25T13:40:01.957Z</time></trkpt><trkpt lat="46.282745" lon="13.0720817"><ele>194.75</ele><time>2026-04-25T13:40:02.956Z</time></trkpt><trkpt lat="46.282725" lon="13.0722817"><ele>195.0</ele><time>2026-04-25T13:40:03.957Z</time></trkpt><trkpt lat="46.2827067" lon="13.0724883"><ele>195.0</ele><time>2026-04-25T13:40:04.958Z</time></trkpt><trkpt lat="46.2826917" lon="13.0726967"><ele>195.0</ele><time>2026-04-25T13:40:05.956Z</time></trkpt><trkpt lat="46.2826733" lon="13.072905"><ele>195.0</ele><time>2026-04-25T13:40:06.956Z</time></trkpt><trkpt lat="46.2826583" lon="13.0731133"><ele>195.0</ele><time>2026-04-25T13:40:07.957Z</time></trkpt><trkpt lat="46.2826433" lon="13.0733233"><ele>195.5</ele><time>2026-04-25T13:40:08.957Z</time></trkpt><trkpt lat="46.2826283" lon="13.0735333"><ele>196.0</ele><time>2026-04-25T13:40:09.957Z</time></trkpt><trkpt lat="46.2826167" lon="13.07374"><ele>196.5</ele><time>2026-04-25T13:40:10.957Z</time></trkpt><trkpt lat="46.282605" lon="13.073945"><ele>197.0</ele><time>2026-04-25T13:40:11.956Z</time></trkpt><trkpt lat="46.2825983" lon="13.07415"><ele>195.75</ele><time>2026-04-25T13:40:12.957Z</time></trkpt><trkpt lat="46.282595" lon="13.0743533"><ele>194.5</ele><time>2026-04-25T13:40:13.957Z</time></trkpt><trkpt lat="46.28258" lon="13.0745483"><ele>193.25</ele><time>2026-04-25T13:40:14.957Z</time></trkpt><trkpt lat="46.2825583" lon="13.0747333"><ele>192.0</ele><time>2026-04-25T13:40:15.957Z</time></trkpt><trkpt lat="46.2825183" lon="13.0749"><ele>192.75</ele><time>2026-04-25T13:40:16.956Z</time></trkpt><trkpt lat="46.2824667" lon="13.075055"><ele>193.5</ele><time>2026-04-25T13:40:17.961Z</time></trkpt><trkpt lat="46.282405" lon="13.0752017"><ele>194.25</ele><time>2026-04-25T13:40:18.955Z</time></trkpt><trkpt lat="46.2823367" lon="13.0753383"><ele>195.0</ele><time>2026-04-25T13:40:19.956Z</time></trkpt><trkpt lat="46.282265" lon="13.0754717"><ele>194.25</ele><time>2026-04-25T13:40:20.958Z</time></trkpt><trkpt lat="46.282195" lon="13.07561"><ele>193.5</ele><time>2026-04-25T13:40:21.958Z</time></trkpt><trkpt lat="46.2821317" lon="13.0757567"><ele>192.75</ele><time>2026-04-25T13:40:22.958Z</time></trkpt><trkpt lat="46.282075" lon="13.0759183"><ele>192.0</ele><time>2026-04-25T13:40:23.956Z</time></trkpt><trkpt lat="46.282025" lon="13.0760933"><ele>192.0</ele><time>2026-04-25T13:40:24.958Z</time></trkpt><trkpt lat="46.28198" lon="13.076275"><ele>192.0</ele><time>2026-04-25T13:40:25.958Z</time></trkpt><trkpt lat="46.28194" lon="13.0764617"><ele>192.0</ele><time>2026-04-25T13:40:26.958Z</time></trkpt><trkpt lat="46.2819017" lon="13.076655"><ele>192.0</ele><time>2026-04-25T13:40:27.958Z</time></trkpt><trkpt lat="46.281865" lon="13.0768517"><ele>192.25</ele><time>2026-04-25T13:40:28.957Z</time></trkpt><trkpt lat="46.2818267" lon="13.0770517"><ele>192.5</ele><time>2026-04-25T13:40:29.958Z</time></trkpt><trkpt lat="46.2817883" lon="13.0772533"><ele>192.75</ele><time>2026-04-25T13:40:30.958Z</time></trkpt><trkpt lat="46.2817517" lon="13.077465"><ele>193.0</ele><time>2026-04-25T13:40:31.957Z</time></trkpt><trkpt lat="46.281715" lon="13.0776783"><ele>193.33333333333331</ele><time>2026-04-25T13:40:32.957Z</time></trkpt><trkpt lat="46.28168" lon="13.0778983"><ele>193.66666666666669</ele><time>2026-04-25T13:40:33.959Z</time></trkpt><trkpt lat="46.281645" lon="13.07812"><ele>194.0</ele><time>2026-04-25T13:40:34.958Z</time></trkpt><trkpt lat="46.2816083" lon="13.0783383"><ele>194.0</ele><time>2026-04-25T13:40:35.959Z</time></trkpt><trkpt lat="46.2815683" lon="13.0785517"><ele>194.0</ele><time>2026-04-25T13:40:36.958Z</time></trkpt><trkpt lat="46.281525" lon="13.078765"><ele>194.0</ele><time>2026-04-25T13:40:37.959Z</time></trkpt><trkpt lat="46.2814767" lon="13.0789717"><ele>192.0</ele><time>2026-04-25T13:40:38.958Z</time></trkpt><trkpt lat="46.2814267" lon="13.0791817"><ele>190.0</ele><time>2026-04-25T13:40:39.958Z</time></trkpt><trkpt lat="46.281375" lon="13.0793867"><ele>188.0</ele><time>2026-04-25T13:40:40.957Z</time></trkpt><trkpt lat="46.2813233" lon="13.0795933"><ele>188.0</ele><time>2026-04-25T13:40:41.958Z</time></trkpt><trkpt lat="46.2812733" lon="13.079805"><ele>188.0</ele><time>2026-04-25T13:40:42.957Z</time></trkpt><trkpt lat="46.2812333" lon="13.0800217"><ele>188.0</ele><time>2026-04-25T13:40:43.957Z</time></trkpt><trkpt lat="46.281205" lon="13.0802383"><ele>188.5</ele><time>2026-04-25T13:40:44.957Z</time></trkpt><trkpt lat="46.2811883" lon="13.080455"><ele>189.0</ele><time>2026-04-25T13:40:45.956Z</time></trkpt><trkpt lat="46.281175" lon="13.0806633"><ele>189.5</ele><time>2026-04-25T13:40:46.957Z</time></trkpt><trkpt lat="46.2811667" lon="13.0808583"><ele>190.0</ele><time>2026-04-25T13:40:47.963Z</time></trkpt><trkpt lat="46.2811583" lon="13.08104"><ele>191.0</ele><time>2026-04-25T13:40:48.955Z</time></trkpt><trkpt lat="46.2811517" lon="13.0812083"><ele>192.0</ele><time>2026-04-25T13:40:49.957Z</time></trkpt><trkpt lat="46.2811433" lon="13.0813633"><ele>193.0</ele><time>2026-04-25T13:40:50.957Z</time></trkpt><trkpt lat="46.2811283" lon="13.0815067"><ele>194.0</ele><time>2026-04-25T13:40:51.956Z</time></trkpt><trkpt lat="46.2811017" lon="13.0816333"><ele>195.0</ele><time>2026-04-25T13:40:52.958Z</time></trkpt><trkpt lat="46.2810733" lon="13.08175"><ele>195.8</ele><time>2026-04-25T13:40:53.958Z</time></trkpt><trkpt lat="46.2810633" lon="13.0818617"><ele>196.6</ele><time>2026-04-25T13:40:54.958Z</time></trkpt><trkpt lat="46.2810933" lon="13.0819683"><ele>197.39999999999998</ele><time>2026-04-25T13:40:55.958Z</time></trkpt><trkpt lat="46.2811533" lon="13.0820683"><ele>198.2</ele><time>2026-04-25T13:40:56.958Z</time></trkpt><trkpt lat="46.2812267" lon="13.0821933"><ele>199.0</ele><time>2026-04-25T13:40:57.958Z</time></trkpt><trkpt lat="46.281295" lon="13.0823567"><ele>198.75</ele><time>2026-04-25T13:40:58.958Z</time></trkpt><trkpt lat="46.2813517" lon="13.0825433"><ele>198.5</ele><time>2026-04-25T13:40:59.957Z</time></trkpt><trkpt lat="46.2813983" lon="13.082745"><ele>198.25</ele><time>2026-04-25T13:41:00.957Z</time></trkpt><trkpt lat="46.2814433" lon="13.0829533"><ele>198.0</ele><time>2026-04-25T13:41:01.959Z</time></trkpt><trkpt lat="46.2814917" lon="13.0831683"><ele>203.66666666666669</ele><time>2026-04-25T13:41:02.956Z</time></trkpt><trkpt lat="46.2815383" lon="13.08339"><ele>209.33333333333334</ele><time>2026-04-25T13:41:03.959Z</time></trkpt><trkpt lat="46.2815867" lon="13.0836183"><ele>215.0</ele><time>2026-04-25T13:41:04.957Z</time></trkpt><trkpt lat="46.28163" lon="13.083855"><ele>213.0</ele><time>2026-04-25T13:41:05.957Z</time></trkpt><trkpt lat="46.2816667" lon="13.0840983"><ele>211.0</ele><time>2026-04-25T13:41:06.958Z</time></trkpt><trkpt lat="46.281695" lon="13.08435"><ele>209.0</ele><time>2026-04-25T13:41:07.958Z</time></trkpt><trkpt lat="46.2817183" lon="13.0846033"><ele>209.0</ele><time>2026-04-25T13:41:08.956Z</time></trkpt><trkpt lat="46.2817383" lon="13.0848567"><ele>209.0</ele><time>2026-04-25T13:41:09.959Z</time></trkpt><trkpt lat="46.281759" lon="13.0851175"><ele>209.0</ele><time>2026-04-25T13:41:10.957Z</time></trkpt><trkpt lat="46.2817802" lon="13.0853792"><ele>207.33333333333334</ele><time>2026-04-25T13:41:11.957Z</time></trkpt><trkpt lat="46.2818019" lon="13.0856374"><ele>205.66666666666669</ele><time>2026-04-25T13:41:12.956Z</time></trkpt><trkpt lat="46.2818243" lon="13.0858986"><ele>204.0</ele><time>2026-04-25T13:41:13.957Z</time></trkpt><trkpt lat="46.2818475" lon="13.0861624"><ele>201.66666666666669</ele><time>2026-04-25T13:41:14.956Z</time></trkpt><trkpt lat="46.281868" lon="13.0864302"><ele>199.33333333333334</ele><time>2026-04-25T13:41:15.956Z</time></trkpt><trkpt lat="46.2818915" lon="13.0867028"><ele>197.0</ele><time>2026-04-25T13:41:16.957Z</time></trkpt><trkpt lat="46.2819218" lon="13.0869751"><ele>196.66666666666669</ele><time>2026-04-25T13:41:17.957Z</time></trkpt><trkpt lat="46.2819673" lon="13.0872387"><ele>196.33333333333331</ele><time>2026-04-25T13:41:18.957Z</time></trkpt><trkpt lat="46.2820274" lon="13.087495"><ele>196.0</ele><time>2026-04-25T13:41:19.958Z</time></trkpt><trkpt lat="46.2820983" lon="13.0877491"><ele>196.0</ele><time>2026-04-25T13:41:20.957Z</time></trkpt><trkpt lat="46.2821742" lon="13.0880032"><ele>196.0</ele><time>2026-04-25T13:41:21.958Z</time></trkpt><trkpt lat="46.2822519" lon="13.0882582"><ele>196.0</ele><time>2026-04-25T13:41:22.959Z</time></trkpt><trkpt lat="46.2823287" lon="13.0885101"><ele>196.0</ele><time>2026-04-25T13:41:23.958Z</time></trkpt><trkpt lat="46.2824039" lon="13.0887574"><ele>196.0</ele><time>2026-04-25T13:41:24.959Z</time></trkpt><trkpt lat="46.2824763" lon="13.089002"><ele>196.0</ele><time>2026-04-25T13:41:25.958Z</time></trkpt><trkpt lat="46.2825458" lon="13.0892412"><ele>196.66666666666666</ele><time>2026-04-25T13:41:26.956Z</time></trkpt><trkpt lat="46.2826165" lon="13.0894777"><ele>197.33333333333331</ele><time>2026-04-25T13:41:27.957Z</time></trkpt><trkpt lat="46.2826917" lon="13.0897094"><ele>198.0</ele><time>2026-04-25T13:41:28.957Z</time></trkpt><trkpt lat="46.2827657" lon="13.0899288"><ele>198.0</ele><time>2026-04-25T13:41:29.957Z</time></trkpt><trkpt lat="46.2828388" lon="13.0901316"><ele>198.0</ele><time>2026-04-25T13:41:30.956Z</time></trkpt><trkpt lat="46.2829094" lon="13.0903157"><ele>198.0</ele><time>2026-04-25T13:41:31.956Z</time></trkpt><trkpt lat="46.2829738" lon="13.0904826"><ele>198.0</ele><time>2026-04-25T13:41:32.957Z</time></trkpt><trkpt lat="46.2830346" lon="13.0906402"><ele>198.25</ele><time>2026-04-25T13:41:33.959Z</time></trkpt><trkpt lat="46.2830994" lon="13.0907879"><ele>198.5</ele><time>2026-04-25T13:41:34.958Z</time></trkpt><trkpt lat="46.2831656" lon="13.0909256"><ele>198.75</ele><time>2026-04-25T13:41:35.957Z</time></trkpt><trkpt lat="46.2832344" lon="13.0910495"><ele>199.0</ele><time>2026-04-25T13:41:36.957Z</time></trkpt><trkpt lat="46.2833084" lon="13.0911608"><ele>199.0</ele><time>2026-04-25T13:41:37.956Z</time></trkpt><trkpt lat="46.2833823" lon="13.0912609"><ele>199.0</ele><time>2026-04-25T13:41:38.957Z</time></trkpt><trkpt lat="46.2834575" lon="13.091355"><ele>199.0</ele><time>2026-04-25T13:41:39.956Z</time></trkpt><trkpt lat="46.283527" lon="13.091445"><ele>199.0</ele><time>2026-04-25T13:41:40.957Z</time></trkpt><trkpt lat="46.2835858" lon="13.0915295"><ele>199.0</ele><time>2026-04-25T13:41:41.957Z</time></trkpt><trkpt lat="46.2836328" lon="13.0916151"><ele>199.16666666666666</ele><time>2026-04-25T13:41:42.958Z</time></trkpt><trkpt lat="46.28366" lon="13.091705"><ele>199.33333333333331</ele><time>2026-04-25T13:41:43.956Z</time></trkpt><trkpt lat="46.28367" lon="13.091795"><ele>199.5</ele><time>2026-04-25T13:41:44.956Z</time></trkpt><trkpt lat="46.28363" lon="13.091965"><ele>199.66666666666669</ele><time>2026-04-25T13:41:46.957Z</time></trkpt><trkpt lat="46.2835833" lon="13.0920383"><ele>199.83333333333334</ele><time>2026-04-25T13:41:47.957Z</time></trkpt><trkpt lat="46.28353" lon="13.0921067"><ele>200.0</ele><time>2026-04-25T13:41:48.957Z</time></trkpt><trkpt lat="46.2834817" lon="13.092175"><ele>200.00000000000003</ele><time>2026-04-25T13:41:49.957Z</time></trkpt><trkpt lat="46.283435" lon="13.092245"><ele>200.0</ele><time>2026-04-25T13:41:50.956Z</time></trkpt><trkpt lat="46.28339" lon="13.0923167"><ele>200.0</ele><time>2026-04-25T13:41:51.958Z</time></trkpt><trkpt lat="46.2833433" lon="13.0923883"><ele>200.0</ele><time>2026-04-25T13:41:52.957Z</time></trkpt><trkpt lat="46.283295" lon="13.0924617"><ele>200.0</ele><time>2026-04-25T13:41:53.957Z</time></trkpt><trkpt lat="46.283245" lon="13.09254"><ele>200.00000000000003</ele><time>2026-04-25T13:41:54.957Z</time></trkpt><trkpt lat="46.28319" lon="13.0926217"><ele>200.0</ele><time>2026-04-25T13:41:55.956Z</time></trkpt><trkpt lat="46.2831333" lon="13.0927083"><ele>199.33333333333334</ele><time>2026-04-25T13:41:56.958Z</time></trkpt><trkpt lat="46.2830767" lon="13.0927967"><ele>198.66666666666669</ele><time>2026-04-25T13:41:57.958Z</time></trkpt><trkpt lat="46.2830167" lon="13.09289"><ele>198.0</ele><time>2026-04-25T13:41:58.957Z</time></trkpt><trkpt lat="46.2829567" lon="13.092985"><ele>197.33333333333331</ele><time>2026-04-25T13:41:59.956Z</time></trkpt><trkpt lat="46.2828933" lon="13.0930817"><ele>196.66666666666666</ele><time>2026-04-25T13:42:00.958Z</time></trkpt><trkpt lat="46.28283" lon="13.09318"><ele>196.0</ele><time>2026-04-25T13:42:01.957Z</time></trkpt><trkpt lat="46.282765" lon="13.0932817"><ele>196.0</ele><time>2026-04-25T13:42:02.958Z</time></trkpt><trkpt lat="46.2826983" lon="13.0933833"><ele>196.0</ele><time>2026-04-25T13:42:03.958Z</time></trkpt><trkpt lat="46.28263" lon="13.093485"><ele>196.0</ele><time>2026-04-25T13:42:04.958Z</time></trkpt><trkpt lat="46.2825617" lon="13.09359"><ele>196.0</ele><time>2026-04-25T13:42:05.958Z</time></trkpt><trkpt lat="46.2824917" lon="13.0936967"><ele>196.0</ele><time>2026-04-25T13:42:06.957Z</time></trkpt><trkpt lat="46.2824217" lon="13.093805"><ele>196.0</ele><time>2026-04-25T13:42:07.957Z</time></trkpt><trkpt lat="46.28235" lon="13.093915"><ele>196.0</ele><time>2026-04-25T13:42:08.958Z</time></trkpt><trkpt lat="46.28228" lon="13.0940317"><ele>196.0</ele><time>2026-04-25T13:42:09.958Z</time></trkpt><trkpt lat="46.2822067" lon="13.0941517"><ele>196.0</ele><time>2026-04-25T13:42:10.959Z</time></trkpt><trkpt lat="46.2821317" lon="13.0942717"><ele>196.0</ele><time>2026-04-25T13:42:11.958Z</time></trkpt><trkpt lat="46.2820567" lon="13.0943883"><ele>196.20000000000002</ele><time>2026-04-25T13:42:12.957Z</time></trkpt><trkpt lat="46.2819833" lon="13.0945033"><ele>196.4</ele><time>2026-04-25T13:42:13.958Z</time></trkpt><trkpt lat="46.28191" lon="13.0946183"><ele>196.6</ele><time>2026-04-25T13:42:14.958Z</time></trkpt><trkpt lat="46.2818367" lon="13.09473"><ele>196.8</ele><time>2026-04-25T13:42:15.957Z</time></trkpt><trkpt lat="46.2817633" lon="13.09484"><ele>197.0</ele><time>2026-04-25T13:42:16.958Z</time></trkpt><trkpt lat="46.28169" lon="13.0949517"><ele>197.2</ele><time>2026-04-25T13:42:17.957Z</time></trkpt><trkpt lat="46.2816183" lon="13.0950633"><ele>197.39999999999998</ele><time>2026-04-25T13:42:18.957Z</time></trkpt><trkpt lat="46.2815483" lon="13.09517"><ele>197.60000000000002</ele><time>2026-04-25T13:42:19.956Z</time></trkpt><trkpt lat="46.2814817" lon="13.0952667"><ele>197.8</ele><time>2026-04-25T13:42:20.957Z</time></trkpt><trkpt lat="46.28142" lon="13.095355"><ele>198.0</ele><time>2026-04-25T13:42:21.956Z</time></trkpt><trkpt lat="46.2813667" lon="13.0954383"><ele>198.0</ele><time>2026-04-25T13:42:22.958Z</time></trkpt><trkpt lat="46.2813233" lon="13.095515"><ele>198.0</ele><time>2026-04-25T13:42:23.957Z</time></trkpt><trkpt lat="46.28129" lon="13.0955933"><ele>198.0</ele><time>2026-04-25T13:42:24.956Z</time></trkpt><trkpt lat="46.2812783" lon="13.09576"><ele>198.0</ele><time>2026-04-25T13:42:26.957Z</time></trkpt><trkpt lat="46.2812917" lon="13.0958567"><ele>198.0</ele><time>2026-04-25T13:42:27.957Z</time></trkpt><trkpt lat="46.2813233" lon="13.09596"><ele>198.0</ele><time>2026-04-25T13:42:28.956Z</time></trkpt><trkpt lat="46.28137" lon="13.096075"><ele>198.25</ele><time>2026-04-25T13:42:29.957Z</time></trkpt><trkpt lat="46.2814267" lon="13.0962"><ele>198.5</ele><time>2026-04-25T13:42:30.958Z</time></trkpt><trkpt lat="46.281485" lon="13.096335"><ele>198.75</ele><time>2026-04-25T13:42:31.956Z</time></trkpt><trkpt lat="46.2815483" lon="13.0964767"><ele>199.0</ele><time>2026-04-25T13:42:32.958Z</time></trkpt><trkpt lat="46.281615" lon="13.0966283"><ele>199.25</ele><time>2026-04-25T13:42:33.957Z</time></trkpt><trkpt lat="46.281685" lon="13.0967833"><ele>199.5</ele><time>2026-04-25T13:42:34.958Z</time></trkpt><trkpt lat="46.281755" lon="13.096945"><ele>199.75</ele><time>2026-04-25T13:42:35.958Z</time></trkpt><trkpt lat="46.2818267" lon="13.09711"><ele>200.0</ele><time>2026-04-25T13:42:36.959Z</time></trkpt><trkpt lat="46.281895" lon="13.0972783"><ele>199.5</ele><time>2026-04-25T13:42:37.957Z</time></trkpt><trkpt lat="46.2819633" lon="13.0974483"><ele>199.0</ele><time>2026-04-25T13:42:38.958Z</time></trkpt><trkpt lat="46.28203" lon="13.0976167"><ele>198.5</ele><time>2026-04-25T13:42:39.959Z</time></trkpt><trkpt lat="46.2820933" lon="13.09779"><ele>198.0</ele><time>2026-04-25T13:42:40.958Z</time></trkpt><trkpt lat="46.282155" lon="13.0979667"><ele>198.0</ele><time>2026-04-25T13:42:41.958Z</time></trkpt><trkpt lat="46.2822117" lon="13.0981533"><ele>198.0</ele><time>2026-04-25T13:42:42.958Z</time></trkpt><trkpt lat="46.28226" lon="13.0983483"><ele>198.0</ele><time>2026-04-25T13:42:43.957Z</time></trkpt><trkpt lat="46.2823" lon="13.0985483"><ele>198.0</ele><time>2026-04-25T13:42:44.957Z</time></trkpt><trkpt lat="46.282335" lon="13.09875"><ele>197.75</ele><time>2026-04-25T13:42:45.956Z</time></trkpt><trkpt lat="46.2823633" lon="13.098955"><ele>197.5</ele><time>2026-04-25T13:42:46.957Z</time></trkpt><trkpt lat="46.282385" lon="13.09916"><ele>197.25</ele><time>2026-04-25T13:42:47.956Z</time></trkpt><trkpt lat="46.2823983" lon="13.0993683"><ele>197.0</ele><time>2026-04-25T13:42:48.957Z</time></trkpt><trkpt lat="46.2824017" lon="13.099575"><ele>197.0</ele><time>2026-04-25T13:42:49.956Z</time></trkpt><trkpt lat="46.2823967" lon="13.0997817"><ele>197.0</ele><time>2026-04-25T13:42:50.957Z</time></trkpt><trkpt lat="46.2823833" lon="13.0999867"><ele>197.0</ele><time>2026-04-25T13:42:51.961Z</time></trkpt><trkpt lat="46.2823617" lon="13.1001883"><ele>197.0</ele><time>2026-04-25T13:42:52.957Z</time></trkpt><trkpt lat="46.282335" lon="13.1003833"><ele>197.25</ele><time>2026-04-25T13:42:53.956Z</time></trkpt><trkpt lat="46.282305" lon="13.100575"><ele>197.5</ele><time>2026-04-25T13:42:54.956Z</time></trkpt><trkpt lat="46.2822733" lon="13.1007667"><ele>197.75</ele><time>2026-04-25T13:42:55.956Z</time></trkpt><trkpt lat="46.2822433" lon="13.1009583"><ele>198.0</ele><time>2026-04-25T13:42:56.956Z</time></trkpt><trkpt lat="46.2822117" lon="13.1011533"><ele>198.0</ele><time>2026-04-25T13:42:57.956Z</time></trkpt><trkpt lat="46.28218" lon="13.1013483"><ele>198.0</ele><time>2026-04-25T13:42:58.955Z</time></trkpt><trkpt lat="46.28215" lon="13.1015417"><ele>198.0</ele><time>2026-04-25T13:42:59.956Z</time></trkpt><trkpt lat="46.2821183" lon="13.1017367"><ele>198.0</ele><time>2026-04-25T13:43:00.956Z</time></trkpt><trkpt lat="46.2820867" lon="13.1019317"><ele>197.75</ele><time>2026-04-25T13:43:01.957Z</time></trkpt><trkpt lat="46.2820533" lon="13.1021317"><ele>197.5</ele><time>2026-04-25T13:43:02.957Z</time></trkpt><trkpt lat="46.2820183" lon="13.1023333"><ele>197.25</ele><time>2026-04-25T13:43:03.955Z</time></trkpt><trkpt lat="46.281985" lon="13.1025317"><ele>197.0</ele><time>2026-04-25T13:43:04.957Z</time></trkpt><trkpt lat="46.2819517" lon="13.1027317"><ele>196.75</ele><time>2026-04-25T13:43:05.956Z</time></trkpt><trkpt lat="46.2819233" lon="13.102925"><ele>196.5</ele><time>2026-04-25T13:43:06.956Z</time></trkpt><trkpt lat="46.281895" lon="13.1031133"><ele>196.25</ele><time>2026-04-25T13:43:07.956Z</time></trkpt><trkpt lat="46.2818667" lon="13.1032967"><ele>196.0</ele><time>2026-04-25T13:43:08.956Z</time></trkpt><trkpt lat="46.28184" lon="13.103475"><ele>196.0</ele><time>2026-04-25T13:43:09.956Z</time></trkpt><trkpt lat="46.28181" lon="13.103655"><ele>196.0</ele><time>2026-04-25T13:43:10.957Z</time></trkpt><trkpt lat="46.2817833" lon="13.1038383"><ele>196.0</ele><time>2026-04-25T13:43:11.957Z</time></trkpt><trkpt lat="46.2817517" lon="13.1040267"><ele>196.0</ele><time>2026-04-25T13:43:12.957Z</time></trkpt><trkpt lat="46.2817217" lon="13.1042183"><ele>196.0</ele><time>2026-04-25T13:43:13.955Z</time></trkpt><trkpt lat="46.2816933" lon="13.104405"><ele>196.0</ele><time>2026-04-25T13:43:14.956Z</time></trkpt><trkpt lat="46.2816633" lon="13.1045817"><ele>196.0</ele><time>2026-04-25T13:43:15.956Z</time></trkpt><trkpt lat="46.281635" lon="13.1047483"><ele>196.0</ele><time>2026-04-25T13:43:16.956Z</time></trkpt><trkpt lat="46.28161" lon="13.1049"><ele>196.20000000000002</ele><time>2026-04-25T13:43:17.955Z</time></trkpt><trkpt lat="46.2815867" lon="13.1050467"><ele>196.4</ele><time>2026-04-25T13:43:18.956Z</time></trkpt><trkpt lat="46.2815633" lon="13.1051867"><ele>196.6</ele><time>2026-04-25T13:43:19.955Z</time></trkpt><trkpt lat="46.281545" lon="13.1053183"><ele>196.8</ele><time>2026-04-25T13:43:20.956Z</time></trkpt><trkpt lat="46.2815283" lon="13.105445"><ele>197.0</ele><time>2026-04-25T13:43:21.957Z</time></trkpt><trkpt lat="46.2815133" lon="13.10556"><ele>197.0</ele><time>2026-04-25T13:43:22.956Z</time></trkpt><trkpt lat="46.2814983" lon="13.1056617"><ele>197.0</ele><time>2026-04-25T13:43:23.958Z</time></trkpt><trkpt lat="46.28147" lon="13.1058233"><ele>197.0</ele><time>2026-04-25T13:43:25.956Z</time></trkpt><trkpt lat="46.28145" lon="13.1059383"><ele>197.0</ele><time>2026-04-25T13:43:27.956Z</time></trkpt><trkpt lat="46.2814167" lon="13.1061133"><ele>197.0</ele><time>2026-04-25T13:43:51.956Z</time></trkpt><trkpt lat="46.2814067" lon="13.1062633"><ele>197.0</ele><time>2026-04-25T13:43:53.956Z</time></trkpt><trkpt lat="46.281465" lon="13.1064183"><ele>197.0</ele><time>2026-04-25T13:43:55.956Z</time></trkpt><trkpt lat="46.28153" lon="13.1064867"><ele>197.0</ele><time>2026-04-25T13:43:56.956Z</time></trkpt><trkpt lat="46.2816217" lon="13.106565"><ele>197.0</ele><time>2026-04-25T13:43:57.956Z</time></trkpt><trkpt lat="46.2817217" lon="13.10666"><ele>197.0</ele><time>2026-04-25T13:43:58.957Z</time></trkpt><trkpt lat="46.2818233" lon="13.10677"><ele>197.0</ele><time>2026-04-25T13:43:59.956Z</time></trkpt><trkpt lat="46.2819267" lon="13.1068883"><ele>197.0</ele><time>2026-04-25T13:44:00.957Z</time></trkpt><trkpt lat="46.2820383" lon="13.107005"><ele>197.0</ele><time>2026-04-25T13:44:01.956Z</time></trkpt><trkpt lat="46.2821567" lon="13.107125"><ele>197.0</ele><time>2026-04-25T13:44:02.956Z</time></trkpt><trkpt lat="46.282275" lon="13.1072467"><ele>197.0</ele><time>2026-04-25T13:44:03.956Z</time></trkpt><trkpt lat="46.2823933" lon="13.1073683"><ele>197.0</ele><time>2026-04-25T13:44:04.957Z</time></trkpt><trkpt lat="46.2825083" lon="13.1074917"><ele>197.0</ele><time>2026-04-25T13:44:05.955Z</time></trkpt><trkpt lat="46.28262" lon="13.1076117"><ele>197.0</ele><time>2026-04-25T13:44:06.956Z</time></trkpt><trkpt lat="46.2827317" lon="13.1077283"><ele>197.25</ele><time>2026-04-25T13:44:07.955Z</time></trkpt><trkpt lat="46.2828417" lon="13.1078483"><ele>197.5</ele><time>2026-04-25T13:44:08.955Z</time></trkpt><trkpt lat="46.2829517" lon="13.1079683"><ele>197.75</ele><time>2026-04-25T13:44:09.956Z</time></trkpt><trkpt lat="46.2830683" lon="13.1080867"><ele>198.0</ele><time>2026-04-25T13:44:10.957Z</time></trkpt><trkpt lat="46.283185" lon="13.108205"><ele>197.75</ele><time>2026-04-25T13:44:11.956Z</time></trkpt><trkpt lat="46.2833" lon="13.108325"><ele>197.5</ele><time>2026-04-25T13:44:12.956Z</time></trkpt><trkpt lat="46.283415" lon="13.108445"><ele>197.25</ele><time>2026-04-25T13:44:13.955Z</time></trkpt><trkpt lat="46.2835283" lon="13.1085683"><ele>197.0</ele><time>2026-04-25T13:44:14.957Z</time></trkpt><trkpt lat="46.2836433" lon="13.10869"><ele>197.0</ele><time>2026-04-25T13:44:15.956Z</time></trkpt><trkpt lat="46.2837567" lon="13.1088117"><ele>197.0</ele><time>2026-04-25T13:44:16.956Z</time></trkpt><trkpt lat="46.28387" lon="13.1089317"><ele>197.0</ele><time>2026-04-25T13:44:17.957Z</time></trkpt><trkpt lat="46.2839833" lon="13.1090533"><ele>197.0</ele><time>2026-04-25T13:44:18.957Z</time></trkpt><trkpt lat="46.2840967" lon="13.1091733"><ele>197.5</ele><time>2026-04-25T13:44:19.956Z</time></trkpt><trkpt lat="46.2842083" lon="13.109295"><ele>198.0</ele><time>2026-04-25T13:44:20.957Z</time></trkpt><trkpt lat="46.2843217" lon="13.1094167"><ele>198.5</ele><time>2026-04-25T13:44:21.955Z</time></trkpt><trkpt lat="46.28444" lon="13.10954"><ele>199.0</ele><time>2026-04-25T13:44:22.956Z</time></trkpt><trkpt lat="46.2845583" lon="13.10966"><ele>199.0</ele><time>2026-04-25T13:44:23.957Z</time></trkpt><trkpt lat="46.2846733" lon="13.1097783"><ele>199.0</ele><time>2026-04-25T13:44:24.956Z</time></trkpt><trkpt lat="46.2847817" lon="13.1098933"><ele>199.0</ele><time>2026-04-25T13:44:25.956Z</time></trkpt><trkpt lat="46.2848817" lon="13.110005"><ele>199.0</ele><time>2026-04-25T13:44:26.955Z</time></trkpt><trkpt lat="46.2849817" lon="13.1101017"><ele>198.5</ele><time>2026-04-25T13:44:27.956Z</time></trkpt><trkpt lat="46.2850833" lon="13.1101767"><ele>198.0</ele><time>2026-04-25T13:44:28.957Z</time></trkpt><trkpt lat="46.285195" lon="13.1102233"><ele>197.5</ele><time>2026-04-25T13:44:29.956Z</time></trkpt><trkpt lat="46.285315" lon="13.1102467"><ele>197.0</ele><time>2026-04-25T13:44:30.956Z</time></trkpt><trkpt lat="46.2854367" lon="13.1102533"><ele>197.0</ele><time>2026-04-25T13:44:31.957Z</time></trkpt><trkpt lat="46.2855567" lon="13.1102567"><ele>197.0</ele><time>2026-04-25T13:44:32.958Z</time></trkpt><trkpt lat="46.2856683" lon="13.1102567"><ele>197.0</ele><time>2026-04-25T13:44:33.958Z</time></trkpt><trkpt lat="46.28577" lon="13.1102617"><ele>197.0</ele><time>2026-04-25T13:44:34.957Z</time></trkpt><trkpt lat="46.2858583" lon="13.11028"><ele>197.0</ele><time>2026-04-25T13:44:35.957Z</time></trkpt><trkpt lat="46.2859333" lon="13.110315"><ele>196.83333333333334</ele><time>2026-04-25T13:44:36.955Z</time></trkpt><trkpt lat="46.2859883" lon="13.1103767"><ele>196.66666666666669</ele><time>2026-04-25T13:44:37.957Z</time></trkpt><trkpt lat="46.2860267" lon="13.11053"><ele>196.5</ele><time>2026-04-25T13:44:39.959Z</time></trkpt><trkpt lat="46.2860117" lon="13.1106217"><ele>196.33333333333331</ele><time>2026-04-25T13:44:40.958Z</time></trkpt><trkpt lat="46.2859817" lon="13.1107283"><ele>196.16666666666666</ele><time>2026-04-25T13:44:41.957Z</time></trkpt><trkpt lat="46.2859417" lon="13.110835"><ele>196.0</ele><time>2026-04-25T13:44:42.956Z</time></trkpt><trkpt lat="46.2859033" lon="13.1109283"><ele>196.8</ele><time>2026-04-25T13:44:43.955Z</time></trkpt><trkpt lat="46.2858383" lon="13.1110617"><ele>197.60000000000002</ele><time>2026-04-25T13:44:45.956Z</time></trkpt><trkpt lat="46.285805" lon="13.11115"><ele>198.4</ele><time>2026-04-25T13:44:47.956Z</time></trkpt><trkpt lat="46.2858083" lon="13.1112967"><ele>199.2</ele><time>2026-04-25T13:45:02.956Z</time></trkpt><trkpt lat="46.285925" lon="13.1114433"><ele>200.0</ele><time>2026-04-25T13:45:04.956Z</time></trkpt><trkpt lat="46.28601" lon="13.1115183"><ele>200.0</ele><time>2026-04-25T13:45:05.957Z</time></trkpt><trkpt lat="46.286145" lon="13.1116167"><ele>200.0</ele><time>2026-04-25T13:45:06.957Z</time></trkpt><trkpt lat="46.2862933" lon="13.111725"><ele>200.0</ele><time>2026-04-25T13:45:07.958Z</time></trkpt><trkpt lat="46.286475" lon="13.11186"><ele>200.0</ele><time>2026-04-25T13:45:08.957Z</time></trkpt><trkpt lat="46.286685" lon="13.1120167"><ele>200.0</ele><time>2026-04-25T13:45:09.957Z</time></trkpt><trkpt lat="46.2869233" lon="13.11219"><ele>200.0</ele><time>2026-04-25T13:45:10.957Z</time></trkpt><trkpt lat="46.2871883" lon="13.112385"><ele>200.0</ele><time>2026-04-25T13:45:11.957Z</time></trkpt><trkpt lat="46.2874733" lon="13.112595"><ele>200.5</ele><time>2026-04-25T13:45:12.956Z</time></trkpt><trkpt lat="46.2877617" lon="13.1128067"><ele>201.0</ele><time>2026-04-25T13:45:13.957Z</time></trkpt><trkpt lat="46.2880283" lon="13.1130017"><ele>201.0</ele><time>2026-04-25T13:45:14.956Z</time></trkpt><trkpt lat="46.2882817" lon="13.1131783"><ele>201.0</ele><time>2026-04-25T13:45:15.956Z</time></trkpt><trkpt lat="46.2885233" lon="13.1133483"><ele>201.5</ele><time>2026-04-25T13:45:16.956Z</time></trkpt><trkpt lat="46.2887533" lon="13.1135183"><ele>202.0</ele><time>2026-04-25T13:45:17.957Z</time></trkpt><trkpt lat="46.2889783" lon="13.1136833"><ele>201.0</ele><time>2026-04-25T13:45:18.957Z</time></trkpt><trkpt lat="46.289195" lon="13.1138483"><ele>200.0</ele><time>2026-04-25T13:45:19.956Z</time></trkpt><trkpt lat="46.289405" lon="13.1140067"><ele>200.0</ele><time>2026-04-25T13:45:20.957Z</time></trkpt><trkpt lat="46.2896167" lon="13.1141583"><ele>200.0</ele><time>2026-04-25T13:45:21.956Z</time></trkpt><trkpt lat="46.289825" lon="13.1143033"><ele>201.0</ele><time>2026-04-25T13:45:22.957Z</time></trkpt><trkpt lat="46.290035" lon="13.114435"><ele>202.0</ele><time>2026-04-25T13:45:23.957Z</time></trkpt><trkpt lat="46.2902383" lon="13.1145367"><ele>203.0</ele><time>2026-04-25T13:45:24.956Z</time></trkpt><trkpt lat="46.2904317" lon="13.1146183"><ele>202.33333333333334</ele><time>2026-04-25T13:45:25.956Z</time></trkpt><trkpt lat="46.2906283" lon="13.114685"><ele>201.66666666666669</ele><time>2026-04-25T13:45:26.957Z</time></trkpt><trkpt lat="46.2908317" lon="13.1147417"><ele>201.0</ele><time>2026-04-25T13:45:27.957Z</time></trkpt><trkpt lat="46.291035" lon="13.1147933"><ele>201.0</ele><time>2026-04-25T13:45:28.957Z</time></trkpt><trkpt lat="46.2912417" lon="13.1148483"><ele>201.0</ele><time>2026-04-25T13:45:29.957Z</time></trkpt><trkpt lat="46.2914583" lon="13.114905"><ele>201.0</ele><time>2026-04-25T13:45:30.957Z</time></trkpt><trkpt lat="46.2916783" lon="13.1149583"><ele>202.0</ele><time>2026-04-25T13:45:31.956Z</time></trkpt><trkpt lat="46.291905" lon="13.1150133"><ele>203.0</ele><time>2026-04-25T13:45:32.956Z</time></trkpt><trkpt lat="46.2921283" lon="13.115065"><ele>203.33333333333334</ele><time>2026-04-25T13:45:33.956Z</time></trkpt><trkpt lat="46.29235" lon="13.1151117"><ele>203.66666666666669</ele><time>2026-04-25T13:45:34.958Z</time></trkpt><trkpt lat="46.2925667" lon="13.11516"><ele>204.0</ele><time>2026-04-25T13:45:35.957Z</time></trkpt><trkpt lat="46.2927817" lon="13.1152083"><ele>204.0</ele><time>2026-04-25T13:45:36.957Z</time></trkpt><trkpt lat="46.293" lon="13.11525"><ele>204.0</ele><time>2026-04-25T13:45:37.956Z</time></trkpt><trkpt lat="46.2932183" lon="13.115285"><ele>204.0</ele><time>2026-04-25T13:45:38.957Z</time></trkpt><trkpt lat="46.2934367" lon="13.1153167"><ele>204.0</ele><time>2026-04-25T13:45:39.956Z</time></trkpt><trkpt lat="46.2936583" lon="13.1153417"><ele>204.0</ele><time>2026-04-25T13:45:40.956Z</time></trkpt><trkpt lat="46.2938833" lon="13.1153583"><ele>204.0</ele><time>2026-04-25T13:45:41.956Z</time></trkpt><trkpt lat="46.2941117" lon="13.115365"><ele>203.5</ele><time>2026-04-25T13:45:42.956Z</time></trkpt><trkpt lat="46.2943467" lon="13.1153633"><ele>203.0</ele><time>2026-04-25T13:45:43.957Z</time></trkpt><trkpt lat="46.29458" lon="13.1153567"><ele>204.0</ele><time>2026-04-25T13:45:44.957Z</time></trkpt><trkpt lat="46.2948167" lon="13.1153467"><ele>205.0</ele><time>2026-04-25T13:45:45.956Z</time></trkpt><trkpt lat="46.295055" lon="13.11534"><ele>205.0</ele><time>2026-04-25T13:45:46.957Z</time></trkpt><trkpt lat="46.29529" lon="13.115335"><ele>205.0</ele><time>2026-04-25T13:45:47.957Z</time></trkpt><trkpt lat="46.2955233" lon="13.1153317"><ele>204.5</ele><time>2026-04-25T13:45:48.956Z</time></trkpt><trkpt lat="46.2957533" lon="13.1153367"><ele>204.0</ele><time>2026-04-25T13:45:49.957Z</time></trkpt><trkpt lat="46.2959817" lon="13.1153583"><ele>204.0</ele><time>2026-04-25T13:45:50.957Z</time></trkpt><trkpt lat="46.2962067" lon="13.1154083"><ele>204.0</ele><time>2026-04-25T13:45:51.956Z</time></trkpt><trkpt lat="46.2964267" lon="13.1154867"><ele>205.0</ele><time>2026-04-25T13:45:52.957Z</time></trkpt><trkpt lat="46.2966433" lon="13.11559"><ele>206.0</ele><time>2026-04-25T13:45:53.956Z</time></trkpt><trkpt lat="46.296855" lon="13.1157217"><ele>206.0</ele><time>2026-04-25T13:45:54.956Z</time></trkpt><trkpt lat="46.29706" lon="13.1158717"><ele>206.0</ele><time>2026-04-25T13:45:55.956Z</time></trkpt><trkpt lat="46.297265" lon="13.116035"><ele>208.0</ele><time>2026-04-25T13:45:56.957Z</time></trkpt><trkpt lat="46.2974717" lon="13.1162033"><ele>210.0</ele><time>2026-04-25T13:45:57.956Z</time></trkpt><trkpt lat="46.2976783" lon="13.1163733"><ele>210.0</ele><time>2026-04-25T13:45:58.958Z</time></trkpt><trkpt lat="46.29789" lon="13.1165383"><ele>210.0</ele><time>2026-04-25T13:45:59.958Z</time></trkpt><trkpt lat="46.298105" lon="13.116705"><ele>208.5</ele><time>2026-04-25T13:46:00.957Z</time></trkpt><trkpt lat="46.29832" lon="13.116875"><ele>207.0</ele><time>2026-04-25T13:46:01.956Z</time></trkpt><trkpt lat="46.2985333" lon="13.117045"><ele>207.0</ele><time>2026-04-25T13:46:02.958Z</time></trkpt><trkpt lat="46.2987483" lon="13.1172167"><ele>207.0</ele><time>2026-04-25T13:46:03.957Z</time></trkpt><trkpt lat="46.298965" lon="13.11739"><ele>208.0</ele><time>2026-04-25T13:46:04.958Z</time></trkpt><trkpt lat="46.299185" lon="13.1175633"><ele>209.0</ele><time>2026-04-25T13:46:05.956Z</time></trkpt><trkpt lat="46.2994017" lon="13.1177383"><ele>209.0</ele><time>2026-04-25T13:46:06.957Z</time></trkpt><trkpt lat="46.29962" lon="13.1179133"><ele>209.0</ele><time>2026-04-25T13:46:07.957Z</time></trkpt><trkpt lat="46.29984" lon="13.1180883"><ele>209.0</ele><time>2026-04-25T13:46:08.956Z</time></trkpt><trkpt lat="46.3000633" lon="13.118265"><ele>209.0</ele><time>2026-04-25T13:46:09.956Z</time></trkpt><trkpt lat="46.300285" lon="13.1184433"><ele>209.0</ele><time>2026-04-25T13:46:10.957Z</time></trkpt><trkpt lat="46.3005067" lon="13.1186233"><ele>209.0</ele><time>2026-04-25T13:46:11.955Z</time></trkpt><trkpt lat="46.3007267" lon="13.1187967"><ele>209.5</ele><time>2026-04-25T13:46:12.957Z</time></trkpt><trkpt lat="46.3009467" lon="13.1189717"><ele>210.0</ele><time>2026-04-25T13:46:13.956Z</time></trkpt><trkpt lat="46.301165" lon="13.1191483"><ele>210.0</ele><time>2026-04-25T13:46:14.957Z</time></trkpt><trkpt lat="46.301385" lon="13.1193233"><ele>210.0</ele><time>2026-04-25T13:46:15.956Z</time></trkpt><trkpt lat="46.3016067" lon="13.1194967"><ele>210.0</ele><time>2026-04-25T13:46:16.957Z</time></trkpt><trkpt lat="46.3018283" lon="13.11967"><ele>210.0</ele><time>2026-04-25T13:46:17.955Z</time></trkpt><trkpt lat="46.3020483" lon="13.119845"><ele>212.0</ele><time>2026-04-25T13:46:18.957Z</time></trkpt><trkpt lat="46.302265" lon="13.1200167"><ele>214.0</ele><time>2026-04-25T13:46:19.956Z</time></trkpt><trkpt lat="46.3024767" lon="13.1201867"><ele>214.0</ele><time>2026-04-25T13:46:20.956Z</time></trkpt><trkpt lat="46.3026867" lon="13.120365"><ele>214.0</ele><time>2026-04-25T13:46:21.96Z</time></trkpt><trkpt lat="46.302895" lon="13.1205467"><ele>214.0</ele><time>2026-04-25T13:46:22.956Z</time></trkpt><trkpt lat="46.3030983" lon="13.1207367"><ele>214.0</ele><time>2026-04-25T13:46:23.956Z</time></trkpt><trkpt lat="46.3032883" lon="13.1209317"><ele>214.0</ele><time>2026-04-25T13:46:24.956Z</time></trkpt><trkpt lat="46.303475" lon="13.1211217"><ele>214.0</ele><time>2026-04-25T13:46:25.958Z</time></trkpt><trkpt lat="46.3036633" lon="13.121315"><ele>214.0</ele><time>2026-04-25T13:46:26.955Z</time></trkpt><trkpt lat="46.303855" lon="13.1215217"><ele>214.0</ele><time>2026-04-25T13:46:27.957Z</time></trkpt><trkpt lat="46.3040483" lon="13.121735"><ele>214.5</ele><time>2026-04-25T13:46:28.957Z</time></trkpt><trkpt lat="46.3042433" lon="13.121945"><ele>215.0</ele><time>2026-04-25T13:46:29.957Z</time></trkpt><trkpt lat="46.30444" lon="13.12215"><ele>215.0</ele><time>2026-04-25T13:46:30.957Z</time></trkpt><trkpt lat="46.3046367" lon="13.1223583"><ele>215.0</ele><time>2026-04-25T13:46:31.957Z</time></trkpt><trkpt lat="46.3048283" lon="13.1225767"><ele>217.5</ele><time>2026-04-25T13:46:32.957Z</time></trkpt><trkpt lat="46.305015" lon="13.1228133"><ele>220.0</ele><time>2026-04-25T13:46:33.956Z</time></trkpt><trkpt lat="46.3051917" lon="13.1230633"><ele>229.5</ele><time>2026-04-25T13:46:34.958Z</time></trkpt><trkpt lat="46.3053583" lon="13.12333"><ele>239.0</ele><time>2026-04-25T13:46:35.957Z</time></trkpt><trkpt lat="46.305515" lon="13.1236117"><ele>234.0</ele><time>2026-04-25T13:46:36.958Z</time></trkpt><trkpt lat="46.305665" lon="13.1239017"><ele>229.0</ele><time>2026-04-25T13:46:37.957Z</time></trkpt><trkpt lat="46.30581" lon="13.1241933"><ele>229.0</ele><time>2026-04-25T13:46:38.957Z</time></trkpt><trkpt lat="46.3059517" lon="13.1244883"><ele>229.0</ele><time>2026-04-25T13:46:39.958Z</time></trkpt><trkpt lat="46.306095" lon="13.12478"><ele>238.0</ele><time>2026-04-25T13:46:40.957Z</time></trkpt><trkpt lat="46.3062367" lon="13.1250733"><ele>247.0</ele><time>2026-04-25T13:46:41.957Z</time></trkpt><trkpt lat="46.3063817" lon="13.1253633"><ele>241.5</ele><time>2026-04-25T13:46:42.957Z</time></trkpt><trkpt lat="46.3065283" lon="13.12565"><ele>236.0</ele><time>2026-04-25T13:46:43.956Z</time></trkpt><trkpt lat="46.306675" lon="13.125935"><ele>236.0</ele><time>2026-04-25T13:46:44.957Z</time></trkpt><trkpt lat="46.30682" lon="13.1262183"><ele>236.0</ele><time>2026-04-25T13:46:45.956Z</time></trkpt><trkpt lat="46.3069617" lon="13.1264933"><ele>252.5</ele><time>2026-04-25T13:46:46.957Z</time></trkpt><trkpt lat="46.3071033" lon="13.126755"><ele>269.0</ele><time>2026-04-25T13:46:47.957Z</time></trkpt><trkpt lat="46.3072433" lon="13.1270083"><ele>263.33333333333337</ele><time>2026-04-25T13:46:48.957Z</time></trkpt><trkpt lat="46.30739" lon="13.1272483"><ele>257.6666666666667</ele><time>2026-04-25T13:46:49.957Z</time></trkpt><trkpt lat="46.3075483" lon="13.1274733"><ele>252.0</ele><time>2026-04-25T13:46:50.956Z</time></trkpt><trkpt lat="46.307715" lon="13.12768"><ele>252.0</ele><time>2026-04-25T13:46:51.958Z</time></trkpt><trkpt lat="46.3078917" lon="13.12787"><ele>252.0</ele><time>2026-04-25T13:46:52.959Z</time></trkpt><trkpt lat="46.3080733" lon="13.1280383"><ele>252.0</ele><time>2026-04-25T13:46:53.957Z</time></trkpt><trkpt lat="46.3082683" lon="13.128185"><ele>250.33333333333331</ele><time>2026-04-25T13:46:54.956Z</time></trkpt><trkpt lat="46.308475" lon="13.1283067"><ele>248.66666666666666</ele><time>2026-04-25T13:46:55.957Z</time></trkpt><trkpt lat="46.3086833" lon="13.1283967"><ele>247.0</ele><time>2026-04-25T13:46:56.958Z</time></trkpt><trkpt lat="46.3088983" lon="13.1284583"><ele>240.0</ele><time>2026-04-25T13:46:57.957Z</time></trkpt><trkpt lat="46.309115" lon="13.1284983"><ele>233.0</ele><time>2026-04-25T13:46:58.957Z</time></trkpt><trkpt lat="46.309335" lon="13.128515"><ele>226.0</ele><time>2026-04-25T13:46:59.957Z</time></trkpt><trkpt lat="46.309565" lon="13.1285233"><ele>223.0</ele><time>2026-04-25T13:47:00.957Z</time></trkpt><trkpt lat="46.3097967" lon="13.1285267"><ele>220.0</ele><time>2026-04-25T13:47:01.957Z</time></trkpt><trkpt lat="46.3100283" lon="13.1285333"><ele>220.0</ele><time>2026-04-25T13:47:02.956Z</time></trkpt><trkpt lat="46.31026" lon="13.1285383"><ele>220.0</ele><time>2026-04-25T13:47:03.957Z</time></trkpt><trkpt lat="46.3104883" lon="13.128545"><ele>220.66666666666666</ele><time>2026-04-25T13:47:04.957Z</time></trkpt><trkpt lat="46.3106983" lon="13.12855"><ele>221.33333333333331</ele><time>2026-04-25T13:47:05.957Z</time></trkpt><trkpt lat="46.3109017" lon="13.128555"><ele>222.0</ele><time>2026-04-25T13:47:06.957Z</time></trkpt><trkpt lat="46.3111033" lon="13.1285617"><ele>222.0</ele><time>2026-04-25T13:47:07.956Z</time></trkpt><trkpt lat="46.3113083" lon="13.1285633"><ele>222.0</ele><time>2026-04-25T13:47:08.957Z</time></trkpt><trkpt lat="46.31152" lon="13.1285667"><ele>222.0</ele><time>2026-04-25T13:47:09.956Z</time></trkpt><trkpt lat="46.3117417" lon="13.128575"><ele>223.0</ele><time>2026-04-25T13:47:10.956Z</time></trkpt><trkpt lat="46.3119683" lon="13.1285783"><ele>224.0</ele><time>2026-04-25T13:47:11.958Z</time></trkpt><trkpt lat="46.3121983" lon="13.1285867"><ele>224.0</ele><time>2026-04-25T13:47:12.959Z</time></trkpt><trkpt lat="46.3124333" lon="13.1285933"><ele>224.0</ele><time>2026-04-25T13:47:13.957Z</time></trkpt><trkpt lat="46.3126667" lon="13.128605"><ele>224.0</ele><time>2026-04-25T13:47:14.958Z</time></trkpt><trkpt lat="46.312895" lon="13.1286133"><ele>224.0</ele><time>2026-04-25T13:47:15.957Z</time></trkpt><trkpt lat="46.3131267" lon="13.12862"><ele>224.0</ele><time>2026-04-25T13:47:16.955Z</time></trkpt><trkpt lat="46.3133633" lon="13.128625"><ele>224.0</ele><time>2026-04-25T13:47:17.955Z</time></trkpt><trkpt lat="46.3136033" lon="13.128635"><ele>224.0</ele><time>2026-04-25T13:47:18.956Z</time></trkpt><trkpt lat="46.3138467" lon="13.12865"><ele>224.0</ele><time>2026-04-25T13:47:19.955Z</time></trkpt><trkpt lat="46.3140883" lon="13.1286667"><ele>226.0</ele><time>2026-04-25T13:47:20.957Z</time></trkpt><trkpt lat="46.3143267" lon="13.128685"><ele>228.0</ele><time>2026-04-25T13:47:21.956Z</time></trkpt><trkpt lat="46.3145583" lon="13.1287067"><ele>227.33333333333331</ele><time>2026-04-25T13:47:22.956Z</time></trkpt><trkpt lat="46.3147817" lon="13.128735"><ele>226.66666666666666</ele><time>2026-04-25T13:47:23.955Z</time></trkpt><trkpt lat="46.3149933" lon="13.1287733"><ele>226.0</ele><time>2026-04-25T13:47:24.956Z</time></trkpt><trkpt lat="46.3152017" lon="13.128825"><ele>226.0</ele><time>2026-04-25T13:47:25.957Z</time></trkpt><trkpt lat="46.3154117" lon="13.1288833"><ele>226.0</ele><time>2026-04-25T13:47:26.956Z</time></trkpt><trkpt lat="46.3156217" lon="13.1289533"><ele>226.0</ele><time>2026-04-25T13:47:27.956Z</time></trkpt><trkpt lat="46.3158283" lon="13.1290367"><ele>226.0</ele><time>2026-04-25T13:47:28.956Z</time></trkpt><trkpt lat="46.3160267" lon="13.12913"><ele>226.0</ele><time>2026-04-25T13:47:29.956Z</time></trkpt><trkpt lat="46.31623" lon="13.1292317"><ele>226.0</ele><time>2026-04-25T13:47:30.955Z</time></trkpt><trkpt lat="46.3164333" lon="13.12934"><ele>226.0</ele><time>2026-04-25T13:47:31.956Z</time></trkpt><trkpt lat="46.3166317" lon="13.1294517"><ele>226.0</ele><time>2026-04-25T13:47:32.957Z</time></trkpt><trkpt lat="46.31682" lon="13.1295667"><ele>226.0</ele><time>2026-04-25T13:47:33.956Z</time></trkpt><trkpt lat="46.3169967" lon="13.129685"><ele>226.0</ele><time>2026-04-25T13:47:34.958Z</time></trkpt><trkpt lat="46.3171683" lon="13.1298017"><ele>226.0</ele><time>2026-04-25T13:47:35.956Z</time></trkpt><trkpt lat="46.3173433" lon="13.1299183"><ele>226.0</ele><time>2026-04-25T13:47:36.956Z</time></trkpt><trkpt lat="46.31752" lon="13.13003"><ele>226.33333333333331</ele><time>2026-04-25T13:47:37.956Z</time></trkpt><trkpt lat="46.3176933" lon="13.130135"><ele>226.66666666666669</ele><time>2026-04-25T13:47:38.957Z</time></trkpt><trkpt lat="46.3178667" lon="13.1302317"><ele>227.0</ele><time>2026-04-25T13:47:39.955Z</time></trkpt><trkpt lat="46.3180433" lon="13.1303133"><ele>225.33333333333334</ele><time>2026-04-25T13:47:40.957Z</time></trkpt><trkpt lat="46.31822" lon="13.1303783"><ele>223.66666666666669</ele><time>2026-04-25T13:47:41.956Z</time></trkpt><trkpt lat="46.318395" lon="13.1304267"><ele>222.0</ele><time>2026-04-25T13:47:42.955Z</time></trkpt><trkpt lat="46.3185717" lon="13.13046"><ele>222.0</ele><time>2026-04-25T13:47:43.956Z</time></trkpt><trkpt lat="46.3187567" lon="13.1304783"><ele>222.0</ele><time>2026-04-25T13:47:44.956Z</time></trkpt><trkpt lat="46.3189483" lon="13.13049"><ele>222.0</ele><time>2026-04-25T13:47:45.956Z</time></trkpt><trkpt lat="46.3191417" lon="13.1304967"><ele>222.0</ele><time>2026-04-25T13:47:46.957Z</time></trkpt><trkpt lat="46.3193317" lon="13.1305"><ele>222.0</ele><time>2026-04-25T13:47:47.957Z</time></trkpt><trkpt lat="46.3195233" lon="13.1305"><ele>222.0</ele><time>2026-04-25T13:47:48.957Z</time></trkpt><trkpt lat="46.319725" lon="13.1304983"><ele>221.33333333333331</ele><time>2026-04-25T13:47:49.957Z</time></trkpt><trkpt lat="46.3199267" lon="13.130495"><ele>220.66666666666666</ele><time>2026-04-25T13:47:50.957Z</time></trkpt><trkpt lat="46.3201283" lon="13.1304983"><ele>220.0</ele><time>2026-04-25T13:47:51.957Z</time></trkpt><trkpt lat="46.3203233" lon="13.1305083"><ele>220.0</ele><time>2026-04-25T13:47:52.957Z</time></trkpt><trkpt lat="46.3205183" lon="13.1305267"><ele>220.0</ele><time>2026-04-25T13:47:53.956Z</time></trkpt><trkpt lat="46.320715" lon="13.1305517"><ele>220.0</ele><time>2026-04-25T13:47:54.956Z</time></trkpt><trkpt lat="46.3209167" lon="13.130585"><ele>220.0</ele><time>2026-04-25T13:47:55.957Z</time></trkpt><trkpt lat="46.3211183" lon="13.130625"><ele>220.0</ele><time>2026-04-25T13:47:56.958Z</time></trkpt><trkpt lat="46.3213233" lon="13.130675"><ele>220.0</ele><time>2026-04-25T13:47:57.958Z</time></trkpt><trkpt lat="46.3215217" lon="13.13073"><ele>220.66666666666666</ele><time>2026-04-25T13:47:58.956Z</time></trkpt><trkpt lat="46.3217083" lon="13.1307817"><ele>221.33333333333331</ele><time>2026-04-25T13:47:59.956Z</time></trkpt><trkpt lat="46.32189" lon="13.1308317"><ele>222.0</ele><time>2026-04-25T13:48:00.956Z</time></trkpt><trkpt lat="46.322075" lon="13.13089"><ele>221.66666666666669</ele><time>2026-04-25T13:48:01.956Z</time></trkpt><trkpt lat="46.3222683" lon="13.1309483"><ele>221.33333333333334</ele><time>2026-04-25T13:48:02.957Z</time></trkpt><trkpt lat="46.3224667" lon="13.1310083"><ele>221.0</ele><time>2026-04-25T13:48:03.956Z</time></trkpt><trkpt lat="46.3226767" lon="13.1310783"><ele>221.0</ele><time>2026-04-25T13:48:04.957Z</time></trkpt><trkpt lat="46.3228917" lon="13.1311533"><ele>221.0</ele><time>2026-04-25T13:48:05.956Z</time></trkpt><trkpt lat="46.32311" lon="13.1312267"><ele>221.0</ele><time>2026-04-25T13:48:06.957Z</time></trkpt><trkpt lat="46.323335" lon="13.1312917"><ele>221.5</ele><time>2026-04-25T13:48:07.955Z</time></trkpt><trkpt lat="46.3235583" lon="13.13136"><ele>222.0</ele><time>2026-04-25T13:48:08.957Z</time></trkpt><trkpt lat="46.3237783" lon="13.131435"><ele>222.0</ele><time>2026-04-25T13:48:09.956Z</time></trkpt><trkpt lat="46.324" lon="13.1315317"><ele>222.0</ele><time>2026-04-25T13:48:10.956Z</time></trkpt><trkpt lat="46.3242217" lon="13.13165"><ele>222.5</ele><time>2026-04-25T13:48:11.956Z</time></trkpt><trkpt lat="46.3244367" lon="13.131795"><ele>223.0</ele><time>2026-04-25T13:48:12.956Z</time></trkpt><trkpt lat="46.32465" lon="13.13196"><ele>223.0</ele><time>2026-04-25T13:48:13.956Z</time></trkpt><trkpt lat="46.324855" lon="13.1321417"><ele>223.0</ele><time>2026-04-25T13:48:14.956Z</time></trkpt><trkpt lat="46.3250583" lon="13.1323283"><ele>222.5</ele><time>2026-04-25T13:48:15.956Z</time></trkpt><trkpt lat="46.32526" lon="13.1325167"><ele>222.0</ele><time>2026-04-25T13:48:16.957Z</time></trkpt><trkpt lat="46.3254633" lon="13.1327067"><ele>223.5</ele><time>2026-04-25T13:48:17.956Z</time></trkpt><trkpt lat="46.325665" lon="13.132895"><ele>225.0</ele><time>2026-04-25T13:48:18.955Z</time></trkpt><trkpt lat="46.3258683" lon="13.133085"><ele>225.0</ele><time>2026-04-25T13:48:19.957Z</time></trkpt><trkpt lat="46.3260717" lon="13.1332767"><ele>225.0</ele><time>2026-04-25T13:48:20.957Z</time></trkpt><trkpt lat="46.326275" lon="13.1334667"><ele>224.5</ele><time>2026-04-25T13:48:21.957Z</time></trkpt><trkpt lat="46.3264783" lon="13.1336583"><ele>224.0</ele><time>2026-04-25T13:48:22.957Z</time></trkpt><trkpt lat="46.3266817" lon="13.13385"><ele>224.0</ele><time>2026-04-25T13:48:23.956Z</time></trkpt><trkpt lat="46.3268867" lon="13.1340417"><ele>224.0</ele><time>2026-04-25T13:48:24.956Z</time></trkpt><trkpt lat="46.3270917" lon="13.13423"><ele>224.0</ele><time>2026-04-25T13:48:25.956Z</time></trkpt><trkpt lat="46.3272983" lon="13.13442"><ele>224.0</ele><time>2026-04-25T13:48:26.956Z</time></trkpt><trkpt lat="46.3275017" lon="13.13461"><ele>224.0</ele><time>2026-04-25T13:48:27.956Z</time></trkpt><trkpt lat="46.3277067" lon="13.1347967"><ele>224.0</ele><time>2026-04-25T13:48:28.957Z</time></trkpt><trkpt lat="46.32791" lon="13.1349867"><ele>224.5</ele><time>2026-04-25T13:48:29.956Z</time></trkpt><trkpt lat="46.3281083" lon="13.1351733"><ele>225.0</ele><time>2026-04-25T13:48:30.956Z</time></trkpt><trkpt lat="46.3283033" lon="13.1353583"><ele>225.0</ele><time>2026-04-25T13:48:31.955Z</time></trkpt><trkpt lat="46.328495" lon="13.1355417"><ele>225.0</ele><time>2026-04-25T13:48:32.956Z</time></trkpt><trkpt lat="46.3286867" lon="13.1357233"><ele>225.0</ele><time>2026-04-25T13:48:33.956Z</time></trkpt><trkpt lat="46.3288783" lon="13.135905"><ele>225.0</ele><time>2026-04-25T13:48:34.955Z</time></trkpt><trkpt lat="46.32907" lon="13.1360817"><ele>225.5</ele><time>2026-04-25T13:48:35.956Z</time></trkpt><trkpt lat="46.329265" lon="13.1362533"><ele>226.0</ele><time>2026-04-25T13:48:36.956Z</time></trkpt><trkpt lat="46.3294617" lon="13.1364167"><ele>226.0</ele><time>2026-04-25T13:48:37.957Z</time></trkpt><trkpt lat="46.3296583" lon="13.1365717"><ele>226.0</ele><time>2026-04-25T13:48:38.956Z</time></trkpt><trkpt lat="46.32986" lon="13.1367233"><ele>226.0</ele><time>2026-04-25T13:48:39.957Z</time></trkpt><trkpt lat="46.3300567" lon="13.1368733"><ele>226.0</ele><time>2026-04-25T13:48:40.957Z</time></trkpt><trkpt lat="46.3302517" lon="13.1370183"><ele>226.0</ele><time>2026-04-25T13:48:41.956Z</time></trkpt><trkpt lat="46.3304417" lon="13.13716"><ele>226.66666666666666</ele><time>2026-04-25T13:48:42.956Z</time></trkpt><trkpt lat="46.3306283" lon="13.1372933"><ele>227.33333333333331</ele><time>2026-04-25T13:48:43.955Z</time></trkpt><trkpt lat="46.330805" lon="13.1374233"><ele>228.0</ele><time>2026-04-25T13:48:44.955Z</time></trkpt><trkpt lat="46.330975" lon="13.13755"><ele>228.0</ele><time>2026-04-25T13:48:45.956Z</time></trkpt><trkpt lat="46.3311417" lon="13.1376783"><ele>228.0</ele><time>2026-04-25T13:48:46.956Z</time></trkpt><trkpt lat="46.3313067" lon="13.1378083"><ele>228.0</ele><time>2026-04-25T13:48:47.956Z</time></trkpt><trkpt lat="46.3314767" lon="13.1379333"><ele>228.33333333333331</ele><time>2026-04-25T13:48:48.956Z</time></trkpt><trkpt lat="46.3316483" lon="13.138045"><ele>228.66666666666666</ele><time>2026-04-25T13:48:49.957Z</time></trkpt><trkpt lat="46.3318217" lon="13.1381333"><ele>229.0</ele><time>2026-04-25T13:48:50.957Z</time></trkpt><trkpt lat="46.3320033" lon="13.1381883"><ele>229.0</ele><time>2026-04-25T13:48:51.957Z</time></trkpt><trkpt lat="46.33219" lon="13.1382033"><ele>229.0</ele><time>2026-04-25T13:48:52.957Z</time></trkpt><trkpt lat="46.33238" lon="13.13817"><ele>229.0</ele><time>2026-04-25T13:48:53.956Z</time></trkpt><trkpt lat="46.3325683" lon="13.1380967"><ele>229.0</ele><time>2026-04-25T13:48:54.957Z</time></trkpt><trkpt lat="46.3327533" lon="13.1379933"><ele>229.0</ele><time>2026-04-25T13:48:55.957Z</time></trkpt><trkpt lat="46.3329333" lon="13.1378833"><ele>229.0</ele><time>2026-04-25T13:48:56.958Z</time></trkpt><trkpt lat="46.333105" lon="13.1377767"><ele>229.0</ele><time>2026-04-25T13:48:57.956Z</time></trkpt><trkpt lat="46.3332667" lon="13.137675"><ele>229.0</ele><time>2026-04-25T13:48:58.957Z</time></trkpt><trkpt lat="46.3334233" lon="13.1375717"><ele>229.0</ele><time>2026-04-25T13:48:59.957Z</time></trkpt><trkpt lat="46.3335767" lon="13.13747"><ele>228.66666666666666</ele><time>2026-04-25T13:49:00.956Z</time></trkpt><trkpt lat="46.3337317" lon="13.1373783"><ele>228.33333333333331</ele><time>2026-04-25T13:49:01.957Z</time></trkpt><trkpt lat="46.3338917" lon="13.137315"><ele>228.0</ele><time>2026-04-25T13:49:02.955Z</time></trkpt><trkpt lat="46.3340583" lon="13.1373067"><ele>229.66666666666669</ele><time>2026-04-25T13:49:03.957Z</time></trkpt><trkpt lat="46.334225" lon="13.137345"><ele>231.33333333333334</ele><time>2026-04-25T13:49:04.956Z</time></trkpt><trkpt lat="46.3343933" lon="13.1374267"><ele>233.0</ele><time>2026-04-25T13:49:05.957Z</time></trkpt><trkpt lat="46.334565" lon="13.1375317"><ele>233.0</ele><time>2026-04-25T13:49:06.956Z</time></trkpt><trkpt lat="46.3347433" lon="13.137645"><ele>233.0</ele><time>2026-04-25T13:49:07.958Z</time></trkpt><trkpt lat="46.334935" lon="13.1377567"><ele>233.0</ele><time>2026-04-25T13:49:08.957Z</time></trkpt><trkpt lat="46.335135" lon="13.1378683"><ele>233.0</ele><time>2026-04-25T13:49:09.956Z</time></trkpt><trkpt lat="46.3353367" lon="13.137985"><ele>233.0</ele><time>2026-04-25T13:49:10.956Z</time></trkpt><trkpt lat="46.3355383" lon="13.1381067"><ele>233.0</ele><time>2026-04-25T13:49:11.956Z</time></trkpt><trkpt lat="46.33574" lon="13.13823"><ele>232.33333333333334</ele><time>2026-04-25T13:49:12.955Z</time></trkpt><trkpt lat="46.335945" lon="13.13835"><ele>231.66666666666669</ele><time>2026-04-25T13:49:13.957Z</time></trkpt><trkpt lat="46.3361467" lon="13.1384683"><ele>231.0</ele><time>2026-04-25T13:49:14.956Z</time></trkpt><trkpt lat="46.3363433" lon="13.1385867"><ele>231.33333333333331</ele><time>2026-04-25T13:49:15.957Z</time></trkpt><trkpt lat="46.33654" lon="13.1387033"><ele>231.66666666666666</ele><time>2026-04-25T13:49:16.956Z</time></trkpt><trkpt lat="46.3367383" lon="13.13882"><ele>232.0</ele><time>2026-04-25T13:49:17.956Z</time></trkpt><trkpt lat="46.33693" lon="13.1389333"><ele>232.0</ele><time>2026-04-25T13:49:18.956Z</time></trkpt><trkpt lat="46.3371167" lon="13.1390433"><ele>232.0</ele><time>2026-04-25T13:49:19.957Z</time></trkpt><trkpt lat="46.3372967" lon="13.1391517"><ele>232.0</ele><time>2026-04-25T13:49:20.957Z</time></trkpt><trkpt lat="46.3374683" lon="13.1392567"><ele>231.66666666666666</ele><time>2026-04-25T13:49:21.957Z</time></trkpt><trkpt lat="46.3376367" lon="13.13936"><ele>231.33333333333331</ele><time>2026-04-25T13:49:22.956Z</time></trkpt><trkpt lat="46.3378067" lon="13.13946"><ele>231.0</ele><time>2026-04-25T13:49:23.957Z</time></trkpt><trkpt lat="46.33798" lon="13.139555"><ele>231.66666666666669</ele><time>2026-04-25T13:49:24.957Z</time></trkpt><trkpt lat="46.3381617" lon="13.1396383"><ele>232.33333333333334</ele><time>2026-04-25T13:49:25.957Z</time></trkpt><trkpt lat="46.33835" lon="13.1397083"><ele>233.0</ele><time>2026-04-25T13:49:26.957Z</time></trkpt><trkpt lat="46.338545" lon="13.1397633"><ele>233.0</ele><time>2026-04-25T13:49:27.957Z</time></trkpt><trkpt lat="46.3387467" lon="13.1398067"><ele>233.0</ele><time>2026-04-25T13:49:28.956Z</time></trkpt><trkpt lat="46.33895" lon="13.139835"><ele>233.0</ele><time>2026-04-25T13:49:29.956Z</time></trkpt><trkpt lat="46.3391567" lon="13.13985"><ele>233.0</ele><time>2026-04-25T13:49:30.956Z</time></trkpt><trkpt lat="46.339365" lon="13.1398533"><ele>233.0</ele><time>2026-04-25T13:49:31.957Z</time></trkpt><trkpt lat="46.3395767" lon="13.13985"><ele>233.0</ele><time>2026-04-25T13:49:32.956Z</time></trkpt><trkpt lat="46.3397933" lon="13.1398417"><ele>232.66666666666669</ele><time>2026-04-25T13:49:33.957Z</time></trkpt><trkpt lat="46.3400117" lon="13.139835"><ele>232.33333333333331</ele><time>2026-04-25T13:49:34.957Z</time></trkpt><trkpt lat="46.34023" lon="13.13983"><ele>232.0</ele><time>2026-04-25T13:49:35.956Z</time></trkpt><trkpt lat="46.3404483" lon="13.1398183"><ele>232.5</ele><time>2026-04-25T13:49:36.957Z</time></trkpt><trkpt lat="46.3406717" lon="13.1398033"><ele>233.0</ele><time>2026-04-25T13:49:37.956Z</time></trkpt><trkpt lat="46.3409" lon="13.1397917"><ele>233.0</ele><time>2026-04-25T13:49:38.956Z</time></trkpt><trkpt lat="46.3411333" lon="13.1397833"><ele>233.0</ele><time>2026-04-25T13:49:39.957Z</time></trkpt><trkpt lat="46.3413683" lon="13.139775"><ele>233.0</ele><time>2026-04-25T13:49:40.957Z</time></trkpt><trkpt lat="46.341605" lon="13.1397667"><ele>233.0</ele><time>2026-04-25T13:49:41.957Z</time></trkpt><trkpt lat="46.341845" lon="13.13976"><ele>233.0</ele><time>2026-04-25T13:49:42.956Z</time></trkpt><trkpt lat="46.3420833" lon="13.1397533"><ele>233.0</ele><time>2026-04-25T13:49:43.957Z</time></trkpt><trkpt lat="46.342325" lon="13.139745"><ele>233.0</ele><time>2026-04-25T13:49:44.957Z</time></trkpt><trkpt lat="46.3425717" lon="13.139735"><ele>233.0</ele><time>2026-04-25T13:49:45.957Z</time></trkpt><trkpt lat="46.342825" lon="13.1397233"><ele>234.5</ele><time>2026-04-25T13:49:46.956Z</time></trkpt><trkpt lat="46.343085" lon="13.139715"><ele>236.0</ele><time>2026-04-25T13:49:47.956Z</time></trkpt><trkpt lat="46.3433483" lon="13.1397217"><ele>236.0</ele><time>2026-04-25T13:49:48.956Z</time></trkpt><trkpt lat="46.3436117" lon="13.139745"><ele>236.0</ele><time>2026-04-25T13:49:49.956Z</time></trkpt><trkpt lat="46.3438683" lon="13.1397967"><ele>235.5</ele><time>2026-04-25T13:49:50.956Z</time></trkpt><trkpt lat="46.3441167" lon="13.13988"><ele>235.0</ele><time>2026-04-25T13:49:51.956Z</time></trkpt><trkpt lat="46.3443567" lon="13.13999"><ele>235.0</ele><time>2026-04-25T13:49:52.957Z</time></trkpt><trkpt lat="46.34459" lon="13.1401217"><ele>235.0</ele><time>2026-04-25T13:49:53.955Z</time></trkpt><trkpt lat="46.344825" lon="13.1402567"><ele>235.0</ele><time>2026-04-25T13:49:54.956Z</time></trkpt><trkpt lat="46.34506" lon="13.1403917"><ele>235.0</ele><time>2026-04-25T13:49:55.955Z</time></trkpt><trkpt lat="46.3452967" lon="13.1405267"><ele>235.0</ele><time>2026-04-25T13:49:56.956Z</time></trkpt><trkpt lat="46.345535" lon="13.140665"><ele>235.0</ele><time>2026-04-25T13:49:57.957Z</time></trkpt><trkpt lat="46.3457767" lon="13.1408"><ele>236.0</ele><time>2026-04-25T13:49:58.957Z</time></trkpt><trkpt lat="46.346015" lon="13.140935"><ele>237.0</ele><time>2026-04-25T13:49:59.956Z</time></trkpt><trkpt lat="46.3462533" lon="13.1410683"><ele>236.0</ele><time>2026-04-25T13:50:00.956Z</time></trkpt><trkpt lat="46.3464967" lon="13.1412"><ele>235.0</ele><time>2026-04-25T13:50:01.957Z</time></trkpt><trkpt lat="46.3467483" lon="13.1413333"><ele>235.0</ele><time>2026-04-25T13:50:02.957Z</time></trkpt><trkpt lat="46.3470083" lon="13.141475"><ele>235.0</ele><time>2026-04-25T13:50:03.958Z</time></trkpt><trkpt lat="46.34727" lon="13.141625"><ele>235.5</ele><time>2026-04-25T13:50:04.956Z</time></trkpt><trkpt lat="46.34753" lon="13.141785"><ele>236.0</ele><time>2026-04-25T13:50:05.956Z</time></trkpt><trkpt lat="46.347785" lon="13.1419467"><ele>236.0</ele><time>2026-04-25T13:50:06.955Z</time></trkpt><trkpt lat="46.348035" lon="13.1420967"><ele>236.0</ele><time>2026-04-25T13:50:07.957Z</time></trkpt><trkpt lat="46.3482783" lon="13.1422317"><ele>236.5</ele><time>2026-04-25T13:50:08.957Z</time></trkpt><trkpt lat="46.3485133" lon="13.1423383"><ele>237.0</ele><time>2026-04-25T13:50:09.956Z</time></trkpt><trkpt lat="46.3487483" lon="13.1424117"><ele>245.0</ele><time>2026-04-25T13:50:10.957Z</time></trkpt><trkpt lat="46.3489867" lon="13.142445"><ele>253.0</ele><time>2026-04-25T13:50:11.956Z</time></trkpt><trkpt lat="46.349225" lon="13.14243"><ele>249.0</ele><time>2026-04-25T13:50:12.957Z</time></trkpt><trkpt lat="46.3494633" lon="13.1423733"><ele>245.0</ele><time>2026-04-25T13:50:13.957Z</time></trkpt><trkpt lat="46.3497033" lon="13.1422817"><ele>245.5</ele><time>2026-04-25T13:50:14.956Z</time></trkpt><trkpt lat="46.3499483" lon="13.1421733"><ele>246.0</ele><time>2026-04-25T13:50:15.957Z</time></trkpt><trkpt lat="46.3501933" lon="13.1420533"><ele>246.0</ele><time>2026-04-25T13:50:16.957Z</time></trkpt><trkpt lat="46.350435" lon="13.1419383"><ele>246.0</ele><time>2026-04-25T13:50:17.957Z</time></trkpt><trkpt lat="46.350675" lon="13.141815"><ele>244.5</ele><time>2026-04-25T13:50:18.958Z</time></trkpt><trkpt lat="46.3509133" lon="13.14168"><ele>243.0</ele><time>2026-04-25T13:50:19.956Z</time></trkpt><trkpt lat="46.351155" lon="13.14153"><ele>246.0</ele><time>2026-04-25T13:50:20.957Z</time></trkpt><trkpt lat="46.3513983" lon="13.1413767"><ele>249.0</ele><time>2026-04-25T13:50:21.956Z</time></trkpt><trkpt lat="46.351635" lon="13.1412283"><ele>249.0</ele><time>2026-04-25T13:50:22.958Z</time></trkpt><trkpt lat="46.3518617" lon="13.1410883"><ele>249.0</ele><time>2026-04-25T13:50:23.957Z</time></trkpt><trkpt lat="46.35208" lon="13.1409433"><ele>248.0</ele><time>2026-04-25T13:50:24.957Z</time></trkpt><trkpt lat="46.3523" lon="13.1407933"><ele>247.0</ele><time>2026-04-25T13:50:25.957Z</time></trkpt><trkpt lat="46.3525333" lon="13.1406383"><ele>247.0</ele><time>2026-04-25T13:50:26.957Z</time></trkpt><trkpt lat="46.3527783" lon="13.1404867"><ele>247.0</ele><time>2026-04-25T13:50:27.957Z</time></trkpt><trkpt lat="46.3530283" lon="13.14033"><ele>248.5</ele><time>2026-04-25T13:50:28.958Z</time></trkpt><trkpt lat="46.35328" lon="13.1401667"><ele>250.0</ele><time>2026-04-25T13:50:29.957Z</time></trkpt><trkpt lat="46.3535183" lon="13.140005"><ele>247.0</ele><time>2026-04-25T13:50:30.957Z</time></trkpt><trkpt lat="46.3537517" lon="13.1398483"><ele>244.0</ele><time>2026-04-25T13:50:31.957Z</time></trkpt><trkpt lat="46.3539883" lon="13.1396933"><ele>244.0</ele><time>2026-04-25T13:50:32.958Z</time></trkpt><trkpt lat="46.3542283" lon="13.1395383"><ele>244.0</ele><time>2026-04-25T13:50:33.957Z</time></trkpt><trkpt lat="46.3544683" lon="13.1393833"><ele>244.5</ele><time>2026-04-25T13:50:34.957Z</time></trkpt><trkpt lat="46.354715" lon="13.139235"><ele>245.0</ele><time>2026-04-25T13:50:35.956Z</time></trkpt><trkpt lat="46.3549633" lon="13.139095"><ele>244.0</ele><time>2026-04-25T13:50:36.957Z</time></trkpt><trkpt lat="46.3552167" lon="13.1389617"><ele>243.0</ele><time>2026-04-25T13:50:37.958Z</time></trkpt><trkpt lat="46.3554717" lon="13.1388333"><ele>242.5</ele><time>2026-04-25T13:50:38.955Z</time></trkpt><trkpt lat="46.3557267" lon="13.1387083"><ele>242.0</ele><time>2026-04-25T13:50:39.957Z</time></trkpt><trkpt lat="46.3559817" lon="13.1385867"><ele>242.0</ele><time>2026-04-25T13:50:40.957Z</time></trkpt><trkpt lat="46.3562333" lon="13.1384683"><ele>242.0</ele><time>2026-04-25T13:50:41.956Z</time></trkpt><trkpt lat="46.35648" lon="13.1383517"><ele>241.5</ele><time>2026-04-25T13:50:42.957Z</time></trkpt><trkpt lat="46.356725" lon="13.138235"><ele>241.0</ele><time>2026-04-25T13:50:43.957Z</time></trkpt><trkpt lat="46.3569617" lon="13.138125"><ele>240.0</ele><time>2026-04-25T13:50:44.956Z</time></trkpt><trkpt lat="46.3571883" lon="13.1380183"><ele>239.0</ele><time>2026-04-25T13:50:45.957Z</time></trkpt><trkpt lat="46.3574133" lon="13.1379133"><ele>239.0</ele><time>2026-04-25T13:50:46.956Z</time></trkpt><trkpt lat="46.3576367" lon="13.1378083"><ele>239.0</ele><time>2026-04-25T13:50:47.957Z</time></trkpt><trkpt lat="46.357865" lon="13.1376967"><ele>239.0</ele><time>2026-04-25T13:50:48.957Z</time></trkpt><trkpt lat="46.3580967" lon="13.13758"><ele>239.0</ele><time>2026-04-25T13:50:49.956Z</time></trkpt><trkpt lat="46.358335" lon="13.1374617"><ele>240.5</ele><time>2026-04-25T13:50:50.955Z</time></trkpt><trkpt lat="46.358585" lon="13.13735"><ele>242.0</ele><time>2026-04-25T13:50:51.957Z</time></trkpt><trkpt lat="46.3588417" lon="13.1372467"><ele>242.0</ele><time>2026-04-25T13:50:52.956Z</time></trkpt><trkpt lat="46.3591" lon="13.13714"><ele>242.0</ele><time>2026-04-25T13:50:53.957Z</time></trkpt><trkpt lat="46.3593583" lon="13.1370333"><ele>242.0</ele><time>2026-04-25T13:50:54.956Z</time></trkpt><trkpt lat="46.3596167" lon="13.13693"><ele>242.0</ele><time>2026-04-25T13:50:55.956Z</time></trkpt><trkpt lat="46.3598717" lon="13.1368283"><ele>242.5</ele><time>2026-04-25T13:50:56.956Z</time></trkpt><trkpt lat="46.3601267" lon="13.1367283"><ele>243.0</ele><time>2026-04-25T13:50:57.957Z</time></trkpt><trkpt lat="46.36038" lon="13.1366317"><ele>242.5</ele><time>2026-04-25T13:50:58.957Z</time></trkpt><trkpt lat="46.360635" lon="13.1365367"><ele>242.0</ele><time>2026-04-25T13:50:59.956Z</time></trkpt><trkpt lat="46.36089" lon="13.136445"><ele>242.0</ele><time>2026-04-25T13:51:00.956Z</time></trkpt><trkpt lat="46.3611417" lon="13.1363567"><ele>242.0</ele><time>2026-04-25T13:51:01.957Z</time></trkpt><trkpt lat="46.3613933" lon="13.13627"><ele>242.5</ele><time>2026-04-25T13:51:02.956Z</time></trkpt><trkpt lat="46.3616467" lon="13.1361867"><ele>243.0</ele><time>2026-04-25T13:51:03.957Z</time></trkpt><trkpt lat="46.3619" lon="13.1361"><ele>243.0</ele><time>2026-04-25T13:51:04.959Z</time></trkpt><trkpt lat="46.3621533" lon="13.13601"><ele>243.0</ele><time>2026-04-25T13:51:05.956Z</time></trkpt><trkpt lat="46.3624067" lon="13.1359233"><ele>244.5</ele><time>2026-04-25T13:51:06.957Z</time></trkpt><trkpt lat="46.36266" lon="13.135835"><ele>246.0</ele><time>2026-04-25T13:51:07.957Z</time></trkpt><trkpt lat="46.3629117" lon="13.1357383"><ele>245.0</ele><time>2026-04-25T13:51:08.956Z</time></trkpt><trkpt lat="46.3631617" lon="13.13564"><ele>244.0</ele><time>2026-04-25T13:51:09.957Z</time></trkpt><trkpt lat="46.363415" lon="13.1355417"><ele>244.0</ele><time>2026-04-25T13:51:10.957Z</time></trkpt><trkpt lat="46.3636683" lon="13.1354483"><ele>244.0</ele><time>2026-04-25T13:51:11.957Z</time></trkpt><trkpt lat="46.3639233" lon="13.1353583"><ele>246.5</ele><time>2026-04-25T13:51:12.957Z</time></trkpt><trkpt lat="46.3641733" lon="13.13527"><ele>249.0</ele><time>2026-04-25T13:51:13.956Z</time></trkpt><trkpt lat="46.3644183" lon="13.135185"><ele>249.0</ele><time>2026-04-25T13:51:14.956Z</time></trkpt><trkpt lat="46.3646567" lon="13.1351017"><ele>249.0</ele><time>2026-04-25T13:51:15.956Z</time></trkpt><trkpt lat="46.3648883" lon="13.1350233"><ele>248.0</ele><time>2026-04-25T13:51:16.957Z</time></trkpt><trkpt lat="46.3651117" lon="13.134945"><ele>247.0</ele><time>2026-04-25T13:51:17.957Z</time></trkpt><trkpt lat="46.3653267" lon="13.1348717"><ele>247.66666666666666</ele><time>2026-04-25T13:51:18.957Z</time></trkpt><trkpt lat="46.3655417" lon="13.1348067"><ele>248.33333333333331</ele><time>2026-04-25T13:51:19.956Z</time></trkpt><trkpt lat="46.3657583" lon="13.134755"><ele>249.0</ele><time>2026-04-25T13:51:20.958Z</time></trkpt><trkpt lat="46.36598" lon="13.13473"><ele>249.0</ele><time>2026-04-25T13:51:21.957Z</time></trkpt><trkpt lat="46.3662033" lon="13.1347333"><ele>249.0</ele><time>2026-04-25T13:51:22.957Z</time></trkpt><trkpt lat="46.3664267" lon="13.1347633"><ele>249.0</ele><time>2026-04-25T13:51:23.955Z</time></trkpt><trkpt lat="46.3666483" lon="13.134815"><ele>249.5</ele><time>2026-04-25T13:51:24.957Z</time></trkpt><trkpt lat="46.3668683" lon="13.13488"><ele>250.0</ele><time>2026-04-25T13:51:25.958Z</time></trkpt><trkpt lat="46.3670883" lon="13.134955"><ele>254.0</ele><time>2026-04-25T13:51:26.957Z</time></trkpt><trkpt lat="46.3673117" lon="13.135035"><ele>258.0</ele><time>2026-04-25T13:51:27.959Z</time></trkpt><trkpt lat="46.3675367" lon="13.1351133"><ele>258.0</ele><time>2026-04-25T13:51:28.957Z</time></trkpt><trkpt lat="46.3677667" lon="13.1351933"><ele>258.0</ele><time>2026-04-25T13:51:29.957Z</time></trkpt><trkpt lat="46.368" lon="13.1352717"><ele>255.5</ele><time>2026-04-25T13:51:30.957Z</time></trkpt><trkpt lat="46.3682283" lon="13.1353533"><ele>253.0</ele><time>2026-04-25T13:51:31.957Z</time></trkpt><trkpt lat="46.368455" lon="13.135435"><ele>253.0</ele><time>2026-04-25T13:51:32.957Z</time></trkpt><trkpt lat="46.3686817" lon="13.1355183"><ele>253.0</ele><time>2026-04-25T13:51:33.957Z</time></trkpt><trkpt lat="46.368915" lon="13.1355983"><ele>253.5</ele><time>2026-04-25T13:51:34.958Z</time></trkpt><trkpt lat="46.3691483" lon="13.13568"><ele>254.0</ele><time>2026-04-25T13:51:35.958Z</time></trkpt><trkpt lat="46.3693733" lon="13.135725"><ele>265.0</ele><time>2026-04-25T13:51:36.958Z</time></trkpt><trkpt lat="46.3696183" lon="13.1357467"><ele>276.0</ele><time>2026-04-25T13:51:37.957Z</time></trkpt><trkpt lat="46.3698533" lon="13.1357483"><ele>276.0</ele><time>2026-04-25T13:51:38.958Z</time></trkpt><trkpt lat="46.3700833" lon="13.1358267"><ele>276.0</ele><time>2026-04-25T13:51:39.958Z</time></trkpt><trkpt lat="46.3703217" lon="13.13573"><ele>268.0</ele><time>2026-04-25T13:51:40.958Z</time></trkpt><trkpt lat="46.37055" lon="13.1357133"><ele>260.0</ele><time>2026-04-25T13:51:41.958Z</time></trkpt><trkpt lat="46.370775" lon="13.1357"><ele>260.0</ele><time>2026-04-25T13:51:42.957Z</time></trkpt><trkpt lat="46.3710033" lon="13.135705"><ele>260.0</ele><time>2026-04-25T13:51:43.957Z</time></trkpt><trkpt lat="46.3712317" lon="13.1357117"><ele>260.0</ele><time>2026-04-25T13:51:44.956Z</time></trkpt><trkpt lat="46.37146" lon="13.1357083"><ele>260.0</ele><time>2026-04-25T13:51:45.956Z</time></trkpt><trkpt lat="46.37169" lon="13.1357167"><ele>268.0</ele><time>2026-04-25T13:51:46.957Z</time></trkpt><trkpt lat="46.37192" lon="13.1357317"><ele>276.0</ele><time>2026-04-25T13:51:47.958Z</time></trkpt><trkpt lat="46.37214" lon="13.13575"><ele>273.6666666666667</ele><time>2026-04-25T13:51:48.957Z</time></trkpt><trkpt lat="46.372345" lon="13.135775"><ele>271.33333333333337</ele><time>2026-04-25T13:51:49.957Z</time></trkpt><trkpt lat="46.3725467" lon="13.1357983"><ele>269.0</ele><time>2026-04-25T13:51:50.957Z</time></trkpt><trkpt lat="46.3727467" lon="13.13583"><ele>269.0</ele><time>2026-04-25T13:51:51.957Z</time></trkpt><trkpt lat="46.3729433" lon="13.1358633"><ele>269.0</ele><time>2026-04-25T13:51:52.957Z</time></trkpt><trkpt lat="46.373135" lon="13.1359017"><ele>269.0</ele><time>2026-04-25T13:51:53.956Z</time></trkpt><trkpt lat="46.3733317" lon="13.13595"><ele>266.0</ele><time>2026-04-25T13:51:54.956Z</time></trkpt><trkpt lat="46.3735283" lon="13.1359967"><ele>263.0</ele><time>2026-04-25T13:51:55.956Z</time></trkpt><trkpt lat="46.37373" lon="13.1360467"><ele>260.0</ele><time>2026-04-25T13:51:56.956Z</time></trkpt><trkpt lat="46.3739367" lon="13.1361117"><ele>259.0</ele><time>2026-04-25T13:51:57.955Z</time></trkpt><trkpt lat="46.3741533" lon="13.1361867"><ele>258.0</ele><time>2026-04-25T13:51:58.957Z</time></trkpt><trkpt lat="46.374385" lon="13.13627"><ele>258.0</ele><time>2026-04-25T13:51:59.956Z</time></trkpt><trkpt lat="46.37463" lon="13.1363833"><ele>258.0</ele><time>2026-04-25T13:52:00.956Z</time></trkpt><trkpt lat="46.374885" lon="13.13652"><ele>263.5</ele><time>2026-04-25T13:52:01.956Z</time></trkpt><trkpt lat="46.3751483" lon="13.1366617"><ele>269.0</ele><time>2026-04-25T13:52:02.956Z</time></trkpt><trkpt lat="46.3754283" lon="13.136805"><ele>265.5</ele><time>2026-04-25T13:52:03.955Z</time></trkpt><trkpt lat="46.3757217" lon="13.1369283"><ele>262.0</ele><time>2026-04-25T13:52:04.956Z</time></trkpt><trkpt lat="46.37601" lon="13.13701"><ele>262.0</ele><time>2026-04-25T13:52:05.96Z</time></trkpt><trkpt lat="46.3762867" lon="13.1370367"><ele>262.0</ele><time>2026-04-25T13:52:06.956Z</time></trkpt><trkpt lat="46.3765617" lon="13.137005"><ele>263.5</ele><time>2026-04-25T13:52:07.957Z</time></trkpt><trkpt lat="46.3768233" lon="13.1369117"><ele>265.0</ele><time>2026-04-25T13:52:08.956Z</time></trkpt><trkpt lat="46.3770733" lon="13.1367633"><ele>265.0</ele><time>2026-04-25T13:52:09.956Z</time></trkpt><trkpt lat="46.377305" lon="13.1365667"><ele>265.0</ele><time>2026-04-25T13:52:10.957Z</time></trkpt><trkpt lat="46.3775183" lon="13.13634"><ele>265.0</ele><time>2026-04-25T13:52:11.956Z</time></trkpt><trkpt lat="46.3777033" lon="13.13609"><ele>265.0</ele><time>2026-04-25T13:52:12.956Z</time></trkpt><trkpt lat="46.3778683" lon="13.13582"><ele>265.5</ele><time>2026-04-25T13:52:13.96Z</time></trkpt><trkpt lat="46.37801" lon="13.135535"><ele>266.0</ele><time>2026-04-25T13:52:14.956Z</time></trkpt><trkpt lat="46.3781267" lon="13.1352533"><ele>266.0</ele><time>2026-04-25T13:52:15.956Z</time></trkpt><trkpt lat="46.3782317" lon="13.134985"><ele>266.0</ele><time>2026-04-25T13:52:16.956Z</time></trkpt><trkpt lat="46.37833" lon="13.13473"><ele>266.0</ele><time>2026-04-25T13:52:17.956Z</time></trkpt><trkpt lat="46.3784333" lon="13.1344967"><ele>264.6666666666667</ele><time>2026-04-25T13:52:18.955Z</time></trkpt><trkpt lat="46.37854" lon="13.1342883"><ele>263.3333333333333</ele><time>2026-04-25T13:52:19.956Z</time></trkpt><trkpt lat="46.3786517" lon="13.1341017"><ele>262.0</ele><time>2026-04-25T13:52:20.956Z</time></trkpt><trkpt lat="46.3787783" lon="13.1339333"><ele>262.0</ele><time>2026-04-25T13:52:21.956Z</time></trkpt><trkpt lat="46.378915" lon="13.1337783"><ele>262.0</ele><time>2026-04-25T13:52:22.957Z</time></trkpt><trkpt lat="46.3790633" lon="13.13364"><ele>262.0</ele><time>2026-04-25T13:52:23.957Z</time></trkpt><trkpt lat="46.3792183" lon="13.1335083"><ele>262.0</ele><time>2026-04-25T13:52:24.956Z</time></trkpt><trkpt lat="46.3793783" lon="13.1333867"><ele>262.0</ele><time>2026-04-25T13:52:25.956Z</time></trkpt><trkpt lat="46.379535" lon="13.13327"><ele>262.0</ele><time>2026-04-25T13:52:26.957Z</time></trkpt><trkpt lat="46.3796867" lon="13.1331617"><ele>262.66666666666663</ele><time>2026-04-25T13:52:27.957Z</time></trkpt><trkpt lat="46.379835" lon="13.1330633"><ele>263.3333333333333</ele><time>2026-04-25T13:52:28.957Z</time></trkpt><trkpt lat="46.379985" lon="13.13298"><ele>264.0</ele><time>2026-04-25T13:52:29.957Z</time></trkpt><trkpt lat="46.3801383" lon="13.132915"><ele>264.0</ele><time>2026-04-25T13:52:30.957Z</time></trkpt><trkpt lat="46.3803" lon="13.1328767"><ele>264.0</ele><time>2026-04-25T13:52:31.956Z</time></trkpt><trkpt lat="46.38047" lon="13.1328683"><ele>264.0</ele><time>2026-04-25T13:52:32.956Z</time></trkpt><trkpt lat="46.3806483" lon="13.1328917"><ele>264.3333333333333</ele><time>2026-04-25T13:52:33.956Z</time></trkpt><trkpt lat="46.380825" lon="13.1329383"><ele>264.66666666666663</ele><time>2026-04-25T13:52:34.961Z</time></trkpt><trkpt lat="46.3809967" lon="13.1330183"><ele>265.0</ele><time>2026-04-25T13:52:35.955Z</time></trkpt><trkpt lat="46.381165" lon="13.1331367"><ele>264.66666666666663</ele><time>2026-04-25T13:52:36.956Z</time></trkpt><trkpt lat="46.38133" lon="13.13328"><ele>264.3333333333333</ele><time>2026-04-25T13:52:37.955Z</time></trkpt><trkpt lat="46.381495" lon="13.13345"><ele>264.0</ele><time>2026-04-25T13:52:38.957Z</time></trkpt><trkpt lat="46.381665" lon="13.1336467"><ele>264.0</ele><time>2026-04-25T13:52:39.957Z</time></trkpt><trkpt lat="46.3818417" lon="13.1338617"><ele>264.0</ele><time>2026-04-25T13:52:40.957Z</time></trkpt><trkpt lat="46.382025" lon="13.1340967"><ele>264.0</ele><time>2026-04-25T13:52:41.956Z</time></trkpt><trkpt lat="46.3822133" lon="13.1343483"><ele>264.0</ele><time>2026-04-25T13:52:42.958Z</time></trkpt><trkpt lat="46.3824067" lon="13.134615"><ele>264.0</ele><time>2026-04-25T13:52:43.957Z</time></trkpt><trkpt lat="46.3826033" lon="13.1348867"><ele>264.0</ele><time>2026-04-25T13:52:44.956Z</time></trkpt><trkpt lat="46.3828067" lon="13.1351633"><ele>264.0</ele><time>2026-04-25T13:52:45.956Z</time></trkpt><trkpt lat="46.3830117" lon="13.1354383"><ele>264.0</ele><time>2026-04-25T13:52:46.957Z</time></trkpt><trkpt lat="46.3832217" lon="13.1357167"><ele>266.0</ele><time>2026-04-25T13:52:47.956Z</time></trkpt><trkpt lat="46.3834383" lon="13.135985"><ele>268.0</ele><time>2026-04-25T13:52:48.956Z</time></trkpt><trkpt lat="46.3836583" lon="13.1362433"><ele>268.0</ele><time>2026-04-25T13:52:49.957Z</time></trkpt><trkpt lat="46.3838767" lon="13.1364967"><ele>268.0</ele><time>2026-04-25T13:52:50.957Z</time></trkpt><trkpt lat="46.3840983" lon="13.1367467"><ele>267.5</ele><time>2026-04-25T13:52:51.956Z</time></trkpt><trkpt lat="46.3843217" lon="13.137"><ele>267.0</ele><time>2026-04-25T13:52:52.956Z</time></trkpt><trkpt lat="46.3845417" lon="13.13725"><ele>267.0</ele><time>2026-04-25T13:52:53.957Z</time></trkpt><trkpt lat="46.3847633" lon="13.1374967"><ele>267.0</ele><time>2026-04-25T13:52:54.957Z</time></trkpt><trkpt lat="46.384985" lon="13.13774"><ele>267.0</ele><time>2026-04-25T13:52:55.957Z</time></trkpt><trkpt lat="46.3852083" lon="13.13798"><ele>267.0</ele><time>2026-04-25T13:52:56.957Z</time></trkpt><trkpt lat="46.3854333" lon="13.1382233"><ele>267.0</ele><time>2026-04-25T13:52:57.957Z</time></trkpt><trkpt lat="46.385655" lon="13.138465"><ele>267.0</ele><time>2026-04-25T13:52:58.957Z</time></trkpt><trkpt lat="46.3858733" lon="13.1387067"><ele>267.0</ele><time>2026-04-25T13:52:59.957Z</time></trkpt><trkpt lat="46.3860883" lon="13.1389433"><ele>267.0</ele><time>2026-04-25T13:53:00.957Z</time></trkpt><trkpt lat="46.3862967" lon="13.1391733"><ele>268.0</ele><time>2026-04-25T13:53:01.956Z</time></trkpt><trkpt lat="46.3865033" lon="13.1394067"><ele>269.0</ele><time>2026-04-25T13:53:02.955Z</time></trkpt><trkpt lat="46.3866983" lon="13.13965"><ele>269.5</ele><time>2026-04-25T13:53:03.956Z</time></trkpt><trkpt lat="46.3868733" lon="13.1399183"><ele>270.0</ele><time>2026-04-25T13:53:04.956Z</time></trkpt><trkpt lat="46.3870233" lon="13.1402133"><ele>270.0</ele><time>2026-04-25T13:53:05.956Z</time></trkpt><trkpt lat="46.3871517" lon="13.140525"><ele>270.0</ele><time>2026-04-25T13:53:06.956Z</time></trkpt><trkpt lat="46.3872567" lon="13.1408583"><ele>270.5</ele><time>2026-04-25T13:53:07.955Z</time></trkpt><trkpt lat="46.387335" lon="13.1412067"><ele>271.0</ele><time>2026-04-25T13:53:08.956Z</time></trkpt><trkpt lat="46.3873867" lon="13.1415683"><ele>271.0</ele><time>2026-04-25T13:53:09.956Z</time></trkpt><trkpt lat="46.3874167" lon="13.14194"><ele>271.0</ele><time>2026-04-25T13:53:10.957Z</time></trkpt><trkpt lat="46.387435" lon="13.1423217"><ele>270.0</ele><time>2026-04-25T13:53:11.957Z</time></trkpt><trkpt lat="46.387445" lon="13.1427133"><ele>269.0</ele><time>2026-04-25T13:53:12.956Z</time></trkpt><trkpt lat="46.387455" lon="13.1431033"><ele>271.0</ele><time>2026-04-25T13:53:13.955Z</time></trkpt><trkpt lat="46.3874667" lon="13.143495"><ele>273.0</ele><time>2026-04-25T13:53:14.956Z</time></trkpt><trkpt lat="46.3874817" lon="13.1438867"><ele>280.5</ele><time>2026-04-25T13:53:15.956Z</time></trkpt><trkpt lat="46.387495" lon="13.1442733"><ele>288.0</ele><time>2026-04-25T13:53:16.955Z</time></trkpt><trkpt lat="46.3875017" lon="13.1446567"><ele>286.5</ele><time>2026-04-25T13:53:17.957Z</time></trkpt><trkpt lat="46.3874917" lon="13.145035"><ele>285.0</ele><time>2026-04-25T13:53:18.956Z</time></trkpt><trkpt lat="46.3874683" lon="13.1454167"><ele>281.0</ele><time>2026-04-25T13:53:19.957Z</time></trkpt><trkpt lat="46.3874383" lon="13.1458033"><ele>277.0</ele><time>2026-04-25T13:53:20.955Z</time></trkpt><trkpt lat="46.3874033" lon="13.1461933"><ele>275.5</ele><time>2026-04-25T13:53:21.957Z</time></trkpt><trkpt lat="46.3873683" lon="13.146585"><ele>274.0</ele><time>2026-04-25T13:53:22.956Z</time></trkpt><trkpt lat="46.3873333" lon="13.1469783"><ele>274.0</ele><time>2026-04-25T13:53:23.955Z</time></trkpt><trkpt lat="46.3873017" lon="13.1473733"><ele>274.0</ele><time>2026-04-25T13:53:24.957Z</time></trkpt><trkpt lat="46.3872717" lon="13.1477633"><ele>272.5</ele><time>2026-04-25T13:53:25.957Z</time></trkpt><trkpt lat="46.3872333" lon="13.1481467"><ele>271.0</ele><time>2026-04-25T13:53:26.957Z</time></trkpt><trkpt lat="46.3871867" lon="13.14853"><ele>290.5</ele><time>2026-04-25T13:53:27.957Z</time></trkpt><trkpt lat="46.3871367" lon="13.14891"><ele>310.0</ele><time>2026-04-25T13:53:28.956Z</time></trkpt><trkpt lat="46.3870867" lon="13.1492933"><ele>310.0</ele><time>2026-04-25T13:53:29.956Z</time></trkpt><trkpt lat="46.3870417" lon="13.1496783"><ele>310.0</ele><time>2026-04-25T13:53:30.957Z</time></trkpt><trkpt lat="46.3870117" lon="13.150065"><ele>307.0</ele><time>2026-04-25T13:53:31.956Z</time></trkpt><trkpt lat="46.3869967" lon="13.1504483"><ele>304.0</ele><time>2026-04-25T13:53:32.956Z</time></trkpt><trkpt lat="46.3870083" lon="13.1508283"><ele>304.0</ele><time>2026-04-25T13:53:33.957Z</time></trkpt><trkpt lat="46.38704" lon="13.1511983"><ele>304.0</ele><time>2026-04-25T13:53:34.957Z</time></trkpt><trkpt lat="46.3870767" lon="13.1515483"><ele>304.0</ele><time>2026-04-25T13:53:35.956Z</time></trkpt><trkpt lat="46.3871083" lon="13.1518833"><ele>304.0</ele><time>2026-04-25T13:53:36.955Z</time></trkpt><trkpt lat="46.38713" lon="13.1522033"><ele>313.66666666666663</ele><time>2026-04-25T13:53:37.957Z</time></trkpt><trkpt lat="46.3871433" lon="13.15251"><ele>323.3333333333333</ele><time>2026-04-25T13:53:38.956Z</time></trkpt><trkpt lat="46.3871467" lon="13.15282"><ele>333.0</ele><time>2026-04-25T13:53:39.956Z</time></trkpt><trkpt lat="46.3871383" lon="13.1531383"><ele>338.0</ele><time>2026-04-25T13:53:40.957Z</time></trkpt><trkpt lat="46.3871133" lon="13.15347"><ele>343.0</ele><time>2026-04-25T13:53:41.956Z</time></trkpt><trkpt lat="46.3870833" lon="13.15381"><ele>333.5</ele><time>2026-04-25T13:53:42.956Z</time></trkpt><trkpt lat="46.3870533" lon="13.1541567"><ele>324.0</ele><time>2026-04-25T13:53:43.957Z</time></trkpt><trkpt lat="46.38702" lon="13.1545067"><ele>324.0</ele><time>2026-04-25T13:53:44.956Z</time></trkpt><trkpt lat="46.3869883" lon="13.1548633"><ele>324.0</ele><time>2026-04-25T13:53:45.957Z</time></trkpt><trkpt lat="46.3869617" lon="13.1552233"><ele>316.5</ele><time>2026-04-25T13:53:46.957Z</time></trkpt><trkpt lat="46.386945" lon="13.1555833"><ele>309.0</ele><time>2026-04-25T13:53:47.955Z</time></trkpt><trkpt lat="46.38693" lon="13.155945"><ele>309.0</ele><time>2026-04-25T13:53:48.956Z</time></trkpt><trkpt lat="46.3869317" lon="13.1563133"><ele>309.0</ele><time>2026-04-25T13:53:49.956Z</time></trkpt><trkpt lat="46.38694" lon="13.1566783"><ele>310.0</ele><time>2026-04-25T13:53:50.956Z</time></trkpt><trkpt lat="46.3869533" lon="13.15704"><ele>311.0</ele><time>2026-04-25T13:53:51.957Z</time></trkpt><trkpt lat="46.3869817" lon="13.1573967"><ele>313.0</ele><time>2026-04-25T13:53:52.958Z</time></trkpt><trkpt lat="46.3870217" lon="13.1577383"><ele>315.0</ele><time>2026-04-25T13:53:53.957Z</time></trkpt><trkpt lat="46.3870717" lon="13.158075"><ele>307.0</ele><time>2026-04-25T13:53:54.955Z</time></trkpt><trkpt lat="46.3871383" lon="13.15841"><ele>299.0</ele><time>2026-04-25T13:53:55.956Z</time></trkpt><trkpt lat="46.3872183" lon="13.15874"><ele>289.0</ele><time>2026-04-25T13:53:56.956Z</time></trkpt><trkpt lat="46.3873167" lon="13.1590683"><ele>279.0</ele><time>2026-04-25T13:53:57.956Z</time></trkpt><trkpt lat="46.38742" lon="13.1593883"><ele>279.0</ele><time>2026-04-25T13:53:58.957Z</time></trkpt><trkpt lat="46.38754" lon="13.1596983"><ele>279.0</ele><time>2026-04-25T13:53:59.957Z</time></trkpt><trkpt lat="46.3876717" lon="13.1600033"><ele>281.5</ele><time>2026-04-25T13:54:00.957Z</time></trkpt><trkpt lat="46.387815" lon="13.1603017"><ele>284.0</ele><time>2026-04-25T13:54:01.957Z</time></trkpt><trkpt lat="46.38797" lon="13.1605883"><ele>282.5</ele><time>2026-04-25T13:54:02.956Z</time></trkpt><trkpt lat="46.3881367" lon="13.160865"><ele>281.0</ele><time>2026-04-25T13:54:03.956Z</time></trkpt><trkpt lat="46.3883183" lon="13.1611317"><ele>281.0</ele><time>2026-04-25T13:54:04.957Z</time></trkpt><trkpt lat="46.3885083" lon="13.161385"><ele>281.0</ele><time>2026-04-25T13:54:05.957Z</time></trkpt><trkpt lat="46.3887083" lon="13.1616217"><ele>281.5</ele><time>2026-04-25T13:54:06.956Z</time></trkpt><trkpt lat="46.38892" lon="13.1618367"><ele>282.0</ele><time>2026-04-25T13:54:07.957Z</time></trkpt><trkpt lat="46.3891383" lon="13.16204"><ele>282.0</ele><time>2026-04-25T13:54:08.956Z</time></trkpt><trkpt lat="46.3893633" lon="13.1622367"><ele>282.0</ele><time>2026-04-25T13:54:09.957Z</time></trkpt><trkpt lat="46.38959" lon="13.1624267"><ele>283.5</ele><time>2026-04-25T13:54:10.956Z</time></trkpt><trkpt lat="46.3898167" lon="13.162615"><ele>285.0</ele><time>2026-04-25T13:54:11.956Z</time></trkpt><trkpt lat="46.3900467" lon="13.1628033"><ele>285.0</ele><time>2026-04-25T13:54:12.956Z</time></trkpt><trkpt lat="46.390275" lon="13.1629867"><ele>285.0</ele><time>2026-04-25T13:54:13.957Z</time></trkpt><trkpt lat="46.3905033" lon="13.1631733"><ele>285.0</ele><time>2026-04-25T13:54:14.956Z</time></trkpt><trkpt lat="46.3907367" lon="13.1633633"><ele>285.0</ele><time>2026-04-25T13:54:15.959Z</time></trkpt><trkpt lat="46.3909733" lon="13.16356"><ele>285.0</ele><time>2026-04-25T13:54:16.957Z</time></trkpt><trkpt lat="46.3912083" lon="13.1637617"><ele>285.0</ele><time>2026-04-25T13:54:17.956Z</time></trkpt><trkpt lat="46.391445" lon="13.1639733"><ele>285.0</ele><time>2026-04-25T13:54:18.956Z</time></trkpt><trkpt lat="46.39168" lon="13.1641867"><ele>285.0</ele><time>2026-04-25T13:54:19.957Z</time></trkpt><trkpt lat="46.391915" lon="13.1644017"><ele>285.0</ele><time>2026-04-25T13:54:20.956Z</time></trkpt><trkpt lat="46.3921417" lon="13.164625"><ele>285.0</ele><time>2026-04-25T13:54:21.956Z</time></trkpt><trkpt lat="46.3923633" lon="13.1648567"><ele>287.0</ele><time>2026-04-25T13:54:22.956Z</time></trkpt><trkpt lat="46.3925767" lon="13.1651017"><ele>289.0</ele><time>2026-04-25T13:54:23.957Z</time></trkpt><trkpt lat="46.3927833" lon="13.1653567"><ele>289.0</ele><time>2026-04-25T13:54:24.956Z</time></trkpt><trkpt lat="46.3929883" lon="13.1656183"><ele>289.0</ele><time>2026-04-25T13:54:25.957Z</time></trkpt><trkpt lat="46.39319" lon="13.1658817"><ele>287.0</ele><time>2026-04-25T13:54:26.958Z</time></trkpt><trkpt lat="46.3933867" lon="13.1661483"><ele>285.0</ele><time>2026-04-25T13:54:27.957Z</time></trkpt><trkpt lat="46.3935767" lon="13.1664233"><ele>283.5</ele><time>2026-04-25T13:54:28.957Z</time></trkpt><trkpt lat="46.3937583" lon="13.16671"><ele>282.0</ele><time>2026-04-25T13:54:29.956Z</time></trkpt><trkpt lat="46.393935" lon="13.1670083"><ele>282.0</ele><time>2026-04-25T13:54:30.956Z</time></trkpt><trkpt lat="46.3941067" lon="13.1673117"><ele>282.0</ele><time>2026-04-25T13:54:31.957Z</time></trkpt><trkpt lat="46.3942767" lon="13.167625"><ele>287.0</ele><time>2026-04-25T13:54:32.956Z</time></trkpt><trkpt lat="46.3944417" lon="13.16794"><ele>292.0</ele><time>2026-04-25T13:54:33.956Z</time></trkpt><trkpt lat="46.3946033" lon="13.1682633"><ele>286.5</ele><time>2026-04-25T13:54:34.957Z</time></trkpt><trkpt lat="46.39476" lon="13.16859"><ele>281.0</ele><time>2026-04-25T13:54:35.957Z</time></trkpt><trkpt lat="46.3949167" lon="13.1689217"><ele>286.5</ele><time>2026-04-25T13:54:36.957Z</time></trkpt><trkpt lat="46.3950717" lon="13.1692517"><ele>292.0</ele><time>2026-04-25T13:54:37.956Z</time></trkpt><trkpt lat="46.395225" lon="13.1695767"><ele>288.0</ele><time>2026-04-25T13:54:38.956Z</time></trkpt><trkpt lat="46.3953833" lon="13.1699"><ele>284.0</ele><time>2026-04-25T13:54:39.957Z</time></trkpt><trkpt lat="46.395535" lon="13.1702167"><ele>284.0</ele><time>2026-04-25T13:54:40.956Z</time></trkpt><trkpt lat="46.3956833" lon="13.1705367"><ele>284.0</ele><time>2026-04-25T13:54:41.957Z</time></trkpt><trkpt lat="46.3958267" lon="13.1708617"><ele>287.0</ele><time>2026-04-25T13:54:42.956Z</time></trkpt><trkpt lat="46.39596" lon="13.171195"><ele>290.0</ele><time>2026-04-25T13:54:43.958Z</time></trkpt><trkpt lat="46.3960783" lon="13.17154"><ele>302.5</ele><time>2026-04-25T13:54:44.956Z</time></trkpt><trkpt lat="46.39618" lon="13.1718967"><ele>315.0</ele><time>2026-04-25T13:54:45.958Z</time></trkpt><trkpt lat="46.396275" lon="13.1722567"><ele>297.0</ele><time>2026-04-25T13:54:46.957Z</time></trkpt><trkpt lat="46.3963683" lon="13.1726183"><ele>279.0</ele><time>2026-04-25T13:54:47.955Z</time></trkpt><trkpt lat="46.39646" lon="13.1729783"><ele>283.0</ele><time>2026-04-25T13:54:48.956Z</time></trkpt><trkpt lat="46.396555" lon="13.173335"><ele>287.0</ele><time>2026-04-25T13:54:49.957Z</time></trkpt><trkpt lat="46.3966533" lon="13.1736917"><ele>290.0</ele><time>2026-04-25T13:54:50.956Z</time></trkpt><trkpt lat="46.3967483" lon="13.1740533"><ele>293.0</ele><time>2026-04-25T13:54:51.956Z</time></trkpt><trkpt lat="46.3968417" lon="13.1744183"><ele>293.0</ele><time>2026-04-25T13:54:52.957Z</time></trkpt><trkpt lat="46.3969367" lon="13.1747867"><ele>293.0</ele><time>2026-04-25T13:54:53.956Z</time></trkpt><trkpt lat="46.3970333" lon="13.1751567"><ele>295.5</ele><time>2026-04-25T13:54:54.956Z</time></trkpt><trkpt lat="46.39713" lon="13.175525"><ele>298.0</ele><time>2026-04-25T13:54:55.956Z</time></trkpt><trkpt lat="46.3972283" lon="13.1758867"><ele>295.0</ele><time>2026-04-25T13:54:56.956Z</time></trkpt><trkpt lat="46.3973217" lon="13.1762367"><ele>292.0</ele><time>2026-04-25T13:54:57.957Z</time></trkpt><trkpt lat="46.3974133" lon="13.1765883"><ele>292.0</ele><time>2026-04-25T13:54:58.957Z</time></trkpt><trkpt lat="46.397505" lon="13.1769467"><ele>292.0</ele><time>2026-04-25T13:54:59.956Z</time></trkpt><trkpt lat="46.3976" lon="13.177315"><ele>296.0</ele><time>2026-04-25T13:55:00.957Z</time></trkpt><trkpt lat="46.3976967" lon="13.1776917"><ele>300.0</ele><time>2026-04-25T13:55:01.957Z</time></trkpt><trkpt lat="46.3977933" lon="13.1780767"><ele>300.0</ele><time>2026-04-25T13:55:02.956Z</time></trkpt><trkpt lat="46.39789" lon="13.1784633"><ele>300.0</ele><time>2026-04-25T13:55:03.956Z</time></trkpt><trkpt lat="46.39799" lon="13.178845"><ele>296.0</ele><time>2026-04-25T13:55:04.957Z</time></trkpt><trkpt lat="46.3980883" lon="13.1792183"><ele>292.0</ele><time>2026-04-25T13:55:05.956Z</time></trkpt><trkpt lat="46.39819" lon="13.179585"><ele>292.5</ele><time>2026-04-25T13:55:06.957Z</time></trkpt><trkpt lat="46.3982933" lon="13.179945"><ele>293.0</ele><time>2026-04-25T13:55:07.957Z</time></trkpt><trkpt lat="46.3984" lon="13.1803"><ele>293.0</ele><time>2026-04-25T13:55:08.956Z</time></trkpt><trkpt lat="46.3985083" lon="13.1806483"><ele>293.0</ele><time>2026-04-25T13:55:09.958Z</time></trkpt><trkpt lat="46.3986217" lon="13.1809933"><ele>293.0</ele><time>2026-04-25T13:55:10.956Z</time></trkpt><trkpt lat="46.3987367" lon="13.181335"><ele>293.0</ele><time>2026-04-25T13:55:11.956Z</time></trkpt><trkpt lat="46.39885" lon="13.181675"><ele>294.5</ele><time>2026-04-25T13:55:12.957Z</time></trkpt><trkpt lat="46.3989617" lon="13.1820133"><ele>296.0</ele><time>2026-04-25T13:55:13.957Z</time></trkpt><trkpt lat="46.399075" lon="13.1823533"><ele>296.0</ele><time>2026-04-25T13:55:14.957Z</time></trkpt><trkpt lat="46.3991883" lon="13.1826933"><ele>296.0</ele><time>2026-04-25T13:55:15.956Z</time></trkpt><trkpt lat="46.3993033" lon="13.1830283"><ele>300.0</ele><time>2026-04-25T13:55:16.957Z</time></trkpt><trkpt lat="46.399415" lon="13.183355"><ele>304.0</ele><time>2026-04-25T13:55:17.955Z</time></trkpt><trkpt lat="46.39952" lon="13.1836667"><ele>304.0</ele><time>2026-04-25T13:55:18.956Z</time></trkpt><trkpt lat="46.3996133" lon="13.1839717"><ele>304.0</ele><time>2026-04-25T13:55:19.957Z</time></trkpt><trkpt lat="46.3996867" lon="13.1842717"><ele>304.0</ele><time>2026-04-25T13:55:20.955Z</time></trkpt><trkpt lat="46.3997367" lon="13.1845717"><ele>304.0</ele><time>2026-04-25T13:55:21.956Z</time></trkpt><trkpt lat="46.3997517" lon="13.18488"><ele>304.0</ele><time>2026-04-25T13:55:22.957Z</time></trkpt><trkpt lat="46.399745" lon="13.1852017"><ele>304.0</ele><time>2026-04-25T13:55:23.957Z</time></trkpt><trkpt lat="46.399715" lon="13.185525"><ele>304.0</ele><time>2026-04-25T13:55:24.956Z</time></trkpt><trkpt lat="46.399665" lon="13.185845"><ele>320.5</ele><time>2026-04-25T13:55:25.957Z</time></trkpt><trkpt lat="46.3995767" lon="13.186155"><ele>337.0</ele><time>2026-04-25T13:55:26.956Z</time></trkpt><trkpt lat="46.399455" lon="13.1864567"><ele>329.0</ele><time>2026-04-25T13:55:27.957Z</time></trkpt><trkpt lat="46.3993183" lon="13.1867483"><ele>321.0</ele><time>2026-04-25T13:55:28.957Z</time></trkpt><trkpt lat="46.3991883" lon="13.18705"><ele>309.0</ele><time>2026-04-25T13:55:29.956Z</time></trkpt><trkpt lat="46.39908" lon="13.1873717"><ele>297.0</ele><time>2026-04-25T13:55:30.957Z</time></trkpt><trkpt lat="46.3990067" lon="13.1877217"><ele>297.0</ele><time>2026-04-25T13:55:31.961Z</time></trkpt><trkpt lat="46.3989617" lon="13.1880817"><ele>297.0</ele><time>2026-04-25T13:55:32.956Z</time></trkpt><trkpt lat="46.3989383" lon="13.1884433"><ele>296.5</ele><time>2026-04-25T13:55:33.957Z</time></trkpt><trkpt lat="46.3989133" lon="13.1888033"><ele>296.0</ele><time>2026-04-25T13:55:34.956Z</time></trkpt><trkpt lat="46.3988733" lon="13.1891717"><ele>321.0</ele><time>2026-04-25T13:55:35.957Z</time></trkpt><trkpt lat="46.3988133" lon="13.18954"><ele>346.0</ele><time>2026-04-25T13:55:36.957Z</time></trkpt><trkpt lat="46.39874" lon="13.189895"><ele>346.0</ele><time>2026-04-25T13:55:37.957Z</time></trkpt><trkpt lat="46.398655" lon="13.19022"><ele>346.0</ele><time>2026-04-25T13:55:38.955Z</time></trkpt><trkpt lat="46.3985633" lon="13.190525"><ele>333.0</ele><time>2026-04-25T13:55:39.958Z</time></trkpt><trkpt lat="46.3984517" lon="13.19081"><ele>320.0</ele><time>2026-04-25T13:55:40.957Z</time></trkpt><trkpt lat="46.3983067" lon="13.1910633"><ele>320.0</ele><time>2026-04-25T13:55:41.956Z</time></trkpt><trkpt lat="46.3981317" lon="13.1913"><ele>320.0</ele><time>2026-04-25T13:55:42.957Z</time></trkpt><trkpt lat="46.3979317" lon="13.1915217"><ele>324.5</ele><time>2026-04-25T13:55:43.957Z</time></trkpt><trkpt lat="46.39773" lon="13.1917633"><ele>329.0</ele><time>2026-04-25T13:55:44.958Z</time></trkpt><trkpt lat="46.3975417" lon="13.1920417"><ele>318.0</ele><time>2026-04-25T13:55:45.957Z</time></trkpt><trkpt lat="46.3973733" lon="13.1923567"><ele>307.0</ele><time>2026-04-25T13:55:46.958Z</time></trkpt><trkpt lat="46.3972283" lon="13.1926983"><ele>326.5</ele><time>2026-04-25T13:55:47.956Z</time></trkpt><trkpt lat="46.3971" lon="13.1930517"><ele>346.0</ele><time>2026-04-25T13:55:48.957Z</time></trkpt><trkpt lat="46.396985" lon="13.19341"><ele>346.0</ele><time>2026-04-25T13:55:49.956Z</time></trkpt><trkpt lat="46.396895" lon="13.1937817"><ele>346.0</ele><time>2026-04-25T13:55:50.956Z</time></trkpt><trkpt lat="46.3968367" lon="13.1941717"><ele>335.5</ele><time>2026-04-25T13:55:51.957Z</time></trkpt><trkpt lat="46.3968067" lon="13.1945717"><ele>325.0</ele><time>2026-04-25T13:55:52.957Z</time></trkpt><trkpt lat="46.3968" lon="13.194975"><ele>324.5</ele><time>2026-04-25T13:55:53.956Z</time></trkpt><trkpt lat="46.3968033" lon="13.195375"><ele>324.0</ele><time>2026-04-25T13:55:54.957Z</time></trkpt><trkpt lat="46.3968" lon="13.19577"><ele>326.0</ele><time>2026-04-25T13:55:55.957Z</time></trkpt><trkpt lat="46.396795" lon="13.196165"><ele>328.0</ele><time>2026-04-25T13:55:56.956Z</time></trkpt><trkpt lat="46.396785" lon="13.196555"><ele>331.5</ele><time>2026-04-25T13:55:57.956Z</time></trkpt><trkpt lat="46.3967767" lon="13.1969467"><ele>335.0</ele><time>2026-04-25T13:55:58.956Z</time></trkpt><trkpt lat="46.3967683" lon="13.1973417"><ele>335.0</ele><time>2026-04-25T13:55:59.957Z</time></trkpt><trkpt lat="46.3967567" lon="13.197735"><ele>335.0</ele><time>2026-04-25T13:56:00.955Z</time></trkpt><trkpt lat="46.39674" lon="13.1981283"><ele>336.0</ele><time>2026-04-25T13:56:01.957Z</time></trkpt><trkpt lat="46.3967117" lon="13.1985167"><ele>337.0</ele><time>2026-04-25T13:56:02.956Z</time></trkpt><trkpt lat="46.3966733" lon="13.1988967"><ele>332.0</ele><time>2026-04-25T13:56:03.957Z</time></trkpt><trkpt lat="46.3966267" lon="13.199255"><ele>327.0</ele><time>2026-04-25T13:56:04.957Z</time></trkpt><trkpt lat="46.396585" lon="13.1995983"><ele>323.5</ele><time>2026-04-25T13:56:05.958Z</time></trkpt><trkpt lat="46.3965483" lon="13.1999383"><ele>320.0</ele><time>2026-04-25T13:56:06.957Z</time></trkpt><trkpt lat="46.3965067" lon="13.2002633"><ele>320.0</ele><time>2026-04-25T13:56:07.957Z</time></trkpt><trkpt lat="46.396445" lon="13.2005883"><ele>320.0</ele><time>2026-04-25T13:56:08.957Z</time></trkpt><trkpt lat="46.3963783" lon="13.200915"><ele>328.5</ele><time>2026-04-25T13:56:09.957Z</time></trkpt><trkpt lat="46.3962983" lon="13.2012467"><ele>337.0</ele><time>2026-04-25T13:56:10.958Z</time></trkpt><trkpt lat="46.396215" lon="13.2015817"><ele>337.0</ele><time>2026-04-25T13:56:11.957Z</time></trkpt><trkpt lat="46.39614" lon="13.201915"><ele>337.0</ele><time>2026-04-25T13:56:12.958Z</time></trkpt><trkpt lat="46.396075" lon="13.202245"><ele>336.3333333333333</ele><time>2026-04-25T13:56:13.957Z</time></trkpt><trkpt lat="46.39602" lon="13.202565"><ele>335.6666666666667</ele><time>2026-04-25T13:56:14.957Z</time></trkpt><trkpt lat="46.395965" lon="13.202875"><ele>335.0</ele><time>2026-04-25T13:56:15.956Z</time></trkpt><trkpt lat="46.3959167" lon="13.20319"><ele>329.5</ele><time>2026-04-25T13:56:16.957Z</time></trkpt><trkpt lat="46.3958667" lon="13.20351"><ele>324.0</ele><time>2026-04-25T13:56:17.957Z</time></trkpt><trkpt lat="46.3958117" lon="13.2038317"><ele>322.0</ele><time>2026-04-25T13:56:18.957Z</time></trkpt><trkpt lat="46.3957733" lon="13.2041633"><ele>320.0</ele><time>2026-04-25T13:56:19.957Z</time></trkpt><trkpt lat="46.3957367" lon="13.204495"><ele>320.0</ele><time>2026-04-25T13:56:20.957Z</time></trkpt><trkpt lat="46.395715" lon="13.2048183"><ele>320.0</ele><time>2026-04-25T13:56:21.956Z</time></trkpt><trkpt lat="46.3956967" lon="13.2051317"><ele>320.0</ele><time>2026-04-25T13:56:22.957Z</time></trkpt><trkpt lat="46.3956783" lon="13.2054417"><ele>315.6666666666667</ele><time>2026-04-25T13:56:23.957Z</time></trkpt><trkpt lat="46.3956617" lon="13.2057483"><ele>311.3333333333333</ele><time>2026-04-25T13:56:24.956Z</time></trkpt><trkpt lat="46.39565" lon="13.2060483"><ele>307.0</ele><time>2026-04-25T13:56:25.957Z</time></trkpt><trkpt lat="46.3956383" lon="13.20635"><ele>306.0</ele><time>2026-04-25T13:56:26.956Z</time></trkpt><trkpt lat="46.3956283" lon="13.2066633"><ele>305.0</ele><time>2026-04-25T13:56:27.957Z</time></trkpt><trkpt lat="46.39562" lon="13.2069933"><ele>304.0</ele><time>2026-04-25T13:56:28.957Z</time></trkpt><trkpt lat="46.3956033" lon="13.207335"><ele>304.0</ele><time>2026-04-25T13:56:29.956Z</time></trkpt><trkpt lat="46.3955883" lon="13.2076833"><ele>304.0</ele><time>2026-04-25T13:56:30.957Z</time></trkpt><trkpt lat="46.3955733" lon="13.20804"><ele>304.0</ele><time>2026-04-25T13:56:31.957Z</time></trkpt><trkpt lat="46.3955567" lon="13.2083933"><ele>304.0</ele><time>2026-04-25T13:56:32.957Z</time></trkpt><trkpt lat="46.3955367" lon="13.2087433"><ele>304.5</ele><time>2026-04-25T13:56:33.956Z</time></trkpt><trkpt lat="46.3955183" lon="13.2090867"><ele>305.0</ele><time>2026-04-25T13:56:34.957Z</time></trkpt><trkpt lat="46.3955" lon="13.209425"><ele>313.0</ele><time>2026-04-25T13:56:35.956Z</time></trkpt><trkpt lat="46.39548" lon="13.2097567"><ele>321.0</ele><time>2026-04-25T13:56:36.957Z</time></trkpt><trkpt lat="46.395455" lon="13.2100833"><ele>321.0</ele><time>2026-04-25T13:56:37.957Z</time></trkpt><trkpt lat="46.3954217" lon="13.2104033"><ele>321.0</ele><time>2026-04-25T13:56:38.957Z</time></trkpt><trkpt lat="46.39538" lon="13.21072"><ele>321.0</ele><time>2026-04-25T13:56:39.957Z</time></trkpt><trkpt lat="46.3953333" lon="13.21104"><ele>319.0</ele><time>2026-04-25T13:56:40.957Z</time></trkpt><trkpt lat="46.3952867" lon="13.21136"><ele>317.0</ele><time>2026-04-25T13:56:41.956Z</time></trkpt><trkpt lat="46.39524" lon="13.2116833"><ele>316.0</ele><time>2026-04-25T13:56:42.956Z</time></trkpt><trkpt lat="46.3951917" lon="13.2120133"><ele>315.0</ele><time>2026-04-25T13:56:43.956Z</time></trkpt><trkpt lat="46.3951433" lon="13.2123533"><ele>314.0</ele><time>2026-04-25T13:56:44.957Z</time></trkpt><trkpt lat="46.395095" lon="13.2127083"><ele>313.0</ele><time>2026-04-25T13:56:45.957Z</time></trkpt><trkpt lat="46.3950467" lon="13.2130733"><ele>312.5</ele><time>2026-04-25T13:56:46.957Z</time></trkpt><trkpt lat="46.3949967" lon="13.2134467"><ele>312.0</ele><time>2026-04-25T13:56:47.957Z</time></trkpt><trkpt lat="46.394935" lon="13.213825"><ele>313.0</ele><time>2026-04-25T13:56:48.957Z</time></trkpt><trkpt lat="46.3948767" lon="13.21421"><ele>314.0</ele><time>2026-04-25T13:56:49.957Z</time></trkpt><trkpt lat="46.3948217" lon="13.214605"><ele>314.5</ele><time>2026-04-25T13:56:50.957Z</time></trkpt><trkpt lat="46.3947633" lon="13.215005"><ele>315.0</ele><time>2026-04-25T13:56:51.957Z</time></trkpt><trkpt lat="46.3947" lon="13.2154033"><ele>316.0</ele><time>2026-04-25T13:56:52.957Z</time></trkpt><trkpt lat="46.3946333" lon="13.2158"><ele>317.0</ele><time>2026-04-25T13:56:53.957Z</time></trkpt><trkpt lat="46.3945717" lon="13.21619"><ele>316.0</ele><time>2026-04-25T13:56:54.957Z</time></trkpt><trkpt lat="46.39451" lon="13.2165733"><ele>315.0</ele><time>2026-04-25T13:56:55.957Z</time></trkpt><trkpt lat="46.39445" lon="13.2169517"><ele>314.5</ele><time>2026-04-25T13:56:56.957Z</time></trkpt><trkpt lat="46.3943933" lon="13.2173267"><ele>314.0</ele><time>2026-04-25T13:56:57.957Z</time></trkpt><trkpt lat="46.3943417" lon="13.217695"><ele>314.0</ele><time>2026-04-25T13:56:58.958Z</time></trkpt><trkpt lat="46.3942883" lon="13.2180533"><ele>314.0</ele><time>2026-04-25T13:56:59.957Z</time></trkpt><trkpt lat="46.3942317" lon="13.218405"><ele>315.5</ele><time>2026-04-25T13:57:00.955Z</time></trkpt><trkpt lat="46.3941767" lon="13.218755"><ele>317.0</ele><time>2026-04-25T13:57:01.956Z</time></trkpt><trkpt lat="46.394125" lon="13.2190917"><ele>317.0</ele><time>2026-04-25T13:57:02.955Z</time></trkpt><trkpt lat="46.39408" lon="13.2194167"><ele>317.0</ele><time>2026-04-25T13:57:03.956Z</time></trkpt><trkpt lat="46.394035" lon="13.2197283"><ele>317.0</ele><time>2026-04-25T13:57:04.955Z</time></trkpt><trkpt lat="46.39399" lon="13.2200317"><ele>317.0</ele><time>2026-04-25T13:57:05.957Z</time></trkpt><trkpt lat="46.393945" lon="13.2203217"><ele>317.0</ele><time>2026-04-25T13:57:06.956Z</time></trkpt><trkpt lat="46.3938983" lon="13.2205983"><ele>317.0</ele><time>2026-04-25T13:57:07.956Z</time></trkpt><trkpt lat="46.393855" lon="13.2208683"><ele>316.6666666666667</ele><time>2026-04-25T13:57:08.956Z</time></trkpt><trkpt lat="46.3938133" lon="13.2211333"><ele>316.3333333333333</ele><time>2026-04-25T13:57:09.956Z</time></trkpt><trkpt lat="46.3937767" lon="13.2213917"><ele>316.0</ele><time>2026-04-25T13:57:10.957Z</time></trkpt><trkpt lat="46.393745" lon="13.2216567"><ele>316.0</ele><time>2026-04-25T13:57:11.955Z</time></trkpt><trkpt lat="46.3937167" lon="13.2219317"><ele>316.0</ele><time>2026-04-25T13:57:12.956Z</time></trkpt><trkpt lat="46.393695" lon="13.2222117"><ele>316.0</ele><time>2026-04-25T13:57:13.955Z</time></trkpt><trkpt lat="46.3936783" lon="13.2225"><ele>316.3333333333333</ele><time>2026-04-25T13:57:14.956Z</time></trkpt><trkpt lat="46.39367" lon="13.2228"><ele>316.6666666666667</ele><time>2026-04-25T13:57:15.956Z</time></trkpt><trkpt lat="46.3936733" lon="13.22311"><ele>317.0</ele><time>2026-04-25T13:57:16.956Z</time></trkpt><trkpt lat="46.393685" lon="13.22343"><ele>317.5</ele><time>2026-04-25T13:57:17.955Z</time></trkpt><trkpt lat="46.3937" lon="13.223755"><ele>318.0</ele><time>2026-04-25T13:57:18.956Z</time></trkpt><trkpt lat="46.3937217" lon="13.224085"><ele>318.3333333333333</ele><time>2026-04-25T13:57:19.956Z</time></trkpt><trkpt lat="46.3937433" lon="13.2244117"><ele>318.66666666666663</ele><time>2026-04-25T13:57:20.956Z</time></trkpt><trkpt lat="46.393765" lon="13.2247317"><ele>319.0</ele><time>2026-04-25T13:57:21.957Z</time></trkpt><trkpt lat="46.393785" lon="13.2250483"><ele>319.66666666666663</ele><time>2026-04-25T13:57:22.956Z</time></trkpt><trkpt lat="46.3938" lon="13.225365"><ele>320.3333333333333</ele><time>2026-04-25T13:57:23.956Z</time></trkpt><trkpt lat="46.3938067" lon="13.225685"><ele>321.0</ele><time>2026-04-25T13:57:24.956Z</time></trkpt><trkpt lat="46.393805" lon="13.2260067"><ele>321.5</ele><time>2026-04-25T13:57:25.956Z</time></trkpt><trkpt lat="46.3937917" lon="13.2263367"><ele>322.0</ele><time>2026-04-25T13:57:26.956Z</time></trkpt><trkpt lat="46.3937667" lon="13.2266683"><ele>322.0</ele><time>2026-04-25T13:57:27.956Z</time></trkpt><trkpt lat="46.3937283" lon="13.2269983"><ele>322.0</ele><time>2026-04-25T13:57:28.956Z</time></trkpt><trkpt lat="46.3936783" lon="13.2273333"><ele>321.0</ele><time>2026-04-25T13:57:29.956Z</time></trkpt><trkpt lat="46.393625" lon="13.227675"><ele>320.0</ele><time>2026-04-25T13:57:30.957Z</time></trkpt><trkpt lat="46.3935733" lon="13.2280217"><ele>320.0</ele><time>2026-04-25T13:57:31.956Z</time></trkpt><trkpt lat="46.39352" lon="13.2283733"><ele>320.0</ele><time>2026-04-25T13:57:32.955Z</time></trkpt><trkpt lat="46.3934717" lon="13.2287317"><ele>319.0</ele><time>2026-04-25T13:57:33.957Z</time></trkpt><trkpt lat="46.3934217" lon="13.2290917"><ele>318.0</ele><time>2026-04-25T13:57:34.956Z</time></trkpt><trkpt lat="46.39337" lon="13.2294567"><ele>318.0</ele><time>2026-04-25T13:57:35.956Z</time></trkpt><trkpt lat="46.3933217" lon="13.229825"><ele>318.0</ele><time>2026-04-25T13:57:36.956Z</time></trkpt><trkpt lat="46.3932767" lon="13.2301983"><ele>318.0</ele><time>2026-04-25T13:57:37.956Z</time></trkpt><trkpt lat="46.39323" lon="13.2305733"><ele>318.0</ele><time>2026-04-25T13:57:38.955Z</time></trkpt><trkpt lat="46.3931867" lon="13.2309483"><ele>319.5</ele><time>2026-04-25T13:57:39.955Z</time></trkpt><trkpt lat="46.39314" lon="13.2313233"><ele>321.0</ele><time>2026-04-25T13:57:40.956Z</time></trkpt><trkpt lat="46.3930933" lon="13.2316967"><ele>322.0</ele><time>2026-04-25T13:57:41.955Z</time></trkpt><trkpt lat="46.3930467" lon="13.2320683"><ele>323.0</ele><time>2026-04-25T13:57:42.957Z</time></trkpt><trkpt lat="46.3930017" lon="13.2324383"><ele>335.5</ele><time>2026-04-25T13:57:43.956Z</time></trkpt><trkpt lat="46.3929517" lon="13.2328083"><ele>348.0</ele><time>2026-04-25T13:57:44.956Z</time></trkpt><trkpt lat="46.3928917" lon="13.2331767"><ele>348.5</ele><time>2026-04-25T13:57:45.956Z</time></trkpt><trkpt lat="46.39281" lon="13.2335317"><ele>349.0</ele><time>2026-04-25T13:57:46.956Z</time></trkpt><trkpt lat="46.3927117" lon="13.2338733"><ele>345.5</ele><time>2026-04-25T13:57:47.955Z</time></trkpt><trkpt lat="46.39262" lon="13.2342167"><ele>342.0</ele><time>2026-04-25T13:57:48.956Z</time></trkpt><trkpt lat="46.392555" lon="13.2345683"><ele>342.0</ele><time>2026-04-25T13:57:49.957Z</time></trkpt><trkpt lat="46.3925217" lon="13.23493"><ele>342.0</ele><time>2026-04-25T13:57:50.956Z</time></trkpt><trkpt lat="46.3925167" lon="13.2353"><ele>344.0</ele><time>2026-04-25T13:57:51.957Z</time></trkpt><trkpt lat="46.39253" lon="13.2356733"><ele>346.0</ele><time>2026-04-25T13:57:52.956Z</time></trkpt><trkpt lat="46.3925533" lon="13.236045"><ele>346.0</ele><time>2026-04-25T13:57:53.956Z</time></trkpt><trkpt lat="46.3925683" lon="13.2364117"><ele>346.0</ele><time>2026-04-25T13:57:54.955Z</time></trkpt><trkpt lat="46.3925633" lon="13.2367833"><ele>346.5</ele><time>2026-04-25T13:57:55.956Z</time></trkpt><trkpt lat="46.392535" lon="13.2371617"><ele>347.0</ele><time>2026-04-25T13:57:56.955Z</time></trkpt><trkpt lat="46.392505" lon="13.2375467"><ele>347.0</ele><time>2026-04-25T13:57:57.955Z</time></trkpt><trkpt lat="46.3924783" lon="13.237935"><ele>347.0</ele><time>2026-04-25T13:57:58.956Z</time></trkpt><trkpt lat="46.3924717" lon="13.2383117"><ele>347.5</ele><time>2026-04-25T13:57:59.957Z</time></trkpt><trkpt lat="46.39248" lon="13.2386733"><ele>348.0</ele><time>2026-04-25T13:58:00.956Z</time></trkpt><trkpt lat="46.3924883" lon="13.2390267"><ele>347.0</ele><time>2026-04-25T13:58:01.956Z</time></trkpt><trkpt lat="46.3924967" lon="13.2393767"><ele>346.0</ele><time>2026-04-25T13:58:02.956Z</time></trkpt><trkpt lat="46.3925133" lon="13.2397267"><ele>342.0</ele><time>2026-04-25T13:58:03.956Z</time></trkpt><trkpt lat="46.39254" lon="13.2400783"><ele>338.0</ele><time>2026-04-25T13:58:04.956Z</time></trkpt><trkpt lat="46.3925917" lon="13.240445"><ele>344.5</ele><time>2026-04-25T13:58:05.956Z</time></trkpt><trkpt lat="46.3926633" lon="13.2408267"><ele>351.0</ele><time>2026-04-25T13:58:06.956Z</time></trkpt><trkpt lat="46.3927367" lon="13.2412217"><ele>357.5</ele><time>2026-04-25T13:58:07.956Z</time></trkpt><trkpt lat="46.39282" lon="13.2416183"><ele>364.0</ele><time>2026-04-25T13:58:08.956Z</time></trkpt><trkpt lat="46.392905" lon="13.242015"><ele>370.5</ele><time>2026-04-25T13:58:09.956Z</time></trkpt><trkpt lat="46.3929883" lon="13.2424067"><ele>377.0</ele><time>2026-04-25T13:58:10.957Z</time></trkpt><trkpt lat="46.393085" lon="13.24279"><ele>363.5</ele><time>2026-04-25T13:58:11.957Z</time></trkpt><trkpt lat="46.3932167" lon="13.24316"><ele>350.0</ele><time>2026-04-25T13:58:12.957Z</time></trkpt><trkpt lat="46.39337" lon="13.2435233"><ele>350.0</ele><time>2026-04-25T13:58:13.956Z</time></trkpt><trkpt lat="46.3935333" lon="13.2438833"><ele>350.0</ele><time>2026-04-25T13:58:14.955Z</time></trkpt><trkpt lat="46.3936983" lon="13.24424"><ele>348.5</ele><time>2026-04-25T13:58:15.956Z</time></trkpt><trkpt lat="46.3938533" lon="13.244595"><ele>347.0</ele><time>2026-04-25T13:58:16.955Z</time></trkpt><trkpt lat="46.3939883" lon="13.2449617"><ele>347.0</ele><time>2026-04-25T13:58:17.955Z</time></trkpt><trkpt lat="46.3941033" lon="13.245345"><ele>347.0</ele><time>2026-04-25T13:58:18.955Z</time></trkpt><trkpt lat="46.3941883" lon="13.2457383"><ele>351.0</ele><time>2026-04-25T13:58:19.956Z</time></trkpt><trkpt lat="46.3942583" lon="13.2461367"><ele>355.0</ele><time>2026-04-25T13:58:20.955Z</time></trkpt><trkpt lat="46.3943017" lon="13.2465483"><ele>355.5</ele><time>2026-04-25T13:58:21.955Z</time></trkpt><trkpt lat="46.3943233" lon="13.2469683"><ele>356.0</ele><time>2026-04-25T13:58:22.956Z</time></trkpt><trkpt lat="46.3943333" lon="13.24739"><ele>354.5</ele><time>2026-04-25T13:58:23.956Z</time></trkpt><trkpt lat="46.39434" lon="13.2478267"><ele>353.0</ele><time>2026-04-25T13:58:24.956Z</time></trkpt><trkpt lat="46.39434" lon="13.248265"><ele>357.5</ele><time>2026-04-25T13:58:25.956Z</time></trkpt><trkpt lat="46.3943367" lon="13.2486983"><ele>362.0</ele><time>2026-04-25T13:58:26.957Z</time></trkpt><trkpt lat="46.3943317" lon="13.2491267"><ele>362.0</ele><time>2026-04-25T13:58:27.956Z</time></trkpt><trkpt lat="46.3943267" lon="13.24955"><ele>362.0</ele><time>2026-04-25T13:58:28.957Z</time></trkpt><trkpt lat="46.3943217" lon="13.249975"><ele>362.0</ele><time>2026-04-25T13:58:29.957Z</time></trkpt><trkpt lat="46.39431" lon="13.2503983"><ele>362.0</ele><time>2026-04-25T13:58:30.957Z</time></trkpt><trkpt lat="46.394295" lon="13.250825"><ele>362.0</ele><time>2026-04-25T13:58:31.957Z</time></trkpt><trkpt lat="46.3942817" lon="13.2512533"><ele>362.0</ele><time>2026-04-25T13:58:32.956Z</time></trkpt><trkpt lat="46.3942667" lon="13.2516767"><ele>361.0</ele><time>2026-04-25T13:58:33.955Z</time></trkpt><trkpt lat="46.3942517" lon="13.2520967"><ele>360.0</ele><time>2026-04-25T13:58:34.958Z</time></trkpt><trkpt lat="46.3942333" lon="13.2525067"><ele>360.0</ele><time>2026-04-25T13:58:35.956Z</time></trkpt><trkpt lat="46.394215" lon="13.2529117"><ele>360.0</ele><time>2026-04-25T13:58:36.955Z</time></trkpt><trkpt lat="46.3941783" lon="13.2533133"><ele>359.5</ele><time>2026-04-25T13:58:37.956Z</time></trkpt><trkpt lat="46.39412" lon="13.2537133"><ele>359.0</ele><time>2026-04-25T13:58:38.956Z</time></trkpt><trkpt lat="46.394035" lon="13.2541083"><ele>355.0</ele><time>2026-04-25T13:58:39.955Z</time></trkpt><trkpt lat="46.39393" lon="13.25449"><ele>351.0</ele><time>2026-04-25T13:58:40.956Z</time></trkpt><trkpt lat="46.3938067" lon="13.2548467"><ele>371.0</ele><time>2026-04-25T13:58:41.956Z</time></trkpt><trkpt lat="46.3936867" lon="13.2551783"><ele>391.0</ele><time>2026-04-25T13:58:42.956Z</time></trkpt><trkpt lat="46.393575" lon="13.2554917"><ele>382.0</ele><time>2026-04-25T13:58:43.956Z</time></trkpt><trkpt lat="46.3934833" lon="13.25581"><ele>373.0</ele><time>2026-04-25T13:58:44.957Z</time></trkpt><trkpt lat="46.393425" lon="13.2561417"><ele>366.0</ele><time>2026-04-25T13:58:45.956Z</time></trkpt><trkpt lat="46.3934" lon="13.2564933"><ele>359.0</ele><time>2026-04-25T13:58:46.957Z</time></trkpt><trkpt lat="46.3934117" lon="13.2568583"><ele>359.0</ele><time>2026-04-25T13:58:47.956Z</time></trkpt><trkpt lat="46.3934533" lon="13.2572417"><ele>359.0</ele><time>2026-04-25T13:58:48.957Z</time></trkpt><trkpt lat="46.3935033" lon="13.2576333"><ele>360.0</ele><time>2026-04-25T13:58:49.955Z</time></trkpt><trkpt lat="46.3935567" lon="13.2580233"><ele>361.0</ele><time>2026-04-25T13:58:50.957Z</time></trkpt><trkpt lat="46.3936133" lon="13.2584133"><ele>364.5</ele><time>2026-04-25T13:58:51.957Z</time></trkpt><trkpt lat="46.3936667" lon="13.2587967"><ele>368.0</ele><time>2026-04-25T13:58:52.957Z</time></trkpt><trkpt lat="46.3937267" lon="13.2591717"><ele>369.0</ele><time>2026-04-25T13:58:53.956Z</time></trkpt><trkpt lat="46.3938" lon="13.25954"><ele>370.0</ele><time>2026-04-25T13:58:54.956Z</time></trkpt><trkpt lat="46.3939033" lon="13.2598983"><ele>357.0</ele><time>2026-04-25T13:58:55.958Z</time></trkpt><trkpt lat="46.394035" lon="13.260245"><ele>344.0</ele><time>2026-04-25T13:58:56.957Z</time></trkpt><trkpt lat="46.394185" lon="13.2605883"><ele>349.0</ele><time>2026-04-25T13:58:57.956Z</time></trkpt><trkpt lat="46.394335" lon="13.2609333"><ele>354.0</ele><time>2026-04-25T13:58:58.957Z</time></trkpt><trkpt lat="46.3944917" lon="13.2612667"><ele>352.5</ele><time>2026-04-25T13:58:59.957Z</time></trkpt><trkpt lat="46.3946417" lon="13.2615833"><ele>351.0</ele><time>2026-04-25T13:59:00.957Z</time></trkpt><trkpt lat="46.3947833" lon="13.2619"><ele>351.0</ele><time>2026-04-25T13:59:01.957Z</time></trkpt><trkpt lat="46.39491" lon="13.2622367"><ele>351.0</ele><time>2026-04-25T13:59:02.956Z</time></trkpt><trkpt lat="46.39501" lon="13.2625933"><ele>355.0</ele><time>2026-04-25T13:59:03.956Z</time></trkpt><trkpt lat="46.3950767" lon="13.262975"><ele>359.0</ele><time>2026-04-25T13:59:04.956Z</time></trkpt><trkpt lat="46.39513" lon="13.2633717"><ele>361.0</ele><time>2026-04-25T13:59:05.956Z</time></trkpt><trkpt lat="46.3951733" lon="13.2637767"><ele>363.0</ele><time>2026-04-25T13:59:06.957Z</time></trkpt><trkpt lat="46.3952117" lon="13.2641833"><ele>370.0</ele><time>2026-04-25T13:59:07.957Z</time></trkpt><trkpt lat="46.395245" lon="13.2645917"><ele>377.0</ele><time>2026-04-25T13:59:08.956Z</time></trkpt><trkpt lat="46.39555" lon="13.2692583"><ele>361.5</ele><time>2026-04-25T13:59:19.959Z</time></trkpt><trkpt lat="46.3956633" lon="13.269755"><ele>346.0</ele><time>2026-04-25T13:59:20.956Z</time></trkpt><trkpt lat="46.3957" lon="13.27015"><ele>346.0</ele><time>2026-04-25T13:59:21.957Z</time></trkpt><trkpt lat="46.39573" lon="13.2705267"><ele>346.0</ele><time>2026-04-25T13:59:22.957Z</time></trkpt><trkpt lat="46.3957433" lon="13.2708933"><ele>346.5</ele><time>2026-04-25T13:59:23.955Z</time></trkpt><trkpt lat="46.3957283" lon="13.2712667"><ele>347.0</ele><time>2026-04-25T13:59:24.957Z</time></trkpt><trkpt lat="46.3956783" lon="13.2716483"><ele>349.0</ele><time>2026-04-25T13:59:25.956Z</time></trkpt><trkpt lat="46.395595" lon="13.27203"><ele>351.0</ele><time>2026-04-25T13:59:26.957Z</time></trkpt><trkpt lat="46.3954983" lon="13.2724067"><ele>348.0</ele><time>2026-04-25T13:59:27.957Z</time></trkpt><trkpt lat="46.3953967" lon="13.272775"><ele>345.0</ele><time>2026-04-25T13:59:28.956Z</time></trkpt><trkpt lat="46.3952983" lon="13.2731367"><ele>345.0</ele><time>2026-04-25T13:59:29.956Z</time></trkpt><trkpt lat="46.39521" lon="13.2734867"><ele>345.0</ele><time>2026-04-25T13:59:30.957Z</time></trkpt><trkpt lat="46.39514" lon="13.2738317"><ele>352.0</ele><time>2026-04-25T13:59:31.957Z</time></trkpt><trkpt lat="46.3951" lon="13.2741867"><ele>359.0</ele><time>2026-04-25T13:59:32.956Z</time></trkpt><trkpt lat="46.395095" lon="13.2745583"><ele>365.5</ele><time>2026-04-25T13:59:33.957Z</time></trkpt><trkpt lat="46.3951333" lon="13.274945"><ele>372.0</ele><time>2026-04-25T13:59:34.956Z</time></trkpt><trkpt lat="46.3952033" lon="13.27534"><ele>365.0</ele><time>2026-04-25T13:59:35.955Z</time></trkpt><trkpt lat="46.3952983" lon="13.275735"><ele>358.0</ele><time>2026-04-25T13:59:36.957Z</time></trkpt><trkpt lat="46.3953967" lon="13.2761267"><ele>356.5</ele><time>2026-04-25T13:59:37.955Z</time></trkpt><trkpt lat="46.39549" lon="13.2765167"><ele>355.0</ele><time>2026-04-25T13:59:38.957Z</time></trkpt><trkpt lat="46.3955883" lon="13.2769"><ele>362.5</ele><time>2026-04-25T13:59:39.957Z</time></trkpt><trkpt lat="46.395695" lon="13.27728"><ele>370.0</ele><time>2026-04-25T13:59:40.957Z</time></trkpt><trkpt lat="46.3958033" lon="13.2776617"><ele>370.0</ele><time>2026-04-25T13:59:41.956Z</time></trkpt><trkpt lat="46.395915" lon="13.2780383"><ele>370.0</ele><time>2026-04-25T13:59:42.958Z</time></trkpt><trkpt lat="46.3960317" lon="13.2784133"><ele>364.0</ele><time>2026-04-25T13:59:43.957Z</time></trkpt><trkpt lat="46.3961517" lon="13.278785"><ele>358.0</ele><time>2026-04-25T13:59:44.955Z</time></trkpt><trkpt lat="46.396275" lon="13.2791583"><ele>361.0</ele><time>2026-04-25T13:59:45.956Z</time></trkpt><trkpt lat="46.3964033" lon="13.2795317"><ele>364.0</ele><time>2026-04-25T13:59:46.956Z</time></trkpt><trkpt lat="46.396555" lon="13.279895"><ele>364.5</ele><time>2026-04-25T13:59:47.956Z</time></trkpt><trkpt lat="46.3967283" lon="13.2802433"><ele>365.0</ele><time>2026-04-25T13:59:48.957Z</time></trkpt><trkpt lat="46.3969117" lon="13.2805767"><ele>365.0</ele><time>2026-04-25T13:59:49.957Z</time></trkpt><trkpt lat="46.3971033" lon="13.280905"><ele>365.0</ele><time>2026-04-25T13:59:50.958Z</time></trkpt><trkpt lat="46.3972933" lon="13.2812383"><ele>363.5</ele><time>2026-04-25T13:59:51.957Z</time></trkpt><trkpt lat="46.3974817" lon="13.2815733"><ele>362.0</ele><time>2026-04-25T13:59:52.958Z</time></trkpt><trkpt lat="46.3976667" lon="13.2819083"><ele>362.0</ele><time>2026-04-25T13:59:53.957Z</time></trkpt><trkpt lat="46.39785" lon="13.2822433"><ele>362.0</ele><time>2026-04-25T13:59:54.957Z</time></trkpt><trkpt lat="46.3980333" lon="13.2825767"><ele>366.5</ele><time>2026-04-25T13:59:55.956Z</time></trkpt><trkpt lat="46.39822" lon="13.2829017"><ele>371.0</ele><time>2026-04-25T13:59:56.957Z</time></trkpt><trkpt lat="46.3984217" lon="13.2832033"><ele>371.0</ele><time>2026-04-25T13:59:57.956Z</time></trkpt><trkpt lat="46.398645" lon="13.2834633"><ele>371.0</ele><time>2026-04-25T13:59:58.957Z</time></trkpt><trkpt lat="46.3988883" lon="13.2836767"><ele>366.5</ele><time>2026-04-25T13:59:59.957Z</time></trkpt><trkpt lat="46.3991417" lon="13.28386"><ele>362.0</ele><time>2026-04-25T14:00:00.957Z</time></trkpt><trkpt lat="46.3993883" lon="13.28404"><ele>362.0</ele><time>2026-04-25T14:00:01.957Z</time></trkpt><trkpt lat="46.39962" lon="13.2842183"><ele>362.0</ele><time>2026-04-25T14:00:02.956Z</time></trkpt><trkpt lat="46.399835" lon="13.28441"><ele>361.0</ele><time>2026-04-25T14:00:03.957Z</time></trkpt><trkpt lat="46.400035" lon="13.284625"><ele>360.0</ele><time>2026-04-25T14:00:04.957Z</time></trkpt><trkpt lat="46.4002233" lon="13.2848767"><ele>360.0</ele><time>2026-04-25T14:00:05.955Z</time></trkpt><trkpt lat="46.4004" lon="13.28516"><ele>360.0</ele><time>2026-04-25T14:00:06.957Z</time></trkpt><trkpt lat="46.400575" lon="13.285455"><ele>365.5</ele><time>2026-04-25T14:00:07.957Z</time></trkpt><trkpt lat="46.4007483" lon="13.2857567"><ele>371.0</ele><time>2026-04-25T14:00:08.956Z</time></trkpt><trkpt lat="46.4009217" lon="13.2860567"><ele>371.0</ele><time>2026-04-25T14:00:09.957Z</time></trkpt><trkpt lat="46.4011" lon="13.2863567"><ele>371.0</ele><time>2026-04-25T14:00:10.957Z</time></trkpt><trkpt lat="46.4012817" lon="13.28666"><ele>368.5</ele><time>2026-04-25T14:00:11.956Z</time></trkpt><trkpt lat="46.401465" lon="13.28697"><ele>366.0</ele><time>2026-04-25T14:00:12.957Z</time></trkpt><trkpt lat="46.4016533" lon="13.287265"><ele>366.0</ele><time>2026-04-25T14:00:13.957Z</time></trkpt><trkpt lat="46.401845" lon="13.2875483"><ele>366.0</ele><time>2026-04-25T14:00:14.957Z</time></trkpt><trkpt lat="46.4020317" lon="13.2878317"><ele>370.0</ele><time>2026-04-25T14:00:15.956Z</time></trkpt><trkpt lat="46.4022117" lon="13.2881067"><ele>374.0</ele><time>2026-04-25T14:00:16.957Z</time></trkpt><trkpt lat="46.4023883" lon="13.2883717"><ele>374.0</ele><time>2026-04-25T14:00:17.956Z</time></trkpt><trkpt lat="46.4025633" lon="13.2886317"><ele>374.0</ele><time>2026-04-25T14:00:18.956Z</time></trkpt><trkpt lat="46.4027317" lon="13.2888917"><ele>371.0</ele><time>2026-04-25T14:00:19.957Z</time></trkpt><trkpt lat="46.4029" lon="13.2891467"><ele>368.0</ele><time>2026-04-25T14:00:20.956Z</time></trkpt><trkpt lat="46.403065" lon="13.2894"><ele>370.5</ele><time>2026-04-25T14:00:21.957Z</time></trkpt><trkpt lat="46.4032267" lon="13.2896467"><ele>373.0</ele><time>2026-04-25T14:00:22.957Z</time></trkpt><trkpt lat="46.4033867" lon="13.2898917"><ele>373.0</ele><time>2026-04-25T14:00:23.956Z</time></trkpt><trkpt lat="46.4035417" lon="13.2901433"><ele>373.0</ele><time>2026-04-25T14:00:24.957Z</time></trkpt><trkpt lat="46.403685" lon="13.29041"><ele>370.5</ele><time>2026-04-25T14:00:25.956Z</time></trkpt><trkpt lat="46.4038133" lon="13.29069"><ele>368.0</ele><time>2026-04-25T14:00:26.957Z</time></trkpt><trkpt lat="46.4039233" lon="13.2909917"><ele>369.5</ele><time>2026-04-25T14:00:27.956Z</time></trkpt><trkpt lat="46.4040217" lon="13.291305"><ele>371.0</ele><time>2026-04-25T14:00:28.956Z</time></trkpt><trkpt lat="46.4041167" lon="13.2916233"><ele>371.0</ele><time>2026-04-25T14:00:29.957Z</time></trkpt><trkpt lat="46.4042117" lon="13.291945"><ele>371.0</ele><time>2026-04-25T14:00:30.956Z</time></trkpt><trkpt lat="46.40431" lon="13.292265"><ele>368.5</ele><time>2026-04-25T14:00:31.957Z</time></trkpt><trkpt lat="46.4044067" lon="13.2925783"><ele>366.0</ele><time>2026-04-25T14:00:32.956Z</time></trkpt><trkpt lat="46.404505" lon="13.2928883"><ele>365.5</ele><time>2026-04-25T14:00:33.956Z</time></trkpt><trkpt lat="46.4045983" lon="13.2931967"><ele>365.0</ele><time>2026-04-25T14:00:34.957Z</time></trkpt><trkpt lat="46.4046917" lon="13.2935033"><ele>370.5</ele><time>2026-04-25T14:00:35.956Z</time></trkpt><trkpt lat="46.4047833" lon="13.2938117"><ele>376.0</ele><time>2026-04-25T14:00:36.956Z</time></trkpt><trkpt lat="46.4048667" lon="13.2941283"><ele>376.0</ele><time>2026-04-25T14:00:37.957Z</time></trkpt><trkpt lat="46.40494" lon="13.294445"><ele>376.0</ele><time>2026-04-25T14:00:38.955Z</time></trkpt><trkpt lat="46.4050067" lon="13.2947667"><ele>376.5</ele><time>2026-04-25T14:00:39.957Z</time></trkpt><trkpt lat="46.40507" lon="13.29509"><ele>377.0</ele><time>2026-04-25T14:00:40.956Z</time></trkpt><trkpt lat="46.405135" lon="13.2954167"><ele>372.0</ele><time>2026-04-25T14:00:41.956Z</time></trkpt><trkpt lat="46.4051983" lon="13.295745"><ele>367.0</ele><time>2026-04-25T14:00:42.957Z</time></trkpt><trkpt lat="46.4052667" lon="13.296075"><ele>367.0</ele><time>2026-04-25T14:00:43.958Z</time></trkpt><trkpt lat="46.405335" lon="13.29641"><ele>367.0</ele><time>2026-04-25T14:00:44.956Z</time></trkpt><trkpt lat="46.4054017" lon="13.296745"><ele>366.5</ele><time>2026-04-25T14:00:45.956Z</time></trkpt><trkpt lat="46.4054667" lon="13.2970733"><ele>366.0</ele><time>2026-04-25T14:00:46.957Z</time></trkpt><trkpt lat="46.4055317" lon="13.2974017"><ele>373.5</ele><time>2026-04-25T14:00:47.956Z</time></trkpt><trkpt lat="46.405595" lon="13.29772"><ele>381.0</ele><time>2026-04-25T14:00:48.956Z</time></trkpt><trkpt lat="46.4056583" lon="13.2980367"><ele>378.3333333333333</ele><time>2026-04-25T14:00:49.956Z</time></trkpt><trkpt lat="46.4057183" lon="13.2983433"><ele>375.66666666666663</ele><time>2026-04-25T14:00:50.956Z</time></trkpt><trkpt lat="46.405775" lon="13.29864"><ele>373.0</ele><time>2026-04-25T14:00:51.957Z</time></trkpt><trkpt lat="46.4058283" lon="13.2989317"><ele>373.0</ele><time>2026-04-25T14:00:52.957Z</time></trkpt><trkpt lat="46.4058783" lon="13.2992217"><ele>373.0</ele><time>2026-04-25T14:00:53.957Z</time></trkpt><trkpt lat="46.4059283" lon="13.2995133"><ele>373.0</ele><time>2026-04-25T14:00:54.957Z</time></trkpt><trkpt lat="46.4059783" lon="13.29981"><ele>373.0</ele><time>2026-04-25T14:00:55.957Z</time></trkpt><trkpt lat="46.4060283" lon="13.3001067"><ele>373.0</ele><time>2026-04-25T14:00:56.957Z</time></trkpt><trkpt lat="46.4060783" lon="13.3004067"><ele>373.0</ele><time>2026-04-25T14:00:57.956Z</time></trkpt><trkpt lat="46.4061283" lon="13.3007117"><ele>373.0</ele><time>2026-04-25T14:00:58.957Z</time></trkpt><trkpt lat="46.406175" lon="13.3010217"><ele>373.0</ele><time>2026-04-25T14:00:59.957Z</time></trkpt><trkpt lat="46.4062183" lon="13.3013317"><ele>373.0</ele><time>2026-04-25T14:01:00.958Z</time></trkpt><trkpt lat="46.4062533" lon="13.3016483"><ele>372.66666666666663</ele><time>2026-04-25T14:01:01.957Z</time></trkpt><trkpt lat="46.4062783" lon="13.30197"><ele>372.3333333333333</ele><time>2026-04-25T14:01:02.956Z</time></trkpt><trkpt lat="46.4063" lon="13.3022933"><ele>372.0</ele><time>2026-04-25T14:01:03.957Z</time></trkpt><trkpt lat="46.4063183" lon="13.3026133"><ele>372.6666666666667</ele><time>2026-04-25T14:01:04.957Z</time></trkpt><trkpt lat="46.4063367" lon="13.3029367"><ele>373.33333333333337</ele><time>2026-04-25T14:01:05.956Z</time></trkpt><trkpt lat="46.4063567" lon="13.30326"><ele>374.0</ele><time>2026-04-25T14:01:06.957Z</time></trkpt><trkpt lat="46.4063767" lon="13.303585"><ele>374.0</ele><time>2026-04-25T14:01:07.958Z</time></trkpt><trkpt lat="46.4063967" lon="13.30391"><ele>374.0</ele><time>2026-04-25T14:01:08.957Z</time></trkpt><trkpt lat="46.4064183" lon="13.3042317"><ele>374.0</ele><time>2026-04-25T14:01:09.957Z</time></trkpt><trkpt lat="46.40644" lon="13.3045533"><ele>377.33333333333337</ele><time>2026-04-25T14:01:10.958Z</time></trkpt><trkpt lat="46.40647" lon="13.3048733"><ele>380.6666666666667</ele><time>2026-04-25T14:01:11.957Z</time></trkpt><trkpt lat="46.4065067" lon="13.3051933"><ele>384.0</ele><time>2026-04-25T14:01:12.956Z</time></trkpt><trkpt lat="46.40655" lon="13.3055133"><ele>382.5</ele><time>2026-04-25T14:01:13.957Z</time></trkpt><trkpt lat="46.406595" lon="13.305835"><ele>381.0</ele><time>2026-04-25T14:01:14.957Z</time></trkpt><trkpt lat="46.4066433" lon="13.3061517"><ele>381.0</ele><time>2026-04-25T14:01:15.957Z</time></trkpt><trkpt lat="46.4066917" lon="13.3064717"><ele>381.0</ele><time>2026-04-25T14:01:16.956Z</time></trkpt><trkpt lat="46.40674" lon="13.3067917"><ele>381.0</ele><time>2026-04-25T14:01:17.957Z</time></trkpt><trkpt lat="46.4067883" lon="13.3071167"><ele>381.0</ele><time>2026-04-25T14:01:18.956Z</time></trkpt><trkpt lat="46.406835" lon="13.3074417"><ele>377.0</ele><time>2026-04-25T14:01:19.956Z</time></trkpt><trkpt lat="46.40688" lon="13.30777"><ele>373.0</ele><time>2026-04-25T14:01:20.957Z</time></trkpt><trkpt lat="46.4069267" lon="13.3080983"><ele>373.0</ele><time>2026-04-25T14:01:21.957Z</time></trkpt><trkpt lat="46.4069733" lon="13.30843"><ele>373.0</ele><time>2026-04-25T14:01:22.956Z</time></trkpt><trkpt lat="46.407025" lon="13.3087583"><ele>371.5</ele><time>2026-04-25T14:01:23.957Z</time></trkpt><trkpt lat="46.40708" lon="13.3090833"><ele>370.0</ele><time>2026-04-25T14:01:24.957Z</time></trkpt><trkpt lat="46.4071417" lon="13.3093967"><ele>372.3333333333333</ele><time>2026-04-25T14:01:25.958Z</time></trkpt><trkpt lat="46.4072133" lon="13.3097017"><ele>374.6666666666667</ele><time>2026-04-25T14:01:26.957Z</time></trkpt><trkpt lat="46.4073033" lon="13.3099883"><ele>377.0</ele><time>2026-04-25T14:01:27.957Z</time></trkpt><trkpt lat="46.4074067" lon="13.310265"><ele>377.0</ele><time>2026-04-25T14:01:28.957Z</time></trkpt><trkpt lat="46.407525" lon="13.3105183"><ele>377.0</ele><time>2026-04-25T14:01:29.957Z</time></trkpt><trkpt lat="46.4076583" lon="13.31075"><ele>377.0</ele><time>2026-04-25T14:01:30.956Z</time></trkpt><trkpt lat="46.4078" lon="13.3109483"><ele>376.0</ele><time>2026-04-25T14:01:31.956Z</time></trkpt><trkpt lat="46.407945" lon="13.3111133"><ele>375.0</ele><time>2026-04-25T14:01:32.957Z</time></trkpt><trkpt lat="46.4080883" lon="13.311255"><ele>374.0</ele><time>2026-04-25T14:01:33.957Z</time></trkpt><trkpt lat="46.408225" lon="13.31137"><ele>375.25</ele><time>2026-04-25T14:01:34.957Z</time></trkpt><trkpt lat="46.4083517" lon="13.3114667"><ele>376.5</ele><time>2026-04-25T14:01:35.957Z</time></trkpt><trkpt lat="46.4084617" lon="13.311545"><ele>377.75</ele><time>2026-04-25T14:01:36.957Z</time></trkpt><trkpt lat="46.4085583" lon="13.3116083"><ele>379.0</ele><time>2026-04-25T14:01:37.957Z</time></trkpt><trkpt lat="46.4086167" lon="13.3116883"><ele>379.0</ele><time>2026-04-25T14:01:38.957Z</time></trkpt><trkpt lat="46.408655" lon="13.3117633"><ele>379.0</ele><time>2026-04-25T14:01:39.957Z</time></trkpt><trkpt lat="46.4086117" lon="13.3119417"><ele>379.0</ele><time>2026-04-25T14:01:41.956Z</time></trkpt><trkpt lat="46.408565" lon="13.3120433"><ele>379.0</ele><time>2026-04-25T14:01:42.956Z</time></trkpt><trkpt lat="46.40852" lon="13.3121517"><ele>379.0</ele><time>2026-04-25T14:01:43.957Z</time></trkpt><trkpt lat="46.4084683" lon="13.3122633"><ele>378.6</ele><time>2026-04-25T14:01:44.957Z</time></trkpt><trkpt lat="46.40842" lon="13.31238"><ele>378.2</ele><time>2026-04-25T14:01:45.957Z</time></trkpt><trkpt lat="46.4083683" lon="13.3124983"><ele>377.8</ele><time>2026-04-25T14:01:46.957Z</time></trkpt><trkpt lat="46.4083133" lon="13.31262"><ele>377.40000000000003</ele><time>2026-04-25T14:01:47.956Z</time></trkpt><trkpt lat="46.40826" lon="13.312745"><ele>377.0</ele><time>2026-04-25T14:01:48.957Z</time></trkpt><trkpt lat="46.4082033" lon="13.3128817"><ele>377.0</ele><time>2026-04-25T14:01:49.957Z</time></trkpt><trkpt lat="46.4081467" lon="13.3130233"><ele>377.0</ele><time>2026-04-25T14:01:50.958Z</time></trkpt><trkpt lat="46.4080867" lon="13.31317"><ele>377.0</ele><time>2026-04-25T14:01:51.956Z</time></trkpt><trkpt lat="46.408025" lon="13.3133233"><ele>377.0</ele><time>2026-04-25T14:01:52.958Z</time></trkpt><trkpt lat="46.4079667" lon="13.3134783"><ele>377.25</ele><time>2026-04-25T14:01:53.958Z</time></trkpt><trkpt lat="46.407915" lon="13.3136367"><ele>377.5</ele><time>2026-04-25T14:01:54.956Z</time></trkpt><trkpt lat="46.4078667" lon="13.3137967"><ele>377.75</ele><time>2026-04-25T14:01:55.956Z</time></trkpt><trkpt lat="46.4078217" lon="13.3139583"><ele>378.0</ele><time>2026-04-25T14:01:56.957Z</time></trkpt><trkpt lat="46.407775" lon="13.3141183"><ele>378.25</ele><time>2026-04-25T14:01:57.957Z</time></trkpt><trkpt lat="46.4077333" lon="13.314275"><ele>378.5</ele><time>2026-04-25T14:01:58.957Z</time></trkpt><trkpt lat="46.407695" lon="13.31443"><ele>378.75</ele><time>2026-04-25T14:01:59.957Z</time></trkpt><trkpt lat="46.4076533" lon="13.3145917"><ele>379.0</ele><time>2026-04-25T14:02:00.956Z</time></trkpt><trkpt lat="46.4076133" lon="13.3147583"><ele>379.5</ele><time>2026-04-25T14:02:01.956Z</time></trkpt><trkpt lat="46.4075717" lon="13.314925"><ele>380.0</ele><time>2026-04-25T14:02:02.955Z</time></trkpt><trkpt lat="46.4075217" lon="13.3151"><ele>380.5</ele><time>2026-04-25T14:02:03.958Z</time></trkpt><trkpt lat="46.4074583" lon="13.3152617"><ele>381.0</ele><time>2026-04-25T14:02:04.956Z</time></trkpt><trkpt lat="46.4073767" lon="13.3154067"><ele>381.0</ele><time>2026-04-25T14:02:05.957Z</time></trkpt><trkpt lat="46.4072767" lon="13.315535"><ele>381.0</ele><time>2026-04-25T14:02:06.957Z</time></trkpt><trkpt lat="46.4071683" lon="13.3156583"><ele>381.0</ele><time>2026-04-25T14:02:07.958Z</time></trkpt><trkpt lat="46.4070583" lon="13.3157783"><ele>381.0</ele><time>2026-04-25T14:02:08.957Z</time></trkpt><trkpt lat="46.406945" lon="13.3158817"><ele>380.75</ele><time>2026-04-25T14:02:09.958Z</time></trkpt><trkpt lat="46.40684" lon="13.3159633"><ele>380.5</ele><time>2026-04-25T14:02:10.958Z</time></trkpt><trkpt lat="46.4067267" lon="13.31602"><ele>380.25</ele><time>2026-04-25T14:02:11.957Z</time></trkpt><trkpt lat="46.4066117" lon="13.316035"><ele>380.0</ele><time>2026-04-25T14:02:12.956Z</time></trkpt><trkpt lat="46.4064967" lon="13.31602"><ele>380.0</ele><time>2026-04-25T14:02:13.957Z</time></trkpt><trkpt lat="46.4063667" lon="13.316005"><ele>380.0</ele><time>2026-04-25T14:02:14.956Z</time></trkpt><trkpt lat="46.40623" lon="13.31603"><ele>380.0</ele><time>2026-04-25T14:02:15.957Z</time></trkpt><trkpt lat="46.4060883" lon="13.3160967"><ele>380.0</ele><time>2026-04-25T14:02:16.957Z</time></trkpt><trkpt lat="46.405955" lon="13.3161833"><ele>379.25</ele><time>2026-04-25T14:02:17.957Z</time></trkpt><trkpt lat="46.4058333" lon="13.3162867"><ele>378.5</ele><time>2026-04-25T14:02:18.957Z</time></trkpt><trkpt lat="46.4057217" lon="13.316415"><ele>377.75</ele><time>2026-04-25T14:02:19.956Z</time></trkpt><trkpt lat="46.4056217" lon="13.31657"><ele>377.0</ele><time>2026-04-25T14:02:20.957Z</time></trkpt><trkpt lat="46.40552" lon="13.31674"><ele>377.5</ele><time>2026-04-25T14:02:21.956Z</time></trkpt><trkpt lat="46.4054133" lon="13.3169033"><ele>378.0</ele><time>2026-04-25T14:02:22.957Z</time></trkpt><trkpt lat="46.4053" lon="13.31705"><ele>378.5</ele><time>2026-04-25T14:02:23.957Z</time></trkpt><trkpt lat="46.4051817" lon="13.317165"><ele>379.0</ele><time>2026-04-25T14:02:24.957Z</time></trkpt><trkpt lat="46.4050583" lon="13.3172633"><ele>380.79999999999995</ele><time>2026-04-25T14:02:25.957Z</time></trkpt><trkpt lat="46.4049383" lon="13.3173467"><ele>382.59999999999997</ele><time>2026-04-25T14:02:26.957Z</time></trkpt><trkpt lat="46.404835" lon="13.3174233"><ele>384.4</ele><time>2026-04-25T14:02:27.955Z</time></trkpt><trkpt lat="46.4047467" lon="13.3174983"><ele>386.2</ele><time>2026-04-25T14:02:28.957Z</time></trkpt><trkpt lat="46.4046733" lon="13.3175467"><ele>388.0</ele><time>2026-04-25T14:02:29.955Z</time></trkpt><trkpt lat="46.4046" lon="13.317565"><ele>388.00000000000006</ele><time>2026-04-25T14:02:30.956Z</time></trkpt><trkpt lat="46.404535" lon="13.3175483"><ele>388.0</ele><time>2026-04-25T14:02:31.956Z</time></trkpt><trkpt lat="46.4044717" lon="13.3174883"><ele>388.0</ele><time>2026-04-25T14:02:32.956Z</time></trkpt><trkpt lat="46.40441" lon="13.3174067"><ele>388.0</ele><time>2026-04-25T14:02:33.956Z</time></trkpt><trkpt lat="46.4043467" lon="13.31731"><ele>388.00000000000006</ele><time>2026-04-25T14:02:34.956Z</time></trkpt><trkpt lat="46.4042767" lon="13.3172167"><ele>388.0</ele><time>2026-04-25T14:02:35.955Z</time></trkpt><trkpt lat="46.4042067" lon="13.31712"><ele>387.5</ele><time>2026-04-25T14:02:36.957Z</time></trkpt><trkpt lat="46.4041267" lon="13.317025"><ele>387.0</ele><time>2026-04-25T14:02:37.956Z</time></trkpt><trkpt lat="46.40403" lon="13.3169333"><ele>386.5</ele><time>2026-04-25T14:02:38.956Z</time></trkpt><trkpt lat="46.4039183" lon="13.3168717"><ele>386.0</ele><time>2026-04-25T14:02:39.956Z</time></trkpt><trkpt lat="46.40379" lon="13.3168533"><ele>391.5</ele><time>2026-04-25T14:02:40.957Z</time></trkpt><trkpt lat="46.4036483" lon="13.316875"><ele>397.0</ele><time>2026-04-25T14:02:41.957Z</time></trkpt><trkpt lat="46.4035033" lon="13.316915"><ele>402.5</ele><time>2026-04-25T14:02:42.958Z</time></trkpt><trkpt lat="46.40336" lon="13.3169683"><ele>408.0</ele><time>2026-04-25T14:02:43.957Z</time></trkpt><trkpt lat="46.4032217" lon="13.3170433"><ele>408.0</ele><time>2026-04-25T14:02:44.955Z</time></trkpt><trkpt lat="46.4030867" lon="13.3171483"><ele>408.0</ele><time>2026-04-25T14:02:45.955Z</time></trkpt><trkpt lat="46.402945" lon="13.3172917"><ele>408.0</ele><time>2026-04-25T14:02:46.957Z</time></trkpt><trkpt lat="46.4028033" lon="13.317455"><ele>413.33333333333337</ele><time>2026-04-25T14:02:47.956Z</time></trkpt><trkpt lat="46.4026667" lon="13.317625"><ele>418.6666666666667</ele><time>2026-04-25T14:02:48.956Z</time></trkpt><trkpt lat="46.402535" lon="13.3177767"><ele>424.0</ele><time>2026-04-25T14:02:49.956Z</time></trkpt><trkpt lat="46.402385" lon="13.317895"><ele>424.0</ele><time>2026-04-25T14:02:50.956Z</time></trkpt><trkpt lat="46.4022183" lon="13.3179817"><ele>424.0</ele><time>2026-04-25T14:02:51.956Z</time></trkpt><trkpt lat="46.402055" lon="13.3180883"><ele>424.0</ele><time>2026-04-25T14:02:52.957Z</time></trkpt><trkpt lat="46.401885" lon="13.3182267"><ele>426.0</ele><time>2026-04-25T14:02:53.955Z</time></trkpt><trkpt lat="46.4017233" lon="13.3183817"><ele>428.0</ele><time>2026-04-25T14:02:54.956Z</time></trkpt><trkpt lat="46.4015733" lon="13.318535"><ele>430.0</ele><time>2026-04-25T14:02:55.957Z</time></trkpt><trkpt lat="46.4014417" lon="13.3186817"><ele>426.33333333333337</ele><time>2026-04-25T14:02:56.956Z</time></trkpt><trkpt lat="46.4013117" lon="13.3188033"><ele>422.66666666666663</ele><time>2026-04-25T14:02:57.956Z</time></trkpt><trkpt lat="46.4011833" lon="13.3189017"><ele>419.0</ele><time>2026-04-25T14:02:58.956Z</time></trkpt><trkpt lat="46.4010367" lon="13.3189633"><ele>419.0</ele><time>2026-04-25T14:02:59.956Z</time></trkpt><trkpt lat="46.4008733" lon="13.319005"><ele>419.0</ele><time>2026-04-25T14:03:00.956Z</time></trkpt><trkpt lat="46.4007" lon="13.3190467"><ele>419.0</ele><time>2026-04-25T14:03:01.956Z</time></trkpt><trkpt lat="46.400525" lon="13.3190767"><ele>425.3333333333333</ele><time>2026-04-25T14:03:02.955Z</time></trkpt><trkpt lat="46.40036" lon="13.3190967"><ele>431.66666666666663</ele><time>2026-04-25T14:03:03.956Z</time></trkpt><trkpt lat="46.4001983" lon="13.319115"><ele>438.0</ele><time>2026-04-25T14:03:04.955Z</time></trkpt><trkpt lat="46.4000717" lon="13.319205"><ele>438.0</ele><time>2026-04-25T14:03:05.956Z</time></trkpt><trkpt lat="46.3999417" lon="13.3193267"><ele>438.0</ele><time>2026-04-25T14:03:06.955Z</time></trkpt><trkpt lat="46.3998233" lon="13.3195"><ele>438.0</ele><time>2026-04-25T14:03:07.959Z</time></trkpt><trkpt lat="46.3997133" lon="13.3196983"><ele>446.66666666666663</ele><time>2026-04-25T14:03:08.956Z</time></trkpt><trkpt lat="46.3996333" lon="13.3199283"><ele>455.3333333333333</ele><time>2026-04-25T14:03:09.957Z</time></trkpt><trkpt lat="46.3995683" lon="13.320165"><ele>464.0</ele><time>2026-04-25T14:03:10.957Z</time></trkpt><trkpt lat="46.3995017" lon="13.3203633"><ele>464.0</ele><time>2026-04-25T14:03:11.955Z</time></trkpt><trkpt lat="46.3994483" lon="13.3205567"><ele>464.0</ele><time>2026-04-25T14:03:12.957Z</time></trkpt><trkpt lat="46.3994083" lon="13.3207667"><ele>464.0</ele><time>2026-04-25T14:03:13.957Z</time></trkpt><trkpt lat="46.39937" lon="13.3209983"><ele>460.66666666666663</ele><time>2026-04-25T14:03:14.955Z</time></trkpt><trkpt lat="46.3993333" lon="13.3212317"><ele>457.33333333333337</ele><time>2026-04-25T14:03:15.957Z</time></trkpt><trkpt lat="46.3992833" lon="13.3214383"><ele>454.0</ele><time>2026-04-25T14:03:16.955Z</time></trkpt><trkpt lat="46.3992217" lon="13.3216267"><ele>449.0</ele><time>2026-04-25T14:03:17.956Z</time></trkpt><trkpt lat="46.3991633" lon="13.3218133"><ele>444.0</ele><time>2026-04-25T14:03:18.956Z</time></trkpt><trkpt lat="46.3991067" lon="13.322"><ele>439.0</ele><time>2026-04-25T14:03:19.957Z</time></trkpt><trkpt lat="46.3990533" lon="13.3221867"><ele>434.0</ele><time>2026-04-25T14:03:20.956Z</time></trkpt><trkpt lat="46.399025" lon="13.3223483"><ele>432.0</ele><time>2026-04-25T14:03:21.957Z</time></trkpt><trkpt lat="46.3989783" lon="13.3225233"><ele>430.0</ele><time>2026-04-25T14:03:22.957Z</time></trkpt><trkpt lat="46.3989367" lon="13.32269"><ele>428.0</ele><time>2026-04-25T14:03:23.956Z</time></trkpt><trkpt lat="46.3988933" lon="13.3228567"><ele>426.0</ele><time>2026-04-25T14:03:24.957Z</time></trkpt><trkpt lat="46.3988483" lon="13.323025"><ele>424.0</ele><time>2026-04-25T14:03:25.958Z</time></trkpt><trkpt lat="46.398805" lon="13.323195"><ele>422.0</ele><time>2026-04-25T14:03:26.958Z</time></trkpt><trkpt lat="46.39838" lon="13.324755"><ele>422.0</ele><time>2026-04-25T14:03:33.957Z</time></trkpt><trkpt lat="46.3983367" lon="13.3250233"><ele>422.0</ele><time>2026-04-25T14:03:34.957Z</time></trkpt><trkpt lat="46.398305" lon="13.3252583"><ele>422.0</ele><time>2026-04-25T14:03:35.956Z</time></trkpt><trkpt lat="46.3982783" lon="13.3255033"><ele>418.0</ele><time>2026-04-25T14:03:36.955Z</time></trkpt><trkpt lat="46.3982483" lon="13.3257583"><ele>414.0</ele><time>2026-04-25T14:03:37.957Z</time></trkpt><trkpt lat="46.3982067" lon="13.32602"><ele>410.0</ele><time>2026-04-25T14:03:38.956Z</time></trkpt><trkpt lat="46.398155" lon="13.326275"><ele>410.3333333333333</ele><time>2026-04-25T14:03:39.957Z</time></trkpt><trkpt lat="46.3980633" lon="13.3265"><ele>410.66666666666663</ele><time>2026-04-25T14:03:40.956Z</time></trkpt><trkpt lat="46.3979867" lon="13.3267167"><ele>411.0</ele><time>2026-04-25T14:03:41.956Z</time></trkpt><trkpt lat="46.3979133" lon="13.3269283"><ele>411.0</ele><time>2026-04-25T14:03:42.956Z</time></trkpt><trkpt lat="46.39782" lon="13.32712"><ele>411.0</ele><time>2026-04-25T14:03:43.957Z</time></trkpt><trkpt lat="46.3976983" lon="13.3273017"><ele>411.0</ele><time>2026-04-25T14:03:44.955Z</time></trkpt><trkpt lat="46.3975617" lon="13.3274867"><ele>411.0</ele><time>2026-04-25T14:03:45.955Z</time></trkpt><trkpt lat="46.3974067" lon="13.3276733"><ele>411.0</ele><time>2026-04-25T14:03:46.956Z</time></trkpt><trkpt lat="46.397245" lon="13.3278667"><ele>411.0</ele><time>2026-04-25T14:03:47.956Z</time></trkpt><trkpt lat="46.397095" lon="13.3280667"><ele>416.33333333333337</ele><time>2026-04-25T14:03:48.958Z</time></trkpt><trkpt lat="46.3969483" lon="13.3282767"><ele>421.6666666666667</ele><time>2026-04-25T14:03:49.956Z</time></trkpt><trkpt lat="46.3967967" lon="13.3284683"><ele>427.0</ele><time>2026-04-25T14:03:50.957Z</time></trkpt><trkpt lat="46.396605" lon="13.3286367"><ele>427.0</ele><time>2026-04-25T14:03:51.956Z</time></trkpt><trkpt lat="46.3964417" lon="13.3288017"><ele>427.0</ele><time>2026-04-25T14:03:52.957Z</time></trkpt><trkpt lat="46.3963083" lon="13.3289567"><ele>427.0</ele><time>2026-04-25T14:03:53.957Z</time></trkpt><trkpt lat="46.3961883" lon="13.3290967"><ele>431.5</ele><time>2026-04-25T14:03:54.956Z</time></trkpt><trkpt lat="46.3960817" lon="13.329245"><ele>436.0</ele><time>2026-04-25T14:03:55.957Z</time></trkpt><trkpt lat="46.3960167" lon="13.32942"><ele>440.5</ele><time>2026-04-25T14:03:56.956Z</time></trkpt><trkpt lat="46.3959783" lon="13.3296167"><ele>445.0</ele><time>2026-04-25T14:03:57.957Z</time></trkpt><trkpt lat="46.3959783" lon="13.3298317"><ele>445.0</ele><time>2026-04-25T14:03:58.957Z</time></trkpt><trkpt lat="46.3959983" lon="13.33006"><ele>445.0</ele><time>2026-04-25T14:03:59.956Z</time></trkpt><trkpt lat="46.3960117" lon="13.3302767"><ele>445.0</ele><time>2026-04-25T14:04:00.956Z</time></trkpt><trkpt lat="46.3960133" lon="13.3304933"><ele>443.0</ele><time>2026-04-25T14:04:01.956Z</time></trkpt><trkpt lat="46.39599" lon="13.3307167"><ele>441.0</ele><time>2026-04-25T14:04:02.956Z</time></trkpt><trkpt lat="46.3959583" lon="13.330955"><ele>439.0</ele><time>2026-04-25T14:04:03.957Z</time></trkpt><trkpt lat="46.3959233" lon="13.331205"><ele>440.0</ele><time>2026-04-25T14:04:04.957Z</time></trkpt><trkpt lat="46.3958783" lon="13.3314517"><ele>441.0</ele><time>2026-04-25T14:04:05.956Z</time></trkpt><trkpt lat="46.3958417" lon="13.3316833"><ele>442.0</ele><time>2026-04-25T14:04:06.957Z</time></trkpt><trkpt lat="46.3958083" lon="13.331885"><ele>442.0</ele><time>2026-04-25T14:04:07.957Z</time></trkpt><trkpt lat="46.395805" lon="13.3320667"><ele>442.0</ele><time>2026-04-25T14:04:08.955Z</time></trkpt><trkpt lat="46.3958333" lon="13.33223"><ele>442.0</ele><time>2026-04-25T14:04:09.956Z</time></trkpt><trkpt lat="46.3958983" lon="13.3323617"><ele>442.0</ele><time>2026-04-25T14:04:10.957Z</time></trkpt><trkpt lat="46.3959717" lon="13.33246"><ele>443.6</ele><time>2026-04-25T14:04:11.956Z</time></trkpt><trkpt lat="46.3960533" lon="13.3325183"><ele>445.20000000000005</ele><time>2026-04-25T14:04:12.956Z</time></trkpt><trkpt lat="46.3961417" lon="13.3325883"><ele>446.8</ele><time>2026-04-25T14:04:13.957Z</time></trkpt><trkpt lat="46.3962333" lon="13.3326783"><ele>448.4</ele><time>2026-04-25T14:04:14.957Z</time></trkpt><trkpt lat="46.396305" lon="13.3328017"><ele>450.0</ele><time>2026-04-25T14:04:15.957Z</time></trkpt><trkpt lat="46.39637" lon="13.3329517"><ele>455.5</ele><time>2026-04-25T14:04:16.957Z</time></trkpt><trkpt lat="46.3964283" lon="13.3331183"><ele>461.0</ele><time>2026-04-25T14:04:17.956Z</time></trkpt><trkpt lat="46.396495" lon="13.3333017"><ele>466.5</ele><time>2026-04-25T14:04:18.956Z</time></trkpt><trkpt lat="46.396555" lon="13.3335083"><ele>472.0</ele><time>2026-04-25T14:04:19.956Z</time></trkpt><trkpt lat="46.3966133" lon="13.33373"><ele>471.0</ele><time>2026-04-25T14:04:20.957Z</time></trkpt><trkpt lat="46.396665" lon="13.3339617"><ele>470.0</ele><time>2026-04-25T14:04:21.957Z</time></trkpt><trkpt lat="46.3967133" lon="13.3342017"><ele>469.0</ele><time>2026-04-25T14:04:22.956Z</time></trkpt><trkpt lat="46.3967517" lon="13.33444"><ele>469.0</ele><time>2026-04-25T14:04:23.955Z</time></trkpt><trkpt lat="46.3967817" lon="13.334675"><ele>469.0</ele><time>2026-04-25T14:04:24.956Z</time></trkpt><trkpt lat="46.3967967" lon="13.334915"><ele>469.0</ele><time>2026-04-25T14:04:25.957Z</time></trkpt><trkpt lat="46.3967983" lon="13.3351583"><ele>466.25</ele><time>2026-04-25T14:04:26.956Z</time></trkpt><trkpt lat="46.396775" lon="13.3353883"><ele>463.5</ele><time>2026-04-25T14:04:27.956Z</time></trkpt><trkpt lat="46.3967417" lon="13.3356"><ele>460.75</ele><time>2026-04-25T14:04:28.957Z</time></trkpt><trkpt lat="46.3967183" lon="13.335795"><ele>458.0</ele><time>2026-04-25T14:04:29.956Z</time></trkpt><trkpt lat="46.3967183" lon="13.3359783"><ele>456.75</ele><time>2026-04-25T14:04:30.956Z</time></trkpt><trkpt lat="46.3967333" lon="13.3361567"><ele>455.5</ele><time>2026-04-25T14:04:31.957Z</time></trkpt><trkpt lat="46.396735" lon="13.33634"><ele>454.25</ele><time>2026-04-25T14:04:32.956Z</time></trkpt><trkpt lat="46.39671" lon="13.33653"><ele>453.0</ele><time>2026-04-25T14:04:33.957Z</time></trkpt><trkpt lat="46.396655" lon="13.3367167"><ele>451.66666666666663</ele><time>2026-04-25T14:04:34.956Z</time></trkpt><trkpt lat="46.3966033" lon="13.3369167"><ele>450.3333333333333</ele><time>2026-04-25T14:04:35.956Z</time></trkpt><trkpt lat="46.3965567" lon="13.337125"><ele>449.0</ele><time>2026-04-25T14:04:36.957Z</time></trkpt><trkpt lat="46.3965233" lon="13.3373467"><ele>449.0</ele><time>2026-04-25T14:04:37.955Z</time></trkpt><trkpt lat="46.3965083" lon="13.3375783"><ele>449.0</ele><time>2026-04-25T14:04:38.955Z</time></trkpt><trkpt lat="46.3965133" lon="13.3378233"><ele>449.0</ele><time>2026-04-25T14:04:39.957Z</time></trkpt><trkpt lat="46.396515" lon="13.3380767"><ele>449.0</ele><time>2026-04-25T14:04:40.958Z</time></trkpt><trkpt lat="46.39651" lon="13.33835"><ele>449.0</ele><time>2026-04-25T14:04:41.956Z</time></trkpt><trkpt lat="46.3964783" lon="13.3386167"><ele>449.0</ele><time>2026-04-25T14:04:42.956Z</time></trkpt><trkpt lat="46.39643" lon="13.3388833"><ele>449.0</ele><time>2026-04-25T14:04:43.957Z</time></trkpt><trkpt lat="46.3963767" lon="13.3391583"><ele>449.0</ele><time>2026-04-25T14:04:44.956Z</time></trkpt><trkpt lat="46.3963017" lon="13.3394233"><ele>449.0</ele><time>2026-04-25T14:04:45.957Z</time></trkpt><trkpt lat="46.3962367" lon="13.3396767"><ele>449.0</ele><time>2026-04-25T14:04:46.957Z</time></trkpt><trkpt lat="46.39618" lon="13.3399183"><ele>449.0</ele><time>2026-04-25T14:04:47.956Z</time></trkpt><trkpt lat="46.396135" lon="13.3401467"><ele>449.0</ele><time>2026-04-25T14:04:48.957Z</time></trkpt><trkpt lat="46.3961083" lon="13.340365"><ele>449.0</ele><time>2026-04-25T14:04:49.957Z</time></trkpt><trkpt lat="46.3961" lon="13.3405733"><ele>449.0</ele><time>2026-04-25T14:04:50.957Z</time></trkpt><trkpt lat="46.3961083" lon="13.3407767"><ele>449.0</ele><time>2026-04-25T14:04:51.957Z</time></trkpt><trkpt lat="46.3961" lon="13.3409717"><ele>449.0</ele><time>2026-04-25T14:04:52.957Z</time></trkpt><trkpt lat="46.39606" lon="13.3411517"><ele>449.0</ele><time>2026-04-25T14:04:53.956Z</time></trkpt><trkpt lat="46.395995" lon="13.3413183"><ele>449.0</ele><time>2026-04-25T14:04:54.956Z</time></trkpt><trkpt lat="46.39592" lon="13.3414733"><ele>449.0</ele><time>2026-04-25T14:04:55.957Z</time></trkpt><trkpt lat="46.395865" lon="13.3416283"><ele>449.0</ele><time>2026-04-25T14:04:56.956Z</time></trkpt><trkpt lat="46.395835" lon="13.34179"><ele>449.0</ele><time>2026-04-25T14:04:57.962Z</time></trkpt><trkpt lat="46.3958233" lon="13.341945"><ele>449.0</ele><time>2026-04-25T14:04:58.956Z</time></trkpt><trkpt lat="46.3958467" lon="13.3420967"><ele>449.0</ele><time>2026-04-25T14:04:59.956Z</time></trkpt><trkpt lat="46.3958933" lon="13.3422483"><ele>449.0</ele><time>2026-04-25T14:05:00.957Z</time></trkpt><trkpt lat="46.3959483" lon="13.3424083"><ele>449.0</ele><time>2026-04-25T14:05:01.958Z</time></trkpt><trkpt lat="46.39602" lon="13.3425833"><ele>449.0</ele><time>2026-04-25T14:05:02.955Z</time></trkpt><trkpt lat="46.3961017" lon="13.34276"><ele>449.0</ele><time>2026-04-25T14:05:03.957Z</time></trkpt><trkpt lat="46.39619" lon="13.3429283"><ele>449.0</ele><time>2026-04-25T14:05:04.957Z</time></trkpt><trkpt lat="46.3962817" lon="13.34309"><ele>449.0</ele><time>2026-04-25T14:05:05.956Z</time></trkpt><trkpt lat="46.39637" lon="13.3432567"><ele>449.0</ele><time>2026-04-25T14:05:06.956Z</time></trkpt><trkpt lat="46.39645" lon="13.34344"><ele>449.0</ele><time>2026-04-25T14:05:07.956Z</time></trkpt><trkpt lat="46.3965217" lon="13.3436383"><ele>449.0</ele><time>2026-04-25T14:05:08.957Z</time></trkpt><trkpt lat="46.3965567" lon="13.3438467"><ele>449.0</ele><time>2026-04-25T14:05:09.957Z</time></trkpt><trkpt lat="46.396575" lon="13.3440667"><ele>449.0</ele><time>2026-04-25T14:05:10.957Z</time></trkpt><trkpt lat="46.3965717" lon="13.3442917"><ele>449.0</ele><time>2026-04-25T14:05:11.957Z</time></trkpt><trkpt lat="46.3965583" lon="13.3445217"><ele>449.0</ele><time>2026-04-25T14:05:12.957Z</time></trkpt><trkpt lat="46.3965367" lon="13.3447533"><ele>449.0</ele><time>2026-04-25T14:05:13.957Z</time></trkpt><trkpt lat="46.39653" lon="13.344975"><ele>449.0</ele><time>2026-04-25T14:05:14.957Z</time></trkpt><trkpt lat="46.3965317" lon="13.345175"><ele>449.0</ele><time>2026-04-25T14:05:15.956Z</time></trkpt><trkpt lat="46.396545" lon="13.345355"><ele>449.0</ele><time>2026-04-25T14:05:16.957Z</time></trkpt><trkpt lat="46.3965667" lon="13.3455017"><ele>449.0</ele><time>2026-04-25T14:05:17.957Z</time></trkpt><trkpt lat="46.3965717" lon="13.3456267"><ele>449.0</ele><time>2026-04-25T14:05:18.957Z</time></trkpt><trkpt lat="46.3965683" lon="13.34575"><ele>449.0</ele><time>2026-04-25T14:05:19.957Z</time></trkpt><trkpt lat="46.3965567" lon="13.3458667"><ele>448.99999999999994</ele><time>2026-04-25T14:05:20.956Z</time></trkpt><trkpt lat="46.3965267" lon="13.345975"><ele>449.0</ele><time>2026-04-25T14:05:21.957Z</time></trkpt><trkpt lat="46.3965083" lon="13.346095"><ele>449.0</ele><time>2026-04-25T14:05:22.957Z</time></trkpt><trkpt lat="46.3964933" lon="13.34622"><ele>449.0</ele><time>2026-04-25T14:05:23.956Z</time></trkpt><trkpt lat="46.3965133" lon="13.346335"><ele>448.99999999999994</ele><time>2026-04-25T14:05:24.955Z</time></trkpt><trkpt lat="46.3965667" lon="13.3464333"><ele>449.0</ele><time>2026-04-25T14:05:25.956Z</time></trkpt><trkpt lat="46.3966433" lon="13.3465483"><ele>449.0</ele><time>2026-04-25T14:05:26.956Z</time></trkpt><trkpt lat="46.3967333" lon="13.34664"><ele>449.0</ele><time>2026-04-25T14:05:27.957Z</time></trkpt><trkpt lat="46.3968417" lon="13.346715"><ele>449.0</ele><time>2026-04-25T14:05:28.958Z</time></trkpt><trkpt lat="46.3969417" lon="13.3468083"><ele>449.0</ele><time>2026-04-25T14:05:29.957Z</time></trkpt><trkpt lat="46.397025" lon="13.3469283"><ele>449.0</ele><time>2026-04-25T14:05:30.957Z</time></trkpt><trkpt lat="46.3971267" lon="13.3470783"><ele>449.0</ele><time>2026-04-25T14:05:31.957Z</time></trkpt><trkpt lat="46.3972117" lon="13.347235"><ele>449.0</ele><time>2026-04-25T14:05:32.956Z</time></trkpt><trkpt lat="46.397305" lon="13.3474033"><ele>449.0</ele><time>2026-04-25T14:05:33.956Z</time></trkpt><trkpt lat="46.397395" lon="13.3475833"><ele>449.0</ele><time>2026-04-25T14:05:34.956Z</time></trkpt><trkpt lat="46.3974933" lon="13.3477733"><ele>449.0</ele><time>2026-04-25T14:05:35.956Z</time></trkpt><trkpt lat="46.3975867" lon="13.3479767"><ele>449.0</ele><time>2026-04-25T14:05:36.957Z</time></trkpt><trkpt lat="46.3976767" lon="13.3481883"><ele>449.0</ele><time>2026-04-25T14:05:37.956Z</time></trkpt><trkpt lat="46.3977583" lon="13.3484067"><ele>449.0</ele><time>2026-04-25T14:05:38.956Z</time></trkpt><trkpt lat="46.3978583" lon="13.3486367"><ele>449.0</ele><time>2026-04-25T14:05:39.956Z</time></trkpt><trkpt lat="46.3979583" lon="13.3488733"><ele>449.0</ele><time>2026-04-25T14:05:40.957Z</time></trkpt><trkpt lat="46.398065" lon="13.3491067"><ele>449.0</ele><time>2026-04-25T14:05:41.956Z</time></trkpt><trkpt lat="46.398165" lon="13.349345"><ele>449.0</ele><time>2026-04-25T14:05:42.957Z</time></trkpt><trkpt lat="46.3982583" lon="13.3495917"><ele>449.0</ele><time>2026-04-25T14:05:43.956Z</time></trkpt><trkpt lat="46.398355" lon="13.3498483"><ele>449.0</ele><time>2026-04-25T14:05:44.957Z</time></trkpt><trkpt lat="46.3984483" lon="13.35011"><ele>449.0</ele><time>2026-04-25T14:05:45.957Z</time></trkpt><trkpt lat="46.39855" lon="13.350375"><ele>449.0</ele><time>2026-04-25T14:05:46.957Z</time></trkpt><trkpt lat="46.39865" lon="13.3506417"><ele>449.0</ele><time>2026-04-25T14:05:47.957Z</time></trkpt><trkpt lat="46.3987667" lon="13.3509067"><ele>449.0</ele><time>2026-04-25T14:05:48.958Z</time></trkpt><trkpt lat="46.3988783" lon="13.3511667"><ele>449.0</ele><time>2026-04-25T14:05:49.956Z</time></trkpt><trkpt lat="46.3989867" lon="13.3514167"><ele>449.0</ele><time>2026-04-25T14:05:50.957Z</time></trkpt><trkpt lat="46.3991017" lon="13.3516483"><ele>449.0</ele><time>2026-04-25T14:05:51.957Z</time></trkpt><trkpt lat="46.39921" lon="13.3518617"><ele>449.0</ele><time>2026-04-25T14:05:52.957Z</time></trkpt><trkpt lat="46.3993067" lon="13.35206"><ele>449.0</ele><time>2026-04-25T14:05:53.956Z</time></trkpt><trkpt lat="46.3993933" lon="13.3522533"><ele>449.0</ele><time>2026-04-25T14:05:54.957Z</time></trkpt><trkpt lat="46.3994633" lon="13.3524633"><ele>459.0</ele><time>2026-04-25T14:05:55.959Z</time></trkpt><trkpt lat="46.3995067" lon="13.3526883"><ele>469.0</ele><time>2026-04-25T14:05:56.957Z</time></trkpt><trkpt lat="46.39954" lon="13.3529267"><ele>479.0</ele><time>2026-04-25T14:05:57.956Z</time></trkpt><trkpt lat="46.3995617" lon="13.35318"><ele>479.0</ele><time>2026-04-25T14:05:58.957Z</time></trkpt><trkpt lat="46.3995967" lon="13.3534333"><ele>479.0</ele><time>2026-04-25T14:05:59.959Z</time></trkpt><trkpt lat="46.3996417" lon="13.3536917"><ele>479.0</ele><time>2026-04-25T14:06:00.956Z</time></trkpt><trkpt lat="46.399695" lon="13.3539367"><ele>478.0</ele><time>2026-04-25T14:06:01.956Z</time></trkpt><trkpt lat="46.3997533" lon="13.35417"><ele>477.0</ele><time>2026-04-25T14:06:02.956Z</time></trkpt><trkpt lat="46.399825" lon="13.3543833"><ele>476.0</ele><time>2026-04-25T14:06:03.955Z</time></trkpt><trkpt lat="46.3999217" lon="13.35458"><ele>479.3333333333333</ele><time>2026-04-25T14:06:04.956Z</time></trkpt><trkpt lat="46.4000417" lon="13.354745"><ele>482.66666666666663</ele><time>2026-04-25T14:06:05.957Z</time></trkpt><trkpt lat="46.400185" lon="13.3548767"><ele>486.0</ele><time>2026-04-25T14:06:06.956Z</time></trkpt><trkpt lat="46.400335" lon="13.3549983"><ele>486.0</ele><time>2026-04-25T14:06:07.956Z</time></trkpt><trkpt lat="46.40049" lon="13.3551083"><ele>486.0</ele><time>2026-04-25T14:06:08.956Z</time></trkpt><trkpt lat="46.4006333" lon="13.3552117"><ele>486.0</ele><time>2026-04-25T14:06:09.957Z</time></trkpt><trkpt lat="46.4007483" lon="13.3553267"><ele>485.25</ele><time>2026-04-25T14:06:10.957Z</time></trkpt><trkpt lat="46.4008483" lon="13.355455"><ele>484.5</ele><time>2026-04-25T14:06:11.957Z</time></trkpt><trkpt lat="46.4009433" lon="13.3556067"><ele>483.75</ele><time>2026-04-25T14:06:12.956Z</time></trkpt><trkpt lat="46.4010333" lon="13.3557783"><ele>483.0</ele><time>2026-04-25T14:06:13.957Z</time></trkpt><trkpt lat="46.401115" lon="13.3559633"><ele>483.0</ele><time>2026-04-25T14:06:14.956Z</time></trkpt><trkpt lat="46.4011917" lon="13.3561633"><ele>483.0</ele><time>2026-04-25T14:06:15.957Z</time></trkpt><trkpt lat="46.4012583" lon="13.3563833"><ele>483.0</ele><time>2026-04-25T14:06:16.956Z</time></trkpt><trkpt lat="46.40131" lon="13.356625"><ele>483.33333333333337</ele><time>2026-04-25T14:06:17.957Z</time></trkpt><trkpt lat="46.4013567" lon="13.3568883"><ele>483.6666666666667</ele><time>2026-04-25T14:06:18.956Z</time></trkpt><trkpt lat="46.4014083" lon="13.35716"><ele>484.0</ele><time>2026-04-25T14:06:19.956Z</time></trkpt><trkpt lat="46.4014633" lon="13.3574333"><ele>484.0</ele><time>2026-04-25T14:06:20.957Z</time></trkpt><trkpt lat="46.40152" lon="13.3577117"><ele>484.0</ele><time>2026-04-25T14:06:21.956Z</time></trkpt><trkpt lat="46.4015783" lon="13.3579917"><ele>484.0</ele><time>2026-04-25T14:06:22.957Z</time></trkpt><trkpt lat="46.4016433" lon="13.35827"><ele>485.6666666666667</ele><time>2026-04-25T14:06:23.957Z</time></trkpt><trkpt lat="46.4017133" lon="13.3585367"><ele>487.33333333333337</ele><time>2026-04-25T14:06:24.957Z</time></trkpt><trkpt lat="46.4017817" lon="13.35879"><ele>489.0</ele><time>2026-04-25T14:06:25.956Z</time></trkpt><trkpt lat="46.4018533" lon="13.3590283"><ele>490.66666666666663</ele><time>2026-04-25T14:06:26.956Z</time></trkpt><trkpt lat="46.4019233" lon="13.3592567"><ele>492.3333333333333</ele><time>2026-04-25T14:06:27.955Z</time></trkpt><trkpt lat="46.40199" lon="13.3594717"><ele>494.0</ele><time>2026-04-25T14:06:28.956Z</time></trkpt><trkpt lat="46.402035" lon="13.3596833"><ele>495.66666666666663</ele><time>2026-04-25T14:06:29.956Z</time></trkpt><trkpt lat="46.402055" lon="13.3599"><ele>497.33333333333337</ele><time>2026-04-25T14:06:30.956Z</time></trkpt><trkpt lat="46.4020383" lon="13.3601217"><ele>499.0</ele><time>2026-04-25T14:06:31.957Z</time></trkpt><trkpt lat="46.4019917" lon="13.36034"><ele>497.6666666666667</ele><time>2026-04-25T14:06:32.956Z</time></trkpt><trkpt lat="46.40194" lon="13.360565"><ele>496.33333333333337</ele><time>2026-04-25T14:06:33.957Z</time></trkpt><trkpt lat="46.401885" lon="13.3607883"><ele>495.0</ele><time>2026-04-25T14:06:34.957Z</time></trkpt><trkpt lat="46.4018283" lon="13.36102"><ele>495.0</ele><time>2026-04-25T14:06:35.957Z</time></trkpt><trkpt lat="46.40177" lon="13.3612567"><ele>495.0</ele><time>2026-04-25T14:06:36.957Z</time></trkpt><trkpt lat="46.401715" lon="13.36149"><ele>495.0</ele><time>2026-04-25T14:06:37.957Z</time></trkpt><trkpt lat="46.4016617" lon="13.3617117"><ele>495.33333333333337</ele><time>2026-04-25T14:06:38.956Z</time></trkpt><trkpt lat="46.4016267" lon="13.3619383"><ele>495.6666666666667</ele><time>2026-04-25T14:06:39.957Z</time></trkpt><trkpt lat="46.4015917" lon="13.36217"><ele>496.0</ele><time>2026-04-25T14:06:40.957Z</time></trkpt><trkpt lat="46.40159" lon="13.3624133"><ele>495.0</ele><time>2026-04-25T14:06:41.956Z</time></trkpt><trkpt lat="46.4016233" lon="13.3626617"><ele>494.0</ele><time>2026-04-25T14:06:42.957Z</time></trkpt><trkpt lat="46.4016667" lon="13.36292"><ele>493.0</ele><time>2026-04-25T14:06:43.957Z</time></trkpt><trkpt lat="46.4017167" lon="13.36319"><ele>493.0</ele><time>2026-04-25T14:06:44.957Z</time></trkpt><trkpt lat="46.401765" lon="13.3634583"><ele>493.0</ele><time>2026-04-25T14:06:45.957Z</time></trkpt><trkpt lat="46.4018117" lon="13.3637317"><ele>493.0</ele><time>2026-04-25T14:06:46.957Z</time></trkpt><trkpt lat="46.4018617" lon="13.364"><ele>496.0</ele><time>2026-04-25T14:06:47.955Z</time></trkpt><trkpt lat="46.40191" lon="13.3642517"><ele>499.0</ele><time>2026-04-25T14:06:48.956Z</time></trkpt><trkpt lat="46.40196" lon="13.364495"><ele>502.0</ele><time>2026-04-25T14:06:49.957Z</time></trkpt><trkpt lat="46.401995" lon="13.3647367"><ele>505.33333333333337</ele><time>2026-04-25T14:06:50.956Z</time></trkpt><trkpt lat="46.4020217" lon="13.3649817"><ele>508.66666666666663</ele><time>2026-04-25T14:06:51.957Z</time></trkpt><trkpt lat="46.4020283" lon="13.3652317"><ele>512.0</ele><time>2026-04-25T14:06:52.956Z</time></trkpt><trkpt lat="46.4020183" lon="13.3654817"><ele>510.66666666666663</ele><time>2026-04-25T14:06:53.956Z</time></trkpt><trkpt lat="46.4019833" lon="13.3657383"><ele>509.33333333333337</ele><time>2026-04-25T14:06:54.957Z</time></trkpt><trkpt lat="46.40193" lon="13.3659967"><ele>508.0</ele><time>2026-04-25T14:06:55.958Z</time></trkpt><trkpt lat="46.4018683" lon="13.366255"><ele>507.33333333333337</ele><time>2026-04-25T14:06:56.957Z</time></trkpt><trkpt lat="46.4018033" lon="13.3665083"><ele>506.66666666666663</ele><time>2026-04-25T14:06:57.957Z</time></trkpt><trkpt lat="46.401745" lon="13.3667683"><ele>506.0</ele><time>2026-04-25T14:06:58.957Z</time></trkpt><trkpt lat="46.401705" lon="13.36704"><ele>506.66666666666663</ele><time>2026-04-25T14:06:59.957Z</time></trkpt><trkpt lat="46.401685" lon="13.367315"><ele>507.33333333333337</ele><time>2026-04-25T14:07:00.957Z</time></trkpt><trkpt lat="46.4016817" lon="13.3675933"><ele>508.0</ele><time>2026-04-25T14:07:01.957Z</time></trkpt><trkpt lat="46.40168" lon="13.3678717"><ele>507.33333333333337</ele><time>2026-04-25T14:07:02.956Z</time></trkpt><trkpt lat="46.401675" lon="13.368145"><ele>506.66666666666663</ele><time>2026-04-25T14:07:03.957Z</time></trkpt><trkpt lat="46.4016783" lon="13.368405"><ele>506.0</ele><time>2026-04-25T14:07:04.957Z</time></trkpt><trkpt lat="46.4016733" lon="13.3686567"><ele>507.0</ele><time>2026-04-25T14:07:05.956Z</time></trkpt><trkpt lat="46.4016817" lon="13.3689067"><ele>508.0</ele><time>2026-04-25T14:07:06.957Z</time></trkpt><trkpt lat="46.4017167" lon="13.369155"><ele>509.0</ele><time>2026-04-25T14:07:07.956Z</time></trkpt><trkpt lat="46.4017417" lon="13.3694067"><ele>509.0</ele><time>2026-04-25T14:07:08.957Z</time></trkpt><trkpt lat="46.4017583" lon="13.3696617"><ele>509.0</ele><time>2026-04-25T14:07:09.957Z</time></trkpt><trkpt lat="46.4017733" lon="13.3699117"><ele>509.0</ele><time>2026-04-25T14:07:10.958Z</time></trkpt><trkpt lat="46.4017883" lon="13.3701533"><ele>506.3333333333333</ele><time>2026-04-25T14:07:11.957Z</time></trkpt><trkpt lat="46.401805" lon="13.3703867"><ele>503.66666666666663</ele><time>2026-04-25T14:07:12.958Z</time></trkpt><trkpt lat="46.401825" lon="13.3706133"><ele>501.0</ele><time>2026-04-25T14:07:13.957Z</time></trkpt><trkpt lat="46.401855" lon="13.3708383"><ele>500.33333333333337</ele><time>2026-04-25T14:07:14.956Z</time></trkpt><trkpt lat="46.4019067" lon="13.37106"><ele>499.6666666666667</ele><time>2026-04-25T14:07:15.957Z</time></trkpt><trkpt lat="46.4019883" lon="13.3712667"><ele>499.0</ele><time>2026-04-25T14:07:16.957Z</time></trkpt><trkpt lat="46.4020933" lon="13.3714633"><ele>497.6666666666667</ele><time>2026-04-25T14:07:17.955Z</time></trkpt><trkpt lat="46.4022167" lon="13.3716533"><ele>496.33333333333337</ele><time>2026-04-25T14:07:18.957Z</time></trkpt><trkpt lat="46.4023433" lon="13.37184"><ele>495.0</ele><time>2026-04-25T14:07:19.957Z</time></trkpt><trkpt lat="46.4024667" lon="13.3720267"><ele>497.33333333333337</ele><time>2026-04-25T14:07:20.957Z</time></trkpt><trkpt lat="46.402585" lon="13.3722067"><ele>499.6666666666667</ele><time>2026-04-25T14:07:21.956Z</time></trkpt><trkpt lat="46.4026917" lon="13.37238"><ele>502.0</ele><time>2026-04-25T14:07:22.957Z</time></trkpt><trkpt lat="46.40279" lon="13.3725467"><ele>502.0</ele><time>2026-04-25T14:07:23.956Z</time></trkpt><trkpt lat="46.4028667" lon="13.3727167"><ele>502.0</ele><time>2026-04-25T14:07:24.957Z</time></trkpt><trkpt lat="46.4029217" lon="13.3728933"><ele>502.0</ele><time>2026-04-25T14:07:25.957Z</time></trkpt><trkpt lat="46.40295" lon="13.37307"><ele>502.0</ele><time>2026-04-25T14:07:26.957Z</time></trkpt><trkpt lat="46.4029317" lon="13.373245"><ele>504.25</ele><time>2026-04-25T14:07:27.958Z</time></trkpt><trkpt lat="46.40288" lon="13.373415"><ele>506.5</ele><time>2026-04-25T14:07:28.956Z</time></trkpt><trkpt lat="46.4028217" lon="13.37359"><ele>508.75</ele><time>2026-04-25T14:07:29.958Z</time></trkpt><trkpt lat="46.4027783" lon="13.3737817"><ele>511.0</ele><time>2026-04-25T14:07:30.956Z</time></trkpt><trkpt lat="46.4027467" lon="13.37398"><ele>511.0</ele><time>2026-04-25T14:07:31.957Z</time></trkpt><trkpt lat="46.4027383" lon="13.37418"><ele>511.0</ele><time>2026-04-25T14:07:32.957Z</time></trkpt><trkpt lat="46.4027583" lon="13.374375"><ele>511.0</ele><time>2026-04-25T14:07:33.958Z</time></trkpt><trkpt lat="46.4027917" lon="13.3745633"><ele>511.0</ele><time>2026-04-25T14:07:34.957Z</time></trkpt><trkpt lat="46.4028417" lon="13.3747433"><ele>510.25</ele><time>2026-04-25T14:07:35.955Z</time></trkpt><trkpt lat="46.4029117" lon="13.374915"><ele>509.5</ele><time>2026-04-25T14:07:36.958Z</time></trkpt><trkpt lat="46.40299" lon="13.375085"><ele>508.75</ele><time>2026-04-25T14:07:37.957Z</time></trkpt><trkpt lat="46.4030733" lon="13.3752583"><ele>508.0</ele><time>2026-04-25T14:07:38.956Z</time></trkpt><trkpt lat="46.40316" lon="13.3754367"><ele>508.33333333333337</ele><time>2026-04-25T14:07:39.957Z</time></trkpt><trkpt lat="46.4032483" lon="13.3756217"><ele>508.66666666666663</ele><time>2026-04-25T14:07:40.957Z</time></trkpt><trkpt lat="46.40334" lon="13.3758133"><ele>509.0</ele><time>2026-04-25T14:07:41.956Z</time></trkpt><trkpt lat="46.40343" lon="13.3759967"><ele>509.0</ele><time>2026-04-25T14:07:42.957Z</time></trkpt><trkpt lat="46.4035183" lon="13.376185"><ele>509.0</ele><time>2026-04-25T14:07:43.958Z</time></trkpt><trkpt lat="46.4035983" lon="13.3763883"><ele>509.0</ele><time>2026-04-25T14:07:44.957Z</time></trkpt><trkpt lat="46.4036583" lon="13.3766133"><ele>509.3333333333333</ele><time>2026-04-25T14:07:45.957Z</time></trkpt><trkpt lat="46.4037017" lon="13.3768567"><ele>509.66666666666663</ele><time>2026-04-25T14:07:46.957Z</time></trkpt><trkpt lat="46.4037333" lon="13.3771083"><ele>510.0</ele><time>2026-04-25T14:07:47.958Z</time></trkpt><trkpt lat="46.4037617" lon="13.3773583"><ele>511.66666666666663</ele><time>2026-04-25T14:07:48.956Z</time></trkpt><trkpt lat="46.4037883" lon="13.3775933"><ele>513.3333333333333</ele><time>2026-04-25T14:07:49.958Z</time></trkpt><trkpt lat="46.4038033" lon="13.37782"><ele>515.0</ele><time>2026-04-25T14:07:50.956Z</time></trkpt><trkpt lat="46.4037933" lon="13.378035"><ele>516.6666666666666</ele><time>2026-04-25T14:07:51.956Z</time></trkpt><trkpt lat="46.4037417" lon="13.3782367"><ele>518.3333333333334</ele><time>2026-04-25T14:07:52.957Z</time></trkpt><trkpt lat="46.403655" lon="13.3784233"><ele>520.0</ele><time>2026-04-25T14:07:53.957Z</time></trkpt><trkpt lat="46.40356" lon="13.37861"><ele>520.0</ele><time>2026-04-25T14:07:54.957Z</time></trkpt><trkpt lat="46.4034867" lon="13.378815"><ele>520.0</ele><time>2026-04-25T14:07:55.957Z</time></trkpt><trkpt lat="46.4034433" lon="13.37905"><ele>520.0</ele><time>2026-04-25T14:07:56.957Z</time></trkpt><trkpt lat="46.403425" lon="13.3793083"><ele>520.3333333333334</ele><time>2026-04-25T14:07:57.957Z</time></trkpt><trkpt lat="46.40342" lon="13.379585"><ele>520.6666666666666</ele><time>2026-04-25T14:07:58.958Z</time></trkpt><trkpt lat="46.4034167" lon="13.3798733"><ele>521.0</ele><time>2026-04-25T14:07:59.957Z</time></trkpt><trkpt lat="46.4034083" lon="13.380165"><ele>521.0</ele><time>2026-04-25T14:08:00.957Z</time></trkpt><trkpt lat="46.40339" lon="13.3804617"><ele>521.0</ele><time>2026-04-25T14:08:01.956Z</time></trkpt><trkpt lat="46.4033633" lon="13.3807633"><ele>521.0</ele><time>2026-04-25T14:08:02.956Z</time></trkpt><trkpt lat="46.40333" lon="13.38107"><ele>519.6666666666666</ele><time>2026-04-25T14:08:03.955Z</time></trkpt><trkpt lat="46.4032967" lon="13.3813783"><ele>518.3333333333334</ele><time>2026-04-25T14:08:04.957Z</time></trkpt><trkpt lat="46.40327" lon="13.38169"><ele>517.0</ele><time>2026-04-25T14:08:05.955Z</time></trkpt><trkpt lat="46.4032417" lon="13.3820033"><ele>518.3333333333334</ele><time>2026-04-25T14:08:06.956Z</time></trkpt><trkpt lat="46.403215" lon="13.382315"><ele>519.6666666666666</ele><time>2026-04-25T14:08:07.956Z</time></trkpt><trkpt lat="46.403185" lon="13.3826283"><ele>521.0</ele><time>2026-04-25T14:08:08.955Z</time></trkpt><trkpt lat="46.403155" lon="13.382945"><ele>521.0</ele><time>2026-04-25T14:08:09.956Z</time></trkpt><trkpt lat="46.4031267" lon="13.3832617"><ele>521.0</ele><time>2026-04-25T14:08:10.957Z</time></trkpt><trkpt lat="46.4030983" lon="13.3835717"><ele>521.0</ele><time>2026-04-25T14:08:11.956Z</time></trkpt><trkpt lat="46.4030767" lon="13.3838783"><ele>520.6666666666666</ele><time>2026-04-25T14:08:12.957Z</time></trkpt><trkpt lat="46.4030617" lon="13.3841783"><ele>520.3333333333334</ele><time>2026-04-25T14:08:13.957Z</time></trkpt><trkpt lat="46.403045" lon="13.38447"><ele>520.0</ele><time>2026-04-25T14:08:14.956Z</time></trkpt><trkpt lat="46.40303" lon="13.38476"><ele>522.0</ele><time>2026-04-25T14:08:15.955Z</time></trkpt><trkpt lat="46.40302" lon="13.3850467"><ele>524.0</ele><time>2026-04-25T14:08:16.957Z</time></trkpt><trkpt lat="46.40301" lon="13.385325"><ele>526.0</ele><time>2026-04-25T14:08:17.956Z</time></trkpt><trkpt lat="46.403" lon="13.3855867"><ele>533.0</ele><time>2026-04-25T14:08:18.957Z</time></trkpt><trkpt lat="46.4029867" lon="13.385835"><ele>540.0</ele><time>2026-04-25T14:08:19.956Z</time></trkpt><trkpt lat="46.4029533" lon="13.386065"><ele>547.0</ele><time>2026-04-25T14:08:20.957Z</time></trkpt><trkpt lat="46.4028883" lon="13.38628"><ele>545.3333333333334</ele><time>2026-04-25T14:08:21.956Z</time></trkpt><trkpt lat="46.4027933" lon="13.3864883"><ele>543.6666666666666</ele><time>2026-04-25T14:08:22.957Z</time></trkpt><trkpt lat="46.4026867" lon="13.3867017"><ele>542.0</ele><time>2026-04-25T14:08:23.956Z</time></trkpt><trkpt lat="46.4025867" lon="13.38693"><ele>542.0</ele><time>2026-04-25T14:08:24.955Z</time></trkpt><trkpt lat="46.402485" lon="13.3871617"><ele>542.0</ele><time>2026-04-25T14:08:25.957Z</time></trkpt><trkpt lat="46.4023783" lon="13.38739"><ele>542.0</ele><time>2026-04-25T14:08:26.955Z</time></trkpt><trkpt lat="46.4022833" lon="13.3876233"><ele>538.0</ele><time>2026-04-25T14:08:27.957Z</time></trkpt><trkpt lat="46.4021917" lon="13.3878567"><ele>534.0</ele><time>2026-04-25T14:08:28.956Z</time></trkpt><trkpt lat="46.4021167" lon="13.388095"><ele>530.0</ele><time>2026-04-25T14:08:29.956Z</time></trkpt><trkpt lat="46.4020533" lon="13.388335"><ele>537.3333333333333</ele><time>2026-04-25T14:08:30.956Z</time></trkpt><trkpt lat="46.402" lon="13.3885733"><ele>544.6666666666666</ele><time>2026-04-25T14:08:31.957Z</time></trkpt><trkpt lat="46.40197" lon="13.3888167"><ele>552.0</ele><time>2026-04-25T14:08:32.957Z</time></trkpt><trkpt lat="46.4019533" lon="13.3890617"><ele>552.0</ele><time>2026-04-25T14:08:33.956Z</time></trkpt><trkpt lat="46.4019683" lon="13.3893167"><ele>552.0</ele><time>2026-04-25T14:08:34.956Z</time></trkpt><trkpt lat="46.4019983" lon="13.389575"><ele>552.0</ele><time>2026-04-25T14:08:35.955Z</time></trkpt><trkpt lat="46.4020417" lon="13.38984"><ele>551.3333333333334</ele><time>2026-04-25T14:08:36.956Z</time></trkpt><trkpt lat="46.402085" lon="13.390105"><ele>550.6666666666667</ele><time>2026-04-25T14:08:37.956Z</time></trkpt><trkpt lat="46.40213" lon="13.390365"><ele>550.0</ele><time>2026-04-25T14:08:38.956Z</time></trkpt><trkpt lat="46.4021767" lon="13.390615"><ele>544.3333333333334</ele><time>2026-04-25T14:08:39.955Z</time></trkpt><trkpt lat="46.4022267" lon="13.3908517"><ele>538.6666666666666</ele><time>2026-04-25T14:08:40.957Z</time></trkpt><trkpt lat="46.4022717" lon="13.3910833"><ele>533.0</ele><time>2026-04-25T14:08:41.956Z</time></trkpt><trkpt lat="46.40231" lon="13.3913233"><ele>534.3333333333333</ele><time>2026-04-25T14:08:42.956Z</time></trkpt><trkpt lat="46.4023317" lon="13.3915683"><ele>535.6666666666666</ele><time>2026-04-25T14:08:43.956Z</time></trkpt><trkpt lat="46.4023367" lon="13.3918117"><ele>537.0</ele><time>2026-04-25T14:08:44.957Z</time></trkpt><trkpt lat="46.4023317" lon="13.3920533"><ele>538.0</ele><time>2026-04-25T14:08:45.956Z</time></trkpt><trkpt lat="46.4023217" lon="13.3922933"><ele>539.0</ele><time>2026-04-25T14:08:46.956Z</time></trkpt><trkpt lat="46.402295" lon="13.392535"><ele>540.0</ele><time>2026-04-25T14:08:47.956Z</time></trkpt><trkpt lat="46.402245" lon="13.39278"><ele>540.3333333333334</ele><time>2026-04-25T14:08:48.956Z</time></trkpt><trkpt lat="46.4021767" lon="13.3930267"><ele>540.6666666666667</ele><time>2026-04-25T14:08:49.957Z</time></trkpt><trkpt lat="46.4021067" lon="13.3932783"><ele>541.0</ele><time>2026-04-25T14:08:50.955Z</time></trkpt><trkpt lat="46.4020233" lon="13.3935267"><ele>543.3333333333334</ele><time>2026-04-25T14:08:51.956Z</time></trkpt><trkpt lat="46.4019383" lon="13.3937683"><ele>545.6666666666666</ele><time>2026-04-25T14:08:52.955Z</time></trkpt><trkpt lat="46.4018533" lon="13.393995"><ele>548.0</ele><time>2026-04-25T14:08:53.956Z</time></trkpt><trkpt lat="46.4017833" lon="13.3942267"><ele>548.0</ele><time>2026-04-25T14:08:54.956Z</time></trkpt><trkpt lat="46.4017367" lon="13.3944733"><ele>548.0</ele><time>2026-04-25T14:08:55.957Z</time></trkpt><trkpt lat="46.4016983" lon="13.3947233"><ele>548.0</ele><time>2026-04-25T14:08:56.956Z</time></trkpt><trkpt lat="46.4016683" lon="13.3949617"><ele>549.3333333333333</ele><time>2026-04-25T14:08:57.957Z</time></trkpt><trkpt lat="46.4016567" lon="13.395205"><ele>550.6666666666666</ele><time>2026-04-25T14:08:58.956Z</time></trkpt><trkpt lat="46.401655" lon="13.3954517"><ele>552.0</ele><time>2026-04-25T14:08:59.956Z</time></trkpt><trkpt lat="46.4016633" lon="13.3957033"><ele>553.0</ele><time>2026-04-25T14:09:00.957Z</time></trkpt><trkpt lat="46.4016917" lon="13.3959633"><ele>554.0</ele><time>2026-04-25T14:09:01.957Z</time></trkpt><trkpt lat="46.40172" lon="13.39623"><ele>555.0</ele><time>2026-04-25T14:09:02.956Z</time></trkpt><trkpt lat="46.4017417" lon="13.3965033"><ele>555.0</ele><time>2026-04-25T14:09:03.955Z</time></trkpt><trkpt lat="46.4017567" lon="13.396785"><ele>555.0</ele><time>2026-04-25T14:09:04.957Z</time></trkpt><trkpt lat="46.4017633" lon="13.39706"><ele>555.0</ele><time>2026-04-25T14:09:05.956Z</time></trkpt><trkpt lat="46.4017617" lon="13.3973267"><ele>555.0</ele><time>2026-04-25T14:09:06.956Z</time></trkpt><trkpt lat="46.4017717" lon="13.3975817"><ele>555.0</ele><time>2026-04-25T14:09:07.957Z</time></trkpt><trkpt lat="46.4017717" lon="13.3978217"><ele>555.0</ele><time>2026-04-25T14:09:08.956Z</time></trkpt><trkpt lat="46.4017567" lon="13.3980467"><ele>553.3333333333334</ele><time>2026-04-25T14:09:09.956Z</time></trkpt><trkpt lat="46.4017433" lon="13.3982683"><ele>551.6666666666667</ele><time>2026-04-25T14:09:10.956Z</time></trkpt><trkpt lat="46.401735" lon="13.3984933"><ele>550.0</ele><time>2026-04-25T14:09:11.955Z</time></trkpt><trkpt lat="46.401735" lon="13.3987217"><ele>550.0</ele><time>2026-04-25T14:09:12.955Z</time></trkpt><trkpt lat="46.4017583" lon="13.398965"><ele>550.0</ele><time>2026-04-25T14:09:13.955Z</time></trkpt><trkpt lat="46.4017967" lon="13.3992117"><ele>550.0</ele><time>2026-04-25T14:09:14.955Z</time></trkpt><trkpt lat="46.4018333" lon="13.39946"><ele>554.3333333333334</ele><time>2026-04-25T14:09:15.957Z</time></trkpt><trkpt lat="46.4018667" lon="13.3997133"><ele>558.6666666666666</ele><time>2026-04-25T14:09:16.957Z</time></trkpt><trkpt lat="46.4019" lon="13.3999683"><ele>563.0</ele><time>2026-04-25T14:09:17.956Z</time></trkpt><trkpt lat="46.40193" lon="13.4002117"><ele>563.0</ele><time>2026-04-25T14:09:18.957Z</time></trkpt><trkpt lat="46.4019567" lon="13.4004383"><ele>563.0</ele><time>2026-04-25T14:09:19.957Z</time></trkpt><trkpt lat="46.4019767" lon="13.4006533"><ele>563.0</ele><time>2026-04-25T14:09:20.957Z</time></trkpt><trkpt lat="46.40199" lon="13.40086"><ele>564.5</ele><time>2026-04-25T14:09:21.956Z</time></trkpt><trkpt lat="46.4019883" lon="13.4010533"><ele>566.0</ele><time>2026-04-25T14:09:22.957Z</time></trkpt><trkpt lat="46.4019717" lon="13.4012283"><ele>567.5</ele><time>2026-04-25T14:09:23.957Z</time></trkpt><trkpt lat="46.4019517" lon="13.401385"><ele>569.0</ele><time>2026-04-25T14:09:24.957Z</time></trkpt><trkpt lat="46.40194" lon="13.40153"><ele>569.0</ele><time>2026-04-25T14:09:25.957Z</time></trkpt><trkpt lat="46.4019533" lon="13.401665"><ele>569.0</ele><time>2026-04-25T14:09:26.956Z</time></trkpt><trkpt lat="46.40199" lon="13.401785"><ele>569.0</ele><time>2026-04-25T14:09:27.957Z</time></trkpt><trkpt lat="46.4020517" lon="13.4018833"><ele>569.0</ele><time>2026-04-25T14:09:28.958Z</time></trkpt><trkpt lat="46.402145" lon="13.4019533"><ele>569.0</ele><time>2026-04-25T14:09:29.957Z</time></trkpt><trkpt lat="46.4022533" lon="13.4019967"><ele>567.8</ele><time>2026-04-25T14:09:30.957Z</time></trkpt><trkpt lat="46.40236" lon="13.4020333"><ele>566.5999999999999</ele><time>2026-04-25T14:09:31.956Z</time></trkpt><trkpt lat="46.4024583" lon="13.4020783"><ele>565.4</ele><time>2026-04-25T14:09:32.957Z</time></trkpt><trkpt lat="46.4025367" lon="13.4021483"><ele>564.1999999999999</ele><time>2026-04-25T14:09:33.957Z</time></trkpt><trkpt lat="46.4025883" lon="13.40226"><ele>563.0</ele><time>2026-04-25T14:09:34.957Z</time></trkpt><trkpt lat="46.4025933" lon="13.402415"><ele>563.0</ele><time>2026-04-25T14:09:35.956Z</time></trkpt><trkpt lat="46.4025767" lon="13.402595"><ele>563.0</ele><time>2026-04-25T14:09:36.957Z</time></trkpt><trkpt lat="46.4025467" lon="13.402785"><ele>563.0</ele><time>2026-04-25T14:09:37.957Z</time></trkpt><trkpt lat="46.4025183" lon="13.4029883"><ele>563.0</ele><time>2026-04-25T14:09:38.957Z</time></trkpt><trkpt lat="46.4025017" lon="13.4031967"><ele>564.25</ele><time>2026-04-25T14:09:39.956Z</time></trkpt><trkpt lat="46.4024933" lon="13.4034017"><ele>565.5</ele><time>2026-04-25T14:09:40.957Z</time></trkpt><trkpt lat="46.402485" lon="13.403615"><ele>566.75</ele><time>2026-04-25T14:09:41.957Z</time></trkpt><trkpt lat="46.4024733" lon="13.4038417"><ele>568.0</ele><time>2026-04-25T14:09:42.955Z</time></trkpt><trkpt lat="46.402455" lon="13.4040833"><ele>570.0</ele><time>2026-04-25T14:09:43.957Z</time></trkpt><trkpt lat="46.4024383" lon="13.40434"><ele>572.0</ele><time>2026-04-25T14:09:44.956Z</time></trkpt><trkpt lat="46.4024133" lon="13.4046083"><ele>574.0</ele><time>2026-04-25T14:09:45.959Z</time></trkpt><trkpt lat="46.4023917" lon="13.4048817"><ele>576.0</ele><time>2026-04-25T14:09:46.956Z</time></trkpt><trkpt lat="46.4023683" lon="13.4051583"><ele>578.0</ele><time>2026-04-25T14:09:47.956Z</time></trkpt><trkpt lat="46.4023483" lon="13.4054417"><ele>580.0</ele><time>2026-04-25T14:09:48.956Z</time></trkpt><trkpt lat="46.402325" lon="13.4057317"><ele>581.0</ele><time>2026-04-25T14:09:49.957Z</time></trkpt><trkpt lat="46.4023" lon="13.4060267"><ele>582.0</ele><time>2026-04-25T14:09:50.957Z</time></trkpt><trkpt lat="46.4022767" lon="13.4063233"><ele>583.0</ele><time>2026-04-25T14:09:51.957Z</time></trkpt><trkpt lat="46.4022517" lon="13.4066217"><ele>583.3333333333334</ele><time>2026-04-25T14:09:52.957Z</time></trkpt><trkpt lat="46.4022283" lon="13.406925"><ele>583.6666666666666</ele><time>2026-04-25T14:09:53.956Z</time></trkpt><trkpt lat="46.4022067" lon="13.407225"><ele>584.0</ele><time>2026-04-25T14:09:54.957Z</time></trkpt><trkpt lat="46.4021967" lon="13.407525"><ele>586.3333333333333</ele><time>2026-04-25T14:09:55.957Z</time></trkpt><trkpt lat="46.402195" lon="13.407825"><ele>588.6666666666666</ele><time>2026-04-25T14:09:56.957Z</time></trkpt><trkpt lat="46.4022033" lon="13.4081283"><ele>591.0</ele><time>2026-04-25T14:09:57.957Z</time></trkpt><trkpt lat="46.402215" lon="13.4084317"><ele>591.6666666666666</ele><time>2026-04-25T14:09:58.96Z</time></trkpt><trkpt lat="46.4022317" lon="13.40873"><ele>592.3333333333333</ele><time>2026-04-25T14:09:59.957Z</time></trkpt><trkpt lat="46.40225" lon="13.4090183"><ele>593.0</ele><time>2026-04-25T14:10:00.955Z</time></trkpt><trkpt lat="46.4022717" lon="13.4092983"><ele>593.0</ele><time>2026-04-25T14:10:01.957Z</time></trkpt><trkpt lat="46.4022867" lon="13.4095733"><ele>593.0</ele><time>2026-04-25T14:10:02.957Z</time></trkpt><trkpt lat="46.4022867" lon="13.4098433"><ele>593.0</ele><time>2026-04-25T14:10:03.957Z</time></trkpt><trkpt lat="46.4022817" lon="13.4101067"><ele>593.0</ele><time>2026-04-25T14:10:04.957Z</time></trkpt><trkpt lat="46.4022717" lon="13.4103567"><ele>593.0</ele><time>2026-04-25T14:10:05.957Z</time></trkpt><trkpt lat="46.4022583" lon="13.4105917"><ele>593.0</ele><time>2026-04-25T14:10:06.957Z</time></trkpt><trkpt lat="46.4022283" lon="13.410815"><ele>593.0</ele><time>2026-04-25T14:10:07.957Z</time></trkpt><trkpt lat="46.4021717" lon="13.411035"><ele>593.0</ele><time>2026-04-25T14:10:08.957Z</time></trkpt><trkpt lat="46.4020983" lon="13.4112467"><ele>593.0</ele><time>2026-04-25T14:10:09.957Z</time></trkpt><trkpt lat="46.4020267" lon="13.4114417"><ele>589.6666666666666</ele><time>2026-04-25T14:10:10.958Z</time></trkpt><trkpt lat="46.4019633" lon="13.4116417"><ele>586.3333333333334</ele><time>2026-04-25T14:10:11.957Z</time></trkpt><trkpt lat="46.4019167" lon="13.4118533"><ele>583.0</ele><time>2026-04-25T14:10:12.957Z</time></trkpt><trkpt lat="46.4018967" lon="13.4120817"><ele>584.6666666666667</ele><time>2026-04-25T14:10:13.957Z</time></trkpt><trkpt lat="46.4018933" lon="13.4123317"><ele>586.3333333333334</ele><time>2026-04-25T14:10:14.957Z</time></trkpt><trkpt lat="46.4019017" lon="13.4125867"><ele>588.0</ele><time>2026-04-25T14:10:15.957Z</time></trkpt><trkpt lat="46.4019083" lon="13.412845"><ele>590.6666666666666</ele><time>2026-04-25T14:10:16.957Z</time></trkpt><trkpt lat="46.4019217" lon="13.4131083"><ele>593.3333333333333</ele><time>2026-04-25T14:10:17.957Z</time></trkpt><trkpt lat="46.4019383" lon="13.4133717"><ele>596.0</ele><time>2026-04-25T14:10:18.956Z</time></trkpt><trkpt lat="46.4019683" lon="13.413625"><ele>596.6666666666666</ele><time>2026-04-25T14:10:19.956Z</time></trkpt><trkpt lat="46.4019967" lon="13.4138717"><ele>597.3333333333334</ele><time>2026-04-25T14:10:20.957Z</time></trkpt><trkpt lat="46.40203" lon="13.4141117"><ele>598.0</ele><time>2026-04-25T14:10:21.957Z</time></trkpt><trkpt lat="46.4020633" lon="13.414345"><ele>598.0</ele><time>2026-04-25T14:10:22.957Z</time></trkpt><trkpt lat="46.4020783" lon="13.41457"><ele>598.0</ele><time>2026-04-25T14:10:23.957Z</time></trkpt><trkpt lat="46.4020717" lon="13.4147967"><ele>598.0</ele><time>2026-04-25T14:10:24.957Z</time></trkpt><trkpt lat="46.402025" lon="13.41501"><ele>598.0</ele><time>2026-04-25T14:10:25.957Z</time></trkpt><trkpt lat="46.40196" lon="13.41521"><ele>598.0</ele><time>2026-04-25T14:10:26.956Z</time></trkpt><trkpt lat="46.4018867" lon="13.4154083"><ele>598.0</ele><time>2026-04-25T14:10:27.956Z</time></trkpt><trkpt lat="46.4018083" lon="13.4155933"><ele>598.0</ele><time>2026-04-25T14:10:28.958Z</time></trkpt><trkpt lat="46.4017217" lon="13.415755"><ele>598.0</ele><time>2026-04-25T14:10:29.958Z</time></trkpt><trkpt lat="46.4016267" lon="13.415905"><ele>598.0</ele><time>2026-04-25T14:10:30.957Z</time></trkpt><trkpt lat="46.4015333" lon="13.416045"><ele>598.0</ele><time>2026-04-25T14:10:31.957Z</time></trkpt><trkpt lat="46.4014483" lon="13.4161883"><ele>598.75</ele><time>2026-04-25T14:10:32.957Z</time></trkpt><trkpt lat="46.4013817" lon="13.416335"><ele>599.5</ele><time>2026-04-25T14:10:33.957Z</time></trkpt><trkpt lat="46.4013417" lon="13.4164983"><ele>600.25</ele><time>2026-04-25T14:10:34.957Z</time></trkpt><trkpt lat="46.4013317" lon="13.4166783"><ele>601.0</ele><time>2026-04-25T14:10:35.957Z</time></trkpt><trkpt lat="46.4013333" lon="13.4168683"><ele>601.75</ele><time>2026-04-25T14:10:36.957Z</time></trkpt><trkpt lat="46.401335" lon="13.41707"><ele>602.5</ele><time>2026-04-25T14:10:37.956Z</time></trkpt><trkpt lat="46.4013467" lon="13.4172783"><ele>603.25</ele><time>2026-04-25T14:10:38.956Z</time></trkpt><trkpt lat="46.4013517" lon="13.4174817"><ele>604.0</ele><time>2026-04-25T14:10:39.957Z</time></trkpt><trkpt lat="46.4013517" lon="13.4176767"><ele>604.5</ele><time>2026-04-25T14:10:40.956Z</time></trkpt><trkpt lat="46.401345" lon="13.4178617"><ele>605.0</ele><time>2026-04-25T14:10:41.957Z</time></trkpt><trkpt lat="46.40133" lon="13.4180383"><ele>605.5</ele><time>2026-04-25T14:10:42.957Z</time></trkpt><trkpt lat="46.4013017" lon="13.418205"><ele>606.0</ele><time>2026-04-25T14:10:43.957Z</time></trkpt><trkpt lat="46.40127" lon="13.418365"><ele>606.25</ele><time>2026-04-25T14:10:44.957Z</time></trkpt><trkpt lat="46.4012267" lon="13.4185233"><ele>606.5</ele><time>2026-04-25T14:10:45.957Z</time></trkpt><trkpt lat="46.4011817" lon="13.4186817"><ele>606.75</ele><time>2026-04-25T14:10:46.956Z</time></trkpt><trkpt lat="46.401135" lon="13.4188417"><ele>607.0</ele><time>2026-04-25T14:10:47.956Z</time></trkpt><trkpt lat="46.4010817" lon="13.4190067"><ele>607.0</ele><time>2026-04-25T14:10:48.956Z</time></trkpt><trkpt lat="46.4010283" lon="13.4191783"><ele>607.0</ele><time>2026-04-25T14:10:49.957Z</time></trkpt><trkpt lat="46.4009733" lon="13.419355"><ele>607.0</ele><time>2026-04-25T14:10:50.957Z</time></trkpt><trkpt lat="46.4009117" lon="13.4195333"><ele>607.0</ele><time>2026-04-25T14:10:51.957Z</time></trkpt><trkpt lat="46.4008333" lon="13.4196967"><ele>607.25</ele><time>2026-04-25T14:10:52.958Z</time></trkpt><trkpt lat="46.40074" lon="13.419845"><ele>607.5</ele><time>2026-04-25T14:10:53.957Z</time></trkpt><trkpt lat="46.4006333" lon="13.4199833"><ele>607.75</ele><time>2026-04-25T14:10:54.957Z</time></trkpt><trkpt lat="46.4005183" lon="13.4201233"><ele>608.0</ele><time>2026-04-25T14:10:55.957Z</time></trkpt><trkpt lat="46.4003983" lon="13.4202733"><ele>609.0</ele><time>2026-04-25T14:10:56.956Z</time></trkpt><trkpt lat="46.4002717" lon="13.42042"><ele>610.0</ele><time>2026-04-25T14:10:57.957Z</time></trkpt><trkpt lat="46.40015" lon="13.4205667"><ele>611.0</ele><time>2026-04-25T14:10:58.957Z</time></trkpt><trkpt lat="46.40003" lon="13.4207117"><ele>611.0</ele><time>2026-04-25T14:10:59.956Z</time></trkpt><trkpt lat="46.3999167" lon="13.4208517"><ele>611.0</ele><time>2026-04-25T14:11:00.957Z</time></trkpt><trkpt lat="46.3998133" lon="13.4209883"><ele>611.0</ele><time>2026-04-25T14:11:01.957Z</time></trkpt><trkpt lat="46.39972" lon="13.421155"><ele>611.0</ele><time>2026-04-25T14:11:02.957Z</time></trkpt><trkpt lat="46.3996317" lon="13.4213433"><ele>614.6666666666666</ele><time>2026-04-25T14:11:03.957Z</time></trkpt><trkpt lat="46.39955" lon="13.4215533"><ele>618.3333333333334</ele><time>2026-04-25T14:11:04.957Z</time></trkpt><trkpt lat="46.3994717" lon="13.4217667"><ele>622.0</ele><time>2026-04-25T14:11:05.957Z</time></trkpt><trkpt lat="46.3993967" lon="13.4219783"><ele>622.25</ele><time>2026-04-25T14:11:06.958Z</time></trkpt><trkpt lat="46.3993233" lon="13.4221733"><ele>622.5</ele><time>2026-04-25T14:11:07.961Z</time></trkpt><trkpt lat="46.3992567" lon="13.4223567"><ele>622.75</ele><time>2026-04-25T14:11:08.957Z</time></trkpt><trkpt lat="46.399205" lon="13.4225433"><ele>623.0</ele><time>2026-04-25T14:11:09.957Z</time></trkpt><trkpt lat="46.3991783" lon="13.422745"><ele>623.0</ele><time>2026-04-25T14:11:10.958Z</time></trkpt><trkpt lat="46.39917" lon="13.4229667"><ele>623.0</ele><time>2026-04-25T14:11:11.956Z</time></trkpt><trkpt lat="46.39918" lon="13.4231967"><ele>623.0</ele><time>2026-04-25T14:11:12.956Z</time></trkpt><trkpt lat="46.399195" lon="13.4234167"><ele>625.0</ele><time>2026-04-25T14:11:13.956Z</time></trkpt><trkpt lat="46.399235" lon="13.4236267"><ele>627.0</ele><time>2026-04-25T14:11:14.957Z</time></trkpt><trkpt lat="46.3992833" lon="13.4238317"><ele>629.0</ele><time>2026-04-25T14:11:15.957Z</time></trkpt><trkpt lat="46.3993583" lon="13.4240217"><ele>630.5</ele><time>2026-04-25T14:11:16.958Z</time></trkpt><trkpt lat="46.399435" lon="13.4241983"><ele>632.0</ele><time>2026-04-25T14:11:17.957Z</time></trkpt><trkpt lat="46.3994917" lon="13.4243883"><ele>633.5</ele><time>2026-04-25T14:11:18.957Z</time></trkpt><trkpt lat="46.3995283" lon="13.4246017"><ele>635.0</ele><time>2026-04-25T14:11:19.957Z</time></trkpt><trkpt lat="46.3995383" lon="13.4248267"><ele>636.3333333333333</ele><time>2026-04-25T14:11:20.957Z</time></trkpt><trkpt lat="46.399535" lon="13.42507"><ele>637.6666666666666</ele><time>2026-04-25T14:11:21.957Z</time></trkpt><trkpt lat="46.3995233" lon="13.4253233"><ele>639.0</ele><time>2026-04-25T14:11:22.957Z</time></trkpt><trkpt lat="46.3995033" lon="13.4255817"><ele>639.0</ele><time>2026-04-25T14:11:23.957Z</time></trkpt><trkpt lat="46.399465" lon="13.425835"><ele>639.0</ele><time>2026-04-25T14:11:24.957Z</time></trkpt><trkpt lat="46.39941" lon="13.426075"><ele>639.0</ele><time>2026-04-25T14:11:25.957Z</time></trkpt><trkpt lat="46.3993383" lon="13.4263"><ele>637.6666666666666</ele><time>2026-04-25T14:11:26.957Z</time></trkpt><trkpt lat="46.39925" lon="13.4265117"><ele>636.3333333333333</ele><time>2026-04-25T14:11:27.957Z</time></trkpt><trkpt lat="46.3991533" lon="13.42672"><ele>635.0</ele><time>2026-04-25T14:11:28.957Z</time></trkpt><trkpt lat="46.399045" lon="13.4269283"><ele>635.0</ele><time>2026-04-25T14:11:29.956Z</time></trkpt><trkpt lat="46.398945" lon="13.4271417"><ele>635.0</ele><time>2026-04-25T14:11:30.957Z</time></trkpt><trkpt lat="46.3988417" lon="13.4273567"><ele>635.0</ele><time>2026-04-25T14:11:31.956Z</time></trkpt><trkpt lat="46.3987317" lon="13.4275767"><ele>633.6666666666666</ele><time>2026-04-25T14:11:32.957Z</time></trkpt><trkpt lat="46.398615" lon="13.4277933"><ele>632.3333333333334</ele><time>2026-04-25T14:11:33.957Z</time></trkpt><trkpt lat="46.3984933" lon="13.4280017"><ele>631.0</ele><time>2026-04-25T14:11:34.958Z</time></trkpt><trkpt lat="46.3983783" lon="13.428205"><ele>634.6666666666667</ele><time>2026-04-25T14:11:35.957Z</time></trkpt><trkpt lat="46.39826" lon="13.4283983"><ele>638.3333333333334</ele><time>2026-04-25T14:11:36.958Z</time></trkpt><trkpt lat="46.39815" lon="13.4285867"><ele>642.0</ele><time>2026-04-25T14:11:37.957Z</time></trkpt><trkpt lat="46.398045" lon="13.4287617"><ele>643.5</ele><time>2026-04-25T14:11:38.957Z</time></trkpt><trkpt lat="46.39796" lon="13.4289267"><ele>645.0</ele><time>2026-04-25T14:11:39.957Z</time></trkpt><trkpt lat="46.3979" lon="13.4290783"><ele>646.5</ele><time>2026-04-25T14:11:40.957Z</time></trkpt><trkpt lat="46.3978717" lon="13.4292317"><ele>648.0</ele><time>2026-04-25T14:11:41.956Z</time></trkpt><trkpt lat="46.3978917" lon="13.4293867"><ele>648.0</ele><time>2026-04-25T14:11:42.957Z</time></trkpt><trkpt lat="46.3979483" lon="13.4295317"><ele>648.0</ele><time>2026-04-25T14:11:43.957Z</time></trkpt><trkpt lat="46.398015" lon="13.429665"><ele>648.0</ele><time>2026-04-25T14:11:44.958Z</time></trkpt><trkpt lat="46.3980967" lon="13.4298217"><ele>648.0</ele><time>2026-04-25T14:11:45.956Z</time></trkpt><trkpt lat="46.3981617" lon="13.430005"><ele>648.25</ele><time>2026-04-25T14:11:46.957Z</time></trkpt><trkpt lat="46.3982033" lon="13.43021"><ele>648.5</ele><time>2026-04-25T14:11:47.957Z</time></trkpt><trkpt lat="46.39822" lon="13.4304183"><ele>648.75</ele><time>2026-04-25T14:11:48.957Z</time></trkpt><trkpt lat="46.3982017" lon="13.4306233"><ele>649.0</ele><time>2026-04-25T14:11:49.958Z</time></trkpt><trkpt lat="46.398145" lon="13.4308233"><ele>650.0</ele><time>2026-04-25T14:11:50.957Z</time></trkpt><trkpt lat="46.398075" lon="13.431015"><ele>651.0</ele><time>2026-04-25T14:11:51.958Z</time></trkpt><trkpt lat="46.3980083" lon="13.4312183"><ele>652.0</ele><time>2026-04-25T14:11:52.958Z</time></trkpt><trkpt lat="46.3979617" lon="13.4314233"><ele>652.0</ele><time>2026-04-25T14:11:53.957Z</time></trkpt><trkpt lat="46.3979217" lon="13.4316183"><ele>652.0</ele><time>2026-04-25T14:11:54.957Z</time></trkpt><trkpt lat="46.3978783" lon="13.4318067"><ele>652.0</ele><time>2026-04-25T14:11:55.957Z</time></trkpt><trkpt lat="46.3978183" lon="13.4319867"><ele>652.0</ele><time>2026-04-25T14:11:56.957Z</time></trkpt><trkpt lat="46.3977333" lon="13.43214"><ele>658.25</ele><time>2026-04-25T14:11:57.957Z</time></trkpt><trkpt lat="46.3976267" lon="13.43226"><ele>664.5</ele><time>2026-04-25T14:11:58.957Z</time></trkpt><trkpt lat="46.3975017" lon="13.4323383"><ele>670.75</ele><time>2026-04-25T14:11:59.956Z</time></trkpt><trkpt lat="46.39738" lon="13.432385"><ele>677.0</ele><time>2026-04-25T14:12:00.957Z</time></trkpt><trkpt lat="46.3972633" lon="13.43241"><ele>674.4000000000001</ele><time>2026-04-25T14:12:01.958Z</time></trkpt><trkpt lat="46.39715" lon="13.4324267"><ele>671.8000000000001</ele><time>2026-04-25T14:12:02.957Z</time></trkpt><trkpt lat="46.39704" lon="13.4324383"><ele>669.2</ele><time>2026-04-25T14:12:03.957Z</time></trkpt><trkpt lat="46.3969367" lon="13.43246"><ele>666.6</ele><time>2026-04-25T14:12:04.958Z</time></trkpt><trkpt lat="46.396835" lon="13.432495"><ele>664.0</ele><time>2026-04-25T14:12:05.957Z</time></trkpt><trkpt lat="46.3967383" lon="13.4325633"><ele>664.0</ele><time>2026-04-25T14:12:06.957Z</time></trkpt><trkpt lat="46.3966667" lon="13.4326667"><ele>664.0</ele><time>2026-04-25T14:12:07.957Z</time></trkpt><trkpt lat="46.3966117" lon="13.4327883"><ele>664.0</ele><time>2026-04-25T14:12:08.957Z</time></trkpt><trkpt lat="46.39656" lon="13.432915"><ele>664.0</ele><time>2026-04-25T14:12:09.957Z</time></trkpt><trkpt lat="46.3965" lon="13.433045"><ele>664.0</ele><time>2026-04-25T14:12:10.958Z</time></trkpt><trkpt lat="46.3964267" lon="13.4331817"><ele>665.5</ele><time>2026-04-25T14:12:11.956Z</time></trkpt><trkpt lat="46.39634" lon="13.4333083"><ele>667.0</ele><time>2026-04-25T14:12:12.957Z</time></trkpt><trkpt lat="46.39626" lon="13.4334267"><ele>668.5</ele><time>2026-04-25T14:12:13.957Z</time></trkpt><trkpt lat="46.39617" lon="13.43353"><ele>670.0</ele><time>2026-04-25T14:12:14.957Z</time></trkpt><trkpt lat="46.3960917" lon="13.43363"><ele>670.0</ele><time>2026-04-25T14:12:15.957Z</time></trkpt><trkpt lat="46.3960083" lon="13.4337317"><ele>670.0</ele><time>2026-04-25T14:12:16.962Z</time></trkpt><trkpt lat="46.3959233" lon="13.4338367"><ele>670.0</ele><time>2026-04-25T14:12:17.957Z</time></trkpt><trkpt lat="46.3958433" lon="13.4339433"><ele>670.0</ele><time>2026-04-25T14:12:18.957Z</time></trkpt><trkpt lat="46.3957717" lon="13.4340483"><ele>670.0</ele><time>2026-04-25T14:12:19.958Z</time></trkpt><trkpt lat="46.3957" lon="13.43414"><ele>670.1666666666667</ele><time>2026-04-25T14:12:20.957Z</time></trkpt><trkpt lat="46.3956383" lon="13.4342167"><ele>670.3333333333334</ele><time>2026-04-25T14:12:21.957Z</time></trkpt><trkpt lat="46.3955867" lon="13.43428"><ele>670.5</ele><time>2026-04-25T14:12:22.957Z</time></trkpt><trkpt lat="46.3955033" lon="13.4343767"><ele>670.6666666666666</ele><time>2026-04-25T14:12:24.957Z</time></trkpt><trkpt lat="46.3954167" lon="13.4344983"><ele>670.8333333333333</ele><time>2026-04-25T14:12:26.956Z</time></trkpt><trkpt lat="46.39536" lon="13.4345567"><ele>671.0</ele><time>2026-04-25T14:12:27.958Z</time></trkpt><trkpt lat="46.395295" lon="13.4346133"><ele>671.0</ele><time>2026-04-25T14:12:28.957Z</time></trkpt><trkpt lat="46.3952317" lon="13.4346767"><ele>671.0</ele><time>2026-04-25T14:12:29.957Z</time></trkpt><trkpt lat="46.395165" lon="13.4347433"><ele>671.0</ele><time>2026-04-25T14:12:30.958Z</time></trkpt><trkpt lat="46.3950983" lon="13.4348117"><ele>671.0</ele><time>2026-04-25T14:12:31.957Z</time></trkpt><trkpt lat="46.3950317" lon="13.4348833"><ele>671.0</ele><time>2026-04-25T14:12:32.957Z</time></trkpt><trkpt lat="46.3949717" lon="13.4349683"><ele>671.0</ele><time>2026-04-25T14:12:33.958Z</time></trkpt><trkpt lat="46.3949233" lon="13.4350617"><ele>671.0</ele><time>2026-04-25T14:12:34.956Z</time></trkpt><trkpt lat="46.3948867" lon="13.4351683"><ele>671.0</ele><time>2026-04-25T14:12:35.956Z</time></trkpt><trkpt lat="46.39487" lon="13.435285"><ele>671.0</ele><time>2026-04-25T14:12:36.956Z</time></trkpt><trkpt lat="46.394865" lon="13.4354067"><ele>671.0</ele><time>2026-04-25T14:12:37.957Z</time></trkpt><trkpt lat="46.39487" lon="13.435525"><ele>671.0</ele><time>2026-04-25T14:12:38.957Z</time></trkpt><trkpt lat="46.3948983" lon="13.4356467"><ele>671.0</ele><time>2026-04-25T14:12:39.958Z</time></trkpt><trkpt lat="46.3949417" lon="13.4357567"><ele>671.0</ele><time>2026-04-25T14:12:40.957Z</time></trkpt><trkpt lat="46.3950017" lon="13.4358617"><ele>671.0</ele><time>2026-04-25T14:12:41.957Z</time></trkpt><trkpt lat="46.3950767" lon="13.4359617"><ele>671.0</ele><time>2026-04-25T14:12:42.957Z</time></trkpt><trkpt lat="46.3951517" lon="13.436065"><ele>671.0</ele><time>2026-04-25T14:12:43.958Z</time></trkpt><trkpt lat="46.3952367" lon="13.4361717"><ele>671.0</ele><time>2026-04-25T14:12:44.956Z</time></trkpt><trkpt lat="46.3953167" lon="13.4362833"><ele>675.25</ele><time>2026-04-25T14:12:45.958Z</time></trkpt><trkpt lat="46.3954017" lon="13.4364017"><ele>679.5</ele><time>2026-04-25T14:12:46.957Z</time></trkpt><trkpt lat="46.39549" lon="13.4365133"><ele>683.75</ele><time>2026-04-25T14:12:47.956Z</time></trkpt><trkpt lat="46.395575" lon="13.43663"><ele>688.0</ele><time>2026-04-25T14:12:48.957Z</time></trkpt><trkpt lat="46.3956517" lon="13.43676"><ele>688.0</ele><time>2026-04-25T14:12:49.957Z</time></trkpt><trkpt lat="46.3957083" lon="13.4368967"><ele>688.0</ele><time>2026-04-25T14:12:50.957Z</time></trkpt><trkpt lat="46.395745" lon="13.4370533"><ele>688.0</ele><time>2026-04-25T14:12:51.957Z</time></trkpt><trkpt lat="46.39576" lon="13.437215"><ele>688.0</ele><time>2026-04-25T14:12:52.958Z</time></trkpt><trkpt lat="46.39575" lon="13.4373817"><ele>692.5</ele><time>2026-04-25T14:12:53.956Z</time></trkpt><trkpt lat="46.395715" lon="13.4375417"><ele>697.0</ele><time>2026-04-25T14:12:54.957Z</time></trkpt><trkpt lat="46.3956567" lon="13.437685"><ele>701.5</ele><time>2026-04-25T14:12:55.958Z</time></trkpt><trkpt lat="46.395585" lon="13.437815"><ele>706.0</ele><time>2026-04-25T14:12:56.957Z</time></trkpt><trkpt lat="46.3954967" lon="13.4379233"><ele>706.0</ele><time>2026-04-25T14:12:57.958Z</time></trkpt><trkpt lat="46.395405" lon="13.438025"><ele>706.0</ele><time>2026-04-25T14:12:58.958Z</time></trkpt><trkpt lat="46.3953117" lon="13.4381283"><ele>706.0</ele><time>2026-04-25T14:12:59.957Z</time></trkpt><trkpt lat="46.3952133" lon="13.43824"><ele>706.0</ele><time>2026-04-25T14:13:00.957Z</time></trkpt><trkpt lat="46.395115" lon="13.4383483"><ele>706.0</ele><time>2026-04-25T14:13:01.957Z</time></trkpt><trkpt lat="46.39502" lon="13.4384533"><ele>706.0</ele><time>2026-04-25T14:13:02.956Z</time></trkpt><trkpt lat="46.3949233" lon="13.4385433"><ele>706.0</ele><time>2026-04-25T14:13:03.958Z</time></trkpt><trkpt lat="46.3948233" lon="13.4386083"><ele>706.0</ele><time>2026-04-25T14:13:04.958Z</time></trkpt><trkpt lat="46.3947183" lon="13.4386333"><ele>706.0</ele><time>2026-04-25T14:13:05.958Z</time></trkpt><trkpt lat="46.3946133" lon="13.4386183"><ele>706.0</ele><time>2026-04-25T14:13:06.958Z</time></trkpt><trkpt lat="46.3945117" lon="13.43856"><ele>706.0</ele><time>2026-04-25T14:13:07.957Z</time></trkpt><trkpt lat="46.394415" lon="13.4384767"><ele>706.0</ele><time>2026-04-25T14:13:08.956Z</time></trkpt><trkpt lat="46.3943133" lon="13.4383783"><ele>706.0</ele><time>2026-04-25T14:13:09.957Z</time></trkpt><trkpt lat="46.3942117" lon="13.4382633"><ele>706.0</ele><time>2026-04-25T14:13:10.958Z</time></trkpt><trkpt lat="46.3941183" lon="13.438145"><ele>706.0</ele><time>2026-04-25T14:13:11.957Z</time></trkpt><trkpt lat="46.3940383" lon="13.438025"><ele>706.0</ele><time>2026-04-25T14:13:12.958Z</time></trkpt><trkpt lat="46.3939733" lon="13.4378917"><ele>706.0</ele><time>2026-04-25T14:13:13.957Z</time></trkpt><trkpt lat="46.393925" lon="13.4377483"><ele>706.0</ele><time>2026-04-25T14:13:14.956Z</time></trkpt><trkpt lat="46.3938917" lon="13.4375883"><ele>706.0</ele><time>2026-04-25T14:13:15.957Z</time></trkpt><trkpt lat="46.3938717" lon="13.4374367"><ele>706.0</ele><time>2026-04-25T14:13:16.957Z</time></trkpt><trkpt lat="46.393855" lon="13.4372917"><ele>706.0</ele><time>2026-04-25T14:13:17.957Z</time></trkpt><trkpt lat="46.3938267" lon="13.4371717"><ele>706.0</ele><time>2026-04-25T14:13:18.957Z</time></trkpt><trkpt lat="46.3937867" lon="13.4370717"><ele>706.0</ele><time>2026-04-25T14:13:19.958Z</time></trkpt><trkpt lat="46.39368" lon="13.4371417"><ele>706.0</ele><time>2026-04-25T14:13:21.959Z</time></trkpt><trkpt lat="46.393665" lon="13.4372367"><ele>706.0</ele><time>2026-04-25T14:13:22.957Z</time></trkpt><trkpt lat="46.39365" lon="13.4373833"><ele>706.0</ele><time>2026-04-25T14:13:23.955Z</time></trkpt><trkpt lat="46.3936683" lon="13.4375417"><ele>706.0</ele><time>2026-04-25T14:13:24.958Z</time></trkpt><trkpt lat="46.39371" lon="13.4377483"><ele>706.0</ele><time>2026-04-25T14:13:25.958Z</time></trkpt><trkpt lat="46.3937567" lon="13.437965"><ele>706.0</ele><time>2026-04-25T14:13:26.956Z</time></trkpt><trkpt lat="46.39379" lon="13.4381717"><ele>706.0</ele><time>2026-04-25T14:13:27.958Z</time></trkpt><trkpt lat="46.39381" lon="13.4383817"><ele>706.0</ele><time>2026-04-25T14:13:28.957Z</time></trkpt><trkpt lat="46.39383" lon="13.4385983"><ele>706.0</ele><time>2026-04-25T14:13:29.956Z</time></trkpt><trkpt lat="46.393865" lon="13.4388317"><ele>706.0</ele><time>2026-04-25T14:13:30.957Z</time></trkpt><trkpt lat="46.3938917" lon="13.4390717"><ele>706.0</ele><time>2026-04-25T14:13:31.958Z</time></trkpt><trkpt lat="46.393885" lon="13.439305"><ele>706.0</ele><time>2026-04-25T14:13:32.957Z</time></trkpt><trkpt lat="46.3938783" lon="13.4395383"><ele>706.0</ele><time>2026-04-25T14:13:33.958Z</time></trkpt><trkpt lat="46.3938433" lon="13.4397533"><ele>706.0</ele><time>2026-04-25T14:13:34.957Z</time></trkpt><trkpt lat="46.3937983" lon="13.4399483"><ele>706.0</ele><time>2026-04-25T14:13:35.956Z</time></trkpt><trkpt lat="46.3937433" lon="13.4401333"><ele>706.0</ele><time>2026-04-25T14:13:36.957Z</time></trkpt><trkpt lat="46.3936983" lon="13.4403167"><ele>706.0</ele><time>2026-04-25T14:13:37.957Z</time></trkpt><trkpt lat="46.3936717" lon="13.4405033"><ele>706.0</ele><time>2026-04-25T14:13:38.957Z</time></trkpt><trkpt lat="46.3936817" lon="13.440685"><ele>706.0</ele><time>2026-04-25T14:13:39.956Z</time></trkpt><trkpt lat="46.39374" lon="13.4408567"><ele>706.0</ele><time>2026-04-25T14:13:40.956Z</time></trkpt><trkpt lat="46.393815" lon="13.441035"><ele>706.0</ele><time>2026-04-25T14:13:41.956Z</time></trkpt><trkpt lat="46.3939233" lon="13.4412083"><ele>706.0</ele><time>2026-04-25T14:13:42.957Z</time></trkpt><trkpt lat="46.3940217" lon="13.441385"><ele>706.0</ele><time>2026-04-25T14:13:43.957Z</time></trkpt><trkpt lat="46.3941183" lon="13.441555"><ele>706.0</ele><time>2026-04-25T14:13:44.956Z</time></trkpt><trkpt lat="46.3941983" lon="13.441705"><ele>706.0</ele><time>2026-04-25T14:13:45.955Z</time></trkpt><trkpt lat="46.3943033" lon="13.441845"><ele>706.0</ele><time>2026-04-25T14:13:46.955Z</time></trkpt><trkpt lat="46.3943717" lon="13.4419833"><ele>706.0</ele><time>2026-04-25T14:13:47.955Z</time></trkpt><trkpt lat="46.3944317" lon="13.4421383"><ele>706.0</ele><time>2026-04-25T14:13:48.955Z</time></trkpt><trkpt lat="46.3944633" lon="13.4423217"><ele>706.0</ele><time>2026-04-25T14:13:49.957Z</time></trkpt><trkpt lat="46.39447" lon="13.4425233"><ele>706.0</ele><time>2026-04-25T14:13:50.956Z</time></trkpt><trkpt lat="46.3944383" lon="13.44272"><ele>706.0</ele><time>2026-04-25T14:13:51.956Z</time></trkpt><trkpt lat="46.39441" lon="13.4429233"><ele>706.0</ele><time>2026-04-25T14:13:52.957Z</time></trkpt><trkpt lat="46.39439" lon="13.443135"><ele>706.0</ele><time>2026-04-25T14:13:53.955Z</time></trkpt><trkpt lat="46.3943833" lon="13.443365"><ele>706.0</ele><time>2026-04-25T14:13:54.956Z</time></trkpt><trkpt lat="46.3944" lon="13.4436083"><ele>706.0</ele><time>2026-04-25T14:13:55.955Z</time></trkpt><trkpt lat="46.3944367" lon="13.44386"><ele>706.0</ele><time>2026-04-25T14:13:56.956Z</time></trkpt><trkpt lat="46.3944717" lon="13.4440983"><ele>706.0</ele><time>2026-04-25T14:13:57.956Z</time></trkpt><trkpt lat="46.3945117" lon="13.4443317"><ele>706.0</ele><time>2026-04-25T14:13:58.956Z</time></trkpt><trkpt lat="46.3945733" lon="13.4445683"><ele>706.0</ele><time>2026-04-25T14:13:59.957Z</time></trkpt><trkpt lat="46.3946483" lon="13.4448033"><ele>706.0</ele><time>2026-04-25T14:14:00.956Z</time></trkpt><trkpt lat="46.3947033" lon="13.4450367"><ele>736.0</ele><time>2026-04-25T14:14:01.956Z</time></trkpt><trkpt lat="46.3947533" lon="13.44527"><ele>766.0</ele><time>2026-04-25T14:14:02.955Z</time></trkpt><trkpt lat="46.3947933" lon="13.4454983"><ele>796.0</ele><time>2026-04-25T14:14:03.956Z</time></trkpt><trkpt lat="46.3948283" lon="13.445735"><ele>796.0</ele><time>2026-04-25T14:14:04.956Z</time></trkpt><trkpt lat="46.3948583" lon="13.44598"><ele>796.0</ele><time>2026-04-25T14:14:05.956Z</time></trkpt><trkpt lat="46.3949133" lon="13.4462217"><ele>796.0</ele><time>2026-04-25T14:14:06.955Z</time></trkpt><trkpt lat="46.3949533" lon="13.4464567"><ele>797.0</ele><time>2026-04-25T14:14:07.956Z</time></trkpt><trkpt lat="46.3949533" lon="13.4466833"><ele>798.0</ele><time>2026-04-25T14:14:08.954Z</time></trkpt><trkpt lat="46.3949483" lon="13.4469167"><ele>799.0</ele><time>2026-04-25T14:14:09.956Z</time></trkpt><trkpt lat="46.3949283" lon="13.4471517"><ele>800.6666666666666</ele><time>2026-04-25T14:14:10.956Z</time></trkpt><trkpt lat="46.3949" lon="13.4473917"><ele>802.3333333333333</ele><time>2026-04-25T14:14:11.956Z</time></trkpt><trkpt lat="46.3948617" lon="13.4476367"><ele>804.0</ele><time>2026-04-25T14:14:12.956Z</time></trkpt><trkpt lat="46.3948267" lon="13.4478867"><ele>804.0</ele><time>2026-04-25T14:14:13.956Z</time></trkpt><trkpt lat="46.3947917" lon="13.4481317"><ele>804.0</ele><time>2026-04-25T14:14:14.956Z</time></trkpt><trkpt lat="46.3947667" lon="13.4483833"><ele>804.0</ele><time>2026-04-25T14:14:15.955Z</time></trkpt><trkpt lat="46.3947517" lon="13.4486333"><ele>808.0</ele><time>2026-04-25T14:14:16.956Z</time></trkpt><trkpt lat="46.39474" lon="13.4488883"><ele>812.0</ele><time>2026-04-25T14:14:17.955Z</time></trkpt><trkpt lat="46.394735" lon="13.4491517"><ele>816.0</ele><time>2026-04-25T14:14:18.956Z</time></trkpt><trkpt lat="46.3947583" lon="13.4494183"><ele>816.3333333333333</ele><time>2026-04-25T14:14:19.956Z</time></trkpt><trkpt lat="46.3947883" lon="13.4496733"><ele>816.6666666666666</ele><time>2026-04-25T14:14:20.956Z</time></trkpt><trkpt lat="46.394805" lon="13.4499167"><ele>817.0</ele><time>2026-04-25T14:14:21.957Z</time></trkpt><trkpt lat="46.3948233" lon="13.4501417"><ele>817.0</ele><time>2026-04-25T14:14:22.956Z</time></trkpt><trkpt lat="46.3948483" lon="13.4503467"><ele>817.0</ele><time>2026-04-25T14:14:23.956Z</time></trkpt><trkpt lat="46.394895" lon="13.4505417"><ele>817.0</ele><time>2026-04-25T14:14:24.956Z</time></trkpt><trkpt lat="46.39495" lon="13.450725"><ele>817.0</ele><time>2026-04-25T14:14:25.956Z</time></trkpt><trkpt lat="46.3950117" lon="13.4509117"><ele>819.5</ele><time>2026-04-25T14:14:26.956Z</time></trkpt><trkpt lat="46.3950817" lon="13.451095"><ele>822.0</ele><time>2026-04-25T14:14:27.957Z</time></trkpt><trkpt lat="46.395155" lon="13.4512717"><ele>824.5</ele><time>2026-04-25T14:14:28.956Z</time></trkpt><trkpt lat="46.395185" lon="13.4514367"><ele>827.0</ele><time>2026-04-25T14:14:29.956Z</time></trkpt><trkpt lat="46.3951967" lon="13.4516067"><ele>828.0</ele><time>2026-04-25T14:14:30.956Z</time></trkpt><trkpt lat="46.3951883" lon="13.4517933"><ele>829.0</ele><time>2026-04-25T14:14:31.956Z</time></trkpt><trkpt lat="46.395165" lon="13.4519983"><ele>830.0</ele><time>2026-04-25T14:14:32.955Z</time></trkpt><trkpt lat="46.3951383" lon="13.4522083"><ele>831.0</ele><time>2026-04-25T14:14:33.956Z</time></trkpt><trkpt lat="46.3951" lon="13.45242"><ele>831.0</ele><time>2026-04-25T14:14:34.957Z</time></trkpt><trkpt lat="46.3950533" lon="13.4526317"><ele>831.0</ele><time>2026-04-25T14:14:35.956Z</time></trkpt><trkpt lat="46.3949967" lon="13.45284"><ele>831.0</ele><time>2026-04-25T14:14:36.956Z</time></trkpt><trkpt lat="46.3949283" lon="13.45305"><ele>830.0</ele><time>2026-04-25T14:14:37.957Z</time></trkpt><trkpt lat="46.3948567" lon="13.45327"><ele>829.0</ele><time>2026-04-25T14:14:38.955Z</time></trkpt><trkpt lat="46.3947817" lon="13.4534933"><ele>828.0</ele><time>2026-04-25T14:14:39.957Z</time></trkpt><trkpt lat="46.394695" lon="13.4537117"><ele>834.3333333333333</ele><time>2026-04-25T14:14:40.957Z</time></trkpt><trkpt lat="46.3946083" lon="13.4539233"><ele>840.6666666666666</ele><time>2026-04-25T14:14:41.956Z</time></trkpt><trkpt lat="46.3945183" lon="13.454135"><ele>847.0</ele><time>2026-04-25T14:14:42.956Z</time></trkpt><trkpt lat="46.3944333" lon="13.4543333"><ele>847.0</ele><time>2026-04-25T14:14:43.955Z</time></trkpt><trkpt lat="46.394345" lon="13.4545033"><ele>847.0</ele><time>2026-04-25T14:14:44.957Z</time></trkpt><trkpt lat="46.3942533" lon="13.4546567"><ele>847.0</ele><time>2026-04-25T14:14:45.957Z</time></trkpt><trkpt lat="46.394165" lon="13.4548083"><ele>847.0</ele><time>2026-04-25T14:14:46.957Z</time></trkpt><trkpt lat="46.39408" lon="13.4549833"><ele>847.0</ele><time>2026-04-25T14:14:47.957Z</time></trkpt><trkpt lat="46.394025" lon="13.45518"><ele>847.0</ele><time>2026-04-25T14:14:48.957Z</time></trkpt><trkpt lat="46.3939817" lon="13.455395"><ele>847.0</ele><time>2026-04-25T14:14:49.956Z</time></trkpt><trkpt lat="46.39394" lon="13.455605"><ele>846.75</ele><time>2026-04-25T14:14:50.956Z</time></trkpt><trkpt lat="46.393905" lon="13.4558017"><ele>846.5</ele><time>2026-04-25T14:14:51.955Z</time></trkpt><trkpt lat="46.3938567" lon="13.45599"><ele>846.25</ele><time>2026-04-25T14:14:52.957Z</time></trkpt><trkpt lat="46.3938033" lon="13.4561817"><ele>846.0</ele><time>2026-04-25T14:14:53.956Z</time></trkpt><trkpt lat="46.3937317" lon="13.45637"><ele>850.75</ele><time>2026-04-25T14:14:54.956Z</time></trkpt><trkpt lat="46.393675" lon="13.4565483"><ele>855.5</ele><time>2026-04-25T14:14:55.957Z</time></trkpt><trkpt lat="46.3936333" lon="13.4567233"><ele>860.25</ele><time>2026-04-25T14:14:56.955Z</time></trkpt><trkpt lat="46.39362" lon="13.4569017"><ele>865.0</ele><time>2026-04-25T14:14:57.957Z</time></trkpt><trkpt lat="46.3936217" lon="13.457085"><ele>862.5</ele><time>2026-04-25T14:14:58.957Z</time></trkpt><trkpt lat="46.39363" lon="13.4572783"><ele>860.0</ele><time>2026-04-25T14:14:59.956Z</time></trkpt><trkpt lat="46.393665" lon="13.4574683"><ele>857.5</ele><time>2026-04-25T14:15:00.955Z</time></trkpt><trkpt lat="46.3937017" lon="13.457655"><ele>855.0</ele><time>2026-04-25T14:15:01.957Z</time></trkpt><trkpt lat="46.393735" lon="13.4578483"><ele>854.25</ele><time>2026-04-25T14:15:02.957Z</time></trkpt><trkpt lat="46.393755" lon="13.458045"><ele>853.5</ele><time>2026-04-25T14:15:03.956Z</time></trkpt><trkpt lat="46.3937617" lon="13.4582417"><ele>852.75</ele><time>2026-04-25T14:15:04.957Z</time></trkpt><trkpt lat="46.39374" lon="13.4584283"><ele>852.0</ele><time>2026-04-25T14:15:05.955Z</time></trkpt><trkpt lat="46.393735" lon="13.458625"><ele>854.5</ele><time>2026-04-25T14:15:06.957Z</time></trkpt><trkpt lat="46.3937283" lon="13.4588233"><ele>857.0</ele><time>2026-04-25T14:15:07.957Z</time></trkpt><trkpt lat="46.3937233" lon="13.4590217"><ele>859.5</ele><time>2026-04-25T14:15:08.957Z</time></trkpt><trkpt lat="46.3937167" lon="13.4592183"><ele>862.0</ele><time>2026-04-25T14:15:09.957Z</time></trkpt><trkpt lat="46.39371" lon="13.4594167"><ele>878.0</ele><time>2026-04-25T14:15:10.956Z</time></trkpt><trkpt lat="46.3934683" lon="13.460385"><ele>873.0</ele><time>2026-04-25T14:15:15.957Z</time></trkpt><trkpt lat="46.3929717" lon="13.4606083"><ele>873.0</ele><time>2026-04-25T14:15:16.956Z</time></trkpt><trkpt lat="46.3927633" lon="13.460805"><ele>873.0</ele><time>2026-04-25T14:15:17.956Z</time></trkpt><trkpt lat="46.3926" lon="13.4609833"><ele>873.0</ele><time>2026-04-25T14:15:18.956Z</time></trkpt><trkpt lat="46.39248" lon="13.46116"><ele>873.0</ele><time>2026-04-25T14:15:19.956Z</time></trkpt><trkpt lat="46.3923667" lon="13.4613283"><ele>873.0</ele><time>2026-04-25T14:15:20.956Z</time></trkpt><trkpt lat="46.3922617" lon="13.46149"><ele>874.75</ele><time>2026-04-25T14:15:21.956Z</time></trkpt><trkpt lat="46.3921567" lon="13.4616117"><ele>876.5</ele><time>2026-04-25T14:15:22.957Z</time></trkpt><trkpt lat="46.392035" lon="13.4617167"><ele>878.25</ele><time>2026-04-25T14:15:23.956Z</time></trkpt><trkpt lat="46.3919117" lon="13.4618017"><ele>880.0</ele><time>2026-04-25T14:15:24.956Z</time></trkpt><trkpt lat="46.3917817" lon="13.4618967"><ele>880.0</ele><time>2026-04-25T14:15:25.957Z</time></trkpt><trkpt lat="46.3916517" lon="13.4620033"><ele>880.0</ele><time>2026-04-25T14:15:26.957Z</time></trkpt><trkpt lat="46.3915267" lon="13.462125"><ele>880.0</ele><time>2026-04-25T14:15:27.957Z</time></trkpt><trkpt lat="46.3914167" lon="13.4622883"><ele>880.3333333333333</ele><time>2026-04-25T14:15:28.956Z</time></trkpt><trkpt lat="46.391315" lon="13.462495"><ele>880.6666666666667</ele><time>2026-04-25T14:15:29.956Z</time></trkpt><trkpt lat="46.3912217" lon="13.4627217"><ele>881.0</ele><time>2026-04-25T14:15:30.957Z</time></trkpt><trkpt lat="46.3911367" lon="13.46296"><ele>886.0</ele><time>2026-04-25T14:15:31.956Z</time></trkpt><trkpt lat="46.391045" lon="13.4631983"><ele>891.0</ele><time>2026-04-25T14:15:32.956Z</time></trkpt><trkpt lat="46.3909467" lon="13.4634367"><ele>896.0</ele><time>2026-04-25T14:15:33.956Z</time></trkpt><trkpt lat="46.3908533" lon="13.4636783"><ele>902.0</ele><time>2026-04-25T14:15:34.957Z</time></trkpt><trkpt lat="46.39076" lon="13.4639217"><ele>908.0</ele><time>2026-04-25T14:15:35.956Z</time></trkpt><trkpt lat="46.3906683" lon="13.4641517"><ele>914.0</ele><time>2026-04-25T14:15:36.957Z</time></trkpt><trkpt lat="46.3905783" lon="13.46436"><ele>912.5</ele><time>2026-04-25T14:15:37.957Z</time></trkpt><trkpt lat="46.3904967" lon="13.4645467"><ele>911.0</ele><time>2026-04-25T14:15:38.956Z</time></trkpt><trkpt lat="46.39043" lon="13.464715"><ele>909.5</ele><time>2026-04-25T14:15:39.956Z</time></trkpt><trkpt lat="46.390355" lon="13.46485"><ele>908.0</ele><time>2026-04-25T14:15:40.957Z</time></trkpt><trkpt lat="46.3902467" lon="13.46492"><ele>910.3333333333334</ele><time>2026-04-25T14:15:41.956Z</time></trkpt><trkpt lat="46.390145" lon="13.46497"><ele>912.6666666666667</ele><time>2026-04-25T14:15:42.956Z</time></trkpt><trkpt lat="46.390065" lon="13.4650367"><ele>915.0</ele><time>2026-04-25T14:15:43.956Z</time></trkpt><trkpt lat="46.3900067" lon="13.4651217"><ele>917.3333333333333</ele><time>2026-04-25T14:15:44.957Z</time></trkpt><trkpt lat="46.389965" lon="13.46521"><ele>919.6666666666666</ele><time>2026-04-25T14:15:45.955Z</time></trkpt><trkpt lat="46.3899533" lon="13.4653033"><ele>922.0</ele><time>2026-04-25T14:15:46.958Z</time></trkpt><trkpt lat="46.3900633" lon="13.4653917"><ele>922.0</ele><time>2026-04-25T14:15:48.956Z</time></trkpt><trkpt lat="46.39016" lon="13.4653483"><ele>922.0</ele><time>2026-04-25T14:15:49.957Z</time></trkpt><trkpt lat="46.390245" lon="13.465275"><ele>922.0</ele><time>2026-04-25T14:15:50.957Z</time></trkpt><trkpt lat="46.3903517" lon="13.4651333"><ele>922.0</ele><time>2026-04-25T14:15:51.957Z</time></trkpt><trkpt lat="46.3904617" lon="13.464925"><ele>919.3333333333333</ele><time>2026-04-25T14:15:52.957Z</time></trkpt><trkpt lat="46.3905883" lon="13.4646983"><ele>916.6666666666667</ele><time>2026-04-25T14:15:53.957Z</time></trkpt><trkpt lat="46.390725" lon="13.4645083"><ele>914.0</ele><time>2026-04-25T14:15:54.956Z</time></trkpt><trkpt lat="46.3908667" lon="13.4643467"><ele>914.0</ele><time>2026-04-25T14:15:55.956Z</time></trkpt><trkpt lat="46.3910133" lon="13.4641617"><ele>914.0</ele><time>2026-04-25T14:15:56.957Z</time></trkpt><trkpt lat="46.3911767" lon="13.4640033"><ele>914.0</ele><time>2026-04-25T14:15:57.957Z</time></trkpt><trkpt lat="46.3913433" lon="13.4638467"><ele>916.0</ele><time>2026-04-25T14:15:58.957Z</time></trkpt><trkpt lat="46.3915083" lon="13.4637"><ele>918.0</ele><time>2026-04-25T14:15:59.956Z</time></trkpt><trkpt lat="46.3916667" lon="13.46357"><ele>920.0</ele><time>2026-04-25T14:16:00.955Z</time></trkpt><trkpt lat="46.3918417" lon="13.4634667"><ele>920.0</ele><time>2026-04-25T14:16:01.956Z</time></trkpt><trkpt lat="46.39202" lon="13.463385"><ele>920.0</ele><time>2026-04-25T14:16:02.956Z</time></trkpt><trkpt lat="46.39219" lon="13.463285"><ele>920.0</ele><time>2026-04-25T14:16:03.957Z</time></trkpt><trkpt lat="46.392355" lon="13.4631783"><ele>922.0</ele><time>2026-04-25T14:16:04.957Z</time></trkpt><trkpt lat="46.3925267" lon="13.4630483"><ele>924.0</ele><time>2026-04-25T14:16:05.956Z</time></trkpt><trkpt lat="46.3926967" lon="13.4629383"><ele>926.0</ele><time>2026-04-25T14:16:06.956Z</time></trkpt><trkpt lat="46.3928517" lon="13.4628117"><ele>926.0</ele><time>2026-04-25T14:16:07.957Z</time></trkpt><trkpt lat="46.3929967" lon="13.462685"><ele>926.0</ele><time>2026-04-25T14:16:08.956Z</time></trkpt><trkpt lat="46.3931283" lon="13.4625433"><ele>926.0</ele><time>2026-04-25T14:16:09.957Z</time></trkpt><trkpt lat="46.3932333" lon="13.4623733"><ele>928.5</ele><time>2026-04-25T14:16:10.957Z</time></trkpt><trkpt lat="46.3933233" lon="13.4621833"><ele>931.0</ele><time>2026-04-25T14:16:11.956Z</time></trkpt><trkpt lat="46.3934083" lon="13.46202"><ele>933.5</ele><time>2026-04-25T14:16:12.955Z</time></trkpt><trkpt lat="46.393485" lon="13.46187"><ele>936.0</ele><time>2026-04-25T14:16:13.957Z</time></trkpt><trkpt lat="46.3935567" lon="13.461745"><ele>936.0</ele><time>2026-04-25T14:16:14.957Z</time></trkpt><trkpt lat="46.3936233" lon="13.4616433"><ele>936.0</ele><time>2026-04-25T14:16:15.957Z</time></trkpt><trkpt lat="46.3936783" lon="13.4615617"><ele>936.0</ele><time>2026-04-25T14:16:16.957Z</time></trkpt><trkpt lat="46.393735" lon="13.4615067"><ele>936.0</ele><time>2026-04-25T14:16:17.956Z</time></trkpt><trkpt lat="46.393795" lon="13.4614633"><ele>936.0</ele><time>2026-04-25T14:16:18.957Z</time></trkpt><trkpt lat="46.3939133" lon="13.4614133"><ele>936.0</ele><time>2026-04-25T14:16:20.956Z</time></trkpt><trkpt lat="46.3940267" lon="13.4613617"><ele>936.0</ele><time>2026-04-25T14:16:22.956Z</time></trkpt><trkpt lat="46.39409" lon="13.4613383"><ele>936.0</ele><time>2026-04-25T14:16:23.956Z</time></trkpt><trkpt lat="46.3941517" lon="13.4613133"><ele>936.0</ele><time>2026-04-25T14:16:24.956Z</time></trkpt><trkpt lat="46.3938083" lon="13.4616"><ele>936.0</ele><time>2026-04-25T14:16:26.956Z</time></trkpt><trkpt lat="46.3936933" lon="13.4619933"><ele>936.0</ele><time>2026-04-25T14:16:27.957Z</time></trkpt><trkpt lat="46.3935683" lon="13.4622533"><ele>947.6666666666667</ele><time>2026-04-25T14:16:28.957Z</time></trkpt><trkpt lat="46.3934867" lon="13.4624633"><ele>959.3333333333334</ele><time>2026-04-25T14:16:29.956Z</time></trkpt><trkpt lat="46.3934083" lon="13.462635"><ele>971.0</ele><time>2026-04-25T14:16:30.957Z</time></trkpt><trkpt lat="46.393325" lon="13.4628117"><ele>966.0</ele><time>2026-04-25T14:16:31.956Z</time></trkpt><trkpt lat="46.393235" lon="13.4629633"><ele>961.0</ele><time>2026-04-25T14:16:32.956Z</time></trkpt><trkpt lat="46.3931367" lon="13.4631133"><ele>956.0</ele><time>2026-04-25T14:16:33.957Z</time></trkpt><trkpt lat="46.3930283" lon="13.463265"><ele>951.0</ele><time>2026-04-25T14:16:34.957Z</time></trkpt><trkpt lat="46.3929167" lon="13.4634283"><ele>951.0</ele><time>2026-04-25T14:16:35.956Z</time></trkpt><trkpt lat="46.3927967" lon="13.4636017"><ele>951.0</ele><time>2026-04-25T14:16:36.956Z</time></trkpt><trkpt lat="46.39267" lon="13.463775"><ele>951.0</ele><time>2026-04-25T14:16:37.957Z</time></trkpt><trkpt lat="46.392545" lon="13.4639467"><ele>951.3333333333333</ele><time>2026-04-25T14:16:38.955Z</time></trkpt><trkpt lat="46.39241" lon="13.4641117"><ele>951.6666666666666</ele><time>2026-04-25T14:16:39.956Z</time></trkpt><trkpt lat="46.3922717" lon="13.4642683"><ele>952.0</ele><time>2026-04-25T14:16:40.957Z</time></trkpt><trkpt lat="46.3921317" lon="13.4644283"><ele>952.0</ele><time>2026-04-25T14:16:41.956Z</time></trkpt><trkpt lat="46.3919917" lon="13.4645883"><ele>952.0</ele><time>2026-04-25T14:16:42.956Z</time></trkpt><trkpt lat="46.3918517" lon="13.4647617"><ele>952.0</ele><time>2026-04-25T14:16:43.957Z</time></trkpt><trkpt lat="46.39171" lon="13.4649367"><ele>961.0</ele><time>2026-04-25T14:16:44.959Z</time></trkpt><trkpt lat="46.39158" lon="13.4651233"><ele>970.0</ele><time>2026-04-25T14:16:45.956Z</time></trkpt><trkpt lat="46.3914533" lon="13.465315"><ele>979.0</ele><time>2026-04-25T14:16:46.956Z</time></trkpt><trkpt lat="46.3913367" lon="13.4655067"><ele>979.0</ele><time>2026-04-25T14:16:47.956Z</time></trkpt><trkpt lat="46.3912283" lon="13.4657133"><ele>979.0</ele><time>2026-04-25T14:16:48.956Z</time></trkpt><trkpt lat="46.39112" lon="13.465925"><ele>979.0</ele><time>2026-04-25T14:16:49.957Z</time></trkpt><trkpt lat="46.3910133" lon="13.4661417"><ele>987.6666666666666</ele><time>2026-04-25T14:16:50.957Z</time></trkpt><trkpt lat="46.3909167" lon="13.466345"><ele>996.3333333333333</ele><time>2026-04-25T14:16:51.957Z</time></trkpt><trkpt lat="46.3908267" lon="13.4665383"><ele>1005.0</ele><time>2026-04-25T14:16:52.957Z</time></trkpt><trkpt lat="46.39075" lon="13.46675"><ele>1005.0</ele><time>2026-04-25T14:16:53.955Z</time></trkpt><trkpt lat="46.3906917" lon="13.46694"><ele>1005.0</ele><time>2026-04-25T14:16:54.957Z</time></trkpt><trkpt lat="46.3906333" lon="13.4671333"><ele>1005.0</ele><time>2026-04-25T14:16:55.955Z</time></trkpt><trkpt lat="46.39056" lon="13.4672983"><ele>1005.0</ele><time>2026-04-25T14:16:56.956Z</time></trkpt><trkpt lat="46.390495" lon="13.4674633"><ele>1001.75</ele><time>2026-04-25T14:16:57.957Z</time></trkpt><trkpt lat="46.3904367" lon="13.4676267"><ele>998.5</ele><time>2026-04-25T14:16:58.956Z</time></trkpt><trkpt lat="46.390395" lon="13.4677983"><ele>995.25</ele><time>2026-04-25T14:16:59.956Z</time></trkpt><trkpt lat="46.3903717" lon="13.4679833"><ele>992.0</ele><time>2026-04-25T14:17:00.955Z</time></trkpt><trkpt lat="46.3903317" lon="13.4681633"><ele>999.5</ele><time>2026-04-25T14:17:01.956Z</time></trkpt><trkpt lat="46.3902683" lon="13.4683367"><ele>1007.0</ele><time>2026-04-25T14:17:02.955Z</time></trkpt><trkpt lat="46.39019" lon="13.4685"><ele>1014.5</ele><time>2026-04-25T14:17:03.956Z</time></trkpt><trkpt lat="46.3901083" lon="13.4686433"><ele>1022.0</ele><time>2026-04-25T14:17:04.957Z</time></trkpt><trkpt lat="46.3900233" lon="13.46877"><ele>1027.4</ele><time>2026-04-25T14:17:05.956Z</time></trkpt><trkpt lat="46.38995" lon="13.468865"><ele>1032.8000000000002</ele><time>2026-04-25T14:17:06.957Z</time></trkpt><trkpt lat="46.3898983" lon="13.4689567"><ele>1038.2</ele><time>2026-04-25T14:17:07.956Z</time></trkpt><trkpt lat="46.3898583" lon="13.4690433"><ele>1043.6000000000001</ele><time>2026-04-25T14:17:08.955Z</time></trkpt><trkpt lat="46.38983" lon="13.469125"><ele>1049.0</ele><time>2026-04-25T14:17:09.956Z</time></trkpt><trkpt lat="46.3899683" lon="13.46898"><ele>1049.0</ele><time>2026-04-25T14:17:13.957Z</time></trkpt><trkpt lat="46.39005" lon="13.4688333"><ele>1049.0</ele><time>2026-04-25T14:17:14.956Z</time></trkpt><trkpt lat="46.3901433" lon="13.4686767"><ele>1049.0</ele><time>2026-04-25T14:17:15.957Z</time></trkpt><trkpt lat="46.3902433" lon="13.46856"><ele>1049.0</ele><time>2026-04-25T14:17:16.956Z</time></trkpt><trkpt lat="46.39033" lon="13.4684283"><ele>1054.25</ele><time>2026-04-25T14:17:17.956Z</time></trkpt><trkpt lat="46.3904167" lon="13.4682917"><ele>1059.5</ele><time>2026-04-25T14:17:18.956Z</time></trkpt><trkpt lat="46.3904867" lon="13.46815"><ele>1064.75</ele><time>2026-04-25T14:17:19.956Z</time></trkpt><trkpt lat="46.3905417" lon="13.4680217"><ele>1070.0</ele><time>2026-04-25T14:17:20.957Z</time></trkpt><trkpt lat="46.39059" lon="13.4678967"><ele>1061.6</ele><time>2026-04-25T14:17:21.956Z</time></trkpt><trkpt lat="46.3906383" lon="13.4677867"><ele>1053.2</ele><time>2026-04-25T14:17:22.956Z</time></trkpt><trkpt lat="46.3906933" lon="13.467685"><ele>1044.8</ele><time>2026-04-25T14:17:23.955Z</time></trkpt><trkpt lat="46.3907583" lon="13.46759"><ele>1036.4</ele><time>2026-04-25T14:17:24.957Z</time></trkpt><trkpt lat="46.39086" lon="13.4675367"><ele>1028.0</ele><time>2026-04-25T14:17:25.956Z</time></trkpt><trkpt lat="46.390955" lon="13.4674267"><ele>1028.0</ele><time>2026-04-25T14:17:26.956Z</time></trkpt><trkpt lat="46.39102" lon="13.4672667"><ele>1028.0</ele><time>2026-04-25T14:17:27.957Z</time></trkpt><trkpt lat="46.3910817" lon="13.4671033"><ele>1028.0</ele><time>2026-04-25T14:17:28.956Z</time></trkpt><trkpt lat="46.3911633" lon="13.4669517"><ele>1028.0</ele><time>2026-04-25T14:17:29.957Z</time></trkpt><trkpt lat="46.3912583" lon="13.466795"><ele>1033.3333333333335</ele><time>2026-04-25T14:17:30.957Z</time></trkpt><trkpt lat="46.39137" lon="13.4666467"><ele>1038.6666666666667</ele><time>2026-04-25T14:17:31.957Z</time></trkpt><trkpt lat="46.39149" lon="13.4664967"><ele>1044.0</ele><time>2026-04-25T14:17:32.956Z</time></trkpt><trkpt lat="46.3916133" lon="13.4663333"><ele>1037.25</ele><time>2026-04-25T14:17:33.957Z</time></trkpt><trkpt lat="46.3917367" lon="13.4661917"><ele>1030.5</ele><time>2026-04-25T14:17:34.957Z</time></trkpt><trkpt lat="46.3918583" lon="13.4660617"><ele>1023.75</ele><time>2026-04-25T14:17:35.956Z</time></trkpt><trkpt lat="46.3919783" lon="13.4659683"><ele>1017.0</ele><time>2026-04-25T14:17:36.957Z</time></trkpt><trkpt lat="46.3920783" lon="13.46587"><ele>1017.0</ele><time>2026-04-25T14:17:37.957Z</time></trkpt><trkpt lat="46.3921617" lon="13.4657817"><ele>1017.0</ele><time>2026-04-25T14:17:38.957Z</time></trkpt><trkpt lat="46.3922383" lon="13.4657133"><ele>1017.0</ele><time>2026-04-25T14:17:39.956Z</time></trkpt><trkpt lat="46.3923083" lon="13.4656717"><ele>1017.0</ele><time>2026-04-25T14:17:40.957Z</time></trkpt><trkpt lat="46.3923767" lon="13.4656933"><ele>1017.0</ele><time>2026-04-25T14:17:41.957Z</time></trkpt><trkpt lat="46.3924267" lon="13.46575"><ele>1017.0</ele><time>2026-04-25T14:17:42.956Z</time></trkpt><trkpt lat="46.3925183" lon="13.4658767"><ele>1017.0</ele><time>2026-04-25T14:17:44.958Z</time></trkpt><trkpt lat="46.3925733" lon="13.4660117"><ele>1017.0</ele><time>2026-04-25T14:17:46.957Z</time></trkpt><trkpt lat="46.3922583" lon="13.466065"><ele>1017.0</ele><time>2026-04-25T14:17:47.955Z</time></trkpt><trkpt lat="46.3921367" lon="13.46617"><ele>1023.75</ele><time>2026-04-25T14:17:48.956Z</time></trkpt><trkpt lat="46.3920233" lon="13.466295"><ele>1030.5</ele><time>2026-04-25T14:17:49.958Z</time></trkpt><trkpt lat="46.391915" lon="13.4664333"><ele>1037.25</ele><time>2026-04-25T14:17:50.957Z</time></trkpt><trkpt lat="46.391825" lon="13.466565"><ele>1044.0</ele><time>2026-04-25T14:17:51.958Z</time></trkpt><trkpt lat="46.39174" lon="13.466705"><ele>1044.0</ele><time>2026-04-25T14:17:52.958Z</time></trkpt><trkpt lat="46.3916517" lon="13.46684"><ele>1044.0</ele><time>2026-04-25T14:17:53.958Z</time></trkpt><trkpt lat="46.391575" lon="13.4669567"><ele>1044.0</ele><time>2026-04-25T14:17:54.956Z</time></trkpt><trkpt lat="46.3915117" lon="13.46707"><ele>1044.0</ele><time>2026-04-25T14:17:55.956Z</time></trkpt><trkpt lat="46.391455" lon="13.467165"><ele>1044.0</ele><time>2026-04-25T14:17:56.956Z</time></trkpt><trkpt lat="46.391405" lon="13.46725"><ele>1041.3333333333333</ele><time>2026-04-25T14:17:57.957Z</time></trkpt><trkpt lat="46.3913667" lon="13.4673333"><ele>1038.6666666666667</ele><time>2026-04-25T14:17:58.959Z</time></trkpt><trkpt lat="46.39132" lon="13.4674783"><ele>1036.0</ele><time>2026-04-25T14:18:00.958Z</time></trkpt><trkpt lat="46.3913433" lon="13.46759"><ele>1033.3333333333335</ele><time>2026-04-25T14:18:02.957Z</time></trkpt><trkpt lat="46.3914433" lon="13.4675317"><ele>1030.6666666666667</ele><time>2026-04-25T14:18:04.957Z</time></trkpt><trkpt lat="46.391485" lon="13.4674517"><ele>1028.0</ele><time>2026-04-25T14:18:05.957Z</time></trkpt><trkpt lat="46.39152" lon="13.4673483"><ele>1031.2</ele><time>2026-04-25T14:18:06.956Z</time></trkpt><trkpt lat="46.39157" lon="13.4672267"><ele>1034.4</ele><time>2026-04-25T14:18:07.957Z</time></trkpt><trkpt lat="46.3916317" lon="13.4671133"><ele>1037.6000000000001</ele><time>2026-04-25T14:18:08.957Z</time></trkpt><trkpt lat="46.3917" lon="13.4669883"><ele>1040.8</ele><time>2026-04-25T14:18:09.957Z</time></trkpt><trkpt lat="46.3917783" lon="13.466875"><ele>1044.0</ele><time>2026-04-25T14:18:10.957Z</time></trkpt><trkpt lat="46.3918567" lon="13.466775"><ele>1044.0</ele><time>2026-04-25T14:18:11.957Z</time></trkpt><trkpt lat="46.3919333" lon="13.46668"><ele>1044.0</ele><time>2026-04-25T14:18:12.956Z</time></trkpt><trkpt lat="46.3920117" lon="13.4665967"><ele>1044.0</ele><time>2026-04-25T14:18:13.956Z</time></trkpt><trkpt lat="46.3920833" lon="13.4665233"><ele>1044.0</ele><time>2026-04-25T14:18:14.956Z</time></trkpt><trkpt lat="46.39215" lon="13.4664583"><ele>1044.0</ele><time>2026-04-25T14:18:15.96Z</time></trkpt><trkpt lat="46.39221" lon="13.4664"><ele>1044.0</ele><time>2026-04-25T14:18:16.955Z</time></trkpt><trkpt lat="46.3923083" lon="13.466305"><ele>1052.3333333333333</ele><time>2026-04-25T14:18:18.957Z</time></trkpt><trkpt lat="46.3923733" lon="13.4662483"><ele>1060.6666666666667</ele><time>2026-04-25T14:18:20.957Z</time></trkpt><trkpt lat="46.392435" lon="13.4661583"><ele>1069.0</ele><time>2026-04-25T14:18:23.957Z</time></trkpt><trkpt lat="46.3924867" lon="13.4660733"><ele>1077.3333333333335</ele><time>2026-04-25T14:18:25.958Z</time></trkpt><trkpt lat="46.3925783" lon="13.4660383"><ele>1085.6666666666667</ele><time>2026-04-25T14:18:28.958Z</time></trkpt><trkpt lat="46.392655" lon="13.4660433"><ele>1094.0</ele><time>2026-04-25T14:18:31.957Z</time></trkpt><trkpt lat="46.392705" lon="13.46613"><ele>1115.3333333333335</ele><time>2026-04-25T14:18:34.957Z</time></trkpt><trkpt lat="46.39257" lon="13.466355"><ele>1136.6666666666667</ele><time>2026-04-25T14:18:37.956Z</time></trkpt><trkpt lat="46.39239" lon="13.4663883"><ele>1158.0</ele><time>2026-04-25T14:18:38.956Z</time></trkpt><trkpt lat="46.3923017" lon="13.4664183"><ele>1158.0</ele><time>2026-04-25T14:18:39.957Z</time></trkpt><trkpt lat="46.3922317" lon="13.4664733"><ele>1158.0</ele><time>2026-04-25T14:18:40.956Z</time></trkpt><trkpt lat="46.3921733" lon="13.4665283"><ele>1158.0</ele><time>2026-04-25T14:18:41.955Z</time></trkpt><trkpt lat="46.39208" lon="13.46664"><ele>1158.0</ele><time>2026-04-25T14:18:43.957Z</time></trkpt><trkpt lat="46.3919917" lon="13.4667617"><ele>1158.0</ele><time>2026-04-25T14:18:45.957Z</time></trkpt><trkpt lat="46.39191" lon="13.4668967"><ele>1148.6</ele><time>2026-04-25T14:18:47.956Z</time></trkpt><trkpt lat="46.39184" lon="13.46703"><ele>1139.1999999999998</ele><time>2026-04-25T14:18:49.956Z</time></trkpt><trkpt lat="46.3917883" lon="13.4671617"><ele>1129.8</ele><time>2026-04-25T14:18:51.957Z</time></trkpt><trkpt lat="46.391745" lon="13.467315"><ele>1120.3999999999999</ele><time>2026-04-25T14:18:53.958Z</time></trkpt><trkpt lat="46.3917317" lon="13.4674533"><ele>1111.0</ele><time>2026-04-25T14:18:55.957Z</time></trkpt><trkpt lat="46.39171" lon="13.467575"><ele>1111.0</ele><time>2026-04-25T14:18:57.957Z</time></trkpt><trkpt lat="46.391715" lon="13.4677583"><ele>1111.0</ele><time>2026-04-25T14:18:59.957Z</time></trkpt><trkpt lat="46.3917017" lon="13.4678733"><ele>1111.0</ele><time>2026-04-25T14:19:00.957Z</time></trkpt><trkpt lat="46.391685" lon="13.4680017"><ele>1111.0</ele><time>2026-04-25T14:19:01.957Z</time></trkpt><trkpt lat="46.39166" lon="13.46812"><ele>1111.0</ele><time>2026-04-25T14:19:02.955Z</time></trkpt><trkpt lat="46.3916467" lon="13.468245"><ele>1117.8</ele><time>2026-04-25T14:19:03.957Z</time></trkpt><trkpt lat="46.3916317" lon="13.4683383"><ele>1124.6</ele><time>2026-04-25T14:19:04.958Z</time></trkpt><trkpt lat="46.3916117" lon="13.4684283"><ele>1131.4</ele><time>2026-04-25T14:19:05.955Z</time></trkpt><trkpt lat="46.3915933" lon="13.4685233"><ele>1138.2</ele><time>2026-04-25T14:19:06.957Z</time></trkpt><trkpt lat="46.391575" lon="13.4686217"><ele>1145.0</ele><time>2026-04-25T14:19:07.958Z</time></trkpt><trkpt lat="46.39136" lon="13.46886"><ele>1133.75</ele><time>2026-04-25T14:19:11.958Z</time></trkpt><trkpt lat="46.3912183" lon="13.46891"><ele>1122.5</ele><time>2026-04-25T14:19:12.958Z</time></trkpt><trkpt lat="46.39107" lon="13.46898"><ele>1111.25</ele><time>2026-04-25T14:19:13.957Z</time></trkpt><trkpt lat="46.390975" lon="13.46906"><ele>1100.0</ele><time>2026-04-25T14:19:14.957Z</time></trkpt><trkpt lat="46.3909133" lon="13.46916"><ele>1100.0</ele><time>2026-04-25T14:19:15.957Z</time></trkpt><trkpt lat="46.39086" lon="13.4692833"><ele>1100.0</ele><time>2026-04-25T14:19:16.957Z</time></trkpt><trkpt lat="46.39082" lon="13.469425"><ele>1100.0</ele><time>2026-04-25T14:19:17.957Z</time></trkpt><trkpt lat="46.3907883" lon="13.46957"><ele>1100.0</ele><time>2026-04-25T14:19:18.956Z</time></trkpt><trkpt lat="46.390745" lon="13.469715"><ele>1100.0</ele><time>2026-04-25T14:19:19.956Z</time></trkpt><trkpt lat="46.3906933" lon="13.4698533"><ele>1103.1666666666667</ele><time>2026-04-25T14:19:20.956Z</time></trkpt><trkpt lat="46.3906433" lon="13.4699667"><ele>1106.3333333333335</ele><time>2026-04-25T14:19:21.957Z</time></trkpt><trkpt lat="46.3905967" lon="13.470065"><ele>1109.5</ele><time>2026-04-25T14:19:22.957Z</time></trkpt><trkpt lat="46.3905483" lon="13.4701583"><ele>1112.6666666666667</ele><time>2026-04-25T14:19:23.958Z</time></trkpt><trkpt lat="46.3905033" lon="13.4702433"><ele>1115.8333333333333</ele><time>2026-04-25T14:19:24.956Z</time></trkpt><trkpt lat="46.3904617" lon="13.4703283"><ele>1119.0</ele><time>2026-04-25T14:19:25.957Z</time></trkpt><trkpt lat="46.3904217" lon="13.470415"><ele>1118.0</ele><time>2026-04-25T14:19:26.956Z</time></trkpt><trkpt lat="46.3903783" lon="13.4704917"><ele>1117.0</ele><time>2026-04-25T14:19:27.958Z</time></trkpt><trkpt lat="46.3903333" lon="13.470565"><ele>1116.0</ele><time>2026-04-25T14:19:28.956Z</time></trkpt><trkpt lat="46.3902883" lon="13.4706383"><ele>1115.0</ele><time>2026-04-25T14:19:29.957Z</time></trkpt><trkpt lat="46.3902383" lon="13.4707"><ele>1114.0</ele><time>2026-04-25T14:19:30.956Z</time></trkpt><trkpt lat="46.39018" lon="13.470755"><ele>1113.0</ele><time>2026-04-25T14:19:31.956Z</time></trkpt><trkpt lat="46.3901183" lon="13.4708067"><ele>1112.0</ele><time>2026-04-25T14:19:32.955Z</time></trkpt><trkpt lat="46.3900517" lon="13.4708583"><ele>1112.0</ele><time>2026-04-25T14:19:33.957Z</time></trkpt><trkpt lat="46.38999" lon="13.4709083"><ele>1112.0</ele><time>2026-04-25T14:19:34.957Z</time></trkpt><trkpt lat="46.3899367" lon="13.4709717"><ele>1112.0</ele><time>2026-04-25T14:19:35.956Z</time></trkpt><trkpt lat="46.389885" lon="13.4710417"><ele>1112.0</ele><time>2026-04-25T14:19:36.957Z</time></trkpt><trkpt lat="46.3898317" lon="13.4711183"><ele>1112.0</ele><time>2026-04-25T14:19:37.957Z</time></trkpt><trkpt lat="46.389775" lon="13.4711967"><ele>1112.0</ele><time>2026-04-25T14:19:38.956Z</time></trkpt><trkpt lat="46.3897117" lon="13.4712817"><ele>1114.5</ele><time>2026-04-25T14:19:39.957Z</time></trkpt><trkpt lat="46.3896467" lon="13.4713617"><ele>1117.0</ele><time>2026-04-25T14:19:40.957Z</time></trkpt><trkpt lat="46.3895733" lon="13.47144"><ele>1119.5</ele><time>2026-04-25T14:19:41.957Z</time></trkpt><trkpt lat="46.389505" lon="13.471505"><ele>1122.0</ele><time>2026-04-25T14:19:42.957Z</time></trkpt><trkpt lat="46.38943" lon="13.4715533"><ele>1124.5</ele><time>2026-04-25T14:19:43.957Z</time></trkpt><trkpt lat="46.3893517" lon="13.4715917"><ele>1127.0</ele><time>2026-04-25T14:19:44.957Z</time></trkpt><trkpt lat="46.3892667" lon="13.47162"><ele>1127.0</ele><time>2026-04-25T14:19:45.957Z</time></trkpt><trkpt lat="46.3891783" lon="13.4716317"><ele>1127.0</ele><time>2026-04-25T14:19:46.957Z</time></trkpt><trkpt lat="46.3890933" lon="13.47164"><ele>1127.0</ele><time>2026-04-25T14:19:47.957Z</time></trkpt><trkpt lat="46.3890067" lon="13.4716433"><ele>1127.0</ele><time>2026-04-25T14:19:48.957Z</time></trkpt><trkpt lat="46.388925" lon="13.47164"><ele>1127.0</ele><time>2026-04-25T14:19:49.957Z</time></trkpt><trkpt lat="46.3888483" lon="13.4716467"><ele>1127.0</ele><time>2026-04-25T14:19:50.956Z</time></trkpt><trkpt lat="46.38877" lon="13.4716417"><ele>1127.2857142857142</ele><time>2026-04-25T14:19:51.957Z</time></trkpt><trkpt lat="46.388695" lon="13.4716417"><ele>1127.5714285714284</ele><time>2026-04-25T14:19:52.957Z</time></trkpt><trkpt lat="46.3886217" lon="13.4716333"><ele>1127.857142857143</ele><time>2026-04-25T14:19:53.957Z</time></trkpt><trkpt lat="46.3885467" lon="13.47163"><ele>1128.142857142857</ele><time>2026-04-25T14:19:54.956Z</time></trkpt><trkpt lat="46.3884717" lon="13.4716317"><ele>1128.4285714285713</ele><time>2026-04-25T14:19:55.957Z</time></trkpt><trkpt lat="46.3883983" lon="13.47163"><ele>1128.7142857142858</ele><time>2026-04-25T14:19:56.957Z</time></trkpt><trkpt lat="46.3883333" lon="13.4716317"><ele>1129.0</ele><time>2026-04-25T14:19:57.956Z</time></trkpt><trkpt lat="46.3882683" lon="13.4716267"><ele>1129.0</ele><time>2026-04-25T14:19:58.958Z</time></trkpt><trkpt lat="46.3881567" lon="13.4715983"><ele>1129.0</ele><time>2026-04-25T14:20:00.957Z</time></trkpt><trkpt lat="46.3880633" lon="13.471535"><ele>1129.0</ele><time>2026-04-25T14:20:02.957Z</time></trkpt><trkpt lat="46.3879833" lon="13.47147"><ele>1129.0</ele><time>2026-04-25T14:20:04.957Z</time></trkpt><trkpt lat="46.3879183" lon="13.471425"><ele>1129.0</ele><time>2026-04-25T14:20:06.957Z</time></trkpt><trkpt lat="46.3878467" lon="13.4714133"><ele>1130.6000000000001</ele><time>2026-04-25T14:20:08.957Z</time></trkpt><trkpt lat="46.387765" lon="13.47149"><ele>1132.2</ele><time>2026-04-25T14:20:11.957Z</time></trkpt><trkpt lat="46.3877483" lon="13.471595"><ele>1133.8000000000002</ele><time>2026-04-25T14:20:13.956Z</time></trkpt><trkpt lat="46.387825" lon="13.4717"><ele>1135.4</ele><time>2026-04-25T14:20:15.957Z</time></trkpt><trkpt lat="46.3879283" lon="13.4717933"><ele>1137.0</ele><time>2026-04-25T14:20:17.956Z</time></trkpt><trkpt lat="46.3879917" lon="13.4718433"><ele>1137.8571428571427</ele><time>2026-04-25T14:20:18.957Z</time></trkpt><trkpt lat="46.38805" lon="13.4718967"><ele>1138.7142857142858</ele><time>2026-04-25T14:20:19.957Z</time></trkpt><trkpt lat="46.388105" lon="13.4719583"><ele>1139.5714285714284</ele><time>2026-04-25T14:20:20.955Z</time></trkpt><trkpt lat="46.3881617" lon="13.4720283"><ele>1140.4285714285713</ele><time>2026-04-25T14:20:21.956Z</time></trkpt><trkpt lat="46.3882117" lon="13.4721067"><ele>1141.2857142857142</ele><time>2026-04-25T14:20:22.956Z</time></trkpt><trkpt lat="46.38826" lon="13.4721833"><ele>1142.142857142857</ele><time>2026-04-25T14:20:23.957Z</time></trkpt><trkpt lat="46.3883" lon="13.472255"><ele>1143.0</ele><time>2026-04-25T14:20:24.957Z</time></trkpt><trkpt lat="46.3883583" lon="13.47238"><ele>1143.0</ele><time>2026-04-25T14:20:26.957Z</time></trkpt><trkpt lat="46.38843" lon="13.4724833"><ele>1143.0</ele><time>2026-04-25T14:20:28.958Z</time></trkpt><trkpt lat="46.3885117" lon="13.472555"><ele>1143.0</ele><time>2026-04-25T14:20:30.957Z</time></trkpt><trkpt lat="46.3885917" lon="13.4726183"><ele>1143.0</ele><time>2026-04-25T14:20:32.957Z</time></trkpt><trkpt lat="46.388695" lon="13.4726767"><ele>1143.0</ele><time>2026-04-25T14:20:34.957Z</time></trkpt><trkpt lat="46.38881" lon="13.4727083"><ele>1142.0</ele><time>2026-04-25T14:20:36.957Z</time></trkpt><trkpt lat="46.3889183" lon="13.47271"><ele>1141.0</ele><time>2026-04-25T14:20:38.956Z</time></trkpt><trkpt lat="46.3890283" lon="13.472725"><ele>1140.0</ele><time>2026-04-25T14:20:40.958Z</time></trkpt><trkpt lat="46.3890933" lon="13.4727383"><ele>1139.0</ele><time>2026-04-25T14:20:41.957Z</time></trkpt><trkpt lat="46.3892117" lon="13.4727767"><ele>1138.0</ele><time>2026-04-25T14:20:43.957Z</time></trkpt><trkpt lat="46.3893333" lon="13.4728367"><ele>1138.0</ele><time>2026-04-25T14:20:45.956Z</time></trkpt><trkpt lat="46.3893933" lon="13.4728783"><ele>1138.0</ele><time>2026-04-25T14:20:46.957Z</time></trkpt><trkpt lat="46.3894517" lon="13.4729133"><ele>1138.0</ele><time>2026-04-25T14:20:47.957Z</time></trkpt><trkpt lat="46.3895667" lon="13.4729817"><ele>1138.0</ele><time>2026-04-25T14:20:49.956Z</time></trkpt><trkpt lat="46.3896267" lon="13.4730133"><ele>1138.0</ele><time>2026-04-25T14:20:50.956Z</time></trkpt><trkpt lat="46.3897367" lon="13.4730667"><ele>1138.0</ele><time>2026-04-25T14:20:52.956Z</time></trkpt><trkpt lat="46.38986" lon="13.4730917"><ele>1140.0</ele><time>2026-04-25T14:20:54.957Z</time></trkpt><trkpt lat="46.3899317" lon="13.4730883"><ele>1142.0</ele><time>2026-04-25T14:20:55.956Z</time></trkpt><trkpt lat="46.3900117" lon="13.473075"><ele>1144.0</ele><time>2026-04-25T14:20:56.957Z</time></trkpt><trkpt lat="46.3900933" lon="13.4730617"><ele>1146.0</ele><time>2026-04-25T14:20:57.955Z</time></trkpt><trkpt lat="46.3901833" lon="13.4730333"><ele>1148.0</ele><time>2026-04-25T14:20:58.957Z</time></trkpt><trkpt lat="46.3902833" lon="13.4729933"><ele>1150.0</ele><time>2026-04-25T14:20:59.956Z</time></trkpt><trkpt lat="46.3903883" lon="13.4729417"><ele>1149.6</ele><time>2026-04-25T14:21:00.955Z</time></trkpt><trkpt lat="46.390495" lon="13.4728833"><ele>1149.2</ele><time>2026-04-25T14:21:01.956Z</time></trkpt><trkpt lat="46.3906017" lon="13.4728317"><ele>1148.8</ele><time>2026-04-25T14:21:02.956Z</time></trkpt><trkpt lat="46.390705" lon="13.4727833"><ele>1148.4</ele><time>2026-04-25T14:21:03.957Z</time></trkpt><trkpt lat="46.3908067" lon="13.47273"><ele>1148.0</ele><time>2026-04-25T14:21:04.956Z</time></trkpt><trkpt lat="46.3909067" lon="13.4726717"><ele>1149.2</ele><time>2026-04-25T14:21:05.956Z</time></trkpt><trkpt lat="46.3910033" lon="13.4725983"><ele>1150.4</ele><time>2026-04-25T14:21:06.956Z</time></trkpt><trkpt lat="46.3910883" lon="13.4725083"><ele>1151.6000000000001</ele><time>2026-04-25T14:21:07.956Z</time></trkpt><trkpt lat="46.3911533" lon="13.4724033"><ele>1152.8</ele><time>2026-04-25T14:21:08.955Z</time></trkpt><trkpt lat="46.3912083" lon="13.4723017"><ele>1154.0</ele><time>2026-04-25T14:21:09.956Z</time></trkpt><trkpt lat="46.3912583" lon="13.47221"><ele>1154.0</ele><time>2026-04-25T14:21:10.956Z</time></trkpt><trkpt lat="46.3913067" lon="13.472135"><ele>1154.0</ele><time>2026-04-25T14:21:11.956Z</time></trkpt><trkpt lat="46.39142" lon="13.472115"><ele>1154.0</ele><time>2026-04-25T14:21:13.955Z</time></trkpt><trkpt lat="46.39146" lon="13.4722"><ele>1154.0</ele><time>2026-04-25T14:21:14.955Z</time></trkpt><trkpt lat="46.3914717" lon="13.4723017"><ele>1154.0</ele><time>2026-04-25T14:21:15.956Z</time></trkpt><trkpt lat="46.3914633" lon="13.47241"><ele>1154.0</ele><time>2026-04-25T14:21:16.955Z</time></trkpt><trkpt lat="46.3914283" lon="13.4725233"><ele>1155.0</ele><time>2026-04-25T14:21:17.954Z</time></trkpt><trkpt lat="46.391395" lon="13.4726517"><ele>1156.0</ele><time>2026-04-25T14:21:18.956Z</time></trkpt><trkpt lat="46.391365" lon="13.47279"><ele>1157.0</ele><time>2026-04-25T14:21:19.956Z</time></trkpt><trkpt lat="46.3913333" lon="13.4729417"><ele>1158.0</ele><time>2026-04-25T14:21:20.957Z</time></trkpt><trkpt lat="46.39129" lon="13.473105"><ele>1159.0</ele><time>2026-04-25T14:21:21.956Z</time></trkpt><trkpt lat="46.3912383" lon="13.4732617"><ele>1159.0</ele><time>2026-04-25T14:21:22.957Z</time></trkpt><trkpt lat="46.3911717" lon="13.473415"><ele>1159.0</ele><time>2026-04-25T14:21:23.956Z</time></trkpt><trkpt lat="46.3910983" lon="13.473565"><ele>1159.0</ele><time>2026-04-25T14:21:24.956Z</time></trkpt><trkpt lat="46.39104" lon="13.473715"><ele>1159.0</ele><time>2026-04-25T14:21:25.956Z</time></trkpt><trkpt lat="46.391" lon="13.4738667"><ele>1160.8</ele><time>2026-04-25T14:21:26.957Z</time></trkpt><trkpt lat="46.3909717" lon="13.4740183"><ele>1162.6000000000001</ele><time>2026-04-25T14:21:27.956Z</time></trkpt><trkpt lat="46.3909433" lon="13.4741733"><ele>1164.4</ele><time>2026-04-25T14:21:28.956Z</time></trkpt><trkpt lat="46.3909117" lon="13.4743083"><ele>1166.2</ele><time>2026-04-25T14:21:29.955Z</time></trkpt><trkpt lat="46.390865" lon="13.4744167"><ele>1168.0</ele><time>2026-04-25T14:21:30.956Z</time></trkpt><trkpt lat="46.390805" lon="13.47449"><ele>1168.0</ele><time>2026-04-25T14:21:31.956Z</time></trkpt><trkpt lat="46.39075" lon="13.4745683"><ele>1168.0</ele><time>2026-04-25T14:21:32.956Z</time></trkpt><trkpt lat="46.3907133" lon="13.4746483"><ele>1168.0</ele><time>2026-04-25T14:21:33.956Z</time></trkpt><trkpt lat="46.39069" lon="13.47474"><ele>1168.0</ele><time>2026-04-25T14:21:34.955Z</time></trkpt><trkpt lat="46.3906767" lon="13.474895"><ele>1168.0</ele><time>2026-04-25T14:21:36.956Z</time></trkpt><trkpt lat="46.390675" lon="13.4749883"><ele>1168.0</ele><time>2026-04-25T14:22:00.955Z</time></trkpt><trkpt lat="46.3905983" lon="13.4751667"><ele>1168.5</ele><time>2026-04-25T14:22:02.957Z</time></trkpt><trkpt lat="46.390545" lon="13.475285"><ele>1169.0</ele><time>2026-04-25T14:22:03.956Z</time></trkpt><trkpt lat="46.3904767" lon="13.4754383"><ele>1169.5</ele><time>2026-04-25T14:22:04.957Z</time></trkpt><trkpt lat="46.3904" lon="13.4755867"><ele>1170.0</ele><time>2026-04-25T14:22:05.957Z</time></trkpt><trkpt lat="46.3903167" lon="13.4757317"><ele>1170.0</ele><time>2026-04-25T14:22:06.956Z</time></trkpt><trkpt lat="46.3902217" lon="13.47586"><ele>1170.0</ele><time>2026-04-25T14:22:07.956Z</time></trkpt><trkpt lat="46.3901183" lon="13.4759667"><ele>1170.0</ele><time>2026-04-25T14:22:08.955Z</time></trkpt><trkpt lat="46.3900217" lon="13.4760517"><ele>1170.0</ele><time>2026-04-25T14:22:09.957Z</time></trkpt><trkpt lat="46.3899317" lon="13.47612"><ele>1170.0</ele><time>2026-04-25T14:22:10.957Z</time></trkpt><trkpt lat="46.3898483" lon="13.4761717"><ele>1170.0</ele><time>2026-04-25T14:22:11.956Z</time></trkpt><trkpt lat="46.3897733" lon="13.476215"><ele>1170.0</ele><time>2026-04-25T14:22:12.956Z</time></trkpt><trkpt lat="46.3897067" lon="13.4762533"><ele>1170.0</ele><time>2026-04-25T14:22:13.956Z</time></trkpt><trkpt lat="46.389645" lon="13.476285"><ele>1170.0</ele><time>2026-04-25T14:22:14.955Z</time></trkpt><trkpt lat="46.389585" lon="13.476315"><ele>1170.0</ele><time>2026-04-25T14:22:15.956Z</time></trkpt><trkpt lat="46.3894667" lon="13.4763433"><ele>1170.6666666666667</ele><time>2026-04-25T14:22:17.956Z</time></trkpt><trkpt lat="46.3893583" lon="13.4763617"><ele>1171.3333333333333</ele><time>2026-04-25T14:22:19.955Z</time></trkpt><trkpt lat="46.389335" lon="13.476455"><ele>1172.0</ele><time>2026-04-25T14:22:21.956Z</time></trkpt><trkpt lat="46.3893983" lon="13.476485"><ele>1172.6666666666665</ele><time>2026-04-25T14:22:23.955Z</time></trkpt><trkpt lat="46.3895033" lon="13.4764183"><ele>1173.3333333333333</ele><time>2026-04-25T14:22:25.957Z</time></trkpt><trkpt lat="46.3895717" lon="13.47638"><ele>1174.0</ele><time>2026-04-25T14:22:26.956Z</time></trkpt><trkpt lat="46.3896483" lon="13.47634"><ele>1173.3333333333333</ele><time>2026-04-25T14:22:27.955Z</time></trkpt><trkpt lat="46.3897317" lon="13.4763017"><ele>1172.6666666666665</ele><time>2026-04-25T14:22:28.957Z</time></trkpt><trkpt lat="46.389815" lon="13.4762667"><ele>1172.0</ele><time>2026-04-25T14:22:29.956Z</time></trkpt><trkpt lat="46.3898933" lon="13.4762283"><ele>1171.3333333333333</ele><time>2026-04-25T14:22:30.955Z</time></trkpt><trkpt lat="46.38997" lon="13.47619"><ele>1170.6666666666667</ele><time>2026-04-25T14:22:31.956Z</time></trkpt><trkpt lat="46.3900483" lon="13.4761433"><ele>1170.0</ele><time>2026-04-25T14:22:32.956Z</time></trkpt><trkpt lat="46.3901233" lon="13.4760967"><ele>1170.0</ele><time>2026-04-25T14:22:33.955Z</time></trkpt><trkpt lat="46.3901917" lon="13.4760367"><ele>1170.0</ele><time>2026-04-25T14:22:34.957Z</time></trkpt><trkpt lat="46.3902567" lon="13.4759733"><ele>1170.0</ele><time>2026-04-25T14:22:35.955Z</time></trkpt><trkpt lat="46.3903167" lon="13.4759017"><ele>1170.0</ele><time>2026-04-25T14:22:36.956Z</time></trkpt><trkpt lat="46.3903717" lon="13.4758233"><ele>1170.0</ele><time>2026-04-25T14:22:37.955Z</time></trkpt><trkpt lat="46.3904167" lon="13.4757333"><ele>1170.0</ele><time>2026-04-25T14:22:38.957Z</time></trkpt><trkpt lat="46.3904517" lon="13.4756417"><ele>1170.0</ele><time>2026-04-25T14:22:39.955Z</time></trkpt><trkpt lat="46.390485" lon="13.4755517"><ele>1170.0</ele><time>2026-04-25T14:22:40.955Z</time></trkpt><trkpt lat="46.39051" lon="13.4754617"><ele>1170.0</ele><time>2026-04-25T14:22:41.956Z</time></trkpt><trkpt lat="46.3905533" lon="13.4753283"><ele>1170.0</ele><time>2026-04-25T14:22:43.956Z</time></trkpt><trkpt lat="46.3905917" lon="13.475225"><ele>1170.0</ele><time>2026-04-25T14:22:45.956Z</time></trkpt><trkpt lat="46.39063" lon="13.4751067"><ele>1170.0</ele><time>2026-04-25T14:22:47.957Z</time></trkpt><trkpt lat="46.390665" lon="13.4749733"><ele>1170.0</ele><time>2026-04-25T14:22:49.957Z</time></trkpt><trkpt lat="46.3906933" lon="13.4748783"><ele>1170.0</ele><time>2026-04-25T14:22:51.957Z</time></trkpt><trkpt lat="46.390715" lon="13.4747583"><ele>1170.0</ele><time>2026-04-25T14:27:06.956Z</time></trkpt><trkpt lat="46.3907433" lon="13.47463"><ele>1170.0</ele><time>2026-04-25T14:27:08.957Z</time></trkpt><trkpt lat="46.390775" lon="13.4745267"><ele>1170.0</ele><time>2026-04-25T14:27:10.957Z</time></trkpt><trkpt lat="46.3908167" lon="13.4744433"><ele>1170.0</ele><time>2026-04-25T14:27:13.957Z</time></trkpt><trkpt lat="46.3908467" lon="13.47459"><ele>1170.0</ele><time>2026-04-25T14:27:17.956Z</time></trkpt><trkpt lat="46.3908217" lon="13.4747017"><ele>1170.0</ele><time>2026-04-25T14:27:18.957Z</time></trkpt><trkpt lat="46.3907983" lon="13.4748417"><ele>1170.0</ele><time>2026-04-25T14:27:19.957Z</time></trkpt><trkpt lat="46.3907633" lon="13.47503"><ele>1170.0</ele><time>2026-04-25T14:27:20.956Z</time></trkpt><trkpt lat="46.3907133" lon="13.47529"><ele>1171.3333333333333</ele><time>2026-04-25T14:27:21.958Z</time></trkpt><trkpt lat="46.3906617" lon="13.4755367"><ele>1172.6666666666665</ele><time>2026-04-25T14:27:22.958Z</time></trkpt><trkpt lat="46.3906" lon="13.4757717"><ele>1174.0</ele><time>2026-04-25T14:27:23.956Z</time></trkpt><trkpt lat="46.3905333" lon="13.4759833"><ele>1173.0</ele><time>2026-04-25T14:27:24.956Z</time></trkpt><trkpt lat="46.3904617" lon="13.4761683"><ele>1172.0</ele><time>2026-04-25T14:27:25.958Z</time></trkpt><trkpt lat="46.39039" lon="13.4763467"><ele>1171.0</ele><time>2026-04-25T14:27:26.957Z</time></trkpt><trkpt lat="46.3903383" lon="13.4765267"><ele>1170.0</ele><time>2026-04-25T14:27:27.958Z</time></trkpt><trkpt lat="46.3903067" lon="13.47672"><ele>1172.5</ele><time>2026-04-25T14:27:28.958Z</time></trkpt><trkpt lat="46.3902833" lon="13.4769183"><ele>1175.0</ele><time>2026-04-25T14:27:29.957Z</time></trkpt><trkpt lat="46.3902717" lon="13.4771083"><ele>1177.5</ele><time>2026-04-25T14:27:30.957Z</time></trkpt><trkpt lat="46.3902583" lon="13.477295"><ele>1180.0</ele><time>2026-04-25T14:27:31.957Z</time></trkpt><trkpt lat="46.3902467" lon="13.4774667"><ele>1180.25</ele><time>2026-04-25T14:27:32.957Z</time></trkpt><trkpt lat="46.3902383" lon="13.4776417"><ele>1180.5</ele><time>2026-04-25T14:27:33.956Z</time></trkpt><trkpt lat="46.3902217" lon="13.4778183"><ele>1180.75</ele><time>2026-04-25T14:27:34.957Z</time></trkpt><trkpt lat="46.390195" lon="13.4779967"><ele>1181.0</ele><time>2026-04-25T14:27:35.956Z</time></trkpt><trkpt lat="46.3901567" lon="13.4781683"><ele>1181.0</ele><time>2026-04-25T14:27:36.956Z</time></trkpt><trkpt lat="46.3901117" lon="13.4783283"><ele>1181.0</ele><time>2026-04-25T14:27:37.955Z</time></trkpt><trkpt lat="46.3900617" lon="13.4784833"><ele>1181.0</ele><time>2026-04-25T14:27:38.956Z</time></trkpt><trkpt lat="46.39001" lon="13.478635"><ele>1181.0</ele><time>2026-04-25T14:27:39.956Z</time></trkpt><trkpt lat="46.3899533" lon="13.4787883"><ele>1181.0</ele><time>2026-04-25T14:27:40.957Z</time></trkpt><trkpt lat="46.3898983" lon="13.478945"><ele>1181.0</ele><time>2026-04-25T14:27:41.955Z</time></trkpt><trkpt lat="46.3898533" lon="13.4791183"><ele>1181.0</ele><time>2026-04-25T14:27:42.957Z</time></trkpt><trkpt lat="46.3898183" lon="13.4793117"><ele>1181.0</ele><time>2026-04-25T14:27:43.956Z</time></trkpt><trkpt lat="46.389795" lon="13.4795183"><ele>1181.5</ele><time>2026-04-25T14:27:44.956Z</time></trkpt><trkpt lat="46.38978" lon="13.4797283"><ele>1182.0</ele><time>2026-04-25T14:27:45.955Z</time></trkpt><trkpt lat="46.3897683" lon="13.4799383"><ele>1182.5</ele><time>2026-04-25T14:27:46.955Z</time></trkpt><trkpt lat="46.3897667" lon="13.4801467"><ele>1183.0</ele><time>2026-04-25T14:27:47.956Z</time></trkpt><trkpt lat="46.3897617" lon="13.4803517"><ele>1184.5</ele><time>2026-04-25T14:27:48.956Z</time></trkpt><trkpt lat="46.3897583" lon="13.4805517"><ele>1186.0</ele><time>2026-04-25T14:27:49.956Z</time></trkpt><trkpt lat="46.389755" lon="13.48075"><ele>1187.5</ele><time>2026-04-25T14:27:50.956Z</time></trkpt><trkpt lat="46.3897483" lon="13.4809333"><ele>1189.0</ele><time>2026-04-25T14:27:51.957Z</time></trkpt><trkpt lat="46.3897517" lon="13.4811117"><ele>1190.0</ele><time>2026-04-25T14:27:52.957Z</time></trkpt><trkpt lat="46.38975" lon="13.4812833"><ele>1191.0</ele><time>2026-04-25T14:27:53.956Z</time></trkpt><trkpt lat="46.3897683" lon="13.4814417"><ele>1192.0</ele><time>2026-04-25T14:27:54.955Z</time></trkpt><trkpt lat="46.3897967" lon="13.4816"><ele>1193.0</ele><time>2026-04-25T14:27:55.956Z</time></trkpt><trkpt lat="46.3898483" lon="13.4817633"><ele>1193.0</ele><time>2026-04-25T14:27:56.956Z</time></trkpt><trkpt lat="46.3899233" lon="13.481925"><ele>1193.0</ele><time>2026-04-25T14:27:57.956Z</time></trkpt><trkpt lat="46.3900183" lon="13.482085"><ele>1193.0</ele><time>2026-04-25T14:27:58.956Z</time></trkpt><trkpt lat="46.3901217" lon="13.48225"><ele>1193.0</ele><time>2026-04-25T14:27:59.956Z</time></trkpt><trkpt lat="46.3902333" lon="13.4824083"><ele>1192.75</ele><time>2026-04-25T14:28:00.956Z</time></trkpt><trkpt lat="46.390335" lon="13.4825633"><ele>1192.5</ele><time>2026-04-25T14:28:01.956Z</time></trkpt><trkpt lat="46.3904267" lon="13.4827167"><ele>1192.25</ele><time>2026-04-25T14:28:02.954Z</time></trkpt><trkpt lat="46.3905067" lon="13.4828783"><ele>1192.0</ele><time>2026-04-25T14:28:03.955Z</time></trkpt><trkpt lat="46.3905683" lon="13.4830467"><ele>1192.0</ele><time>2026-04-25T14:28:04.956Z</time></trkpt><trkpt lat="46.3906183" lon="13.483235"><ele>1192.0</ele><time>2026-04-25T14:28:05.957Z</time></trkpt><trkpt lat="46.3906733" lon="13.4834333"><ele>1192.0</ele><time>2026-04-25T14:28:06.957Z</time></trkpt><trkpt lat="46.390725" lon="13.4836417"><ele>1192.0</ele><time>2026-04-25T14:28:07.957Z</time></trkpt><trkpt lat="46.3907783" lon="13.4838617"><ele>1193.3333333333333</ele><time>2026-04-25T14:28:08.956Z</time></trkpt><trkpt lat="46.3908317" lon="13.4840833"><ele>1194.6666666666667</ele><time>2026-04-25T14:28:09.956Z</time></trkpt><trkpt lat="46.3908883" lon="13.4843"><ele>1196.0</ele><time>2026-04-25T14:28:10.956Z</time></trkpt><trkpt lat="46.390955" lon="13.48449"><ele>1196.25</ele><time>2026-04-25T14:28:11.956Z</time></trkpt><trkpt lat="46.39104" lon="13.48464"><ele>1196.5</ele><time>2026-04-25T14:28:12.956Z</time></trkpt><trkpt lat="46.3911417" lon="13.4847633"><ele>1196.75</ele><time>2026-04-25T14:28:13.956Z</time></trkpt><trkpt lat="46.3912633" lon="13.4848367"><ele>1197.0</ele><time>2026-04-25T14:28:14.957Z</time></trkpt><trkpt lat="46.3914" lon="13.4848717"><ele>1195.25</ele><time>2026-04-25T14:28:15.957Z</time></trkpt><trkpt lat="46.3915467" lon="13.48488"><ele>1193.5</ele><time>2026-04-25T14:28:16.957Z</time></trkpt><trkpt lat="46.3916967" lon="13.4848867"><ele>1191.75</ele><time>2026-04-25T14:28:17.956Z</time></trkpt><trkpt lat="46.3918417" lon="13.4849067"><ele>1190.0</ele><time>2026-04-25T14:28:18.958Z</time></trkpt><trkpt lat="46.3919817" lon="13.4849533"><ele>1190.0</ele><time>2026-04-25T14:28:19.957Z</time></trkpt><trkpt lat="46.3921167" lon="13.485015"><ele>1190.0</ele><time>2026-04-25T14:28:20.957Z</time></trkpt><trkpt lat="46.3922417" lon="13.4850967"><ele>1190.0</ele><time>2026-04-25T14:28:21.958Z</time></trkpt><trkpt lat="46.3923483" lon="13.48521"><ele>1190.0</ele><time>2026-04-25T14:28:22.957Z</time></trkpt><trkpt lat="46.3924383" lon="13.485365"><ele>1188.6666666666667</ele><time>2026-04-25T14:28:23.957Z</time></trkpt><trkpt lat="46.392515" lon="13.4855467"><ele>1187.3333333333333</ele><time>2026-04-25T14:28:24.956Z</time></trkpt><trkpt lat="46.3925883" lon="13.485745"><ele>1186.0</ele><time>2026-04-25T14:28:25.958Z</time></trkpt><trkpt lat="46.39265" lon="13.4859517"><ele>1186.0</ele><time>2026-04-25T14:28:26.957Z</time></trkpt><trkpt lat="46.39271" lon="13.486155"><ele>1186.0</ele><time>2026-04-25T14:28:27.958Z</time></trkpt><trkpt lat="46.392775" lon="13.48635"><ele>1186.0</ele><time>2026-04-25T14:28:28.958Z</time></trkpt><trkpt lat="46.39284" lon="13.4865383"><ele>1186.0</ele><time>2026-04-25T14:28:29.957Z</time></trkpt><trkpt lat="46.39291" lon="13.48672"><ele>1186.75</ele><time>2026-04-25T14:28:30.958Z</time></trkpt><trkpt lat="46.3929933" lon="13.486875"><ele>1187.5</ele><time>2026-04-25T14:28:31.958Z</time></trkpt><trkpt lat="46.3930933" lon="13.4870017"><ele>1188.25</ele><time>2026-04-25T14:28:32.958Z</time></trkpt><trkpt lat="46.3932133" lon="13.48707"><ele>1189.0</ele><time>2026-04-25T14:28:33.958Z</time></trkpt><trkpt lat="46.3933417" lon="13.4871083"><ele>1187.25</ele><time>2026-04-25T14:28:34.956Z</time></trkpt><trkpt lat="46.3934733" lon="13.4871383"><ele>1185.5</ele><time>2026-04-25T14:28:35.956Z</time></trkpt><trkpt lat="46.3935983" lon="13.4871683"><ele>1183.75</ele><time>2026-04-25T14:28:36.954Z</time></trkpt><trkpt lat="46.3937017" lon="13.4872117"><ele>1182.0</ele><time>2026-04-25T14:28:37.956Z</time></trkpt><trkpt lat="46.393795" lon="13.48728"><ele>1180.75</ele><time>2026-04-25T14:28:38.958Z</time></trkpt><trkpt lat="46.3938717" lon="13.4873783"><ele>1179.5</ele><time>2026-04-25T14:28:39.956Z</time></trkpt><trkpt lat="46.39394" lon="13.4875"><ele>1178.25</ele><time>2026-04-25T14:28:40.955Z</time></trkpt><trkpt lat="46.3939967" lon="13.48765"><ele>1177.0</ele><time>2026-04-25T14:28:41.956Z</time></trkpt><trkpt lat="46.3940517" lon="13.4878233"><ele>1176.3333333333333</ele><time>2026-04-25T14:28:42.956Z</time></trkpt><trkpt lat="46.39411" lon="13.4880167"><ele>1175.6666666666667</ele><time>2026-04-25T14:28:43.957Z</time></trkpt><trkpt lat="46.3941717" lon="13.48822"><ele>1175.0</ele><time>2026-04-25T14:28:44.956Z</time></trkpt><trkpt lat="46.3942283" lon="13.4884333"><ele>1175.0</ele><time>2026-04-25T14:28:45.956Z</time></trkpt><trkpt lat="46.3942883" lon="13.4886433"><ele>1175.0</ele><time>2026-04-25T14:28:46.957Z</time></trkpt><trkpt lat="46.3943517" lon="13.4888417"><ele>1175.0</ele><time>2026-04-25T14:28:47.956Z</time></trkpt><trkpt lat="46.3944233" lon="13.48903"><ele>1175.25</ele><time>2026-04-25T14:28:48.958Z</time></trkpt><trkpt lat="46.39452" lon="13.489185"><ele>1175.5</ele><time>2026-04-25T14:28:49.957Z</time></trkpt><trkpt lat="46.3946283" lon="13.489325"><ele>1175.75</ele><time>2026-04-25T14:28:50.956Z</time></trkpt><trkpt lat="46.3947367" lon="13.48945"><ele>1176.0</ele><time>2026-04-25T14:28:51.957Z</time></trkpt><trkpt lat="46.39484" lon="13.4895633"><ele>1173.5</ele><time>2026-04-25T14:28:52.957Z</time></trkpt><trkpt lat="46.3949333" lon="13.489685"><ele>1171.0</ele><time>2026-04-25T14:28:53.956Z</time></trkpt><trkpt lat="46.3950183" lon="13.4898183"><ele>1168.5</ele><time>2026-04-25T14:28:54.956Z</time></trkpt><trkpt lat="46.3950967" lon="13.489965"><ele>1166.0</ele><time>2026-04-25T14:28:55.957Z</time></trkpt><trkpt lat="46.3951733" lon="13.490125"><ele>1166.0</ele><time>2026-04-25T14:28:56.955Z</time></trkpt><trkpt lat="46.3952517" lon="13.4903017"><ele>1166.0</ele><time>2026-04-25T14:28:57.957Z</time></trkpt><trkpt lat="46.3953333" lon="13.4904933"><ele>1166.0</ele><time>2026-04-25T14:28:58.957Z</time></trkpt><trkpt lat="46.3954133" lon="13.4906983"><ele>1167.3333333333335</ele><time>2026-04-25T14:28:59.956Z</time></trkpt><trkpt lat="46.3954967" lon="13.4909067"><ele>1168.6666666666667</ele><time>2026-04-25T14:29:00.956Z</time></trkpt><trkpt lat="46.3955733" lon="13.4911183"><ele>1170.0</ele><time>2026-04-25T14:29:01.957Z</time></trkpt><trkpt lat="46.395645" lon="13.4913217"><ele>1167.0</ele><time>2026-04-25T14:29:02.956Z</time></trkpt><trkpt lat="46.3957067" lon="13.4915233"><ele>1164.0</ele><time>2026-04-25T14:29:03.957Z</time></trkpt><trkpt lat="46.3957533" lon="13.4917233"><ele>1161.0</ele><time>2026-04-25T14:29:04.956Z</time></trkpt><trkpt lat="46.3957917" lon="13.4919217"><ele>1158.0</ele><time>2026-04-25T14:29:05.956Z</time></trkpt><trkpt lat="46.3958383" lon="13.4921133"><ele>1153.75</ele><time>2026-04-25T14:29:06.957Z</time></trkpt><trkpt lat="46.3958983" lon="13.4922983"><ele>1149.5</ele><time>2026-04-25T14:29:07.956Z</time></trkpt><trkpt lat="46.3959717" lon="13.49248"><ele>1145.25</ele><time>2026-04-25T14:29:08.956Z</time></trkpt><trkpt lat="46.3960533" lon="13.492655"><ele>1141.0</ele><time>2026-04-25T14:29:09.956Z</time></trkpt><trkpt lat="46.3961333" lon="13.4928117"><ele>1139.3333333333333</ele><time>2026-04-25T14:29:10.956Z</time></trkpt><trkpt lat="46.396205" lon="13.49294"><ele>1137.6666666666665</ele><time>2026-04-25T14:29:11.957Z</time></trkpt><trkpt lat="46.3962633" lon="13.493045"><ele>1136.0</ele><time>2026-04-25T14:29:12.955Z</time></trkpt><trkpt lat="46.3963017" lon="13.4931567"><ele>1134.3333333333333</ele><time>2026-04-25T14:29:13.957Z</time></trkpt><trkpt lat="46.3963267" lon="13.4932633"><ele>1132.6666666666667</ele><time>2026-04-25T14:29:14.955Z</time></trkpt><trkpt lat="46.3962883" lon="13.4933383"><ele>1131.0</ele><time>2026-04-25T14:29:15.956Z</time></trkpt><trkpt lat="46.39622" lon="13.4933617"><ele>1131.0</ele><time>2026-04-25T14:29:16.956Z</time></trkpt><trkpt lat="46.39614" lon="13.4933117"><ele>1131.0</ele><time>2026-04-25T14:29:17.956Z</time></trkpt><trkpt lat="46.39609" lon="13.4932017"><ele>1131.0</ele><time>2026-04-25T14:29:18.956Z</time></trkpt><trkpt lat="46.3960333" lon="13.49306"><ele>1131.0</ele><time>2026-04-25T14:29:19.955Z</time></trkpt><trkpt lat="46.39595" lon="13.4929117"><ele>1131.0</ele><time>2026-04-25T14:29:20.956Z</time></trkpt><trkpt lat="46.3958433" lon="13.49276"><ele>1131.0</ele><time>2026-04-25T14:29:21.957Z</time></trkpt><trkpt lat="46.3957217" lon="13.492605"><ele>1131.0</ele><time>2026-04-25T14:29:22.956Z</time></trkpt><trkpt lat="46.3956017" lon="13.492455"><ele>1131.0</ele><time>2026-04-25T14:29:23.956Z</time></trkpt><trkpt lat="46.3954817" lon="13.4923133"><ele>1131.0</ele><time>2026-04-25T14:29:24.956Z</time></trkpt><trkpt lat="46.3953667" lon="13.492185"><ele>1131.0</ele><time>2026-04-25T14:29:25.957Z</time></trkpt><trkpt lat="46.3952617" lon="13.492065"><ele>1131.0</ele><time>2026-04-25T14:29:26.957Z</time></trkpt><trkpt lat="46.395165" lon="13.4919633"><ele>1131.0</ele><time>2026-04-25T14:29:27.957Z</time></trkpt><trkpt lat="46.39507" lon="13.4919017"><ele>1131.0</ele><time>2026-04-25T14:29:28.957Z</time></trkpt><trkpt lat="46.3949633" lon="13.4919217"><ele>1131.0</ele><time>2026-04-25T14:29:29.956Z</time></trkpt><trkpt lat="46.3948833" lon="13.492015"><ele>1131.0</ele><time>2026-04-25T14:29:30.957Z</time></trkpt><trkpt lat="46.3948567" lon="13.4921383"><ele>1131.0</ele><time>2026-04-25T14:29:31.956Z</time></trkpt><trkpt lat="46.394895" lon="13.49228"><ele>1131.0</ele><time>2026-04-25T14:29:32.956Z</time></trkpt><trkpt lat="46.394955" lon="13.492395"><ele>1131.0</ele><time>2026-04-25T14:29:33.955Z</time></trkpt><trkpt lat="46.3950533" lon="13.4924983"><ele>1131.0</ele><time>2026-04-25T14:29:34.956Z</time></trkpt><trkpt lat="46.3951483" lon="13.4926167"><ele>1131.0</ele><time>2026-04-25T14:29:35.956Z</time></trkpt><trkpt lat="46.39524" lon="13.4927617"><ele>1131.0</ele><time>2026-04-25T14:29:36.956Z</time></trkpt><trkpt lat="46.395315" lon="13.492935"><ele>1128.0</ele><time>2026-04-25T14:29:37.96Z</time></trkpt><trkpt lat="46.395365" lon="13.493125"><ele>1125.0</ele><time>2026-04-25T14:29:38.957Z</time></trkpt><trkpt lat="46.39538" lon="13.4933283"><ele>1122.0</ele><time>2026-04-25T14:29:39.956Z</time></trkpt><trkpt lat="46.395395" lon="13.4935317"><ele>1119.0</ele><time>2026-04-25T14:29:40.957Z</time></trkpt><trkpt lat="46.39543" lon="13.49373"><ele>1120.0</ele><time>2026-04-25T14:29:41.956Z</time></trkpt><trkpt lat="46.395495" lon="13.4939333"><ele>1121.0</ele><time>2026-04-25T14:29:42.955Z</time></trkpt><trkpt lat="46.3955783" lon="13.4941367"><ele>1122.0</ele><time>2026-04-25T14:29:43.957Z</time></trkpt><trkpt lat="46.39568" lon="13.494335"><ele>1122.0</ele><time>2026-04-25T14:29:44.956Z</time></trkpt><trkpt lat="46.3957867" lon="13.4945217"><ele>1122.0</ele><time>2026-04-25T14:29:45.957Z</time></trkpt><trkpt lat="46.3958883" lon="13.4946967"><ele>1122.0</ele><time>2026-04-25T14:29:46.957Z</time></trkpt><trkpt lat="46.3959833" lon="13.4948583"><ele>1120.0</ele><time>2026-04-25T14:29:47.957Z</time></trkpt><trkpt lat="46.3960683" lon="13.4950183"><ele>1118.0</ele><time>2026-04-25T14:29:48.956Z</time></trkpt><trkpt lat="46.39614" lon="13.4951967"><ele>1116.0</ele><time>2026-04-25T14:29:49.956Z</time></trkpt><trkpt lat="46.3961883" lon="13.4953967"><ele>1114.0</ele><time>2026-04-25T14:29:50.957Z</time></trkpt><trkpt lat="46.3961783" lon="13.4955817"><ele>1111.5</ele><time>2026-04-25T14:29:51.957Z</time></trkpt><trkpt lat="46.3961" lon="13.4957333"><ele>1109.0</ele><time>2026-04-25T14:29:52.957Z</time></trkpt><trkpt lat="46.3959833" lon="13.4958317"><ele>1106.5</ele><time>2026-04-25T14:29:53.957Z</time></trkpt><trkpt lat="46.395845" lon="13.49587"><ele>1104.0</ele><time>2026-04-25T14:29:54.957Z</time></trkpt><trkpt lat="46.395705" lon="13.49585"><ele>1104.0</ele><time>2026-04-25T14:29:55.957Z</time></trkpt><trkpt lat="46.3955783" lon="13.4957667"><ele>1104.0</ele><time>2026-04-25T14:29:56.956Z</time></trkpt><trkpt lat="46.39548" lon="13.4956317"><ele>1104.0</ele><time>2026-04-25T14:29:57.957Z</time></trkpt><trkpt lat="46.3954033" lon="13.4954683"><ele>1104.0</ele><time>2026-04-25T14:29:58.958Z</time></trkpt><trkpt lat="46.39534" lon="13.4952883"><ele>1104.75</ele><time>2026-04-25T14:29:59.957Z</time></trkpt><trkpt lat="46.3952833" lon="13.4950933"><ele>1105.5</ele><time>2026-04-25T14:30:00.957Z</time></trkpt><trkpt lat="46.3952267" lon="13.4949067"><ele>1106.25</ele><time>2026-04-25T14:30:01.957Z</time></trkpt><trkpt lat="46.3951767" lon="13.4947283"><ele>1107.0</ele><time>2026-04-25T14:30:02.957Z</time></trkpt><trkpt lat="46.3951267" lon="13.4945733"><ele>1107.0</ele><time>2026-04-25T14:30:03.957Z</time></trkpt><trkpt lat="46.395085" lon="13.4944267"><ele>1107.0</ele><time>2026-04-25T14:30:04.956Z</time></trkpt><trkpt lat="46.3950467" lon="13.4942967"><ele>1107.0</ele><time>2026-04-25T14:30:05.956Z</time></trkpt><trkpt lat="46.3950083" lon="13.49418"><ele>1107.0</ele><time>2026-04-25T14:30:06.955Z</time></trkpt><trkpt lat="46.3949717" lon="13.4940767"><ele>1107.0</ele><time>2026-04-25T14:30:07.956Z</time></trkpt><trkpt lat="46.3949283" lon="13.4939983"><ele>1107.0</ele><time>2026-04-25T14:30:08.956Z</time></trkpt><trkpt lat="46.3948383" lon="13.49393"><ele>1107.0</ele><time>2026-04-25T14:30:10.957Z</time></trkpt><trkpt lat="46.394755" lon="13.493975"><ele>1107.0</ele><time>2026-04-25T14:30:12.957Z</time></trkpt><trkpt lat="46.3947017" lon="13.4941417"><ele>1107.0</ele><time>2026-04-25T14:30:14.956Z</time></trkpt><trkpt lat="46.39474" lon="13.4942817"><ele>1107.0</ele><time>2026-04-25T14:30:15.956Z</time></trkpt><trkpt lat="46.3948017" lon="13.49445"><ele>1103.0</ele><time>2026-04-25T14:30:16.96Z</time></trkpt><trkpt lat="46.3948817" lon="13.494655"><ele>1099.0</ele><time>2026-04-25T14:30:17.957Z</time></trkpt><trkpt lat="46.3949567" lon="13.494905"><ele>1095.0</ele><time>2026-04-25T14:30:18.958Z</time></trkpt><trkpt lat="46.3950333" lon="13.495195"><ele>1091.3333333333333</ele><time>2026-04-25T14:30:19.958Z</time></trkpt><trkpt lat="46.3951217" lon="13.4954883"><ele>1087.6666666666665</ele><time>2026-04-25T14:30:20.956Z</time></trkpt><trkpt lat="46.3952133" lon="13.495775"><ele>1084.0</ele><time>2026-04-25T14:30:21.956Z</time></trkpt><trkpt lat="46.3953" lon="13.4960417"><ele>1081.3333333333333</ele><time>2026-04-25T14:30:22.957Z</time></trkpt><trkpt lat="46.3953717" lon="13.4962883"><ele>1078.6666666666667</ele><time>2026-04-25T14:30:23.956Z</time></trkpt><trkpt lat="46.39542" lon="13.4965367"><ele>1076.0</ele><time>2026-04-25T14:30:24.957Z</time></trkpt><trkpt lat="46.3954483" lon="13.4968017"><ele>1076.0</ele><time>2026-04-25T14:30:25.955Z</time></trkpt><trkpt lat="46.39544" lon="13.497075"><ele>1076.0</ele><time>2026-04-25T14:30:26.957Z</time></trkpt><trkpt lat="46.3954283" lon="13.4973383"><ele>1076.0</ele><time>2026-04-25T14:30:27.956Z</time></trkpt><trkpt lat="46.3954183" lon="13.4975867"><ele>1073.3333333333335</ele><time>2026-04-25T14:30:28.957Z</time></trkpt><trkpt lat="46.3954183" lon="13.4978317"><ele>1070.6666666666667</ele><time>2026-04-25T14:30:29.956Z</time></trkpt><trkpt lat="46.39544" lon="13.4980683"><ele>1068.0</ele><time>2026-04-25T14:30:30.957Z</time></trkpt><trkpt lat="46.3954967" lon="13.49831"><ele>1068.0</ele><time>2026-04-25T14:30:31.956Z</time></trkpt><trkpt lat="46.39558" lon="13.4985533"><ele>1068.0</ele><time>2026-04-25T14:30:32.955Z</time></trkpt><trkpt lat="46.395675" lon="13.4988017"><ele>1068.0</ele><time>2026-04-25T14:30:33.956Z</time></trkpt><trkpt lat="46.3957767" lon="13.4990583"><ele>1063.3333333333333</ele><time>2026-04-25T14:30:34.956Z</time></trkpt><trkpt lat="46.3958767" lon="13.499325"><ele>1058.6666666666665</ele><time>2026-04-25T14:30:35.956Z</time></trkpt><trkpt lat="46.3959767" lon="13.49959"><ele>1054.0</ele><time>2026-04-25T14:30:36.957Z</time></trkpt><trkpt lat="46.3960783" lon="13.499855"><ele>1051.3333333333333</ele><time>2026-04-25T14:30:37.958Z</time></trkpt><trkpt lat="46.396185" lon="13.500115"><ele>1048.6666666666667</ele><time>2026-04-25T14:30:38.957Z</time></trkpt><trkpt lat="46.3962833" lon="13.5003717"><ele>1046.0</ele><time>2026-04-25T14:30:39.956Z</time></trkpt><trkpt lat="46.3963767" lon="13.5006333"><ele>1044.0</ele><time>2026-04-25T14:30:40.957Z</time></trkpt><trkpt lat="46.3964683" lon="13.5008917"><ele>1042.0</ele><time>2026-04-25T14:30:41.955Z</time></trkpt><trkpt lat="46.39656" lon="13.5011383"><ele>1040.0</ele><time>2026-04-25T14:30:42.957Z</time></trkpt><trkpt lat="46.3966467" lon="13.501375"><ele>1037.3333333333335</ele><time>2026-04-25T14:30:43.955Z</time></trkpt><trkpt lat="46.3967233" lon="13.5015883"><ele>1034.6666666666667</ele><time>2026-04-25T14:30:44.957Z</time></trkpt><trkpt lat="46.3968017" lon="13.5017783"><ele>1032.0</ele><time>2026-04-25T14:30:45.956Z</time></trkpt><trkpt lat="46.3968867" lon="13.50194"><ele>1032.0</ele><time>2026-04-25T14:30:46.957Z</time></trkpt><trkpt lat="46.3969833" lon="13.5020817"><ele>1032.0</ele><time>2026-04-25T14:30:47.956Z</time></trkpt><trkpt lat="46.3970933" lon="13.5022083"><ele>1032.0</ele><time>2026-04-25T14:30:48.956Z</time></trkpt><trkpt lat="46.3972183" lon="13.502325"><ele>1032.0</ele><time>2026-04-25T14:30:49.956Z</time></trkpt><trkpt lat="46.3973467" lon="13.5024383"><ele>1032.0</ele><time>2026-04-25T14:30:50.955Z</time></trkpt><trkpt lat="46.3974683" lon="13.502575"><ele>1032.0</ele><time>2026-04-25T14:30:51.957Z</time></trkpt><trkpt lat="46.3975683" lon="13.5027417"><ele>1032.0</ele><time>2026-04-25T14:30:52.957Z</time></trkpt><trkpt lat="46.3976617" lon="13.5029483"><ele>1031.0</ele><time>2026-04-25T14:30:53.957Z</time></trkpt><trkpt lat="46.3977533" lon="13.5031667"><ele>1030.0</ele><time>2026-04-25T14:30:54.958Z</time></trkpt><trkpt lat="46.3978367" lon="13.5033917"><ele>1029.0</ele><time>2026-04-25T14:30:55.958Z</time></trkpt><trkpt lat="46.39792" lon="13.503625"><ele>1032.3333333333333</ele><time>2026-04-25T14:30:56.956Z</time></trkpt><trkpt lat="46.3980033" lon="13.5038683"><ele>1035.6666666666665</ele><time>2026-04-25T14:30:57.958Z</time></trkpt><trkpt lat="46.398085" lon="13.50412"><ele>1039.0</ele><time>2026-04-25T14:30:58.957Z</time></trkpt><trkpt lat="46.398165" lon="13.5043767"><ele>1038.0</ele><time>2026-04-25T14:30:59.956Z</time></trkpt><trkpt lat="46.3982483" lon="13.5046367"><ele>1037.0</ele><time>2026-04-25T14:31:00.957Z</time></trkpt><trkpt lat="46.39833" lon="13.5048983"><ele>1036.0</ele><time>2026-04-25T14:31:01.957Z</time></trkpt><trkpt lat="46.3984117" lon="13.5051567"><ele>1033.6666666666665</ele><time>2026-04-25T14:31:02.955Z</time></trkpt><trkpt lat="46.3984933" lon="13.505415"><ele>1031.3333333333333</ele><time>2026-04-25T14:31:03.957Z</time></trkpt><trkpt lat="46.3985767" lon="13.5056683"><ele>1029.0</ele><time>2026-04-25T14:31:04.958Z</time></trkpt><trkpt lat="46.3986583" lon="13.505915"><ele>1029.0</ele><time>2026-04-25T14:31:05.956Z</time></trkpt><trkpt lat="46.39874" lon="13.5061633"><ele>1029.0</ele><time>2026-04-25T14:31:06.957Z</time></trkpt><trkpt lat="46.3988233" lon="13.5064167"><ele>1029.0</ele><time>2026-04-25T14:31:07.956Z</time></trkpt><trkpt lat="46.3989017" lon="13.5066617"><ele>1030.3333333333333</ele><time>2026-04-25T14:31:08.955Z</time></trkpt><trkpt lat="46.39898" lon="13.50691"><ele>1031.6666666666665</ele><time>2026-04-25T14:31:09.957Z</time></trkpt><trkpt lat="46.3990633" lon="13.5071633"><ele>1033.0</ele><time>2026-04-25T14:31:10.957Z</time></trkpt><trkpt lat="46.3991433" lon="13.507415"><ele>1033.0</ele><time>2026-04-25T14:31:11.957Z</time></trkpt><trkpt lat="46.39922" lon="13.5076683"><ele>1033.0</ele><time>2026-04-25T14:31:12.957Z</time></trkpt><trkpt lat="46.3992983" lon="13.5079133"><ele>1033.0</ele><time>2026-04-25T14:31:13.957Z</time></trkpt><trkpt lat="46.39938" lon="13.508155"><ele>1032.0</ele><time>2026-04-25T14:31:14.955Z</time></trkpt><trkpt lat="46.399465" lon="13.5083983"><ele>1031.0</ele><time>2026-04-25T14:31:15.955Z</time></trkpt><trkpt lat="46.39956" lon="13.50864"><ele>1030.0</ele><time>2026-04-25T14:31:16.957Z</time></trkpt><trkpt lat="46.39967" lon="13.5088667"><ele>1030.0</ele><time>2026-04-25T14:31:17.956Z</time></trkpt><trkpt lat="46.3997933" lon="13.509075"><ele>1030.0</ele><time>2026-04-25T14:31:18.956Z</time></trkpt><trkpt lat="46.3999217" lon="13.5092783"><ele>1030.0</ele><time>2026-04-25T14:31:19.957Z</time></trkpt><trkpt lat="46.40005" lon="13.5094733"><ele>1027.3333333333333</ele><time>2026-04-25T14:31:20.956Z</time></trkpt><trkpt lat="46.4001767" lon="13.50967"><ele>1024.6666666666667</ele><time>2026-04-25T14:31:21.957Z</time></trkpt><trkpt lat="46.4002967" lon="13.5098717"><ele>1022.0</ele><time>2026-04-25T14:31:22.957Z</time></trkpt><trkpt lat="46.40041" lon="13.51009"><ele>1023.6666666666667</ele><time>2026-04-25T14:31:23.956Z</time></trkpt><trkpt lat="46.4005167" lon="13.510315"><ele>1025.3333333333333</ele><time>2026-04-25T14:31:24.956Z</time></trkpt><trkpt lat="46.4006217" lon="13.5105467"><ele>1027.0</ele><time>2026-04-25T14:31:25.956Z</time></trkpt><trkpt lat="46.4007267" lon="13.51079"><ele>1027.0</ele><time>2026-04-25T14:31:26.956Z</time></trkpt><trkpt lat="46.40083" lon="13.5110267"><ele>1027.0</ele><time>2026-04-25T14:31:27.957Z</time></trkpt><trkpt lat="46.4009283" lon="13.5112667"><ele>1027.0</ele><time>2026-04-25T14:31:28.958Z</time></trkpt><trkpt lat="46.4010217" lon="13.5115083"><ele>1025.0</ele><time>2026-04-25T14:31:29.957Z</time></trkpt><trkpt lat="46.401115" lon="13.5117467"><ele>1023.0</ele><time>2026-04-25T14:31:30.958Z</time></trkpt><trkpt lat="46.4012033" lon="13.5119817"><ele>1021.0</ele><time>2026-04-25T14:31:31.957Z</time></trkpt><trkpt lat="46.4012883" lon="13.5122083"><ele>1022.6666666666666</ele><time>2026-04-25T14:31:32.957Z</time></trkpt><trkpt lat="46.40137" lon="13.5124267"><ele>1024.3333333333333</ele><time>2026-04-25T14:31:33.957Z</time></trkpt><trkpt lat="46.4014483" lon="13.5126317"><ele>1026.0</ele><time>2026-04-25T14:31:34.957Z</time></trkpt><trkpt lat="46.401525" lon="13.51284"><ele>1022.6666666666667</ele><time>2026-04-25T14:31:35.957Z</time></trkpt><trkpt lat="46.4015867" lon="13.5130517"><ele>1019.3333333333334</ele><time>2026-04-25T14:31:36.957Z</time></trkpt><trkpt lat="46.401625" lon="13.5132633"><ele>1016.0</ele><time>2026-04-25T14:31:37.957Z</time></trkpt><trkpt lat="46.40163" lon="13.51347"><ele>1016.0</ele><time>2026-04-25T14:31:38.956Z</time></trkpt><trkpt lat="46.40161" lon="13.51368"><ele>1016.0</ele><time>2026-04-25T14:31:39.958Z</time></trkpt><trkpt lat="46.40156" lon="13.513885"><ele>1016.0</ele><time>2026-04-25T14:31:40.956Z</time></trkpt><trkpt lat="46.4014833" lon="13.5140767"><ele>1016.0</ele><time>2026-04-25T14:31:41.956Z</time></trkpt><trkpt lat="46.4013917" lon="13.5142417"><ele>1012.5</ele><time>2026-04-25T14:31:42.957Z</time></trkpt><trkpt lat="46.4013017" lon="13.5144083"><ele>1009.0</ele><time>2026-04-25T14:31:43.957Z</time></trkpt><trkpt lat="46.4012283" lon="13.5145833"><ele>1005.5</ele><time>2026-04-25T14:31:44.956Z</time></trkpt><trkpt lat="46.4011733" lon="13.51477"><ele>1002.0</ele><time>2026-04-25T14:31:45.956Z</time></trkpt><trkpt lat="46.4011433" lon="13.5149783"><ele>1000.0</ele><time>2026-04-25T14:31:46.957Z</time></trkpt><trkpt lat="46.4011367" lon="13.5152017"><ele>998.0</ele><time>2026-04-25T14:31:47.956Z</time></trkpt><trkpt lat="46.4011417" lon="13.515435"><ele>996.0</ele><time>2026-04-25T14:31:48.956Z</time></trkpt><trkpt lat="46.4011533" lon="13.5156817"><ele>995.6666666666667</ele><time>2026-04-25T14:31:49.957Z</time></trkpt><trkpt lat="46.40117" lon="13.515935"><ele>995.3333333333334</ele><time>2026-04-25T14:31:50.956Z</time></trkpt><trkpt lat="46.40119" lon="13.5161817"><ele>995.0</ele><time>2026-04-25T14:31:51.957Z</time></trkpt><trkpt lat="46.40121" lon="13.5164217"><ele>994.6666666666667</ele><time>2026-04-25T14:31:52.957Z</time></trkpt><trkpt lat="46.4012283" lon="13.5166533"><ele>994.3333333333333</ele><time>2026-04-25T14:31:53.956Z</time></trkpt><trkpt lat="46.4012517" lon="13.516885"><ele>994.0</ele><time>2026-04-25T14:31:54.957Z</time></trkpt><trkpt lat="46.4012833" lon="13.517125"><ele>995.3333333333333</ele><time>2026-04-25T14:31:55.957Z</time></trkpt><trkpt lat="46.4013283" lon="13.51737"><ele>996.6666666666667</ele><time>2026-04-25T14:31:56.957Z</time></trkpt><trkpt lat="46.4013883" lon="13.5176117"><ele>998.0</ele><time>2026-04-25T14:31:57.956Z</time></trkpt><trkpt lat="46.4014617" lon="13.5178533"><ele>996.3333333333334</ele><time>2026-04-25T14:31:58.957Z</time></trkpt><trkpt lat="46.4015383" lon="13.5180933"><ele>994.6666666666667</ele><time>2026-04-25T14:31:59.956Z</time></trkpt><trkpt lat="46.4016317" lon="13.5183233"><ele>993.0</ele><time>2026-04-25T14:32:00.957Z</time></trkpt><trkpt lat="46.4017433" lon="13.5185433"><ele>992.6666666666667</ele><time>2026-04-25T14:32:01.957Z</time></trkpt><trkpt lat="46.4018567" lon="13.5187567"><ele>992.3333333333334</ele><time>2026-04-25T14:32:02.957Z</time></trkpt><trkpt lat="46.4019733" lon="13.518975"><ele>992.0</ele><time>2026-04-25T14:32:03.957Z</time></trkpt><trkpt lat="46.402095" lon="13.5191933"><ele>992.6666666666667</ele><time>2026-04-25T14:32:04.958Z</time></trkpt><trkpt lat="46.40222" lon="13.5194217"><ele>993.3333333333333</ele><time>2026-04-25T14:32:05.956Z</time></trkpt><trkpt lat="46.4023483" lon="13.5196517"><ele>994.0</ele><time>2026-04-25T14:32:06.957Z</time></trkpt><trkpt lat="46.4024783" lon="13.5198917"><ele>994.0</ele><time>2026-04-25T14:32:07.957Z</time></trkpt><trkpt lat="46.40261" lon="13.5201367"><ele>994.0</ele><time>2026-04-25T14:32:08.957Z</time></trkpt><trkpt lat="46.4027417" lon="13.520385"><ele>994.0</ele><time>2026-04-25T14:32:09.957Z</time></trkpt><trkpt lat="46.4028717" lon="13.5206283"><ele>995.3333333333333</ele><time>2026-04-25T14:32:10.957Z</time></trkpt><trkpt lat="46.4030017" lon="13.5208667"><ele>996.6666666666667</ele><time>2026-04-25T14:32:11.956Z</time></trkpt><trkpt lat="46.4031317" lon="13.521105"><ele>998.0</ele><time>2026-04-25T14:32:12.957Z</time></trkpt><trkpt lat="46.4032583" lon="13.5213333"><ele>998.0</ele><time>2026-04-25T14:32:13.956Z</time></trkpt><trkpt lat="46.4033783" lon="13.521555"><ele>998.0</ele><time>2026-04-25T14:32:14.957Z</time></trkpt><trkpt lat="46.4034883" lon="13.5217717"><ele>998.0</ele><time>2026-04-25T14:32:15.957Z</time></trkpt><trkpt lat="46.40357" lon="13.5219917"><ele>997.3333333333334</ele><time>2026-04-25T14:32:16.957Z</time></trkpt><trkpt lat="46.4036267" lon="13.5222283"><ele>996.6666666666667</ele><time>2026-04-25T14:32:17.958Z</time></trkpt><trkpt lat="46.4036567" lon="13.5224767"><ele>996.0</ele><time>2026-04-25T14:32:18.958Z</time></trkpt><trkpt lat="46.4036717" lon="13.52273"><ele>996.0</ele><time>2026-04-25T14:32:19.957Z</time></trkpt><trkpt lat="46.4036867" lon="13.5229917"><ele>996.0</ele><time>2026-04-25T14:32:20.957Z</time></trkpt><trkpt lat="46.403705" lon="13.5232567"><ele>996.0</ele><time>2026-04-25T14:32:21.957Z</time></trkpt><trkpt lat="46.4037317" lon="13.5235267"><ele>995.6666666666667</ele><time>2026-04-25T14:32:22.958Z</time></trkpt><trkpt lat="46.4037633" lon="13.5237967"><ele>995.3333333333334</ele><time>2026-04-25T14:32:23.957Z</time></trkpt><trkpt lat="46.4037967" lon="13.5240667"><ele>995.0</ele><time>2026-04-25T14:32:24.956Z</time></trkpt><trkpt lat="46.4038283" lon="13.5243317"><ele>1004.0</ele><time>2026-04-25T14:32:25.957Z</time></trkpt><trkpt lat="46.4038567" lon="13.5245933"><ele>1013.0</ele><time>2026-04-25T14:32:26.957Z</time></trkpt><trkpt lat="46.403895" lon="13.5248483"><ele>1022.0</ele><time>2026-04-25T14:32:27.956Z</time></trkpt><trkpt lat="46.4039433" lon="13.5251017"><ele>1022.0</ele><time>2026-04-25T14:32:28.957Z</time></trkpt><trkpt lat="46.404005" lon="13.52535"><ele>1022.0</ele><time>2026-04-25T14:32:29.956Z</time></trkpt><trkpt lat="46.4040683" lon="13.5256033"><ele>1022.0</ele><time>2026-04-25T14:32:30.957Z</time></trkpt><trkpt lat="46.4041317" lon="13.5258633"><ele>1019.3333333333334</ele><time>2026-04-25T14:32:31.956Z</time></trkpt><trkpt lat="46.4041883" lon="13.5261267"><ele>1016.6666666666667</ele><time>2026-04-25T14:32:32.957Z</time></trkpt><trkpt lat="46.4042467" lon="13.5263883"><ele>1014.0</ele><time>2026-04-25T14:32:33.956Z</time></trkpt><trkpt lat="46.4043083" lon="13.5266367"><ele>1009.6666666666667</ele><time>2026-04-25T14:32:34.958Z</time></trkpt><trkpt lat="46.4043783" lon="13.5268767"><ele>1005.3333333333334</ele><time>2026-04-25T14:32:35.957Z</time></trkpt><trkpt lat="46.4044533" lon="13.52712"><ele>1001.0</ele><time>2026-04-25T14:32:36.958Z</time></trkpt><trkpt lat="46.404525" lon="13.5273633"><ele>1002.6666666666667</ele><time>2026-04-25T14:32:37.957Z</time></trkpt><trkpt lat="46.4045967" lon="13.527605"><ele>1004.3333333333333</ele><time>2026-04-25T14:32:38.957Z</time></trkpt><trkpt lat="46.40466" lon="13.5278483"><ele>1006.0</ele><time>2026-04-25T14:32:39.958Z</time></trkpt><trkpt lat="46.4047283" lon="13.5281"><ele>1006.0</ele><time>2026-04-25T14:32:40.958Z</time></trkpt><trkpt lat="46.4048" lon="13.5283533"><ele>1006.0</ele><time>2026-04-25T14:32:41.956Z</time></trkpt><trkpt lat="46.4048883" lon="13.528595"><ele>1006.0</ele><time>2026-04-25T14:32:42.956Z</time></trkpt><trkpt lat="46.4049817" lon="13.528835"><ele>1003.3333333333333</ele><time>2026-04-25T14:32:43.957Z</time></trkpt><trkpt lat="46.4050833" lon="13.5290733"><ele>1000.6666666666667</ele><time>2026-04-25T14:32:44.956Z</time></trkpt><trkpt lat="46.40518" lon="13.5293083"><ele>998.0</ele><time>2026-04-25T14:32:45.957Z</time></trkpt><trkpt lat="46.4052783" lon="13.52953"><ele>994.0</ele><time>2026-04-25T14:32:46.957Z</time></trkpt><trkpt lat="46.40538" lon="13.529755"><ele>990.0</ele><time>2026-04-25T14:32:47.957Z</time></trkpt><trkpt lat="46.4054867" lon="13.5299717"><ele>986.0</ele><time>2026-04-25T14:32:48.957Z</time></trkpt><trkpt lat="46.4056" lon="13.5301733"><ele>989.3333333333334</ele><time>2026-04-25T14:32:49.957Z</time></trkpt><trkpt lat="46.4057183" lon="13.5303567"><ele>992.6666666666667</ele><time>2026-04-25T14:32:50.956Z</time></trkpt><trkpt lat="46.4058367" lon="13.5305283"><ele>996.0</ele><time>2026-04-25T14:32:51.957Z</time></trkpt><trkpt lat="46.40596" lon="13.5306967"><ele>996.0</ele><time>2026-04-25T14:32:52.957Z</time></trkpt><trkpt lat="46.4060917" lon="13.5308533"><ele>996.0</ele><time>2026-04-25T14:32:53.956Z</time></trkpt><trkpt lat="46.4062383" lon="13.5309983"><ele>996.0</ele><time>2026-04-25T14:32:54.957Z</time></trkpt><trkpt lat="46.4063817" lon="13.5311583"><ele>997.3333333333333</ele><time>2026-04-25T14:32:55.957Z</time></trkpt><trkpt lat="46.4065283" lon="13.531325"><ele>998.6666666666666</ele><time>2026-04-25T14:32:56.957Z</time></trkpt><trkpt lat="46.406685" lon="13.5314767"><ele>1000.0</ele><time>2026-04-25T14:32:57.958Z</time></trkpt><trkpt lat="46.406835" lon="13.531645"><ele>1000.0</ele><time>2026-04-25T14:32:58.957Z</time></trkpt><trkpt lat="46.4069817" lon="13.5318017"><ele>1000.0</ele><time>2026-04-25T14:32:59.956Z</time></trkpt><trkpt lat="46.4071117" lon="13.5319583"><ele>1000.0</ele><time>2026-04-25T14:33:00.956Z</time></trkpt><trkpt lat="46.4072217" lon="13.5321367"><ele>1003.0</ele><time>2026-04-25T14:33:01.957Z</time></trkpt><trkpt lat="46.407295" lon="13.5323467"><ele>1006.0</ele><time>2026-04-25T14:33:02.957Z</time></trkpt><trkpt lat="46.40735" lon="13.5325817"><ele>1009.0</ele><time>2026-04-25T14:33:03.957Z</time></trkpt><trkpt lat="46.4074083" lon="13.5328217"><ele>1007.0</ele><time>2026-04-25T14:33:04.956Z</time></trkpt><trkpt lat="46.4074633" lon="13.5330467"><ele>1005.0</ele><time>2026-04-25T14:33:05.957Z</time></trkpt><trkpt lat="46.4075117" lon="13.5332517"><ele>1003.0</ele><time>2026-04-25T14:33:06.957Z</time></trkpt><trkpt lat="46.4075683" lon="13.53342"><ele>1001.0</ele><time>2026-04-25T14:33:07.957Z</time></trkpt><trkpt lat="46.407645" lon="13.5335467"><ele>1001.0</ele><time>2026-04-25T14:33:08.957Z</time></trkpt><trkpt lat="46.4077433" lon="13.5336383"><ele>1001.0</ele><time>2026-04-25T14:33:09.956Z</time></trkpt><trkpt lat="46.4078717" lon="13.5336817"><ele>1001.0</ele><time>2026-04-25T14:33:10.957Z</time></trkpt><trkpt lat="46.4080167" lon="13.5336917"><ele>1001.0</ele><time>2026-04-25T14:33:11.956Z</time></trkpt><trkpt lat="46.408165" lon="13.5336917"><ele>1000.75</ele><time>2026-04-25T14:33:12.957Z</time></trkpt><trkpt lat="46.4083083" lon="13.5336883"><ele>1000.5</ele><time>2026-04-25T14:33:13.957Z</time></trkpt><trkpt lat="46.4084433" lon="13.5336917"><ele>1000.25</ele><time>2026-04-25T14:33:14.957Z</time></trkpt><trkpt lat="46.40856" lon="13.5337083"><ele>1000.0</ele><time>2026-04-25T14:33:15.957Z</time></trkpt><trkpt lat="46.408665" lon="13.5337383"><ele>1001.25</ele><time>2026-04-25T14:33:16.957Z</time></trkpt><trkpt lat="46.408755" lon="13.5338167"><ele>1002.5</ele><time>2026-04-25T14:33:17.957Z</time></trkpt><trkpt lat="46.4088417" lon="13.5339317"><ele>1003.75</ele><time>2026-04-25T14:33:18.957Z</time></trkpt><trkpt lat="46.408925" lon="13.5340733"><ele>1005.0</ele><time>2026-04-25T14:33:19.957Z</time></trkpt><trkpt lat="46.4090033" lon="13.5342433"><ele>1005.0</ele><time>2026-04-25T14:33:20.957Z</time></trkpt><trkpt lat="46.4090883" lon="13.53443"><ele>1005.0</ele><time>2026-04-25T14:33:21.956Z</time></trkpt><trkpt lat="46.4091783" lon="13.5346267"><ele>1005.0</ele><time>2026-04-25T14:33:22.958Z</time></trkpt><trkpt lat="46.4092683" lon="13.5348333"><ele>1001.0</ele><time>2026-04-25T14:33:23.957Z</time></trkpt><trkpt lat="46.4093583" lon="13.53504"><ele>997.0</ele><time>2026-04-25T14:33:24.957Z</time></trkpt><trkpt lat="46.4094433" lon="13.535235"><ele>993.0</ele><time>2026-04-25T14:33:25.956Z</time></trkpt><trkpt lat="46.409525" lon="13.5354117"><ele>991.8</ele><time>2026-04-25T14:33:26.956Z</time></trkpt><trkpt lat="46.4095967" lon="13.535565"><ele>990.5999999999999</ele><time>2026-04-25T14:33:27.958Z</time></trkpt><trkpt lat="46.40966" lon="13.5357033"><ele>989.4000000000001</ele><time>2026-04-25T14:33:28.958Z</time></trkpt><trkpt lat="46.4097017" lon="13.5358367"><ele>988.2</ele><time>2026-04-25T14:33:29.957Z</time></trkpt><trkpt lat="46.4097083" lon="13.5359667"><ele>987.0</ele><time>2026-04-25T14:33:30.957Z</time></trkpt><trkpt lat="46.4096883" lon="13.5360817"><ele>987.0</ele><time>2026-04-25T14:33:31.957Z</time></trkpt><trkpt lat="46.4096233" lon="13.536185"><ele>987.0</ele><time>2026-04-25T14:33:32.958Z</time></trkpt><trkpt lat="46.4095433" lon="13.5363083"><ele>987.0</ele><time>2026-04-25T14:33:33.959Z</time></trkpt><trkpt lat="46.40946" lon="13.536445"><ele>987.0</ele><time>2026-04-25T14:33:34.958Z</time></trkpt><trkpt lat="46.4093817" lon="13.5365917"><ele>990.0</ele><time>2026-04-25T14:33:35.957Z</time></trkpt><trkpt lat="46.4093117" lon="13.53676"><ele>993.0</ele><time>2026-04-25T14:33:36.957Z</time></trkpt><trkpt lat="46.409255" lon="13.536945"><ele>996.0</ele><time>2026-04-25T14:33:37.957Z</time></trkpt><trkpt lat="46.4092267" lon="13.5371433"><ele>999.0</ele><time>2026-04-25T14:33:38.957Z</time></trkpt><trkpt lat="46.4092233" lon="13.5373567"><ele>997.6666666666667</ele><time>2026-04-25T14:33:39.957Z</time></trkpt><trkpt lat="46.40925" lon="13.5375683"><ele>996.3333333333334</ele><time>2026-04-25T14:33:40.957Z</time></trkpt><trkpt lat="46.409295" lon="13.5377867"><ele>995.0</ele><time>2026-04-25T14:33:41.956Z</time></trkpt><trkpt lat="46.4093417" lon="13.5380133"><ele>995.0</ele><time>2026-04-25T14:33:42.956Z</time></trkpt><trkpt lat="46.4093917" lon="13.5382517"><ele>995.0</ele><time>2026-04-25T14:33:43.956Z</time></trkpt><trkpt lat="46.4094467" lon="13.5385017"><ele>995.0</ele><time>2026-04-25T14:33:44.958Z</time></trkpt><trkpt lat="46.4095033" lon="13.5387583"><ele>992.6666666666667</ele><time>2026-04-25T14:33:45.959Z</time></trkpt><trkpt lat="46.40956" lon="13.5390183"><ele>990.3333333333333</ele><time>2026-04-25T14:33:46.957Z</time></trkpt><trkpt lat="46.4096167" lon="13.5392883"><ele>988.0</ele><time>2026-04-25T14:33:47.956Z</time></trkpt><trkpt lat="46.4096767" lon="13.5395583"><ele>990.3333333333333</ele><time>2026-04-25T14:33:48.957Z</time></trkpt><trkpt lat="46.4097383" lon="13.5398317"><ele>992.6666666666667</ele><time>2026-04-25T14:33:49.958Z</time></trkpt><trkpt lat="46.4098017" lon="13.5401083"><ele>995.0</ele><time>2026-04-25T14:33:50.957Z</time></trkpt><trkpt lat="46.4098667" lon="13.5403833"><ele>995.0</ele><time>2026-04-25T14:33:51.956Z</time></trkpt><trkpt lat="46.4099383" lon="13.5406533"><ele>995.0</ele><time>2026-04-25T14:33:52.958Z</time></trkpt><trkpt lat="46.4100183" lon="13.5409183"><ele>995.0</ele><time>2026-04-25T14:33:53.957Z</time></trkpt><trkpt lat="46.4101133" lon="13.5411767"><ele>989.3333333333334</ele><time>2026-04-25T14:33:54.957Z</time></trkpt><trkpt lat="46.410215" lon="13.541415"><ele>983.6666666666667</ele><time>2026-04-25T14:33:55.957Z</time></trkpt><trkpt lat="46.410305" lon="13.5416533"><ele>978.0</ele><time>2026-04-25T14:33:56.956Z</time></trkpt><trkpt lat="46.4103817" lon="13.5418967"><ele>975.0</ele><time>2026-04-25T14:33:57.957Z</time></trkpt><trkpt lat="46.4104517" lon="13.5421417"><ele>972.0</ele><time>2026-04-25T14:33:58.958Z</time></trkpt><trkpt lat="46.41053" lon="13.5423817"><ele>969.0</ele><time>2026-04-25T14:33:59.956Z</time></trkpt><trkpt lat="46.410625" lon="13.5426133"><ele>973.0</ele><time>2026-04-25T14:34:00.955Z</time></trkpt><trkpt lat="46.41073" lon="13.5428417"><ele>977.0</ele><time>2026-04-25T14:34:01.957Z</time></trkpt><trkpt lat="46.4108367" lon="13.543065"><ele>981.0</ele><time>2026-04-25T14:34:02.957Z</time></trkpt><trkpt lat="46.4109467" lon="13.5432933"><ele>981.0</ele><time>2026-04-25T14:34:03.957Z</time></trkpt><trkpt lat="46.4110633" lon="13.5435167"><ele>981.0</ele><time>2026-04-25T14:34:04.956Z</time></trkpt><trkpt lat="46.411185" lon="13.543735"><ele>981.0</ele><time>2026-04-25T14:34:05.956Z</time></trkpt><trkpt lat="46.4113133" lon="13.5439433"><ele>981.6666666666667</ele><time>2026-04-25T14:34:06.956Z</time></trkpt><trkpt lat="46.4114433" lon="13.5441483"><ele>982.3333333333334</ele><time>2026-04-25T14:34:07.957Z</time></trkpt><trkpt lat="46.4115683" lon="13.5443533"><ele>983.0</ele><time>2026-04-25T14:34:08.957Z</time></trkpt><trkpt lat="46.4116933" lon="13.5445467"><ele>983.0</ele><time>2026-04-25T14:34:09.957Z</time></trkpt><trkpt lat="46.41181" lon="13.5447333"><ele>983.0</ele><time>2026-04-25T14:34:10.957Z</time></trkpt><trkpt lat="46.4119183" lon="13.5449217"><ele>983.0</ele><time>2026-04-25T14:34:11.957Z</time></trkpt><trkpt lat="46.4120067" lon="13.5451317"><ele>983.0</ele><time>2026-04-25T14:34:12.955Z</time></trkpt><trkpt lat="46.412085" lon="13.5453633"><ele>983.0</ele><time>2026-04-25T14:34:13.955Z</time></trkpt><trkpt lat="46.4121667" lon="13.5455983"><ele>983.0</ele><time>2026-04-25T14:34:14.957Z</time></trkpt><trkpt lat="46.4122667" lon="13.5458317"><ele>984.6666666666667</ele><time>2026-04-25T14:34:15.956Z</time></trkpt><trkpt lat="46.4123817" lon="13.546065"><ele>986.3333333333333</ele><time>2026-04-25T14:34:16.955Z</time></trkpt><trkpt lat="46.4124983" lon="13.54631"><ele>988.0</ele><time>2026-04-25T14:34:17.957Z</time></trkpt><trkpt lat="46.4126133" lon="13.54656"><ele>988.0</ele><time>2026-04-25T14:34:18.956Z</time></trkpt><trkpt lat="46.41273" lon="13.546805"><ele>988.0</ele><time>2026-04-25T14:34:19.956Z</time></trkpt><trkpt lat="46.412845" lon="13.54706"><ele>988.0</ele><time>2026-04-25T14:34:20.956Z</time></trkpt><trkpt lat="46.41296" lon="13.54732"><ele>986.3333333333333</ele><time>2026-04-25T14:34:21.955Z</time></trkpt><trkpt lat="46.4130767" lon="13.5475767"><ele>984.6666666666667</ele><time>2026-04-25T14:34:22.956Z</time></trkpt><trkpt lat="46.4131917" lon="13.5478317"><ele>983.0</ele><time>2026-04-25T14:34:23.956Z</time></trkpt><trkpt lat="46.41331" lon="13.5480767"><ele>983.0</ele><time>2026-04-25T14:34:24.955Z</time></trkpt><trkpt lat="46.4134267" lon="13.54831"><ele>983.0</ele><time>2026-04-25T14:34:25.956Z</time></trkpt><trkpt lat="46.4135333" lon="13.5485433"><ele>983.0</ele><time>2026-04-25T14:34:26.956Z</time></trkpt><trkpt lat="46.4136383" lon="13.54878"><ele>980.0</ele><time>2026-04-25T14:34:27.956Z</time></trkpt><trkpt lat="46.4137467" lon="13.549015"><ele>977.0</ele><time>2026-04-25T14:34:28.956Z</time></trkpt><trkpt lat="46.413855" lon="13.5492517"><ele>974.0</ele><time>2026-04-25T14:34:29.955Z</time></trkpt><trkpt lat="46.41396" lon="13.5494833"><ele>978.3333333333334</ele><time>2026-04-25T14:34:30.956Z</time></trkpt><trkpt lat="46.4140667" lon="13.5497117"><ele>982.6666666666667</ele><time>2026-04-25T14:34:31.956Z</time></trkpt><trkpt lat="46.4141683" lon="13.54994"><ele>987.0</ele><time>2026-04-25T14:34:32.957Z</time></trkpt><trkpt lat="46.41427" lon="13.5501567"><ele>987.0</ele><time>2026-04-25T14:34:33.955Z</time></trkpt><trkpt lat="46.4143667" lon="13.5503633"><ele>987.0</ele><time>2026-04-25T14:34:34.957Z</time></trkpt><trkpt lat="46.4144583" lon="13.5505583"><ele>987.0</ele><time>2026-04-25T14:34:35.958Z</time></trkpt><trkpt lat="46.4145433" lon="13.5507517"><ele>984.0</ele><time>2026-04-25T14:34:36.957Z</time></trkpt><trkpt lat="46.4146117" lon="13.5509583"><ele>981.0</ele><time>2026-04-25T14:34:37.957Z</time></trkpt><trkpt lat="46.4146617" lon="13.5511783"><ele>978.0</ele><time>2026-04-25T14:34:38.957Z</time></trkpt><trkpt lat="46.4146933" lon="13.5513983"><ele>980.0</ele><time>2026-04-25T14:34:39.957Z</time></trkpt><trkpt lat="46.4147117" lon="13.5516167"><ele>982.0</ele><time>2026-04-25T14:34:40.958Z</time></trkpt><trkpt lat="46.4147333" lon="13.5518233"><ele>984.0</ele><time>2026-04-25T14:34:41.956Z</time></trkpt><trkpt lat="46.4147667" lon="13.5520133"><ele>986.0</ele><time>2026-04-25T14:34:42.956Z</time></trkpt><trkpt lat="46.4148233" lon="13.5521983"><ele>986.0</ele><time>2026-04-25T14:34:43.957Z</time></trkpt><trkpt lat="46.4149033" lon="13.55238"><ele>986.0</ele><time>2026-04-25T14:34:44.956Z</time></trkpt><trkpt lat="46.415005" lon="13.552555"><ele>986.0</ele><time>2026-04-25T14:34:45.956Z</time></trkpt><trkpt lat="46.415115" lon="13.55273"><ele>981.6666666666667</ele><time>2026-04-25T14:34:46.957Z</time></trkpt><trkpt lat="46.4152183" lon="13.5529217"><ele>977.3333333333333</ele><time>2026-04-25T14:34:47.957Z</time></trkpt><trkpt lat="46.4153067" lon="13.5531333"><ele>973.0</ele><time>2026-04-25T14:34:48.956Z</time></trkpt><trkpt lat="46.41538" lon="13.5533567"><ele>973.0</ele><time>2026-04-25T14:34:49.955Z</time></trkpt><trkpt lat="46.4154533" lon="13.5535867"><ele>973.0</ele><time>2026-04-25T14:34:50.956Z</time></trkpt><trkpt lat="46.415525" lon="13.5538217"><ele>973.0</ele><time>2026-04-25T14:34:51.957Z</time></trkpt><trkpt lat="46.41559" lon="13.55405"><ele>973.6666666666666</ele><time>2026-04-25T14:34:52.957Z</time></trkpt><trkpt lat="46.41565" lon="13.5542633"><ele>974.3333333333333</ele><time>2026-04-25T14:34:53.956Z</time></trkpt><trkpt lat="46.4157133" lon="13.5544667"><ele>975.0</ele><time>2026-04-25T14:34:54.956Z</time></trkpt><trkpt lat="46.4157933" lon="13.55465"><ele>975.0</ele><time>2026-04-25T14:34:55.956Z</time></trkpt><trkpt lat="46.4158883" lon="13.5548233"><ele>975.0</ele><time>2026-04-25T14:34:56.956Z</time></trkpt><trkpt lat="46.4159933" lon="13.5549867"><ele>975.0</ele><time>2026-04-25T14:34:57.957Z</time></trkpt><trkpt lat="46.4161067" lon="13.5551633"><ele>975.0</ele><time>2026-04-25T14:34:58.957Z</time></trkpt><trkpt lat="46.4162267" lon="13.5553483"><ele>975.0</ele><time>2026-04-25T14:34:59.957Z</time></trkpt><trkpt lat="46.41635" lon="13.5555383"><ele>975.0</ele><time>2026-04-25T14:35:00.956Z</time></trkpt><trkpt lat="46.416475" lon="13.5557383"><ele>977.0</ele><time>2026-04-25T14:35:01.957Z</time></trkpt><trkpt lat="46.4166017" lon="13.5559433"><ele>979.0</ele><time>2026-04-25T14:35:02.957Z</time></trkpt><trkpt lat="46.4167333" lon="13.5561417"><ele>981.0</ele><time>2026-04-25T14:35:03.957Z</time></trkpt><trkpt lat="46.4168617" lon="13.5563383"><ele>985.3333333333333</ele><time>2026-04-25T14:35:04.957Z</time></trkpt><trkpt lat="46.4169883" lon="13.55653"><ele>989.6666666666666</ele><time>2026-04-25T14:35:05.956Z</time></trkpt><trkpt lat="46.417115" lon="13.556715"><ele>994.0</ele><time>2026-04-25T14:35:06.957Z</time></trkpt><trkpt lat="46.417245" lon="13.556895"><ele>986.6666666666666</ele><time>2026-04-25T14:35:07.957Z</time></trkpt><trkpt lat="46.417375" lon="13.5570783"><ele>979.3333333333333</ele><time>2026-04-25T14:35:08.956Z</time></trkpt><trkpt lat="46.4174983" lon="13.5572567"><ele>972.0</ele><time>2026-04-25T14:35:09.957Z</time></trkpt><trkpt lat="46.4176167" lon="13.5574233"><ele>972.0</ele><time>2026-04-25T14:35:10.956Z</time></trkpt><trkpt lat="46.4177283" lon="13.5575867"><ele>972.0</ele><time>2026-04-25T14:35:11.957Z</time></trkpt><trkpt lat="46.417835" lon="13.5577383"><ele>972.0</ele><time>2026-04-25T14:35:12.956Z</time></trkpt><trkpt lat="46.4179367" lon="13.5578883"><ele>973.5</ele><time>2026-04-25T14:35:13.957Z</time></trkpt><trkpt lat="46.4180283" lon="13.55804"><ele>975.0</ele><time>2026-04-25T14:35:14.957Z</time></trkpt><trkpt lat="46.4181117" lon="13.55819"><ele>976.5</ele><time>2026-04-25T14:35:15.957Z</time></trkpt><trkpt lat="46.4181817" lon="13.5583467"><ele>978.0</ele><time>2026-04-25T14:35:16.956Z</time></trkpt><trkpt lat="46.418245" lon="13.5585067"><ele>978.0</ele><time>2026-04-25T14:35:17.957Z</time></trkpt><trkpt lat="46.4183017" lon="13.5586617"><ele>978.0</ele><time>2026-04-25T14:35:18.957Z</time></trkpt><trkpt lat="46.41836" lon="13.5588133"><ele>978.0</ele><time>2026-04-25T14:35:19.956Z</time></trkpt><trkpt lat="46.4184283" lon="13.5589517"><ele>978.0</ele><time>2026-04-25T14:35:20.957Z</time></trkpt><trkpt lat="46.4185133" lon="13.5590883"><ele>980.75</ele><time>2026-04-25T14:35:21.958Z</time></trkpt><trkpt lat="46.4186083" lon="13.5592217"><ele>983.5</ele><time>2026-04-25T14:35:22.958Z</time></trkpt><trkpt lat="46.4187133" lon="13.55936"><ele>986.25</ele><time>2026-04-25T14:35:23.957Z</time></trkpt><trkpt lat="46.4188233" lon="13.5595083"><ele>989.0</ele><time>2026-04-25T14:35:24.957Z</time></trkpt><trkpt lat="46.41894" lon="13.5596583"><ele>981.6666666666667</ele><time>2026-04-25T14:35:25.956Z</time></trkpt><trkpt lat="46.4190583" lon="13.55981"><ele>974.3333333333333</ele><time>2026-04-25T14:35:26.957Z</time></trkpt><trkpt lat="46.419185" lon="13.5599633"><ele>967.0</ele><time>2026-04-25T14:35:27.957Z</time></trkpt><trkpt lat="46.41931" lon="13.5601183"><ele>967.0</ele><time>2026-04-25T14:35:28.957Z</time></trkpt><trkpt lat="46.4194317" lon="13.5602767"><ele>967.0</ele><time>2026-04-25T14:35:29.955Z</time></trkpt><trkpt lat="46.4195533" lon="13.5604333"><ele>967.0</ele><time>2026-04-25T14:35:30.957Z</time></trkpt><trkpt lat="46.4196717" lon="13.5605817"><ele>969.25</ele><time>2026-04-25T14:35:31.956Z</time></trkpt><trkpt lat="46.4197817" lon="13.5607317"><ele>971.5</ele><time>2026-04-25T14:35:32.956Z</time></trkpt><trkpt lat="46.41989" lon="13.560875"><ele>973.75</ele><time>2026-04-25T14:35:33.957Z</time></trkpt><trkpt lat="46.419995" lon="13.5610133"><ele>976.0</ele><time>2026-04-25T14:35:34.957Z</time></trkpt><trkpt lat="46.4201" lon="13.5611517"><ele>977.0</ele><time>2026-04-25T14:35:35.956Z</time></trkpt><trkpt lat="46.4202067" lon="13.5612867"><ele>978.0</ele><time>2026-04-25T14:35:36.956Z</time></trkpt><trkpt lat="46.4203167" lon="13.5614217"><ele>979.0</ele><time>2026-04-25T14:35:37.957Z</time></trkpt><trkpt lat="46.42043" lon="13.561555"><ele>980.0</ele><time>2026-04-25T14:35:38.956Z</time></trkpt><trkpt lat="46.4205483" lon="13.5616883"><ele>980.0</ele><time>2026-04-25T14:35:39.957Z</time></trkpt><trkpt lat="46.4206717" lon="13.5618167"><ele>980.0</ele><time>2026-04-25T14:35:40.958Z</time></trkpt><trkpt lat="46.4208017" lon="13.5619483"><ele>980.0</ele><time>2026-04-25T14:35:41.956Z</time></trkpt><trkpt lat="46.4209317" lon="13.5620783"><ele>978.3333333333334</ele><time>2026-04-25T14:35:42.957Z</time></trkpt><trkpt lat="46.421065" lon="13.5622033"><ele>976.6666666666667</ele><time>2026-04-25T14:35:43.958Z</time></trkpt><trkpt lat="46.4212017" lon="13.5623267"><ele>975.0</ele><time>2026-04-25T14:35:44.956Z</time></trkpt><trkpt lat="46.421335" lon="13.56245"><ele>975.0</ele><time>2026-04-25T14:35:45.957Z</time></trkpt><trkpt lat="46.4214683" lon="13.5625683"><ele>975.0</ele><time>2026-04-25T14:35:46.957Z</time></trkpt><trkpt lat="46.4216033" lon="13.562685"><ele>975.0</ele><time>2026-04-25T14:35:47.956Z</time></trkpt><trkpt lat="46.4217367" lon="13.5628017"><ele>971.3333333333333</ele><time>2026-04-25T14:35:48.957Z</time></trkpt><trkpt lat="46.4218783" lon="13.56291"><ele>967.6666666666666</ele><time>2026-04-25T14:35:49.956Z</time></trkpt><trkpt lat="46.4220267" lon="13.563015"><ele>964.0</ele><time>2026-04-25T14:35:50.957Z</time></trkpt><trkpt lat="46.4221817" lon="13.5631133"><ele>964.0</ele><time>2026-04-25T14:35:51.956Z</time></trkpt><trkpt lat="46.4223383" lon="13.563205"><ele>964.0</ele><time>2026-04-25T14:35:52.957Z</time></trkpt><trkpt lat="46.4224967" lon="13.56329"><ele>964.0</ele><time>2026-04-25T14:35:53.956Z</time></trkpt><trkpt lat="46.4226517" lon="13.5633683"><ele>964.0</ele><time>2026-04-25T14:35:54.957Z</time></trkpt><trkpt lat="46.4228067" lon="13.5634417"><ele>964.0</ele><time>2026-04-25T14:35:55.957Z</time></trkpt><trkpt lat="46.4229583" lon="13.5635067"><ele>964.0</ele><time>2026-04-25T14:35:56.956Z</time></trkpt><trkpt lat="46.4231033" lon="13.56356"><ele>962.5</ele><time>2026-04-25T14:35:57.955Z</time></trkpt><trkpt lat="46.423245" lon="13.5635967"><ele>961.0</ele><time>2026-04-25T14:35:58.958Z</time></trkpt><trkpt lat="46.4233767" lon="13.56363"><ele>959.5</ele><time>2026-04-25T14:35:59.956Z</time></trkpt><trkpt lat="46.4235" lon="13.5636767"><ele>958.0</ele><time>2026-04-25T14:36:00.957Z</time></trkpt><trkpt lat="46.4236033" lon="13.5637667"><ele>958.0</ele><time>2026-04-25T14:36:01.957Z</time></trkpt><trkpt lat="46.4236933" lon="13.56389"><ele>958.0</ele><time>2026-04-25T14:36:02.956Z</time></trkpt><trkpt lat="46.4237667" lon="13.5640483"><ele>958.0</ele><time>2026-04-25T14:36:03.957Z</time></trkpt><trkpt lat="46.4238283" lon="13.56423"><ele>958.0</ele><time>2026-04-25T14:36:04.957Z</time></trkpt><trkpt lat="46.4238867" lon="13.5644217"><ele>961.5</ele><time>2026-04-25T14:36:05.955Z</time></trkpt><trkpt lat="46.4239417" lon="13.56462"><ele>965.0</ele><time>2026-04-25T14:36:06.956Z</time></trkpt><trkpt lat="46.4239967" lon="13.5648183"><ele>968.5</ele><time>2026-04-25T14:36:07.956Z</time></trkpt><trkpt lat="46.42405" lon="13.565005"><ele>972.0</ele><time>2026-04-25T14:36:08.956Z</time></trkpt><trkpt lat="46.4241083" lon="13.5651767"><ele>972.0</ele><time>2026-04-25T14:36:09.957Z</time></trkpt><trkpt lat="46.4241767" lon="13.5653317"><ele>972.0</ele><time>2026-04-25T14:36:10.957Z</time></trkpt><trkpt lat="46.4242617" lon="13.565465"><ele>972.0</ele><time>2026-04-25T14:36:11.957Z</time></trkpt><trkpt lat="46.42437" lon="13.5655717"><ele>972.0</ele><time>2026-04-25T14:36:12.957Z</time></trkpt><trkpt lat="46.4244883" lon="13.5656483"><ele>970.25</ele><time>2026-04-25T14:36:13.957Z</time></trkpt><trkpt lat="46.4246233" lon="13.5657"><ele>968.5</ele><time>2026-04-25T14:36:14.958Z</time></trkpt><trkpt lat="46.4247583" lon="13.5657367"><ele>966.75</ele><time>2026-04-25T14:36:15.959Z</time></trkpt><trkpt lat="46.4248883" lon="13.5657667"><ele>965.0</ele><time>2026-04-25T14:36:16.958Z</time></trkpt><trkpt lat="46.4250217" lon="13.5657767"><ele>965.0</ele><time>2026-04-25T14:36:17.959Z</time></trkpt><trkpt lat="46.4251517" lon="13.5657467"><ele>965.0</ele><time>2026-04-25T14:36:18.957Z</time></trkpt><trkpt lat="46.4252767" lon="13.5656783"><ele>965.0</ele><time>2026-04-25T14:36:19.958Z</time></trkpt><trkpt lat="46.4254" lon="13.5655783"><ele>965.0</ele><time>2026-04-25T14:36:20.958Z</time></trkpt><trkpt lat="46.4255133" lon="13.5654733"><ele>964.5</ele><time>2026-04-25T14:36:21.958Z</time></trkpt><trkpt lat="46.42562" lon="13.5653783"><ele>964.0</ele><time>2026-04-25T14:36:22.959Z</time></trkpt><trkpt lat="46.4257267" lon="13.5652967"><ele>963.5</ele><time>2026-04-25T14:36:23.958Z</time></trkpt><trkpt lat="46.4258317" lon="13.5652483"><ele>963.0</ele><time>2026-04-25T14:36:24.957Z</time></trkpt><trkpt lat="46.4259367" lon="13.565235"><ele>964.5</ele><time>2026-04-25T14:36:25.957Z</time></trkpt><trkpt lat="46.4260533" lon="13.5652533"><ele>966.0</ele><time>2026-04-25T14:36:26.957Z</time></trkpt><trkpt lat="46.4261783" lon="13.5652867"><ele>967.5</ele><time>2026-04-25T14:36:27.957Z</time></trkpt><trkpt lat="46.4263083" lon="13.5653333"><ele>969.0</ele><time>2026-04-25T14:36:28.958Z</time></trkpt><trkpt lat="46.42644" lon="13.56539"><ele>969.0</ele><time>2026-04-25T14:36:29.958Z</time></trkpt><trkpt lat="46.42657" lon="13.5654583"><ele>969.0</ele><time>2026-04-25T14:36:30.957Z</time></trkpt><trkpt lat="46.4267033" lon="13.5655283"><ele>969.0</ele><time>2026-04-25T14:36:31.958Z</time></trkpt><trkpt lat="46.4268383" lon="13.5656017"><ele>969.0</ele><time>2026-04-25T14:36:32.957Z</time></trkpt><trkpt lat="46.42697" lon="13.5656667"><ele>969.0</ele><time>2026-04-25T14:36:33.957Z</time></trkpt><trkpt lat="46.4270967" lon="13.5657267"><ele>969.0</ele><time>2026-04-25T14:36:34.959Z</time></trkpt><trkpt lat="46.42721" lon="13.5658067"><ele>969.0</ele><time>2026-04-25T14:36:35.958Z</time></trkpt><trkpt lat="46.42733" lon="13.56588"><ele>969.0</ele><time>2026-04-25T14:36:36.956Z</time></trkpt><trkpt lat="46.42745" lon="13.5659467"><ele>968.75</ele><time>2026-04-25T14:36:37.959Z</time></trkpt><trkpt lat="46.427565" lon="13.566015"><ele>968.5</ele><time>2026-04-25T14:36:38.958Z</time></trkpt><trkpt lat="46.42768" lon="13.5660867"><ele>968.25</ele><time>2026-04-25T14:36:39.957Z</time></trkpt><trkpt lat="46.4277933" lon="13.566155"><ele>968.0</ele><time>2026-04-25T14:36:40.958Z</time></trkpt><trkpt lat="46.427905" lon="13.5662183"><ele>969.4</ele><time>2026-04-25T14:36:41.958Z</time></trkpt><trkpt lat="46.4280183" lon="13.5662733"><ele>970.8</ele><time>2026-04-25T14:36:42.958Z</time></trkpt><trkpt lat="46.4281267" lon="13.5663283"><ele>972.2</ele><time>2026-04-25T14:36:43.958Z</time></trkpt><trkpt lat="46.4282317" lon="13.5663767"><ele>973.6</ele><time>2026-04-25T14:36:44.958Z</time></trkpt><trkpt lat="46.42833" lon="13.5664183"><ele>975.0</ele><time>2026-04-25T14:36:45.958Z</time></trkpt><trkpt lat="46.42842" lon="13.56646"><ele>975.0</ele><time>2026-04-25T14:36:46.958Z</time></trkpt><trkpt lat="46.4284983" lon="13.566505"><ele>975.0</ele><time>2026-04-25T14:36:47.957Z</time></trkpt><trkpt lat="46.4285633" lon="13.5665533"><ele>975.0</ele><time>2026-04-25T14:36:48.958Z</time></trkpt><trkpt lat="46.4286567" lon="13.5666517"><ele>975.0</ele><time>2026-04-25T14:36:50.959Z</time></trkpt><trkpt lat="46.4287" lon="13.566765"><ele>975.0</ele><time>2026-04-25T14:36:52.959Z</time></trkpt><trkpt lat="46.4286667" lon="13.5669283"><ele>974.4</ele><time>2026-04-25T14:36:54.958Z</time></trkpt><trkpt lat="46.4286267" lon="13.56703"><ele>973.8</ele><time>2026-04-25T14:36:55.959Z</time></trkpt><trkpt lat="46.4285767" lon="13.567155"><ele>973.2</ele><time>2026-04-25T14:36:56.958Z</time></trkpt><trkpt lat="46.4285167" lon="13.567305"><ele>972.6</ele><time>2026-04-25T14:36:57.957Z</time></trkpt><trkpt lat="46.42845" lon="13.56747"><ele>972.0</ele><time>2026-04-25T14:36:58.956Z</time></trkpt><trkpt lat="46.4283683" lon="13.56764"><ele>972.0</ele><time>2026-04-25T14:36:59.956Z</time></trkpt><trkpt lat="46.428275" lon="13.5678017"><ele>972.0</ele><time>2026-04-25T14:37:00.958Z</time></trkpt><trkpt lat="46.4281733" lon="13.56795"><ele>972.0</ele><time>2026-04-25T14:37:01.956Z</time></trkpt><trkpt lat="46.4280583" lon="13.5680983"><ele>972.0</ele><time>2026-04-25T14:37:02.956Z</time></trkpt><trkpt lat="46.4279417" lon="13.5682483"><ele>972.3333333333333</ele><time>2026-04-25T14:37:03.957Z</time></trkpt><trkpt lat="46.4278233" lon="13.568405"><ele>972.6666666666666</ele><time>2026-04-25T14:37:04.958Z</time></trkpt><trkpt lat="46.4277183" lon="13.5685583"><ele>973.0</ele><time>2026-04-25T14:37:05.956Z</time></trkpt><trkpt lat="46.4276167" lon="13.56871"><ele>973.5</ele><time>2026-04-25T14:37:06.956Z</time></trkpt><trkpt lat="46.4275167" lon="13.5688583"><ele>974.0</ele><time>2026-04-25T14:37:07.956Z</time></trkpt><trkpt lat="46.4274117" lon="13.5689833"><ele>974.5</ele><time>2026-04-25T14:37:08.955Z</time></trkpt><trkpt lat="46.4272967" lon="13.5690683"><ele>975.0</ele><time>2026-04-25T14:37:09.957Z</time></trkpt><trkpt lat="46.42717" lon="13.5691233"><ele>973.5</ele><time>2026-04-25T14:37:10.958Z</time></trkpt><trkpt lat="46.42704" lon="13.5691783"><ele>972.0</ele><time>2026-04-25T14:37:11.957Z</time></trkpt><trkpt lat="46.42691" lon="13.569255"><ele>970.5</ele><time>2026-04-25T14:37:12.956Z</time></trkpt><trkpt lat="46.4267933" lon="13.56936"><ele>969.0</ele><time>2026-04-25T14:37:13.956Z</time></trkpt><trkpt lat="46.4266817" lon="13.5694767"><ele>973.75</ele><time>2026-04-25T14:37:14.957Z</time></trkpt><trkpt lat="46.4265583" lon="13.569575"><ele>978.5</ele><time>2026-04-25T14:37:15.957Z</time></trkpt><trkpt lat="46.42643" lon="13.569655"><ele>983.25</ele><time>2026-04-25T14:37:16.959Z</time></trkpt><trkpt lat="46.426295" lon="13.5697083"><ele>988.0</ele><time>2026-04-25T14:37:17.957Z</time></trkpt><trkpt lat="46.4261567" lon="13.56973"><ele>988.5</ele><time>2026-04-25T14:37:18.959Z</time></trkpt><trkpt lat="46.426025" lon="13.56974"><ele>989.0</ele><time>2026-04-25T14:37:19.957Z</time></trkpt><trkpt lat="46.4258883" lon="13.5697483"><ele>989.5</ele><time>2026-04-25T14:37:20.958Z</time></trkpt><trkpt lat="46.425745" lon="13.5697483"><ele>990.0</ele><time>2026-04-25T14:37:21.957Z</time></trkpt><trkpt lat="46.4255967" lon="13.5697583"><ele>988.5</ele><time>2026-04-25T14:37:22.959Z</time></trkpt><trkpt lat="46.4254517" lon="13.56979"><ele>987.0</ele><time>2026-04-25T14:37:23.957Z</time></trkpt><trkpt lat="46.4253083" lon="13.5698317"><ele>985.5</ele><time>2026-04-25T14:37:24.958Z</time></trkpt><trkpt lat="46.4251633" lon="13.569895"><ele>984.0</ele><time>2026-04-25T14:37:25.958Z</time></trkpt><trkpt lat="46.4250233" lon="13.56998"><ele>984.0</ele><time>2026-04-25T14:37:26.958Z</time></trkpt><trkpt lat="46.42489" lon="13.5700917"><ele>984.0</ele><time>2026-04-25T14:37:27.955Z</time></trkpt><trkpt lat="46.42477" lon="13.57024"><ele>984.0</ele><time>2026-04-25T14:37:28.956Z</time></trkpt><trkpt lat="46.42466" lon="13.5704117"><ele>995.75</ele><time>2026-04-25T14:37:29.957Z</time></trkpt><trkpt lat="46.42457" lon="13.5705883"><ele>1007.5</ele><time>2026-04-25T14:37:30.957Z</time></trkpt><trkpt lat="46.4244917" lon="13.5707667"><ele>1019.25</ele><time>2026-04-25T14:37:31.957Z</time></trkpt><trkpt lat="46.42442" lon="13.5709317"><ele>1031.0</ele><time>2026-04-25T14:37:32.957Z</time></trkpt><trkpt lat="46.4243517" lon="13.5710967"><ele>1036.25</ele><time>2026-04-25T14:37:33.957Z</time></trkpt><trkpt lat="46.4242883" lon="13.5712583"><ele>1041.5</ele><time>2026-04-25T14:37:34.957Z</time></trkpt><trkpt lat="46.424225" lon="13.5714217"><ele>1046.75</ele><time>2026-04-25T14:37:35.957Z</time></trkpt><trkpt lat="46.42416" lon="13.571585"><ele>1052.0</ele><time>2026-04-25T14:37:36.956Z</time></trkpt><trkpt lat="46.4230833" lon="13.5706717"><ele>1051.6666666666667</ele><time>2026-04-25T14:37:45.957Z</time></trkpt><trkpt lat="46.42291" lon="13.5705733"><ele>1051.3333333333333</ele><time>2026-04-25T14:37:46.956Z</time></trkpt><trkpt lat="46.4227233" lon="13.5705067"><ele>1051.0</ele><time>2026-04-25T14:37:47.956Z</time></trkpt><trkpt lat="46.42256" lon="13.5704833"><ele>1051.0</ele><time>2026-04-25T14:37:48.957Z</time></trkpt><trkpt lat="46.422415" lon="13.5704767"><ele>1051.0</ele><time>2026-04-25T14:37:49.957Z</time></trkpt><trkpt lat="46.4222717" lon="13.5704533"><ele>1051.0</ele><time>2026-04-25T14:37:50.956Z</time></trkpt><trkpt lat="46.4221417" lon="13.5704433"><ele>1051.0</ele><time>2026-04-25T14:37:51.958Z</time></trkpt><trkpt lat="46.4220217" lon="13.57046"><ele>1048.25</ele><time>2026-04-25T14:37:52.957Z</time></trkpt><trkpt lat="46.421915" lon="13.5705133"><ele>1045.5</ele><time>2026-04-25T14:37:53.956Z</time></trkpt><trkpt lat="46.42182" lon="13.5705917"><ele>1042.75</ele><time>2026-04-25T14:37:54.956Z</time></trkpt><trkpt lat="46.4217233" lon="13.5706783"><ele>1040.0</ele><time>2026-04-25T14:37:55.957Z</time></trkpt><trkpt lat="46.4216233" lon="13.5707667"><ele>1040.0</ele><time>2026-04-25T14:37:56.956Z</time></trkpt><trkpt lat="46.4215267" lon="13.5708317"><ele>1040.0</ele><time>2026-04-25T14:37:57.957Z</time></trkpt><trkpt lat="46.4214283" lon="13.5708783"><ele>1040.0</ele><time>2026-04-25T14:37:58.958Z</time></trkpt><trkpt lat="46.4213333" lon="13.5708933"><ele>1040.0</ele><time>2026-04-25T14:37:59.957Z</time></trkpt><trkpt lat="46.4212367" lon="13.57088"><ele>1040.0</ele><time>2026-04-25T14:38:00.957Z</time></trkpt><trkpt lat="46.4211417" lon="13.57083"><ele>1041.8333333333335</ele><time>2026-04-25T14:38:01.958Z</time></trkpt><trkpt lat="46.42105" lon="13.570755"><ele>1043.6666666666667</ele><time>2026-04-25T14:38:02.958Z</time></trkpt><trkpt lat="46.4209633" lon="13.5706967"><ele>1045.5</ele><time>2026-04-25T14:38:03.959Z</time></trkpt><trkpt lat="46.420885" lon="13.570685"><ele>1047.3333333333333</ele><time>2026-04-25T14:38:04.957Z</time></trkpt><trkpt lat="46.4208283" lon="13.5707367"><ele>1049.1666666666665</ele><time>2026-04-25T14:38:05.956Z</time></trkpt><trkpt lat="46.42082" lon="13.5708317"><ele>1051.0</ele><time>2026-04-25T14:38:06.957Z</time></trkpt><trkpt lat="46.420865" lon="13.5709383"><ele>1051.0</ele><time>2026-04-25T14:38:07.957Z</time></trkpt><trkpt lat="46.4209583" lon="13.5710267"><ele>1051.0</ele><time>2026-04-25T14:38:08.958Z</time></trkpt><trkpt lat="46.421085" lon="13.5710733"><ele>1051.0</ele><time>2026-04-25T14:38:09.957Z</time></trkpt><trkpt lat="46.4212333" lon="13.5710833"><ele>1051.0</ele><time>2026-04-25T14:38:10.958Z</time></trkpt><trkpt lat="46.42139" lon="13.5710817"><ele>1047.3333333333333</ele><time>2026-04-25T14:38:11.958Z</time></trkpt><trkpt lat="46.42156" lon="13.5710883"><ele>1043.6666666666667</ele><time>2026-04-25T14:38:12.956Z</time></trkpt><trkpt lat="46.4217183" lon="13.5710733"><ele>1040.0</ele><time>2026-04-25T14:38:13.956Z</time></trkpt><trkpt lat="46.421875" lon="13.57102"><ele>1040.0</ele><time>2026-04-25T14:38:14.956Z</time></trkpt><trkpt lat="46.422025" lon="13.5709567"><ele>1040.0</ele><time>2026-04-25T14:38:15.956Z</time></trkpt><trkpt lat="46.4221733" lon="13.5709217"><ele>1040.0</ele><time>2026-04-25T14:38:16.957Z</time></trkpt><trkpt lat="46.4223267" lon="13.57091"><ele>1043.6666666666667</ele><time>2026-04-25T14:38:17.957Z</time></trkpt><trkpt lat="46.4224817" lon="13.5709167"><ele>1047.3333333333333</ele><time>2026-04-25T14:38:18.957Z</time></trkpt><trkpt lat="46.4226417" lon="13.5709233"><ele>1051.0</ele><time>2026-04-25T14:38:19.957Z</time></trkpt><trkpt lat="46.422805" lon="13.570925"><ele>1051.0</ele><time>2026-04-25T14:38:20.957Z</time></trkpt><trkpt lat="46.422975" lon="13.57093"><ele>1051.0</ele><time>2026-04-25T14:38:21.958Z</time></trkpt><trkpt lat="46.4231517" lon="13.5709533"><ele>1051.0</ele><time>2026-04-25T14:38:22.957Z</time></trkpt><trkpt lat="46.42333" lon="13.5709767"><ele>1051.3333333333333</ele><time>2026-04-25T14:38:23.956Z</time></trkpt><trkpt lat="46.423505" lon="13.5710117"><ele>1051.6666666666667</ele><time>2026-04-25T14:38:24.957Z</time></trkpt><trkpt lat="46.4236717" lon="13.5710517"><ele>1052.0</ele><time>2026-04-25T14:38:25.957Z</time></trkpt><trkpt lat="46.4238233" lon="13.5710917"><ele>1046.75</ele><time>2026-04-25T14:38:26.957Z</time></trkpt><trkpt lat="46.4239633" lon="13.5711167"><ele>1041.5</ele><time>2026-04-25T14:38:27.957Z</time></trkpt><trkpt lat="46.4240883" lon="13.57114"><ele>1036.25</ele><time>2026-04-25T14:38:28.957Z</time></trkpt><trkpt lat="46.424195" lon="13.5711633"><ele>1031.0</ele><time>2026-04-25T14:38:29.956Z</time></trkpt><trkpt lat="46.4242817" lon="13.5711867"><ele>1041.6</ele><time>2026-04-25T14:38:30.957Z</time></trkpt><trkpt lat="46.424355" lon="13.5712183"><ele>1052.1999999999998</ele><time>2026-04-25T14:38:31.958Z</time></trkpt><trkpt lat="46.424375" lon="13.5713417"><ele>1062.8000000000002</ele><time>2026-04-25T14:38:33.957Z</time></trkpt><trkpt lat="46.424245" lon="13.5713517"><ele>1073.4</ele><time>2026-04-25T14:38:35.957Z</time></trkpt><trkpt lat="46.4241333" lon="13.571325"><ele>1084.0</ele><time>2026-04-25T14:38:36.956Z</time></trkpt><trkpt lat="46.424015" lon="13.5712933"><ele>1084.0</ele><time>2026-04-25T14:38:37.956Z</time></trkpt><trkpt lat="46.4238833" lon="13.571275"><ele>1084.0</ele><time>2026-04-25T14:38:38.956Z</time></trkpt><trkpt lat="46.42374" lon="13.57127"><ele>1084.0</ele><time>2026-04-25T14:38:39.957Z</time></trkpt><trkpt lat="46.4235933" lon="13.5712717"><ele>1084.0</ele><time>2026-04-25T14:38:40.957Z</time></trkpt><trkpt lat="46.4234417" lon="13.5712833"><ele>1087.3333333333333</ele><time>2026-04-25T14:38:41.956Z</time></trkpt><trkpt lat="46.4232883" lon="13.57131"><ele>1090.6666666666667</ele><time>2026-04-25T14:38:42.957Z</time></trkpt><trkpt lat="46.4231367" lon="13.5713567"><ele>1094.0</ele><time>2026-04-25T14:38:43.957Z</time></trkpt><trkpt lat="46.4229883" lon="13.5714283"><ele>1093.25</ele><time>2026-04-25T14:38:44.957Z</time></trkpt><trkpt lat="46.4228467" lon="13.5715083"><ele>1092.5</ele><time>2026-04-25T14:38:45.958Z</time></trkpt><trkpt lat="46.422715" lon="13.5715817"><ele>1091.75</ele><time>2026-04-25T14:38:46.958Z</time></trkpt><trkpt lat="46.4225733" lon="13.5716083"><ele>1091.0</ele><time>2026-04-25T14:38:47.957Z</time></trkpt><trkpt lat="46.42243" lon="13.571615"><ele>1091.0</ele><time>2026-04-25T14:38:48.957Z</time></trkpt><trkpt lat="46.4222917" lon="13.5716183"><ele>1091.0</ele><time>2026-04-25T14:38:49.958Z</time></trkpt><trkpt lat="46.4221467" lon="13.571655"><ele>1091.0</ele><time>2026-04-25T14:38:50.956Z</time></trkpt><trkpt lat="46.4220067" lon="13.571715"><ele>1091.0</ele><time>2026-04-25T14:38:51.956Z</time></trkpt><trkpt lat="46.4218667" lon="13.5717967"><ele>1088.0</ele><time>2026-04-25T14:38:52.958Z</time></trkpt><trkpt lat="46.4217167" lon="13.571875"><ele>1085.0</ele><time>2026-04-25T14:38:53.957Z</time></trkpt><trkpt lat="46.42157" lon="13.57195"><ele>1082.0</ele><time>2026-04-25T14:38:54.957Z</time></trkpt><trkpt lat="46.42143" lon="13.5720117"><ele>1083.75</ele><time>2026-04-25T14:38:55.958Z</time></trkpt><trkpt lat="46.4212933" lon="13.5720433"><ele>1085.5</ele><time>2026-04-25T14:38:56.957Z</time></trkpt><trkpt lat="46.42115" lon="13.5720383"><ele>1087.25</ele><time>2026-04-25T14:38:57.956Z</time></trkpt><trkpt lat="46.421" lon="13.5720167"><ele>1089.0</ele><time>2026-04-25T14:38:58.957Z</time></trkpt><trkpt lat="46.4208617" lon="13.571965"><ele>1089.0</ele><time>2026-04-25T14:38:59.957Z</time></trkpt><trkpt lat="46.420725" lon="13.5718733"><ele>1089.0</ele><time>2026-04-25T14:39:00.957Z</time></trkpt><trkpt lat="46.4206067" lon="13.5717667"><ele>1089.0</ele><time>2026-04-25T14:39:01.957Z</time></trkpt><trkpt lat="46.42049" lon="13.5716633"><ele>1089.0</ele><time>2026-04-25T14:39:02.956Z</time></trkpt><trkpt lat="46.4203633" lon="13.5716033"><ele>1092.25</ele><time>2026-04-25T14:39:03.961Z</time></trkpt><trkpt lat="46.4202283" lon="13.57158"><ele>1095.5</ele><time>2026-04-25T14:39:04.957Z</time></trkpt><trkpt lat="46.420095" lon="13.5715983"><ele>1098.75</ele><time>2026-04-25T14:39:05.956Z</time></trkpt><trkpt lat="46.419965" lon="13.57166"><ele>1102.0</ele><time>2026-04-25T14:39:06.957Z</time></trkpt><trkpt lat="46.4198367" lon="13.5717367"><ele>1102.0</ele><time>2026-04-25T14:39:07.956Z</time></trkpt><trkpt lat="46.4196983" lon="13.5717983"><ele>1102.0</ele><time>2026-04-25T14:39:08.957Z</time></trkpt><trkpt lat="46.4195617" lon="13.5718333"><ele>1102.0</ele><time>2026-04-25T14:39:09.957Z</time></trkpt><trkpt lat="46.4194333" lon="13.5718867"><ele>1102.0</ele><time>2026-04-25T14:39:10.956Z</time></trkpt><trkpt lat="46.4193183" lon="13.571985"><ele>1104.5</ele><time>2026-04-25T14:39:11.958Z</time></trkpt><trkpt lat="46.41922" lon="13.5721267"><ele>1107.0</ele><time>2026-04-25T14:39:12.957Z</time></trkpt><trkpt lat="46.4191383" lon="13.57228"><ele>1109.5</ele><time>2026-04-25T14:39:13.957Z</time></trkpt><trkpt lat="46.4190783" lon="13.5724217"><ele>1112.0</ele><time>2026-04-25T14:39:14.956Z</time></trkpt><trkpt lat="46.4190533" lon="13.57255"><ele>1112.0</ele><time>2026-04-25T14:39:15.956Z</time></trkpt><trkpt lat="46.4190733" lon="13.5726717"><ele>1112.0</ele><time>2026-04-25T14:39:16.956Z</time></trkpt><trkpt lat="46.4191283" lon="13.5727567"><ele>1112.0</ele><time>2026-04-25T14:39:17.957Z</time></trkpt><trkpt lat="46.4192067" lon="13.572765"><ele>1112.0</ele><time>2026-04-25T14:39:18.956Z</time></trkpt><trkpt lat="46.4192833" lon="13.5727"><ele>1112.0</ele><time>2026-04-25T14:39:19.956Z</time></trkpt><trkpt lat="46.41936" lon="13.572575"><ele>1112.0</ele><time>2026-04-25T14:39:20.958Z</time></trkpt><trkpt lat="46.4194433" lon="13.5724617"><ele>1112.0</ele><time>2026-04-25T14:39:21.96Z</time></trkpt><trkpt lat="46.4195383" lon="13.572355"><ele>1112.0</ele><time>2026-04-25T14:39:22.958Z</time></trkpt><trkpt lat="46.4196533" lon="13.5722817"><ele>1112.0</ele><time>2026-04-25T14:39:23.956Z</time></trkpt><trkpt lat="46.419785" lon="13.57224"><ele>1112.0</ele><time>2026-04-25T14:39:24.958Z</time></trkpt><trkpt lat="46.4199233" lon="13.5722383"><ele>1114.4</ele><time>2026-04-25T14:39:25.959Z</time></trkpt><trkpt lat="46.420055" lon="13.5722533"><ele>1116.8000000000002</ele><time>2026-04-25T14:39:26.958Z</time></trkpt><trkpt lat="46.4201717" lon="13.5722767"><ele>1119.2</ele><time>2026-04-25T14:39:27.959Z</time></trkpt><trkpt lat="46.4202683" lon="13.572305"><ele>1121.6000000000001</ele><time>2026-04-25T14:39:28.959Z</time></trkpt><trkpt lat="46.420345" lon="13.5723517"><ele>1124.0</ele><time>2026-04-25T14:39:29.958Z</time></trkpt><trkpt lat="46.4203933" lon="13.5724117"><ele>1124.0</ele><time>2026-04-25T14:39:30.958Z</time></trkpt><trkpt lat="46.42031" lon="13.5725033"><ele>1124.0</ele><time>2026-04-25T14:39:31.957Z</time></trkpt><trkpt lat="46.4202517" lon="13.5725817"><ele>1124.0</ele><time>2026-04-25T14:39:32.957Z</time></trkpt><trkpt lat="46.4201433" lon="13.5726917"><ele>1124.0</ele><time>2026-04-25T14:39:33.957Z</time></trkpt><trkpt lat="46.42003" lon="13.572805"><ele>1130.0</ele><time>2026-04-25T14:39:34.957Z</time></trkpt><trkpt lat="46.4199283" lon="13.572935"><ele>1136.0</ele><time>2026-04-25T14:39:35.957Z</time></trkpt><trkpt lat="46.4198383" lon="13.5730833"><ele>1142.0</ele><time>2026-04-25T14:39:36.957Z</time></trkpt><trkpt lat="46.4197617" lon="13.5732517"><ele>1148.0</ele><time>2026-04-25T14:39:37.956Z</time></trkpt><trkpt lat="46.419705" lon="13.573425"><ele>1148.0</ele><time>2026-04-25T14:39:38.956Z</time></trkpt><trkpt lat="46.41966" lon="13.5736"><ele>1148.0</ele><time>2026-04-25T14:39:39.957Z</time></trkpt><trkpt lat="46.4196233" lon="13.5737817"><ele>1148.0</ele><time>2026-04-25T14:39:40.957Z</time></trkpt><trkpt lat="46.4195883" lon="13.57396"><ele>1148.0</ele><time>2026-04-25T14:39:41.957Z</time></trkpt><trkpt lat="46.41955" lon="13.5741267"><ele>1148.2</ele><time>2026-04-25T14:39:42.957Z</time></trkpt><trkpt lat="46.4195067" lon="13.5742817"><ele>1148.4</ele><time>2026-04-25T14:39:43.956Z</time></trkpt><trkpt lat="46.4194617" lon="13.574425"><ele>1148.6000000000001</ele><time>2026-04-25T14:39:44.956Z</time></trkpt><trkpt lat="46.4194133" lon="13.5745667"><ele>1148.8</ele><time>2026-04-25T14:39:45.958Z</time></trkpt><trkpt lat="46.4193667" lon="13.574705"><ele>1149.0</ele><time>2026-04-25T14:39:46.957Z</time></trkpt><trkpt lat="46.4193217" lon="13.5748417"><ele>1149.0</ele><time>2026-04-25T14:39:47.957Z</time></trkpt><trkpt lat="46.4192767" lon="13.5749833"><ele>1149.0</ele><time>2026-04-25T14:39:48.957Z</time></trkpt><trkpt lat="46.4192333" lon="13.5751283"><ele>1149.0</ele><time>2026-04-25T14:39:49.956Z</time></trkpt><trkpt lat="46.4191917" lon="13.57527"><ele>1149.0</ele><time>2026-04-25T14:39:50.957Z</time></trkpt><trkpt lat="46.4191517" lon="13.575405"><ele>1149.0</ele><time>2026-04-25T14:39:51.963Z</time></trkpt><trkpt lat="46.41911" lon="13.5755433"><ele>1150.4</ele><time>2026-04-25T14:39:52.958Z</time></trkpt><trkpt lat="46.41907" lon="13.57568"><ele>1151.8000000000002</ele><time>2026-04-25T14:39:53.958Z</time></trkpt><trkpt lat="46.41903" lon="13.5758183"><ele>1153.1999999999998</ele><time>2026-04-25T14:39:54.958Z</time></trkpt><trkpt lat="46.4189867" lon="13.5759583"><ele>1154.6</ele><time>2026-04-25T14:39:55.959Z</time></trkpt><trkpt lat="46.4189467" lon="13.5761"><ele>1156.0</ele><time>2026-04-25T14:39:56.959Z</time></trkpt><trkpt lat="46.4189067" lon="13.5762433"><ele>1156.2</ele><time>2026-04-25T14:39:57.958Z</time></trkpt><trkpt lat="46.4188667" lon="13.576385"><ele>1156.3999999999999</ele><time>2026-04-25T14:39:58.959Z</time></trkpt><trkpt lat="46.418825" lon="13.5765217"><ele>1156.6</ele><time>2026-04-25T14:39:59.957Z</time></trkpt><trkpt lat="46.418785" lon="13.5766567"><ele>1156.8</ele><time>2026-04-25T14:40:00.958Z</time></trkpt><trkpt lat="46.4187467" lon="13.5767883"><ele>1157.0</ele><time>2026-04-25T14:40:01.957Z</time></trkpt><trkpt lat="46.4187117" lon="13.5769133"><ele>1157.1666666666667</ele><time>2026-04-25T14:40:02.957Z</time></trkpt><trkpt lat="46.418675" lon="13.5770333"><ele>1157.3333333333335</ele><time>2026-04-25T14:40:03.957Z</time></trkpt><trkpt lat="46.4186383" lon="13.577145"><ele>1157.5</ele><time>2026-04-25T14:40:04.959Z</time></trkpt><trkpt lat="46.4186067" lon="13.57725"><ele>1157.6666666666667</ele><time>2026-04-25T14:40:05.957Z</time></trkpt><trkpt lat="46.4185783" lon="13.5773467"><ele>1157.8333333333333</ele><time>2026-04-25T14:40:06.957Z</time></trkpt><trkpt lat="46.4185483" lon="13.5774417"><ele>1158.0</ele><time>2026-04-25T14:40:07.957Z</time></trkpt><trkpt lat="46.41852" lon="13.5775317"><ele>1157.9999999999998</ele><time>2026-04-25T14:40:08.957Z</time></trkpt><trkpt lat="46.4184933" lon="13.57762"><ele>1158.0</ele><time>2026-04-25T14:40:09.957Z</time></trkpt><trkpt lat="46.4184733" lon="13.5777067"><ele>1158.0</ele><time>2026-04-25T14:40:10.957Z</time></trkpt><trkpt lat="46.41846" lon="13.5777983"><ele>1158.0</ele><time>2026-04-25T14:40:11.956Z</time></trkpt><trkpt lat="46.4184633" lon="13.5779"><ele>1158.0</ele><time>2026-04-25T14:40:12.957Z</time></trkpt><trkpt lat="46.418475" lon="13.578"><ele>1157.9999999999998</ele><time>2026-04-25T14:40:13.958Z</time></trkpt><trkpt lat="46.4185" lon="13.578105"><ele>1158.0</ele><time>2026-04-25T14:40:14.956Z</time></trkpt><trkpt lat="46.4185333" lon="13.57821"><ele>1157.6666666666667</ele><time>2026-04-25T14:40:15.957Z</time></trkpt><trkpt lat="46.41857" lon="13.5783083"><ele>1157.3333333333333</ele><time>2026-04-25T14:40:16.957Z</time></trkpt><trkpt lat="46.4186167" lon="13.5784067"><ele>1157.0</ele><time>2026-04-25T14:40:17.957Z</time></trkpt><trkpt lat="46.4186617" lon="13.578515"><ele>1156.6666666666665</ele><time>2026-04-25T14:40:18.959Z</time></trkpt><trkpt lat="46.418705" lon="13.5786217"><ele>1156.3333333333333</ele><time>2026-04-25T14:40:19.957Z</time></trkpt><trkpt lat="46.418745" lon="13.5787333"><ele>1156.0</ele><time>2026-04-25T14:40:20.958Z</time></trkpt><trkpt lat="46.4187833" lon="13.57885"><ele>1157.1666666666665</ele><time>2026-04-25T14:40:21.958Z</time></trkpt><trkpt lat="46.4188167" lon="13.578965"><ele>1158.3333333333333</ele><time>2026-04-25T14:40:22.959Z</time></trkpt><trkpt lat="46.418835" lon="13.5791017"><ele>1159.5</ele><time>2026-04-25T14:40:23.957Z</time></trkpt><trkpt lat="46.4188467" lon="13.5792233"><ele>1160.6666666666667</ele><time>2026-04-25T14:40:24.958Z</time></trkpt><trkpt lat="46.418855" lon="13.5793433"><ele>1161.8333333333335</ele><time>2026-04-25T14:40:25.959Z</time></trkpt><trkpt lat="46.4188617" lon="13.5794617"><ele>1163.0</ele><time>2026-04-25T14:40:26.958Z</time></trkpt><trkpt lat="46.41887" lon="13.5795933"><ele>1163.0</ele><time>2026-04-25T14:40:27.958Z</time></trkpt><trkpt lat="46.4188867" lon="13.5797117"><ele>1163.0</ele><time>2026-04-25T14:40:28.96Z</time></trkpt><trkpt lat="46.4189117" lon="13.5798383"><ele>1163.0</ele><time>2026-04-25T14:40:29.958Z</time></trkpt><trkpt lat="46.4189483" lon="13.5799617"><ele>1163.0</ele><time>2026-04-25T14:40:30.957Z</time></trkpt><trkpt lat="46.4189967" lon="13.5800767"><ele>1163.0</ele><time>2026-04-25T14:40:31.959Z</time></trkpt><trkpt lat="46.4190467" lon="13.580185"><ele>1163.0</ele><time>2026-04-25T14:40:32.958Z</time></trkpt><trkpt lat="46.4190767" lon="13.5803017"><ele>1161.6666666666667</ele><time>2026-04-25T14:40:33.959Z</time></trkpt><trkpt lat="46.4190933" lon="13.5804183"><ele>1160.3333333333335</ele><time>2026-04-25T14:40:34.957Z</time></trkpt><trkpt lat="46.41909" lon="13.5805417"><ele>1159.0</ele><time>2026-04-25T14:40:35.956Z</time></trkpt><trkpt lat="46.4190767" lon="13.5806683"><ele>1157.6666666666667</ele><time>2026-04-25T14:40:36.957Z</time></trkpt><trkpt lat="46.4190667" lon="13.5807983"><ele>1156.3333333333333</ele><time>2026-04-25T14:40:37.958Z</time></trkpt><trkpt lat="46.4190667" lon="13.5809367"><ele>1155.0</ele><time>2026-04-25T14:40:38.957Z</time></trkpt><trkpt lat="46.419085" lon="13.581075"><ele>1153.6</ele><time>2026-04-25T14:40:39.958Z</time></trkpt><trkpt lat="46.4191167" lon="13.5812183"><ele>1152.2</ele><time>2026-04-25T14:40:40.958Z</time></trkpt><trkpt lat="46.41916" lon="13.5813633"><ele>1150.8</ele><time>2026-04-25T14:40:41.957Z</time></trkpt><trkpt lat="46.4192133" lon="13.5815067"><ele>1149.4</ele><time>2026-04-25T14:40:42.957Z</time></trkpt><trkpt lat="46.4192783" lon="13.581645"><ele>1148.0</ele><time>2026-04-25T14:40:43.958Z</time></trkpt><trkpt lat="46.4193533" lon="13.58177"><ele>1148.0</ele><time>2026-04-25T14:40:44.956Z</time></trkpt><trkpt lat="46.41943" lon="13.5818867"><ele>1148.0</ele><time>2026-04-25T14:40:45.957Z</time></trkpt><trkpt lat="46.4195" lon="13.582005"><ele>1148.0</ele><time>2026-04-25T14:40:46.958Z</time></trkpt><trkpt lat="46.4195583" lon="13.582125"><ele>1148.0</ele><time>2026-04-25T14:40:47.957Z</time></trkpt><trkpt lat="46.4195933" lon="13.5822633"><ele>1148.0</ele><time>2026-04-25T14:40:48.957Z</time></trkpt><trkpt lat="46.419605" lon="13.5824"><ele>1148.0</ele><time>2026-04-25T14:40:49.958Z</time></trkpt><trkpt lat="46.4196133" lon="13.582535"><ele>1148.0</ele><time>2026-04-25T14:40:50.958Z</time></trkpt><trkpt lat="46.4196317" lon="13.5826683"><ele>1148.0</ele><time>2026-04-25T14:40:51.958Z</time></trkpt><trkpt lat="46.41967" lon="13.5827917"><ele>1148.0</ele><time>2026-04-25T14:40:52.958Z</time></trkpt><trkpt lat="46.41973" lon="13.5829"><ele>1148.0</ele><time>2026-04-25T14:40:53.958Z</time></trkpt><trkpt lat="46.419805" lon="13.5829933"><ele>1148.0</ele><time>2026-04-25T14:40:54.958Z</time></trkpt><trkpt lat="46.4198917" lon="13.583075"><ele>1148.0</ele><time>2026-04-25T14:40:55.957Z</time></trkpt><trkpt lat="46.41998" lon="13.5831567"><ele>1148.0</ele><time>2026-04-25T14:40:56.959Z</time></trkpt><trkpt lat="46.420065" lon="13.5832367"><ele>1148.0</ele><time>2026-04-25T14:40:57.958Z</time></trkpt><trkpt lat="46.4201467" lon="13.58332"><ele>1148.0</ele><time>2026-04-25T14:40:58.958Z</time></trkpt><trkpt lat="46.4202233" lon="13.5834083"><ele>1148.0</ele><time>2026-04-25T14:40:59.958Z</time></trkpt><trkpt lat="46.42029" lon="13.583505"><ele>1148.0</ele><time>2026-04-25T14:41:00.959Z</time></trkpt><trkpt lat="46.42035" lon="13.58361"><ele>1148.0</ele><time>2026-04-25T14:41:01.959Z</time></trkpt><trkpt lat="46.42038" lon="13.583735"><ele>1148.0</ele><time>2026-04-25T14:41:02.96Z</time></trkpt><trkpt lat="46.4203783" lon="13.583875"><ele>1148.0</ele><time>2026-04-25T14:41:03.958Z</time></trkpt><trkpt lat="46.4203467" lon="13.5840133"><ele>1145.4</ele><time>2026-04-25T14:41:04.96Z</time></trkpt><trkpt lat="46.4202917" lon="13.5841383"><ele>1142.8</ele><time>2026-04-25T14:41:05.958Z</time></trkpt><trkpt lat="46.4202267" lon="13.5842583"><ele>1140.2</ele><time>2026-04-25T14:41:06.958Z</time></trkpt><trkpt lat="46.420165" lon="13.58439"><ele>1137.6</ele><time>2026-04-25T14:41:07.959Z</time></trkpt><trkpt lat="46.420135" lon="13.584535"><ele>1135.0</ele><time>2026-04-25T14:41:08.958Z</time></trkpt><trkpt lat="46.4201283" lon="13.584685"><ele>1132.6</ele><time>2026-04-25T14:41:09.957Z</time></trkpt><trkpt lat="46.4201683" lon="13.5848217"><ele>1130.2</ele><time>2026-04-25T14:41:10.956Z</time></trkpt><trkpt lat="46.4202383" lon="13.5849417"><ele>1127.8</ele><time>2026-04-25T14:41:11.957Z</time></trkpt><trkpt lat="46.4203267" lon="13.585045"><ele>1125.4</ele><time>2026-04-25T14:41:12.957Z</time></trkpt><trkpt lat="46.42041" lon="13.585145"><ele>1123.0</ele><time>2026-04-25T14:41:13.957Z</time></trkpt><trkpt lat="46.4204733" lon="13.58526"><ele>1126.4</ele><time>2026-04-25T14:41:14.957Z</time></trkpt><trkpt lat="46.4205183" lon="13.5853867"><ele>1129.8</ele><time>2026-04-25T14:41:15.957Z</time></trkpt><trkpt lat="46.4205567" lon="13.58551"><ele>1133.2</ele><time>2026-04-25T14:41:16.958Z</time></trkpt><trkpt lat="46.4206017" lon="13.5856283"><ele>1136.6</ele><time>2026-04-25T14:41:17.957Z</time></trkpt><trkpt lat="46.4206617" lon="13.585735"><ele>1140.0</ele><time>2026-04-25T14:41:18.957Z</time></trkpt><trkpt lat="46.4207283" lon="13.58582"><ele>1140.0</ele><time>2026-04-25T14:41:19.957Z</time></trkpt><trkpt lat="46.4207967" lon="13.5858933"><ele>1140.0</ele><time>2026-04-25T14:41:20.958Z</time></trkpt><trkpt lat="46.42086" lon="13.5859683"><ele>1140.0</ele><time>2026-04-25T14:41:21.956Z</time></trkpt><trkpt lat="46.4209217" lon="13.586045"><ele>1140.0</ele><time>2026-04-25T14:41:22.958Z</time></trkpt><trkpt lat="46.4209667" lon="13.5861417"><ele>1140.0</ele><time>2026-04-25T14:41:23.957Z</time></trkpt><trkpt lat="46.420975" lon="13.586245"><ele>1140.0</ele><time>2026-04-25T14:41:24.958Z</time></trkpt><trkpt lat="46.4209533" lon="13.5863517"><ele>1137.6</ele><time>2026-04-25T14:41:25.956Z</time></trkpt><trkpt lat="46.420915" lon="13.58646"><ele>1135.2</ele><time>2026-04-25T14:41:26.957Z</time></trkpt><trkpt lat="46.4208783" lon="13.5865767"><ele>1132.8</ele><time>2026-04-25T14:41:27.958Z</time></trkpt><trkpt lat="46.4208517" lon="13.5867017"><ele>1130.4</ele><time>2026-04-25T14:41:28.957Z</time></trkpt><trkpt lat="46.4208333" lon="13.586845"><ele>1128.0</ele><time>2026-04-25T14:41:29.957Z</time></trkpt><trkpt lat="46.420815" lon="13.58698"><ele>1129.1666666666667</ele><time>2026-04-25T14:41:30.957Z</time></trkpt><trkpt lat="46.4207883" lon="13.587105"><ele>1130.3333333333333</ele><time>2026-04-25T14:41:31.956Z</time></trkpt><trkpt lat="46.420755" lon="13.587215"><ele>1131.5</ele><time>2026-04-25T14:41:32.956Z</time></trkpt><trkpt lat="46.4207183" lon="13.5873217"><ele>1132.6666666666665</ele><time>2026-04-25T14:41:33.961Z</time></trkpt><trkpt lat="46.4206833" lon="13.5874333"><ele>1133.8333333333333</ele><time>2026-04-25T14:41:34.958Z</time></trkpt><trkpt lat="46.4206533" lon="13.58755"><ele>1135.0</ele><time>2026-04-25T14:41:35.957Z</time></trkpt><trkpt lat="46.4206333" lon="13.5876633"><ele>1135.0</ele><time>2026-04-25T14:41:36.957Z</time></trkpt><trkpt lat="46.42062" lon="13.5877733"><ele>1135.0</ele><time>2026-04-25T14:41:37.957Z</time></trkpt><trkpt lat="46.4206117" lon="13.5878717"><ele>1135.0</ele><time>2026-04-25T14:41:38.957Z</time></trkpt><trkpt lat="46.4206083" lon="13.5880017"><ele>1135.0</ele><time>2026-04-25T14:41:40.957Z</time></trkpt><trkpt lat="46.4206333" lon="13.5881683"><ele>1135.0</ele><time>2026-04-25T14:42:01.958Z</time></trkpt><trkpt lat="46.420665" lon="13.58829"><ele>1135.0</ele><time>2026-04-25T14:42:03.957Z</time></trkpt><trkpt lat="46.4206917" lon="13.5883767"><ele>1134.3333333333333</ele><time>2026-04-25T14:42:05.957Z</time></trkpt><trkpt lat="46.4207517" lon="13.58843"><ele>1133.6666666666665</ele><time>2026-04-25T14:42:07.957Z</time></trkpt><trkpt lat="46.420845" lon="13.58852"><ele>1133.0</ele><time>2026-04-25T14:42:09.956Z</time></trkpt><trkpt lat="46.4208967" lon="13.5885883"><ele>1132.3333333333333</ele><time>2026-04-25T14:42:10.957Z</time></trkpt><trkpt lat="46.420945" lon="13.58867"><ele>1131.6666666666667</ele><time>2026-04-25T14:42:11.956Z</time></trkpt><trkpt lat="46.420985" lon="13.58878"><ele>1131.0</ele><time>2026-04-25T14:42:12.957Z</time></trkpt><trkpt lat="46.42102" lon="13.5889083"><ele>1126.8</ele><time>2026-04-25T14:42:13.956Z</time></trkpt><trkpt lat="46.421055" lon="13.589045"><ele>1122.6</ele><time>2026-04-25T14:42:14.957Z</time></trkpt><trkpt lat="46.421095" lon="13.589185"><ele>1118.4</ele><time>2026-04-25T14:42:15.958Z</time></trkpt><trkpt lat="46.4211367" lon="13.5893367"><ele>1114.2</ele><time>2026-04-25T14:42:16.958Z</time></trkpt><trkpt lat="46.4211783" lon="13.5894967"><ele>1110.0</ele><time>2026-04-25T14:42:17.957Z</time></trkpt><trkpt lat="46.42122" lon="13.5896617"><ele>1107.5</ele><time>2026-04-25T14:42:18.956Z</time></trkpt><trkpt lat="46.4212617" lon="13.5898317"><ele>1105.0</ele><time>2026-04-25T14:42:19.957Z</time></trkpt><trkpt lat="46.421295" lon="13.5900017"><ele>1102.5</ele><time>2026-04-25T14:42:20.957Z</time></trkpt><trkpt lat="46.4213267" lon="13.5901817"><ele>1100.0</ele><time>2026-04-25T14:42:21.957Z</time></trkpt><trkpt lat="46.4213617" lon="13.5903667"><ele>1107.75</ele><time>2026-04-25T14:42:22.957Z</time></trkpt><trkpt lat="46.4214017" lon="13.59056"><ele>1115.5</ele><time>2026-04-25T14:42:23.957Z</time></trkpt><trkpt lat="46.421445" lon="13.590755"><ele>1123.25</ele><time>2026-04-25T14:42:24.957Z</time></trkpt><trkpt lat="46.4214983" lon="13.59094"><ele>1131.0</ele><time>2026-04-25T14:42:25.957Z</time></trkpt><trkpt lat="46.4215567" lon="13.59112"><ele>1124.5</ele><time>2026-04-25T14:42:26.958Z</time></trkpt><trkpt lat="46.4216217" lon="13.5912867"><ele>1118.0</ele><time>2026-04-25T14:42:27.957Z</time></trkpt><trkpt lat="46.4217033" lon="13.5914333"><ele>1111.5</ele><time>2026-04-25T14:42:28.957Z</time></trkpt><trkpt lat="46.4217933" lon="13.591575"><ele>1105.0</ele><time>2026-04-25T14:42:29.957Z</time></trkpt><trkpt lat="46.421885" lon="13.5917117"><ele>1105.0</ele><time>2026-04-25T14:42:30.957Z</time></trkpt><trkpt lat="46.4219717" lon="13.5918333"><ele>1105.0</ele><time>2026-04-25T14:42:31.957Z</time></trkpt><trkpt lat="46.4220467" lon="13.5919667"><ele>1105.0</ele><time>2026-04-25T14:42:32.957Z</time></trkpt><trkpt lat="46.4221217" lon="13.5920967"><ele>1105.0</ele><time>2026-04-25T14:42:33.956Z</time></trkpt><trkpt lat="46.422195" lon="13.5922267"><ele>1105.4</ele><time>2026-04-25T14:42:34.957Z</time></trkpt><trkpt lat="46.4222733" lon="13.59234"><ele>1105.8</ele><time>2026-04-25T14:42:35.958Z</time></trkpt><trkpt lat="46.4223667" lon="13.5924367"><ele>1106.2</ele><time>2026-04-25T14:42:36.956Z</time></trkpt><trkpt lat="46.4224683" lon="13.5925033"><ele>1106.6</ele><time>2026-04-25T14:42:37.957Z</time></trkpt><trkpt lat="46.4225667" lon="13.5925667"><ele>1107.0</ele><time>2026-04-25T14:42:38.957Z</time></trkpt><trkpt lat="46.422655" lon="13.5926417"><ele>1107.0</ele><time>2026-04-25T14:42:39.957Z</time></trkpt><trkpt lat="46.422725" lon="13.5927367"><ele>1107.0</ele><time>2026-04-25T14:42:40.957Z</time></trkpt><trkpt lat="46.422775" lon="13.5928633"><ele>1107.0</ele><time>2026-04-25T14:42:41.957Z</time></trkpt><trkpt lat="46.4228033" lon="13.5930033"><ele>1107.0</ele><time>2026-04-25T14:42:42.957Z</time></trkpt><trkpt lat="46.42282" lon="13.593145"><ele>1107.0</ele><time>2026-04-25T14:42:43.957Z</time></trkpt><trkpt lat="46.4228267" lon="13.593285"><ele>1102.1666666666667</ele><time>2026-04-25T14:42:44.957Z</time></trkpt><trkpt lat="46.4228367" lon="13.5934183"><ele>1097.3333333333333</ele><time>2026-04-25T14:42:45.957Z</time></trkpt><trkpt lat="46.4228633" lon="13.59354"><ele>1092.5</ele><time>2026-04-25T14:42:46.956Z</time></trkpt><trkpt lat="46.4229" lon="13.593645"><ele>1087.6666666666665</ele><time>2026-04-25T14:42:47.957Z</time></trkpt><trkpt lat="46.422955" lon="13.5937283"><ele>1082.8333333333333</ele><time>2026-04-25T14:42:48.956Z</time></trkpt><trkpt lat="46.4230033" lon="13.5937883"><ele>1078.0</ele><time>2026-04-25T14:42:49.956Z</time></trkpt><trkpt lat="46.4230817" lon="13.5938867"><ele>1077.6</ele><time>2026-04-25T14:42:51.956Z</time></trkpt><trkpt lat="46.4231017" lon="13.5939967"><ele>1077.1999999999998</ele><time>2026-04-25T14:42:53.956Z</time></trkpt><trkpt lat="46.4230567" lon="13.5941217"><ele>1076.8</ele><time>2026-04-25T14:42:55.956Z</time></trkpt><trkpt lat="46.4229733" lon="13.5942667"><ele>1076.3999999999999</ele><time>2026-04-25T14:42:57.957Z</time></trkpt><trkpt lat="46.42292" lon="13.5943483"><ele>1076.0</ele><time>2026-04-25T14:42:58.958Z</time></trkpt><trkpt lat="46.42287" lon="13.5944333"><ele>1075.6666666666667</ele><time>2026-04-25T14:42:59.957Z</time></trkpt><trkpt lat="46.4228133" lon="13.5945233"><ele>1075.3333333333335</ele><time>2026-04-25T14:43:00.957Z</time></trkpt><trkpt lat="46.422755" lon="13.59461"><ele>1075.0</ele><time>2026-04-25T14:43:01.956Z</time></trkpt><trkpt lat="46.4227" lon="13.5947"><ele>1074.6666666666667</ele><time>2026-04-25T14:43:02.956Z</time></trkpt><trkpt lat="46.4226433" lon="13.5947917"><ele>1074.3333333333333</ele><time>2026-04-25T14:43:03.956Z</time></trkpt><trkpt lat="46.4225867" lon="13.5948817"><ele>1074.0</ele><time>2026-04-25T14:43:04.956Z</time></trkpt><trkpt lat="46.422525" lon="13.5949767"><ele>1074.0</ele><time>2026-04-25T14:43:05.956Z</time></trkpt><trkpt lat="46.4224633" lon="13.595075"><ele>1074.0</ele><time>2026-04-25T14:43:06.957Z</time></trkpt><trkpt lat="46.4224017" lon="13.5951717"><ele>1074.0</ele><time>2026-04-25T14:43:07.957Z</time></trkpt><trkpt lat="46.4223417" lon="13.59527"><ele>1074.0</ele><time>2026-04-25T14:43:08.956Z</time></trkpt><trkpt lat="46.4222817" lon="13.5953667"><ele>1074.0</ele><time>2026-04-25T14:43:09.957Z</time></trkpt><trkpt lat="46.4222217" lon="13.5954633"><ele>1073.8</ele><time>2026-04-25T14:43:10.956Z</time></trkpt><trkpt lat="46.4221617" lon="13.5955617"><ele>1073.6000000000001</ele><time>2026-04-25T14:43:11.956Z</time></trkpt><trkpt lat="46.4221" lon="13.5956617"><ele>1073.4</ele><time>2026-04-25T14:43:12.957Z</time></trkpt><trkpt lat="46.4220383" lon="13.5957633"><ele>1073.2</ele><time>2026-04-25T14:43:13.956Z</time></trkpt><trkpt lat="46.4219733" lon="13.595865"><ele>1073.0</ele><time>2026-04-25T14:43:14.957Z</time></trkpt><trkpt lat="46.4219033" lon="13.5959683"><ele>1073.0</ele><time>2026-04-25T14:43:15.957Z</time></trkpt><trkpt lat="46.421835" lon="13.5960783"><ele>1073.0</ele><time>2026-04-25T14:43:16.957Z</time></trkpt><trkpt lat="46.421765" lon="13.5961917"><ele>1073.0</ele><time>2026-04-25T14:43:17.957Z</time></trkpt><trkpt lat="46.421695" lon="13.5963133"><ele>1073.0</ele><time>2026-04-25T14:43:18.956Z</time></trkpt><trkpt lat="46.4216333" lon="13.5964483"><ele>1073.0</ele><time>2026-04-25T14:43:19.957Z</time></trkpt><trkpt lat="46.4215717" lon="13.5965967"><ele>1076.75</ele><time>2026-04-25T14:43:20.957Z</time></trkpt><trkpt lat="46.4215183" lon="13.5967717"><ele>1080.5</ele><time>2026-04-25T14:43:21.956Z</time></trkpt><trkpt lat="46.4214667" lon="13.5969483"><ele>1084.25</ele><time>2026-04-25T14:43:22.956Z</time></trkpt><trkpt lat="46.4214033" lon="13.597125"><ele>1088.0</ele><time>2026-04-25T14:43:23.957Z</time></trkpt><trkpt lat="46.4213333" lon="13.59729"><ele>1082.0</ele><time>2026-04-25T14:43:24.957Z</time></trkpt><trkpt lat="46.4212533" lon="13.5974583"><ele>1076.0</ele><time>2026-04-25T14:43:25.957Z</time></trkpt><trkpt lat="46.42117" lon="13.5976317"><ele>1070.0</ele><time>2026-04-25T14:43:26.957Z</time></trkpt><trkpt lat="46.4210883" lon="13.5978"><ele>1064.0</ele><time>2026-04-25T14:43:27.957Z</time></trkpt><trkpt lat="46.4210067" lon="13.5979733"><ele>1064.0</ele><time>2026-04-25T14:43:28.957Z</time></trkpt><trkpt lat="46.420935" lon="13.59815"><ele>1064.0</ele><time>2026-04-25T14:43:29.957Z</time></trkpt><trkpt lat="46.420865" lon="13.5983267"><ele>1064.0</ele><time>2026-04-25T14:43:30.957Z</time></trkpt><trkpt lat="46.4208033" lon="13.5984967"><ele>1064.0</ele><time>2026-04-25T14:43:31.957Z</time></trkpt><trkpt lat="46.4207467" lon="13.5986733"><ele>1067.0</ele><time>2026-04-25T14:43:32.957Z</time></trkpt><trkpt lat="46.4206867" lon="13.5988483"><ele>1070.0</ele><time>2026-04-25T14:43:33.957Z</time></trkpt><trkpt lat="46.4206367" lon="13.5990183"><ele>1073.0</ele><time>2026-04-25T14:43:34.958Z</time></trkpt><trkpt lat="46.4205833" lon="13.5991717"><ele>1076.0</ele><time>2026-04-25T14:43:35.958Z</time></trkpt><trkpt lat="46.4205333" lon="13.5993133"><ele>1076.0</ele><time>2026-04-25T14:43:36.957Z</time></trkpt><trkpt lat="46.4204933" lon="13.5994467"><ele>1076.0</ele><time>2026-04-25T14:43:37.957Z</time></trkpt><trkpt lat="46.4204667" lon="13.5995817"><ele>1076.0</ele><time>2026-04-25T14:43:38.957Z</time></trkpt><trkpt lat="46.420465" lon="13.59972"><ele>1076.0</ele><time>2026-04-25T14:43:39.957Z</time></trkpt><trkpt lat="46.420485" lon="13.5998483"><ele>1076.0</ele><time>2026-04-25T14:43:40.957Z</time></trkpt><trkpt lat="46.4205267" lon="13.5999717"><ele>1076.2</ele><time>2026-04-25T14:43:41.957Z</time></trkpt><trkpt lat="46.4205783" lon="13.6001033"><ele>1076.3999999999999</ele><time>2026-04-25T14:43:42.956Z</time></trkpt><trkpt lat="46.420635" lon="13.6002317"><ele>1076.6</ele><time>2026-04-25T14:43:43.957Z</time></trkpt><trkpt lat="46.4206783" lon="13.6003683"><ele>1076.8</ele><time>2026-04-25T14:43:44.957Z</time></trkpt><trkpt lat="46.4207067" lon="13.6005233"><ele>1077.0</ele><time>2026-04-25T14:43:45.958Z</time></trkpt><trkpt lat="46.4207133" lon="13.6006933"><ele>1073.75</ele><time>2026-04-25T14:43:46.957Z</time></trkpt><trkpt lat="46.4207017" lon="13.6008583"><ele>1070.5</ele><time>2026-04-25T14:43:47.957Z</time></trkpt><trkpt lat="46.4206683" lon="13.6010183"><ele>1067.25</ele><time>2026-04-25T14:43:48.957Z</time></trkpt><trkpt lat="46.420635" lon="13.6011783"><ele>1064.0</ele><time>2026-04-25T14:43:49.956Z</time></trkpt><trkpt lat="46.420605" lon="13.6013483"><ele>1063.75</ele><time>2026-04-25T14:43:50.957Z</time></trkpt><trkpt lat="46.4205683" lon="13.601515"><ele>1063.5</ele><time>2026-04-25T14:43:51.957Z</time></trkpt><trkpt lat="46.4205267" lon="13.6016783"><ele>1063.25</ele><time>2026-04-25T14:43:52.956Z</time></trkpt><trkpt lat="46.420475" lon="13.60184"><ele>1063.0</ele><time>2026-04-25T14:43:53.957Z</time></trkpt><trkpt lat="46.42041" lon="13.6019983"><ele>1054.0</ele><time>2026-04-25T14:43:54.957Z</time></trkpt><trkpt lat="46.4203433" lon="13.60216"><ele>1045.0</ele><time>2026-04-25T14:43:55.957Z</time></trkpt><trkpt lat="46.4202733" lon="13.60232"><ele>1036.0</ele><time>2026-04-25T14:43:56.957Z</time></trkpt><trkpt lat="46.42021" lon="13.6024683"><ele>1027.0</ele><time>2026-04-25T14:43:57.957Z</time></trkpt><trkpt lat="46.4201533" lon="13.6026183"><ele>1027.0</ele><time>2026-04-25T14:43:58.957Z</time></trkpt><trkpt lat="46.420115" lon="13.6027767"><ele>1027.0</ele><time>2026-04-25T14:43:59.957Z</time></trkpt><trkpt lat="46.4200733" lon="13.6029383"><ele>1027.0</ele><time>2026-04-25T14:44:00.957Z</time></trkpt><trkpt lat="46.42004" lon="13.6030967"><ele>1027.0</ele><time>2026-04-25T14:44:01.957Z</time></trkpt><trkpt lat="46.4200033" lon="13.6032617"><ele>1030.0</ele><time>2026-04-25T14:44:02.956Z</time></trkpt><trkpt lat="46.419955" lon="13.603415"><ele>1033.0</ele><time>2026-04-25T14:44:03.957Z</time></trkpt><trkpt lat="46.4199033" lon="13.603565"><ele>1036.0</ele><time>2026-04-25T14:44:04.957Z</time></trkpt><trkpt lat="46.4198483" lon="13.603715"><ele>1039.0</ele><time>2026-04-25T14:44:05.958Z</time></trkpt><trkpt lat="46.4197883" lon="13.6038667"><ele>1042.0</ele><time>2026-04-25T14:44:06.957Z</time></trkpt><trkpt lat="46.4197283" lon="13.6040317"><ele>1045.0</ele><time>2026-04-25T14:44:07.957Z</time></trkpt><trkpt lat="46.4196683" lon="13.6042"><ele>1048.0</ele><time>2026-04-25T14:44:08.958Z</time></trkpt><trkpt lat="46.4196117" lon="13.60437"><ele>1051.0</ele><time>2026-04-25T14:44:09.957Z</time></trkpt><trkpt lat="46.4195533" lon="13.6045383"><ele>1039.75</ele><time>2026-04-25T14:44:10.958Z</time></trkpt><trkpt lat="46.41949" lon="13.60472"><ele>1028.5</ele><time>2026-04-25T14:44:11.957Z</time></trkpt><trkpt lat="46.4194283" lon="13.604895"><ele>1017.25</ele><time>2026-04-25T14:44:12.957Z</time></trkpt><trkpt lat="46.4193667" lon="13.6050667"><ele>1006.0</ele><time>2026-04-25T14:44:13.956Z</time></trkpt><trkpt lat="46.4192933" lon="13.6052417"><ele>1009.75</ele><time>2026-04-25T14:44:14.957Z</time></trkpt><trkpt lat="46.419215" lon="13.6054067"><ele>1013.5</ele><time>2026-04-25T14:44:15.957Z</time></trkpt><trkpt lat="46.4191383" lon="13.6055717"><ele>1017.25</ele><time>2026-04-25T14:44:16.957Z</time></trkpt><trkpt lat="46.4190633" lon="13.605735"><ele>1021.0</ele><time>2026-04-25T14:44:17.956Z</time></trkpt><trkpt lat="46.4189983" lon="13.605895"><ele>1021.0</ele><time>2026-04-25T14:44:18.956Z</time></trkpt><trkpt lat="46.418935" lon="13.6060567"><ele>1021.0</ele><time>2026-04-25T14:44:19.957Z</time></trkpt><trkpt lat="46.41888" lon="13.6062083"><ele>1021.0</ele><time>2026-04-25T14:44:20.957Z</time></trkpt><trkpt lat="46.4188283" lon="13.6063533"><ele>1021.0</ele><time>2026-04-25T14:44:21.958Z</time></trkpt><trkpt lat="46.41877" lon="13.606495"><ele>1018.8</ele><time>2026-04-25T14:44:22.957Z</time></trkpt><trkpt lat="46.4187117" lon="13.6066267"><ele>1016.5999999999999</ele><time>2026-04-25T14:44:23.957Z</time></trkpt><trkpt lat="46.4186583" lon="13.6067483"><ele>1014.4</ele><time>2026-04-25T14:44:24.957Z</time></trkpt><trkpt lat="46.4186067" lon="13.606875"><ele>1012.2</ele><time>2026-04-25T14:44:25.956Z</time></trkpt><trkpt lat="46.41856" lon="13.6070017"><ele>1010.0</ele><time>2026-04-25T14:44:26.957Z</time></trkpt><trkpt lat="46.418505" lon="13.607125"><ele>1010.0</ele><time>2026-04-25T14:44:27.957Z</time></trkpt><trkpt lat="46.4184433" lon="13.6072367"><ele>1010.0</ele><time>2026-04-25T14:44:28.956Z</time></trkpt><trkpt lat="46.4183667" lon="13.60734"><ele>1010.0</ele><time>2026-04-25T14:44:29.957Z</time></trkpt><trkpt lat="46.41828" lon="13.607435"><ele>1010.0</ele><time>2026-04-25T14:44:30.957Z</time></trkpt><trkpt lat="46.4181983" lon="13.6075233"><ele>1010.0</ele><time>2026-04-25T14:44:31.957Z</time></trkpt><trkpt lat="46.4181183" lon="13.607615"><ele>1010.0</ele><time>2026-04-25T14:44:32.957Z</time></trkpt><trkpt lat="46.41804" lon="13.6077133"><ele>1010.0</ele><time>2026-04-25T14:44:33.957Z</time></trkpt><trkpt lat="46.417965" lon="13.6078233"><ele>1010.0</ele><time>2026-04-25T14:44:34.958Z</time></trkpt><trkpt lat="46.4178967" lon="13.6079333"><ele>1010.0</ele><time>2026-04-25T14:44:35.956Z</time></trkpt><trkpt lat="46.4178367" lon="13.6080517"><ele>1010.0</ele><time>2026-04-25T14:44:36.956Z</time></trkpt><trkpt lat="46.417795" lon="13.6081833"><ele>1008.5000000000001</ele><time>2026-04-25T14:44:37.957Z</time></trkpt><trkpt lat="46.4177817" lon="13.608315"><ele>1007.0</ele><time>2026-04-25T14:44:38.956Z</time></trkpt><trkpt lat="46.4177683" lon="13.6084417"><ele>1005.5</ele><time>2026-04-25T14:44:39.957Z</time></trkpt><trkpt lat="46.4177333" lon="13.6085533"><ele>1004.0</ele><time>2026-04-25T14:44:40.956Z</time></trkpt><trkpt lat="46.4176833" lon="13.6086417"><ele>1002.5000000000001</ele><time>2026-04-25T14:44:41.957Z</time></trkpt><trkpt lat="46.4176217" lon="13.6087067"><ele>1001.0</ele><time>2026-04-25T14:44:42.956Z</time></trkpt><trkpt lat="46.4175483" lon="13.6087483"><ele>1001.0000000000001</ele><time>2026-04-25T14:44:43.957Z</time></trkpt><trkpt lat="46.41747" lon="13.608775"><ele>1001.0</ele><time>2026-04-25T14:44:44.956Z</time></trkpt><trkpt lat="46.417385" lon="13.6088083"><ele>1001.0</ele><time>2026-04-25T14:44:45.957Z</time></trkpt><trkpt lat="46.4172967" lon="13.6088367"><ele>1001.0</ele><time>2026-04-25T14:44:46.957Z</time></trkpt><trkpt lat="46.4172183" lon="13.608885"><ele>1001.0000000000001</ele><time>2026-04-25T14:44:47.957Z</time></trkpt><trkpt lat="46.4171433" lon="13.6089567"><ele>1001.0</ele><time>2026-04-25T14:44:48.956Z</time></trkpt><trkpt lat="46.4170783" lon="13.6090483"><ele>995.5999999999999</ele><time>2026-04-25T14:44:49.957Z</time></trkpt><trkpt lat="46.4170083" lon="13.6091433"><ele>990.1999999999999</ele><time>2026-04-25T14:44:50.957Z</time></trkpt><trkpt lat="46.416935" lon="13.609235"><ele>984.8000000000001</ele><time>2026-04-25T14:44:51.957Z</time></trkpt><trkpt lat="46.4168617" lon="13.6093233"><ele>979.4000000000001</ele><time>2026-04-25T14:44:52.957Z</time></trkpt><trkpt lat="46.4167883" lon="13.6094083"><ele>974.0</ele><time>2026-04-25T14:44:53.955Z</time></trkpt><trkpt lat="46.41672" lon="13.6094867"><ele>974.0000000000001</ele><time>2026-04-25T14:44:54.956Z</time></trkpt><trkpt lat="46.41665" lon="13.60956"><ele>974.0</ele><time>2026-04-25T14:44:55.957Z</time></trkpt><trkpt lat="46.416585" lon="13.6096283"><ele>974.0</ele><time>2026-04-25T14:44:56.956Z</time></trkpt><trkpt lat="46.4165167" lon="13.609695"><ele>974.0</ele><time>2026-04-25T14:44:57.955Z</time></trkpt><trkpt lat="46.4164467" lon="13.609755"><ele>974.0000000000001</ele><time>2026-04-25T14:44:58.956Z</time></trkpt><trkpt lat="46.41637" lon="13.6098017"><ele>974.0</ele><time>2026-04-25T14:44:59.956Z</time></trkpt><trkpt lat="46.4162867" lon="13.6098167"><ele>974.0</ele><time>2026-04-25T14:45:00.955Z</time></trkpt><trkpt lat="46.4162067" lon="13.6097917"><ele>974.0</ele><time>2026-04-25T14:45:01.955Z</time></trkpt><trkpt lat="46.41614" lon="13.6097217"><ele>974.0</ele><time>2026-04-25T14:45:02.956Z</time></trkpt><trkpt lat="46.4160867" lon="13.60965"><ele>974.0</ele><time>2026-04-25T14:45:03.957Z</time></trkpt><trkpt lat="46.4160317" lon="13.6095883"><ele>974.0</ele><time>2026-04-25T14:45:04.957Z</time></trkpt><trkpt lat="46.4159717" lon="13.609545"><ele>974.0</ele><time>2026-04-25T14:45:05.956Z</time></trkpt><trkpt lat="46.41591" lon="13.6095183"><ele>974.0</ele><time>2026-04-25T14:45:06.957Z</time></trkpt><trkpt lat="46.4157983" lon="13.6095217"><ele>974.0</ele><time>2026-04-25T14:45:08.957Z</time></trkpt><trkpt lat="46.4156983" lon="13.6096017"><ele>974.0000000000001</ele><time>2026-04-25T14:45:10.957Z</time></trkpt><trkpt lat="46.41564" lon="13.6097433"><ele>974.0000000000001</ele><time>2026-04-25T14:45:12.956Z</time></trkpt><trkpt lat="46.4156033" lon="13.6099133"><ele>974.0</ele><time>2026-04-25T14:45:14.956Z</time></trkpt><trkpt lat="46.4155833" lon="13.61001"><ele>974.0</ele><time>2026-04-25T14:45:15.957Z</time></trkpt><trkpt lat="46.4155733" lon="13.6101167"><ele>974.0000000000001</ele><time>2026-04-25T14:45:16.956Z</time></trkpt><trkpt lat="46.4155683" lon="13.61023"><ele>974.0</ele><time>2026-04-25T14:45:17.957Z</time></trkpt><trkpt lat="46.4155633" lon="13.610355"><ele>974.0</ele><time>2026-04-25T14:45:18.957Z</time></trkpt><trkpt lat="46.415555" lon="13.6104783"><ele>974.0</ele><time>2026-04-25T14:45:19.958Z</time></trkpt><trkpt lat="46.4155483" lon="13.610605"><ele>974.0000000000001</ele><time>2026-04-25T14:45:20.957Z</time></trkpt><trkpt lat="46.4155417" lon="13.610715"><ele>974.0</ele><time>2026-04-25T14:45:21.957Z</time></trkpt><trkpt lat="46.415535" lon="13.6108133"><ele>971.8000000000001</ele><time>2026-04-25T14:45:22.958Z</time></trkpt><trkpt lat="46.4155267" lon="13.6109767"><ele>969.6000000000001</ele><time>2026-04-25T14:45:24.956Z</time></trkpt><trkpt lat="46.415535" lon="13.6111383"><ele>967.4</ele><time>2026-04-25T14:45:26.956Z</time></trkpt><trkpt lat="46.4156067" lon="13.6112883"><ele>965.2</ele><time>2026-04-25T14:45:28.958Z</time></trkpt><trkpt lat="46.41566" lon="13.6113467"><ele>963.0</ele><time>2026-04-25T14:45:29.956Z</time></trkpt><trkpt lat="46.4157167" lon="13.6113983"><ele>961.0000000000001</ele><time>2026-04-25T14:45:30.957Z</time></trkpt><trkpt lat="46.4157767" lon="13.6114517"><ele>959.0</ele><time>2026-04-25T14:45:31.957Z</time></trkpt><trkpt lat="46.4158383" lon="13.6115133"><ele>957.0000000000001</ele><time>2026-04-25T14:45:32.957Z</time></trkpt><trkpt lat="46.4159" lon="13.6115733"><ele>955.0000000000001</ele><time>2026-04-25T14:45:33.958Z</time></trkpt><trkpt lat="46.4159583" lon="13.611645"><ele>953.0</ele><time>2026-04-25T14:45:34.957Z</time></trkpt><trkpt lat="46.4160067" lon="13.6117267"><ele>951.0000000000001</ele><time>2026-04-25T14:45:35.956Z</time></trkpt><trkpt lat="46.4160383" lon="13.61183"><ele>949.0000000000001</ele><time>2026-04-25T14:45:36.956Z</time></trkpt><trkpt lat="46.4160317" lon="13.611955"><ele>948.0</ele><time>2026-04-25T14:45:37.957Z</time></trkpt><trkpt lat="46.41601" lon="13.61206"><ele>947.0000000000001</ele><time>2026-04-25T14:45:38.956Z</time></trkpt><trkpt lat="46.415965" lon="13.612165"><ele>946.0000000000001</ele><time>2026-04-25T14:45:39.957Z</time></trkpt><trkpt lat="46.415915" lon="13.6122917"><ele>945.0</ele><time>2026-04-25T14:45:40.957Z</time></trkpt><trkpt lat="46.4158583" lon="13.6124633"><ele>944.0</ele><time>2026-04-25T14:45:41.956Z</time></trkpt><trkpt lat="46.4158067" lon="13.61265"><ele>946.5</ele><time>2026-04-25T14:45:42.956Z</time></trkpt><trkpt lat="46.415755" lon="13.6128467"><ele>949.0</ele><time>2026-04-25T14:45:43.957Z</time></trkpt><trkpt lat="46.4157" lon="13.6130483"><ele>951.5</ele><time>2026-04-25T14:45:44.957Z</time></trkpt><trkpt lat="46.4156417" lon="13.613245"><ele>954.0</ele><time>2026-04-25T14:45:45.956Z</time></trkpt><trkpt lat="46.4155833" lon="13.6134367"><ele>954.0</ele><time>2026-04-25T14:45:46.957Z</time></trkpt><trkpt lat="46.4155267" lon="13.6136283"><ele>954.0</ele><time>2026-04-25T14:45:47.956Z</time></trkpt><trkpt lat="46.4154683" lon="13.613825"><ele>954.0</ele><time>2026-04-25T14:45:48.957Z</time></trkpt><trkpt lat="46.4154067" lon="13.61402"><ele>954.0</ele><time>2026-04-25T14:45:49.956Z</time></trkpt><trkpt lat="46.41533" lon="13.6141917"><ele>947.0</ele><time>2026-04-25T14:45:50.956Z</time></trkpt><trkpt lat="46.4152517" lon="13.6143283"><ele>940.0</ele><time>2026-04-25T14:45:51.957Z</time></trkpt><trkpt lat="46.4151717" lon="13.6144483"><ele>933.0</ele><time>2026-04-25T14:45:52.957Z</time></trkpt><trkpt lat="46.4151033" lon="13.61457"><ele>926.0</ele><time>2026-04-25T14:45:53.955Z</time></trkpt><trkpt lat="46.4150483" lon="13.6147033"><ele>926.0</ele><time>2026-04-25T14:45:54.955Z</time></trkpt><trkpt lat="46.4150133" lon="13.6148533"><ele>926.0</ele><time>2026-04-25T14:45:55.956Z</time></trkpt><trkpt lat="46.4150067" lon="13.6150183"><ele>926.0</ele><time>2026-04-25T14:45:56.956Z</time></trkpt><trkpt lat="46.415025" lon="13.61519"><ele>926.0</ele><time>2026-04-25T14:45:57.957Z</time></trkpt><trkpt lat="46.4150683" lon="13.6153667"><ele>925.5</ele><time>2026-04-25T14:45:58.957Z</time></trkpt><trkpt lat="46.4151117" lon="13.61555"><ele>925.0</ele><time>2026-04-25T14:45:59.956Z</time></trkpt><trkpt lat="46.4151567" lon="13.61574"><ele>924.5</ele><time>2026-04-25T14:46:00.96Z</time></trkpt><trkpt lat="46.4152" lon="13.61593"><ele>924.0</ele><time>2026-04-25T14:46:01.956Z</time></trkpt><trkpt lat="46.4152433" lon="13.6161217"><ele>919.25</ele><time>2026-04-25T14:46:02.956Z</time></trkpt><trkpt lat="46.4152867" lon="13.6163133"><ele>914.5</ele><time>2026-04-25T14:46:03.957Z</time></trkpt><trkpt lat="46.4153317" lon="13.6164983"><ele>909.75</ele><time>2026-04-25T14:46:04.956Z</time></trkpt><trkpt lat="46.4153817" lon="13.6166867"><ele>905.0</ele><time>2026-04-25T14:46:05.956Z</time></trkpt><trkpt lat="46.4154367" lon="13.6168833"><ele>908.75</ele><time>2026-04-25T14:46:06.955Z</time></trkpt><trkpt lat="46.4154917" lon="13.6170833"><ele>912.5</ele><time>2026-04-25T14:46:07.957Z</time></trkpt><trkpt lat="46.4155433" lon="13.617275"><ele>916.25</ele><time>2026-04-25T14:46:08.956Z</time></trkpt><trkpt lat="46.4155867" lon="13.617475"><ele>920.0</ele><time>2026-04-25T14:46:09.957Z</time></trkpt><trkpt lat="46.415605" lon="13.617685"><ele>916.5</ele><time>2026-04-25T14:46:10.957Z</time></trkpt><trkpt lat="46.4156233" lon="13.617875"><ele>913.0</ele><time>2026-04-25T14:46:11.956Z</time></trkpt><trkpt lat="46.415635" lon="13.6180533"><ele>909.5</ele><time>2026-04-25T14:46:12.957Z</time></trkpt><trkpt lat="46.4156483" lon="13.61822"><ele>906.0</ele><time>2026-04-25T14:46:13.957Z</time></trkpt><trkpt lat="46.4156633" lon="13.6183783"><ele>906.0</ele><time>2026-04-25T14:46:14.956Z</time></trkpt><trkpt lat="46.415685" lon="13.6185217"><ele>905.9999999999999</ele><time>2026-04-25T14:46:15.957Z</time></trkpt><trkpt lat="46.4157167" lon="13.6186567"><ele>905.9999999999999</ele><time>2026-04-25T14:46:16.956Z</time></trkpt><trkpt lat="46.4157633" lon="13.6187817"><ele>906.0</ele><time>2026-04-25T14:46:17.957Z</time></trkpt><trkpt lat="46.4158217" lon="13.61888"><ele>906.0</ele><time>2026-04-25T14:46:18.957Z</time></trkpt><trkpt lat="46.4158917" lon="13.618955"><ele>902.5999999999999</ele><time>2026-04-25T14:46:19.957Z</time></trkpt><trkpt lat="46.4159667" lon="13.6190217"><ele>899.1999999999999</ele><time>2026-04-25T14:46:20.957Z</time></trkpt><trkpt lat="46.41604" lon="13.6190933"><ele>895.8000000000001</ele><time>2026-04-25T14:46:21.957Z</time></trkpt><trkpt lat="46.41611" lon="13.6191767"><ele>892.4000000000001</ele><time>2026-04-25T14:46:22.956Z</time></trkpt><trkpt lat="46.4161783" lon="13.6192683"><ele>889.0</ele><time>2026-04-25T14:46:23.956Z</time></trkpt><trkpt lat="46.4162317" lon="13.6193733"><ele>885.8000000000001</ele><time>2026-04-25T14:46:24.957Z</time></trkpt><trkpt lat="46.416285" lon="13.6194883"><ele>882.6000000000001</ele><time>2026-04-25T14:46:25.957Z</time></trkpt><trkpt lat="46.4163317" lon="13.619635"><ele>879.4</ele><time>2026-04-25T14:46:26.956Z</time></trkpt><trkpt lat="46.41636" lon="13.619795"><ele>876.2</ele><time>2026-04-25T14:46:27.956Z</time></trkpt><trkpt lat="46.4163733" lon="13.6199617"><ele>873.0</ele><time>2026-04-25T14:46:28.957Z</time></trkpt><trkpt lat="46.4163833" lon="13.62013"><ele>878.75</ele><time>2026-04-25T14:46:29.956Z</time></trkpt><trkpt lat="46.4164017" lon="13.620295"><ele>884.5</ele><time>2026-04-25T14:46:30.956Z</time></trkpt><trkpt lat="46.4164317" lon="13.6204617"><ele>890.25</ele><time>2026-04-25T14:46:31.957Z</time></trkpt><trkpt lat="46.4164767" lon="13.6206233"><ele>896.0</ele><time>2026-04-25T14:46:32.955Z</time></trkpt><trkpt lat="46.416525" lon="13.6207967"><ele>896.0</ele><time>2026-04-25T14:46:33.956Z</time></trkpt><trkpt lat="46.4165817" lon="13.6209717"><ele>896.0</ele><time>2026-04-25T14:46:34.956Z</time></trkpt><trkpt lat="46.4166367" lon="13.6211383"><ele>896.0</ele><time>2026-04-25T14:46:35.956Z</time></trkpt><trkpt lat="46.4166933" lon="13.6213033"><ele>896.0</ele><time>2026-04-25T14:46:36.957Z</time></trkpt><trkpt lat="46.4167367" lon="13.621475"><ele>890.75</ele><time>2026-04-25T14:46:37.957Z</time></trkpt><trkpt lat="46.41677" lon="13.6216533"><ele>885.5</ele><time>2026-04-25T14:46:38.955Z</time></trkpt><trkpt lat="46.4168" lon="13.6218217"><ele>880.25</ele><time>2026-04-25T14:46:39.957Z</time></trkpt><trkpt lat="46.4168267" lon="13.6219867"><ele>875.0</ele><time>2026-04-25T14:46:40.957Z</time></trkpt><trkpt lat="46.4168567" lon="13.62214"><ele>871.4</ele><time>2026-04-25T14:46:41.956Z</time></trkpt><trkpt lat="46.4168933" lon="13.62229"><ele>867.8</ele><time>2026-04-25T14:46:42.956Z</time></trkpt><trkpt lat="46.4169383" lon="13.622435"><ele>864.2</ele><time>2026-04-25T14:46:43.957Z</time></trkpt><trkpt lat="46.4169817" lon="13.6225883"><ele>860.6</ele><time>2026-04-25T14:46:44.955Z</time></trkpt><trkpt lat="46.4170167" lon="13.6227467"><ele>857.0</ele><time>2026-04-25T14:46:45.958Z</time></trkpt><trkpt lat="46.41704" lon="13.6229"><ele>854.0</ele><time>2026-04-25T14:46:46.957Z</time></trkpt><trkpt lat="46.417065" lon="13.62305"><ele>851.0</ele><time>2026-04-25T14:46:47.957Z</time></trkpt><trkpt lat="46.4170967" lon="13.6231883"><ele>848.0</ele><time>2026-04-25T14:46:48.957Z</time></trkpt><trkpt lat="46.41714" lon="13.6233233"><ele>845.0</ele><time>2026-04-25T14:46:49.957Z</time></trkpt><trkpt lat="46.41718" lon="13.6234483"><ele>842.0</ele><time>2026-04-25T14:46:50.956Z</time></trkpt><trkpt lat="46.4172033" lon="13.6235883"><ele>845.5000000000001</ele><time>2026-04-25T14:46:51.957Z</time></trkpt><trkpt lat="46.4172167" lon="13.6237217"><ele>849.0</ele><time>2026-04-25T14:46:52.957Z</time></trkpt><trkpt lat="46.41722" lon="13.6238467"><ele>852.5</ele><time>2026-04-25T14:46:53.955Z</time></trkpt><trkpt lat="46.4172133" lon="13.62397"><ele>856.0</ele><time>2026-04-25T14:46:54.956Z</time></trkpt><trkpt lat="46.4171983" lon="13.6240867"><ele>859.5000000000001</ele><time>2026-04-25T14:46:55.958Z</time></trkpt><trkpt lat="46.4171817" lon="13.6242"><ele>863.0</ele><time>2026-04-25T14:46:56.956Z</time></trkpt><trkpt lat="46.4171717" lon="13.624305"><ele>863.0</ele><time>2026-04-25T14:46:57.957Z</time></trkpt><trkpt lat="46.4171767" lon="13.6244033"><ele>863.0</ele><time>2026-04-25T14:46:58.957Z</time></trkpt><trkpt lat="46.4172417" lon="13.6245467"><ele>863.0</ele><time>2026-04-25T14:47:00.956Z</time></trkpt><trkpt lat="46.417335" lon="13.62459"><ele>863.0</ele><time>2026-04-25T14:47:02.956Z</time></trkpt><trkpt lat="46.4174317" lon="13.624505"><ele>863.0</ele><time>2026-04-25T14:47:04.957Z</time></trkpt><trkpt lat="46.417485" lon="13.6244083"><ele>863.0000000000001</ele><time>2026-04-25T14:47:05.956Z</time></trkpt><trkpt lat="46.41754" lon="13.6243417"><ele>863.0</ele><time>2026-04-25T14:47:06.956Z</time></trkpt><trkpt lat="46.41765" lon="13.6243183"><ele>863.0</ele><time>2026-04-25T14:47:08.956Z</time></trkpt><trkpt lat="46.417725" lon="13.624435"><ele>863.0</ele><time>2026-04-25T14:47:10.958Z</time></trkpt><trkpt lat="46.4177183" lon="13.6245267"><ele>863.0000000000001</ele><time>2026-04-25T14:47:11.956Z</time></trkpt><trkpt lat="46.4176983" lon="13.624615"><ele>863.0</ele><time>2026-04-25T14:47:12.957Z</time></trkpt><trkpt lat="46.4176517" lon="13.6246933"><ele>858.0</ele><time>2026-04-25T14:47:13.957Z</time></trkpt><trkpt lat="46.4175483" lon="13.6247633"><ele>853.0</ele><time>2026-04-25T14:47:14.956Z</time></trkpt><trkpt lat="46.4174367" lon="13.6247917"><ele>848.0</ele><time>2026-04-25T14:47:15.957Z</time></trkpt><trkpt lat="46.4173233" lon="13.6247983"><ele>843.0</ele><time>2026-04-25T14:47:16.958Z</time></trkpt><trkpt lat="46.4172167" lon="13.624775"><ele>838.0</ele><time>2026-04-25T14:47:17.957Z</time></trkpt><trkpt lat="46.4171233" lon="13.6247233"><ele>836.2</ele><time>2026-04-25T14:47:18.957Z</time></trkpt><trkpt lat="46.4170333" lon="13.6246667"><ele>834.4</ele><time>2026-04-25T14:47:19.957Z</time></trkpt><trkpt lat="46.416965" lon="13.62457"><ele>832.6</ele><time>2026-04-25T14:47:20.955Z</time></trkpt><trkpt lat="46.4169067" lon="13.624455"><ele>830.8000000000001</ele><time>2026-04-25T14:47:21.957Z</time></trkpt><trkpt lat="46.416855" lon="13.6243267"><ele>829.0</ele><time>2026-04-25T14:47:22.957Z</time></trkpt><trkpt lat="46.416805" lon="13.6241933"><ele>829.0</ele><time>2026-04-25T14:47:23.956Z</time></trkpt><trkpt lat="46.416755" lon="13.62405"><ele>829.0</ele><time>2026-04-25T14:47:24.957Z</time></trkpt><trkpt lat="46.4167133" lon="13.623895"><ele>829.0</ele><time>2026-04-25T14:47:25.958Z</time></trkpt><trkpt lat="46.4166767" lon="13.6237367"><ele>829.0</ele><time>2026-04-25T14:47:26.956Z</time></trkpt><trkpt lat="46.41664" lon="13.62359"><ele>829.0</ele><time>2026-04-25T14:47:27.956Z</time></trkpt><trkpt lat="46.4165967" lon="13.623445"><ele>831.6</ele><time>2026-04-25T14:47:28.956Z</time></trkpt><trkpt lat="46.416545" lon="13.6233083"><ele>834.2</ele><time>2026-04-25T14:47:29.956Z</time></trkpt><trkpt lat="46.4164867" lon="13.6231783"><ele>836.8000000000001</ele><time>2026-04-25T14:47:30.957Z</time></trkpt><trkpt lat="46.416435" lon="13.623045"><ele>839.4000000000001</ele><time>2026-04-25T14:47:31.956Z</time></trkpt><trkpt lat="46.41639" lon="13.622915"><ele>842.0</ele><time>2026-04-25T14:47:32.957Z</time></trkpt><trkpt lat="46.4163417" lon="13.622785"><ele>837.0</ele><time>2026-04-25T14:47:33.957Z</time></trkpt><trkpt lat="46.4162867" lon="13.6226733"><ele>832.0</ele><time>2026-04-25T14:47:34.958Z</time></trkpt><trkpt lat="46.4162217" lon="13.62258"><ele>827.0</ele><time>2026-04-25T14:47:35.955Z</time></trkpt><trkpt lat="46.41615" lon="13.6225033"><ele>822.0</ele><time>2026-04-25T14:47:36.956Z</time></trkpt><trkpt lat="46.4160717" lon="13.6224317"><ele>817.0</ele><time>2026-04-25T14:47:37.957Z</time></trkpt><trkpt lat="46.41599" lon="13.62238"><ele>817.0</ele><time>2026-04-25T14:47:38.956Z</time></trkpt><trkpt lat="46.41591" lon="13.6223183"><ele>817.0</ele><time>2026-04-25T14:47:39.956Z</time></trkpt><trkpt lat="46.4158367" lon="13.6222317"><ele>817.0</ele><time>2026-04-25T14:47:40.956Z</time></trkpt><trkpt lat="46.415765" lon="13.6221217"><ele>817.0</ele><time>2026-04-25T14:47:41.956Z</time></trkpt><trkpt lat="46.4156833" lon="13.6219967"><ele>817.0</ele><time>2026-04-25T14:47:42.957Z</time></trkpt><trkpt lat="46.41559" lon="13.6218467"><ele>810.3333333333333</ele><time>2026-04-25T14:47:43.957Z</time></trkpt><trkpt lat="46.4154733" lon="13.621685"><ele>803.6666666666667</ele><time>2026-04-25T14:47:44.956Z</time></trkpt><trkpt lat="46.415345" lon="13.62151"><ele>797.0</ele><time>2026-04-25T14:47:45.957Z</time></trkpt><trkpt lat="46.4152167" lon="13.62132"><ele>803.6666666666667</ele><time>2026-04-25T14:47:46.959Z</time></trkpt><trkpt lat="46.415085" lon="13.62112"><ele>810.3333333333333</ele><time>2026-04-25T14:47:47.955Z</time></trkpt><trkpt lat="46.4149483" lon="13.6209183"><ele>817.0</ele><time>2026-04-25T14:47:48.957Z</time></trkpt><trkpt lat="46.414805" lon="13.6207167"><ele>817.0</ele><time>2026-04-25T14:47:49.958Z</time></trkpt><trkpt lat="46.4146617" lon="13.6205133"><ele>817.0</ele><time>2026-04-25T14:47:50.957Z</time></trkpt><trkpt lat="46.4145233" lon="13.620305"><ele>817.0</ele><time>2026-04-25T14:47:51.957Z</time></trkpt><trkpt lat="46.4143833" lon="13.6201067"><ele>813.3333333333333</ele><time>2026-04-25T14:47:52.957Z</time></trkpt><trkpt lat="46.4142467" lon="13.6199067"><ele>809.6666666666667</ele><time>2026-04-25T14:47:53.955Z</time></trkpt><trkpt lat="46.414115" lon="13.6196917"><ele>806.0</ele><time>2026-04-25T14:47:54.957Z</time></trkpt><trkpt lat="46.4139933" lon="13.6194633"><ele>806.0</ele><time>2026-04-25T14:47:55.957Z</time></trkpt><trkpt lat="46.4138683" lon="13.6192383"><ele>806.0</ele><time>2026-04-25T14:47:56.958Z</time></trkpt><trkpt lat="46.4137517" lon="13.6190017"><ele>806.0</ele><time>2026-04-25T14:47:57.956Z</time></trkpt><trkpt lat="46.4136533" lon="13.6187667"><ele>790.3333333333334</ele><time>2026-04-25T14:47:58.956Z</time></trkpt><trkpt lat="46.4135683" lon="13.6185483"><ele>774.6666666666667</ele><time>2026-04-25T14:47:59.955Z</time></trkpt><trkpt lat="46.4135017" lon="13.6183183"><ele>759.0</ele><time>2026-04-25T14:48:00.957Z</time></trkpt><trkpt lat="46.413455" lon="13.6180783"><ele>759.0</ele><time>2026-04-25T14:48:01.956Z</time></trkpt><trkpt lat="46.413415" lon="13.6178333"><ele>759.0</ele><time>2026-04-25T14:48:02.957Z</time></trkpt><trkpt lat="46.41337" lon="13.61759"><ele>759.0</ele><time>2026-04-25T14:48:03.957Z</time></trkpt><trkpt lat="46.4133267" lon="13.617335"><ele>761.0</ele><time>2026-04-25T14:48:04.956Z</time></trkpt><trkpt lat="46.4132883" lon="13.61708"><ele>763.0</ele><time>2026-04-25T14:48:05.957Z</time></trkpt><trkpt lat="46.4132483" lon="13.616825"><ele>765.0</ele><time>2026-04-25T14:48:06.957Z</time></trkpt><trkpt lat="46.413205" lon="13.6165767"><ele>769.0</ele><time>2026-04-25T14:48:07.957Z</time></trkpt><trkpt lat="46.4131467" lon="13.6163333"><ele>773.0</ele><time>2026-04-25T14:48:08.957Z</time></trkpt><trkpt lat="46.41308" lon="13.616095"><ele>777.0</ele><time>2026-04-25T14:48:09.956Z</time></trkpt><trkpt lat="46.41301" lon="13.6158483"><ele>765.0</ele><time>2026-04-25T14:48:10.957Z</time></trkpt><trkpt lat="46.4129417" lon="13.615605"><ele>753.0</ele><time>2026-04-25T14:48:11.956Z</time></trkpt><trkpt lat="46.4128683" lon="13.61536"><ele>741.0</ele><time>2026-04-25T14:48:12.957Z</time></trkpt><trkpt lat="46.4127983" lon="13.6151117"><ele>739.0</ele><time>2026-04-25T14:48:13.958Z</time></trkpt><trkpt lat="46.41272" lon="13.6148633"><ele>737.0</ele><time>2026-04-25T14:48:14.958Z</time></trkpt><trkpt lat="46.4126383" lon="13.6146133"><ele>735.0</ele><time>2026-04-25T14:48:15.958Z</time></trkpt><trkpt lat="46.412565" lon="13.6143617"><ele>735.0</ele><time>2026-04-25T14:48:16.956Z</time></trkpt><trkpt lat="46.41249" lon="13.6141117"><ele>735.0</ele><time>2026-04-25T14:48:17.956Z</time></trkpt><trkpt lat="46.412425" lon="13.6138567"><ele>735.0</ele><time>2026-04-25T14:48:18.956Z</time></trkpt><trkpt lat="46.41237" lon="13.6135933"><ele>735.0</ele><time>2026-04-25T14:48:19.96Z</time></trkpt><trkpt lat="46.4123167" lon="13.6133333"><ele>735.0</ele><time>2026-04-25T14:48:20.956Z</time></trkpt><trkpt lat="46.4122467" lon="13.61309"><ele>735.0</ele><time>2026-04-25T14:48:21.957Z</time></trkpt><trkpt lat="46.4121717" lon="13.61286"><ele>726.0</ele><time>2026-04-25T14:48:22.959Z</time></trkpt><trkpt lat="46.4121117" lon="13.612625"><ele>717.0</ele><time>2026-04-25T14:48:23.956Z</time></trkpt><trkpt lat="46.412065" lon="13.6123717"><ele>708.0</ele><time>2026-04-25T14:48:24.956Z</time></trkpt><trkpt lat="46.4120117" lon="13.61212"><ele>708.0</ele><time>2026-04-25T14:48:25.957Z</time></trkpt><trkpt lat="46.41195" lon="13.6118717"><ele>708.0</ele><time>2026-04-25T14:48:26.958Z</time></trkpt><trkpt lat="46.4118817" lon="13.6116217"><ele>708.0</ele><time>2026-04-25T14:48:27.957Z</time></trkpt><trkpt lat="46.41181" lon="13.6113717"><ele>708.0</ele><time>2026-04-25T14:48:28.959Z</time></trkpt><trkpt lat="46.4117217" lon="13.61113"><ele>708.0</ele><time>2026-04-25T14:48:29.957Z</time></trkpt><trkpt lat="46.4116267" lon="13.6109"><ele>708.0</ele><time>2026-04-25T14:48:30.957Z</time></trkpt><trkpt lat="46.4115217" lon="13.6106867"><ele>701.6666666666666</ele><time>2026-04-25T14:48:31.959Z</time></trkpt><trkpt lat="46.41141" lon="13.6104917"><ele>695.3333333333333</ele><time>2026-04-25T14:48:32.958Z</time></trkpt><trkpt lat="46.4113033" lon="13.610305"><ele>689.0</ele><time>2026-04-25T14:48:33.957Z</time></trkpt><trkpt lat="46.4112033" lon="13.61012"><ele>689.0</ele><time>2026-04-25T14:48:34.959Z</time></trkpt><trkpt lat="46.41112" lon="13.6099217"><ele>689.0</ele><time>2026-04-25T14:48:35.958Z</time></trkpt><trkpt lat="46.4110533" lon="13.609705"><ele>689.0</ele><time>2026-04-25T14:48:36.958Z</time></trkpt><trkpt lat="46.4109817" lon="13.60949"><ele>692.0</ele><time>2026-04-25T14:48:37.958Z</time></trkpt><trkpt lat="46.4109067" lon="13.6092817"><ele>695.0</ele><time>2026-04-25T14:48:38.958Z</time></trkpt><trkpt lat="46.410835" lon="13.6090683"><ele>698.0</ele><time>2026-04-25T14:48:39.958Z</time></trkpt><trkpt lat="46.4107733" lon="13.6088467"><ele>700.0</ele><time>2026-04-25T14:48:40.959Z</time></trkpt><trkpt lat="46.4107133" lon="13.6086183"><ele>702.0</ele><time>2026-04-25T14:48:41.957Z</time></trkpt><trkpt lat="46.4106567" lon="13.60838"><ele>704.0</ele><time>2026-04-25T14:48:42.959Z</time></trkpt><trkpt lat="46.4105917" lon="13.6081383"><ele>704.0</ele><time>2026-04-25T14:48:43.959Z</time></trkpt><trkpt lat="46.4105167" lon="13.6079"><ele>704.0</ele><time>2026-04-25T14:48:44.958Z</time></trkpt><trkpt lat="46.41044" lon="13.607665"><ele>704.0</ele><time>2026-04-25T14:48:45.959Z</time></trkpt><trkpt lat="46.4103617" lon="13.60743"><ele>705.0</ele><time>2026-04-25T14:48:46.959Z</time></trkpt><trkpt lat="46.410275" lon="13.6072017"><ele>706.0</ele><time>2026-04-25T14:48:47.958Z</time></trkpt><trkpt lat="46.41019" lon="13.6069867"><ele>707.0</ele><time>2026-04-25T14:48:48.957Z</time></trkpt><trkpt lat="46.4101117" lon="13.6067883"><ele>707.0</ele><time>2026-04-25T14:48:49.959Z</time></trkpt><trkpt lat="46.410035" lon="13.60661"><ele>707.0</ele><time>2026-04-25T14:48:50.957Z</time></trkpt><trkpt lat="46.4099567" lon="13.60646"><ele>707.0</ele><time>2026-04-25T14:48:51.958Z</time></trkpt><trkpt lat="46.40987" lon="13.6063367"><ele>707.0</ele><time>2026-04-25T14:48:52.959Z</time></trkpt><trkpt lat="46.4097583" lon="13.6062717"><ele>702.75</ele><time>2026-04-25T14:48:53.957Z</time></trkpt><trkpt lat="46.4096417" lon="13.606225"><ele>698.5</ele><time>2026-04-25T14:48:54.958Z</time></trkpt><trkpt lat="46.4095183" lon="13.60618"><ele>694.25</ele><time>2026-04-25T14:48:55.959Z</time></trkpt><trkpt lat="46.40939" lon="13.6061233"><ele>690.0</ele><time>2026-04-25T14:48:56.958Z</time></trkpt><trkpt lat="46.40926" lon="13.6060533"><ele>690.0</ele><time>2026-04-25T14:48:57.959Z</time></trkpt><trkpt lat="46.4091233" lon="13.6059883"><ele>690.0</ele><time>2026-04-25T14:48:58.958Z</time></trkpt><trkpt lat="46.40898" lon="13.605925"><ele>690.0</ele><time>2026-04-25T14:48:59.958Z</time></trkpt><trkpt lat="46.4088333" lon="13.60586"><ele>690.0</ele><time>2026-04-25T14:49:00.958Z</time></trkpt><trkpt lat="46.4086867" lon="13.6058"><ele>684.25</ele><time>2026-04-25T14:49:01.958Z</time></trkpt><trkpt lat="46.4085483" lon="13.6057367"><ele>678.5</ele><time>2026-04-25T14:49:02.958Z</time></trkpt><trkpt lat="46.4084183" lon="13.605685"><ele>672.75</ele><time>2026-04-25T14:49:03.96Z</time></trkpt><trkpt lat="46.4083067" lon="13.60562"><ele>667.0</ele><time>2026-04-25T14:49:04.959Z</time></trkpt><trkpt lat="46.4082217" lon="13.605525"><ele>667.0</ele><time>2026-04-25T14:49:05.958Z</time></trkpt><trkpt lat="46.40817" lon="13.6053933"><ele>667.0</ele><time>2026-04-25T14:49:06.959Z</time></trkpt><trkpt lat="46.4081517" lon="13.60524"><ele>667.0</ele><time>2026-04-25T14:49:07.959Z</time></trkpt><trkpt lat="46.4081483" lon="13.60508"><ele>667.0</ele><time>2026-04-25T14:49:08.958Z</time></trkpt><trkpt lat="46.4081517" lon="13.60491"><ele>667.0</ele><time>2026-04-25T14:49:09.959Z</time></trkpt><trkpt lat="46.4081583" lon="13.6047383"><ele>667.0</ele><time>2026-04-25T14:49:10.958Z</time></trkpt><trkpt lat="46.408155" lon="13.6045583"><ele>667.0</ele><time>2026-04-25T14:49:11.959Z</time></trkpt><trkpt lat="46.408145" lon="13.6043783"><ele>667.0</ele><time>2026-04-25T14:49:12.959Z</time></trkpt><trkpt lat="46.40812" lon="13.6042033"><ele>667.0</ele><time>2026-04-25T14:49:13.959Z</time></trkpt><trkpt lat="46.4080683" lon="13.6040367"><ele>664.25</ele><time>2026-04-25T14:49:14.958Z</time></trkpt><trkpt lat="46.4079933" lon="13.6038983"><ele>661.5</ele><time>2026-04-25T14:49:15.959Z</time></trkpt><trkpt lat="46.407905" lon="13.6037833"><ele>658.75</ele><time>2026-04-25T14:49:16.959Z</time></trkpt><trkpt lat="46.4078083" lon="13.60369"><ele>656.0</ele><time>2026-04-25T14:49:17.958Z</time></trkpt><trkpt lat="46.4077067" lon="13.6036133"><ele>656.0</ele><time>2026-04-25T14:49:18.958Z</time></trkpt><trkpt lat="46.4076017" lon="13.603545"><ele>656.0</ele><time>2026-04-25T14:49:19.958Z</time></trkpt><trkpt lat="46.4074917" lon="13.6034983"><ele>656.0</ele><time>2026-04-25T14:49:20.958Z</time></trkpt><trkpt lat="46.4073767" lon="13.6034733"><ele>656.0</ele><time>2026-04-25T14:49:21.959Z</time></trkpt><trkpt lat="46.4072617" lon="13.60347"><ele>655.0</ele><time>2026-04-25T14:49:22.959Z</time></trkpt><trkpt lat="46.4071517" lon="13.603475"><ele>654.0</ele><time>2026-04-25T14:49:23.958Z</time></trkpt><trkpt lat="46.4070467" lon="13.6034867"><ele>653.0</ele><time>2026-04-25T14:49:24.958Z</time></trkpt><trkpt lat="46.40695" lon="13.6035033"><ele>652.0</ele><time>2026-04-25T14:49:25.958Z</time></trkpt><trkpt lat="46.4068567" lon="13.6035133"><ele>651.0</ele><time>2026-04-25T14:49:26.959Z</time></trkpt><trkpt lat="46.40677" lon="13.603515"><ele>651.0</ele><time>2026-04-25T14:49:27.958Z</time></trkpt><trkpt lat="46.4066867" lon="13.6034933"><ele>651.0</ele><time>2026-04-25T14:49:28.959Z</time></trkpt><trkpt lat="46.406605" lon="13.6034667"><ele>651.0</ele><time>2026-04-25T14:49:29.957Z</time></trkpt><trkpt lat="46.4065267" lon="13.6034217"><ele>651.0</ele><time>2026-04-25T14:49:30.958Z</time></trkpt><trkpt lat="46.4064617" lon="13.6033467"><ele>651.0</ele><time>2026-04-25T14:49:31.959Z</time></trkpt><trkpt lat="46.4063933" lon="13.6032667"><ele>651.0</ele><time>2026-04-25T14:49:32.959Z</time></trkpt><trkpt lat="46.4063183" lon="13.6031867"><ele>649.8</ele><time>2026-04-25T14:49:33.959Z</time></trkpt><trkpt lat="46.4062417" lon="13.6031067"><ele>648.5999999999999</ele><time>2026-04-25T14:49:34.959Z</time></trkpt><trkpt lat="46.40616" lon="13.60303"><ele>647.4</ele><time>2026-04-25T14:49:35.959Z</time></trkpt><trkpt lat="46.40607" lon="13.6029617"><ele>646.2</ele><time>2026-04-25T14:49:36.958Z</time></trkpt><trkpt lat="46.405975" lon="13.6028983"><ele>645.0</ele><time>2026-04-25T14:49:37.958Z</time></trkpt><trkpt lat="46.4058767" lon="13.6028367"><ele>644.8</ele><time>2026-04-25T14:49:38.959Z</time></trkpt><trkpt lat="46.40578" lon="13.6027767"><ele>644.6</ele><time>2026-04-25T14:49:39.959Z</time></trkpt><trkpt lat="46.4056867" lon="13.60271"><ele>644.4000000000001</ele><time>2026-04-25T14:49:40.958Z</time></trkpt><trkpt lat="46.4055883" lon="13.6026383"><ele>644.2</ele><time>2026-04-25T14:49:41.959Z</time></trkpt><trkpt lat="46.40549" lon="13.6025633"><ele>644.0</ele><time>2026-04-25T14:49:42.959Z</time></trkpt><trkpt lat="46.40539" lon="13.60248"><ele>641.5</ele><time>2026-04-25T14:49:43.959Z</time></trkpt><trkpt lat="46.40529" lon="13.6023867"><ele>639.0</ele><time>2026-04-25T14:49:44.958Z</time></trkpt><trkpt lat="46.40519" lon="13.6022883"><ele>636.5</ele><time>2026-04-25T14:49:45.958Z</time></trkpt><trkpt lat="46.405095" lon="13.6021767"><ele>634.0</ele><time>2026-04-25T14:49:46.959Z</time></trkpt><trkpt lat="46.4050117" lon="13.602045"><ele>633.75</ele><time>2026-04-25T14:49:47.958Z</time></trkpt><trkpt lat="46.4049367" lon="13.6019017"><ele>633.5</ele><time>2026-04-25T14:49:48.958Z</time></trkpt><trkpt lat="46.4048717" lon="13.6017533"><ele>633.25</ele><time>2026-04-25T14:49:49.959Z</time></trkpt><trkpt lat="46.4048083" lon="13.6016017"><ele>633.0</ele><time>2026-04-25T14:49:50.957Z</time></trkpt><trkpt lat="46.4047483" lon="13.6014517"><ele>633.0</ele><time>2026-04-25T14:49:51.958Z</time></trkpt><trkpt lat="46.40469" lon="13.6013"><ele>633.0</ele><time>2026-04-25T14:49:52.958Z</time></trkpt><trkpt lat="46.4046317" lon="13.60115"><ele>633.0</ele><time>2026-04-25T14:49:53.957Z</time></trkpt><trkpt lat="46.4045733" lon="13.6009983"><ele>633.0</ele><time>2026-04-25T14:49:54.959Z</time></trkpt><trkpt lat="46.40451" lon="13.6008483"><ele>632.75</ele><time>2026-04-25T14:49:55.96Z</time></trkpt><trkpt lat="46.4044433" lon="13.6006967"><ele>632.5</ele><time>2026-04-25T14:49:56.958Z</time></trkpt><trkpt lat="46.4043733" lon="13.60055"><ele>632.25</ele><time>2026-04-25T14:49:57.959Z</time></trkpt><trkpt lat="46.4043017" lon="13.60041"><ele>632.0</ele><time>2026-04-25T14:49:58.958Z</time></trkpt><trkpt lat="46.4042317" lon="13.6002783"><ele>632.0</ele><time>2026-04-25T14:49:59.959Z</time></trkpt><trkpt lat="46.404165" lon="13.60015"><ele>632.0</ele><time>2026-04-25T14:50:00.958Z</time></trkpt><trkpt lat="46.4040883" lon="13.6000283"><ele>632.0</ele><time>2026-04-25T14:50:01.958Z</time></trkpt><trkpt lat="46.4040083" lon="13.5999283"><ele>632.0</ele><time>2026-04-25T14:50:02.958Z</time></trkpt><trkpt lat="46.4039233" lon="13.5998367"><ele>632.0</ele><time>2026-04-25T14:50:03.959Z</time></trkpt><trkpt lat="46.4038367" lon="13.5997483"><ele>630.8000000000001</ele><time>2026-04-25T14:50:04.959Z</time></trkpt><trkpt lat="46.40375" lon="13.5996667"><ele>629.6</ele><time>2026-04-25T14:50:05.959Z</time></trkpt><trkpt lat="46.4036567" lon="13.5995883"><ele>628.4000000000001</ele><time>2026-04-25T14:50:06.958Z</time></trkpt><trkpt lat="46.4035617" lon="13.5995067"><ele>627.2</ele><time>2026-04-25T14:50:07.959Z</time></trkpt><trkpt lat="46.403465" lon="13.5994217"><ele>626.0</ele><time>2026-04-25T14:50:08.958Z</time></trkpt><trkpt lat="46.4033667" lon="13.599335"><ele>626.0</ele><time>2026-04-25T14:50:09.959Z</time></trkpt><trkpt lat="46.4032633" lon="13.5992483"><ele>626.0</ele><time>2026-04-25T14:50:10.959Z</time></trkpt><trkpt lat="46.4031583" lon="13.5991583"><ele>626.0</ele><time>2026-04-25T14:50:11.958Z</time></trkpt><trkpt lat="46.4030533" lon="13.59906"><ele>626.0</ele><time>2026-04-25T14:50:12.96Z</time></trkpt><trkpt lat="46.40295" lon="13.5989583"><ele>625.25</ele><time>2026-04-25T14:50:13.958Z</time></trkpt><trkpt lat="46.4028433" lon="13.5988583"><ele>624.5</ele><time>2026-04-25T14:50:14.962Z</time></trkpt><trkpt lat="46.4027333" lon="13.5987517"><ele>623.75</ele><time>2026-04-25T14:50:15.959Z</time></trkpt><trkpt lat="46.402625" lon="13.5986417"><ele>623.0</ele><time>2026-04-25T14:50:16.959Z</time></trkpt><trkpt lat="46.4025167" lon="13.5985267"><ele>623.0</ele><time>2026-04-25T14:50:17.959Z</time></trkpt><trkpt lat="46.4024083" lon="13.598415"><ele>623.0</ele><time>2026-04-25T14:50:18.958Z</time></trkpt><trkpt lat="46.4023017" lon="13.5983017"><ele>623.0</ele><time>2026-04-25T14:50:19.959Z</time></trkpt><trkpt lat="46.4021983" lon="13.5981883"><ele>623.0</ele><time>2026-04-25T14:50:20.957Z</time></trkpt><trkpt lat="46.402095" lon="13.598075"><ele>622.0</ele><time>2026-04-25T14:50:21.959Z</time></trkpt><trkpt lat="46.4019933" lon="13.59796"><ele>621.0</ele><time>2026-04-25T14:50:22.959Z</time></trkpt><trkpt lat="46.4018917" lon="13.5978483"><ele>620.0</ele><time>2026-04-25T14:50:23.958Z</time></trkpt><trkpt lat="46.4017883" lon="13.5977417"><ele>619.0</ele><time>2026-04-25T14:50:24.958Z</time></trkpt><trkpt lat="46.4016833" lon="13.5976367"><ele>619.0</ele><time>2026-04-25T14:50:25.959Z</time></trkpt><trkpt lat="46.401575" lon="13.5975333"><ele>619.0</ele><time>2026-04-25T14:50:26.958Z</time></trkpt><trkpt lat="46.4014633" lon="13.5974483"><ele>619.0</ele><time>2026-04-25T14:50:27.959Z</time></trkpt><trkpt lat="46.4013517" lon="13.5973683"><ele>619.0</ele><time>2026-04-25T14:50:28.958Z</time></trkpt><trkpt lat="46.4012383" lon="13.59729"><ele>619.25</ele><time>2026-04-25T14:50:29.959Z</time></trkpt><trkpt lat="46.401125" lon="13.5972083"><ele>619.5</ele><time>2026-04-25T14:50:30.959Z</time></trkpt><trkpt lat="46.4010133" lon="13.59713"><ele>619.75</ele><time>2026-04-25T14:50:31.958Z</time></trkpt><trkpt lat="46.4009" lon="13.5970517"><ele>620.0</ele><time>2026-04-25T14:50:32.958Z</time></trkpt><trkpt lat="46.40079" lon="13.5969767"><ele>620.0</ele><time>2026-04-25T14:50:33.959Z</time></trkpt><trkpt lat="46.400675" lon="13.596905"><ele>620.0</ele><time>2026-04-25T14:50:34.958Z</time></trkpt><trkpt lat="46.400555" lon="13.5968367"><ele>620.0</ele><time>2026-04-25T14:50:35.958Z</time></trkpt><trkpt lat="46.4004367" lon="13.5967667"><ele>620.0</ele><time>2026-04-25T14:50:36.958Z</time></trkpt><trkpt lat="46.400315" lon="13.5966983"><ele>618.5</ele><time>2026-04-25T14:50:37.958Z</time></trkpt><trkpt lat="46.400195" lon="13.5966217"><ele>617.0</ele><time>2026-04-25T14:50:38.957Z</time></trkpt><trkpt lat="46.4000767" lon="13.59654"><ele>615.5</ele><time>2026-04-25T14:50:39.958Z</time></trkpt><trkpt lat="46.3999583" lon="13.5964533"><ele>614.0</ele><time>2026-04-25T14:50:40.959Z</time></trkpt><trkpt lat="46.3998383" lon="13.5963633"><ele>614.0</ele><time>2026-04-25T14:50:41.958Z</time></trkpt><trkpt lat="46.3997167" lon="13.5962767"><ele>614.0</ele><time>2026-04-25T14:50:42.957Z</time></trkpt><trkpt lat="46.3995933" lon="13.5961883"><ele>614.0</ele><time>2026-04-25T14:50:43.959Z</time></trkpt><trkpt lat="46.3994683" lon="13.5960967"><ele>614.0</ele><time>2026-04-25T14:50:44.959Z</time></trkpt><trkpt lat="46.3993483" lon="13.5959983"><ele>613.0</ele><time>2026-04-25T14:50:45.959Z</time></trkpt><trkpt lat="46.3992333" lon="13.5959017"><ele>612.0</ele><time>2026-04-25T14:50:46.959Z</time></trkpt><trkpt lat="46.399115" lon="13.5958117"><ele>611.0</ele><time>2026-04-25T14:50:47.959Z</time></trkpt><trkpt lat="46.3989933" lon="13.5957317"><ele>610.0</ele><time>2026-04-25T14:50:48.958Z</time></trkpt><trkpt lat="46.3988733" lon="13.5956633"><ele>609.5</ele><time>2026-04-25T14:50:49.958Z</time></trkpt><trkpt lat="46.3987517" lon="13.5956"><ele>609.0</ele><time>2026-04-25T14:50:50.958Z</time></trkpt><trkpt lat="46.398635" lon="13.5955283"><ele>608.5</ele><time>2026-04-25T14:50:51.958Z</time></trkpt><trkpt lat="46.39853" lon="13.59543"><ele>608.0</ele><time>2026-04-25T14:50:52.959Z</time></trkpt><trkpt lat="46.3984383" lon="13.5953017"><ele>606.75</ele><time>2026-04-25T14:50:53.959Z</time></trkpt><trkpt lat="46.3983467" lon="13.5951633"><ele>605.5</ele><time>2026-04-25T14:50:54.959Z</time></trkpt><trkpt lat="46.398255" lon="13.5950167"><ele>604.25</ele><time>2026-04-25T14:50:55.959Z</time></trkpt><trkpt lat="46.3981633" lon="13.594865"><ele>603.0</ele><time>2026-04-25T14:50:56.958Z</time></trkpt><trkpt lat="46.39808" lon="13.5946983"><ele>603.0</ele><time>2026-04-25T14:50:57.96Z</time></trkpt><trkpt lat="46.39801" lon="13.5945167"><ele>603.0</ele><time>2026-04-25T14:50:58.959Z</time></trkpt><trkpt lat="46.3979483" lon="13.594325"><ele>603.0</ele><time>2026-04-25T14:50:59.957Z</time></trkpt><trkpt lat="46.3978933" lon="13.5941283"><ele>603.0</ele><time>2026-04-25T14:51:00.958Z</time></trkpt><trkpt lat="46.3978333" lon="13.59394"><ele>604.0</ele><time>2026-04-25T14:51:01.958Z</time></trkpt><trkpt lat="46.39777" lon="13.5937567"><ele>605.0</ele><time>2026-04-25T14:51:02.957Z</time></trkpt><trkpt lat="46.3976967" lon="13.5935817"><ele>606.0</ele><time>2026-04-25T14:51:03.959Z</time></trkpt><trkpt lat="46.3976117" lon="13.5934133"><ele>607.0</ele><time>2026-04-25T14:51:04.959Z</time></trkpt><trkpt lat="46.3975133" lon="13.59326"><ele>608.0</ele><time>2026-04-25T14:51:05.957Z</time></trkpt><trkpt lat="46.397395" lon="13.5931317"><ele>609.0</ele><time>2026-04-25T14:51:06.958Z</time></trkpt><trkpt lat="46.3972617" lon="13.5930317"><ele>610.0</ele><time>2026-04-25T14:51:07.959Z</time></trkpt><trkpt lat="46.3971133" lon="13.59296"><ele>604.6666666666667</ele><time>2026-04-25T14:51:08.958Z</time></trkpt><trkpt lat="46.3969633" lon="13.5929167"><ele>599.3333333333334</ele><time>2026-04-25T14:51:09.959Z</time></trkpt><trkpt lat="46.3968117" lon="13.5929"><ele>594.0</ele><time>2026-04-25T14:51:10.959Z</time></trkpt><trkpt lat="46.396655" lon="13.59291"><ele>594.0</ele><time>2026-04-25T14:51:11.959Z</time></trkpt><trkpt lat="46.3964983" lon="13.5929217"><ele>594.0</ele><time>2026-04-25T14:51:12.96Z</time></trkpt><trkpt lat="46.3963433" lon="13.59293"><ele>594.0</ele><time>2026-04-25T14:51:13.959Z</time></trkpt><trkpt lat="46.3961883" lon="13.5929283"><ele>592.6666666666666</ele><time>2026-04-25T14:51:14.958Z</time></trkpt><trkpt lat="46.3960333" lon="13.5929133"><ele>591.3333333333333</ele><time>2026-04-25T14:51:15.958Z</time></trkpt><trkpt lat="46.3958833" lon="13.592875"><ele>590.0</ele><time>2026-04-25T14:51:16.959Z</time></trkpt><trkpt lat="46.395735" lon="13.5928233"><ele>592.3333333333333</ele><time>2026-04-25T14:51:17.958Z</time></trkpt><trkpt lat="46.395585" lon="13.5927617"><ele>594.6666666666666</ele><time>2026-04-25T14:51:18.955Z</time></trkpt><trkpt lat="46.3954367" lon="13.592685"><ele>597.0</ele><time>2026-04-25T14:51:19.957Z</time></trkpt><trkpt lat="46.3952883" lon="13.5926"><ele>597.0</ele><time>2026-04-25T14:51:20.957Z</time></trkpt><trkpt lat="46.3951417" lon="13.5925017"><ele>597.0</ele><time>2026-04-25T14:51:21.958Z</time></trkpt><trkpt lat="46.3949983" lon="13.592385"><ele>597.0</ele><time>2026-04-25T14:51:22.957Z</time></trkpt><trkpt lat="46.3948717" lon="13.5922417"><ele>597.0</ele><time>2026-04-25T14:51:23.958Z</time></trkpt><trkpt lat="46.394765" lon="13.5920717"><ele>597.0</ele><time>2026-04-25T14:51:24.957Z</time></trkpt><trkpt lat="46.3946767" lon="13.59188"><ele>597.0</ele><time>2026-04-25T14:51:25.957Z</time></trkpt><trkpt lat="46.3946017" lon="13.5916767"><ele>597.0</ele><time>2026-04-25T14:51:26.957Z</time></trkpt><trkpt lat="46.3945333" lon="13.5914633"><ele>597.0</ele><time>2026-04-25T14:51:27.957Z</time></trkpt><trkpt lat="46.394475" lon="13.5912483"><ele>597.0</ele><time>2026-04-25T14:51:28.956Z</time></trkpt><trkpt lat="46.3944183" lon="13.591025"><ele>597.0</ele><time>2026-04-25T14:51:29.957Z</time></trkpt><trkpt lat="46.394355" lon="13.5908017"><ele>597.0</ele><time>2026-04-25T14:51:30.956Z</time></trkpt><trkpt lat="46.394275" lon="13.5905933"><ele>597.0</ele><time>2026-04-25T14:51:31.956Z</time></trkpt><trkpt lat="46.3941817" lon="13.5903967"><ele>594.3333333333334</ele><time>2026-04-25T14:51:32.956Z</time></trkpt><trkpt lat="46.39407" lon="13.5902217"><ele>591.6666666666667</ele><time>2026-04-25T14:51:33.957Z</time></trkpt><trkpt lat="46.3939417" lon="13.59006"><ele>589.0</ele><time>2026-04-25T14:51:34.957Z</time></trkpt><trkpt lat="46.3938067" lon="13.5899067"><ele>589.0</ele><time>2026-04-25T14:51:35.957Z</time></trkpt><trkpt lat="46.3936617" lon="13.5897767"><ele>589.0</ele><time>2026-04-25T14:51:36.955Z</time></trkpt><trkpt lat="46.3935117" lon="13.5896633"><ele>589.0</ele><time>2026-04-25T14:51:37.957Z</time></trkpt><trkpt lat="46.393355" lon="13.58957"><ele>591.6666666666667</ele><time>2026-04-25T14:51:38.957Z</time></trkpt><trkpt lat="46.3932033" lon="13.5894883"><ele>594.3333333333334</ele><time>2026-04-25T14:51:39.957Z</time></trkpt><trkpt lat="46.3930533" lon="13.5893983"><ele>597.0</ele><time>2026-04-25T14:51:40.958Z</time></trkpt><trkpt lat="46.3929067" lon="13.5892967"><ele>597.0</ele><time>2026-04-25T14:51:41.957Z</time></trkpt><trkpt lat="46.3927683" lon="13.5891833"><ele>597.0</ele><time>2026-04-25T14:51:42.956Z</time></trkpt><trkpt lat="46.39264" lon="13.58905"><ele>597.0</ele><time>2026-04-25T14:51:43.957Z</time></trkpt><trkpt lat="46.392515" lon="13.588915"><ele>597.0</ele><time>2026-04-25T14:51:44.956Z</time></trkpt><trkpt lat="46.3923867" lon="13.5887783"><ele>597.0</ele><time>2026-04-25T14:51:45.957Z</time></trkpt><trkpt lat="46.3922533" lon="13.5886467"><ele>597.0</ele><time>2026-04-25T14:51:46.957Z</time></trkpt><trkpt lat="46.3921133" lon="13.5885267"><ele>598.3333333333334</ele><time>2026-04-25T14:51:47.957Z</time></trkpt><trkpt lat="46.3919667" lon="13.58841"><ele>599.6666666666667</ele><time>2026-04-25T14:51:48.96Z</time></trkpt><trkpt lat="46.39182" lon="13.5882967"><ele>601.0</ele><time>2026-04-25T14:51:49.957Z</time></trkpt><trkpt lat="46.391665" lon="13.5882067"><ele>601.0</ele><time>2026-04-25T14:51:50.957Z</time></trkpt><trkpt lat="46.3915067" lon="13.5881267"><ele>601.0</ele><time>2026-04-25T14:51:51.957Z</time></trkpt><trkpt lat="46.3913433" lon="13.5880617"><ele>601.0</ele><time>2026-04-25T14:51:52.956Z</time></trkpt><trkpt lat="46.3911783" lon="13.588005"><ele>602.0</ele><time>2026-04-25T14:51:53.956Z</time></trkpt><trkpt lat="46.3910183" lon="13.5879383"><ele>603.0</ele><time>2026-04-25T14:51:54.957Z</time></trkpt><trkpt lat="46.390865" lon="13.58787"><ele>604.0</ele><time>2026-04-25T14:51:55.957Z</time></trkpt><trkpt lat="46.3907167" lon="13.5878083"><ele>604.0</ele><time>2026-04-25T14:51:56.957Z</time></trkpt><trkpt lat="46.3905683" lon="13.5877717"><ele>604.0</ele><time>2026-04-25T14:51:57.957Z</time></trkpt><trkpt lat="46.3904183" lon="13.5877567"><ele>604.0</ele><time>2026-04-25T14:51:58.957Z</time></trkpt><trkpt lat="46.3902733" lon="13.5877583"><ele>604.0</ele><time>2026-04-25T14:51:59.957Z</time></trkpt><trkpt lat="46.3901417" lon="13.5877867"><ele>602.75</ele><time>2026-04-25T14:52:00.957Z</time></trkpt><trkpt lat="46.390015" lon="13.5878283"><ele>601.5</ele><time>2026-04-25T14:52:01.958Z</time></trkpt><trkpt lat="46.3898967" lon="13.587895"><ele>600.25</ele><time>2026-04-25T14:52:02.956Z</time></trkpt><trkpt lat="46.3897867" lon="13.5879783"><ele>599.0</ele><time>2026-04-25T14:52:03.957Z</time></trkpt><trkpt lat="46.3896783" lon="13.588055"><ele>600.0</ele><time>2026-04-25T14:52:04.956Z</time></trkpt><trkpt lat="46.38956" lon="13.5881033"><ele>601.0</ele><time>2026-04-25T14:52:05.957Z</time></trkpt><trkpt lat="46.38943" lon="13.5881267"><ele>602.0</ele><time>2026-04-25T14:52:06.957Z</time></trkpt><trkpt lat="46.3893" lon="13.588125"><ele>603.0</ele><time>2026-04-25T14:52:07.957Z</time></trkpt><trkpt lat="46.38917" lon="13.5881017"><ele>603.0</ele><time>2026-04-25T14:52:08.956Z</time></trkpt><trkpt lat="46.38904" lon="13.5880817"><ele>603.0</ele><time>2026-04-25T14:52:09.956Z</time></trkpt><trkpt lat="46.3889033" lon="13.588085"><ele>603.0</ele><time>2026-04-25T14:52:10.956Z</time></trkpt><trkpt lat="46.388775" lon="13.58812"><ele>603.0</ele><time>2026-04-25T14:52:11.956Z</time></trkpt><trkpt lat="46.3886483" lon="13.5881917"><ele>600.25</ele><time>2026-04-25T14:52:12.957Z</time></trkpt><trkpt lat="46.3885217" lon="13.58828"><ele>597.5</ele><time>2026-04-25T14:52:13.957Z</time></trkpt><trkpt lat="46.3883933" lon="13.58838"><ele>594.75</ele><time>2026-04-25T14:52:14.957Z</time></trkpt><trkpt lat="46.3882583" lon="13.5884917"><ele>592.0</ele><time>2026-04-25T14:52:15.957Z</time></trkpt><trkpt lat="46.3881217" lon="13.588585"><ele>593.75</ele><time>2026-04-25T14:52:16.957Z</time></trkpt><trkpt lat="46.3879867" lon="13.5886783"><ele>595.5</ele><time>2026-04-25T14:52:17.958Z</time></trkpt><trkpt lat="46.3878583" lon="13.58879"><ele>597.25</ele><time>2026-04-25T14:52:18.957Z</time></trkpt><trkpt lat="46.387735" lon="13.5888817"><ele>599.0</ele><time>2026-04-25T14:52:19.957Z</time></trkpt><trkpt lat="46.3876217" lon="13.5889733"><ele>599.0</ele><time>2026-04-25T14:52:20.956Z</time></trkpt><trkpt lat="46.3875017" lon="13.5890517"><ele>599.0</ele><time>2026-04-25T14:52:21.956Z</time></trkpt><trkpt lat="46.38739" lon="13.5890983"><ele>599.0</ele><time>2026-04-25T14:52:22.957Z</time></trkpt><trkpt lat="46.387285" lon="13.58911"><ele>599.0</ele><time>2026-04-25T14:52:23.957Z</time></trkpt><trkpt lat="46.387195" lon="13.5890617"><ele>599.0</ele><time>2026-04-25T14:52:24.957Z</time></trkpt><trkpt lat="46.3871317" lon="13.5889533"><ele>600.75</ele><time>2026-04-25T14:52:25.957Z</time></trkpt><trkpt lat="46.387095" lon="13.5887983"><ele>602.5</ele><time>2026-04-25T14:52:26.956Z</time></trkpt><trkpt lat="46.38708" lon="13.5886267"><ele>604.25</ele><time>2026-04-25T14:52:27.957Z</time></trkpt><trkpt lat="46.387075" lon="13.5884467"><ele>606.0</ele><time>2026-04-25T14:52:28.957Z</time></trkpt><trkpt lat="46.387075" lon="13.58827"><ele>606.0</ele><time>2026-04-25T14:52:29.957Z</time></trkpt><trkpt lat="46.38706" lon="13.58811"><ele>606.0</ele><time>2026-04-25T14:52:30.957Z</time></trkpt><trkpt lat="46.38702" lon="13.5879633"><ele>606.0</ele><time>2026-04-25T14:52:31.957Z</time></trkpt><trkpt lat="46.3869517" lon="13.587835"><ele>606.0</ele><time>2026-04-25T14:52:32.956Z</time></trkpt><trkpt lat="46.38686" lon="13.5877283"><ele>602.0</ele><time>2026-04-25T14:52:33.957Z</time></trkpt><trkpt lat="46.38676" lon="13.5876333"><ele>598.0</ele><time>2026-04-25T14:52:34.957Z</time></trkpt><trkpt lat="46.3866533" lon="13.58753"><ele>594.0</ele><time>2026-04-25T14:52:35.955Z</time></trkpt><trkpt lat="46.3865617" lon="13.587405"><ele>590.0</ele><time>2026-04-25T14:52:36.956Z</time></trkpt><trkpt lat="46.3864717" lon="13.5872733"><ele>590.0</ele><time>2026-04-25T14:52:37.956Z</time></trkpt><trkpt lat="46.3863717" lon="13.58714"><ele>590.0</ele><time>2026-04-25T14:52:38.956Z</time></trkpt><trkpt lat="46.3862683" lon="13.5870017"><ele>590.0</ele><time>2026-04-25T14:52:39.956Z</time></trkpt><trkpt lat="46.3861733" lon="13.58684"><ele>590.0</ele><time>2026-04-25T14:52:40.958Z</time></trkpt><trkpt lat="46.386085" lon="13.58667"><ele>590.25</ele><time>2026-04-25T14:52:41.956Z</time></trkpt><trkpt lat="46.386" lon="13.5864917"><ele>590.5</ele><time>2026-04-25T14:52:42.956Z</time></trkpt><trkpt lat="46.38592" lon="13.586315"><ele>590.75</ele><time>2026-04-25T14:52:43.956Z</time></trkpt><trkpt lat="46.3858417" lon="13.5861367"><ele>591.0</ele><time>2026-04-25T14:52:44.956Z</time></trkpt><trkpt lat="46.3857633" lon="13.585975"><ele>591.75</ele><time>2026-04-25T14:52:45.957Z</time></trkpt><trkpt lat="46.38568" lon="13.58582"><ele>592.5</ele><time>2026-04-25T14:52:46.956Z</time></trkpt><trkpt lat="46.385585" lon="13.5856883"><ele>593.25</ele><time>2026-04-25T14:52:47.956Z</time></trkpt><trkpt lat="46.3854683" lon="13.5856083"><ele>594.0</ele><time>2026-04-25T14:52:48.957Z</time></trkpt><trkpt lat="46.38535" lon="13.5855533"><ele>594.0</ele><time>2026-04-25T14:52:49.957Z</time></trkpt><trkpt lat="46.385235" lon="13.5854967"><ele>594.0</ele><time>2026-04-25T14:52:50.957Z</time></trkpt><trkpt lat="46.3851233" lon="13.58542"><ele>594.0</ele><time>2026-04-25T14:52:51.957Z</time></trkpt><trkpt lat="46.385025" lon="13.5853133"><ele>594.0</ele><time>2026-04-25T14:52:52.956Z</time></trkpt><trkpt lat="46.38493" lon="13.5852"><ele>597.0</ele><time>2026-04-25T14:52:53.956Z</time></trkpt><trkpt lat="46.3848317" lon="13.5850783"><ele>600.0</ele><time>2026-04-25T14:52:54.957Z</time></trkpt><trkpt lat="46.3847283" lon="13.5849633"><ele>603.0</ele><time>2026-04-25T14:52:55.957Z</time></trkpt><trkpt lat="46.3846217" lon="13.5848517"><ele>606.0</ele><time>2026-04-25T14:52:56.957Z</time></trkpt><trkpt lat="46.38451" lon="13.5847467"><ele>606.0</ele><time>2026-04-25T14:52:57.956Z</time></trkpt><trkpt lat="46.384385" lon="13.5846533"><ele>606.0</ele><time>2026-04-25T14:52:58.957Z</time></trkpt><trkpt lat="46.3842517" lon="13.58457"><ele>606.0</ele><time>2026-04-25T14:52:59.955Z</time></trkpt><trkpt lat="46.38411" lon="13.5844983"><ele>606.0</ele><time>2026-04-25T14:53:00.957Z</time></trkpt><trkpt lat="46.383965" lon="13.5844267"><ele>594.5</ele><time>2026-04-25T14:53:01.957Z</time></trkpt><trkpt lat="46.3838217" lon="13.584365"><ele>583.0</ele><time>2026-04-25T14:53:02.956Z</time></trkpt><trkpt lat="46.3836933" lon="13.584315"><ele>571.5</ele><time>2026-04-25T14:53:03.957Z</time></trkpt><trkpt lat="46.3835667" lon="13.5842617"><ele>560.0</ele><time>2026-04-25T14:53:04.956Z</time></trkpt><trkpt lat="46.3834367" lon="13.5842117"><ele>560.0</ele><time>2026-04-25T14:53:05.956Z</time></trkpt><trkpt lat="46.3833067" lon="13.5841733"><ele>560.0</ele><time>2026-04-25T14:53:06.956Z</time></trkpt><trkpt lat="46.3831767" lon="13.5841517"><ele>560.0</ele><time>2026-04-25T14:53:07.955Z</time></trkpt><trkpt lat="46.383045" lon="13.58416"><ele>560.0</ele><time>2026-04-25T14:53:08.957Z</time></trkpt><trkpt lat="46.3829133" lon="13.5841867"><ele>559.0</ele><time>2026-04-25T14:53:09.957Z</time></trkpt><trkpt lat="46.382785" lon="13.58422"><ele>558.0</ele><time>2026-04-25T14:53:10.957Z</time></trkpt><trkpt lat="46.3826717" lon="13.5842833"><ele>557.0</ele><time>2026-04-25T14:53:11.955Z</time></trkpt><trkpt lat="46.382545" lon="13.5843283"><ele>556.0</ele><time>2026-04-25T14:53:12.956Z</time></trkpt><trkpt lat="46.3824033" lon="13.5843533"><ele>556.0</ele><time>2026-04-25T14:53:13.957Z</time></trkpt><trkpt lat="46.3822633" lon="13.5843617"><ele>556.0</ele><time>2026-04-25T14:53:14.956Z</time></trkpt><trkpt lat="46.3821217" lon="13.58435"><ele>556.0</ele><time>2026-04-25T14:53:15.956Z</time></trkpt><trkpt lat="46.3819783" lon="13.584325"><ele>556.0</ele><time>2026-04-25T14:53:16.957Z</time></trkpt><trkpt lat="46.3818267" lon="13.5842767"><ele>552.25</ele><time>2026-04-25T14:53:17.957Z</time></trkpt><trkpt lat="46.38168" lon="13.584235"><ele>548.5</ele><time>2026-04-25T14:53:18.955Z</time></trkpt><trkpt lat="46.381535" lon="13.584215"><ele>544.75</ele><time>2026-04-25T14:53:19.957Z</time></trkpt><trkpt lat="46.3813867" lon="13.5842317"><ele>541.0</ele><time>2026-04-25T14:53:20.955Z</time></trkpt><trkpt lat="46.3812783" lon="13.5843383"><ele>541.5</ele><time>2026-04-25T14:53:21.957Z</time></trkpt><trkpt lat="46.3811717" lon="13.5844533"><ele>542.0</ele><time>2026-04-25T14:53:22.956Z</time></trkpt><trkpt lat="46.381065" lon="13.5845933"><ele>542.5</ele><time>2026-04-25T14:53:23.955Z</time></trkpt><trkpt lat="46.3809583" lon="13.584725"><ele>543.0</ele><time>2026-04-25T14:53:24.956Z</time></trkpt><trkpt lat="46.3808517" lon="13.5848317"><ele>543.0</ele><time>2026-04-25T14:53:25.957Z</time></trkpt><trkpt lat="46.3807367" lon="13.584905"><ele>543.0</ele><time>2026-04-25T14:53:26.955Z</time></trkpt><trkpt lat="46.3806183" lon="13.5849617"><ele>543.0</ele><time>2026-04-25T14:53:27.956Z</time></trkpt><trkpt lat="46.3804933" lon="13.5850067"><ele>543.0</ele><time>2026-04-25T14:53:28.957Z</time></trkpt><trkpt lat="46.38037" lon="13.585035"><ele>539.5</ele><time>2026-04-25T14:53:29.957Z</time></trkpt><trkpt lat="46.3802483" lon="13.58505"><ele>536.0</ele><time>2026-04-25T14:53:30.957Z</time></trkpt><trkpt lat="46.3801333" lon="13.5850633"><ele>532.5</ele><time>2026-04-25T14:53:31.957Z</time></trkpt><trkpt lat="46.3800217" lon="13.58509"><ele>529.0</ele><time>2026-04-25T14:53:32.956Z</time></trkpt><trkpt lat="46.379915" lon="13.5851367"><ele>529.0</ele><time>2026-04-25T14:53:33.957Z</time></trkpt><trkpt lat="46.3798117" lon="13.5852083"><ele>529.0</ele><time>2026-04-25T14:53:34.957Z</time></trkpt><trkpt lat="46.3797067" lon="13.5852933"><ele>529.0</ele><time>2026-04-25T14:53:35.957Z</time></trkpt><trkpt lat="46.3796017" lon="13.5854"><ele>529.0</ele><time>2026-04-25T14:53:36.956Z</time></trkpt><trkpt lat="46.379495" lon="13.58552"><ele>530.75</ele><time>2026-04-25T14:53:37.956Z</time></trkpt><trkpt lat="46.3793833" lon="13.5856383"><ele>532.5</ele><time>2026-04-25T14:53:38.957Z</time></trkpt><trkpt lat="46.379265" lon="13.5857467"><ele>534.25</ele><time>2026-04-25T14:53:39.957Z</time></trkpt><trkpt lat="46.37914" lon="13.585835"><ele>536.0</ele><time>2026-04-25T14:53:40.957Z</time></trkpt><trkpt lat="46.3790067" lon="13.5859033"><ele>536.0</ele><time>2026-04-25T14:53:41.955Z</time></trkpt><trkpt lat="46.3788683" lon="13.5859517"><ele>536.0</ele><time>2026-04-25T14:53:42.956Z</time></trkpt><trkpt lat="46.3787233" lon="13.5859833"><ele>536.0</ele><time>2026-04-25T14:53:43.956Z</time></trkpt><trkpt lat="46.3785817" lon="13.585975"><ele>536.0</ele><time>2026-04-25T14:53:44.956Z</time></trkpt><trkpt lat="46.3784433" lon="13.5859633"><ele>535.25</ele><time>2026-04-25T14:53:45.957Z</time></trkpt><trkpt lat="46.37831" lon="13.585955"><ele>534.5</ele><time>2026-04-25T14:53:46.957Z</time></trkpt><trkpt lat="46.37818" lon="13.58594"><ele>533.75</ele><time>2026-04-25T14:53:47.955Z</time></trkpt><trkpt lat="46.3780533" lon="13.585925"><ele>533.0</ele><time>2026-04-25T14:53:48.956Z</time></trkpt><trkpt lat="46.3779333" lon="13.5858867"><ele>536.0</ele><time>2026-04-25T14:53:49.957Z</time></trkpt><trkpt lat="46.377825" lon="13.58581"><ele>539.0</ele><time>2026-04-25T14:53:50.957Z</time></trkpt><trkpt lat="46.3777317" lon="13.5857"><ele>542.0</ele><time>2026-04-25T14:53:51.957Z</time></trkpt><trkpt lat="46.3776533" lon="13.5855567"><ele>545.0</ele><time>2026-04-25T14:53:52.957Z</time></trkpt><trkpt lat="46.3775733" lon="13.5854333"><ele>539.0</ele><time>2026-04-25T14:53:53.955Z</time></trkpt><trkpt lat="46.3775" lon="13.5852883"><ele>533.0</ele><time>2026-04-25T14:53:54.956Z</time></trkpt><trkpt lat="46.3774217" lon="13.5851517"><ele>527.0</ele><time>2026-04-25T14:53:55.956Z</time></trkpt><trkpt lat="46.3773333" lon="13.5850333"><ele>521.0</ele><time>2026-04-25T14:53:56.956Z</time></trkpt><trkpt lat="46.3772333" lon="13.5849333"><ele>523.75</ele><time>2026-04-25T14:53:57.957Z</time></trkpt><trkpt lat="46.3771233" lon="13.58486"><ele>526.5</ele><time>2026-04-25T14:53:58.957Z</time></trkpt><trkpt lat="46.377005" lon="13.5847967"><ele>529.25</ele><time>2026-04-25T14:53:59.955Z</time></trkpt><trkpt lat="46.3768767" lon="13.5847283"><ele>532.0</ele><time>2026-04-25T14:54:00.957Z</time></trkpt><trkpt lat="46.3767433" lon="13.5846533"><ele>532.0</ele><time>2026-04-25T14:54:01.957Z</time></trkpt><trkpt lat="46.376605" lon="13.584575"><ele>532.0</ele><time>2026-04-25T14:54:02.955Z</time></trkpt><trkpt lat="46.376465" lon="13.5844933"><ele>532.0</ele><time>2026-04-25T14:54:03.957Z</time></trkpt><trkpt lat="46.3763217" lon="13.58441"><ele>527.3333333333334</ele><time>2026-04-25T14:54:04.956Z</time></trkpt><trkpt lat="46.3761767" lon="13.5843283"><ele>522.6666666666666</ele><time>2026-04-25T14:54:05.955Z</time></trkpt><trkpt lat="46.3760317" lon="13.5842517"><ele>518.0</ele><time>2026-04-25T14:54:06.955Z</time></trkpt><trkpt lat="46.375885" lon="13.584185"><ele>518.0</ele><time>2026-04-25T14:54:07.958Z</time></trkpt><trkpt lat="46.375735" lon="13.5841317"><ele>518.0</ele><time>2026-04-25T14:54:08.956Z</time></trkpt><trkpt lat="46.3755833" lon="13.5840967"><ele>518.0</ele><time>2026-04-25T14:54:09.956Z</time></trkpt><trkpt lat="46.3754333" lon="13.58407"><ele>517.0</ele><time>2026-04-25T14:54:10.957Z</time></trkpt><trkpt lat="46.3752833" lon="13.5840567"><ele>516.0</ele><time>2026-04-25T14:54:11.955Z</time></trkpt><trkpt lat="46.37513" lon="13.584065"><ele>515.0</ele><time>2026-04-25T14:54:12.957Z</time></trkpt><trkpt lat="46.3749783" lon="13.5840917"><ele>515.0</ele><time>2026-04-25T14:54:13.956Z</time></trkpt><trkpt lat="46.3748217" lon="13.5841367"><ele>515.0</ele><time>2026-04-25T14:54:14.955Z</time></trkpt><trkpt lat="46.3746583" lon="13.5841933"><ele>515.0</ele><time>2026-04-25T14:54:15.956Z</time></trkpt><trkpt lat="46.3744917" lon="13.58425"><ele>514.3333333333333</ele><time>2026-04-25T14:54:16.956Z</time></trkpt><trkpt lat="46.374325" lon="13.584315"><ele>513.6666666666666</ele><time>2026-04-25T14:54:17.956Z</time></trkpt><trkpt lat="46.37416" lon="13.58438"><ele>513.0</ele><time>2026-04-25T14:54:18.956Z</time></trkpt><trkpt lat="46.3739917" lon="13.5844433"><ele>513.3333333333334</ele><time>2026-04-25T14:54:19.958Z</time></trkpt><trkpt lat="46.3738267" lon="13.5845033"><ele>513.6666666666667</ele><time>2026-04-25T14:54:20.956Z</time></trkpt><trkpt lat="46.3736617" lon="13.584555"><ele>514.0</ele><time>2026-04-25T14:54:21.956Z</time></trkpt><trkpt lat="46.3734983" lon="13.5845983"><ele>520.0</ele><time>2026-04-25T14:54:22.957Z</time></trkpt><trkpt lat="46.3733367" lon="13.5846317"><ele>526.0</ele><time>2026-04-25T14:54:23.956Z</time></trkpt><trkpt lat="46.3731783" lon="13.5846533"><ele>532.0</ele><time>2026-04-25T14:54:24.956Z</time></trkpt><trkpt lat="46.3730233" lon="13.5846483"><ele>532.6666666666667</ele><time>2026-04-25T14:54:25.957Z</time></trkpt><trkpt lat="46.3728733" lon="13.5846183"><ele>533.3333333333334</ele><time>2026-04-25T14:54:26.956Z</time></trkpt><trkpt lat="46.3727217" lon="13.5845767"><ele>534.0</ele><time>2026-04-25T14:54:27.956Z</time></trkpt><trkpt lat="46.3725733" lon="13.5845333"><ele>526.3333333333334</ele><time>2026-04-25T14:54:28.957Z</time></trkpt><trkpt lat="46.3724217" lon="13.5844833"><ele>518.6666666666667</ele><time>2026-04-25T14:54:29.956Z</time></trkpt><trkpt lat="46.3722667" lon="13.5844367"><ele>511.0</ele><time>2026-04-25T14:54:30.956Z</time></trkpt><trkpt lat="46.3721083" lon="13.5843983"><ele>510.33333333333337</ele><time>2026-04-25T14:54:31.956Z</time></trkpt><trkpt lat="46.37195" lon="13.5843767"><ele>509.66666666666663</ele><time>2026-04-25T14:54:32.956Z</time></trkpt><trkpt lat="46.3717917" lon="13.5843833"><ele>509.0</ele><time>2026-04-25T14:54:33.957Z</time></trkpt><trkpt lat="46.3716367" lon="13.5844217"><ele>509.0</ele><time>2026-04-25T14:54:34.957Z</time></trkpt><trkpt lat="46.3714783" lon="13.5844867"><ele>509.0</ele><time>2026-04-25T14:54:35.956Z</time></trkpt><trkpt lat="46.3713267" lon="13.58457"><ele>509.0</ele><time>2026-04-25T14:54:36.957Z</time></trkpt><trkpt lat="46.371175" lon="13.584665"><ele>509.0</ele><time>2026-04-25T14:54:37.957Z</time></trkpt><trkpt lat="46.3710267" lon="13.5847733"><ele>509.0</ele><time>2026-04-25T14:54:38.955Z</time></trkpt><trkpt lat="46.3708867" lon="13.5849017"><ele>509.0</ele><time>2026-04-25T14:54:39.955Z</time></trkpt><trkpt lat="46.370755" lon="13.585045"><ele>509.0</ele><time>2026-04-25T14:54:40.957Z</time></trkpt><trkpt lat="46.370635" lon="13.5851983"><ele>509.0</ele><time>2026-04-25T14:54:41.956Z</time></trkpt><trkpt lat="46.3705133" lon="13.585355"><ele>509.0</ele><time>2026-04-25T14:54:42.957Z</time></trkpt><trkpt lat="46.3703967" lon="13.5855067"><ele>507.3333333333333</ele><time>2026-04-25T14:54:43.955Z</time></trkpt><trkpt lat="46.3702867" lon="13.58567"><ele>505.66666666666663</ele><time>2026-04-25T14:54:44.957Z</time></trkpt><trkpt lat="46.3701783" lon="13.5858417"><ele>504.0</ele><time>2026-04-25T14:54:45.956Z</time></trkpt><trkpt lat="46.3700717" lon="13.5860133"><ele>512.3333333333334</ele><time>2026-04-25T14:54:46.956Z</time></trkpt><trkpt lat="46.3699633" lon="13.586185"><ele>520.6666666666667</ele><time>2026-04-25T14:54:47.955Z</time></trkpt><trkpt lat="46.369855" lon="13.58636"><ele>529.0</ele><time>2026-04-25T14:54:48.957Z</time></trkpt><trkpt lat="46.369745" lon="13.5865467"><ele>532.3333333333334</ele><time>2026-04-25T14:54:49.957Z</time></trkpt><trkpt lat="46.3696383" lon="13.5867317"><ele>535.6666666666666</ele><time>2026-04-25T14:54:50.956Z</time></trkpt><trkpt lat="46.3695333" lon="13.586905"><ele>539.0</ele><time>2026-04-25T14:54:51.957Z</time></trkpt><trkpt lat="46.36943" lon="13.58706"><ele>539.0</ele><time>2026-04-25T14:54:52.957Z</time></trkpt><trkpt lat="46.3693183" lon="13.5872017"><ele>539.0</ele><time>2026-04-25T14:54:53.955Z</time></trkpt><trkpt lat="46.3692" lon="13.58733"><ele>539.0</ele><time>2026-04-25T14:54:54.956Z</time></trkpt><trkpt lat="46.3690733" lon="13.587435"><ele>539.0</ele><time>2026-04-25T14:54:55.958Z</time></trkpt><trkpt lat="46.3689317" lon="13.5875167"><ele>535.0</ele><time>2026-04-25T14:54:56.956Z</time></trkpt><trkpt lat="46.3687883" lon="13.5875767"><ele>531.0</ele><time>2026-04-25T14:54:57.957Z</time></trkpt><trkpt lat="46.3686383" lon="13.5876267"><ele>527.0</ele><time>2026-04-25T14:54:58.956Z</time></trkpt><trkpt lat="46.3684883" lon="13.5876667"><ele>527.0</ele><time>2026-04-25T14:54:59.955Z</time></trkpt><trkpt lat="46.368335" lon="13.5877067"><ele>527.0</ele><time>2026-04-25T14:55:00.956Z</time></trkpt><trkpt lat="46.3681833" lon="13.5877617"><ele>527.0</ele><time>2026-04-25T14:55:01.957Z</time></trkpt><trkpt lat="46.3680367" lon="13.5878417"><ele>538.0</ele><time>2026-04-25T14:55:02.956Z</time></trkpt><trkpt lat="46.367895" lon="13.5879333"><ele>549.0</ele><time>2026-04-25T14:55:03.957Z</time></trkpt><trkpt lat="46.3677533" lon="13.58803"><ele>560.0</ele><time>2026-04-25T14:55:04.961Z</time></trkpt><trkpt lat="46.3676133" lon="13.5881167"><ele>560.0</ele><time>2026-04-25T14:55:05.956Z</time></trkpt><trkpt lat="46.3674667" lon="13.58818"><ele>560.0</ele><time>2026-04-25T14:55:06.957Z</time></trkpt><trkpt lat="46.367315" lon="13.5882217"><ele>560.0</ele><time>2026-04-25T14:55:07.957Z</time></trkpt><trkpt lat="46.36716" lon="13.58825"><ele>554.6666666666666</ele><time>2026-04-25T14:55:08.956Z</time></trkpt><trkpt lat="46.3670067" lon="13.58829"><ele>549.3333333333334</ele><time>2026-04-25T14:55:09.956Z</time></trkpt><trkpt lat="46.3668533" lon="13.5883483"><ele>544.0</ele><time>2026-04-25T14:55:10.957Z</time></trkpt><trkpt lat="46.366705" lon="13.58842"><ele>544.0</ele><time>2026-04-25T14:55:11.957Z</time></trkpt><trkpt lat="46.3665617" lon="13.5885"><ele>544.0</ele><time>2026-04-25T14:55:12.956Z</time></trkpt><trkpt lat="46.3664267" lon="13.5885867"><ele>544.0</ele><time>2026-04-25T14:55:13.958Z</time></trkpt><trkpt lat="46.3662967" lon="13.588655"><ele>544.0</ele><time>2026-04-25T14:55:14.956Z</time></trkpt><trkpt lat="46.3661617" lon="13.588695"><ele>543.0</ele><time>2026-04-25T14:55:15.956Z</time></trkpt><trkpt lat="46.36602" lon="13.588705"><ele>542.0</ele><time>2026-04-25T14:55:16.957Z</time></trkpt><trkpt lat="46.3658733" lon="13.58869"><ele>541.0</ele><time>2026-04-25T14:55:17.957Z</time></trkpt><trkpt lat="46.36573" lon="13.58865"><ele>540.0</ele><time>2026-04-25T14:55:18.956Z</time></trkpt><trkpt lat="46.3655833" lon="13.588625"><ele>537.5</ele><time>2026-04-25T14:55:19.957Z</time></trkpt><trkpt lat="46.365435" lon="13.58863"><ele>535.0</ele><time>2026-04-25T14:55:20.956Z</time></trkpt><trkpt lat="46.3652933" lon="13.5886733"><ele>532.5</ele><time>2026-04-25T14:55:21.957Z</time></trkpt><trkpt lat="46.36516" lon="13.588745"><ele>530.0</ele><time>2026-04-25T14:55:22.956Z</time></trkpt><trkpt lat="46.3650317" lon="13.5888183"><ele>534.25</ele><time>2026-04-25T14:55:23.957Z</time></trkpt><trkpt lat="46.364905" lon="13.5888783"><ele>538.5</ele><time>2026-04-25T14:55:24.957Z</time></trkpt><trkpt lat="46.3647767" lon="13.5889183"><ele>542.75</ele><time>2026-04-25T14:55:25.957Z</time></trkpt><trkpt lat="46.36465" lon="13.5889283"><ele>547.0</ele><time>2026-04-25T14:55:26.957Z</time></trkpt><trkpt lat="46.3645233" lon="13.588915"><ele>547.0</ele><time>2026-04-25T14:55:27.957Z</time></trkpt><trkpt lat="46.3644017" lon="13.5888967"><ele>547.0</ele><time>2026-04-25T14:55:28.957Z</time></trkpt><trkpt lat="46.3642767" lon="13.5888933"><ele>547.0</ele><time>2026-04-25T14:55:29.956Z</time></trkpt><trkpt lat="46.3641467" lon="13.58892"><ele>547.0</ele><time>2026-04-25T14:55:30.956Z</time></trkpt><trkpt lat="46.3640167" lon="13.5889783"><ele>547.0</ele><time>2026-04-25T14:55:31.956Z</time></trkpt><trkpt lat="46.3638917" lon="13.58906"><ele>547.0</ele><time>2026-04-25T14:55:32.956Z</time></trkpt><trkpt lat="46.3637733" lon="13.5891517"><ele>547.0</ele><time>2026-04-25T14:55:33.956Z</time></trkpt><trkpt lat="46.363655" lon="13.5892417"><ele>547.0</ele><time>2026-04-25T14:55:34.958Z</time></trkpt><trkpt lat="46.36353" lon="13.58932"><ele>543.0</ele><time>2026-04-25T14:55:35.956Z</time></trkpt><trkpt lat="46.3633967" lon="13.589375"><ele>539.0</ele><time>2026-04-25T14:55:36.956Z</time></trkpt><trkpt lat="46.363265" lon="13.5894017"><ele>535.0</ele><time>2026-04-25T14:55:37.956Z</time></trkpt><trkpt lat="46.3631383" lon="13.5894167"><ele>531.0</ele><time>2026-04-25T14:55:38.958Z</time></trkpt><trkpt lat="46.3630167" lon="13.5894233"><ele>530.75</ele><time>2026-04-25T14:55:39.958Z</time></trkpt><trkpt lat="46.3628967" lon="13.5894317"><ele>530.5</ele><time>2026-04-25T14:55:40.958Z</time></trkpt><trkpt lat="46.36278" lon="13.5894517"><ele>530.25</ele><time>2026-04-25T14:55:41.957Z</time></trkpt><trkpt lat="46.3626683" lon="13.5894817"><ele>530.0</ele><time>2026-04-25T14:55:42.957Z</time></trkpt><trkpt lat="46.3625583" lon="13.5895233"><ele>530.8</ele><time>2026-04-25T14:55:43.958Z</time></trkpt><trkpt lat="46.3624483" lon="13.58957"><ele>531.6</ele><time>2026-04-25T14:55:44.958Z</time></trkpt><trkpt lat="46.3623417" lon="13.5896117"><ele>532.4</ele><time>2026-04-25T14:55:45.958Z</time></trkpt><trkpt lat="46.3622333" lon="13.58965"><ele>533.2</ele><time>2026-04-25T14:55:46.959Z</time></trkpt><trkpt lat="46.3621267" lon="13.58967"><ele>534.0</ele><time>2026-04-25T14:55:47.958Z</time></trkpt><trkpt lat="46.3620167" lon="13.589665"><ele>534.0</ele><time>2026-04-25T14:55:48.957Z</time></trkpt><trkpt lat="46.3619133" lon="13.589645"><ele>534.0</ele><time>2026-04-25T14:55:49.958Z</time></trkpt><trkpt lat="46.361815" lon="13.5896133"><ele>534.0</ele><time>2026-04-25T14:55:50.958Z</time></trkpt><trkpt lat="46.3617167" lon="13.5895767"><ele>534.0</ele><time>2026-04-25T14:55:51.958Z</time></trkpt><trkpt lat="46.3616183" lon="13.5895383"><ele>534.0</ele><time>2026-04-25T14:55:52.958Z</time></trkpt><trkpt lat="46.3615217" lon="13.5895017"><ele>535.0</ele><time>2026-04-25T14:55:53.958Z</time></trkpt><trkpt lat="46.3614233" lon="13.5894667"><ele>536.0</ele><time>2026-04-25T14:55:54.957Z</time></trkpt><trkpt lat="46.3613267" lon="13.589445"><ele>537.0</ele><time>2026-04-25T14:55:55.958Z</time></trkpt><trkpt lat="46.361225" lon="13.58943"><ele>538.0</ele><time>2026-04-25T14:55:56.957Z</time></trkpt><trkpt lat="46.36112" lon="13.5894217"><ele>539.0</ele><time>2026-04-25T14:55:57.958Z</time></trkpt><trkpt lat="46.3610117" lon="13.5894217"><ele>534.2</ele><time>2026-04-25T14:55:58.958Z</time></trkpt><trkpt lat="46.360905" lon="13.589435"><ele>529.4</ele><time>2026-04-25T14:55:59.957Z</time></trkpt><trkpt lat="46.3608033" lon="13.5894567"><ele>524.6</ele><time>2026-04-25T14:56:00.956Z</time></trkpt><trkpt lat="46.360705" lon="13.5894917"><ele>519.8</ele><time>2026-04-25T14:56:01.957Z</time></trkpt><trkpt lat="46.3606117" lon="13.5895417"><ele>515.0</ele><time>2026-04-25T14:56:02.956Z</time></trkpt><trkpt lat="46.3605233" lon="13.589595"><ele>513.1666666666666</ele><time>2026-04-25T14:56:03.957Z</time></trkpt><trkpt lat="46.3604383" lon="13.589645"><ele>511.3333333333333</ele><time>2026-04-25T14:56:04.957Z</time></trkpt><trkpt lat="46.36036" lon="13.5897033"><ele>509.5</ele><time>2026-04-25T14:56:05.957Z</time></trkpt><trkpt lat="46.3602833" lon="13.5897717"><ele>507.66666666666663</ele><time>2026-04-25T14:56:06.956Z</time></trkpt><trkpt lat="46.3602067" lon="13.589825"><ele>505.8333333333333</ele><time>2026-04-25T14:56:07.957Z</time></trkpt><trkpt lat="46.3601283" lon="13.589855"><ele>504.0</ele><time>2026-04-25T14:56:08.957Z</time></trkpt><trkpt lat="46.3600417" lon="13.5898933"><ele>504.0</ele><time>2026-04-25T14:56:09.957Z</time></trkpt><trkpt lat="46.3599617" lon="13.5898717"><ele>504.0</ele><time>2026-04-25T14:56:10.957Z</time></trkpt><trkpt lat="46.3598767" lon="13.58984"><ele>504.0</ele><time>2026-04-25T14:56:11.957Z</time></trkpt><trkpt lat="46.3597867" lon="13.5898133"><ele>504.0</ele><time>2026-04-25T14:56:12.957Z</time></trkpt><trkpt lat="46.3596967" lon="13.589775"><ele>504.0</ele><time>2026-04-25T14:56:13.957Z</time></trkpt><trkpt lat="46.359595" lon="13.589735"><ele>502.79999999999995</ele><time>2026-04-25T14:56:14.958Z</time></trkpt><trkpt lat="46.35949" lon="13.58969"><ele>501.59999999999997</ele><time>2026-04-25T14:56:15.956Z</time></trkpt><trkpt lat="46.35938" lon="13.5896567"><ele>500.4</ele><time>2026-04-25T14:56:16.956Z</time></trkpt><trkpt lat="46.3592717" lon="13.58962"><ele>499.2</ele><time>2026-04-25T14:56:17.956Z</time></trkpt><trkpt lat="46.3591617" lon="13.5895867"><ele>498.0</ele><time>2026-04-25T14:56:18.957Z</time></trkpt><trkpt lat="46.3590517" lon="13.5895433"><ele>499.0</ele><time>2026-04-25T14:56:19.957Z</time></trkpt><trkpt lat="46.3589383" lon="13.5894917"><ele>500.0</ele><time>2026-04-25T14:56:20.956Z</time></trkpt><trkpt lat="46.3588267" lon="13.5894183"><ele>501.0</ele><time>2026-04-25T14:56:21.957Z</time></trkpt><trkpt lat="46.3587133" lon="13.5893267"><ele>502.0</ele><time>2026-04-25T14:56:22.957Z</time></trkpt><trkpt lat="46.3586017" lon="13.5892283"><ele>502.0</ele><time>2026-04-25T14:56:23.958Z</time></trkpt><trkpt lat="46.3584883" lon="13.58913"><ele>502.0</ele><time>2026-04-25T14:56:24.957Z</time></trkpt><trkpt lat="46.358375" lon="13.5890317"><ele>502.0</ele><time>2026-04-25T14:56:25.957Z</time></trkpt><trkpt lat="46.3582617" lon="13.5889317"><ele>502.0</ele><time>2026-04-25T14:56:26.955Z</time></trkpt><trkpt lat="46.3581483" lon="13.5888317"><ele>502.0</ele><time>2026-04-25T14:56:27.957Z</time></trkpt><trkpt lat="46.358035" lon="13.5887317"><ele>502.0</ele><time>2026-04-25T14:56:28.957Z</time></trkpt><trkpt lat="46.3579233" lon="13.58863"><ele>502.0</ele><time>2026-04-25T14:56:29.957Z</time></trkpt><trkpt lat="46.3578167" lon="13.5885217"><ele>502.0</ele><time>2026-04-25T14:56:30.957Z</time></trkpt><trkpt lat="46.3577167" lon="13.58841"><ele>501.75</ele><time>2026-04-25T14:56:31.957Z</time></trkpt><trkpt lat="46.35763" lon="13.588285"><ele>501.5</ele><time>2026-04-25T14:56:32.956Z</time></trkpt><trkpt lat="46.3575567" lon="13.5881483"><ele>501.25</ele><time>2026-04-25T14:56:33.957Z</time></trkpt><trkpt lat="46.3574883" lon="13.5879967"><ele>501.0</ele><time>2026-04-25T14:56:34.956Z</time></trkpt><trkpt lat="46.3574183" lon="13.587835"><ele>500.5</ele><time>2026-04-25T14:56:35.957Z</time></trkpt><trkpt lat="46.3573417" lon="13.58767"><ele>500.0</ele><time>2026-04-25T14:56:36.957Z</time></trkpt><trkpt lat="46.3572633" lon="13.5875117"><ele>499.5</ele><time>2026-04-25T14:56:37.957Z</time></trkpt><trkpt lat="46.3571767" lon="13.58736"><ele>499.0</ele><time>2026-04-25T14:56:38.957Z</time></trkpt><trkpt lat="46.357075" lon="13.587225"><ele>499.0</ele><time>2026-04-25T14:56:39.958Z</time></trkpt><trkpt lat="46.3569583" lon="13.5870967"><ele>499.0</ele><time>2026-04-25T14:56:40.957Z</time></trkpt><trkpt lat="46.3568367" lon="13.58697"><ele>499.0</ele><time>2026-04-25T14:56:41.957Z</time></trkpt><trkpt lat="46.3567067" lon="13.58684"><ele>501.6666666666667</ele><time>2026-04-25T14:56:42.957Z</time></trkpt><trkpt lat="46.3565733" lon="13.5867017"><ele>504.33333333333337</ele><time>2026-04-25T14:56:43.957Z</time></trkpt><trkpt lat="46.356435" lon="13.586555"><ele>507.0</ele><time>2026-04-25T14:56:44.956Z</time></trkpt><trkpt lat="46.3562933" lon="13.5864083"><ele>506.0</ele><time>2026-04-25T14:56:45.957Z</time></trkpt><trkpt lat="46.3561517" lon="13.5862617"><ele>505.0</ele><time>2026-04-25T14:56:46.956Z</time></trkpt><trkpt lat="46.3560067" lon="13.586115"><ele>504.0</ele><time>2026-04-25T14:56:47.958Z</time></trkpt><trkpt lat="46.3558617" lon="13.5859667"><ele>504.0</ele><time>2026-04-25T14:56:48.957Z</time></trkpt><trkpt lat="46.355715" lon="13.5858183"><ele>504.0</ele><time>2026-04-25T14:56:49.957Z</time></trkpt><trkpt lat="46.3555733" lon="13.5856667"><ele>504.0</ele><time>2026-04-25T14:56:50.956Z</time></trkpt><trkpt lat="46.3554283" lon="13.5855133"><ele>503.0</ele><time>2026-04-25T14:56:51.957Z</time></trkpt><trkpt lat="46.3552817" lon="13.5853617"><ele>502.0</ele><time>2026-04-25T14:56:52.957Z</time></trkpt><trkpt lat="46.3551367" lon="13.58521"><ele>501.0</ele><time>2026-04-25T14:56:53.956Z</time></trkpt><trkpt lat="46.3549917" lon="13.585055"><ele>501.0</ele><time>2026-04-25T14:56:54.957Z</time></trkpt><trkpt lat="46.3548467" lon="13.5849"><ele>501.0</ele><time>2026-04-25T14:56:55.956Z</time></trkpt><trkpt lat="46.3547" lon="13.584745"><ele>501.0</ele><time>2026-04-25T14:56:56.957Z</time></trkpt><trkpt lat="46.3545517" lon="13.5845917"><ele>499.66666666666663</ele><time>2026-04-25T14:56:57.957Z</time></trkpt><trkpt lat="46.3544017" lon="13.5844367"><ele>498.3333333333333</ele><time>2026-04-25T14:56:58.957Z</time></trkpt><trkpt lat="46.3542533" lon="13.584285"><ele>497.0</ele><time>2026-04-25T14:56:59.956Z</time></trkpt><trkpt lat="46.354105" lon="13.584135"><ele>497.0</ele><time>2026-04-25T14:57:00.962Z</time></trkpt><trkpt lat="46.35396" lon="13.58398"><ele>497.0</ele><time>2026-04-25T14:57:01.958Z</time></trkpt><trkpt lat="46.35382" lon="13.5838267"><ele>497.0</ele><time>2026-04-25T14:57:02.957Z</time></trkpt><trkpt lat="46.3536817" lon="13.5836817"><ele>495.0</ele><time>2026-04-25T14:57:03.957Z</time></trkpt><trkpt lat="46.3535417" lon="13.5835367"><ele>493.0</ele><time>2026-04-25T14:57:04.957Z</time></trkpt><trkpt lat="46.3534033" lon="13.5833883"><ele>491.0</ele><time>2026-04-25T14:57:05.958Z</time></trkpt><trkpt lat="46.35326" lon="13.5832417"><ele>491.0</ele><time>2026-04-25T14:57:06.957Z</time></trkpt><trkpt lat="46.3531183" lon="13.5830967"><ele>491.0</ele><time>2026-04-25T14:57:07.956Z</time></trkpt><trkpt lat="46.3529733" lon="13.582945"><ele>491.0</ele><time>2026-04-25T14:57:08.957Z</time></trkpt><trkpt lat="46.352825" lon="13.5827867"><ele>490.66666666666663</ele><time>2026-04-25T14:57:09.957Z</time></trkpt><trkpt lat="46.35268" lon="13.582625"><ele>490.33333333333337</ele><time>2026-04-25T14:57:10.957Z</time></trkpt><trkpt lat="46.3525317" lon="13.5824717"><ele>490.0</ele><time>2026-04-25T14:57:11.956Z</time></trkpt><trkpt lat="46.3523817" lon="13.582315"><ele>490.0</ele><time>2026-04-25T14:57:12.957Z</time></trkpt><trkpt lat="46.35223" lon="13.5821533"><ele>490.0</ele><time>2026-04-25T14:57:13.957Z</time></trkpt><trkpt lat="46.352075" lon="13.581995"><ele>490.0</ele><time>2026-04-25T14:57:14.957Z</time></trkpt><trkpt lat="46.3519233" lon="13.58184"><ele>488.6666666666667</ele><time>2026-04-25T14:57:15.957Z</time></trkpt><trkpt lat="46.35177" lon="13.5816833"><ele>487.33333333333337</ele><time>2026-04-25T14:57:16.957Z</time></trkpt><trkpt lat="46.3516167" lon="13.5815233"><ele>486.0</ele><time>2026-04-25T14:57:17.958Z</time></trkpt><trkpt lat="46.3514633" lon="13.5813667"><ele>486.0</ele><time>2026-04-25T14:57:18.956Z</time></trkpt><trkpt lat="46.3513067" lon="13.5812117"><ele>486.0</ele><time>2026-04-25T14:57:19.957Z</time></trkpt><trkpt lat="46.3511483" lon="13.5810567"><ele>486.0</ele><time>2026-04-25T14:57:20.957Z</time></trkpt><trkpt lat="46.3509917" lon="13.5809017"><ele>486.0</ele><time>2026-04-25T14:57:21.957Z</time></trkpt><trkpt lat="46.3508317" lon="13.5807383"><ele>486.0</ele><time>2026-04-25T14:57:22.957Z</time></trkpt><trkpt lat="46.3506717" lon="13.58058"><ele>486.0</ele><time>2026-04-25T14:57:23.956Z</time></trkpt><trkpt lat="46.350505" lon="13.5804367"><ele>488.0</ele><time>2026-04-25T14:57:24.956Z</time></trkpt><trkpt lat="46.3503317" lon="13.58031"><ele>490.0</ele><time>2026-04-25T14:57:25.956Z</time></trkpt><trkpt lat="46.3501517" lon="13.58021"><ele>492.0</ele><time>2026-04-25T14:57:26.957Z</time></trkpt><trkpt lat="46.3499633" lon="13.5801317"><ele>492.0</ele><time>2026-04-25T14:57:27.956Z</time></trkpt><trkpt lat="46.349775" lon="13.580065"><ele>492.0</ele><time>2026-04-25T14:57:28.958Z</time></trkpt><trkpt lat="46.3495883" lon="13.5799967"><ele>492.0</ele><time>2026-04-25T14:57:29.956Z</time></trkpt><trkpt lat="46.349405" lon="13.5799183"><ele>485.33333333333337</ele><time>2026-04-25T14:57:30.957Z</time></trkpt><trkpt lat="46.349225" lon="13.5798283"><ele>478.6666666666667</ele><time>2026-04-25T14:57:31.957Z</time></trkpt><trkpt lat="46.3490483" lon="13.57973"><ele>472.0</ele><time>2026-04-25T14:57:32.957Z</time></trkpt><trkpt lat="46.3488817" lon="13.5796133"><ele>472.33333333333337</ele><time>2026-04-25T14:57:33.956Z</time></trkpt><trkpt lat="46.348715" lon="13.579495"><ele>472.66666666666663</ele><time>2026-04-25T14:57:34.958Z</time></trkpt><trkpt lat="46.3485533" lon="13.5793833"><ele>473.0</ele><time>2026-04-25T14:57:35.958Z</time></trkpt><trkpt lat="46.3483917" lon="13.579265"><ele>473.0</ele><time>2026-04-25T14:57:36.957Z</time></trkpt><trkpt lat="46.3482283" lon="13.579155"><ele>473.0</ele><time>2026-04-25T14:57:37.957Z</time></trkpt><trkpt lat="46.3480617" lon="13.5790533"><ele>473.0</ele><time>2026-04-25T14:57:38.956Z</time></trkpt><trkpt lat="46.347895" lon="13.57896"><ele>464.66666666666663</ele><time>2026-04-25T14:57:39.957Z</time></trkpt><trkpt lat="46.3477317" lon="13.5788667"><ele>456.33333333333337</ele><time>2026-04-25T14:57:40.957Z</time></trkpt><trkpt lat="46.3475667" lon="13.5787767"><ele>448.0</ele><time>2026-04-25T14:57:41.957Z</time></trkpt><trkpt lat="46.3474017" lon="13.57869"><ele>452.33333333333337</ele><time>2026-04-25T14:57:42.957Z</time></trkpt><trkpt lat="46.347235" lon="13.5786117"><ele>456.66666666666663</ele><time>2026-04-25T14:57:43.957Z</time></trkpt><trkpt lat="46.3470683" lon="13.5785417"><ele>461.0</ele><time>2026-04-25T14:57:44.957Z</time></trkpt><trkpt lat="46.3469017" lon="13.578475"><ele>461.0</ele><time>2026-04-25T14:57:45.956Z</time></trkpt><trkpt lat="46.346735" lon="13.578415"><ele>461.0</ele><time>2026-04-25T14:57:46.958Z</time></trkpt><trkpt lat="46.34657" lon="13.5783567"><ele>461.0</ele><time>2026-04-25T14:57:47.957Z</time></trkpt><trkpt lat="46.3464083" lon="13.5783"><ele>456.66666666666663</ele><time>2026-04-25T14:57:48.957Z</time></trkpt><trkpt lat="46.3462483" lon="13.578245"><ele>452.33333333333337</ele><time>2026-04-25T14:57:49.956Z</time></trkpt><trkpt lat="46.3460933" lon="13.578185"><ele>448.0</ele><time>2026-04-25T14:57:50.956Z</time></trkpt><trkpt lat="46.3459433" lon="13.5781183"><ele>448.0</ele><time>2026-04-25T14:57:51.957Z</time></trkpt><trkpt lat="46.3458" lon="13.57804"><ele>448.0</ele><time>2026-04-25T14:57:52.957Z</time></trkpt><trkpt lat="46.3456683" lon="13.57794"><ele>448.0</ele><time>2026-04-25T14:57:53.956Z</time></trkpt><trkpt lat="46.3455433" lon="13.5778167"><ele>447.0</ele><time>2026-04-25T14:57:54.957Z</time></trkpt><trkpt lat="46.3454233" lon="13.57767"><ele>446.0</ele><time>2026-04-25T14:57:55.957Z</time></trkpt><trkpt lat="46.345315" lon="13.5775"><ele>445.0</ele><time>2026-04-25T14:57:56.956Z</time></trkpt><trkpt lat="46.3452167" lon="13.577325"><ele>445.0</ele><time>2026-04-25T14:57:57.956Z</time></trkpt><trkpt lat="46.3451233" lon="13.577155"><ele>445.0</ele><time>2026-04-25T14:57:58.958Z</time></trkpt><trkpt lat="46.3450317" lon="13.5769883"><ele>445.0</ele><time>2026-04-25T14:57:59.956Z</time></trkpt><trkpt lat="46.34495" lon="13.5768283"><ele>445.0</ele><time>2026-04-25T14:58:00.957Z</time></trkpt><trkpt lat="46.3448683" lon="13.5766783"><ele>444.0</ele><time>2026-04-25T14:58:01.957Z</time></trkpt><trkpt lat="46.34479" lon="13.5765383"><ele>443.0</ele><time>2026-04-25T14:58:02.957Z</time></trkpt><trkpt lat="46.3447183" lon="13.5764017"><ele>442.0</ele><time>2026-04-25T14:58:03.957Z</time></trkpt><trkpt lat="46.3446533" lon="13.576265"><ele>441.0</ele><time>2026-04-25T14:58:04.957Z</time></trkpt><trkpt lat="46.34459" lon="13.5761333"><ele>441.0</ele><time>2026-04-25T14:58:05.957Z</time></trkpt><trkpt lat="46.34452" lon="13.5760083"><ele>441.0</ele><time>2026-04-25T14:58:06.956Z</time></trkpt><trkpt lat="46.3444533" lon="13.5758817"><ele>441.0</ele><time>2026-04-25T14:58:07.956Z</time></trkpt><trkpt lat="46.3443867" lon="13.575755"><ele>441.0</ele><time>2026-04-25T14:58:08.957Z</time></trkpt><trkpt lat="46.3443217" lon="13.5756267"><ele>441.0</ele><time>2026-04-25T14:58:09.956Z</time></trkpt><trkpt lat="46.344255" lon="13.5755017"><ele>441.0</ele><time>2026-04-25T14:58:10.958Z</time></trkpt><trkpt lat="46.34419" lon="13.575375"><ele>441.0</ele><time>2026-04-25T14:58:11.957Z</time></trkpt><trkpt lat="46.3441267" lon="13.575245"><ele>441.0</ele><time>2026-04-25T14:58:12.957Z</time></trkpt><trkpt lat="46.344065" lon="13.5751183"><ele>441.0</ele><time>2026-04-25T14:58:13.957Z</time></trkpt><trkpt lat="46.3440033" lon="13.5749917"><ele>441.0</ele><time>2026-04-25T14:58:14.956Z</time></trkpt><trkpt lat="46.3439417" lon="13.574865"><ele>441.6</ele><time>2026-04-25T14:58:15.957Z</time></trkpt><trkpt lat="46.3438833" lon="13.5747383"><ele>442.20000000000005</ele><time>2026-04-25T14:58:16.958Z</time></trkpt><trkpt lat="46.3438283" lon="13.5746167"><ele>442.79999999999995</ele><time>2026-04-25T14:58:17.957Z</time></trkpt><trkpt lat="46.3437817" lon="13.5745033"><ele>443.4</ele><time>2026-04-25T14:58:18.957Z</time></trkpt><trkpt lat="46.34373" lon="13.5744133"><ele>444.0</ele><time>2026-04-25T14:58:19.957Z</time></trkpt><trkpt lat="46.3436667" lon="13.574345"><ele>444.0</ele><time>2026-04-25T14:58:20.957Z</time></trkpt><trkpt lat="46.3435983" lon="13.574305"><ele>444.0</ele><time>2026-04-25T14:58:21.956Z</time></trkpt><trkpt lat="46.3435183" lon="13.5742933"><ele>444.0</ele><time>2026-04-25T14:58:22.957Z</time></trkpt><trkpt lat="46.3434233" lon="13.5742783"><ele>444.0</ele><time>2026-04-25T14:58:23.957Z</time></trkpt><trkpt lat="46.3433317" lon="13.5742283"><ele>444.0</ele><time>2026-04-25T14:58:24.958Z</time></trkpt><trkpt lat="46.343245" lon="13.5741467"><ele>444.0</ele><time>2026-04-25T14:58:25.957Z</time></trkpt><trkpt lat="46.3431633" lon="13.57405"><ele>444.0</ele><time>2026-04-25T14:58:26.958Z</time></trkpt><trkpt lat="46.3430883" lon="13.5739583"><ele>444.0</ele><time>2026-04-25T14:58:27.957Z</time></trkpt><trkpt lat="46.3430217" lon="13.573875"><ele>444.0</ele><time>2026-04-25T14:58:28.957Z</time></trkpt><trkpt lat="46.3429633" lon="13.5737983"><ele>444.0</ele><time>2026-04-25T14:58:29.957Z</time></trkpt><trkpt lat="46.3429067" lon="13.5737267"><ele>444.0</ele><time>2026-04-25T14:58:30.957Z</time></trkpt><trkpt lat="46.3428533" lon="13.573665"><ele>443.4</ele><time>2026-04-25T14:58:31.958Z</time></trkpt><trkpt lat="46.3427683" lon="13.5735567"><ele>442.79999999999995</ele><time>2026-04-25T14:58:33.958Z</time></trkpt><trkpt lat="46.342715" lon="13.5734767"><ele>442.20000000000005</ele><time>2026-04-25T14:58:36.956Z</time></trkpt><trkpt lat="46.342635" lon="13.573405"><ele>441.6</ele><time>2026-04-25T15:03:40.957Z</time></trkpt><trkpt lat="46.3425633" lon="13.573335"><ele>441.0</ele><time>2026-04-25T15:03:43.958Z</time></trkpt><trkpt lat="46.3424767" lon="13.5733433"><ele>441.0</ele><time>2026-04-25T15:03:46.958Z</time></trkpt><trkpt lat="46.3424917" lon="13.5734733"><ele>441.0</ele><time>2026-04-25T15:03:49.957Z</time></trkpt><trkpt lat="46.3425417" lon="13.5735367"><ele>441.0</ele><time>2026-04-25T15:03:51.958Z</time></trkpt><trkpt lat="46.3426233" lon="13.5735617"><ele>441.0</ele><time>2026-04-25T15:03:54.957Z</time></trkpt><trkpt lat="46.3426967" lon="13.5736067"><ele>441.0</ele><time>2026-04-25T15:04:05.957Z</time></trkpt><trkpt lat="46.3427767" lon="13.57367"><ele>441.0</ele><time>2026-04-25T15:04:07.956Z</time></trkpt><trkpt lat="46.3428733" lon="13.5737633"><ele>441.5</ele><time>2026-04-25T15:04:09.957Z</time></trkpt><trkpt lat="46.342935" lon="13.5738233"><ele>442.0</ele><time>2026-04-25T15:04:10.957Z</time></trkpt><trkpt lat="46.343" lon="13.5738967"><ele>442.5</ele><time>2026-04-25T15:04:11.957Z</time></trkpt><trkpt lat="46.34307" lon="13.5739767"><ele>443.0</ele><time>2026-04-25T15:04:12.956Z</time></trkpt><trkpt lat="46.3431433" lon="13.574065"><ele>443.5</ele><time>2026-04-25T15:04:13.956Z</time></trkpt><trkpt lat="46.34322" lon="13.57416"><ele>444.0</ele><time>2026-04-25T15:04:14.957Z</time></trkpt><trkpt lat="46.3432933" lon="13.5742517"><ele>444.0</ele><time>2026-04-25T15:04:15.957Z</time></trkpt><trkpt lat="46.3433667" lon="13.5743267"><ele>444.0</ele><time>2026-04-25T15:04:16.958Z</time></trkpt><trkpt lat="46.3434283" lon="13.5743917"><ele>444.0</ele><time>2026-04-25T15:04:17.956Z</time></trkpt><trkpt lat="46.343485" lon="13.5744467"><ele>444.0</ele><time>2026-04-25T15:04:18.956Z</time></trkpt><trkpt lat="46.3435867" lon="13.5745117"><ele>444.0</ele><time>2026-04-25T15:04:20.957Z</time></trkpt><trkpt lat="46.3436767" lon="13.574515"><ele>444.0</ele><time>2026-04-25T15:04:22.957Z</time></trkpt><trkpt lat="46.3437483" lon="13.5744167"><ele>444.0</ele><time>2026-04-25T15:04:24.957Z</time></trkpt><trkpt lat="46.3437683" lon="13.5742167"><ele>444.0</ele><time>2026-04-25T15:04:26.956Z</time></trkpt><trkpt lat="46.3437533" lon="13.5740933"><ele>444.0</ele><time>2026-04-25T15:04:27.957Z</time></trkpt><trkpt lat="46.343735" lon="13.573955"><ele>444.0</ele><time>2026-04-25T15:04:28.956Z</time></trkpt><trkpt lat="46.3437167" lon="13.5738017"><ele>444.0</ele><time>2026-04-25T15:04:29.957Z</time></trkpt><trkpt lat="46.3437" lon="13.5736433"><ele>445.75</ele><time>2026-04-25T15:04:30.957Z</time></trkpt><trkpt lat="46.34369" lon="13.5734783"><ele>447.5</ele><time>2026-04-25T15:04:31.957Z</time></trkpt><trkpt lat="46.3436767" lon="13.5733133"><ele>449.25</ele><time>2026-04-25T15:04:32.956Z</time></trkpt><trkpt lat="46.343655" lon="13.5731383"><ele>451.0</ele><time>2026-04-25T15:04:33.957Z</time></trkpt><trkpt lat="46.343625" lon="13.5729667"><ele>452.25</ele><time>2026-04-25T15:04:34.958Z</time></trkpt><trkpt lat="46.3435817" lon="13.5728"><ele>453.5</ele><time>2026-04-25T15:04:35.956Z</time></trkpt><trkpt lat="46.3435317" lon="13.5726367"><ele>454.75</ele><time>2026-04-25T15:04:36.957Z</time></trkpt><trkpt lat="46.3434667" lon="13.5724833"><ele>456.0</ele><time>2026-04-25T15:04:37.956Z</time></trkpt><trkpt lat="46.3433767" lon="13.572335"><ele>456.0</ele><time>2026-04-25T15:04:38.956Z</time></trkpt><trkpt lat="46.343285" lon="13.5721817"><ele>456.0</ele><time>2026-04-25T15:04:39.957Z</time></trkpt><trkpt lat="46.3431917" lon="13.57203"><ele>456.0</ele><time>2026-04-25T15:04:40.957Z</time></trkpt><trkpt lat="46.34309" lon="13.5718917"><ele>456.0</ele><time>2026-04-25T15:04:41.955Z</time></trkpt><trkpt lat="46.3429867" lon="13.5717583"><ele>455.75</ele><time>2026-04-25T15:04:42.957Z</time></trkpt><trkpt lat="46.3428883" lon="13.571615"><ele>455.5</ele><time>2026-04-25T15:04:43.957Z</time></trkpt><trkpt lat="46.3427833" lon="13.57148"><ele>455.25</ele><time>2026-04-25T15:04:44.957Z</time></trkpt><trkpt lat="46.342675" lon="13.5713533"><ele>455.0</ele><time>2026-04-25T15:04:45.955Z</time></trkpt><trkpt lat="46.3425683" lon="13.5712433"><ele>456.75</ele><time>2026-04-25T15:04:46.956Z</time></trkpt><trkpt lat="46.3424533" lon="13.5711417"><ele>458.5</ele><time>2026-04-25T15:04:47.957Z</time></trkpt><trkpt lat="46.342335" lon="13.5710533"><ele>460.25</ele><time>2026-04-25T15:04:48.956Z</time></trkpt><trkpt lat="46.3422167" lon="13.57097"><ele>462.0</ele><time>2026-04-25T15:04:49.958Z</time></trkpt><trkpt lat="46.342095" lon="13.5708983"><ele>462.0</ele><time>2026-04-25T15:04:50.958Z</time></trkpt><trkpt lat="46.3419733" lon="13.5708417"><ele>462.0</ele><time>2026-04-25T15:04:51.958Z</time></trkpt><trkpt lat="46.3418533" lon="13.5707883"><ele>462.0</ele><time>2026-04-25T15:04:52.958Z</time></trkpt><trkpt lat="46.3417383" lon="13.5707333"><ele>462.0</ele><time>2026-04-25T15:04:53.957Z</time></trkpt><trkpt lat="46.341625" lon="13.5706783"><ele>462.0</ele><time>2026-04-25T15:04:54.957Z</time></trkpt><trkpt lat="46.3415183" lon="13.5706167"><ele>462.0</ele><time>2026-04-25T15:04:55.958Z</time></trkpt><trkpt lat="46.3414117" lon="13.57055"><ele>462.0</ele><time>2026-04-25T15:04:56.958Z</time></trkpt><trkpt lat="46.34131" lon="13.570475"><ele>462.0</ele><time>2026-04-25T15:04:57.957Z</time></trkpt><trkpt lat="46.34121" lon="13.5703917"><ele>462.5</ele><time>2026-04-25T15:04:58.958Z</time></trkpt><trkpt lat="46.3411117" lon="13.5703017"><ele>463.0</ele><time>2026-04-25T15:04:59.957Z</time></trkpt><trkpt lat="46.3410217" lon="13.5702"><ele>463.5</ele><time>2026-04-25T15:05:00.957Z</time></trkpt><trkpt lat="46.3409267" lon="13.5700883"><ele>464.0</ele><time>2026-04-25T15:05:01.958Z</time></trkpt><trkpt lat="46.3408383" lon="13.56997"><ele>464.0</ele><time>2026-04-25T15:05:02.957Z</time></trkpt><trkpt lat="46.3407517" lon="13.5698333"><ele>464.0</ele><time>2026-04-25T15:05:03.957Z</time></trkpt><trkpt lat="46.340665" lon="13.5696833"><ele>464.0</ele><time>2026-04-25T15:05:04.957Z</time></trkpt><trkpt lat="46.3405833" lon="13.5695233"><ele>464.0</ele><time>2026-04-25T15:05:05.955Z</time></trkpt><trkpt lat="46.3405067" lon="13.56935"><ele>463.3333333333333</ele><time>2026-04-25T15:05:06.956Z</time></trkpt><trkpt lat="46.3404317" lon="13.5691617"><ele>462.66666666666663</ele><time>2026-04-25T15:05:07.956Z</time></trkpt><trkpt lat="46.3403617" lon="13.5689617"><ele>462.0</ele><time>2026-04-25T15:05:08.957Z</time></trkpt><trkpt lat="46.34028" lon="13.5687533"><ele>461.33333333333337</ele><time>2026-04-25T15:05:09.957Z</time></trkpt><trkpt lat="46.340205" lon="13.568545"><ele>460.6666666666667</ele><time>2026-04-25T15:05:10.957Z</time></trkpt><trkpt lat="46.3401367" lon="13.5683417"><ele>460.0</ele><time>2026-04-25T15:05:11.957Z</time></trkpt><trkpt lat="46.3400767" lon="13.5681383"><ele>460.0</ele><time>2026-04-25T15:05:12.955Z</time></trkpt><trkpt lat="46.3400283" lon="13.56794"><ele>460.0</ele><time>2026-04-25T15:05:13.957Z</time></trkpt><trkpt lat="46.3399917" lon="13.5677433"><ele>460.0</ele><time>2026-04-25T15:05:14.957Z</time></trkpt><trkpt lat="46.3399617" lon="13.5675483"><ele>460.0</ele><time>2026-04-25T15:05:15.957Z</time></trkpt><trkpt lat="46.3399383" lon="13.56736"><ele>459.8</ele><time>2026-04-25T15:05:16.957Z</time></trkpt><trkpt lat="46.3399183" lon="13.567185"><ele>459.6</ele><time>2026-04-25T15:05:17.957Z</time></trkpt><trkpt lat="46.3399" lon="13.567035"><ele>459.4</ele><time>2026-04-25T15:05:18.957Z</time></trkpt><trkpt lat="46.3398833" lon="13.5669067"><ele>459.2</ele><time>2026-04-25T15:05:19.956Z</time></trkpt><trkpt lat="46.3398683" lon="13.566795"><ele>459.0</ele><time>2026-04-25T15:05:20.957Z</time></trkpt><trkpt lat="46.3398583" lon="13.566695"><ele>458.8333333333333</ele><time>2026-04-25T15:05:21.957Z</time></trkpt><trkpt lat="46.33985" lon="13.5665967"><ele>458.66666666666663</ele><time>2026-04-25T15:05:22.956Z</time></trkpt><trkpt lat="46.33984" lon="13.566495"><ele>458.5</ele><time>2026-04-25T15:05:23.958Z</time></trkpt><trkpt lat="46.3398283" lon="13.5663817"><ele>458.3333333333333</ele><time>2026-04-25T15:05:24.958Z</time></trkpt><trkpt lat="46.3398167" lon="13.5662583"><ele>458.16666666666663</ele><time>2026-04-25T15:05:25.958Z</time></trkpt><trkpt lat="46.3398033" lon="13.5661233"><ele>458.0</ele><time>2026-04-25T15:05:26.957Z</time></trkpt><trkpt lat="46.3397867" lon="13.565975"><ele>458.0</ele><time>2026-04-25T15:05:27.956Z</time></trkpt><trkpt lat="46.339775" lon="13.565815"><ele>458.0</ele><time>2026-04-25T15:05:28.956Z</time></trkpt><trkpt lat="46.3397667" lon="13.565645"><ele>458.0</ele><time>2026-04-25T15:05:29.957Z</time></trkpt><trkpt lat="46.3397633" lon="13.5654683"><ele>458.0</ele><time>2026-04-25T15:05:30.956Z</time></trkpt><trkpt lat="46.3397617" lon="13.5652917"><ele>458.0</ele><time>2026-04-25T15:05:31.957Z</time></trkpt><trkpt lat="46.3397583" lon="13.565115"><ele>458.0</ele><time>2026-04-25T15:05:32.958Z</time></trkpt><trkpt lat="46.3397533" lon="13.564935"><ele>458.0</ele><time>2026-04-25T15:05:33.957Z</time></trkpt><trkpt lat="46.3397433" lon="13.564755"><ele>458.0</ele><time>2026-04-25T15:05:34.957Z</time></trkpt><trkpt lat="46.3397267" lon="13.5645733"><ele>457.5</ele><time>2026-04-25T15:05:35.956Z</time></trkpt><trkpt lat="46.3397017" lon="13.5643967"><ele>457.0</ele><time>2026-04-25T15:05:36.957Z</time></trkpt><trkpt lat="46.3396683" lon="13.564225"><ele>456.5</ele><time>2026-04-25T15:05:37.957Z</time></trkpt><trkpt lat="46.33963" lon="13.5640583"><ele>456.0</ele><time>2026-04-25T15:05:38.956Z</time></trkpt><trkpt lat="46.339585" lon="13.56389"><ele>456.0</ele><time>2026-04-25T15:05:39.958Z</time></trkpt><trkpt lat="46.339535" lon="13.563725"><ele>456.0</ele><time>2026-04-25T15:05:40.957Z</time></trkpt><trkpt lat="46.3394783" lon="13.563565"><ele>456.0</ele><time>2026-04-25T15:05:41.958Z</time></trkpt><trkpt lat="46.33942" lon="13.56341"><ele>456.0</ele><time>2026-04-25T15:05:42.957Z</time></trkpt><trkpt lat="46.33936" lon="13.5632617"><ele>455.75</ele><time>2026-04-25T15:05:43.956Z</time></trkpt><trkpt lat="46.3392983" lon="13.5631167"><ele>455.5</ele><time>2026-04-25T15:05:44.956Z</time></trkpt><trkpt lat="46.3392367" lon="13.562975"><ele>455.25</ele><time>2026-04-25T15:05:45.957Z</time></trkpt><trkpt lat="46.3391717" lon="13.5628317"><ele>455.0</ele><time>2026-04-25T15:05:46.957Z</time></trkpt><trkpt lat="46.3391083" lon="13.5626933"><ele>455.0</ele><time>2026-04-25T15:05:47.957Z</time></trkpt><trkpt lat="46.339045" lon="13.56256"><ele>455.0</ele><time>2026-04-25T15:05:48.957Z</time></trkpt><trkpt lat="46.33898" lon="13.5624233"><ele>455.0</ele><time>2026-04-25T15:05:49.956Z</time></trkpt><trkpt lat="46.3389133" lon="13.5622867"><ele>455.0</ele><time>2026-04-25T15:05:50.957Z</time></trkpt><trkpt lat="46.3388483" lon="13.56215"><ele>455.0</ele><time>2026-04-25T15:05:51.957Z</time></trkpt><trkpt lat="46.3387817" lon="13.5620117"><ele>455.0</ele><time>2026-04-25T15:05:52.958Z</time></trkpt><trkpt lat="46.3387167" lon="13.5618733"><ele>455.0</ele><time>2026-04-25T15:05:53.956Z</time></trkpt><trkpt lat="46.3386567" lon="13.5617367"><ele>455.0</ele><time>2026-04-25T15:05:54.957Z</time></trkpt><trkpt lat="46.3385967" lon="13.5616033"><ele>455.0</ele><time>2026-04-25T15:05:55.956Z</time></trkpt><trkpt lat="46.338535" lon="13.561465"><ele>455.0</ele><time>2026-04-25T15:05:56.956Z</time></trkpt><trkpt lat="46.3384733" lon="13.5613233"><ele>455.0</ele><time>2026-04-25T15:05:57.959Z</time></trkpt><trkpt lat="46.3384083" lon="13.56118"><ele>455.0</ele><time>2026-04-25T15:05:58.958Z</time></trkpt><trkpt lat="46.3383433" lon="13.5610383"><ele>454.6</ele><time>2026-04-25T15:05:59.957Z</time></trkpt><trkpt lat="46.33828" lon="13.560895"><ele>454.2</ele><time>2026-04-25T15:06:00.957Z</time></trkpt><trkpt lat="46.3382183" lon="13.5607533"><ele>453.79999999999995</ele><time>2026-04-25T15:06:01.957Z</time></trkpt><trkpt lat="46.3381583" lon="13.560625"><ele>453.4</ele><time>2026-04-25T15:06:02.957Z</time></trkpt><trkpt lat="46.3380983" lon="13.5604967"><ele>453.0</ele><time>2026-04-25T15:06:03.957Z</time></trkpt><trkpt lat="46.3380383" lon="13.560375"><ele>452.6666666666667</ele><time>2026-04-25T15:06:04.958Z</time></trkpt><trkpt lat="46.3379817" lon="13.5602667"><ele>452.33333333333337</ele><time>2026-04-25T15:06:05.957Z</time></trkpt><trkpt lat="46.3379267" lon="13.5601767"><ele>452.0</ele><time>2026-04-25T15:06:06.958Z</time></trkpt><trkpt lat="46.33788" lon="13.5600983"><ele>451.6666666666667</ele><time>2026-04-25T15:06:07.956Z</time></trkpt><trkpt lat="46.337805" lon="13.5599617"><ele>451.33333333333337</ele><time>2026-04-25T15:06:09.958Z</time></trkpt><trkpt lat="46.3377683" lon="13.5598783"><ele>451.0</ele><time>2026-04-25T15:06:10.958Z</time></trkpt><trkpt lat="46.3377267" lon="13.55979"><ele>451.0</ele><time>2026-04-25T15:06:11.958Z</time></trkpt><trkpt lat="46.337665" lon="13.559705"><ele>451.0</ele><time>2026-04-25T15:06:12.957Z</time></trkpt><trkpt lat="46.337585" lon="13.5596167"><ele>451.0</ele><time>2026-04-25T15:06:13.957Z</time></trkpt><trkpt lat="46.3374983" lon="13.5595183"><ele>451.0</ele><time>2026-04-25T15:06:14.956Z</time></trkpt><trkpt lat="46.3374167" lon="13.5594033"><ele>451.0</ele><time>2026-04-25T15:06:15.96Z</time></trkpt><trkpt lat="46.3373283" lon="13.55928"><ele>451.0</ele><time>2026-04-25T15:06:16.958Z</time></trkpt><trkpt lat="46.337235" lon="13.559155"><ele>451.0</ele><time>2026-04-25T15:06:17.958Z</time></trkpt><trkpt lat="46.3371283" lon="13.5590383"><ele>451.0</ele><time>2026-04-25T15:06:18.958Z</time></trkpt><trkpt lat="46.33701" lon="13.5589317"><ele>451.0</ele><time>2026-04-25T15:06:19.958Z</time></trkpt><trkpt lat="46.33688" lon="13.558835"><ele>450.5</ele><time>2026-04-25T15:06:20.957Z</time></trkpt><trkpt lat="46.336745" lon="13.55875"><ele>450.0</ele><time>2026-04-25T15:06:21.957Z</time></trkpt><trkpt lat="46.3366083" lon="13.5586767"><ele>449.5</ele><time>2026-04-25T15:06:22.957Z</time></trkpt><trkpt lat="46.336475" lon="13.558615"><ele>449.0</ele><time>2026-04-25T15:06:23.957Z</time></trkpt><trkpt lat="46.336355" lon="13.5585617"><ele>449.0</ele><time>2026-04-25T15:06:24.956Z</time></trkpt><trkpt lat="46.3362433" lon="13.5585067"><ele>449.0</ele><time>2026-04-25T15:06:25.958Z</time></trkpt><trkpt lat="46.3361367" lon="13.5584483"><ele>449.0</ele><time>2026-04-25T15:06:26.957Z</time></trkpt><trkpt lat="46.3360317" lon="13.5583833"><ele>449.0</ele><time>2026-04-25T15:06:27.957Z</time></trkpt><trkpt lat="46.335925" lon="13.5583133"><ele>449.0</ele><time>2026-04-25T15:06:28.957Z</time></trkpt><trkpt lat="46.33582" lon="13.55824"><ele>449.0</ele><time>2026-04-25T15:06:29.956Z</time></trkpt><trkpt lat="46.3357133" lon="13.5581633"><ele>449.0</ele><time>2026-04-25T15:06:30.957Z</time></trkpt><trkpt lat="46.3356033" lon="13.5580783"><ele>449.0</ele><time>2026-04-25T15:06:31.957Z</time></trkpt><trkpt lat="46.3354867" lon="13.5579917"><ele>449.0</ele><time>2026-04-25T15:06:32.958Z</time></trkpt><trkpt lat="46.3353683" lon="13.5578967"><ele>449.0</ele><time>2026-04-25T15:06:33.957Z</time></trkpt><trkpt lat="46.3352417" lon="13.5578"><ele>449.0</ele><time>2026-04-25T15:06:34.956Z</time></trkpt><trkpt lat="46.33511" lon="13.5577067"><ele>449.0</ele><time>2026-04-25T15:06:35.957Z</time></trkpt><trkpt lat="46.3349733" lon="13.55762"><ele>449.0</ele><time>2026-04-25T15:06:36.957Z</time></trkpt><trkpt lat="46.3348317" lon="13.557535"><ele>449.0</ele><time>2026-04-25T15:06:37.957Z</time></trkpt><trkpt lat="46.334685" lon="13.5574467"><ele>449.0</ele><time>2026-04-25T15:06:38.956Z</time></trkpt><trkpt lat="46.33453" lon="13.5573583"><ele>447.3333333333333</ele><time>2026-04-25T15:06:39.956Z</time></trkpt><trkpt lat="46.33437" lon="13.5572683"><ele>445.66666666666663</ele><time>2026-04-25T15:06:40.957Z</time></trkpt><trkpt lat="46.3342067" lon="13.5571667"><ele>444.0</ele><time>2026-04-25T15:06:41.957Z</time></trkpt><trkpt lat="46.3340483" lon="13.5570383"><ele>444.0</ele><time>2026-04-25T15:06:42.956Z</time></trkpt><trkpt lat="46.3339017" lon="13.556875"><ele>444.0</ele><time>2026-04-25T15:06:43.957Z</time></trkpt><trkpt lat="46.333775" lon="13.5566767"><ele>444.0</ele><time>2026-04-25T15:06:44.957Z</time></trkpt><trkpt lat="46.33367" lon="13.5564417"><ele>443.33333333333337</ele><time>2026-04-25T15:06:45.957Z</time></trkpt><trkpt lat="46.3335983" lon="13.5561617"><ele>442.6666666666667</ele><time>2026-04-25T15:06:46.957Z</time></trkpt><trkpt lat="46.3335617" lon="13.5558517"><ele>442.0</ele><time>2026-04-25T15:06:47.957Z</time></trkpt><trkpt lat="46.3335617" lon="13.5555517"><ele>442.0</ele><time>2026-04-25T15:06:48.958Z</time></trkpt><trkpt lat="46.33358" lon="13.5552867"><ele>442.0</ele><time>2026-04-25T15:06:49.957Z</time></trkpt><trkpt lat="46.3335983" lon="13.5550533"><ele>442.0</ele><time>2026-04-25T15:06:50.957Z</time></trkpt><trkpt lat="46.3336167" lon="13.5548533"><ele>442.0</ele><time>2026-04-25T15:06:51.959Z</time></trkpt><trkpt lat="46.3336317" lon="13.5546817"><ele>442.00000000000006</ele><time>2026-04-25T15:06:52.956Z</time></trkpt><trkpt lat="46.3336433" lon="13.554545"><ele>442.00000000000006</ele><time>2026-04-25T15:06:53.956Z</time></trkpt><trkpt lat="46.3336617" lon="13.5544267"><ele>442.0</ele><time>2026-04-25T15:06:54.956Z</time></trkpt><trkpt lat="46.3336883" lon="13.5543183"><ele>442.0</ele><time>2026-04-25T15:06:55.957Z</time></trkpt><trkpt lat="46.3337183" lon="13.5542167"><ele>441.8</ele><time>2026-04-25T15:06:56.957Z</time></trkpt><trkpt lat="46.3337433" lon="13.55411"><ele>441.6</ele><time>2026-04-25T15:06:57.956Z</time></trkpt><trkpt lat="46.3337483" lon="13.5539917"><ele>441.40000000000003</ele><time>2026-04-25T15:06:58.957Z</time></trkpt><trkpt lat="46.3337367" lon="13.55387"><ele>441.20000000000005</ele><time>2026-04-25T15:06:59.957Z</time></trkpt><trkpt lat="46.333725" lon="13.5537317"><ele>441.0</ele><time>2026-04-25T15:07:00.956Z</time></trkpt><trkpt lat="46.3337117" lon="13.55357"><ele>440.5</ele><time>2026-04-25T15:07:01.957Z</time></trkpt><trkpt lat="46.3337017" lon="13.5533867"><ele>440.0</ele><time>2026-04-25T15:07:02.956Z</time></trkpt><trkpt lat="46.3336883" lon="13.5531917"><ele>439.5</ele><time>2026-04-25T15:07:03.957Z</time></trkpt><trkpt lat="46.3336667" lon="13.55299"><ele>439.0</ele><time>2026-04-25T15:07:04.958Z</time></trkpt><trkpt lat="46.3336317" lon="13.55278"><ele>439.0</ele><time>2026-04-25T15:07:05.958Z</time></trkpt><trkpt lat="46.3335767" lon="13.55257"><ele>439.0</ele><time>2026-04-25T15:07:06.957Z</time></trkpt><trkpt lat="46.3334983" lon="13.552365"><ele>439.0</ele><time>2026-04-25T15:07:07.957Z</time></trkpt><trkpt lat="46.3333983" lon="13.5521733"><ele>438.6666666666667</ele><time>2026-04-25T15:07:08.957Z</time></trkpt><trkpt lat="46.333285" lon="13.5519917"><ele>438.33333333333337</ele><time>2026-04-25T15:07:09.957Z</time></trkpt><trkpt lat="46.3331617" lon="13.5518117"><ele>438.0</ele><time>2026-04-25T15:07:10.958Z</time></trkpt><trkpt lat="46.333035" lon="13.551635"><ele>437.66666666666663</ele><time>2026-04-25T15:07:11.957Z</time></trkpt><trkpt lat="46.332905" lon="13.5514633"><ele>437.3333333333333</ele><time>2026-04-25T15:07:12.958Z</time></trkpt><trkpt lat="46.3327733" lon="13.551285"><ele>437.0</ele><time>2026-04-25T15:07:13.957Z</time></trkpt><trkpt lat="46.3326483" lon="13.5510983"><ele>436.0</ele><time>2026-04-25T15:07:14.957Z</time></trkpt><trkpt lat="46.3325317" lon="13.5509033"><ele>435.0</ele><time>2026-04-25T15:07:15.956Z</time></trkpt><trkpt lat="46.3324217" lon="13.5507017"><ele>434.0</ele><time>2026-04-25T15:07:16.958Z</time></trkpt><trkpt lat="46.332315" lon="13.55049"><ele>434.66666666666663</ele><time>2026-04-25T15:07:17.957Z</time></trkpt><trkpt lat="46.3322133" lon="13.5502783"><ele>435.33333333333337</ele><time>2026-04-25T15:07:18.957Z</time></trkpt><trkpt lat="46.3321183" lon="13.5500617"><ele>436.0</ele><time>2026-04-25T15:07:19.957Z</time></trkpt><trkpt lat="46.3320267" lon="13.549845"><ele>436.0</ele><time>2026-04-25T15:07:20.958Z</time></trkpt><trkpt lat="46.3319383" lon="13.5496233"><ele>436.0</ele><time>2026-04-25T15:07:21.957Z</time></trkpt><trkpt lat="46.3318467" lon="13.5493983"><ele>436.0</ele><time>2026-04-25T15:07:22.957Z</time></trkpt><trkpt lat="46.331755" lon="13.5491717"><ele>436.33333333333337</ele><time>2026-04-25T15:07:23.957Z</time></trkpt><trkpt lat="46.33166" lon="13.5489433"><ele>436.66666666666663</ele><time>2026-04-25T15:07:24.957Z</time></trkpt><trkpt lat="46.3315633" lon="13.5487117"><ele>437.0</ele><time>2026-04-25T15:07:25.957Z</time></trkpt><trkpt lat="46.3314667" lon="13.5484767"><ele>435.66666666666663</ele><time>2026-04-25T15:07:26.956Z</time></trkpt><trkpt lat="46.33137" lon="13.5482433"><ele>434.33333333333337</ele><time>2026-04-25T15:07:27.957Z</time></trkpt><trkpt lat="46.3312733" lon="13.5480083"><ele>433.0</ele><time>2026-04-25T15:07:28.957Z</time></trkpt><trkpt lat="46.3311767" lon="13.5477717"><ele>432.6666666666667</ele><time>2026-04-25T15:07:29.957Z</time></trkpt><trkpt lat="46.33108" lon="13.5475333"><ele>432.33333333333337</ele><time>2026-04-25T15:07:30.958Z</time></trkpt><trkpt lat="46.3309817" lon="13.5472933"><ele>432.0</ele><time>2026-04-25T15:07:31.957Z</time></trkpt><trkpt lat="46.3308867" lon="13.5470533"><ele>431.66666666666663</ele><time>2026-04-25T15:07:32.956Z</time></trkpt><trkpt lat="46.3307883" lon="13.5468133"><ele>431.3333333333333</ele><time>2026-04-25T15:07:33.958Z</time></trkpt><trkpt lat="46.3306883" lon="13.5465717"><ele>431.0</ele><time>2026-04-25T15:07:34.958Z</time></trkpt><trkpt lat="46.3305883" lon="13.5463267"><ele>430.3333333333333</ele><time>2026-04-25T15:07:35.957Z</time></trkpt><trkpt lat="46.33049" lon="13.546085"><ele>429.66666666666663</ele><time>2026-04-25T15:07:36.957Z</time></trkpt><trkpt lat="46.33039" lon="13.5458433"><ele>429.0</ele><time>2026-04-25T15:07:37.958Z</time></trkpt><trkpt lat="46.3302917" lon="13.5456017"><ele>429.0</ele><time>2026-04-25T15:07:38.957Z</time></trkpt><trkpt lat="46.3301933" lon="13.5453633"><ele>429.0</ele><time>2026-04-25T15:07:39.958Z</time></trkpt><trkpt lat="46.330095" lon="13.5451283"><ele>429.0</ele><time>2026-04-25T15:07:40.957Z</time></trkpt><trkpt lat="46.3300017" lon="13.5449"><ele>429.0</ele><time>2026-04-25T15:07:41.957Z</time></trkpt><trkpt lat="46.32992" lon="13.5446733"><ele>429.0</ele><time>2026-04-25T15:07:42.957Z</time></trkpt><trkpt lat="46.3298483" lon="13.5444383"><ele>429.0</ele><time>2026-04-25T15:07:43.958Z</time></trkpt><trkpt lat="46.3297967" lon="13.5441883"><ele>428.0</ele><time>2026-04-25T15:07:44.958Z</time></trkpt><trkpt lat="46.32977" lon="13.54393"><ele>427.0</ele><time>2026-04-25T15:07:45.957Z</time></trkpt><trkpt lat="46.3297767" lon="13.54366"><ele>426.0</ele><time>2026-04-25T15:07:46.958Z</time></trkpt><trkpt lat="46.3298183" lon="13.5433817"><ele>425.33333333333337</ele><time>2026-04-25T15:07:47.957Z</time></trkpt><trkpt lat="46.32991" lon="13.5430967"><ele>424.6666666666667</ele><time>2026-04-25T15:07:48.958Z</time></trkpt><trkpt lat="46.330045" lon="13.5428283"><ele>424.0</ele><time>2026-04-25T15:07:49.957Z</time></trkpt><trkpt lat="46.3302233" lon="13.5425883"><ele>423.5</ele><time>2026-04-25T15:07:50.958Z</time></trkpt><trkpt lat="46.33044" lon="13.5423883"><ele>423.0</ele><time>2026-04-25T15:07:51.957Z</time></trkpt><trkpt lat="46.33067" lon="13.5422133"><ele>423.0</ele><time>2026-04-25T15:07:52.957Z</time></trkpt><trkpt lat="46.3308883" lon="13.542055"><ele>423.0</ele><time>2026-04-25T15:07:53.956Z</time></trkpt><trkpt lat="46.3310867" lon="13.541905"><ele>423.66666666666663</ele><time>2026-04-25T15:07:54.957Z</time></trkpt><trkpt lat="46.3312683" lon="13.541765"><ele>424.3333333333333</ele><time>2026-04-25T15:07:55.957Z</time></trkpt><trkpt lat="46.3314383" lon="13.5416333"><ele>425.0</ele><time>2026-04-25T15:07:56.956Z</time></trkpt><trkpt lat="46.3315933" lon="13.541505"><ele>425.3333333333333</ele><time>2026-04-25T15:07:57.961Z</time></trkpt><trkpt lat="46.331735" lon="13.5413783"><ele>425.66666666666663</ele><time>2026-04-25T15:07:58.959Z</time></trkpt><trkpt lat="46.3318567" lon="13.541245"><ele>426.0</ele><time>2026-04-25T15:07:59.958Z</time></trkpt><trkpt lat="46.331965" lon="13.5411083"><ele>426.0</ele><time>2026-04-25T15:08:00.958Z</time></trkpt><trkpt lat="46.3320583" lon="13.5409617"><ele>426.0</ele><time>2026-04-25T15:08:01.958Z</time></trkpt><trkpt lat="46.3321333" lon="13.5408117"><ele>426.0</ele><time>2026-04-25T15:08:02.957Z</time></trkpt><trkpt lat="46.3321883" lon="13.5406617"><ele>426.0</ele><time>2026-04-25T15:08:03.957Z</time></trkpt><trkpt lat="46.33223" lon="13.5405167"><ele>426.6666666666667</ele><time>2026-04-25T15:08:04.957Z</time></trkpt><trkpt lat="46.33226" lon="13.5403867"><ele>427.33333333333337</ele><time>2026-04-25T15:08:05.957Z</time></trkpt><trkpt lat="46.3322817" lon="13.5402717"><ele>428.0</ele><time>2026-04-25T15:08:06.958Z</time></trkpt><trkpt lat="46.3323067" lon="13.5401667"><ele>428.6666666666667</ele><time>2026-04-25T15:08:07.957Z</time></trkpt><trkpt lat="46.3323417" lon="13.5400717"><ele>429.33333333333337</ele><time>2026-04-25T15:08:08.957Z</time></trkpt><trkpt lat="46.3323933" lon="13.5400033"><ele>430.0</ele><time>2026-04-25T15:08:09.957Z</time></trkpt><trkpt lat="46.3324633" lon="13.5399933"><ele>430.00000000000006</ele><time>2026-04-25T15:08:10.957Z</time></trkpt><trkpt lat="46.3325317" lon="13.5400267"><ele>430.0</ele><time>2026-04-25T15:08:11.957Z</time></trkpt><trkpt lat="46.33259" lon="13.5401183"><ele>430.0</ele><time>2026-04-25T15:08:12.957Z</time></trkpt><trkpt lat="46.332635" lon="13.540225"><ele>430.0</ele><time>2026-04-25T15:08:13.958Z</time></trkpt><trkpt lat="46.33268" lon="13.5403467"><ele>430.00000000000006</ele><time>2026-04-25T15:08:14.958Z</time></trkpt><trkpt lat="46.3327183" lon="13.540475"><ele>430.0</ele><time>2026-04-25T15:08:15.957Z</time></trkpt><trkpt lat="46.3327467" lon="13.5406017"><ele>430.00000000000006</ele><time>2026-04-25T15:08:16.958Z</time></trkpt><trkpt lat="46.3327617" lon="13.5407233"><ele>430.0</ele><time>2026-04-25T15:08:17.957Z</time></trkpt><trkpt lat="46.3327633" lon="13.5408333"><ele>430.0</ele><time>2026-04-25T15:08:18.957Z</time></trkpt><trkpt lat="46.33276" lon="13.540925"><ele>430.0</ele><time>2026-04-25T15:08:19.956Z</time></trkpt><trkpt lat="46.332755" lon="13.541065"><ele>430.00000000000006</ele><time>2026-04-25T15:08:21.957Z</time></trkpt><trkpt lat="46.33277" lon="13.541175"><ele>430.0</ele><time>2026-04-25T15:08:23.957Z</time></trkpt><trkpt lat="46.3328017" lon="13.5412817"><ele>429.0</ele><time>2026-04-25T15:08:26.959Z</time></trkpt><trkpt lat="46.3328217" lon="13.5413967"><ele>429.0</ele><time>2026-04-25T15:08:30.96Z</time></trkpt><trkpt lat="46.33293" lon="13.5414267"><ele>429.0</ele><time>2026-04-25T15:10:45.956Z</time></trkpt></trkseg></trk></gpx>